<?xml version='1.0' encoding='UTF-8'?><gpx version="1.1" creator="JPX - https://github.com/jenetics/jpx" xmlns="http://www.topografix.com/GPX/1/1"><trk><trkseg><trkpt lat="44.9184883" lon="8.2725226"><ele>131.0</ele><time>2026-05-01T08:43:20.154Z</time></trkpt><trkpt lat="44.9184734" lon="8.2726282"><ele>131.0</ele><time>2026-05-01T08:43:23.155Z</time></trkpt><trkpt lat="44.9184356" lon="8.2728574"><ele>131.0</ele><time>2026-05-01T08:43:27.159Z</time></trkpt><trkpt lat="44.918502" lon="8.2729"><ele>131.0</ele><time>2026-05-01T08:43:31.153Z</time></trkpt><trkpt lat="44.9186582" lon="8.2728647"><ele>131.0</ele><time>2026-05-01T08:43:34.154Z</time></trkpt><trkpt lat="44.918733" lon="8.2728687"><ele>131.0</ele><time>2026-05-01T08:43:35.154Z</time></trkpt><trkpt lat="44.918818" lon="8.2728572"><ele>131.0</ele><time>2026-05-01T08:43:36.153Z</time></trkpt><trkpt lat="44.9188972" lon="8.2728486"><ele>131.0</ele><time>2026-05-01T08:43:37.152Z</time></trkpt><trkpt lat="44.9189761" lon="8.2728402"><ele>131.0</ele><time>2026-05-01T08:43:38.152Z</time></trkpt><trkpt lat="44.9190576" lon="8.2728287"><ele>131.0</ele><time>2026-05-01T08:43:39.151Z</time></trkpt><trkpt lat="44.9191413" lon="8.2728156"><ele>131.0</ele><time>2026-05-01T08:43:40.156Z</time></trkpt><trkpt lat="44.9192294" lon="8.2727993"><ele>131.0</ele><time>2026-05-01T08:43:41.152Z</time></trkpt><trkpt lat="44.9193179" lon="8.2727864"><ele>131.0</ele><time>2026-05-01T08:43:42.15Z</time></trkpt><trkpt lat="44.9194096" lon="8.2727778"><ele>131.0</ele><time>2026-05-01T08:43:43.153Z</time></trkpt><trkpt lat="44.9195067" lon="8.2727783"><ele>131.0</ele><time>2026-05-01T08:43:44.153Z</time></trkpt><trkpt lat="44.9196067" lon="8.2727767"><ele>131.2</ele><time>2026-05-01T08:43:45.155Z</time></trkpt><trkpt lat="44.9197083" lon="8.2727767"><ele>131.39999999999998</ele><time>2026-05-01T08:43:46.152Z</time></trkpt><trkpt lat="44.91981" lon="8.2727717"><ele>131.6</ele><time>2026-05-01T08:43:47.155Z</time></trkpt><trkpt lat="44.91991" lon="8.2727717"><ele>131.79999999999998</ele><time>2026-05-01T08:43:48.15Z</time></trkpt><trkpt lat="44.9200133" lon="8.2727733"><ele>132.0</ele><time>2026-05-01T08:43:49.155Z</time></trkpt><trkpt lat="44.9201183" lon="8.27277"><ele>131.4</ele><time>2026-05-01T08:43:50.155Z</time></trkpt><trkpt lat="44.920215" lon="8.2727717"><ele>130.79999999999998</ele><time>2026-05-01T08:43:51.152Z</time></trkpt><trkpt lat="44.9203133" lon="8.272775"><ele>130.2</ele><time>2026-05-01T08:43:52.152Z</time></trkpt><trkpt lat="44.9204133" lon="8.272775"><ele>129.6</ele><time>2026-05-01T08:43:53.152Z</time></trkpt><trkpt lat="44.9205167" lon="8.272765"><ele>129.0</ele><time>2026-05-01T08:43:54.154Z</time></trkpt><trkpt lat="44.920625" lon="8.27275"><ele>129.0</ele><time>2026-05-01T08:43:55.154Z</time></trkpt><trkpt lat="44.92074" lon="8.2727217"><ele>129.0</ele><time>2026-05-01T08:43:56.154Z</time></trkpt><trkpt lat="44.9208617" lon="8.2726833"><ele>129.0</ele><time>2026-05-01T08:43:57.155Z</time></trkpt><trkpt lat="44.920985" lon="8.27264"><ele>129.0</ele><time>2026-05-01T08:43:58.152Z</time></trkpt><trkpt lat="44.9211133" lon="8.272595"><ele>128.5</ele><time>2026-05-01T08:43:59.152Z</time></trkpt><trkpt lat="44.92124" lon="8.27255"><ele>128.0</ele><time>2026-05-01T08:44:00.154Z</time></trkpt><trkpt lat="44.9213717" lon="8.2725067"><ele>127.5</ele><time>2026-05-01T08:44:01.153Z</time></trkpt><trkpt lat="44.9215017" lon="8.2724633"><ele>127.0</ele><time>2026-05-01T08:44:02.152Z</time></trkpt><trkpt lat="44.921635" lon="8.27242"><ele>127.25</ele><time>2026-05-01T08:44:03.149Z</time></trkpt><trkpt lat="44.9217683" lon="8.27238"><ele>127.5</ele><time>2026-05-01T08:44:04.153Z</time></trkpt><trkpt lat="44.9219033" lon="8.27234"><ele>127.75</ele><time>2026-05-01T08:44:05.153Z</time></trkpt><trkpt lat="44.9220433" lon="8.2722983"><ele>128.0</ele><time>2026-05-01T08:44:06.153Z</time></trkpt><trkpt lat="44.92219" lon="8.2722533"><ele>129.0</ele><time>2026-05-01T08:44:07.152Z</time></trkpt><trkpt lat="44.9223333" lon="8.2722083"><ele>130.0</ele><time>2026-05-01T08:44:08.157Z</time></trkpt><trkpt lat="44.92248" lon="8.2721633"><ele>131.0</ele><time>2026-05-01T08:44:09.152Z</time></trkpt><trkpt lat="44.922625" lon="8.2721167"><ele>132.0</ele><time>2026-05-01T08:44:10.151Z</time></trkpt><trkpt lat="44.9227617" lon="8.2720783"><ele>132.0</ele><time>2026-05-01T08:44:11.153Z</time></trkpt><trkpt lat="44.9228867" lon="8.2720383"><ele>132.0</ele><time>2026-05-01T08:44:12.154Z</time></trkpt><trkpt lat="44.9230017" lon="8.2720017"><ele>132.0</ele><time>2026-05-01T08:44:13.154Z</time></trkpt><trkpt lat="44.9231067" lon="8.271965"><ele>132.0</ele><time>2026-05-01T08:44:14.158Z</time></trkpt><trkpt lat="44.9232033" lon="8.2719267"><ele>132.0</ele><time>2026-05-01T08:44:15.152Z</time></trkpt><trkpt lat="44.9232983" lon="8.2718917"><ele>132.0</ele><time>2026-05-01T08:44:16.156Z</time></trkpt><trkpt lat="44.923395" lon="8.271855"><ele>132.0</ele><time>2026-05-01T08:44:17.152Z</time></trkpt><trkpt lat="44.9234883" lon="8.2718183"><ele>132.0</ele><time>2026-05-01T08:44:18.153Z</time></trkpt><trkpt lat="44.9235833" lon="8.271785"><ele>132.0</ele><time>2026-05-01T08:44:19.151Z</time></trkpt><trkpt lat="44.9236733" lon="8.27175"><ele>131.5</ele><time>2026-05-01T08:44:20.155Z</time></trkpt><trkpt lat="44.923755" lon="8.2717217"><ele>131.0</ele><time>2026-05-01T08:44:21.151Z</time></trkpt><trkpt lat="44.9238267" lon="8.2716967"><ele>130.5</ele><time>2026-05-01T08:44:22.148Z</time></trkpt><trkpt lat="44.92389" lon="8.2716817"><ele>130.0</ele><time>2026-05-01T08:44:23.153Z</time></trkpt><trkpt lat="44.9239617" lon="8.2716533"><ele>129.5</ele><time>2026-05-01T08:44:25.153Z</time></trkpt><trkpt lat="44.9240883" lon="8.2716433"><ele>129.0</ele><time>2026-05-01T08:45:11.152Z</time></trkpt><trkpt lat="44.9241717" lon="8.27164"><ele>129.4</ele><time>2026-05-01T08:45:12.153Z</time></trkpt><trkpt lat="44.92426" lon="8.27165"><ele>129.8</ele><time>2026-05-01T08:45:13.161Z</time></trkpt><trkpt lat="44.9243567" lon="8.2716767"><ele>130.2</ele><time>2026-05-01T08:45:14.153Z</time></trkpt><trkpt lat="44.92446" lon="8.2717217"><ele>130.6</ele><time>2026-05-01T08:45:15.151Z</time></trkpt><trkpt lat="44.9245633" lon="8.271765"><ele>131.0</ele><time>2026-05-01T08:45:16.155Z</time></trkpt><trkpt lat="44.9246667" lon="8.2718067"><ele>131.0</ele><time>2026-05-01T08:45:17.155Z</time></trkpt><trkpt lat="44.9247733" lon="8.2718467"><ele>131.0</ele><time>2026-05-01T08:45:18.151Z</time></trkpt><trkpt lat="44.9248833" lon="8.27189"><ele>131.0</ele><time>2026-05-01T08:45:19.155Z</time></trkpt><trkpt lat="44.9249933" lon="8.2719367"><ele>131.0</ele><time>2026-05-01T08:45:20.156Z</time></trkpt><trkpt lat="44.9251033" lon="8.2719867"><ele>131.8</ele><time>2026-05-01T08:45:21.151Z</time></trkpt><trkpt lat="44.9252133" lon="8.2720383"><ele>132.6</ele><time>2026-05-01T08:45:22.154Z</time></trkpt><trkpt lat="44.925315" lon="8.272085"><ele>133.4</ele><time>2026-05-01T08:45:23.153Z</time></trkpt><trkpt lat="44.9253983" lon="8.2721217"><ele>134.2</ele><time>2026-05-01T08:45:24.157Z</time></trkpt><trkpt lat="44.9254733" lon="8.2721467"><ele>135.0</ele><time>2026-05-01T08:45:25.153Z</time></trkpt><trkpt lat="44.9255383" lon="8.272175"><ele>134.4</ele><time>2026-05-01T08:45:26.153Z</time></trkpt><trkpt lat="44.9255933" lon="8.2723267"><ele>133.8</ele><time>2026-05-01T08:45:28.161Z</time></trkpt><trkpt lat="44.9256033" lon="8.272435"><ele>133.2</ele><time>2026-05-01T08:45:29.157Z</time></trkpt><trkpt lat="44.925595" lon="8.2725617"><ele>132.6</ele><time>2026-05-01T08:45:30.154Z</time></trkpt><trkpt lat="44.9255783" lon="8.2727033"><ele>132.0</ele><time>2026-05-01T08:45:31.151Z</time></trkpt><trkpt lat="44.925565" lon="8.272845"><ele>132.0</ele><time>2026-05-01T08:45:32.154Z</time></trkpt><trkpt lat="44.9255517" lon="8.27298"><ele>132.0</ele><time>2026-05-01T08:45:33.153Z</time></trkpt><trkpt lat="44.9255367" lon="8.273105"><ele>132.0</ele><time>2026-05-01T08:45:34.155Z</time></trkpt><trkpt lat="44.9255233" lon="8.2732183"><ele>132.0</ele><time>2026-05-01T08:45:35.155Z</time></trkpt><trkpt lat="44.9255083" lon="8.27332"><ele>132.0</ele><time>2026-05-01T08:45:36.157Z</time></trkpt><trkpt lat="44.9254833" lon="8.2734267"><ele>132.0</ele><time>2026-05-01T08:45:38.16Z</time></trkpt><trkpt lat="44.9255433" lon="8.2735183"><ele>131.5</ele><time>2026-05-01T08:45:41.155Z</time></trkpt><trkpt lat="44.925675" lon="8.273585"><ele>131.0</ele><time>2026-05-01T08:45:43.154Z</time></trkpt><trkpt lat="44.925765" lon="8.273615"><ele>130.5</ele><time>2026-05-01T08:45:44.15Z</time></trkpt><trkpt lat="44.925875" lon="8.2736433"><ele>130.0</ele><time>2026-05-01T08:45:45.155Z</time></trkpt><trkpt lat="44.9260017" lon="8.2736717"><ele>130.0</ele><time>2026-05-01T08:45:46.152Z</time></trkpt><trkpt lat="44.9261317" lon="8.2737067"><ele>130.0</ele><time>2026-05-01T08:45:47.152Z</time></trkpt><trkpt lat="44.9262683" lon="8.2737483"><ele>130.0</ele><time>2026-05-01T08:45:48.154Z</time></trkpt><trkpt lat="44.9263967" lon="8.2737883"><ele>130.0</ele><time>2026-05-01T08:45:49.151Z</time></trkpt><trkpt lat="44.926535" lon="8.2738317"><ele>130.0</ele><time>2026-05-01T08:45:50.152Z</time></trkpt><trkpt lat="44.9266767" lon="8.273875"><ele>130.0</ele><time>2026-05-01T08:45:51.159Z</time></trkpt><trkpt lat="44.926815" lon="8.2739067"><ele>130.0</ele><time>2026-05-01T08:45:52.159Z</time></trkpt><trkpt lat="44.926965" lon="8.2739333"><ele>130.0</ele><time>2026-05-01T08:45:53.158Z</time></trkpt><trkpt lat="44.927115" lon="8.273955"><ele>132.25</ele><time>2026-05-01T08:45:54.154Z</time></trkpt><trkpt lat="44.92726" lon="8.273975"><ele>134.5</ele><time>2026-05-01T08:45:55.152Z</time></trkpt><trkpt lat="44.92741" lon="8.2739917"><ele>136.75</ele><time>2026-05-01T08:45:56.16Z</time></trkpt><trkpt lat="44.92756" lon="8.2740033"><ele>139.0</ele><time>2026-05-01T08:45:57.156Z</time></trkpt><trkpt lat="44.9277133" lon="8.2740117"><ele>139.0</ele><time>2026-05-01T08:45:58.158Z</time></trkpt><trkpt lat="44.9278667" lon="8.2740267"><ele>139.0</ele><time>2026-05-01T08:45:59.157Z</time></trkpt><trkpt lat="44.9280067" lon="8.2740533"><ele>139.0</ele><time>2026-05-01T08:46:00.155Z</time></trkpt><trkpt lat="44.92814" lon="8.2741033"><ele>139.0</ele><time>2026-05-01T08:46:01.153Z</time></trkpt><trkpt lat="44.9282683" lon="8.27417"><ele>139.0</ele><time>2026-05-01T08:46:02.156Z</time></trkpt><trkpt lat="44.92839" lon="8.2742367"><ele>139.0</ele><time>2026-05-01T08:46:03.151Z</time></trkpt><trkpt lat="44.9285283" lon="8.2743133"><ele>139.0</ele><time>2026-05-01T08:46:04.153Z</time></trkpt><trkpt lat="44.9286517" lon="8.27439"><ele>139.0</ele><time>2026-05-01T08:46:05.152Z</time></trkpt><trkpt lat="44.9287733" lon="8.2744617"><ele>137.5</ele><time>2026-05-01T08:46:06.15Z</time></trkpt><trkpt lat="44.928895" lon="8.2745367"><ele>136.0</ele><time>2026-05-01T08:46:07.151Z</time></trkpt><trkpt lat="44.92902" lon="8.2746133"><ele>134.5</ele><time>2026-05-01T08:46:08.152Z</time></trkpt><trkpt lat="44.9291417" lon="8.2746867"><ele>133.0</ele><time>2026-05-01T08:46:09.154Z</time></trkpt><trkpt lat="44.9292667" lon="8.2747483"><ele>133.0</ele><time>2026-05-01T08:46:10.157Z</time></trkpt><trkpt lat="44.92939" lon="8.27478"><ele>133.0</ele><time>2026-05-01T08:46:11.155Z</time></trkpt><trkpt lat="44.9295167" lon="8.2747783"><ele>133.0</ele><time>2026-05-01T08:46:12.155Z</time></trkpt><trkpt lat="44.9296433" lon="8.2747517"><ele>133.0</ele><time>2026-05-01T08:46:13.159Z</time></trkpt><trkpt lat="44.929765" lon="8.2747167"><ele>133.0</ele><time>2026-05-01T08:46:14.152Z</time></trkpt><trkpt lat="44.9298833" lon="8.2746817"><ele>133.0</ele><time>2026-05-01T08:46:15.153Z</time></trkpt><trkpt lat="44.9300083" lon="8.2746367"><ele>133.0</ele><time>2026-05-01T08:46:16.156Z</time></trkpt><trkpt lat="44.9301283" lon="8.2746083"><ele>133.0</ele><time>2026-05-01T08:46:17.155Z</time></trkpt><trkpt lat="44.930255" lon="8.274585"><ele>133.0</ele><time>2026-05-01T08:46:18.156Z</time></trkpt><trkpt lat="44.9303833" lon="8.274575"><ele>133.0</ele><time>2026-05-01T08:46:19.155Z</time></trkpt><trkpt lat="44.9305217" lon="8.2745733"><ele>133.0</ele><time>2026-05-01T08:46:20.154Z</time></trkpt><trkpt lat="44.9306583" lon="8.27459"><ele>133.0</ele><time>2026-05-01T08:46:21.152Z</time></trkpt><trkpt lat="44.9307967" lon="8.2746083"><ele>132.75</ele><time>2026-05-01T08:46:22.156Z</time></trkpt><trkpt lat="44.93094" lon="8.2746383"><ele>132.5</ele><time>2026-05-01T08:46:23.155Z</time></trkpt><trkpt lat="44.9310817" lon="8.2746667"><ele>132.25</ele><time>2026-05-01T08:46:24.153Z</time></trkpt><trkpt lat="44.9312283" lon="8.27468"><ele>132.0</ele><time>2026-05-01T08:46:25.152Z</time></trkpt><trkpt lat="44.9313733" lon="8.2746867"><ele>132.0</ele><time>2026-05-01T08:46:26.152Z</time></trkpt><trkpt lat="44.931525" lon="8.2746817"><ele>132.0</ele><time>2026-05-01T08:46:27.153Z</time></trkpt><trkpt lat="44.931675" lon="8.27466"><ele>132.0</ele><time>2026-05-01T08:46:28.151Z</time></trkpt><trkpt lat="44.9318233" lon="8.2746233"><ele>132.75</ele><time>2026-05-01T08:46:29.157Z</time></trkpt><trkpt lat="44.9319683" lon="8.274615"><ele>133.5</ele><time>2026-05-01T08:46:30.155Z</time></trkpt><trkpt lat="44.9321167" lon="8.27463"><ele>134.25</ele><time>2026-05-01T08:46:31.155Z</time></trkpt><trkpt lat="44.9322633" lon="8.2746783"><ele>135.0</ele><time>2026-05-01T08:46:32.152Z</time></trkpt><trkpt lat="44.9324117" lon="8.2747517"><ele>136.0</ele><time>2026-05-01T08:46:33.149Z</time></trkpt><trkpt lat="44.9325567" lon="8.27482"><ele>137.0</ele><time>2026-05-01T08:46:34.157Z</time></trkpt><trkpt lat="44.9327" lon="8.2748833"><ele>138.0</ele><time>2026-05-01T08:46:35.158Z</time></trkpt><trkpt lat="44.9328517" lon="8.2749583"><ele>138.0</ele><time>2026-05-01T08:46:36.158Z</time></trkpt><trkpt lat="44.9330017" lon="8.2750317"><ele>138.0</ele><time>2026-05-01T08:46:37.157Z</time></trkpt><trkpt lat="44.9331517" lon="8.2751117"><ele>138.0</ele><time>2026-05-01T08:46:38.158Z</time></trkpt><trkpt lat="44.9332967" lon="8.2751917"><ele>137.0</ele><time>2026-05-01T08:46:39.157Z</time></trkpt><trkpt lat="44.9334367" lon="8.2752867"><ele>136.0</ele><time>2026-05-01T08:46:40.152Z</time></trkpt><trkpt lat="44.9335717" lon="8.2753933"><ele>135.0</ele><time>2026-05-01T08:46:41.156Z</time></trkpt><trkpt lat="44.933695" lon="8.2755183"><ele>136.25</ele><time>2026-05-01T08:46:42.155Z</time></trkpt><trkpt lat="44.9338017" lon="8.27566"><ele>137.5</ele><time>2026-05-01T08:46:43.152Z</time></trkpt><trkpt lat="44.9338933" lon="8.275825"><ele>138.75</ele><time>2026-05-01T08:46:44.154Z</time></trkpt><trkpt lat="44.933975" lon="8.2760017"><ele>140.0</ele><time>2026-05-01T08:46:45.154Z</time></trkpt><trkpt lat="44.9340517" lon="8.2761833"><ele>140.0</ele><time>2026-05-01T08:46:46.155Z</time></trkpt><trkpt lat="44.9341317" lon="8.2763717"><ele>140.0</ele><time>2026-05-01T08:46:47.158Z</time></trkpt><trkpt lat="44.934225" lon="8.2765567"><ele>140.0</ele><time>2026-05-01T08:46:48.153Z</time></trkpt><trkpt lat="44.9343083" lon="8.276755"><ele>140.33333333333331</ele><time>2026-05-01T08:46:49.155Z</time></trkpt><trkpt lat="44.9344183" lon="8.276935"><ele>140.66666666666666</ele><time>2026-05-01T08:46:50.153Z</time></trkpt><trkpt lat="44.9345083" lon="8.2771483"><ele>141.0</ele><time>2026-05-01T08:46:51.162Z</time></trkpt><trkpt lat="44.9346417" lon="8.2773217"><ele>141.0</ele><time>2026-05-01T08:46:52.153Z</time></trkpt><trkpt lat="44.934775" lon="8.2774883"><ele>141.0</ele><time>2026-05-01T08:46:53.157Z</time></trkpt><trkpt lat="44.9349067" lon="8.2776533"><ele>141.0</ele><time>2026-05-01T08:46:54.157Z</time></trkpt><trkpt lat="44.9350483" lon="8.2777983"><ele>141.0</ele><time>2026-05-01T08:46:55.157Z</time></trkpt><trkpt lat="44.9351867" lon="8.2779467"><ele>141.0</ele><time>2026-05-01T08:46:56.153Z</time></trkpt><trkpt lat="44.9353317" lon="8.2780783"><ele>141.0</ele><time>2026-05-01T08:46:57.151Z</time></trkpt><trkpt lat="44.9354783" lon="8.2782033"><ele>141.0</ele><time>2026-05-01T08:46:58.158Z</time></trkpt><trkpt lat="44.935625" lon="8.2783133"><ele>141.0</ele><time>2026-05-01T08:46:59.155Z</time></trkpt><trkpt lat="44.93578" lon="8.278415"><ele>141.0</ele><time>2026-05-01T08:47:00.157Z</time></trkpt><trkpt lat="44.935935" lon="8.278505"><ele>141.0</ele><time>2026-05-01T08:47:01.156Z</time></trkpt><trkpt lat="44.9360867" lon="8.2786067"><ele>141.0</ele><time>2026-05-01T08:47:02.153Z</time></trkpt><trkpt lat="44.9362267" lon="8.27872"><ele>141.0</ele><time>2026-05-01T08:47:03.152Z</time></trkpt><trkpt lat="44.936355" lon="8.278835"><ele>142.5</ele><time>2026-05-01T08:47:04.151Z</time></trkpt><trkpt lat="44.9364667" lon="8.27896"><ele>144.0</ele><time>2026-05-01T08:47:05.151Z</time></trkpt><trkpt lat="44.93656" lon="8.2790983"><ele>145.5</ele><time>2026-05-01T08:47:06.155Z</time></trkpt><trkpt lat="44.9366367" lon="8.279245"><ele>147.0</ele><time>2026-05-01T08:47:07.155Z</time></trkpt><trkpt lat="44.936705" lon="8.27937"><ele>145.79999999999998</ele><time>2026-05-01T08:47:08.159Z</time></trkpt><trkpt lat="44.936765" lon="8.279485"><ele>144.6</ele><time>2026-05-01T08:47:09.157Z</time></trkpt><trkpt lat="44.936815" lon="8.2795833"><ele>143.39999999999998</ele><time>2026-05-01T08:47:10.157Z</time></trkpt><trkpt lat="44.93685" lon="8.2796733"><ele>142.2</ele><time>2026-05-01T08:47:11.158Z</time></trkpt><trkpt lat="44.9368467" lon="8.27983"><ele>141.0</ele><time>2026-05-01T08:47:13.159Z</time></trkpt><trkpt lat="44.9367283" lon="8.279875"><ele>142.2</ele><time>2026-05-01T08:47:15.157Z</time></trkpt><trkpt lat="44.9366533" lon="8.2798417"><ele>143.39999999999998</ele><time>2026-05-01T08:47:16.155Z</time></trkpt><trkpt lat="44.9365717" lon="8.279805"><ele>144.6</ele><time>2026-05-01T08:47:17.156Z</time></trkpt><trkpt lat="44.9364817" lon="8.2797517"><ele>145.79999999999998</ele><time>2026-05-01T08:47:18.152Z</time></trkpt><trkpt lat="44.9363733" lon="8.2796883"><ele>147.0</ele><time>2026-05-01T08:47:19.154Z</time></trkpt><trkpt lat="44.93627" lon="8.2796317"><ele>147.0</ele><time>2026-05-01T08:47:20.154Z</time></trkpt><trkpt lat="44.9361683" lon="8.279575"><ele>147.0</ele><time>2026-05-01T08:47:21.155Z</time></trkpt><trkpt lat="44.9360683" lon="8.2795433"><ele>147.0</ele><time>2026-05-01T08:47:22.152Z</time></trkpt><trkpt lat="44.9359617" lon="8.2795633"><ele>147.0</ele><time>2026-05-01T08:47:23.152Z</time></trkpt><trkpt lat="44.9358617" lon="8.279615"><ele>147.0</ele><time>2026-05-01T08:47:24.153Z</time></trkpt><trkpt lat="44.9357633" lon="8.2796883"><ele>153.0</ele><time>2026-05-01T08:47:25.156Z</time></trkpt><trkpt lat="44.93567" lon="8.27979"><ele>159.0</ele><time>2026-05-01T08:47:26.154Z</time></trkpt><trkpt lat="44.9355783" lon="8.279925"><ele>165.0</ele><time>2026-05-01T08:47:27.154Z</time></trkpt><trkpt lat="44.93549" lon="8.2800767"><ele>171.0</ele><time>2026-05-01T08:47:28.156Z</time></trkpt><trkpt lat="44.9354017" lon="8.2802367"><ele>171.0</ele><time>2026-05-01T08:47:29.156Z</time></trkpt><trkpt lat="44.9353067" lon="8.2803967"><ele>171.0</ele><time>2026-05-01T08:47:30.151Z</time></trkpt><trkpt lat="44.9352067" lon="8.28054"><ele>171.0</ele><time>2026-05-01T08:47:31.153Z</time></trkpt><trkpt lat="44.9351033" lon="8.2806667"><ele>171.0</ele><time>2026-05-01T08:47:32.154Z</time></trkpt><trkpt lat="44.9349883" lon="8.280765"><ele>172.4</ele><time>2026-05-01T08:47:33.151Z</time></trkpt><trkpt lat="44.9348767" lon="8.280865"><ele>173.8</ele><time>2026-05-01T08:47:34.153Z</time></trkpt><trkpt lat="44.93478" lon="8.2809533"><ele>175.20000000000002</ele><time>2026-05-01T08:47:35.154Z</time></trkpt><trkpt lat="44.934695" lon="8.2810283"><ele>176.60000000000002</ele><time>2026-05-01T08:47:36.152Z</time></trkpt><trkpt lat="44.9346383" lon="8.2811433"><ele>178.0</ele><time>2026-05-01T08:47:37.152Z</time></trkpt><trkpt lat="44.93459" lon="8.281265"><ele>178.0</ele><time>2026-05-01T08:47:38.159Z</time></trkpt><trkpt lat="44.9345533" lon="8.2814067"><ele>178.0</ele><time>2026-05-01T08:47:39.149Z</time></trkpt><trkpt lat="44.93453" lon="8.2815583"><ele>178.0</ele><time>2026-05-01T08:47:40.149Z</time></trkpt><trkpt lat="44.9345117" lon="8.2817267"><ele>178.0</ele><time>2026-05-01T08:47:41.154Z</time></trkpt><trkpt lat="44.9344783" lon="8.28188"><ele>179.5</ele><time>2026-05-01T08:47:42.153Z</time></trkpt><trkpt lat="44.9344383" lon="8.2820467"><ele>181.0</ele><time>2026-05-01T08:47:43.155Z</time></trkpt><trkpt lat="44.9343817" lon="8.2822067"><ele>182.5</ele><time>2026-05-01T08:47:44.152Z</time></trkpt><trkpt lat="44.93433" lon="8.2823633"><ele>184.0</ele><time>2026-05-01T08:47:45.154Z</time></trkpt><trkpt lat="44.9342933" lon="8.2825133"><ele>184.0</ele><time>2026-05-01T08:47:46.154Z</time></trkpt><trkpt lat="44.93426" lon="8.282665"><ele>184.0</ele><time>2026-05-01T08:47:47.153Z</time></trkpt><trkpt lat="44.9342233" lon="8.2828"><ele>184.0</ele><time>2026-05-01T08:47:48.154Z</time></trkpt><trkpt lat="44.934195" lon="8.2829333"><ele>184.0</ele><time>2026-05-01T08:47:49.151Z</time></trkpt><trkpt lat="44.934165" lon="8.283055"><ele>184.0</ele><time>2026-05-01T08:47:50.154Z</time></trkpt><trkpt lat="44.9341283" lon="8.283155"><ele>186.16666666666669</ele><time>2026-05-01T08:47:51.152Z</time></trkpt><trkpt lat="44.93408" lon="8.2832583"><ele>188.33333333333334</ele><time>2026-05-01T08:47:52.152Z</time></trkpt><trkpt lat="44.9340317" lon="8.2833467"><ele>190.5</ele><time>2026-05-01T08:47:53.156Z</time></trkpt><trkpt lat="44.9339733" lon="8.28342"><ele>192.66666666666669</ele><time>2026-05-01T08:47:54.151Z</time></trkpt><trkpt lat="44.9339233" lon="8.2834983"><ele>194.83333333333334</ele><time>2026-05-01T08:47:55.155Z</time></trkpt><trkpt lat="44.9338767" lon="8.2835717"><ele>197.0</ele><time>2026-05-01T08:47:56.152Z</time></trkpt><trkpt lat="44.9338133" lon="8.28371"><ele>197.0</ele><time>2026-05-01T08:47:58.15Z</time></trkpt><trkpt lat="44.9337817" lon="8.2838633"><ele>197.0</ele><time>2026-05-01T08:48:00.155Z</time></trkpt><trkpt lat="44.93376" lon="8.28402"><ele>197.0</ele><time>2026-05-01T08:48:02.159Z</time></trkpt><trkpt lat="44.9337533" lon="8.284165"><ele>197.0</ele><time>2026-05-01T08:48:04.153Z</time></trkpt><trkpt lat="44.9338117" lon="8.2843217"><ele>197.39999999999998</ele><time>2026-05-01T08:48:06.156Z</time></trkpt><trkpt lat="44.9338483" lon="8.2844083"><ele>197.79999999999998</ele><time>2026-05-01T08:48:07.158Z</time></trkpt><trkpt lat="44.9339083" lon="8.2844967"><ele>198.2</ele><time>2026-05-01T08:48:08.152Z</time></trkpt><trkpt lat="44.9339783" lon="8.284605"><ele>198.6</ele><time>2026-05-01T08:48:09.154Z</time></trkpt><trkpt lat="44.93407" lon="8.28468"><ele>199.0</ele><time>2026-05-01T08:48:10.152Z</time></trkpt><trkpt lat="44.934165" lon="8.28476"><ele>200.5</ele><time>2026-05-01T08:48:11.154Z</time></trkpt><trkpt lat="44.9342583" lon="8.2848467"><ele>202.0</ele><time>2026-05-01T08:48:12.152Z</time></trkpt><trkpt lat="44.934355" lon="8.2849367"><ele>203.5</ele><time>2026-05-01T08:48:13.157Z</time></trkpt><trkpt lat="44.9344483" lon="8.2850283"><ele>205.0</ele><time>2026-05-01T08:48:14.15Z</time></trkpt><trkpt lat="44.9345383" lon="8.2851267"><ele>205.0</ele><time>2026-05-01T08:48:15.153Z</time></trkpt><trkpt lat="44.9346183" lon="8.2852383"><ele>205.0</ele><time>2026-05-01T08:48:16.153Z</time></trkpt><trkpt lat="44.9346833" lon="8.2853633"><ele>205.0</ele><time>2026-05-01T08:48:17.155Z</time></trkpt><trkpt lat="44.9347533" lon="8.2854767"><ele>205.0</ele><time>2026-05-01T08:48:18.151Z</time></trkpt><trkpt lat="44.9348217" lon="8.2855917"><ele>205.0</ele><time>2026-05-01T08:48:19.151Z</time></trkpt><trkpt lat="44.934885" lon="8.2857117"><ele>205.2</ele><time>2026-05-01T08:48:20.154Z</time></trkpt><trkpt lat="44.93494" lon="8.285835"><ele>205.4</ele><time>2026-05-01T08:48:21.151Z</time></trkpt><trkpt lat="44.934995" lon="8.2859583"><ele>205.60000000000002</ele><time>2026-05-01T08:48:22.152Z</time></trkpt><trkpt lat="44.9350433" lon="8.2860817"><ele>205.8</ele><time>2026-05-01T08:48:23.156Z</time></trkpt><trkpt lat="44.9350933" lon="8.2861883"><ele>206.0</ele><time>2026-05-01T08:48:24.151Z</time></trkpt><trkpt lat="44.93515" lon="8.2862933"><ele>205.4</ele><time>2026-05-01T08:48:25.153Z</time></trkpt><trkpt lat="44.9352133" lon="8.2863967"><ele>204.8</ele><time>2026-05-01T08:48:26.152Z</time></trkpt><trkpt lat="44.9352967" lon="8.2864833"><ele>204.20000000000002</ele><time>2026-05-01T08:48:27.149Z</time></trkpt><trkpt lat="44.9353983" lon="8.286555"><ele>203.60000000000002</ele><time>2026-05-01T08:48:28.155Z</time></trkpt><trkpt lat="44.93551" lon="8.28663"><ele>203.0</ele><time>2026-05-01T08:48:29.157Z</time></trkpt><trkpt lat="44.93562" lon="8.28671"><ele>203.0</ele><time>2026-05-01T08:48:30.152Z</time></trkpt><trkpt lat="44.93572" lon="8.2868"><ele>203.0</ele><time>2026-05-01T08:48:31.158Z</time></trkpt><trkpt lat="44.93582" lon="8.2868783"><ele>203.0</ele><time>2026-05-01T08:48:32.152Z</time></trkpt><trkpt lat="44.935915" lon="8.2869417"><ele>203.0</ele><time>2026-05-01T08:48:33.153Z</time></trkpt><trkpt lat="44.93601" lon="8.2869783"><ele>203.0</ele><time>2026-05-01T08:48:34.152Z</time></trkpt><trkpt lat="44.9361133" lon="8.2869867"><ele>203.5</ele><time>2026-05-01T08:48:35.152Z</time></trkpt><trkpt lat="44.936225" lon="8.2869517"><ele>204.0</ele><time>2026-05-01T08:48:36.155Z</time></trkpt><trkpt lat="44.9363233" lon="8.2869117"><ele>204.5</ele><time>2026-05-01T08:48:37.154Z</time></trkpt><trkpt lat="44.9364283" lon="8.2868483"><ele>205.0</ele><time>2026-05-01T08:48:38.154Z</time></trkpt><trkpt lat="44.9365383" lon="8.286775"><ele>205.0</ele><time>2026-05-01T08:48:39.154Z</time></trkpt><trkpt lat="44.9366483" lon="8.28669"><ele>205.0</ele><time>2026-05-01T08:48:40.152Z</time></trkpt><trkpt lat="44.93676" lon="8.2866083"><ele>205.0</ele><time>2026-05-01T08:48:41.155Z</time></trkpt><trkpt lat="44.93687" lon="8.2865333"><ele>205.0</ele><time>2026-05-01T08:48:42.156Z</time></trkpt><trkpt lat="44.9369767" lon="8.2864683"><ele>206.0</ele><time>2026-05-01T08:48:43.155Z</time></trkpt><trkpt lat="44.9370867" lon="8.2864017"><ele>207.0</ele><time>2026-05-01T08:48:44.151Z</time></trkpt><trkpt lat="44.93719" lon="8.2863367"><ele>208.0</ele><time>2026-05-01T08:48:45.152Z</time></trkpt><trkpt lat="44.9372917" lon="8.2862683"><ele>209.0</ele><time>2026-05-01T08:48:46.155Z</time></trkpt><trkpt lat="44.9373883" lon="8.2861983"><ele>209.0</ele><time>2026-05-01T08:48:47.151Z</time></trkpt><trkpt lat="44.9374817" lon="8.2861317"><ele>209.0</ele><time>2026-05-01T08:48:48.157Z</time></trkpt><trkpt lat="44.93757" lon="8.286065"><ele>209.0</ele><time>2026-05-01T08:48:49.152Z</time></trkpt><trkpt lat="44.9376567" lon="8.2859933"><ele>209.0</ele><time>2026-05-01T08:48:50.154Z</time></trkpt><trkpt lat="44.9377433" lon="8.2859133"><ele>209.0</ele><time>2026-05-01T08:48:51.152Z</time></trkpt><trkpt lat="44.9378317" lon="8.2858183"><ele>208.6</ele><time>2026-05-01T08:48:52.151Z</time></trkpt><trkpt lat="44.9379183" lon="8.2857233"><ele>208.2</ele><time>2026-05-01T08:48:53.156Z</time></trkpt><trkpt lat="44.9380033" lon="8.2856317"><ele>207.79999999999998</ele><time>2026-05-01T08:48:54.15Z</time></trkpt><trkpt lat="44.9380817" lon="8.2855417"><ele>207.39999999999998</ele><time>2026-05-01T08:48:55.156Z</time></trkpt><trkpt lat="44.9381583" lon="8.28546"><ele>207.0</ele><time>2026-05-01T08:48:56.15Z</time></trkpt><trkpt lat="44.93823" lon="8.2853783"><ele>207.0</ele><time>2026-05-01T08:48:57.151Z</time></trkpt><trkpt lat="44.938305" lon="8.2853167"><ele>207.0</ele><time>2026-05-01T08:48:58.154Z</time></trkpt><trkpt lat="44.9383817" lon="8.285275"><ele>207.0</ele><time>2026-05-01T08:48:59.154Z</time></trkpt><trkpt lat="44.93846" lon="8.285245"><ele>207.0</ele><time>2026-05-01T08:49:00.152Z</time></trkpt><trkpt lat="44.9385383" lon="8.2852467"><ele>207.0</ele><time>2026-05-01T08:49:01.153Z</time></trkpt><trkpt lat="44.938625" lon="8.2852717"><ele>207.0</ele><time>2026-05-01T08:49:02.152Z</time></trkpt><trkpt lat="44.9387067" lon="8.2853217"><ele>209.0</ele><time>2026-05-01T08:49:03.153Z</time></trkpt><trkpt lat="44.9387933" lon="8.2853783"><ele>211.0</ele><time>2026-05-01T08:49:04.155Z</time></trkpt><trkpt lat="44.9388767" lon="8.2854283"><ele>213.0</ele><time>2026-05-01T08:49:05.155Z</time></trkpt><trkpt lat="44.9389683" lon="8.2854667"><ele>215.0</ele><time>2026-05-01T08:49:06.153Z</time></trkpt><trkpt lat="44.9390583" lon="8.2855067"><ele>217.0</ele><time>2026-05-01T08:49:07.153Z</time></trkpt><trkpt lat="44.9391383" lon="8.28554"><ele>216.99999999999997</ele><time>2026-05-01T08:49:08.152Z</time></trkpt><trkpt lat="44.9392133" lon="8.2855617"><ele>217.0</ele><time>2026-05-01T08:49:09.151Z</time></trkpt><trkpt lat="44.939275" lon="8.2855867"><ele>217.0</ele><time>2026-05-01T08:49:10.152Z</time></trkpt><trkpt lat="44.939385" lon="8.2855967"><ele>217.0</ele><time>2026-05-01T08:49:12.155Z</time></trkpt><trkpt lat="44.9394683" lon="8.2855317"><ele>216.99999999999997</ele><time>2026-05-01T08:49:14.15Z</time></trkpt><trkpt lat="44.9394733" lon="8.285435"><ele>217.0</ele><time>2026-05-01T08:49:15.155Z</time></trkpt><trkpt lat="44.9394883" lon="8.285345"><ele>214.33333333333331</ele><time>2026-05-01T08:49:16.152Z</time></trkpt><trkpt lat="44.9394917" lon="8.2852317"><ele>211.66666666666666</ele><time>2026-05-01T08:49:17.154Z</time></trkpt><trkpt lat="44.939475" lon="8.2851083"><ele>209.0</ele><time>2026-05-01T08:49:18.154Z</time></trkpt><trkpt lat="44.93946" lon="8.2849917"><ele>206.33333333333331</ele><time>2026-05-01T08:49:19.151Z</time></trkpt><trkpt lat="44.939455" lon="8.2848783"><ele>203.66666666666666</ele><time>2026-05-01T08:49:20.157Z</time></trkpt><trkpt lat="44.9394567" lon="8.2847683"><ele>201.0</ele><time>2026-05-01T08:49:21.151Z</time></trkpt><trkpt lat="44.9394667" lon="8.2846533"><ele>201.0</ele><time>2026-05-01T08:49:22.151Z</time></trkpt><trkpt lat="44.9394883" lon="8.28455"><ele>201.0</ele><time>2026-05-01T08:49:23.153Z</time></trkpt><trkpt lat="44.9395233" lon="8.2844517"><ele>201.0</ele><time>2026-05-01T08:49:24.157Z</time></trkpt><trkpt lat="44.93957" lon="8.28437"><ele>201.0</ele><time>2026-05-01T08:49:25.157Z</time></trkpt><trkpt lat="44.9396367" lon="8.2842983"><ele>201.0</ele><time>2026-05-01T08:49:26.156Z</time></trkpt><trkpt lat="44.939735" lon="8.2842167"><ele>201.0</ele><time>2026-05-01T08:49:27.156Z</time></trkpt><trkpt lat="44.939835" lon="8.2841583"><ele>201.0</ele><time>2026-05-01T08:49:28.156Z</time></trkpt><trkpt lat="44.93993" lon="8.2841233"><ele>201.0</ele><time>2026-05-01T08:49:29.152Z</time></trkpt><trkpt lat="44.9400333" lon="8.2841217"><ele>201.0</ele><time>2026-05-01T08:49:30.157Z</time></trkpt><trkpt lat="44.9401483" lon="8.2841333"><ele>201.0</ele><time>2026-05-01T08:49:31.156Z</time></trkpt><trkpt lat="44.9402683" lon="8.2841633"><ele>201.0</ele><time>2026-05-01T08:49:32.155Z</time></trkpt><trkpt lat="44.9403783" lon="8.2842"><ele>200.20000000000002</ele><time>2026-05-01T08:49:33.153Z</time></trkpt><trkpt lat="44.9404817" lon="8.2842417"><ele>199.4</ele><time>2026-05-01T08:49:34.155Z</time></trkpt><trkpt lat="44.9405883" lon="8.2842867"><ele>198.6</ele><time>2026-05-01T08:49:35.155Z</time></trkpt><trkpt lat="44.9407017" lon="8.284345"><ele>197.8</ele><time>2026-05-01T08:49:36.155Z</time></trkpt><trkpt lat="44.9407983" lon="8.2844133"><ele>197.0</ele><time>2026-05-01T08:49:37.16Z</time></trkpt><trkpt lat="44.9408967" lon="8.2844767"><ele>197.0</ele><time>2026-05-01T08:49:38.154Z</time></trkpt><trkpt lat="44.940995" lon="8.284555"><ele>197.0</ele><time>2026-05-01T08:49:39.159Z</time></trkpt><trkpt lat="44.9410917" lon="8.2846167"><ele>197.0</ele><time>2026-05-01T08:49:40.157Z</time></trkpt><trkpt lat="44.9411867" lon="8.284675"><ele>197.0</ele><time>2026-05-01T08:49:41.155Z</time></trkpt><trkpt lat="44.9412817" lon="8.2847433"><ele>197.0</ele><time>2026-05-01T08:49:42.154Z</time></trkpt><trkpt lat="44.9413717" lon="8.2848017"><ele>197.00000000000003</ele><time>2026-05-01T08:49:43.155Z</time></trkpt><trkpt lat="44.9414467" lon="8.284865"><ele>197.0</ele><time>2026-05-01T08:49:44.154Z</time></trkpt><trkpt lat="44.9415233" lon="8.284905"><ele>197.0</ele><time>2026-05-01T08:49:45.151Z</time></trkpt><trkpt lat="44.9415967" lon="8.2849333"><ele>197.0</ele><time>2026-05-01T08:49:46.153Z</time></trkpt><trkpt lat="44.9416733" lon="8.2849617"><ele>197.00000000000003</ele><time>2026-05-01T08:49:47.155Z</time></trkpt><trkpt lat="44.9417583" lon="8.2849867"><ele>197.0</ele><time>2026-05-01T08:49:48.154Z</time></trkpt><trkpt lat="44.94185" lon="8.2850067"><ele>198.6</ele><time>2026-05-01T08:49:49.155Z</time></trkpt><trkpt lat="44.9419483" lon="8.2850183"><ele>200.2</ele><time>2026-05-01T08:49:50.155Z</time></trkpt><trkpt lat="44.942055" lon="8.2850167"><ele>201.8</ele><time>2026-05-01T08:49:51.151Z</time></trkpt><trkpt lat="44.9421617" lon="8.2850017"><ele>203.4</ele><time>2026-05-01T08:49:52.15Z</time></trkpt><trkpt lat="44.9422717" lon="8.2849883"><ele>205.0</ele><time>2026-05-01T08:49:53.154Z</time></trkpt><trkpt lat="44.9423867" lon="8.2849817"><ele>205.0</ele><time>2026-05-01T08:49:54.157Z</time></trkpt><trkpt lat="44.9425" lon="8.2849933"><ele>205.0</ele><time>2026-05-01T08:49:55.155Z</time></trkpt><trkpt lat="44.9426067" lon="8.2850333"><ele>205.0</ele><time>2026-05-01T08:49:56.153Z</time></trkpt><trkpt lat="44.9427117" lon="8.285095"><ele>205.0</ele><time>2026-05-01T08:49:57.15Z</time></trkpt><trkpt lat="44.9428083" lon="8.2851667"><ele>205.0</ele><time>2026-05-01T08:49:58.152Z</time></trkpt><trkpt lat="44.9429033" lon="8.285245"><ele>205.2</ele><time>2026-05-01T08:49:59.156Z</time></trkpt><trkpt lat="44.943" lon="8.2853217"><ele>205.4</ele><time>2026-05-01T08:50:00.158Z</time></trkpt><trkpt lat="44.943095" lon="8.2853983"><ele>205.60000000000002</ele><time>2026-05-01T08:50:01.157Z</time></trkpt><trkpt lat="44.943185" lon="8.2854733"><ele>205.8</ele><time>2026-05-01T08:50:02.152Z</time></trkpt><trkpt lat="44.94327" lon="8.2855533"><ele>206.0</ele><time>2026-05-01T08:50:03.151Z</time></trkpt><trkpt lat="44.9433567" lon="8.2856317"><ele>204.25</ele><time>2026-05-01T08:50:04.153Z</time></trkpt><trkpt lat="44.94345" lon="8.2857117"><ele>202.5</ele><time>2026-05-01T08:50:05.155Z</time></trkpt><trkpt lat="44.943545" lon="8.2857933"><ele>200.75</ele><time>2026-05-01T08:50:06.151Z</time></trkpt><trkpt lat="44.9436383" lon="8.2858933"><ele>199.0</ele><time>2026-05-01T08:50:07.156Z</time></trkpt><trkpt lat="44.943725" lon="8.2860067"><ele>199.0</ele><time>2026-05-01T08:50:08.153Z</time></trkpt><trkpt lat="44.9438083" lon="8.2861083"><ele>199.0</ele><time>2026-05-01T08:50:09.16Z</time></trkpt><trkpt lat="44.9438983" lon="8.2862167"><ele>199.0</ele><time>2026-05-01T08:50:10.15Z</time></trkpt><trkpt lat="44.9439867" lon="8.2863133"><ele>199.0</ele><time>2026-05-01T08:50:11.151Z</time></trkpt><trkpt lat="44.944075" lon="8.2864033"><ele>199.0</ele><time>2026-05-01T08:50:12.153Z</time></trkpt><trkpt lat="44.9441567" lon="8.2864783"><ele>200.0</ele><time>2026-05-01T08:50:13.154Z</time></trkpt><trkpt lat="44.9442467" lon="8.2865217"><ele>201.0</ele><time>2026-05-01T08:50:14.156Z</time></trkpt><trkpt lat="44.9443267" lon="8.2865617"><ele>202.0</ele><time>2026-05-01T08:50:15.151Z</time></trkpt><trkpt lat="44.9444167" lon="8.2865817"><ele>203.0</ele><time>2026-05-01T08:50:16.16Z</time></trkpt><trkpt lat="44.94451" lon="8.28659"><ele>204.0</ele><time>2026-05-01T08:50:17.155Z</time></trkpt><trkpt lat="44.9446067" lon="8.2866067"><ele>204.0</ele><time>2026-05-01T08:50:18.153Z</time></trkpt><trkpt lat="44.9447067" lon="8.2866333"><ele>204.0</ele><time>2026-05-01T08:50:19.151Z</time></trkpt><trkpt lat="44.944805" lon="8.28667"><ele>204.0</ele><time>2026-05-01T08:50:20.155Z</time></trkpt><trkpt lat="44.944895" lon="8.2867133"><ele>204.0</ele><time>2026-05-01T08:50:21.149Z</time></trkpt><trkpt lat="44.9449717" lon="8.2867633"><ele>204.0</ele><time>2026-05-01T08:50:22.149Z</time></trkpt><trkpt lat="44.9450517" lon="8.2868033"><ele>205.33333333333334</ele><time>2026-05-01T08:50:23.154Z</time></trkpt><trkpt lat="44.9451183" lon="8.2868417"><ele>206.66666666666669</ele><time>2026-05-01T08:50:24.149Z</time></trkpt><trkpt lat="44.9451983" lon="8.2868567"><ele>208.0</ele><time>2026-05-01T08:50:25.159Z</time></trkpt><trkpt lat="44.94526" lon="8.2868783"><ele>209.33333333333334</ele><time>2026-05-01T08:50:26.151Z</time></trkpt><trkpt lat="44.9453283" lon="8.2868833"><ele>210.66666666666669</ele><time>2026-05-01T08:50:27.152Z</time></trkpt><trkpt lat="44.9454483" lon="8.286795"><ele>212.0</ele><time>2026-05-01T08:50:29.153Z</time></trkpt><trkpt lat="44.9455117" lon="8.286715"><ele>212.00000000000003</ele><time>2026-05-01T08:50:30.154Z</time></trkpt><trkpt lat="44.9455767" lon="8.2866383"><ele>212.0</ele><time>2026-05-01T08:50:31.157Z</time></trkpt><trkpt lat="44.9456383" lon="8.286565"><ele>212.0</ele><time>2026-05-01T08:50:32.153Z</time></trkpt><trkpt lat="44.9456967" lon="8.2865067"><ele>212.0</ele><time>2026-05-01T08:50:33.152Z</time></trkpt><trkpt lat="44.94576" lon="8.2864683"><ele>212.00000000000003</ele><time>2026-05-01T08:50:34.154Z</time></trkpt><trkpt lat="44.9458767" lon="8.2864333"><ele>212.0</ele><time>2026-05-01T08:50:36.152Z</time></trkpt><trkpt lat="44.9459967" lon="8.286545"><ele>211.0</ele><time>2026-05-01T08:50:38.155Z</time></trkpt><trkpt lat="44.9460617" lon="8.2866217"><ele>210.0</ele><time>2026-05-01T08:50:39.153Z</time></trkpt><trkpt lat="44.94613" lon="8.2866967"><ele>209.0</ele><time>2026-05-01T08:50:40.154Z</time></trkpt><trkpt lat="44.9462067" lon="8.2867533"><ele>208.0</ele><time>2026-05-01T08:50:41.15Z</time></trkpt><trkpt lat="44.9462983" lon="8.2868033"><ele>207.0</ele><time>2026-05-01T08:50:42.154Z</time></trkpt><trkpt lat="44.9464017" lon="8.286845"><ele>207.0</ele><time>2026-05-01T08:50:43.153Z</time></trkpt><trkpt lat="44.9465017" lon="8.286885"><ele>207.0</ele><time>2026-05-01T08:50:44.149Z</time></trkpt><trkpt lat="44.946605" lon="8.2869267"><ele>207.0</ele><time>2026-05-01T08:50:45.158Z</time></trkpt><trkpt lat="44.946705" lon="8.2869683"><ele>207.0</ele><time>2026-05-01T08:50:46.151Z</time></trkpt><trkpt lat="44.9468" lon="8.2870083"><ele>207.0</ele><time>2026-05-01T08:50:47.155Z</time></trkpt><trkpt lat="44.9468833" lon="8.287035"><ele>206.83333333333334</ele><time>2026-05-01T08:50:48.156Z</time></trkpt><trkpt lat="44.9469633" lon="8.2870383"><ele>206.66666666666669</ele><time>2026-05-01T08:50:49.152Z</time></trkpt><trkpt lat="44.947045" lon="8.28702"><ele>206.5</ele><time>2026-05-01T08:50:50.153Z</time></trkpt><trkpt lat="44.9471133" lon="8.2869817"><ele>206.33333333333334</ele><time>2026-05-01T08:50:51.152Z</time></trkpt><trkpt lat="44.94719" lon="8.2869333"><ele>206.16666666666669</ele><time>2026-05-01T08:50:52.149Z</time></trkpt><trkpt lat="44.9472883" lon="8.28686"><ele>206.0</ele><time>2026-05-01T08:50:53.153Z</time></trkpt><trkpt lat="44.9473833" lon="8.286775"><ele>206.0</ele><time>2026-05-01T08:50:54.154Z</time></trkpt><trkpt lat="44.94748" lon="8.2866917"><ele>206.0</ele><time>2026-05-01T08:50:55.153Z</time></trkpt><trkpt lat="44.9475767" lon="8.28661"><ele>206.0</ele><time>2026-05-01T08:50:56.149Z</time></trkpt><trkpt lat="44.9476717" lon="8.2865333"><ele>206.0</ele><time>2026-05-01T08:50:57.153Z</time></trkpt><trkpt lat="44.9477533" lon="8.286455"><ele>206.0</ele><time>2026-05-01T08:50:58.15Z</time></trkpt><trkpt lat="44.9478317" lon="8.2863717"><ele>205.20000000000002</ele><time>2026-05-01T08:50:59.151Z</time></trkpt><trkpt lat="44.94791" lon="8.2862767"><ele>204.4</ele><time>2026-05-01T08:51:00.151Z</time></trkpt><trkpt lat="44.947975" lon="8.28618"><ele>203.6</ele><time>2026-05-01T08:51:01.163Z</time></trkpt><trkpt lat="44.94805" lon="8.286085"><ele>202.8</ele><time>2026-05-01T08:51:02.155Z</time></trkpt><trkpt lat="44.94814" lon="8.2860117"><ele>202.0</ele><time>2026-05-01T08:51:03.154Z</time></trkpt><trkpt lat="44.9482433" lon="8.2859383"><ele>202.0</ele><time>2026-05-01T08:51:04.152Z</time></trkpt><trkpt lat="44.9483417" lon="8.2858517"><ele>202.0</ele><time>2026-05-01T08:51:05.152Z</time></trkpt><trkpt lat="44.9484417" lon="8.285765"><ele>202.0</ele><time>2026-05-01T08:51:06.154Z</time></trkpt><trkpt lat="44.9485483" lon="8.2856867"><ele>202.0</ele><time>2026-05-01T08:51:07.151Z</time></trkpt><trkpt lat="44.948655" lon="8.285615"><ele>201.0</ele><time>2026-05-01T08:51:08.152Z</time></trkpt><trkpt lat="44.9487533" lon="8.2855683"><ele>200.0</ele><time>2026-05-01T08:51:09.149Z</time></trkpt><trkpt lat="44.94886" lon="8.2855317"><ele>199.0</ele><time>2026-05-01T08:51:10.149Z</time></trkpt><trkpt lat="44.9489783" lon="8.28551"><ele>198.0</ele><time>2026-05-01T08:51:11.151Z</time></trkpt><trkpt lat="44.9490883" lon="8.285495"><ele>197.0</ele><time>2026-05-01T08:51:12.152Z</time></trkpt><trkpt lat="44.9492" lon="8.2854783"><ele>199.0</ele><time>2026-05-01T08:51:13.152Z</time></trkpt><trkpt lat="44.9493117" lon="8.2854683"><ele>201.0</ele><time>2026-05-01T08:51:14.156Z</time></trkpt><trkpt lat="44.949435" lon="8.285455"><ele>203.0</ele><time>2026-05-01T08:51:15.151Z</time></trkpt><trkpt lat="44.9495533" lon="8.28545"><ele>205.0</ele><time>2026-05-01T08:51:16.151Z</time></trkpt><trkpt lat="44.9496683" lon="8.2854267"><ele>205.0</ele><time>2026-05-01T08:51:17.156Z</time></trkpt><trkpt lat="44.94978" lon="8.2854017"><ele>205.0</ele><time>2026-05-01T08:51:18.155Z</time></trkpt><trkpt lat="44.9498883" lon="8.285375"><ele>205.0</ele><time>2026-05-01T08:51:19.153Z</time></trkpt><trkpt lat="44.9499917" lon="8.2853383"><ele>205.0</ele><time>2026-05-01T08:51:20.15Z</time></trkpt><trkpt lat="44.9500917" lon="8.2852983"><ele>205.0</ele><time>2026-05-01T08:51:21.153Z</time></trkpt><trkpt lat="44.9501867" lon="8.2852883"><ele>204.66666666666666</ele><time>2026-05-01T08:51:22.154Z</time></trkpt><trkpt lat="44.9502717" lon="8.285315"><ele>204.33333333333331</ele><time>2026-05-01T08:51:23.156Z</time></trkpt><trkpt lat="44.9503517" lon="8.2853617"><ele>204.0</ele><time>2026-05-01T08:51:24.157Z</time></trkpt><trkpt lat="44.9504283" lon="8.285425"><ele>203.66666666666669</ele><time>2026-05-01T08:51:25.153Z</time></trkpt><trkpt lat="44.9505067" lon="8.2854883"><ele>203.33333333333334</ele><time>2026-05-01T08:51:26.156Z</time></trkpt><trkpt lat="44.95058" lon="8.285575"><ele>203.0</ele><time>2026-05-01T08:51:27.152Z</time></trkpt><trkpt lat="44.9506583" lon="8.2856567"><ele>204.16666666666669</ele><time>2026-05-01T08:51:28.151Z</time></trkpt><trkpt lat="44.95074" lon="8.2857233"><ele>205.33333333333334</ele><time>2026-05-01T08:51:29.154Z</time></trkpt><trkpt lat="44.9508167" lon="8.2857633"><ele>206.5</ele><time>2026-05-01T08:51:30.151Z</time></trkpt><trkpt lat="44.9508933" lon="8.2857983"><ele>207.66666666666669</ele><time>2026-05-01T08:51:31.155Z</time></trkpt><trkpt lat="44.9509733" lon="8.2858233"><ele>208.83333333333334</ele><time>2026-05-01T08:51:32.154Z</time></trkpt><trkpt lat="44.95104" lon="8.285795"><ele>210.0</ele><time>2026-05-01T08:51:33.154Z</time></trkpt><trkpt lat="44.9511133" lon="8.2857583"><ele>210.0</ele><time>2026-05-01T08:51:34.155Z</time></trkpt><trkpt lat="44.9511917" lon="8.2857033"><ele>210.0</ele><time>2026-05-01T08:51:35.154Z</time></trkpt><trkpt lat="44.9512683" lon="8.2856733"><ele>210.0</ele><time>2026-05-01T08:51:36.154Z</time></trkpt><trkpt lat="44.951335" lon="8.2856467"><ele>210.0</ele><time>2026-05-01T08:51:37.153Z</time></trkpt><trkpt lat="44.9514033" lon="8.285635"><ele>210.0</ele><time>2026-05-01T08:51:38.153Z</time></trkpt><trkpt lat="44.9514717" lon="8.28564"><ele>210.0</ele><time>2026-05-01T08:51:39.154Z</time></trkpt><trkpt lat="44.9515817" lon="8.28571"><ele>210.0</ele><time>2026-05-01T08:51:41.152Z</time></trkpt><trkpt lat="44.9516283" lon="8.285795"><ele>210.0</ele><time>2026-05-01T08:51:42.152Z</time></trkpt><trkpt lat="44.951655" lon="8.2858917"><ele>210.0</ele><time>2026-05-01T08:51:43.154Z</time></trkpt><trkpt lat="44.9516817" lon="8.286"><ele>210.0</ele><time>2026-05-01T08:51:44.152Z</time></trkpt><trkpt lat="44.9517067" lon="8.2861167"><ele>210.0</ele><time>2026-05-01T08:51:45.153Z</time></trkpt><trkpt lat="44.9517417" lon="8.2862267"><ele>210.0</ele><time>2026-05-01T08:51:46.154Z</time></trkpt><trkpt lat="44.95179" lon="8.286335"><ele>206.6</ele><time>2026-05-01T08:51:47.153Z</time></trkpt><trkpt lat="44.9518567" lon="8.2864317"><ele>203.2</ele><time>2026-05-01T08:51:48.153Z</time></trkpt><trkpt lat="44.9519233" lon="8.2865417"><ele>199.8</ele><time>2026-05-01T08:51:49.154Z</time></trkpt><trkpt lat="44.9519883" lon="8.28665"><ele>196.4</ele><time>2026-05-01T08:51:50.153Z</time></trkpt><trkpt lat="44.9520583" lon="8.2867533"><ele>193.0</ele><time>2026-05-01T08:51:51.151Z</time></trkpt><trkpt lat="44.9521283" lon="8.2868533"><ele>193.0</ele><time>2026-05-01T08:51:52.155Z</time></trkpt><trkpt lat="44.952195" lon="8.2869433"><ele>193.0</ele><time>2026-05-01T08:51:53.153Z</time></trkpt><trkpt lat="44.9522483" lon="8.2870217"><ele>193.0</ele><time>2026-05-01T08:51:54.154Z</time></trkpt><trkpt lat="44.9523133" lon="8.2871133"><ele>193.0</ele><time>2026-05-01T08:51:56.152Z</time></trkpt><trkpt lat="44.9523867" lon="8.287195"><ele>193.0</ele><time>2026-05-01T08:52:03.152Z</time></trkpt><trkpt lat="44.9525217" lon="8.2872183"><ele>193.0</ele><time>2026-05-01T08:52:05.155Z</time></trkpt><trkpt lat="44.952595" lon="8.2872333"><ele>193.0</ele><time>2026-05-01T08:52:06.154Z</time></trkpt><trkpt lat="44.9527067" lon="8.28723"><ele>193.0</ele><time>2026-05-01T08:52:07.155Z</time></trkpt><trkpt lat="44.9528217" lon="8.287245"><ele>193.0</ele><time>2026-05-01T08:52:08.157Z</time></trkpt><trkpt lat="44.95295" lon="8.28726"><ele>193.0</ele><time>2026-05-01T08:52:09.153Z</time></trkpt><trkpt lat="44.9530783" lon="8.2872717"><ele>194.8</ele><time>2026-05-01T08:52:10.156Z</time></trkpt><trkpt lat="44.9531933" lon="8.28729"><ele>196.60000000000002</ele><time>2026-05-01T08:52:11.153Z</time></trkpt><trkpt lat="44.953295" lon="8.2873"><ele>198.39999999999998</ele><time>2026-05-01T08:52:12.158Z</time></trkpt><trkpt lat="44.9533783" lon="8.28729"><ele>200.2</ele><time>2026-05-01T08:52:13.155Z</time></trkpt><trkpt lat="44.953455" lon="8.2872633"><ele>202.0</ele><time>2026-05-01T08:52:14.152Z</time></trkpt><trkpt lat="44.9535217" lon="8.2872217"><ele>203.0</ele><time>2026-05-01T08:52:15.155Z</time></trkpt><trkpt lat="44.9535583" lon="8.2870533"><ele>204.0</ele><time>2026-05-01T08:52:17.156Z</time></trkpt><trkpt lat="44.9535667" lon="8.2869167"><ele>205.0</ele><time>2026-05-01T08:52:19.156Z</time></trkpt><trkpt lat="44.9535333" lon="8.286815"><ele>206.0</ele><time>2026-05-01T08:52:20.152Z</time></trkpt><trkpt lat="44.953455" lon="8.286665"><ele>207.0</ele><time>2026-05-01T08:52:21.152Z</time></trkpt><trkpt lat="44.9533833" lon="8.2865067"><ele>201.75</ele><time>2026-05-01T08:52:22.152Z</time></trkpt><trkpt lat="44.9533133" lon="8.28634"><ele>196.5</ele><time>2026-05-01T08:52:23.151Z</time></trkpt><trkpt lat="44.9532767" lon="8.2861883"><ele>191.25</ele><time>2026-05-01T08:52:24.155Z</time></trkpt><trkpt lat="44.9532433" lon="8.2860383"><ele>186.0</ele><time>2026-05-01T08:52:25.153Z</time></trkpt><trkpt lat="44.9532217" lon="8.28589"><ele>186.0</ele><time>2026-05-01T08:52:26.155Z</time></trkpt><trkpt lat="44.9532533" lon="8.285745"><ele>186.0</ele><time>2026-05-01T08:52:27.155Z</time></trkpt><trkpt lat="44.9532833" lon="8.2856033"><ele>186.0</ele><time>2026-05-01T08:52:28.153Z</time></trkpt><trkpt lat="44.9533033" lon="8.2854733"><ele>186.0</ele><time>2026-05-01T08:52:29.153Z</time></trkpt><trkpt lat="44.9533933" lon="8.2854267"><ele>186.0</ele><time>2026-05-01T08:52:30.152Z</time></trkpt><trkpt lat="44.9534783" lon="8.285405"><ele>188.20000000000002</ele><time>2026-05-01T08:52:31.154Z</time></trkpt><trkpt lat="44.9535533" lon="8.285435"><ele>190.4</ele><time>2026-05-01T08:52:32.154Z</time></trkpt><trkpt lat="44.9536383" lon="8.28539"><ele>192.6</ele><time>2026-05-01T08:52:33.153Z</time></trkpt><trkpt lat="44.9536933" lon="8.2853067"><ele>194.8</ele><time>2026-05-01T08:52:34.153Z</time></trkpt><trkpt lat="44.9535717" lon="8.2852"><ele>197.0</ele><time>2026-05-01T08:52:35.154Z</time></trkpt><trkpt lat="44.953545" lon="8.2850917"><ele>197.0</ele><time>2026-05-01T08:52:36.154Z</time></trkpt><trkpt lat="44.9535117" lon="8.28497"><ele>197.0</ele><time>2026-05-01T08:52:37.152Z</time></trkpt><trkpt lat="44.9534617" lon="8.2848483"><ele>197.0</ele><time>2026-05-01T08:52:38.151Z</time></trkpt><trkpt lat="44.95342" lon="8.2847217"><ele>197.0</ele><time>2026-05-01T08:52:39.15Z</time></trkpt><trkpt lat="44.9534083" lon="8.28459"><ele>197.0</ele><time>2026-05-01T08:52:40.155Z</time></trkpt><trkpt lat="44.9534117" lon="8.2844583"><ele>194.6</ele><time>2026-05-01T08:52:41.151Z</time></trkpt><trkpt lat="44.953445" lon="8.2843333"><ele>192.2</ele><time>2026-05-01T08:52:42.15Z</time></trkpt><trkpt lat="44.9534667" lon="8.284215"><ele>189.8</ele><time>2026-05-01T08:52:43.153Z</time></trkpt><trkpt lat="44.9535567" lon="8.28409"><ele>187.4</ele><time>2026-05-01T08:52:44.156Z</time></trkpt><trkpt lat="44.953655" lon="8.2839767"><ele>185.0</ele><time>2026-05-01T08:52:45.151Z</time></trkpt><trkpt lat="44.9537383" lon="8.283835"><ele>180.25</ele><time>2026-05-01T08:52:46.152Z</time></trkpt><trkpt lat="44.9538117" lon="8.2836883"><ele>175.5</ele><time>2026-05-01T08:52:47.152Z</time></trkpt><trkpt lat="44.953875" lon="8.2835333"><ele>170.75</ele><time>2026-05-01T08:52:48.152Z</time></trkpt><trkpt lat="44.9539133" lon="8.283355"><ele>166.0</ele><time>2026-05-01T08:52:49.157Z</time></trkpt><trkpt lat="44.9539333" lon="8.2831533"><ele>164.75</ele><time>2026-05-01T08:52:50.151Z</time></trkpt><trkpt lat="44.9539433" lon="8.28295"><ele>163.5</ele><time>2026-05-01T08:52:51.156Z</time></trkpt><trkpt lat="44.953965" lon="8.28276"><ele>162.25</ele><time>2026-05-01T08:52:52.153Z</time></trkpt><trkpt lat="44.9539733" lon="8.2825733"><ele>161.0</ele><time>2026-05-01T08:52:53.153Z</time></trkpt><trkpt lat="44.9539933" lon="8.2823983"><ele>160.4</ele><time>2026-05-01T08:52:54.158Z</time></trkpt><trkpt lat="44.954" lon="8.2822317"><ele>159.8</ele><time>2026-05-01T08:52:55.161Z</time></trkpt><trkpt lat="44.9540233" lon="8.282095"><ele>159.20000000000002</ele><time>2026-05-01T08:52:56.153Z</time></trkpt><trkpt lat="44.95405" lon="8.28197"><ele>158.60000000000002</ele><time>2026-05-01T08:52:57.156Z</time></trkpt><trkpt lat="44.95409" lon="8.28185"><ele>158.0</ele><time>2026-05-01T08:52:58.154Z</time></trkpt><trkpt lat="44.9541417" lon="8.2817367"><ele>157.75</ele><time>2026-05-01T08:52:59.154Z</time></trkpt><trkpt lat="44.9542167" lon="8.281615"><ele>157.5</ele><time>2026-05-01T08:53:00.152Z</time></trkpt><trkpt lat="44.9543083" lon="8.2814867"><ele>157.25</ele><time>2026-05-01T08:53:01.152Z</time></trkpt><trkpt lat="44.9544083" lon="8.2813517"><ele>157.0</ele><time>2026-05-01T08:53:02.156Z</time></trkpt><trkpt lat="44.9545183" lon="8.28121"><ele>156.5</ele><time>2026-05-01T08:53:03.151Z</time></trkpt><trkpt lat="44.954635" lon="8.281065"><ele>156.0</ele><time>2026-05-01T08:53:04.157Z</time></trkpt><trkpt lat="44.95475" lon="8.2809267"><ele>155.5</ele><time>2026-05-01T08:53:05.154Z</time></trkpt><trkpt lat="44.95486" lon="8.2808067"><ele>155.0</ele><time>2026-05-01T08:53:06.16Z</time></trkpt><trkpt lat="44.9549667" lon="8.2807017"><ele>156.0</ele><time>2026-05-01T08:53:07.151Z</time></trkpt><trkpt lat="44.955065" lon="8.280605"><ele>157.0</ele><time>2026-05-01T08:53:08.153Z</time></trkpt><trkpt lat="44.9551667" lon="8.280515"><ele>158.0</ele><time>2026-05-01T08:53:09.151Z</time></trkpt><trkpt lat="44.9552817" lon="8.2804167"><ele>159.0</ele><time>2026-05-01T08:53:10.149Z</time></trkpt><trkpt lat="44.9554117" lon="8.2803083"><ele>160.33333333333334</ele><time>2026-05-01T08:53:11.156Z</time></trkpt><trkpt lat="44.9555517" lon="8.2802"><ele>161.66666666666669</ele><time>2026-05-01T08:53:12.155Z</time></trkpt><trkpt lat="44.9556967" lon="8.2800933"><ele>163.0</ele><time>2026-05-01T08:53:13.152Z</time></trkpt><trkpt lat="44.9558367" lon="8.2799833"><ele>169.0</ele><time>2026-05-01T08:53:14.153Z</time></trkpt><trkpt lat="44.955975" lon="8.27987"><ele>175.0</ele><time>2026-05-01T08:53:15.153Z</time></trkpt><trkpt lat="44.9561083" lon="8.279765"><ele>181.0</ele><time>2026-05-01T08:53:16.152Z</time></trkpt><trkpt lat="44.956235" lon="8.2796483"><ele>181.25</ele><time>2026-05-01T08:53:17.156Z</time></trkpt><trkpt lat="44.956345" lon="8.2795067"><ele>181.5</ele><time>2026-05-01T08:53:18.152Z</time></trkpt><trkpt lat="44.95643" lon="8.2793383"><ele>181.75</ele><time>2026-05-01T08:53:19.154Z</time></trkpt><trkpt lat="44.9564917" lon="8.27915"><ele>182.0</ele><time>2026-05-01T08:53:20.153Z</time></trkpt><trkpt lat="44.956535" lon="8.27895"><ele>183.5</ele><time>2026-05-01T08:53:21.155Z</time></trkpt><trkpt lat="44.956575" lon="8.2787617"><ele>185.0</ele><time>2026-05-01T08:53:22.155Z</time></trkpt><trkpt lat="44.956635" lon="8.2785917"><ele>186.5</ele><time>2026-05-01T08:53:23.158Z</time></trkpt><trkpt lat="44.9567017" lon="8.2784567"><ele>188.0</ele><time>2026-05-01T08:53:24.154Z</time></trkpt><trkpt lat="44.9567683" lon="8.2783617"><ele>188.0</ele><time>2026-05-01T08:53:25.152Z</time></trkpt><trkpt lat="44.9568333" lon="8.2782933"><ele>188.0</ele><time>2026-05-01T08:53:26.151Z</time></trkpt><trkpt lat="44.95689" lon="8.27824"><ele>188.0</ele><time>2026-05-01T08:53:27.154Z</time></trkpt><trkpt lat="44.95697" lon="8.278305"><ele>188.0</ele><time>2026-05-01T08:53:29.154Z</time></trkpt><trkpt lat="44.956955" lon="8.278405"><ele>188.0</ele><time>2026-05-01T08:53:30.15Z</time></trkpt><trkpt lat="44.9569283" lon="8.2784917"><ele>188.0</ele><time>2026-05-01T08:53:31.154Z</time></trkpt><trkpt lat="44.9568667" lon="8.278595"><ele>188.0</ele><time>2026-05-01T08:53:32.153Z</time></trkpt><trkpt lat="44.9568117" lon="8.2787217"><ele>188.0</ele><time>2026-05-01T08:53:33.151Z</time></trkpt><trkpt lat="44.9567783" lon="8.2788883"><ele>188.0</ele><time>2026-05-01T08:53:34.159Z</time></trkpt><trkpt lat="44.95676" lon="8.2790717"><ele>188.0</ele><time>2026-05-01T08:53:35.152Z</time></trkpt><trkpt lat="44.9567567" lon="8.2792583"><ele>191.25</ele><time>2026-05-01T08:53:36.156Z</time></trkpt><trkpt lat="44.956745" lon="8.2794467"><ele>194.5</ele><time>2026-05-01T08:53:37.152Z</time></trkpt><trkpt lat="44.9567383" lon="8.2796367"><ele>197.75</ele><time>2026-05-01T08:53:38.154Z</time></trkpt><trkpt lat="44.9567417" lon="8.27981"><ele>201.0</ele><time>2026-05-01T08:53:39.152Z</time></trkpt><trkpt lat="44.9567667" lon="8.279945"><ele>201.0</ele><time>2026-05-01T08:53:40.15Z</time></trkpt><trkpt lat="44.956815" lon="8.280055"><ele>201.0</ele><time>2026-05-01T08:53:41.154Z</time></trkpt><trkpt lat="44.956885" lon="8.28015"><ele>201.0</ele><time>2026-05-01T08:53:42.154Z</time></trkpt><trkpt lat="44.9569917" lon="8.2801967"><ele>201.0</ele><time>2026-05-01T08:53:43.158Z</time></trkpt><trkpt lat="44.957115" lon="8.2802267"><ele>201.0</ele><time>2026-05-01T08:53:44.156Z</time></trkpt><trkpt lat="44.95725" lon="8.2802533"><ele>201.0</ele><time>2026-05-01T08:53:45.152Z</time></trkpt><trkpt lat="44.95739" lon="8.2802883"><ele>201.0</ele><time>2026-05-01T08:53:46.153Z</time></trkpt><trkpt lat="44.9575233" lon="8.28033"><ele>201.0</ele><time>2026-05-01T08:53:47.153Z</time></trkpt><trkpt lat="44.9576567" lon="8.28037"><ele>201.0</ele><time>2026-05-01T08:53:48.152Z</time></trkpt><trkpt lat="44.957785" lon="8.2804167"><ele>202.0</ele><time>2026-05-01T08:53:49.158Z</time></trkpt><trkpt lat="44.9579" lon="8.2804583"><ele>203.0</ele><time>2026-05-01T08:53:50.153Z</time></trkpt><trkpt lat="44.95801" lon="8.2804917"><ele>204.0</ele><time>2026-05-01T08:53:51.159Z</time></trkpt><trkpt lat="44.9580867" lon="8.2804983"><ele>205.0</ele><time>2026-05-01T08:53:52.153Z</time></trkpt><trkpt lat="44.95816" lon="8.2804783"><ele>206.0</ele><time>2026-05-01T08:53:53.157Z</time></trkpt><trkpt lat="44.9582617" lon="8.2803933"><ele>206.0</ele><time>2026-05-01T08:53:55.154Z</time></trkpt><trkpt lat="44.958225" lon="8.2802717"><ele>206.0</ele><time>2026-05-01T08:53:57.154Z</time></trkpt><trkpt lat="44.9581217" lon="8.28022"><ele>206.0</ele><time>2026-05-01T08:53:58.15Z</time></trkpt><trkpt lat="44.95793" lon="8.280175"><ele>206.0</ele><time>2026-05-01T08:53:59.155Z</time></trkpt><trkpt lat="44.9577867" lon="8.28013"><ele>206.0</ele><time>2026-05-01T08:54:00.153Z</time></trkpt><trkpt lat="44.9576517" lon="8.2800917"><ele>206.0</ele><time>2026-05-01T08:54:01.155Z</time></trkpt><trkpt lat="44.9575333" lon="8.2800417"><ele>206.0</ele><time>2026-05-01T08:54:02.152Z</time></trkpt><trkpt lat="44.957435" lon="8.2799567"><ele>206.0</ele><time>2026-05-01T08:54:03.152Z</time></trkpt><trkpt lat="44.9573483" lon="8.27983"><ele>205.60000000000002</ele><time>2026-05-01T08:54:04.15Z</time></trkpt><trkpt lat="44.9572983" lon="8.2796983"><ele>205.2</ele><time>2026-05-01T08:54:05.154Z</time></trkpt><trkpt lat="44.9572867" lon="8.2795483"><ele>204.8</ele><time>2026-05-01T08:54:06.149Z</time></trkpt><trkpt lat="44.9573083" lon="8.2794"><ele>204.39999999999998</ele><time>2026-05-01T08:54:07.152Z</time></trkpt><trkpt lat="44.9573433" lon="8.27927"><ele>204.0</ele><time>2026-05-01T08:54:08.154Z</time></trkpt><trkpt lat="44.9573967" lon="8.2791683"><ele>204.0</ele><time>2026-05-01T08:54:09.154Z</time></trkpt><trkpt lat="44.9574583" lon="8.2790933"><ele>204.0</ele><time>2026-05-01T08:54:10.15Z</time></trkpt><trkpt lat="44.9575667" lon="8.2790883"><ele>204.0</ele><time>2026-05-01T08:54:11.149Z</time></trkpt><trkpt lat="44.9576683" lon="8.2790667"><ele>204.0</ele><time>2026-05-01T08:54:12.15Z</time></trkpt><trkpt lat="44.95778" lon="8.2790633"><ele>204.0</ele><time>2026-05-01T08:54:13.156Z</time></trkpt><trkpt lat="44.957885" lon="8.2790617"><ele>206.16666666666666</ele><time>2026-05-01T08:54:14.15Z</time></trkpt><trkpt lat="44.9579733" lon="8.279045"><ele>208.33333333333331</ele><time>2026-05-01T08:54:15.152Z</time></trkpt><trkpt lat="44.9580583" lon="8.2790333"><ele>210.5</ele><time>2026-05-01T08:54:16.151Z</time></trkpt><trkpt lat="44.9581333" lon="8.279035"><ele>212.66666666666666</ele><time>2026-05-01T08:54:17.153Z</time></trkpt><trkpt lat="44.9581767" lon="8.27916"><ele>214.83333333333331</ele><time>2026-05-01T08:54:19.153Z</time></trkpt><trkpt lat="44.95813" lon="8.2792467"><ele>217.0</ele><time>2026-05-01T08:54:20.151Z</time></trkpt><trkpt lat="44.9580867" lon="8.279315"><ele>216.99999999999997</ele><time>2026-05-01T08:54:21.153Z</time></trkpt><trkpt lat="44.95803" lon="8.2793633"><ele>217.0</ele><time>2026-05-01T08:54:22.155Z</time></trkpt><trkpt lat="44.957965" lon="8.2793933"><ele>217.0</ele><time>2026-05-01T08:54:23.156Z</time></trkpt><trkpt lat="44.9578917" lon="8.2794133"><ele>217.0</ele><time>2026-05-01T08:54:24.155Z</time></trkpt><trkpt lat="44.9578283" lon="8.2794417"><ele>216.99999999999997</ele><time>2026-05-01T08:54:25.153Z</time></trkpt><trkpt lat="44.9577683" lon="8.27947"><ele>217.0</ele><time>2026-05-01T08:54:26.153Z</time></trkpt><trkpt lat="44.95768" lon="8.2795767"><ele>217.0</ele><time>2026-05-01T08:54:28.153Z</time></trkpt><trkpt lat="44.957655" lon="8.2797117"><ele>217.0</ele><time>2026-05-01T08:54:30.15Z</time></trkpt><trkpt lat="44.95772" lon="8.2798333"><ele>217.0</ele><time>2026-05-01T08:54:32.153Z</time></trkpt><trkpt lat="44.95779" lon="8.2798633"><ele>217.0</ele><time>2026-05-01T08:54:33.152Z</time></trkpt><trkpt lat="44.9578867" lon="8.2798633"><ele>217.0</ele><time>2026-05-01T08:54:34.151Z</time></trkpt><trkpt lat="44.958" lon="8.2798483"><ele>217.0</ele><time>2026-05-01T08:54:35.155Z</time></trkpt><trkpt lat="44.9581083" lon="8.279825"><ele>217.0</ele><time>2026-05-01T08:54:36.151Z</time></trkpt><trkpt lat="44.958205" lon="8.2797833"><ele>217.0</ele><time>2026-05-01T08:54:37.155Z</time></trkpt><trkpt lat="44.9582983" lon="8.2797217"><ele>217.0</ele><time>2026-05-01T08:54:38.155Z</time></trkpt><trkpt lat="44.9583817" lon="8.27962"><ele>217.0</ele><time>2026-05-01T08:54:39.154Z</time></trkpt><trkpt lat="44.9584683" lon="8.2795383"><ele>218.6</ele><time>2026-05-01T08:54:40.155Z</time></trkpt><trkpt lat="44.958555" lon="8.27945"><ele>220.2</ele><time>2026-05-01T08:54:41.154Z</time></trkpt><trkpt lat="44.9586433" lon="8.2793683"><ele>221.8</ele><time>2026-05-01T08:54:42.153Z</time></trkpt><trkpt lat="44.95874" lon="8.2793117"><ele>223.4</ele><time>2026-05-01T08:54:43.153Z</time></trkpt><trkpt lat="44.9588417" lon="8.27926"><ele>225.0</ele><time>2026-05-01T08:54:44.153Z</time></trkpt><trkpt lat="44.95894" lon="8.27923"><ele>225.0</ele><time>2026-05-01T08:54:45.154Z</time></trkpt><trkpt lat="44.95904" lon="8.279205"><ele>225.0</ele><time>2026-05-01T08:54:46.153Z</time></trkpt><trkpt lat="44.9591383" lon="8.2791817"><ele>225.0</ele><time>2026-05-01T08:54:47.153Z</time></trkpt><trkpt lat="44.9592267" lon="8.2791583"><ele>225.0</ele><time>2026-05-01T08:54:48.155Z</time></trkpt><trkpt lat="44.959315" lon="8.2791367"><ele>225.0</ele><time>2026-05-01T08:54:49.156Z</time></trkpt><trkpt lat="44.9594017" lon="8.2791167"><ele>226.0</ele><time>2026-05-01T08:54:50.153Z</time></trkpt><trkpt lat="44.95949" lon="8.2791017"><ele>227.0</ele><time>2026-05-01T08:54:51.154Z</time></trkpt><trkpt lat="44.9595833" lon="8.27909"><ele>228.0</ele><time>2026-05-01T08:54:52.149Z</time></trkpt><trkpt lat="44.95968" lon="8.279065"><ele>229.0</ele><time>2026-05-01T08:54:53.153Z</time></trkpt><trkpt lat="44.9597767" lon="8.279055"><ele>230.0</ele><time>2026-05-01T08:54:54.155Z</time></trkpt><trkpt lat="44.959875" lon="8.2790317"><ele>230.0</ele><time>2026-05-01T08:54:55.158Z</time></trkpt><trkpt lat="44.9599783" lon="8.2790033"><ele>230.0</ele><time>2026-05-01T08:54:56.153Z</time></trkpt><trkpt lat="44.960085" lon="8.278985"><ele>230.0</ele><time>2026-05-01T08:54:57.152Z</time></trkpt><trkpt lat="44.960185" lon="8.27894"><ele>230.0</ele><time>2026-05-01T08:54:58.151Z</time></trkpt><trkpt lat="44.960285" lon="8.2789"><ele>230.0</ele><time>2026-05-01T08:54:59.153Z</time></trkpt><trkpt lat="44.960385" lon="8.278875"><ele>229.8</ele><time>2026-05-01T08:55:00.151Z</time></trkpt><trkpt lat="44.9604817" lon="8.2788433"><ele>229.6</ele><time>2026-05-01T08:55:01.153Z</time></trkpt><trkpt lat="44.9605817" lon="8.2788367"><ele>229.39999999999998</ele><time>2026-05-01T08:55:02.153Z</time></trkpt><trkpt lat="44.9606817" lon="8.2788267"><ele>229.2</ele><time>2026-05-01T08:55:03.156Z</time></trkpt><trkpt lat="44.9607883" lon="8.2788217"><ele>229.0</ele><time>2026-05-01T08:55:04.154Z</time></trkpt><trkpt lat="44.9608983" lon="8.2788267"><ele>229.0</ele><time>2026-05-01T08:55:05.152Z</time></trkpt><trkpt lat="44.961" lon="8.2788167"><ele>229.0</ele><time>2026-05-01T08:55:06.153Z</time></trkpt><trkpt lat="44.9611117" lon="8.2788167"><ele>229.0</ele><time>2026-05-01T08:55:07.157Z</time></trkpt><trkpt lat="44.961235" lon="8.2788117"><ele>229.0</ele><time>2026-05-01T08:55:08.152Z</time></trkpt><trkpt lat="44.9613567" lon="8.2788283"><ele>229.0</ele><time>2026-05-01T08:55:09.154Z</time></trkpt><trkpt lat="44.9614817" lon="8.278845"><ele>229.0</ele><time>2026-05-01T08:55:10.154Z</time></trkpt><trkpt lat="44.961605" lon="8.2788717"><ele>229.0</ele><time>2026-05-01T08:55:11.152Z</time></trkpt><trkpt lat="44.961715" lon="8.2788833"><ele>229.0</ele><time>2026-05-01T08:55:12.153Z</time></trkpt><trkpt lat="44.96182" lon="8.278885"><ele>229.39999999999998</ele><time>2026-05-01T08:55:13.153Z</time></trkpt><trkpt lat="44.9619217" lon="8.278875"><ele>229.79999999999998</ele><time>2026-05-01T08:55:14.153Z</time></trkpt><trkpt lat="44.9620283" lon="8.2788483"><ele>230.20000000000002</ele><time>2026-05-01T08:55:15.153Z</time></trkpt><trkpt lat="44.9621317" lon="8.27881"><ele>230.60000000000002</ele><time>2026-05-01T08:55:16.153Z</time></trkpt><trkpt lat="44.96223" lon="8.278775"><ele>231.0</ele><time>2026-05-01T08:55:17.154Z</time></trkpt><trkpt lat="44.96233" lon="8.27873"><ele>231.0</ele><time>2026-05-01T08:55:18.152Z</time></trkpt><trkpt lat="44.962435" lon="8.2787067"><ele>231.00000000000003</ele><time>2026-05-01T08:55:19.152Z</time></trkpt><trkpt lat="44.9625367" lon="8.2787067"><ele>231.00000000000003</ele><time>2026-05-01T08:55:20.154Z</time></trkpt><trkpt lat="44.962635" lon="8.278725"><ele>231.0</ele><time>2026-05-01T08:55:21.152Z</time></trkpt><trkpt lat="44.96274" lon="8.2787417"><ele>231.0</ele><time>2026-05-01T08:55:22.154Z</time></trkpt><trkpt lat="44.962845" lon="8.2787733"><ele>231.75</ele><time>2026-05-01T08:55:23.153Z</time></trkpt><trkpt lat="44.9629483" lon="8.2788233"><ele>232.5</ele><time>2026-05-01T08:55:24.16Z</time></trkpt><trkpt lat="44.9630567" lon="8.2788917"><ele>233.25</ele><time>2026-05-01T08:55:25.159Z</time></trkpt><trkpt lat="44.9631567" lon="8.278945"><ele>234.0</ele><time>2026-05-01T08:55:26.157Z</time></trkpt><trkpt lat="44.9632617" lon="8.2790183"><ele>234.0</ele><time>2026-05-01T08:55:27.155Z</time></trkpt><trkpt lat="44.9633683" lon="8.27908"><ele>234.0</ele><time>2026-05-01T08:55:28.152Z</time></trkpt><trkpt lat="44.9634683" lon="8.2791383"><ele>234.0</ele><time>2026-05-01T08:55:29.157Z</time></trkpt><trkpt lat="44.9635817" lon="8.2791917"><ele>234.0</ele><time>2026-05-01T08:55:30.153Z</time></trkpt><trkpt lat="44.96369" lon="8.27924"><ele>234.0</ele><time>2026-05-01T08:55:31.155Z</time></trkpt><trkpt lat="44.96381" lon="8.2792783"><ele>234.0</ele><time>2026-05-01T08:55:32.152Z</time></trkpt><trkpt lat="44.9639233" lon="8.2793233"><ele>234.0</ele><time>2026-05-01T08:55:33.151Z</time></trkpt><trkpt lat="44.9640233" lon="8.2793667"><ele>234.0</ele><time>2026-05-01T08:55:34.155Z</time></trkpt><trkpt lat="44.964125" lon="8.279405"><ele>233.79999999999998</ele><time>2026-05-01T08:55:35.154Z</time></trkpt><trkpt lat="44.9642117" lon="8.2794583"><ele>233.59999999999997</ele><time>2026-05-01T08:55:36.153Z</time></trkpt><trkpt lat="44.9642983" lon="8.2794883"><ele>233.4</ele><time>2026-05-01T08:55:37.154Z</time></trkpt><trkpt lat="44.9643867" lon="8.2794983"><ele>233.2</ele><time>2026-05-01T08:55:38.153Z</time></trkpt><trkpt lat="44.9644817" lon="8.2795017"><ele>233.0</ele><time>2026-05-01T08:55:39.154Z</time></trkpt><trkpt lat="44.964575" lon="8.27949"><ele>233.0</ele><time>2026-05-01T08:55:40.151Z</time></trkpt><trkpt lat="44.964665" lon="8.27947"><ele>233.0</ele><time>2026-05-01T08:55:41.151Z</time></trkpt><trkpt lat="44.9647583" lon="8.2794333"><ele>233.0</ele><time>2026-05-01T08:55:42.15Z</time></trkpt><trkpt lat="44.9648533" lon="8.27939"><ele>233.0</ele><time>2026-05-01T08:55:43.155Z</time></trkpt><trkpt lat="44.9649483" lon="8.279355"><ele>233.0</ele><time>2026-05-01T08:55:44.153Z</time></trkpt><trkpt lat="44.9650433" lon="8.27931"><ele>232.4</ele><time>2026-05-01T08:55:45.151Z</time></trkpt><trkpt lat="44.9651367" lon="8.2792683"><ele>231.8</ele><time>2026-05-01T08:55:46.154Z</time></trkpt><trkpt lat="44.96523" lon="8.2792133"><ele>231.2</ele><time>2026-05-01T08:55:47.151Z</time></trkpt><trkpt lat="44.9653133" lon="8.2791533"><ele>230.6</ele><time>2026-05-01T08:55:48.154Z</time></trkpt><trkpt lat="44.9653917" lon="8.27909"><ele>230.0</ele><time>2026-05-01T08:55:49.152Z</time></trkpt><trkpt lat="44.9654683" lon="8.2790217"><ele>230.00000000000003</ele><time>2026-05-01T08:55:50.154Z</time></trkpt><trkpt lat="44.9655383" lon="8.2789633"><ele>230.0</ele><time>2026-05-01T08:55:51.153Z</time></trkpt><trkpt lat="44.9655983" lon="8.2788767"><ele>230.0</ele><time>2026-05-01T08:55:52.15Z</time></trkpt><trkpt lat="44.9656383" lon="8.278775"><ele>230.0</ele><time>2026-05-01T08:55:53.154Z</time></trkpt><trkpt lat="44.96567" lon="8.2786817"><ele>230.00000000000003</ele><time>2026-05-01T08:55:54.151Z</time></trkpt><trkpt lat="44.9657067" lon="8.2786083"><ele>230.0</ele><time>2026-05-01T08:55:55.156Z</time></trkpt><trkpt lat="44.9657517" lon="8.2785433"><ele>231.66666666666669</ele><time>2026-05-01T08:55:56.153Z</time></trkpt><trkpt lat="44.9658067" lon="8.278485"><ele>233.33333333333334</ele><time>2026-05-01T08:55:57.152Z</time></trkpt><trkpt lat="44.9658667" lon="8.27845"><ele>235.0</ele><time>2026-05-01T08:55:58.156Z</time></trkpt><trkpt lat="44.965945" lon="8.278425"><ele>236.66666666666669</ele><time>2026-05-01T08:55:59.153Z</time></trkpt><trkpt lat="44.9660133" lon="8.2783983"><ele>238.33333333333334</ele><time>2026-05-01T08:56:00.151Z</time></trkpt><trkpt lat="44.9661" lon="8.27835"><ele>240.0</ele><time>2026-05-01T08:56:01.154Z</time></trkpt><trkpt lat="44.96617" lon="8.2783"><ele>240.0</ele><time>2026-05-01T08:56:02.154Z</time></trkpt><trkpt lat="44.9662483" lon="8.278245"><ele>240.0</ele><time>2026-05-01T08:56:03.154Z</time></trkpt><trkpt lat="44.96632" lon="8.2781967"><ele>240.0</ele><time>2026-05-01T08:56:04.157Z</time></trkpt><trkpt lat="44.966395" lon="8.2781417"><ele>240.0</ele><time>2026-05-01T08:56:05.155Z</time></trkpt><trkpt lat="44.9664767" lon="8.2780867"><ele>240.0</ele><time>2026-05-01T08:56:06.158Z</time></trkpt><trkpt lat="44.96655" lon="8.27803"><ele>240.0</ele><time>2026-05-01T08:56:07.157Z</time></trkpt><trkpt lat="44.966625" lon="8.2779683"><ele>240.83333333333334</ele><time>2026-05-01T08:56:08.154Z</time></trkpt><trkpt lat="44.9667017" lon="8.277915"><ele>241.66666666666669</ele><time>2026-05-01T08:56:09.154Z</time></trkpt><trkpt lat="44.9667783" lon="8.2778483"><ele>242.5</ele><time>2026-05-01T08:56:10.154Z</time></trkpt><trkpt lat="44.9668517" lon="8.2777983"><ele>243.33333333333334</ele><time>2026-05-01T08:56:11.151Z</time></trkpt><trkpt lat="44.966925" lon="8.27774"><ele>244.16666666666669</ele><time>2026-05-01T08:56:12.152Z</time></trkpt><trkpt lat="44.9670017" lon="8.2776833"><ele>245.0</ele><time>2026-05-01T08:56:13.152Z</time></trkpt><trkpt lat="44.96707" lon="8.2776167"><ele>245.0</ele><time>2026-05-01T08:56:14.151Z</time></trkpt><trkpt lat="44.9671417" lon="8.2775567"><ele>245.0</ele><time>2026-05-01T08:56:15.151Z</time></trkpt><trkpt lat="44.9672117" lon="8.277495"><ele>245.0</ele><time>2026-05-01T08:56:16.157Z</time></trkpt><trkpt lat="44.9672783" lon="8.27744"><ele>245.0</ele><time>2026-05-01T08:56:17.154Z</time></trkpt><trkpt lat="44.9673367" lon="8.2773983"><ele>245.0</ele><time>2026-05-01T08:56:18.152Z</time></trkpt><trkpt lat="44.9674" lon="8.2773633"><ele>245.0</ele><time>2026-05-01T08:56:19.153Z</time></trkpt><trkpt lat="44.9674617" lon="8.2773383"><ele>245.0</ele><time>2026-05-01T08:56:20.153Z</time></trkpt><trkpt lat="44.967535" lon="8.27733"><ele>244.8</ele><time>2026-05-01T08:56:21.156Z</time></trkpt><trkpt lat="44.9675983" lon="8.27733"><ele>244.6</ele><time>2026-05-01T08:56:22.155Z</time></trkpt><trkpt lat="44.9676733" lon="8.2773167"><ele>244.39999999999998</ele><time>2026-05-01T08:56:23.154Z</time></trkpt><trkpt lat="44.9677583" lon="8.27731"><ele>244.2</ele><time>2026-05-01T08:56:24.156Z</time></trkpt><trkpt lat="44.9678867" lon="8.2774083"><ele>244.0</ele><time>2026-05-01T08:56:25.156Z</time></trkpt><trkpt lat="44.96798" lon="8.2774167"><ele>244.0</ele><time>2026-05-01T08:56:26.152Z</time></trkpt><trkpt lat="44.968085" lon="8.2774267"><ele>243.99999999999997</ele><time>2026-05-01T08:56:27.153Z</time></trkpt><trkpt lat="44.9681783" lon="8.2774517"><ele>243.99999999999997</ele><time>2026-05-01T08:56:28.151Z</time></trkpt><trkpt lat="44.96828" lon="8.2774817"><ele>244.0</ele><time>2026-05-01T08:56:29.153Z</time></trkpt><trkpt lat="44.96838" lon="8.2775067"><ele>244.0</ele><time>2026-05-01T08:56:30.154Z</time></trkpt><trkpt lat="44.968495" lon="8.2775383"><ele>243.5</ele><time>2026-05-01T08:56:31.153Z</time></trkpt><trkpt lat="44.9686183" lon="8.2775483"><ele>243.0</ele><time>2026-05-01T08:56:32.153Z</time></trkpt><trkpt lat="44.968735" lon="8.2775783"><ele>242.5</ele><time>2026-05-01T08:56:33.151Z</time></trkpt><trkpt lat="44.9688567" lon="8.2775967"><ele>242.0</ele><time>2026-05-01T08:56:34.153Z</time></trkpt><trkpt lat="44.9689817" lon="8.2776433"><ele>242.0</ele><time>2026-05-01T08:56:35.156Z</time></trkpt><trkpt lat="44.9691117" lon="8.2776767"><ele>242.0</ele><time>2026-05-01T08:56:36.151Z</time></trkpt><trkpt lat="44.9692417" lon="8.27772"><ele>242.0</ele><time>2026-05-01T08:56:37.154Z</time></trkpt><trkpt lat="44.9693517" lon="8.27775"><ele>242.0</ele><time>2026-05-01T08:56:38.15Z</time></trkpt><trkpt lat="44.9694667" lon="8.2777817"><ele>239.0</ele><time>2026-05-01T08:56:39.152Z</time></trkpt><trkpt lat="44.9695817" lon="8.2778367"><ele>236.0</ele><time>2026-05-01T08:56:40.154Z</time></trkpt><trkpt lat="44.969685" lon="8.277895"><ele>233.0</ele><time>2026-05-01T08:56:41.152Z</time></trkpt><trkpt lat="44.9697817" lon="8.2779567"><ele>230.0</ele><time>2026-05-01T08:56:42.15Z</time></trkpt><trkpt lat="44.969875" lon="8.2780433"><ele>230.25</ele><time>2026-05-01T08:56:43.154Z</time></trkpt><trkpt lat="44.9699717" lon="8.2781433"><ele>230.5</ele><time>2026-05-01T08:56:44.156Z</time></trkpt><trkpt lat="44.9700617" lon="8.2782533"><ele>230.75</ele><time>2026-05-01T08:56:45.161Z</time></trkpt><trkpt lat="44.970155" lon="8.2783667"><ele>231.0</ele><time>2026-05-01T08:56:46.151Z</time></trkpt><trkpt lat="44.9702467" lon="8.2784867"><ele>231.0</ele><time>2026-05-01T08:56:47.158Z</time></trkpt><trkpt lat="44.970335" lon="8.2786"><ele>231.0</ele><time>2026-05-01T08:56:48.156Z</time></trkpt><trkpt lat="44.9704217" lon="8.27872"><ele>231.0</ele><time>2026-05-01T08:56:49.153Z</time></trkpt><trkpt lat="44.9705067" lon="8.278835"><ele>231.0</ele><time>2026-05-01T08:56:50.153Z</time></trkpt><trkpt lat="44.9705917" lon="8.2789333"><ele>233.60000000000002</ele><time>2026-05-01T08:56:51.155Z</time></trkpt><trkpt lat="44.9706767" lon="8.279025"><ele>236.20000000000002</ele><time>2026-05-01T08:56:52.155Z</time></trkpt><trkpt lat="44.9707683" lon="8.2791067"><ele>238.79999999999998</ele><time>2026-05-01T08:56:53.156Z</time></trkpt><trkpt lat="44.970855" lon="8.27919"><ele>241.39999999999998</ele><time>2026-05-01T08:56:54.153Z</time></trkpt><trkpt lat="44.9709433" lon="8.2792683"><ele>244.0</ele><time>2026-05-01T08:56:55.156Z</time></trkpt><trkpt lat="44.9710383" lon="8.27934"><ele>244.0</ele><time>2026-05-01T08:56:56.15Z</time></trkpt><trkpt lat="44.9711317" lon="8.2794083"><ele>243.99999999999997</ele><time>2026-05-01T08:56:57.154Z</time></trkpt><trkpt lat="44.971225" lon="8.2794783"><ele>243.99999999999997</ele><time>2026-05-01T08:56:58.155Z</time></trkpt><trkpt lat="44.971315" lon="8.2795467"><ele>244.0</ele><time>2026-05-01T08:56:59.156Z</time></trkpt><trkpt lat="44.9714033" lon="8.2796133"><ele>244.0</ele><time>2026-05-01T08:57:00.156Z</time></trkpt><trkpt lat="44.9714967" lon="8.2796817"><ele>244.0</ele><time>2026-05-01T08:57:01.16Z</time></trkpt><trkpt lat="44.9715817" lon="8.2797617"><ele>243.99999999999997</ele><time>2026-05-01T08:57:02.153Z</time></trkpt><trkpt lat="44.9716767" lon="8.2798267"><ele>243.99999999999997</ele><time>2026-05-01T08:57:03.16Z</time></trkpt><trkpt lat="44.9717683" lon="8.279895"><ele>244.0</ele><time>2026-05-01T08:57:04.153Z</time></trkpt><trkpt lat="44.9718633" lon="8.2799667"><ele>244.0</ele><time>2026-05-01T08:57:05.152Z</time></trkpt><trkpt lat="44.971975" lon="8.28002"><ele>244.75</ele><time>2026-05-01T08:57:06.151Z</time></trkpt><trkpt lat="44.9720867" lon="8.2800733"><ele>245.5</ele><time>2026-05-01T08:57:07.16Z</time></trkpt><trkpt lat="44.9722" lon="8.2801183"><ele>246.25</ele><time>2026-05-01T08:57:08.156Z</time></trkpt><trkpt lat="44.97232" lon="8.2801633"><ele>247.0</ele><time>2026-05-01T08:57:09.154Z</time></trkpt><trkpt lat="44.9724417" lon="8.280205"><ele>244.25</ele><time>2026-05-01T08:57:10.154Z</time></trkpt><trkpt lat="44.972565" lon="8.2802483"><ele>241.5</ele><time>2026-05-01T08:57:11.153Z</time></trkpt><trkpt lat="44.9726933" lon="8.28029"><ele>238.75</ele><time>2026-05-01T08:57:12.159Z</time></trkpt><trkpt lat="44.9728233" lon="8.2803217"><ele>236.0</ele><time>2026-05-01T08:57:13.153Z</time></trkpt><trkpt lat="44.9729533" lon="8.2803333"><ele>236.0</ele><time>2026-05-01T08:57:14.156Z</time></trkpt><trkpt lat="44.9730867" lon="8.2803317"><ele>236.0</ele><time>2026-05-01T08:57:15.154Z</time></trkpt><trkpt lat="44.97322" lon="8.2803383"><ele>236.0</ele><time>2026-05-01T08:57:16.154Z</time></trkpt><trkpt lat="44.9733433" lon="8.2803317"><ele>236.0</ele><time>2026-05-01T08:57:17.155Z</time></trkpt><trkpt lat="44.9734633" lon="8.2803367"><ele>233.60000000000002</ele><time>2026-05-01T08:57:18.156Z</time></trkpt><trkpt lat="44.9735783" lon="8.28035"><ele>231.20000000000002</ele><time>2026-05-01T08:57:19.151Z</time></trkpt><trkpt lat="44.9736867" lon="8.28037"><ele>228.79999999999998</ele><time>2026-05-01T08:57:20.155Z</time></trkpt><trkpt lat="44.9737867" lon="8.2804217"><ele>226.39999999999998</ele><time>2026-05-01T08:57:21.152Z</time></trkpt><trkpt lat="44.9738733" lon="8.2805017"><ele>224.0</ele><time>2026-05-01T08:57:22.156Z</time></trkpt><trkpt lat="44.973955" lon="8.2805917"><ele>224.75</ele><time>2026-05-01T08:57:23.152Z</time></trkpt><trkpt lat="44.9740333" lon="8.2806933"><ele>225.5</ele><time>2026-05-01T08:57:24.152Z</time></trkpt><trkpt lat="44.974115" lon="8.2808167"><ele>226.25</ele><time>2026-05-01T08:57:25.151Z</time></trkpt><trkpt lat="44.9742" lon="8.2809567"><ele>227.0</ele><time>2026-05-01T08:57:26.153Z</time></trkpt><trkpt lat="44.974295" lon="8.2811033"><ele>226.5</ele><time>2026-05-01T08:57:27.153Z</time></trkpt><trkpt lat="44.9743933" lon="8.2812567"><ele>226.0</ele><time>2026-05-01T08:57:28.154Z</time></trkpt><trkpt lat="44.9744983" lon="8.2814067"><ele>225.5</ele><time>2026-05-01T08:57:29.154Z</time></trkpt><trkpt lat="44.97461" lon="8.2815433"><ele>225.0</ele><time>2026-05-01T08:57:30.153Z</time></trkpt><trkpt lat="44.97473" lon="8.28167"><ele>225.0</ele><time>2026-05-01T08:57:31.156Z</time></trkpt><trkpt lat="44.974855" lon="8.2817683"><ele>225.0</ele><time>2026-05-01T08:57:32.155Z</time></trkpt><trkpt lat="44.9749817" lon="8.281845"><ele>225.0</ele><time>2026-05-01T08:57:33.151Z</time></trkpt><trkpt lat="44.9751133" lon="8.2819067"><ele>225.0</ele><time>2026-05-01T08:57:34.152Z</time></trkpt><trkpt lat="44.97524" lon="8.2819667"><ele>224.25</ele><time>2026-05-01T08:57:35.159Z</time></trkpt><trkpt lat="44.9753717" lon="8.2820167"><ele>223.5</ele><time>2026-05-01T08:57:36.154Z</time></trkpt><trkpt lat="44.975505" lon="8.2820667"><ele>222.75</ele><time>2026-05-01T08:57:37.157Z</time></trkpt><trkpt lat="44.9756533" lon="8.2821083"><ele>222.0</ele><time>2026-05-01T08:57:38.153Z</time></trkpt><trkpt lat="44.9758" lon="8.2821383"><ele>222.0</ele><time>2026-05-01T08:57:39.151Z</time></trkpt><trkpt lat="44.97595" lon="8.282155"><ele>222.0</ele><time>2026-05-01T08:57:40.159Z</time></trkpt><trkpt lat="44.976105" lon="8.2821617"><ele>222.0</ele><time>2026-05-01T08:57:41.157Z</time></trkpt><trkpt lat="44.9762617" lon="8.282165"><ele>222.0</ele><time>2026-05-01T08:57:42.158Z</time></trkpt><trkpt lat="44.9764167" lon="8.2821617"><ele>222.0</ele><time>2026-05-01T08:57:43.157Z</time></trkpt><trkpt lat="44.9765767" lon="8.282155"><ele>222.0</ele><time>2026-05-01T08:57:44.153Z</time></trkpt><trkpt lat="44.9767383" lon="8.2821517"><ele>223.0</ele><time>2026-05-01T08:57:45.152Z</time></trkpt><trkpt lat="44.9768967" lon="8.2821533"><ele>224.0</ele><time>2026-05-01T08:57:46.155Z</time></trkpt><trkpt lat="44.97705" lon="8.2821517"><ele>225.0</ele><time>2026-05-01T08:57:47.152Z</time></trkpt><trkpt lat="44.9772017" lon="8.2821517"><ele>225.0</ele><time>2026-05-01T08:57:48.152Z</time></trkpt><trkpt lat="44.9773533" lon="8.2821567"><ele>225.0</ele><time>2026-05-01T08:57:49.154Z</time></trkpt><trkpt lat="44.9775017" lon="8.2821633"><ele>225.0</ele><time>2026-05-01T08:57:50.153Z</time></trkpt><trkpt lat="44.977645" lon="8.2821767"><ele>225.0</ele><time>2026-05-01T08:57:51.153Z</time></trkpt><trkpt lat="44.9777833" lon="8.2822033"><ele>226.2</ele><time>2026-05-01T08:57:52.152Z</time></trkpt><trkpt lat="44.9779117" lon="8.282245"><ele>227.4</ele><time>2026-05-01T08:57:53.157Z</time></trkpt><trkpt lat="44.97802" lon="8.2823083"><ele>228.60000000000002</ele><time>2026-05-01T08:57:54.154Z</time></trkpt><trkpt lat="44.9781083" lon="8.2823817"><ele>229.8</ele><time>2026-05-01T08:57:55.155Z</time></trkpt><trkpt lat="44.9781817" lon="8.2824633"><ele>231.0</ele><time>2026-05-01T08:57:56.156Z</time></trkpt><trkpt lat="44.9782367" lon="8.2825417"><ele>231.0</ele><time>2026-05-01T08:57:57.156Z</time></trkpt><trkpt lat="44.9782817" lon="8.2826083"><ele>231.0</ele><time>2026-05-01T08:57:58.152Z</time></trkpt><trkpt lat="44.9783383" lon="8.2826867"><ele>231.0</ele><time>2026-05-01T08:58:00.152Z</time></trkpt><trkpt lat="44.9783867" lon="8.282785"><ele>231.0</ele><time>2026-05-01T08:58:38.154Z</time></trkpt><trkpt lat="44.9784917" lon="8.28288"><ele>231.0</ele><time>2026-05-01T08:58:40.156Z</time></trkpt><trkpt lat="44.9785467" lon="8.28293"><ele>231.0</ele><time>2026-05-01T08:58:41.154Z</time></trkpt><trkpt lat="44.978605" lon="8.2829733"><ele>232.4</ele><time>2026-05-01T08:58:42.155Z</time></trkpt><trkpt lat="44.9786767" lon="8.2830117"><ele>233.8</ele><time>2026-05-01T08:58:43.155Z</time></trkpt><trkpt lat="44.9787517" lon="8.2830533"><ele>235.20000000000002</ele><time>2026-05-01T08:58:44.151Z</time></trkpt><trkpt lat="44.9788317" lon="8.283105"><ele>236.60000000000002</ele><time>2026-05-01T08:58:45.155Z</time></trkpt><trkpt lat="44.9789183" lon="8.2831717"><ele>238.0</ele><time>2026-05-01T08:58:46.151Z</time></trkpt><trkpt lat="44.9790117" lon="8.28326"><ele>238.0</ele><time>2026-05-01T08:58:47.155Z</time></trkpt><trkpt lat="44.9791133" lon="8.2833383"><ele>238.0</ele><time>2026-05-01T08:58:48.152Z</time></trkpt><trkpt lat="44.979215" lon="8.2834183"><ele>238.0</ele><time>2026-05-01T08:58:49.155Z</time></trkpt><trkpt lat="44.979325" lon="8.2834867"><ele>238.0</ele><time>2026-05-01T08:58:50.157Z</time></trkpt><trkpt lat="44.9794433" lon="8.2835383"><ele>240.0</ele><time>2026-05-01T08:58:51.153Z</time></trkpt><trkpt lat="44.97957" lon="8.2835817"><ele>242.0</ele><time>2026-05-01T08:58:52.157Z</time></trkpt><trkpt lat="44.9797033" lon="8.2836117"><ele>244.0</ele><time>2026-05-01T08:58:53.151Z</time></trkpt><trkpt lat="44.97984" lon="8.28362"><ele>246.0</ele><time>2026-05-01T08:58:54.152Z</time></trkpt><trkpt lat="44.9799817" lon="8.2836083"><ele>246.5</ele><time>2026-05-01T08:58:55.153Z</time></trkpt><trkpt lat="44.980125" lon="8.2835967"><ele>247.0</ele><time>2026-05-01T08:58:56.154Z</time></trkpt><trkpt lat="44.9802667" lon="8.2835817"><ele>247.5</ele><time>2026-05-01T08:58:57.154Z</time></trkpt><trkpt lat="44.9804117" lon="8.283565"><ele>248.0</ele><time>2026-05-01T08:58:58.152Z</time></trkpt><trkpt lat="44.9805583" lon="8.283545"><ele>248.0</ele><time>2026-05-01T08:58:59.152Z</time></trkpt><trkpt lat="44.9807083" lon="8.283525"><ele>248.0</ele><time>2026-05-01T08:59:00.153Z</time></trkpt><trkpt lat="44.98086" lon="8.2835067"><ele>248.0</ele><time>2026-05-01T08:59:01.156Z</time></trkpt><trkpt lat="44.98101" lon="8.28349"><ele>248.75</ele><time>2026-05-01T08:59:02.155Z</time></trkpt><trkpt lat="44.9811517" lon="8.2834783"><ele>249.5</ele><time>2026-05-01T08:59:03.154Z</time></trkpt><trkpt lat="44.9812867" lon="8.28349"><ele>250.25</ele><time>2026-05-01T08:59:04.152Z</time></trkpt><trkpt lat="44.9814133" lon="8.28354"><ele>251.0</ele><time>2026-05-01T08:59:05.152Z</time></trkpt><trkpt lat="44.9815383" lon="8.28363"><ele>251.0</ele><time>2026-05-01T08:59:06.15Z</time></trkpt><trkpt lat="44.9816467" lon="8.2837583"><ele>251.0</ele><time>2026-05-01T08:59:07.156Z</time></trkpt><trkpt lat="44.98174" lon="8.2839133"><ele>251.0</ele><time>2026-05-01T08:59:08.151Z</time></trkpt><trkpt lat="44.981825" lon="8.284085"><ele>251.0</ele><time>2026-05-01T08:59:09.157Z</time></trkpt><trkpt lat="44.9819083" lon="8.284265"><ele>253.66666666666669</ele><time>2026-05-01T08:59:10.152Z</time></trkpt><trkpt lat="44.9819917" lon="8.2844483"><ele>256.3333333333333</ele><time>2026-05-01T08:59:11.152Z</time></trkpt><trkpt lat="44.9820767" lon="8.2846367"><ele>259.0</ele><time>2026-05-01T08:59:12.152Z</time></trkpt><trkpt lat="44.9821617" lon="8.2848217"><ele>259.0</ele><time>2026-05-01T08:59:13.156Z</time></trkpt><trkpt lat="44.98225" lon="8.2850067"><ele>259.0</ele><time>2026-05-01T08:59:14.152Z</time></trkpt><trkpt lat="44.982335" lon="8.2851933"><ele>259.0</ele><time>2026-05-01T08:59:15.156Z</time></trkpt><trkpt lat="44.9824167" lon="8.28538"><ele>259.0</ele><time>2026-05-01T08:59:16.153Z</time></trkpt><trkpt lat="44.9825033" lon="8.2855517"><ele>259.0</ele><time>2026-05-01T08:59:17.157Z</time></trkpt><trkpt lat="44.9825967" lon="8.2856933"><ele>259.0</ele><time>2026-05-01T08:59:18.156Z</time></trkpt><trkpt lat="44.982705" lon="8.2857967"><ele>259.0</ele><time>2026-05-01T08:59:19.153Z</time></trkpt><trkpt lat="44.9828233" lon="8.2858617"><ele>259.25</ele><time>2026-05-01T08:59:20.158Z</time></trkpt><trkpt lat="44.982955" lon="8.2858833"><ele>259.5</ele><time>2026-05-01T08:59:21.154Z</time></trkpt><trkpt lat="44.983095" lon="8.2858783"><ele>259.75</ele><time>2026-05-01T08:59:22.155Z</time></trkpt><trkpt lat="44.9832367" lon="8.2858583"><ele>260.0</ele><time>2026-05-01T08:59:23.152Z</time></trkpt><trkpt lat="44.9833833" lon="8.285825"><ele>258.6666666666667</ele><time>2026-05-01T08:59:24.152Z</time></trkpt><trkpt lat="44.9835267" lon="8.2857517"><ele>257.3333333333333</ele><time>2026-05-01T08:59:25.155Z</time></trkpt><trkpt lat="44.98366" lon="8.2856483"><ele>256.0</ele><time>2026-05-01T08:59:26.151Z</time></trkpt><trkpt lat="44.9837833" lon="8.2855167"><ele>256.0</ele><time>2026-05-01T08:59:27.152Z</time></trkpt><trkpt lat="44.9839017" lon="8.2853567"><ele>256.0</ele><time>2026-05-01T08:59:28.151Z</time></trkpt><trkpt lat="44.984015" lon="8.2851983"><ele>256.0</ele><time>2026-05-01T08:59:29.151Z</time></trkpt><trkpt lat="44.98414" lon="8.28505"><ele>255.0</ele><time>2026-05-01T08:59:30.15Z</time></trkpt><trkpt lat="44.984275" lon="8.28493"><ele>254.0</ele><time>2026-05-01T08:59:31.161Z</time></trkpt><trkpt lat="44.9844233" lon="8.2848383"><ele>253.0</ele><time>2026-05-01T08:59:32.158Z</time></trkpt><trkpt lat="44.9845783" lon="8.2847717"><ele>254.66666666666666</ele><time>2026-05-01T08:59:33.157Z</time></trkpt><trkpt lat="44.9847433" lon="8.2847167"><ele>256.3333333333333</ele><time>2026-05-01T08:59:34.153Z</time></trkpt><trkpt lat="44.9849083" lon="8.2846683"><ele>258.0</ele><time>2026-05-01T08:59:35.157Z</time></trkpt><trkpt lat="44.9850767" lon="8.28462"><ele>259.6666666666667</ele><time>2026-05-01T08:59:36.151Z</time></trkpt><trkpt lat="44.985245" lon="8.2845733"><ele>261.33333333333337</ele><time>2026-05-01T08:59:37.15Z</time></trkpt><trkpt lat="44.9854133" lon="8.2845267"><ele>263.0</ele><time>2026-05-01T08:59:38.154Z</time></trkpt><trkpt lat="44.9855833" lon="8.2844867"><ele>263.0</ele><time>2026-05-01T08:59:39.151Z</time></trkpt><trkpt lat="44.98575" lon="8.2844467"><ele>263.0</ele><time>2026-05-01T08:59:40.151Z</time></trkpt><trkpt lat="44.9859117" lon="8.2844267"><ele>263.0</ele><time>2026-05-01T08:59:41.152Z</time></trkpt><trkpt lat="44.9860683" lon="8.28443"><ele>261.6666666666667</ele><time>2026-05-01T08:59:42.152Z</time></trkpt><trkpt lat="44.9862217" lon="8.2844583"><ele>260.3333333333333</ele><time>2026-05-01T08:59:43.152Z</time></trkpt><trkpt lat="44.9863683" lon="8.2845067"><ele>259.0</ele><time>2026-05-01T08:59:44.152Z</time></trkpt><trkpt lat="44.9865067" lon="8.28458"><ele>259.0</ele><time>2026-05-01T08:59:45.152Z</time></trkpt><trkpt lat="44.9866383" lon="8.2846533"><ele>259.0</ele><time>2026-05-01T08:59:46.155Z</time></trkpt><trkpt lat="44.986765" lon="8.2847283"><ele>259.0</ele><time>2026-05-01T08:59:47.155Z</time></trkpt><trkpt lat="44.986895" lon="8.2848"><ele>259.0</ele><time>2026-05-01T08:59:48.151Z</time></trkpt><trkpt lat="44.9870267" lon="8.2848783"><ele>259.25</ele><time>2026-05-01T08:59:49.153Z</time></trkpt><trkpt lat="44.9871517" lon="8.2849517"><ele>259.5</ele><time>2026-05-01T08:59:50.156Z</time></trkpt><trkpt lat="44.9872817" lon="8.285025"><ele>259.75</ele><time>2026-05-01T08:59:51.149Z</time></trkpt><trkpt lat="44.9874083" lon="8.2850883"><ele>260.0</ele><time>2026-05-01T08:59:52.151Z</time></trkpt><trkpt lat="44.9875383" lon="8.2851433"><ele>260.75</ele><time>2026-05-01T08:59:53.157Z</time></trkpt><trkpt lat="44.9876683" lon="8.2851867"><ele>261.5</ele><time>2026-05-01T08:59:54.158Z</time></trkpt><trkpt lat="44.987805" lon="8.2852067"><ele>262.25</ele><time>2026-05-01T08:59:55.155Z</time></trkpt><trkpt lat="44.9879517" lon="8.28522"><ele>263.0</ele><time>2026-05-01T08:59:56.152Z</time></trkpt><trkpt lat="44.9881017" lon="8.2852267"><ele>263.0</ele><time>2026-05-01T08:59:57.153Z</time></trkpt><trkpt lat="44.9882467" lon="8.2852367"><ele>263.0</ele><time>2026-05-01T08:59:58.155Z</time></trkpt><trkpt lat="44.988395" lon="8.285245"><ele>263.0</ele><time>2026-05-01T08:59:59.153Z</time></trkpt><trkpt lat="44.9885417" lon="8.28525"><ele>263.0</ele><time>2026-05-01T09:00:00.152Z</time></trkpt><trkpt lat="44.988695" lon="8.28526"><ele>264.33333333333337</ele><time>2026-05-01T09:00:01.154Z</time></trkpt><trkpt lat="44.988845" lon="8.28525"><ele>265.6666666666667</ele><time>2026-05-01T09:00:02.152Z</time></trkpt><trkpt lat="44.9890033" lon="8.285215"><ele>267.0</ele><time>2026-05-01T09:00:03.151Z</time></trkpt><trkpt lat="44.9891667" lon="8.28517"><ele>268.5</ele><time>2026-05-01T09:00:04.152Z</time></trkpt><trkpt lat="44.9893233" lon="8.2851233"><ele>270.0</ele><time>2026-05-01T09:00:05.151Z</time></trkpt><trkpt lat="44.9894667" lon="8.2850817"><ele>271.5</ele><time>2026-05-01T09:00:06.154Z</time></trkpt><trkpt lat="44.9896033" lon="8.2850317"><ele>273.0</ele><time>2026-05-01T09:00:07.153Z</time></trkpt><trkpt lat="44.9897383" lon="8.28499"><ele>273.0</ele><time>2026-05-01T09:00:08.156Z</time></trkpt><trkpt lat="44.9898717" lon="8.284945"><ele>273.0</ele><time>2026-05-01T09:00:09.154Z</time></trkpt><trkpt lat="44.9900017" lon="8.2848967"><ele>273.0</ele><time>2026-05-01T09:00:10.153Z</time></trkpt><trkpt lat="44.990125" lon="8.28483"><ele>273.0</ele><time>2026-05-01T09:00:11.156Z</time></trkpt><trkpt lat="44.990245" lon="8.284745"><ele>275.0</ele><time>2026-05-01T09:00:12.153Z</time></trkpt><trkpt lat="44.9903517" lon="8.2846433"><ele>277.0</ele><time>2026-05-01T09:00:13.158Z</time></trkpt><trkpt lat="44.99046" lon="8.284545"><ele>279.0</ele><time>2026-05-01T09:00:14.152Z</time></trkpt><trkpt lat="44.9905667" lon="8.2844467"><ele>281.0</ele><time>2026-05-01T09:00:15.155Z</time></trkpt><trkpt lat="44.9906767" lon="8.2843517"><ele>281.0</ele><time>2026-05-01T09:00:16.153Z</time></trkpt><trkpt lat="44.9907833" lon="8.2842533"><ele>281.0</ele><time>2026-05-01T09:00:17.153Z</time></trkpt><trkpt lat="44.9908883" lon="8.2841667"><ele>281.0</ele><time>2026-05-01T09:00:18.152Z</time></trkpt><trkpt lat="44.9909883" lon="8.28409"><ele>281.0</ele><time>2026-05-01T09:00:19.152Z</time></trkpt><trkpt lat="44.9910833" lon="8.2840017"><ele>280.0</ele><time>2026-05-01T09:00:20.151Z</time></trkpt><trkpt lat="44.9911683" lon="8.283915"><ele>279.0</ele><time>2026-05-01T09:00:21.15Z</time></trkpt><trkpt lat="44.9912433" lon="8.2838183"><ele>278.0</ele><time>2026-05-01T09:00:22.149Z</time></trkpt><trkpt lat="44.9913067" lon="8.2836983"><ele>277.0</ele><time>2026-05-01T09:00:23.154Z</time></trkpt><trkpt lat="44.9913533" lon="8.2835517"><ele>276.0</ele><time>2026-05-01T09:00:24.149Z</time></trkpt><trkpt lat="44.9913733" lon="8.2833867"><ele>276.0</ele><time>2026-05-01T09:00:25.152Z</time></trkpt><trkpt lat="44.9913717" lon="8.2832133"><ele>276.0</ele><time>2026-05-01T09:00:26.154Z</time></trkpt><trkpt lat="44.9913533" lon="8.28304"><ele>276.0</ele><time>2026-05-01T09:00:27.15Z</time></trkpt><trkpt lat="44.9913267" lon="8.2828667"><ele>276.0</ele><time>2026-05-01T09:00:28.154Z</time></trkpt><trkpt lat="44.9913067" lon="8.2826883"><ele>276.5</ele><time>2026-05-01T09:00:29.156Z</time></trkpt><trkpt lat="44.9912883" lon="8.2825067"><ele>277.0</ele><time>2026-05-01T09:00:30.154Z</time></trkpt><trkpt lat="44.9912783" lon="8.2823233"><ele>277.5</ele><time>2026-05-01T09:00:31.151Z</time></trkpt><trkpt lat="44.9912767" lon="8.282145"><ele>278.0</ele><time>2026-05-01T09:00:32.152Z</time></trkpt><trkpt lat="44.9912933" lon="8.281975"><ele>279.2</ele><time>2026-05-01T09:00:33.155Z</time></trkpt><trkpt lat="44.9913333" lon="8.2818183"><ele>280.4</ele><time>2026-05-01T09:00:34.15Z</time></trkpt><trkpt lat="44.9913867" lon="8.28168"><ele>281.59999999999997</ele><time>2026-05-01T09:00:35.153Z</time></trkpt><trkpt lat="44.991445" lon="8.28155"><ele>282.8</ele><time>2026-05-01T09:00:36.149Z</time></trkpt><trkpt lat="44.9915083" lon="8.2814217"><ele>284.0</ele><time>2026-05-01T09:00:37.154Z</time></trkpt><trkpt lat="44.9915717" lon="8.2812983"><ele>284.0</ele><time>2026-05-01T09:00:38.157Z</time></trkpt><trkpt lat="44.9916417" lon="8.2811733"><ele>284.0</ele><time>2026-05-01T09:00:39.154Z</time></trkpt><trkpt lat="44.9917233" lon="8.2810617"><ele>284.0</ele><time>2026-05-01T09:00:40.16Z</time></trkpt><trkpt lat="44.9918183" lon="8.2809617"><ele>284.0</ele><time>2026-05-01T09:00:41.151Z</time></trkpt><trkpt lat="44.99192" lon="8.280875"><ele>284.0</ele><time>2026-05-01T09:00:42.151Z</time></trkpt><trkpt lat="44.9920267" lon="8.2808"><ele>284.0</ele><time>2026-05-01T09:00:43.153Z</time></trkpt><trkpt lat="44.99215" lon="8.2807383"><ele>284.0</ele><time>2026-05-01T09:00:44.154Z</time></trkpt><trkpt lat="44.9922767" lon="8.2807"><ele>284.0</ele><time>2026-05-01T09:00:45.153Z</time></trkpt><trkpt lat="44.9924017" lon="8.2806633"><ele>283.25</ele><time>2026-05-01T09:00:46.151Z</time></trkpt><trkpt lat="44.99253" lon="8.280635"><ele>282.5</ele><time>2026-05-01T09:00:47.151Z</time></trkpt><trkpt lat="44.99266" lon="8.28061"><ele>281.75</ele><time>2026-05-01T09:00:48.153Z</time></trkpt><trkpt lat="44.9927917" lon="8.2805917"><ele>281.0</ele><time>2026-05-01T09:00:49.155Z</time></trkpt><trkpt lat="44.99292" lon="8.2805733"><ele>279.75</ele><time>2026-05-01T09:00:50.154Z</time></trkpt><trkpt lat="44.9930517" lon="8.2805767"><ele>278.5</ele><time>2026-05-01T09:00:51.153Z</time></trkpt><trkpt lat="44.9931867" lon="8.280585"><ele>277.25</ele><time>2026-05-01T09:00:52.154Z</time></trkpt><trkpt lat="44.9933267" lon="8.28059"><ele>276.0</ele><time>2026-05-01T09:00:53.151Z</time></trkpt><trkpt lat="44.9934633" lon="8.2805983"><ele>276.75</ele><time>2026-05-01T09:00:54.155Z</time></trkpt><trkpt lat="44.9935983" lon="8.28061"><ele>277.5</ele><time>2026-05-01T09:00:55.154Z</time></trkpt><trkpt lat="44.993735" lon="8.2806167"><ele>278.25</ele><time>2026-05-01T09:00:56.15Z</time></trkpt><trkpt lat="44.993875" lon="8.28063"><ele>279.0</ele><time>2026-05-01T09:00:57.155Z</time></trkpt><trkpt lat="44.9940133" lon="8.2806367"><ele>279.0</ele><time>2026-05-01T09:00:58.158Z</time></trkpt><trkpt lat="44.994145" lon="8.2806383"><ele>279.0</ele><time>2026-05-01T09:00:59.154Z</time></trkpt><trkpt lat="44.994275" lon="8.2806533"><ele>279.0</ele><time>2026-05-01T09:01:00.151Z</time></trkpt><trkpt lat="44.9944067" lon="8.2806583"><ele>279.0</ele><time>2026-05-01T09:01:01.153Z</time></trkpt><trkpt lat="44.9945417" lon="8.280665"><ele>277.75</ele><time>2026-05-01T09:01:02.154Z</time></trkpt><trkpt lat="44.994675" lon="8.2806767"><ele>276.5</ele><time>2026-05-01T09:01:03.152Z</time></trkpt><trkpt lat="44.9948083" lon="8.2806817"><ele>275.25</ele><time>2026-05-01T09:01:04.156Z</time></trkpt><trkpt lat="44.9949433" lon="8.2806883"><ele>274.0</ele><time>2026-05-01T09:01:05.16Z</time></trkpt><trkpt lat="44.99507" lon="8.28069"><ele>274.0</ele><time>2026-05-01T09:01:06.15Z</time></trkpt><trkpt lat="44.995205" lon="8.2806833"><ele>274.0</ele><time>2026-05-01T09:01:07.162Z</time></trkpt><trkpt lat="44.995345" lon="8.2806733"><ele>274.0</ele><time>2026-05-01T09:01:08.155Z</time></trkpt><trkpt lat="44.99548" lon="8.28066"><ele>274.0</ele><time>2026-05-01T09:01:09.152Z</time></trkpt><trkpt lat="44.9956183" lon="8.280625"><ele>272.5</ele><time>2026-05-01T09:01:10.15Z</time></trkpt><trkpt lat="44.99575" lon="8.2805783"><ele>271.0</ele><time>2026-05-01T09:01:11.153Z</time></trkpt><trkpt lat="44.99588" lon="8.2805133"><ele>269.5</ele><time>2026-05-01T09:01:12.154Z</time></trkpt><trkpt lat="44.9960117" lon="8.2804367"><ele>268.0</ele><time>2026-05-01T09:01:13.157Z</time></trkpt><trkpt lat="44.9961483" lon="8.280355"><ele>268.0</ele><time>2026-05-01T09:01:14.152Z</time></trkpt><trkpt lat="44.9962867" lon="8.2802833"><ele>268.0</ele><time>2026-05-01T09:01:15.154Z</time></trkpt><trkpt lat="44.996425" lon="8.280205"><ele>268.0</ele><time>2026-05-01T09:01:16.155Z</time></trkpt><trkpt lat="44.9965617" lon="8.2801183"><ele>268.0</ele><time>2026-05-01T09:01:17.153Z</time></trkpt><trkpt lat="44.9966933" lon="8.280025"><ele>266.75</ele><time>2026-05-01T09:01:18.154Z</time></trkpt><trkpt lat="44.9968217" lon="8.27993"><ele>265.5</ele><time>2026-05-01T09:01:19.151Z</time></trkpt><trkpt lat="44.9969517" lon="8.2798333"><ele>264.25</ele><time>2026-05-01T09:01:20.154Z</time></trkpt><trkpt lat="44.9970867" lon="8.27974"><ele>263.0</ele><time>2026-05-01T09:01:21.154Z</time></trkpt><trkpt lat="44.9972183" lon="8.2796433"><ele>263.0</ele><time>2026-05-01T09:01:22.149Z</time></trkpt><trkpt lat="44.9973467" lon="8.2795267"><ele>263.0</ele><time>2026-05-01T09:01:23.151Z</time></trkpt><trkpt lat="44.9974767" lon="8.27941"><ele>263.0</ele><time>2026-05-01T09:01:24.153Z</time></trkpt><trkpt lat="44.9976083" lon="8.2792967"><ele>266.6666666666667</ele><time>2026-05-01T09:01:25.152Z</time></trkpt><trkpt lat="44.9977383" lon="8.27918"><ele>270.3333333333333</ele><time>2026-05-01T09:01:26.154Z</time></trkpt><trkpt lat="44.99787" lon="8.2790633"><ele>274.0</ele><time>2026-05-01T09:01:27.152Z</time></trkpt><trkpt lat="44.9979967" lon="8.2789433"><ele>273.25</ele><time>2026-05-01T09:01:28.153Z</time></trkpt><trkpt lat="44.99812" lon="8.278825"><ele>272.5</ele><time>2026-05-01T09:01:29.151Z</time></trkpt><trkpt lat="44.9982367" lon="8.278705"><ele>271.75</ele><time>2026-05-01T09:01:30.153Z</time></trkpt><trkpt lat="44.9983483" lon="8.2785917"><ele>271.0</ele><time>2026-05-01T09:01:31.153Z</time></trkpt><trkpt lat="44.99845" lon="8.278485"><ele>271.0</ele><time>2026-05-01T09:01:32.15Z</time></trkpt><trkpt lat="44.998545" lon="8.2783883"><ele>271.0</ele><time>2026-05-01T09:01:33.157Z</time></trkpt><trkpt lat="44.9986267" lon="8.278305"><ele>271.0</ele><time>2026-05-01T09:01:34.153Z</time></trkpt><trkpt lat="44.9986933" lon="8.2782517"><ele>271.0</ele><time>2026-05-01T09:01:35.155Z</time></trkpt><trkpt lat="44.9987767" lon="8.2781883"><ele>271.0</ele><time>2026-05-01T09:01:37.151Z</time></trkpt><trkpt lat="44.9988383" lon="8.27811"><ele>271.8</ele><time>2026-05-01T09:01:40.154Z</time></trkpt><trkpt lat="44.99886" lon="8.277975"><ele>272.6</ele><time>2026-05-01T09:01:42.151Z</time></trkpt><trkpt lat="44.9988433" lon="8.2778683"><ele>273.4</ele><time>2026-05-01T09:01:43.155Z</time></trkpt><trkpt lat="44.9988217" lon="8.2777233"><ele>274.2</ele><time>2026-05-01T09:01:44.156Z</time></trkpt><trkpt lat="44.9988033" lon="8.277575"><ele>275.0</ele><time>2026-05-01T09:01:45.153Z</time></trkpt><trkpt lat="44.9987883" lon="8.27743"><ele>275.0</ele><time>2026-05-01T09:01:46.154Z</time></trkpt><trkpt lat="44.9987733" lon="8.2772717"><ele>275.0</ele><time>2026-05-01T09:01:47.157Z</time></trkpt><trkpt lat="44.99875" lon="8.27711"><ele>275.0</ele><time>2026-05-01T09:01:48.153Z</time></trkpt><trkpt lat="44.99872" lon="8.2769467"><ele>275.0</ele><time>2026-05-01T09:01:49.152Z</time></trkpt><trkpt lat="44.9986733" lon="8.276785"><ele>275.5</ele><time>2026-05-01T09:01:50.153Z</time></trkpt><trkpt lat="44.9986167" lon="8.2766317"><ele>276.0</ele><time>2026-05-01T09:01:51.154Z</time></trkpt><trkpt lat="44.99855" lon="8.2764817"><ele>276.5</ele><time>2026-05-01T09:01:52.151Z</time></trkpt><trkpt lat="44.99848" lon="8.2763317"><ele>277.0</ele><time>2026-05-01T09:01:53.152Z</time></trkpt><trkpt lat="44.99841" lon="8.27618"><ele>276.5</ele><time>2026-05-01T09:01:54.151Z</time></trkpt><trkpt lat="44.998345" lon="8.27602"><ele>276.0</ele><time>2026-05-01T09:01:55.152Z</time></trkpt><trkpt lat="44.9982867" lon="8.2758517"><ele>275.5</ele><time>2026-05-01T09:01:56.154Z</time></trkpt><trkpt lat="44.9982333" lon="8.27568"><ele>275.0</ele><time>2026-05-01T09:01:57.15Z</time></trkpt><trkpt lat="44.9981967" lon="8.2754983"><ele>275.0</ele><time>2026-05-01T09:01:58.151Z</time></trkpt><trkpt lat="44.9981767" lon="8.2753017"><ele>275.0</ele><time>2026-05-01T09:01:59.153Z</time></trkpt><trkpt lat="44.99817" lon="8.2751"><ele>275.0</ele><time>2026-05-01T09:02:00.157Z</time></trkpt><trkpt lat="44.9981767" lon="8.274895"><ele>275.0</ele><time>2026-05-01T09:02:01.149Z</time></trkpt><trkpt lat="44.998185" lon="8.2746917"><ele>275.25</ele><time>2026-05-01T09:02:02.153Z</time></trkpt><trkpt lat="44.99819" lon="8.2744917"><ele>275.5</ele><time>2026-05-01T09:02:03.149Z</time></trkpt><trkpt lat="44.9981867" lon="8.2742917"><ele>275.75</ele><time>2026-05-01T09:02:04.153Z</time></trkpt><trkpt lat="44.9981683" lon="8.2740983"><ele>276.0</ele><time>2026-05-01T09:02:05.153Z</time></trkpt><trkpt lat="44.9981417" lon="8.2739033"><ele>276.25</ele><time>2026-05-01T09:02:06.151Z</time></trkpt><trkpt lat="44.9981133" lon="8.2737033"><ele>276.5</ele><time>2026-05-01T09:02:07.155Z</time></trkpt><trkpt lat="44.99809" lon="8.27351"><ele>276.75</ele><time>2026-05-01T09:02:08.157Z</time></trkpt><trkpt lat="44.99809" lon="8.2733333"><ele>277.0</ele><time>2026-05-01T09:02:09.153Z</time></trkpt><trkpt lat="44.9981067" lon="8.27317"><ele>278.25</ele><time>2026-05-01T09:02:10.154Z</time></trkpt><trkpt lat="44.9981483" lon="8.27302"><ele>279.5</ele><time>2026-05-01T09:02:11.154Z</time></trkpt><trkpt lat="44.9982117" lon="8.27288"><ele>280.75</ele><time>2026-05-01T09:02:12.153Z</time></trkpt><trkpt lat="44.998295" lon="8.2727533"><ele>282.0</ele><time>2026-05-01T09:02:13.154Z</time></trkpt><trkpt lat="44.998385" lon="8.272635"><ele>282.0</ele><time>2026-05-01T09:02:14.155Z</time></trkpt><trkpt lat="44.9984767" lon="8.272505"><ele>282.0</ele><time>2026-05-01T09:02:15.151Z</time></trkpt><trkpt lat="44.9985617" lon="8.2723517"><ele>282.0</ele><time>2026-05-01T09:02:16.154Z</time></trkpt><trkpt lat="44.9986383" lon="8.2721817"><ele>282.0</ele><time>2026-05-01T09:02:17.154Z</time></trkpt><trkpt lat="44.998715" lon="8.2720067"><ele>279.6666666666667</ele><time>2026-05-01T09:02:18.155Z</time></trkpt><trkpt lat="44.9987933" lon="8.27182"><ele>277.33333333333337</ele><time>2026-05-01T09:02:19.156Z</time></trkpt><trkpt lat="44.9988783" lon="8.2716333"><ele>275.0</ele><time>2026-05-01T09:02:20.152Z</time></trkpt><trkpt lat="44.9989633" lon="8.27144"><ele>274.6666666666667</ele><time>2026-05-01T09:02:21.153Z</time></trkpt><trkpt lat="44.9990483" lon="8.2712467"><ele>274.3333333333333</ele><time>2026-05-01T09:02:22.155Z</time></trkpt><trkpt lat="44.9991333" lon="8.2710517"><ele>274.0</ele><time>2026-05-01T09:02:23.151Z</time></trkpt><trkpt lat="44.9992167" lon="8.2708517"><ele>274.0</ele><time>2026-05-01T09:02:24.153Z</time></trkpt><trkpt lat="44.9993" lon="8.270655"><ele>274.0</ele><time>2026-05-01T09:02:25.153Z</time></trkpt><trkpt lat="44.999385" lon="8.2704567"><ele>274.0</ele><time>2026-05-01T09:02:26.154Z</time></trkpt><trkpt lat="44.999465" lon="8.2702667"><ele>274.0</ele><time>2026-05-01T09:02:27.156Z</time></trkpt><trkpt lat="44.9995383" lon="8.2700867"><ele>274.0</ele><time>2026-05-01T09:02:28.151Z</time></trkpt><trkpt lat="44.999605" lon="8.26991"><ele>274.0</ele><time>2026-05-01T09:02:29.156Z</time></trkpt><trkpt lat="44.9996567" lon="8.2697417"><ele>274.0</ele><time>2026-05-01T09:02:30.151Z</time></trkpt><trkpt lat="44.9996883" lon="8.269565"><ele>274.25</ele><time>2026-05-01T09:02:31.157Z</time></trkpt><trkpt lat="44.9996967" lon="8.269375"><ele>274.5</ele><time>2026-05-01T09:02:32.151Z</time></trkpt><trkpt lat="44.9996867" lon="8.2691767"><ele>274.75</ele><time>2026-05-01T09:02:33.154Z</time></trkpt><trkpt lat="44.9996667" lon="8.26898"><ele>275.0</ele><time>2026-05-01T09:02:34.153Z</time></trkpt><trkpt lat="44.999645" lon="8.2687817"><ele>274.5</ele><time>2026-05-01T09:02:35.154Z</time></trkpt><trkpt lat="44.9996183" lon="8.26859"><ele>274.0</ele><time>2026-05-01T09:02:36.152Z</time></trkpt><trkpt lat="44.9995967" lon="8.2683967"><ele>273.5</ele><time>2026-05-01T09:02:37.158Z</time></trkpt><trkpt lat="44.99958" lon="8.2682033"><ele>273.0</ele><time>2026-05-01T09:02:38.151Z</time></trkpt><trkpt lat="44.99957" lon="8.26801"><ele>272.0</ele><time>2026-05-01T09:02:39.152Z</time></trkpt><trkpt lat="44.9995733" lon="8.2678283"><ele>271.0</ele><time>2026-05-01T09:02:40.159Z</time></trkpt><trkpt lat="44.9995983" lon="8.2676633"><ele>270.0</ele><time>2026-05-01T09:02:41.154Z</time></trkpt><trkpt lat="44.999645" lon="8.267515"><ele>269.0</ele><time>2026-05-01T09:02:42.155Z</time></trkpt><trkpt lat="44.99971" lon="8.26738"><ele>267.25</ele><time>2026-05-01T09:02:43.153Z</time></trkpt><trkpt lat="44.9997917" lon="8.2672433"><ele>265.5</ele><time>2026-05-01T09:02:44.15Z</time></trkpt><trkpt lat="44.9998733" lon="8.2671"><ele>263.75</ele><time>2026-05-01T09:02:45.153Z</time></trkpt><trkpt lat="44.99995" lon="8.2669467"><ele>262.0</ele><time>2026-05-01T09:02:46.152Z</time></trkpt><trkpt lat="45.0000383" lon="8.2668"><ele>262.0</ele><time>2026-05-01T09:02:47.153Z</time></trkpt><trkpt lat="45.000115" lon="8.2666233"><ele>262.0</ele><time>2026-05-01T09:02:48.153Z</time></trkpt><trkpt lat="45.00017" lon="8.2664267"><ele>262.0</ele><time>2026-05-01T09:02:49.158Z</time></trkpt><trkpt lat="45.0002183" lon="8.266225"><ele>262.0</ele><time>2026-05-01T09:02:50.15Z</time></trkpt><trkpt lat="45.00026" lon="8.2660133"><ele>260.0</ele><time>2026-05-01T09:02:51.156Z</time></trkpt><trkpt lat="45.0003083" lon="8.2658"><ele>258.0</ele><time>2026-05-01T09:02:52.152Z</time></trkpt><trkpt lat="45.00036" lon="8.2655917"><ele>256.0</ele><time>2026-05-01T09:02:53.158Z</time></trkpt><trkpt lat="45.00042" lon="8.2653917"><ele>255.0</ele><time>2026-05-01T09:02:54.151Z</time></trkpt><trkpt lat="45.0004917" lon="8.2652"><ele>254.0</ele><time>2026-05-01T09:02:55.156Z</time></trkpt><trkpt lat="45.0005717" lon="8.26502"><ele>253.0</ele><time>2026-05-01T09:02:56.156Z</time></trkpt><trkpt lat="45.0006617" lon="8.26485"><ele>251.75</ele><time>2026-05-01T09:02:57.158Z</time></trkpt><trkpt lat="45.0007567" lon="8.2646883"><ele>250.5</ele><time>2026-05-01T09:02:58.155Z</time></trkpt><trkpt lat="45.00085" lon="8.26453"><ele>249.25</ele><time>2026-05-01T09:02:59.16Z</time></trkpt><trkpt lat="45.0009483" lon="8.2643733"><ele>248.0</ele><time>2026-05-01T09:03:00.154Z</time></trkpt><trkpt lat="45.0010533" lon="8.2642183"><ele>250.0</ele><time>2026-05-01T09:03:01.156Z</time></trkpt><trkpt lat="45.00116" lon="8.2640617"><ele>252.0</ele><time>2026-05-01T09:03:02.156Z</time></trkpt><trkpt lat="45.001265" lon="8.2639067"><ele>254.0</ele><time>2026-05-01T09:03:03.15Z</time></trkpt><trkpt lat="45.0013717" lon="8.2637533"><ele>254.0</ele><time>2026-05-01T09:03:04.151Z</time></trkpt><trkpt lat="45.0014783" lon="8.2636017"><ele>254.0</ele><time>2026-05-01T09:03:05.152Z</time></trkpt><trkpt lat="45.0015833" lon="8.2634467"><ele>254.0</ele><time>2026-05-01T09:03:06.152Z</time></trkpt><trkpt lat="45.0016817" lon="8.2632867"><ele>256.5</ele><time>2026-05-01T09:03:07.153Z</time></trkpt><trkpt lat="45.0017717" lon="8.263115"><ele>259.0</ele><time>2026-05-01T09:03:08.153Z</time></trkpt><trkpt lat="45.0018433" lon="8.2629267"><ele>261.5</ele><time>2026-05-01T09:03:09.155Z</time></trkpt><trkpt lat="45.0018917" lon="8.2627317"><ele>264.0</ele><time>2026-05-01T09:03:10.159Z</time></trkpt><trkpt lat="45.0019283" lon="8.2625317"><ele>264.0</ele><time>2026-05-01T09:03:11.152Z</time></trkpt><trkpt lat="45.0019467" lon="8.262325"><ele>264.0</ele><time>2026-05-01T09:03:12.157Z</time></trkpt><trkpt lat="45.0019517" lon="8.262115"><ele>264.0</ele><time>2026-05-01T09:03:13.152Z</time></trkpt><trkpt lat="45.0019517" lon="8.2619067"><ele>264.0</ele><time>2026-05-01T09:03:14.15Z</time></trkpt><trkpt lat="45.0019467" lon="8.2616983"><ele>263.25</ele><time>2026-05-01T09:03:15.152Z</time></trkpt><trkpt lat="45.0019467" lon="8.2614917"><ele>262.5</ele><time>2026-05-01T09:03:16.154Z</time></trkpt><trkpt lat="45.0019483" lon="8.2612817"><ele>261.75</ele><time>2026-05-01T09:03:17.152Z</time></trkpt><trkpt lat="45.0019517" lon="8.26107"><ele>261.0</ele><time>2026-05-01T09:03:18.157Z</time></trkpt><trkpt lat="45.0019517" lon="8.2608617"><ele>260.5</ele><time>2026-05-01T09:03:19.155Z</time></trkpt><trkpt lat="45.0019583" lon="8.2606667"><ele>260.0</ele><time>2026-05-01T09:03:20.153Z</time></trkpt><trkpt lat="45.0019767" lon="8.2604867"><ele>259.5</ele><time>2026-05-01T09:03:21.154Z</time></trkpt><trkpt lat="45.0020183" lon="8.2603167"><ele>259.0</ele><time>2026-05-01T09:03:22.156Z</time></trkpt><trkpt lat="45.0020833" lon="8.2601583"><ele>259.0</ele><time>2026-05-01T09:03:23.152Z</time></trkpt><trkpt lat="45.0021633" lon="8.260015"><ele>259.0</ele><time>2026-05-01T09:03:24.152Z</time></trkpt><trkpt lat="45.0022467" lon="8.2598717"><ele>259.0</ele><time>2026-05-01T09:03:25.158Z</time></trkpt><trkpt lat="45.002335" lon="8.259725"><ele>259.0</ele><time>2026-05-01T09:03:26.156Z</time></trkpt><trkpt lat="45.0024233" lon="8.259575"><ele>259.75</ele><time>2026-05-01T09:03:27.152Z</time></trkpt><trkpt lat="45.002515" lon="8.259425"><ele>260.5</ele><time>2026-05-01T09:03:28.154Z</time></trkpt><trkpt lat="45.00261" lon="8.2592733"><ele>261.25</ele><time>2026-05-01T09:03:29.152Z</time></trkpt><trkpt lat="45.002705" lon="8.259125"><ele>262.0</ele><time>2026-05-01T09:03:30.155Z</time></trkpt><trkpt lat="45.0028033" lon="8.258975"><ele>263.5</ele><time>2026-05-01T09:03:31.161Z</time></trkpt><trkpt lat="45.0029017" lon="8.2588217"><ele>265.0</ele><time>2026-05-01T09:03:32.151Z</time></trkpt><trkpt lat="45.0030017" lon="8.2586733"><ele>266.5</ele><time>2026-05-01T09:03:33.154Z</time></trkpt><trkpt lat="45.003105" lon="8.2585267"><ele>268.0</ele><time>2026-05-01T09:03:34.153Z</time></trkpt><trkpt lat="45.0032017" lon="8.2583733"><ele>268.0</ele><time>2026-05-01T09:03:35.154Z</time></trkpt><trkpt lat="45.0033033" lon="8.2582267"><ele>268.0</ele><time>2026-05-01T09:03:36.151Z</time></trkpt><trkpt lat="45.00341" lon="8.2580883"><ele>268.0</ele><time>2026-05-01T09:03:37.151Z</time></trkpt><trkpt lat="45.003515" lon="8.2579533"><ele>268.0</ele><time>2026-05-01T09:03:38.154Z</time></trkpt><trkpt lat="45.0036167" lon="8.2578283"><ele>264.2</ele><time>2026-05-01T09:03:39.157Z</time></trkpt><trkpt lat="45.0037117" lon="8.2577217"><ele>260.4</ele><time>2026-05-01T09:03:40.153Z</time></trkpt><trkpt lat="45.0038" lon="8.25764"><ele>256.59999999999997</ele><time>2026-05-01T09:03:41.151Z</time></trkpt><trkpt lat="45.0038917" lon="8.2575783"><ele>252.79999999999998</ele><time>2026-05-01T09:03:42.156Z</time></trkpt><trkpt lat="45.0039917" lon="8.257535"><ele>249.0</ele><time>2026-05-01T09:03:43.153Z</time></trkpt><trkpt lat="45.0040883" lon="8.2575067"><ele>248.0</ele><time>2026-05-01T09:03:44.156Z</time></trkpt><trkpt lat="45.0041917" lon="8.2574983"><ele>247.0</ele><time>2026-05-01T09:03:45.152Z</time></trkpt><trkpt lat="45.004305" lon="8.2575083"><ele>246.0</ele><time>2026-05-01T09:03:46.154Z</time></trkpt><trkpt lat="45.0044217" lon="8.2575217"><ele>245.0</ele><time>2026-05-01T09:03:47.152Z</time></trkpt><trkpt lat="45.0045433" lon="8.257525"><ele>245.0</ele><time>2026-05-01T09:03:48.154Z</time></trkpt><trkpt lat="45.0046567" lon="8.25754"><ele>245.0</ele><time>2026-05-01T09:03:49.159Z</time></trkpt><trkpt lat="45.0047767" lon="8.257545"><ele>245.0</ele><time>2026-05-01T09:03:50.151Z</time></trkpt><trkpt lat="45.0048933" lon="8.257565"><ele>245.0</ele><time>2026-05-01T09:03:51.154Z</time></trkpt><trkpt lat="45.0050183" lon="8.2575883"><ele>244.25</ele><time>2026-05-01T09:03:52.153Z</time></trkpt><trkpt lat="45.00514" lon="8.2576267"><ele>243.5</ele><time>2026-05-01T09:03:53.153Z</time></trkpt><trkpt lat="45.00526" lon="8.257655"><ele>242.75</ele><time>2026-05-01T09:03:54.155Z</time></trkpt><trkpt lat="45.0053783" lon="8.25769"><ele>242.0</ele><time>2026-05-01T09:03:55.151Z</time></trkpt><trkpt lat="45.005485" lon="8.257715"><ele>242.0</ele><time>2026-05-01T09:03:56.153Z</time></trkpt><trkpt lat="45.005595" lon="8.2577383"><ele>242.0</ele><time>2026-05-01T09:03:57.152Z</time></trkpt><trkpt lat="45.0056933" lon="8.2577683"><ele>242.0</ele><time>2026-05-01T09:03:58.153Z</time></trkpt><trkpt lat="45.00579" lon="8.25778"><ele>242.0</ele><time>2026-05-01T09:03:59.152Z</time></trkpt><trkpt lat="45.0058867" lon="8.257795"><ele>242.0</ele><time>2026-05-01T09:04:00.15Z</time></trkpt><trkpt lat="45.0059817" lon="8.257815"><ele>241.66666666666669</ele><time>2026-05-01T09:04:01.154Z</time></trkpt><trkpt lat="45.0060733" lon="8.25784"><ele>241.33333333333334</ele><time>2026-05-01T09:04:02.151Z</time></trkpt><trkpt lat="45.0061517" lon="8.2578767"><ele>241.0</ele><time>2026-05-01T09:04:03.152Z</time></trkpt><trkpt lat="45.006225" lon="8.2579333"><ele>240.66666666666669</ele><time>2026-05-01T09:04:04.154Z</time></trkpt><trkpt lat="45.0062967" lon="8.25801"><ele>240.33333333333334</ele><time>2026-05-01T09:04:05.152Z</time></trkpt><trkpt lat="45.0063733" lon="8.2580967"><ele>240.0</ele><time>2026-05-01T09:04:06.154Z</time></trkpt><trkpt lat="45.00645" lon="8.2581867"><ele>240.0</ele><time>2026-05-01T09:04:07.154Z</time></trkpt><trkpt lat="45.006535" lon="8.2582833"><ele>240.0</ele><time>2026-05-01T09:04:08.156Z</time></trkpt><trkpt lat="45.0066217" lon="8.258375"><ele>240.0</ele><time>2026-05-01T09:04:09.152Z</time></trkpt><trkpt lat="45.0067117" lon="8.2584717"><ele>240.0</ele><time>2026-05-01T09:04:10.153Z</time></trkpt><trkpt lat="45.0068017" lon="8.2585717"><ele>240.0</ele><time>2026-05-01T09:04:11.157Z</time></trkpt><trkpt lat="45.0068983" lon="8.25866"><ele>241.2</ele><time>2026-05-01T09:04:12.152Z</time></trkpt><trkpt lat="45.0069967" lon="8.2587333"><ele>242.4</ele><time>2026-05-01T09:04:13.151Z</time></trkpt><trkpt lat="45.007095" lon="8.2587917"><ele>243.60000000000002</ele><time>2026-05-01T09:04:14.154Z</time></trkpt><trkpt lat="45.0071967" lon="8.25884"><ele>244.8</ele><time>2026-05-01T09:04:15.153Z</time></trkpt><trkpt lat="45.0073033" lon="8.25888"><ele>246.0</ele><time>2026-05-01T09:04:16.154Z</time></trkpt><trkpt lat="45.007415" lon="8.2589117"><ele>247.8</ele><time>2026-05-01T09:04:17.153Z</time></trkpt><trkpt lat="45.0075283" lon="8.2589167"><ele>249.60000000000002</ele><time>2026-05-01T09:04:18.156Z</time></trkpt><trkpt lat="45.0076383" lon="8.2589117"><ele>251.4</ele><time>2026-05-01T09:04:19.156Z</time></trkpt><trkpt lat="45.0077467" lon="8.2589017"><ele>253.2</ele><time>2026-05-01T09:04:20.152Z</time></trkpt><trkpt lat="45.00785" lon="8.2589083"><ele>255.0</ele><time>2026-05-01T09:04:21.153Z</time></trkpt><trkpt lat="45.0079517" lon="8.2589117"><ele>255.0</ele><time>2026-05-01T09:04:22.153Z</time></trkpt><trkpt lat="45.0080483" lon="8.2589117"><ele>255.0</ele><time>2026-05-01T09:04:23.161Z</time></trkpt><trkpt lat="45.008145" lon="8.2589067"><ele>255.0</ele><time>2026-05-01T09:04:24.154Z</time></trkpt><trkpt lat="45.0082383" lon="8.25889"><ele>255.0</ele><time>2026-05-01T09:04:25.158Z</time></trkpt><trkpt lat="45.0083317" lon="8.2588533"><ele>255.0</ele><time>2026-05-01T09:04:26.155Z</time></trkpt><trkpt lat="45.0084317" lon="8.2588283"><ele>254.8</ele><time>2026-05-01T09:04:27.153Z</time></trkpt><trkpt lat="45.008515" lon="8.258795"><ele>254.6</ele><time>2026-05-01T09:04:28.153Z</time></trkpt><trkpt lat="45.008615" lon="8.258755"><ele>254.39999999999998</ele><time>2026-05-01T09:04:29.154Z</time></trkpt><trkpt lat="45.008715" lon="8.2586933"><ele>254.2</ele><time>2026-05-01T09:04:30.16Z</time></trkpt><trkpt lat="45.0088133" lon="8.25862"><ele>254.0</ele><time>2026-05-01T09:04:31.155Z</time></trkpt><trkpt lat="45.0089033" lon="8.2585367"><ele>254.0</ele><time>2026-05-01T09:04:32.16Z</time></trkpt><trkpt lat="45.0089917" lon="8.2584517"><ele>253.99999999999997</ele><time>2026-05-01T09:04:33.152Z</time></trkpt><trkpt lat="45.0090767" lon="8.2583633"><ele>253.99999999999997</ele><time>2026-05-01T09:04:34.151Z</time></trkpt><trkpt lat="45.009165" lon="8.25826"><ele>254.0</ele><time>2026-05-01T09:04:35.156Z</time></trkpt><trkpt lat="45.009245" lon="8.258135"><ele>254.0</ele><time>2026-05-01T09:04:36.151Z</time></trkpt><trkpt lat="45.0093217" lon="8.258"><ele>251.75</ele><time>2026-05-01T09:04:37.156Z</time></trkpt><trkpt lat="45.009405" lon="8.2578683"><ele>249.5</ele><time>2026-05-01T09:04:38.152Z</time></trkpt><trkpt lat="45.0094867" lon="8.257735"><ele>247.25</ele><time>2026-05-01T09:04:39.153Z</time></trkpt><trkpt lat="45.009565" lon="8.2576017"><ele>245.0</ele><time>2026-05-01T09:04:40.154Z</time></trkpt><trkpt lat="45.009645" lon="8.25747"><ele>245.0</ele><time>2026-05-01T09:04:41.152Z</time></trkpt><trkpt lat="45.0097217" lon="8.2573367"><ele>245.0</ele><time>2026-05-01T09:04:42.155Z</time></trkpt><trkpt lat="45.0097983" lon="8.2572083"><ele>245.0</ele><time>2026-05-01T09:04:43.156Z</time></trkpt><trkpt lat="45.00988" lon="8.2570933"><ele>245.0</ele><time>2026-05-01T09:04:44.151Z</time></trkpt><trkpt lat="45.0099667" lon="8.257"><ele>244.4</ele><time>2026-05-01T09:04:45.15Z</time></trkpt><trkpt lat="45.0100583" lon="8.2569233"><ele>243.8</ele><time>2026-05-01T09:04:46.152Z</time></trkpt><trkpt lat="45.0101567" lon="8.25685"><ele>243.2</ele><time>2026-05-01T09:04:47.15Z</time></trkpt><trkpt lat="45.0102567" lon="8.256785"><ele>242.6</ele><time>2026-05-01T09:04:48.153Z</time></trkpt><trkpt lat="45.0103533" lon="8.2567183"><ele>242.0</ele><time>2026-05-01T09:04:49.16Z</time></trkpt><trkpt lat="45.0104533" lon="8.256655"><ele>242.0</ele><time>2026-05-01T09:04:50.155Z</time></trkpt><trkpt lat="45.0105533" lon="8.256595"><ele>242.0</ele><time>2026-05-01T09:04:51.151Z</time></trkpt><trkpt lat="45.0106533" lon="8.2565583"><ele>242.0</ele><time>2026-05-01T09:04:52.157Z</time></trkpt><trkpt lat="45.01075" lon="8.2565467"><ele>242.0</ele><time>2026-05-01T09:04:53.154Z</time></trkpt><trkpt lat="45.0108417" lon="8.256565"><ele>242.0</ele><time>2026-05-01T09:04:54.151Z</time></trkpt><trkpt lat="45.0109267" lon="8.2566267"><ele>241.6</ele><time>2026-05-01T09:04:55.157Z</time></trkpt><trkpt lat="45.0110117" lon="8.2567133"><ele>241.2</ele><time>2026-05-01T09:04:56.153Z</time></trkpt><trkpt lat="45.0110883" lon="8.256825"><ele>240.8</ele><time>2026-05-01T09:04:57.157Z</time></trkpt><trkpt lat="45.0111633" lon="8.2569433"><ele>240.4</ele><time>2026-05-01T09:04:58.157Z</time></trkpt><trkpt lat="45.0112483" lon="8.2570367"><ele>240.0</ele><time>2026-05-01T09:04:59.153Z</time></trkpt><trkpt lat="45.0113467" lon="8.257095"><ele>240.0</ele><time>2026-05-01T09:05:00.152Z</time></trkpt><trkpt lat="45.0114517" lon="8.257125"><ele>240.0</ele><time>2026-05-01T09:05:01.158Z</time></trkpt><trkpt lat="45.01155" lon="8.25713"><ele>240.0</ele><time>2026-05-01T09:05:02.153Z</time></trkpt><trkpt lat="45.0116317" lon="8.257105"><ele>240.0</ele><time>2026-05-01T09:05:03.156Z</time></trkpt><trkpt lat="45.0116983" lon="8.2570483"><ele>240.0</ele><time>2026-05-01T09:05:04.15Z</time></trkpt><trkpt lat="45.0117533" lon="8.2569783"><ele>240.0</ele><time>2026-05-01T09:05:05.151Z</time></trkpt><trkpt lat="45.0117883" lon="8.2568917"><ele>241.2</ele><time>2026-05-01T09:05:06.16Z</time></trkpt><trkpt lat="45.01175" lon="8.25675"><ele>242.4</ele><time>2026-05-01T09:05:07.156Z</time></trkpt><trkpt lat="45.0117183" lon="8.2566217"><ele>243.60000000000002</ele><time>2026-05-01T09:05:08.153Z</time></trkpt><trkpt lat="45.011685" lon="8.2564817"><ele>244.8</ele><time>2026-05-01T09:05:09.151Z</time></trkpt><trkpt lat="45.0116533" lon="8.2563433"><ele>246.0</ele><time>2026-05-01T09:05:10.154Z</time></trkpt><trkpt lat="45.011615" lon="8.2562033"><ele>246.60000000000002</ele><time>2026-05-01T09:05:11.152Z</time></trkpt><trkpt lat="45.0115833" lon="8.2560533"><ele>247.20000000000002</ele><time>2026-05-01T09:05:12.156Z</time></trkpt><trkpt lat="45.0115533" lon="8.2559133"><ele>247.79999999999998</ele><time>2026-05-01T09:05:13.155Z</time></trkpt><trkpt lat="45.0115233" lon="8.2557817"><ele>248.39999999999998</ele><time>2026-05-01T09:05:14.155Z</time></trkpt><trkpt lat="45.0114967" lon="8.2556683"><ele>249.0</ele><time>2026-05-01T09:05:15.152Z</time></trkpt><trkpt lat="45.011475" lon="8.255575"><ele>250.5</ele><time>2026-05-01T09:05:16.155Z</time></trkpt><trkpt lat="45.0114567" lon="8.25544"><ele>252.0</ele><time>2026-05-01T09:05:18.154Z</time></trkpt><trkpt lat="45.0115033" lon="8.2553267"><ele>253.5</ele><time>2026-05-01T09:05:20.153Z</time></trkpt><trkpt lat="45.0115783" lon="8.2552817"><ele>255.0</ele><time>2026-05-01T09:05:21.157Z</time></trkpt><trkpt lat="45.01165" lon="8.2552383"><ele>256.5</ele><time>2026-05-01T09:05:22.154Z</time></trkpt><trkpt lat="45.0117383" lon="8.2551883"><ele>258.0</ele><time>2026-05-01T09:05:23.153Z</time></trkpt><trkpt lat="45.0118333" lon="8.2551383"><ele>258.0</ele><time>2026-05-01T09:05:24.15Z</time></trkpt><trkpt lat="45.01194" lon="8.2550733"><ele>258.0</ele><time>2026-05-01T09:05:25.15Z</time></trkpt><trkpt lat="45.0120467" lon="8.25501"><ele>258.0</ele><time>2026-05-01T09:05:26.15Z</time></trkpt><trkpt lat="45.01215" lon="8.2549383"><ele>258.0</ele><time>2026-05-01T09:05:27.15Z</time></trkpt><trkpt lat="45.0122583" lon="8.2548667"><ele>258.0</ele><time>2026-05-01T09:05:28.149Z</time></trkpt><trkpt lat="45.0123717" lon="8.2547917"><ele>258.0</ele><time>2026-05-01T09:05:29.15Z</time></trkpt><trkpt lat="45.0124917" lon="8.2547167"><ele>258.0</ele><time>2026-05-01T09:05:30.151Z</time></trkpt><trkpt lat="45.0126233" lon="8.2546633"><ele>258.0</ele><time>2026-05-01T09:05:31.151Z</time></trkpt><trkpt lat="45.01276" lon="8.2546067"><ele>254.66666666666669</ele><time>2026-05-01T09:05:32.153Z</time></trkpt><trkpt lat="45.01291" lon="8.2545767"><ele>251.33333333333334</ele><time>2026-05-01T09:05:33.159Z</time></trkpt><trkpt lat="45.01306" lon="8.25454"><ele>248.0</ele><time>2026-05-01T09:05:34.153Z</time></trkpt><trkpt lat="45.0132217" lon="8.254525"><ele>246.0</ele><time>2026-05-01T09:05:35.155Z</time></trkpt><trkpt lat="45.0133883" lon="8.25451"><ele>244.0</ele><time>2026-05-01T09:05:36.157Z</time></trkpt><trkpt lat="45.0135517" lon="8.254495"><ele>242.0</ele><time>2026-05-01T09:05:37.155Z</time></trkpt><trkpt lat="45.01371" lon="8.2544783"><ele>242.0</ele><time>2026-05-01T09:05:38.153Z</time></trkpt><trkpt lat="45.0138717" lon="8.254455"><ele>242.0</ele><time>2026-05-01T09:05:39.154Z</time></trkpt><trkpt lat="45.0140383" lon="8.2544417"><ele>242.0</ele><time>2026-05-01T09:05:40.149Z</time></trkpt><trkpt lat="45.0142033" lon="8.2544183"><ele>241.0</ele><time>2026-05-01T09:05:41.152Z</time></trkpt><trkpt lat="45.0143667" lon="8.2543983"><ele>240.0</ele><time>2026-05-01T09:05:42.155Z</time></trkpt><trkpt lat="45.0145333" lon="8.2543767"><ele>239.0</ele><time>2026-05-01T09:05:43.151Z</time></trkpt><trkpt lat="45.0146983" lon="8.2543533"><ele>239.0</ele><time>2026-05-01T09:05:44.151Z</time></trkpt><trkpt lat="45.0148617" lon="8.2543367"><ele>239.0</ele><time>2026-05-01T09:05:45.151Z</time></trkpt><trkpt lat="45.015025" lon="8.2543217"><ele>239.0</ele><time>2026-05-01T09:05:46.154Z</time></trkpt><trkpt lat="45.015195" lon="8.254305"><ele>236.66666666666669</ele><time>2026-05-01T09:05:47.155Z</time></trkpt><trkpt lat="45.01536" lon="8.2542917"><ele>234.33333333333331</ele><time>2026-05-01T09:05:48.152Z</time></trkpt><trkpt lat="45.01552" lon="8.254285"><ele>232.0</ele><time>2026-05-01T09:05:49.152Z</time></trkpt><trkpt lat="45.0156733" lon="8.254285"><ele>232.66666666666666</ele><time>2026-05-01T09:05:50.152Z</time></trkpt><trkpt lat="45.0158267" lon="8.2543067"><ele>233.33333333333331</ele><time>2026-05-01T09:05:51.155Z</time></trkpt><trkpt lat="45.0159767" lon="8.2543517"><ele>234.0</ele><time>2026-05-01T09:05:52.16Z</time></trkpt><trkpt lat="45.01612" lon="8.2544217"><ele>234.0</ele><time>2026-05-01T09:05:53.152Z</time></trkpt><trkpt lat="45.01626" lon="8.2545183"><ele>234.0</ele><time>2026-05-01T09:05:54.152Z</time></trkpt><trkpt lat="45.016395" lon="8.25463"><ele>234.0</ele><time>2026-05-01T09:05:55.154Z</time></trkpt><trkpt lat="45.0165233" lon="8.2547667"><ele>233.33333333333331</ele><time>2026-05-01T09:05:56.159Z</time></trkpt><trkpt lat="45.0166433" lon="8.2549283"><ele>232.66666666666666</ele><time>2026-05-01T09:05:57.155Z</time></trkpt><trkpt lat="45.0167517" lon="8.2551083"><ele>232.0</ele><time>2026-05-01T09:05:58.161Z</time></trkpt><trkpt lat="45.0168533" lon="8.2553"><ele>232.0</ele><time>2026-05-01T09:05:59.159Z</time></trkpt><trkpt lat="45.0169467" lon="8.2555017"><ele>232.0</ele><time>2026-05-01T09:06:00.155Z</time></trkpt><trkpt lat="45.01704" lon="8.2557067"><ele>232.0</ele><time>2026-05-01T09:06:01.158Z</time></trkpt><trkpt lat="45.017135" lon="8.2559183"><ele>230.0</ele><time>2026-05-01T09:06:02.152Z</time></trkpt><trkpt lat="45.0172283" lon="8.2561283"><ele>228.0</ele><time>2026-05-01T09:06:03.149Z</time></trkpt><trkpt lat="45.0173217" lon="8.2563433"><ele>226.0</ele><time>2026-05-01T09:06:04.15Z</time></trkpt><trkpt lat="45.0174167" lon="8.256555"><ele>227.66666666666666</ele><time>2026-05-01T09:06:05.157Z</time></trkpt><trkpt lat="45.0175167" lon="8.256765"><ele>229.33333333333331</ele><time>2026-05-01T09:06:06.154Z</time></trkpt><trkpt lat="45.0176167" lon="8.256975"><ele>231.0</ele><time>2026-05-01T09:06:07.152Z</time></trkpt><trkpt lat="45.0177183" lon="8.257185"><ele>228.33333333333331</ele><time>2026-05-01T09:06:08.152Z</time></trkpt><trkpt lat="45.017815" lon="8.25739"><ele>225.66666666666666</ele><time>2026-05-01T09:06:09.151Z</time></trkpt><trkpt lat="45.0179167" lon="8.257585"><ele>223.0</ele><time>2026-05-01T09:06:10.153Z</time></trkpt><trkpt lat="45.0180283" lon="8.2577633"><ele>223.0</ele><time>2026-05-01T09:06:11.153Z</time></trkpt><trkpt lat="45.0181533" lon="8.2579217"><ele>223.0</ele><time>2026-05-01T09:06:12.154Z</time></trkpt><trkpt lat="45.0182883" lon="8.2580567"><ele>223.0</ele><time>2026-05-01T09:06:13.156Z</time></trkpt><trkpt lat="45.018435" lon="8.2581733"><ele>225.0</ele><time>2026-05-01T09:06:14.154Z</time></trkpt><trkpt lat="45.0185883" lon="8.2582617"><ele>227.0</ele><time>2026-05-01T09:06:15.155Z</time></trkpt><trkpt lat="45.01875" lon="8.2583267"><ele>229.0</ele><time>2026-05-01T09:06:16.155Z</time></trkpt><trkpt lat="45.0189167" lon="8.2583483"><ele>229.0</ele><time>2026-05-01T09:06:17.158Z</time></trkpt><trkpt lat="45.0190833" lon="8.2583367"><ele>229.0</ele><time>2026-05-01T09:06:18.156Z</time></trkpt><trkpt lat="45.01925" lon="8.25829"><ele>229.0</ele><time>2026-05-01T09:06:19.154Z</time></trkpt><trkpt lat="45.0194117" lon="8.258215"><ele>229.0</ele><time>2026-05-01T09:06:20.158Z</time></trkpt><trkpt lat="45.019575" lon="8.2581267"><ele>229.0</ele><time>2026-05-01T09:06:21.153Z</time></trkpt><trkpt lat="45.0197383" lon="8.2580267"><ele>229.0</ele><time>2026-05-01T09:06:22.155Z</time></trkpt><trkpt lat="45.019905" lon="8.25792"><ele>228.0</ele><time>2026-05-01T09:06:23.158Z</time></trkpt><trkpt lat="45.0200733" lon="8.257815"><ele>227.0</ele><time>2026-05-01T09:06:24.157Z</time></trkpt><trkpt lat="45.0202467" lon="8.2577083"><ele>226.0</ele><time>2026-05-01T09:06:25.151Z</time></trkpt><trkpt lat="45.0204217" lon="8.2576017"><ele>226.0</ele><time>2026-05-01T09:06:26.152Z</time></trkpt><trkpt lat="45.0205983" lon="8.2575"><ele>226.0</ele><time>2026-05-01T09:06:27.152Z</time></trkpt><trkpt lat="45.0207767" lon="8.2573917"><ele>226.0</ele><time>2026-05-01T09:06:28.152Z</time></trkpt><trkpt lat="45.020955" lon="8.2572783"><ele>224.33333333333331</ele><time>2026-05-01T09:06:29.156Z</time></trkpt><trkpt lat="45.0211317" lon="8.2571683"><ele>222.66666666666669</ele><time>2026-05-01T09:06:30.153Z</time></trkpt><trkpt lat="45.0213067" lon="8.2570617"><ele>221.0</ele><time>2026-05-01T09:06:31.151Z</time></trkpt><trkpt lat="45.0214817" lon="8.2569717"><ele>220.0</ele><time>2026-05-01T09:06:32.152Z</time></trkpt><trkpt lat="45.0216583" lon="8.2568967"><ele>219.0</ele><time>2026-05-01T09:06:33.153Z</time></trkpt><trkpt lat="45.0218333" lon="8.2568367"><ele>218.0</ele><time>2026-05-01T09:06:34.154Z</time></trkpt><trkpt lat="45.02201" lon="8.2567917"><ele>218.0</ele><time>2026-05-01T09:06:35.152Z</time></trkpt><trkpt lat="45.022185" lon="8.2567617"><ele>218.0</ele><time>2026-05-01T09:06:36.155Z</time></trkpt><trkpt lat="45.0223617" lon="8.256745"><ele>218.0</ele><time>2026-05-01T09:06:37.152Z</time></trkpt><trkpt lat="45.02254" lon="8.25674"><ele>218.33333333333334</ele><time>2026-05-01T09:06:38.15Z</time></trkpt><trkpt lat="45.02272" lon="8.256735"><ele>218.66666666666669</ele><time>2026-05-01T09:06:39.151Z</time></trkpt><trkpt lat="45.0229017" lon="8.256735"><ele>219.0</ele><time>2026-05-01T09:06:40.153Z</time></trkpt><trkpt lat="45.023085" lon="8.2567383"><ele>219.0</ele><time>2026-05-01T09:06:41.159Z</time></trkpt><trkpt lat="45.0232717" lon="8.256745"><ele>219.0</ele><time>2026-05-01T09:06:42.153Z</time></trkpt><trkpt lat="45.02346" lon="8.25675"><ele>219.0</ele><time>2026-05-01T09:06:43.155Z</time></trkpt><trkpt lat="45.0236483" lon="8.2567533"><ele>219.33333333333331</ele><time>2026-05-01T09:06:44.155Z</time></trkpt><trkpt lat="45.0238367" lon="8.2567567"><ele>219.66666666666666</ele><time>2026-05-01T09:06:45.154Z</time></trkpt><trkpt lat="45.0240217" lon="8.2567617"><ele>220.0</ele><time>2026-05-01T09:06:46.155Z</time></trkpt><trkpt lat="45.0242067" lon="8.2567683"><ele>219.33333333333331</ele><time>2026-05-01T09:06:47.152Z</time></trkpt><trkpt lat="45.024395" lon="8.256775"><ele>218.66666666666669</ele><time>2026-05-01T09:06:48.155Z</time></trkpt><trkpt lat="45.02458" lon="8.25678"><ele>218.0</ele><time>2026-05-01T09:06:49.156Z</time></trkpt><trkpt lat="45.024765" lon="8.2567817"><ele>218.0</ele><time>2026-05-01T09:06:50.153Z</time></trkpt><trkpt lat="45.024945" lon="8.2567817"><ele>218.0</ele><time>2026-05-01T09:06:51.151Z</time></trkpt><trkpt lat="45.02512" lon="8.2567833"><ele>218.0</ele><time>2026-05-01T09:06:52.152Z</time></trkpt><trkpt lat="45.0252933" lon="8.2567883"><ele>217.66666666666669</ele><time>2026-05-01T09:06:53.155Z</time></trkpt><trkpt lat="45.0254683" lon="8.256795"><ele>217.33333333333331</ele><time>2026-05-01T09:06:54.15Z</time></trkpt><trkpt lat="45.0256417" lon="8.2568"><ele>217.0</ele><time>2026-05-01T09:06:55.152Z</time></trkpt><trkpt lat="45.025815" lon="8.256805"><ele>216.0</ele><time>2026-05-01T09:06:56.156Z</time></trkpt><trkpt lat="45.0259867" lon="8.2568117"><ele>215.0</ele><time>2026-05-01T09:06:57.152Z</time></trkpt><trkpt lat="45.0261567" lon="8.2568267"><ele>214.0</ele><time>2026-05-01T09:06:58.15Z</time></trkpt><trkpt lat="45.0263233" lon="8.2568633"><ele>214.0</ele><time>2026-05-01T09:06:59.155Z</time></trkpt><trkpt lat="45.026485" lon="8.25692"><ele>214.0</ele><time>2026-05-01T09:07:00.155Z</time></trkpt><trkpt lat="45.0266433" lon="8.257"><ele>214.0</ele><time>2026-05-01T09:07:01.154Z</time></trkpt><trkpt lat="45.0268" lon="8.2570883"><ele>214.0</ele><time>2026-05-01T09:07:02.157Z</time></trkpt><trkpt lat="45.02695" lon="8.2572067"><ele>214.0</ele><time>2026-05-01T09:07:03.154Z</time></trkpt><trkpt lat="45.0270933" lon="8.257335"><ele>214.0</ele><time>2026-05-01T09:07:04.155Z</time></trkpt><trkpt lat="45.0272267" lon="8.257475"><ele>211.66666666666666</ele><time>2026-05-01T09:07:05.157Z</time></trkpt><trkpt lat="45.0273583" lon="8.2576367"><ele>209.33333333333331</ele><time>2026-05-01T09:07:06.154Z</time></trkpt><trkpt lat="45.0274833" lon="8.2578033"><ele>207.0</ele><time>2026-05-01T09:07:07.159Z</time></trkpt><trkpt lat="45.0276017" lon="8.257985"><ele>207.0</ele><time>2026-05-01T09:07:08.156Z</time></trkpt><trkpt lat="45.0277133" lon="8.2581717"><ele>207.0</ele><time>2026-05-01T09:07:09.155Z</time></trkpt><trkpt lat="45.0278233" lon="8.2583683"><ele>207.0</ele><time>2026-05-01T09:07:10.153Z</time></trkpt><trkpt lat="45.0279333" lon="8.2585717"><ele>207.0</ele><time>2026-05-01T09:07:11.151Z</time></trkpt><trkpt lat="45.0280417" lon="8.2587833"><ele>207.0</ele><time>2026-05-01T09:07:12.153Z</time></trkpt><trkpt lat="45.0281517" lon="8.2590017"><ele>207.0</ele><time>2026-05-01T09:07:13.156Z</time></trkpt><trkpt lat="45.028265" lon="8.2592167"><ele>207.33333333333331</ele><time>2026-05-01T09:07:14.151Z</time></trkpt><trkpt lat="45.0283817" lon="8.25943"><ele>207.66666666666666</ele><time>2026-05-01T09:07:15.151Z</time></trkpt><trkpt lat="45.0284983" lon="8.259645"><ele>208.0</ele><time>2026-05-01T09:07:16.153Z</time></trkpt><trkpt lat="45.0286117" lon="8.2598633"><ele>208.0</ele><time>2026-05-01T09:07:17.157Z</time></trkpt><trkpt lat="45.0287267" lon="8.2600733"><ele>208.0</ele><time>2026-05-01T09:07:18.153Z</time></trkpt><trkpt lat="45.0288433" lon="8.2602817"><ele>208.0</ele><time>2026-05-01T09:07:19.157Z</time></trkpt><trkpt lat="45.028955" lon="8.2604917"><ele>208.33333333333331</ele><time>2026-05-01T09:07:20.155Z</time></trkpt><trkpt lat="45.029065" lon="8.2607"><ele>208.66666666666669</ele><time>2026-05-01T09:07:21.152Z</time></trkpt><trkpt lat="45.0291767" lon="8.2609083"><ele>209.0</ele><time>2026-05-01T09:07:22.153Z</time></trkpt><trkpt lat="45.0292867" lon="8.2611183"><ele>209.33333333333334</ele><time>2026-05-01T09:07:23.154Z</time></trkpt><trkpt lat="45.0293967" lon="8.2613233"><ele>209.66666666666669</ele><time>2026-05-01T09:07:24.154Z</time></trkpt><trkpt lat="45.029505" lon="8.261525"><ele>210.0</ele><time>2026-05-01T09:07:25.152Z</time></trkpt><trkpt lat="45.0296167" lon="8.2617267"><ele>210.0</ele><time>2026-05-01T09:07:26.152Z</time></trkpt><trkpt lat="45.0297267" lon="8.2619283"><ele>210.0</ele><time>2026-05-01T09:07:27.155Z</time></trkpt><trkpt lat="45.029835" lon="8.26213"><ele>210.0</ele><time>2026-05-01T09:07:28.16Z</time></trkpt><trkpt lat="45.0299417" lon="8.2623367"><ele>210.0</ele><time>2026-05-01T09:07:29.153Z</time></trkpt><trkpt lat="45.0300517" lon="8.2625383"><ele>210.0</ele><time>2026-05-01T09:07:30.151Z</time></trkpt><trkpt lat="45.03016" lon="8.2627367"><ele>210.0</ele><time>2026-05-01T09:07:31.157Z</time></trkpt><trkpt lat="45.03027" lon="8.262935"><ele>209.33333333333331</ele><time>2026-05-01T09:07:32.153Z</time></trkpt><trkpt lat="45.0303783" lon="8.2631333"><ele>208.66666666666666</ele><time>2026-05-01T09:07:33.153Z</time></trkpt><trkpt lat="45.030485" lon="8.26333"><ele>208.0</ele><time>2026-05-01T09:07:34.151Z</time></trkpt><trkpt lat="45.0305917" lon="8.2635283"><ele>208.0</ele><time>2026-05-01T09:07:35.152Z</time></trkpt><trkpt lat="45.0306983" lon="8.2637267"><ele>208.0</ele><time>2026-05-01T09:07:36.153Z</time></trkpt><trkpt lat="45.030805" lon="8.2639133"><ele>208.0</ele><time>2026-05-01T09:07:37.156Z</time></trkpt><trkpt lat="45.030915" lon="8.2641083"><ele>209.66666666666666</ele><time>2026-05-01T09:07:38.155Z</time></trkpt><trkpt lat="45.0310283" lon="8.2642967"><ele>211.33333333333331</ele><time>2026-05-01T09:07:39.153Z</time></trkpt><trkpt lat="45.031145" lon="8.264475"><ele>213.0</ele><time>2026-05-01T09:07:40.153Z</time></trkpt><trkpt lat="45.0312667" lon="8.26465"><ele>213.0</ele><time>2026-05-01T09:07:41.154Z</time></trkpt><trkpt lat="45.031395" lon="8.2648117"><ele>213.0</ele><time>2026-05-01T09:07:42.154Z</time></trkpt><trkpt lat="45.0315333" lon="8.2649533"><ele>213.0</ele><time>2026-05-01T09:07:43.157Z</time></trkpt><trkpt lat="45.0316833" lon="8.2650767"><ele>214.66666666666669</ele><time>2026-05-01T09:07:44.155Z</time></trkpt><trkpt lat="45.03184" lon="8.2651833"><ele>216.33333333333334</ele><time>2026-05-01T09:07:45.154Z</time></trkpt><trkpt lat="45.0320017" lon="8.2652783"><ele>218.0</ele><time>2026-05-01T09:07:46.154Z</time></trkpt><trkpt lat="45.032165" lon="8.2653683"><ele>218.0</ele><time>2026-05-01T09:07:47.153Z</time></trkpt><trkpt lat="45.0323333" lon="8.26545"><ele>218.0</ele><time>2026-05-01T09:07:48.157Z</time></trkpt><trkpt lat="45.0325017" lon="8.2655317"><ele>218.0</ele><time>2026-05-01T09:07:49.154Z</time></trkpt><trkpt lat="45.03267" lon="8.2656133"><ele>217.0</ele><time>2026-05-01T09:07:50.155Z</time></trkpt><trkpt lat="45.03284" lon="8.2656983"><ele>216.0</ele><time>2026-05-01T09:07:51.154Z</time></trkpt><trkpt lat="45.0330117" lon="8.2657817"><ele>215.0</ele><time>2026-05-01T09:07:52.157Z</time></trkpt><trkpt lat="45.033185" lon="8.265865"><ele>215.66666666666669</ele><time>2026-05-01T09:07:53.154Z</time></trkpt><trkpt lat="45.03336" lon="8.2659367"><ele>216.33333333333331</ele><time>2026-05-01T09:07:54.156Z</time></trkpt><trkpt lat="45.0335367" lon="8.2660183"><ele>217.0</ele><time>2026-05-01T09:07:55.15Z</time></trkpt><trkpt lat="45.033715" lon="8.2660967"><ele>217.0</ele><time>2026-05-01T09:07:56.153Z</time></trkpt><trkpt lat="45.0338933" lon="8.26618"><ele>217.0</ele><time>2026-05-01T09:07:57.153Z</time></trkpt><trkpt lat="45.03407" lon="8.266265"><ele>217.0</ele><time>2026-05-01T09:07:58.151Z</time></trkpt><trkpt lat="45.03425" lon="8.26635"><ele>217.66666666666666</ele><time>2026-05-01T09:07:59.154Z</time></trkpt><trkpt lat="45.03442" lon="8.26643"><ele>218.33333333333331</ele><time>2026-05-01T09:08:00.153Z</time></trkpt><trkpt lat="45.0345833" lon="8.266505"><ele>219.0</ele><time>2026-05-01T09:08:01.153Z</time></trkpt><trkpt lat="45.03474" lon="8.2665783"><ele>219.0</ele><time>2026-05-01T09:08:02.154Z</time></trkpt><trkpt lat="45.034895" lon="8.2666517"><ele>219.0</ele><time>2026-05-01T09:08:03.154Z</time></trkpt><trkpt lat="45.0350517" lon="8.2667217"><ele>219.0</ele><time>2026-05-01T09:08:04.15Z</time></trkpt><trkpt lat="45.0352067" lon="8.2667983"><ele>218.33333333333331</ele><time>2026-05-01T09:08:05.151Z</time></trkpt><trkpt lat="45.0353633" lon="8.2668767"><ele>217.66666666666666</ele><time>2026-05-01T09:08:06.155Z</time></trkpt><trkpt lat="45.03552" lon="8.266955"><ele>217.0</ele><time>2026-05-01T09:08:07.156Z</time></trkpt><trkpt lat="45.0356767" lon="8.2670333"><ele>217.66666666666666</ele><time>2026-05-01T09:08:08.154Z</time></trkpt><trkpt lat="45.0358383" lon="8.2671083"><ele>218.33333333333331</ele><time>2026-05-01T09:08:09.154Z</time></trkpt><trkpt lat="45.0359983" lon="8.26718"><ele>219.0</ele><time>2026-05-01T09:08:10.152Z</time></trkpt><trkpt lat="45.0361583" lon="8.2672533"><ele>220.0</ele><time>2026-05-01T09:08:11.156Z</time></trkpt><trkpt lat="45.036315" lon="8.2673233"><ele>221.0</ele><time>2026-05-01T09:08:12.154Z</time></trkpt><trkpt lat="45.0364717" lon="8.2673967"><ele>222.0</ele><time>2026-05-01T09:08:13.157Z</time></trkpt><trkpt lat="45.03663" lon="8.2674667"><ele>221.66666666666669</ele><time>2026-05-01T09:08:14.153Z</time></trkpt><trkpt lat="45.0367867" lon="8.2675383"><ele>221.33333333333334</ele><time>2026-05-01T09:08:15.152Z</time></trkpt><trkpt lat="45.0369483" lon="8.2676117"><ele>221.0</ele><time>2026-05-01T09:08:16.155Z</time></trkpt><trkpt lat="45.0371133" lon="8.2676867"><ele>221.0</ele><time>2026-05-01T09:08:17.154Z</time></trkpt><trkpt lat="45.0372783" lon="8.2677633"><ele>221.0</ele><time>2026-05-01T09:08:18.149Z</time></trkpt><trkpt lat="45.037445" lon="8.26784"><ele>221.0</ele><time>2026-05-01T09:08:19.151Z</time></trkpt><trkpt lat="45.0376133" lon="8.2679217"><ele>221.0</ele><time>2026-05-01T09:08:20.151Z</time></trkpt><trkpt lat="45.0377883" lon="8.2680033"><ele>221.0</ele><time>2026-05-01T09:08:21.149Z</time></trkpt><trkpt lat="45.0379633" lon="8.268085"><ele>221.0</ele><time>2026-05-01T09:08:22.15Z</time></trkpt><trkpt lat="45.0381367" lon="8.2681633"><ele>223.33333333333334</ele><time>2026-05-01T09:08:23.153Z</time></trkpt><trkpt lat="45.0383117" lon="8.268235"><ele>225.66666666666669</ele><time>2026-05-01T09:08:24.152Z</time></trkpt><trkpt lat="45.0384833" lon="8.2683083"><ele>228.0</ele><time>2026-05-01T09:08:25.154Z</time></trkpt><trkpt lat="45.0386533" lon="8.268385"><ele>228.0</ele><time>2026-05-01T09:08:26.156Z</time></trkpt><trkpt lat="45.0388217" lon="8.26846"><ele>228.0</ele><time>2026-05-01T09:08:27.154Z</time></trkpt><trkpt lat="45.03899" lon="8.2685383"><ele>228.0</ele><time>2026-05-01T09:08:28.149Z</time></trkpt><trkpt lat="45.0391583" lon="8.268615"><ele>227.0</ele><time>2026-05-01T09:08:29.156Z</time></trkpt><trkpt lat="45.0393233" lon="8.2686917"><ele>226.0</ele><time>2026-05-01T09:08:30.15Z</time></trkpt><trkpt lat="45.03949" lon="8.268765"><ele>225.0</ele><time>2026-05-01T09:08:31.154Z</time></trkpt><trkpt lat="45.039655" lon="8.26884"><ele>225.0</ele><time>2026-05-01T09:08:32.151Z</time></trkpt><trkpt lat="45.03982" lon="8.26892"><ele>225.0</ele><time>2026-05-01T09:08:33.151Z</time></trkpt><trkpt lat="45.039985" lon="8.269"><ele>225.0</ele><time>2026-05-01T09:08:34.158Z</time></trkpt><trkpt lat="45.0401483" lon="8.26908"><ele>227.0</ele><time>2026-05-01T09:08:35.158Z</time></trkpt><trkpt lat="45.0403117" lon="8.2691533"><ele>229.0</ele><time>2026-05-01T09:08:36.152Z</time></trkpt><trkpt lat="45.0404783" lon="8.2692283"><ele>231.0</ele><time>2026-05-01T09:08:37.154Z</time></trkpt><trkpt lat="45.0406433" lon="8.2693017"><ele>230.33333333333331</ele><time>2026-05-01T09:08:38.152Z</time></trkpt><trkpt lat="45.0408067" lon="8.2693783"><ele>229.66666666666666</ele><time>2026-05-01T09:08:39.148Z</time></trkpt><trkpt lat="45.0409733" lon="8.269455"><ele>229.0</ele><time>2026-05-01T09:08:40.152Z</time></trkpt><trkpt lat="45.04114" lon="8.2695267"><ele>229.0</ele><time>2026-05-01T09:08:41.15Z</time></trkpt><trkpt lat="45.041305" lon="8.2696"><ele>229.0</ele><time>2026-05-01T09:08:42.151Z</time></trkpt><trkpt lat="45.0414667" lon="8.2696833"><ele>229.0</ele><time>2026-05-01T09:08:43.155Z</time></trkpt><trkpt lat="45.041625" lon="8.26976"><ele>229.66666666666666</ele><time>2026-05-01T09:08:44.151Z</time></trkpt><trkpt lat="45.0417867" lon="8.269835"><ele>230.33333333333331</ele><time>2026-05-01T09:08:45.15Z</time></trkpt><trkpt lat="45.041945" lon="8.2699083"><ele>231.0</ele><time>2026-05-01T09:08:46.154Z</time></trkpt><trkpt lat="45.0421" lon="8.269975"><ele>231.0</ele><time>2026-05-01T09:08:47.151Z</time></trkpt><trkpt lat="45.0422517" lon="8.2700433"><ele>231.0</ele><time>2026-05-01T09:08:48.151Z</time></trkpt><trkpt lat="45.0424067" lon="8.2701067"><ele>231.0</ele><time>2026-05-01T09:08:49.153Z</time></trkpt><trkpt lat="45.0425617" lon="8.2701667"><ele>231.66666666666669</ele><time>2026-05-01T09:08:50.153Z</time></trkpt><trkpt lat="45.04271" lon="8.2702133"><ele>232.33333333333334</ele><time>2026-05-01T09:08:51.153Z</time></trkpt><trkpt lat="45.0428617" lon="8.27025"><ele>233.0</ele><time>2026-05-01T09:08:52.149Z</time></trkpt><trkpt lat="45.0430083" lon="8.2702817"><ele>233.0</ele><time>2026-05-01T09:08:53.154Z</time></trkpt><trkpt lat="45.0431633" lon="8.2702933"><ele>233.0</ele><time>2026-05-01T09:08:54.156Z</time></trkpt><trkpt lat="45.0433117" lon="8.2703017"><ele>233.0</ele><time>2026-05-01T09:08:55.158Z</time></trkpt><trkpt lat="45.0434617" lon="8.2703"><ele>235.66666666666669</ele><time>2026-05-01T09:08:56.151Z</time></trkpt><trkpt lat="45.0436133" lon="8.2702783"><ele>238.33333333333331</ele><time>2026-05-01T09:08:57.154Z</time></trkpt><trkpt lat="45.0437633" lon="8.2702367"><ele>241.0</ele><time>2026-05-01T09:08:58.154Z</time></trkpt><trkpt lat="45.0439117" lon="8.2701833"><ele>241.0</ele><time>2026-05-01T09:08:59.161Z</time></trkpt><trkpt lat="45.0440583" lon="8.270115"><ele>241.0</ele><time>2026-05-01T09:09:00.156Z</time></trkpt><trkpt lat="45.0442033" lon="8.2700383"><ele>241.0</ele><time>2026-05-01T09:09:01.152Z</time></trkpt><trkpt lat="45.0443433" lon="8.2699533"><ele>243.66666666666666</ele><time>2026-05-01T09:09:02.149Z</time></trkpt><trkpt lat="45.04448" lon="8.2698633"><ele>246.33333333333331</ele><time>2026-05-01T09:09:03.15Z</time></trkpt><trkpt lat="45.0446133" lon="8.2697617"><ele>249.0</ele><time>2026-05-01T09:09:04.15Z</time></trkpt><trkpt lat="45.0447417" lon="8.2696517"><ele>249.0</ele><time>2026-05-01T09:09:05.155Z</time></trkpt><trkpt lat="45.0448633" lon="8.2695367"><ele>249.0</ele><time>2026-05-01T09:09:06.152Z</time></trkpt><trkpt lat="45.04498" lon="8.2694117"><ele>249.0</ele><time>2026-05-01T09:09:07.162Z</time></trkpt><trkpt lat="45.0451" lon="8.26929"><ele>249.0</ele><time>2026-05-01T09:09:08.152Z</time></trkpt><trkpt lat="45.04522" lon="8.26917"><ele>250.25</ele><time>2026-05-01T09:09:09.152Z</time></trkpt><trkpt lat="45.0453367" lon="8.269045"><ele>251.5</ele><time>2026-05-01T09:09:10.153Z</time></trkpt><trkpt lat="45.04545" lon="8.2689267"><ele>252.75</ele><time>2026-05-01T09:09:11.152Z</time></trkpt><trkpt lat="45.045555" lon="8.2688133"><ele>254.0</ele><time>2026-05-01T09:09:12.153Z</time></trkpt><trkpt lat="45.0456583" lon="8.2687"><ele>254.0</ele><time>2026-05-01T09:09:13.158Z</time></trkpt><trkpt lat="45.04576" lon="8.2685867"><ele>254.0</ele><time>2026-05-01T09:09:14.15Z</time></trkpt><trkpt lat="45.045865" lon="8.2684783"><ele>254.0</ele><time>2026-05-01T09:09:15.154Z</time></trkpt><trkpt lat="45.0459633" lon="8.26837"><ele>254.0</ele><time>2026-05-01T09:09:16.155Z</time></trkpt><trkpt lat="45.0460667" lon="8.2682667"><ele>255.25</ele><time>2026-05-01T09:09:17.151Z</time></trkpt><trkpt lat="45.0461733" lon="8.26817"><ele>256.5</ele><time>2026-05-01T09:09:18.152Z</time></trkpt><trkpt lat="45.0462733" lon="8.2680733"><ele>257.75</ele><time>2026-05-01T09:09:19.154Z</time></trkpt><trkpt lat="45.0463767" lon="8.2679767"><ele>259.0</ele><time>2026-05-01T09:09:20.152Z</time></trkpt><trkpt lat="45.04647" lon="8.2678533"><ele>259.0</ele><time>2026-05-01T09:09:21.154Z</time></trkpt><trkpt lat="45.046585" lon="8.2677667"><ele>259.0</ele><time>2026-05-01T09:09:22.152Z</time></trkpt><trkpt lat="45.0466883" lon="8.267665"><ele>259.0</ele><time>2026-05-01T09:09:23.157Z</time></trkpt><trkpt lat="45.0467867" lon="8.267565"><ele>259.0</ele><time>2026-05-01T09:09:24.149Z</time></trkpt><trkpt lat="45.0468883" lon="8.267465"><ele>260.25</ele><time>2026-05-01T09:09:25.153Z</time></trkpt><trkpt lat="45.0469917" lon="8.26737"><ele>261.5</ele><time>2026-05-01T09:09:26.154Z</time></trkpt><trkpt lat="45.04709" lon="8.2672783"><ele>262.75</ele><time>2026-05-01T09:09:27.154Z</time></trkpt><trkpt lat="45.04719" lon="8.267195"><ele>264.0</ele><time>2026-05-01T09:09:28.153Z</time></trkpt><trkpt lat="45.0472783" lon="8.2671217"><ele>264.0</ele><time>2026-05-01T09:09:29.151Z</time></trkpt><trkpt lat="45.0473767" lon="8.26709"><ele>264.0</ele><time>2026-05-01T09:09:30.154Z</time></trkpt><trkpt lat="45.047475" lon="8.2671033"><ele>264.0</ele><time>2026-05-01T09:09:31.153Z</time></trkpt><trkpt lat="45.047575" lon="8.267135"><ele>264.0</ele><time>2026-05-01T09:09:32.154Z</time></trkpt><trkpt lat="45.0476733" lon="8.26718"><ele>264.0</ele><time>2026-05-01T09:09:33.151Z</time></trkpt><trkpt lat="45.047775" lon="8.2672317"><ele>269.75</ele><time>2026-05-01T09:09:34.152Z</time></trkpt><trkpt lat="45.04788" lon="8.2672817"><ele>275.5</ele><time>2026-05-01T09:09:35.155Z</time></trkpt><trkpt lat="45.04799" lon="8.2673333"><ele>281.25</ele><time>2026-05-01T09:09:36.153Z</time></trkpt><trkpt lat="45.0480983" lon="8.2673867"><ele>287.0</ele><time>2026-05-01T09:09:37.154Z</time></trkpt><trkpt lat="45.0482183" lon="8.26744"><ele>295.5</ele><time>2026-05-01T09:09:38.15Z</time></trkpt><trkpt lat="45.0483333" lon="8.2674917"><ele>304.0</ele><time>2026-05-01T09:09:39.161Z</time></trkpt><trkpt lat="45.0491083" lon="8.2678367"><ele>298.66666666666663</ele><time>2026-05-01T09:09:45.161Z</time></trkpt><trkpt lat="45.04926" lon="8.2680317"><ele>293.3333333333333</ele><time>2026-05-01T09:09:46.153Z</time></trkpt><trkpt lat="45.0493967" lon="8.2680767"><ele>288.0</ele><time>2026-05-01T09:09:47.153Z</time></trkpt><trkpt lat="45.0495667" lon="8.268055"><ele>288.0</ele><time>2026-05-01T09:09:48.156Z</time></trkpt><trkpt lat="45.0497283" lon="8.2680333"><ele>288.0</ele><time>2026-05-01T09:09:49.155Z</time></trkpt><trkpt lat="45.0498767" lon="8.268015"><ele>288.0</ele><time>2026-05-01T09:09:50.151Z</time></trkpt><trkpt lat="45.0500233" lon="8.268005"><ele>286.0</ele><time>2026-05-01T09:09:51.155Z</time></trkpt><trkpt lat="45.0501683" lon="8.26802"><ele>284.0</ele><time>2026-05-01T09:09:52.149Z</time></trkpt><trkpt lat="45.0503117" lon="8.26805"><ele>282.0</ele><time>2026-05-01T09:09:53.153Z</time></trkpt><trkpt lat="45.0504467" lon="8.26811"><ele>280.0</ele><time>2026-05-01T09:09:54.152Z</time></trkpt><trkpt lat="45.0505767" lon="8.268205"><ele>276.0</ele><time>2026-05-01T09:09:55.153Z</time></trkpt><trkpt lat="45.0507017" lon="8.2683267"><ele>272.0</ele><time>2026-05-01T09:09:56.152Z</time></trkpt><trkpt lat="45.0508267" lon="8.268465"><ele>268.0</ele><time>2026-05-01T09:09:57.151Z</time></trkpt><trkpt lat="45.05095" lon="8.2686183"><ele>268.0</ele><time>2026-05-01T09:09:58.153Z</time></trkpt><trkpt lat="45.05107" lon="8.2687867"><ele>268.0</ele><time>2026-05-01T09:09:59.158Z</time></trkpt><trkpt lat="45.0511817" lon="8.2689517"><ele>268.0</ele><time>2026-05-01T09:10:00.154Z</time></trkpt><trkpt lat="45.0512833" lon="8.2691233"><ele>264.0</ele><time>2026-05-01T09:10:01.157Z</time></trkpt><trkpt lat="45.0513683" lon="8.2693067"><ele>260.0</ele><time>2026-05-01T09:10:02.153Z</time></trkpt><trkpt lat="45.05144" lon="8.2695017"><ele>256.0</ele><time>2026-05-01T09:10:03.157Z</time></trkpt><trkpt lat="45.0515033" lon="8.269705"><ele>255.33333333333331</ele><time>2026-05-01T09:10:04.156Z</time></trkpt><trkpt lat="45.05157" lon="8.26991"><ele>254.66666666666669</ele><time>2026-05-01T09:10:05.157Z</time></trkpt><trkpt lat="45.0516383" lon="8.2701267"><ele>254.0</ele><time>2026-05-01T09:10:06.155Z</time></trkpt><trkpt lat="45.0517083" lon="8.2703467"><ele>254.0</ele><time>2026-05-01T09:10:07.155Z</time></trkpt><trkpt lat="45.05178" lon="8.2705667"><ele>254.0</ele><time>2026-05-01T09:10:08.156Z</time></trkpt><trkpt lat="45.0518533" lon="8.2707933"><ele>254.0</ele><time>2026-05-01T09:10:09.151Z</time></trkpt><trkpt lat="45.0519283" lon="8.2710183"><ele>252.0</ele><time>2026-05-01T09:10:10.152Z</time></trkpt><trkpt lat="45.0520067" lon="8.27124"><ele>250.0</ele><time>2026-05-01T09:10:11.154Z</time></trkpt><trkpt lat="45.052085" lon="8.2714633"><ele>248.0</ele><time>2026-05-01T09:10:12.151Z</time></trkpt><trkpt lat="45.0521617" lon="8.2716917"><ele>246.66666666666669</ele><time>2026-05-01T09:10:13.154Z</time></trkpt><trkpt lat="45.0522367" lon="8.2719217"><ele>245.33333333333331</ele><time>2026-05-01T09:10:14.151Z</time></trkpt><trkpt lat="45.0523117" lon="8.2721517"><ele>244.0</ele><time>2026-05-01T09:10:15.151Z</time></trkpt><trkpt lat="45.0523917" lon="8.2723783"><ele>241.33333333333331</ele><time>2026-05-01T09:10:16.152Z</time></trkpt><trkpt lat="45.0524717" lon="8.2726067"><ele>238.66666666666669</ele><time>2026-05-01T09:10:17.152Z</time></trkpt><trkpt lat="45.052545" lon="8.2728367"><ele>236.0</ele><time>2026-05-01T09:10:18.154Z</time></trkpt><trkpt lat="45.0526217" lon="8.2730667"><ele>235.0</ele><time>2026-05-01T09:10:19.151Z</time></trkpt><trkpt lat="45.0527017" lon="8.2732983"><ele>234.0</ele><time>2026-05-01T09:10:20.152Z</time></trkpt><trkpt lat="45.052785" lon="8.27354"><ele>233.0</ele><time>2026-05-01T09:10:21.153Z</time></trkpt><trkpt lat="45.0528667" lon="8.273785"><ele>232.66666666666669</ele><time>2026-05-01T09:10:22.15Z</time></trkpt><trkpt lat="45.05295" lon="8.2740283"><ele>232.33333333333331</ele><time>2026-05-01T09:10:23.153Z</time></trkpt><trkpt lat="45.0530333" lon="8.2742783"><ele>232.0</ele><time>2026-05-01T09:10:24.155Z</time></trkpt><trkpt lat="45.0531133" lon="8.27453"><ele>233.66666666666666</ele><time>2026-05-01T09:10:25.151Z</time></trkpt><trkpt lat="45.053195" lon="8.2747783"><ele>235.33333333333331</ele><time>2026-05-01T09:10:26.155Z</time></trkpt><trkpt lat="45.0532783" lon="8.275025"><ele>237.0</ele><time>2026-05-01T09:10:27.153Z</time></trkpt><trkpt lat="45.0533583" lon="8.2752683"><ele>233.66666666666669</ele><time>2026-05-01T09:10:28.154Z</time></trkpt><trkpt lat="45.0534367" lon="8.2755083"><ele>230.33333333333334</ele><time>2026-05-01T09:10:29.152Z</time></trkpt><trkpt lat="45.0535133" lon="8.275745"><ele>227.0</ele><time>2026-05-01T09:10:30.157Z</time></trkpt><trkpt lat="45.0535867" lon="8.2759783"><ele>227.0</ele><time>2026-05-01T09:10:31.155Z</time></trkpt><trkpt lat="45.0536633" lon="8.2762067"><ele>227.0</ele><time>2026-05-01T09:10:32.15Z</time></trkpt><trkpt lat="45.05374" lon="8.276435"><ele>227.0</ele><time>2026-05-01T09:10:33.154Z</time></trkpt><trkpt lat="45.053815" lon="8.276665"><ele>228.0</ele><time>2026-05-01T09:10:34.15Z</time></trkpt><trkpt lat="45.0538917" lon="8.2768933"><ele>229.0</ele><time>2026-05-01T09:10:35.152Z</time></trkpt><trkpt lat="45.0539667" lon="8.277115"><ele>230.0</ele><time>2026-05-01T09:10:36.153Z</time></trkpt><trkpt lat="45.0540417" lon="8.2773233"><ele>227.5</ele><time>2026-05-01T09:10:37.153Z</time></trkpt><trkpt lat="45.05411" lon="8.2775167"><ele>225.0</ele><time>2026-05-01T09:10:38.151Z</time></trkpt><trkpt lat="45.0541817" lon="8.2776917"><ele>222.5</ele><time>2026-05-01T09:10:39.151Z</time></trkpt><trkpt lat="45.0542583" lon="8.2778367"><ele>220.0</ele><time>2026-05-01T09:10:40.152Z</time></trkpt><trkpt lat="45.0543483" lon="8.277935"><ele>218.25</ele><time>2026-05-01T09:10:41.151Z</time></trkpt><trkpt lat="45.0544567" lon="8.2779817"><ele>216.5</ele><time>2026-05-01T09:10:42.15Z</time></trkpt><trkpt lat="45.054575" lon="8.2779717"><ele>214.75</ele><time>2026-05-01T09:10:43.151Z</time></trkpt><trkpt lat="45.0546967" lon="8.27792"><ele>213.0</ele><time>2026-05-01T09:10:44.153Z</time></trkpt><trkpt lat="45.0548217" lon="8.2778267"><ele>213.0</ele><time>2026-05-01T09:10:45.153Z</time></trkpt><trkpt lat="45.0549483" lon="8.2777217"><ele>213.0</ele><time>2026-05-01T09:10:46.149Z</time></trkpt><trkpt lat="45.0550783" lon="8.2776083"><ele>213.0</ele><time>2026-05-01T09:10:47.15Z</time></trkpt><trkpt lat="45.0552133" lon="8.2774933"><ele>209.33333333333331</ele><time>2026-05-01T09:10:48.152Z</time></trkpt><trkpt lat="45.0553517" lon="8.277375"><ele>205.66666666666666</ele><time>2026-05-01T09:10:49.152Z</time></trkpt><trkpt lat="45.0554917" lon="8.2772567"><ele>202.0</ele><time>2026-05-01T09:10:50.153Z</time></trkpt><trkpt lat="45.055635" lon="8.2771333"><ele>202.0</ele><time>2026-05-01T09:10:51.15Z</time></trkpt><trkpt lat="45.05578" lon="8.2770133"><ele>202.0</ele><time>2026-05-01T09:10:52.152Z</time></trkpt><trkpt lat="45.0559233" lon="8.2768933"><ele>202.0</ele><time>2026-05-01T09:10:53.155Z</time></trkpt><trkpt lat="45.056065" lon="8.27677"><ele>198.66666666666666</ele><time>2026-05-01T09:10:54.151Z</time></trkpt><trkpt lat="45.056205" lon="8.2766567"><ele>195.33333333333331</ele><time>2026-05-01T09:10:55.155Z</time></trkpt><trkpt lat="45.056345" lon="8.276555"><ele>192.0</ele><time>2026-05-01T09:10:56.155Z</time></trkpt><trkpt lat="45.0564783" lon="8.2764767"><ele>191.25</ele><time>2026-05-01T09:10:57.151Z</time></trkpt><trkpt lat="45.0566083" lon="8.27641"><ele>190.5</ele><time>2026-05-01T09:10:58.156Z</time></trkpt><trkpt lat="45.05674" lon="8.2763617"><ele>189.75</ele><time>2026-05-01T09:10:59.152Z</time></trkpt><trkpt lat="45.0568667" lon="8.276335"><ele>189.0</ele><time>2026-05-01T09:11:00.153Z</time></trkpt><trkpt lat="45.0569733" lon="8.27633"><ele>188.2</ele><time>2026-05-01T09:11:01.157Z</time></trkpt><trkpt lat="45.0570633" lon="8.2763417"><ele>187.39999999999998</ele><time>2026-05-01T09:11:02.154Z</time></trkpt><trkpt lat="45.0571467" lon="8.2763583"><ele>186.6</ele><time>2026-05-01T09:11:03.155Z</time></trkpt><trkpt lat="45.0572183" lon="8.2763783"><ele>185.8</ele><time>2026-05-01T09:11:04.154Z</time></trkpt><trkpt lat="45.057335" lon="8.2764333"><ele>185.0</ele><time>2026-05-01T09:11:06.154Z</time></trkpt><trkpt lat="45.05743" lon="8.2764967"><ele>184.0</ele><time>2026-05-01T09:11:08.15Z</time></trkpt><trkpt lat="45.0575033" lon="8.2765483"><ele>183.0</ele><time>2026-05-01T09:11:10.151Z</time></trkpt><trkpt lat="45.05758" lon="8.2766217"><ele>182.0</ele><time>2026-05-01T09:11:45.152Z</time></trkpt><trkpt lat="45.0576617" lon="8.2766617"><ele>181.0</ele><time>2026-05-01T09:11:47.157Z</time></trkpt><trkpt lat="45.05777" lon="8.2767233"><ele>180.0</ele><time>2026-05-01T09:11:49.154Z</time></trkpt><trkpt lat="45.0578767" lon="8.2767833"><ele>180.0</ele><time>2026-05-01T09:11:51.151Z</time></trkpt><trkpt lat="45.05799" lon="8.2768517"><ele>180.0</ele><time>2026-05-01T09:11:53.153Z</time></trkpt><trkpt lat="45.0580567" lon="8.276895"><ele>180.0</ele><time>2026-05-01T09:11:54.153Z</time></trkpt><trkpt lat="45.0581333" lon="8.27694"><ele>180.0</ele><time>2026-05-01T09:11:55.155Z</time></trkpt><trkpt lat="45.05822" lon="8.2769933"><ele>180.0</ele><time>2026-05-01T09:11:56.15Z</time></trkpt><trkpt lat="45.0583183" lon="8.2770533"><ele>180.0</ele><time>2026-05-01T09:11:57.156Z</time></trkpt><trkpt lat="45.0584233" lon="8.2771133"><ele>180.0</ele><time>2026-05-01T09:11:58.158Z</time></trkpt><trkpt lat="45.0585317" lon="8.2771783"><ele>180.0</ele><time>2026-05-01T09:11:59.155Z</time></trkpt><trkpt lat="45.0586467" lon="8.2772483"><ele>180.0</ele><time>2026-05-01T09:12:00.153Z</time></trkpt><trkpt lat="45.0587667" lon="8.2773267"><ele>179.5</ele><time>2026-05-01T09:12:01.154Z</time></trkpt><trkpt lat="45.0588917" lon="8.2774033"><ele>179.0</ele><time>2026-05-01T09:12:02.152Z</time></trkpt><trkpt lat="45.0590183" lon="8.27748"><ele>178.5</ele><time>2026-05-01T09:12:03.16Z</time></trkpt><trkpt lat="45.059145" lon="8.27756"><ele>178.0</ele><time>2026-05-01T09:12:04.151Z</time></trkpt><trkpt lat="45.059275" lon="8.2776433"><ele>178.0</ele><time>2026-05-01T09:12:05.155Z</time></trkpt><trkpt lat="45.059405" lon="8.277725"><ele>178.0</ele><time>2026-05-01T09:12:06.151Z</time></trkpt><trkpt lat="45.059535" lon="8.2778067"><ele>178.0</ele><time>2026-05-01T09:12:07.154Z</time></trkpt><trkpt lat="45.0596617" lon="8.277885"><ele>178.0</ele><time>2026-05-01T09:12:08.151Z</time></trkpt><trkpt lat="45.0597833" lon="8.2779633"><ele>178.0</ele><time>2026-05-01T09:12:09.151Z</time></trkpt><trkpt lat="45.0599067" lon="8.2780367"><ele>178.0</ele><time>2026-05-01T09:12:10.157Z</time></trkpt><trkpt lat="45.0600267" lon="8.2781117"><ele>178.0</ele><time>2026-05-01T09:12:11.153Z</time></trkpt><trkpt lat="45.06015" lon="8.278185"><ele>178.0</ele><time>2026-05-01T09:12:12.152Z</time></trkpt><trkpt lat="45.060275" lon="8.2782567"><ele>177.75</ele><time>2026-05-01T09:12:13.155Z</time></trkpt><trkpt lat="45.0604" lon="8.27833"><ele>177.5</ele><time>2026-05-01T09:12:14.153Z</time></trkpt><trkpt lat="45.0605283" lon="8.2784033"><ele>177.25</ele><time>2026-05-01T09:12:15.157Z</time></trkpt><trkpt lat="45.0606567" lon="8.2784817"><ele>177.0</ele><time>2026-05-01T09:12:16.151Z</time></trkpt><trkpt lat="45.06079" lon="8.27856"><ele>177.0</ele><time>2026-05-01T09:12:17.151Z</time></trkpt><trkpt lat="45.060925" lon="8.2786417"><ele>177.0</ele><time>2026-05-01T09:12:18.157Z</time></trkpt><trkpt lat="45.0610633" lon="8.2787267"><ele>177.0</ele><time>2026-05-01T09:12:19.155Z</time></trkpt><trkpt lat="45.0612017" lon="8.2788083"><ele>177.0</ele><time>2026-05-01T09:12:20.153Z</time></trkpt><trkpt lat="45.0613433" lon="8.2788917"><ele>176.66666666666666</ele><time>2026-05-01T09:12:21.161Z</time></trkpt><trkpt lat="45.0614833" lon="8.278975"><ele>176.33333333333331</ele><time>2026-05-01T09:12:22.157Z</time></trkpt><trkpt lat="45.0616217" lon="8.2790617"><ele>176.0</ele><time>2026-05-01T09:12:23.163Z</time></trkpt><trkpt lat="45.0617617" lon="8.2791483"><ele>176.0</ele><time>2026-05-01T09:12:24.155Z</time></trkpt><trkpt lat="45.0619033" lon="8.2792333"><ele>176.0</ele><time>2026-05-01T09:12:25.155Z</time></trkpt><trkpt lat="45.0620483" lon="8.279325"><ele>176.0</ele><time>2026-05-01T09:12:26.151Z</time></trkpt><trkpt lat="45.0621917" lon="8.2794117"><ele>176.0</ele><time>2026-05-01T09:12:27.157Z</time></trkpt><trkpt lat="45.0623367" lon="8.2795"><ele>176.0</ele><time>2026-05-01T09:12:28.155Z</time></trkpt><trkpt lat="45.0624817" lon="8.2795883"><ele>176.0</ele><time>2026-05-01T09:12:29.156Z</time></trkpt><trkpt lat="45.0626267" lon="8.2796717"><ele>175.33333333333331</ele><time>2026-05-01T09:12:30.159Z</time></trkpt><trkpt lat="45.06277" lon="8.2797583"><ele>174.66666666666666</ele><time>2026-05-01T09:12:31.168Z</time></trkpt><trkpt lat="45.0629117" lon="8.27984"><ele>174.0</ele><time>2026-05-01T09:12:32.155Z</time></trkpt><trkpt lat="45.0630533" lon="8.2799167"><ele>174.0</ele><time>2026-05-01T09:12:33.152Z</time></trkpt><trkpt lat="45.0631883" lon="8.27999"><ele>174.0</ele><time>2026-05-01T09:12:34.154Z</time></trkpt><trkpt lat="45.063315" lon="8.280065"><ele>174.0</ele><time>2026-05-01T09:12:35.153Z</time></trkpt><trkpt lat="45.0634283" lon="8.2801383"><ele>174.0</ele><time>2026-05-01T09:12:36.156Z</time></trkpt><trkpt lat="45.0635367" lon="8.2802083"><ele>174.0</ele><time>2026-05-01T09:12:37.15Z</time></trkpt><trkpt lat="45.06365" lon="8.280285"><ele>174.0</ele><time>2026-05-01T09:12:38.155Z</time></trkpt><trkpt lat="45.0637733" lon="8.2803717"><ele>174.0</ele><time>2026-05-01T09:12:39.155Z</time></trkpt><trkpt lat="45.0639067" lon="8.2804667"><ele>174.0</ele><time>2026-05-01T09:12:40.157Z</time></trkpt><trkpt lat="45.0640483" lon="8.2805717"><ele>173.66666666666666</ele><time>2026-05-01T09:12:41.154Z</time></trkpt><trkpt lat="45.0641933" lon="8.2806867"><ele>173.33333333333331</ele><time>2026-05-01T09:12:42.151Z</time></trkpt><trkpt lat="45.0643417" lon="8.2808133"><ele>173.0</ele><time>2026-05-01T09:12:43.153Z</time></trkpt><trkpt lat="45.064495" lon="8.2809483"><ele>173.0</ele><time>2026-05-01T09:12:44.155Z</time></trkpt><trkpt lat="45.0646417" lon="8.2810967"><ele>173.0</ele><time>2026-05-01T09:12:45.153Z</time></trkpt><trkpt lat="45.064785" lon="8.2812583"><ele>173.0</ele><time>2026-05-01T09:12:46.153Z</time></trkpt><trkpt lat="45.0649267" lon="8.2814367"><ele>173.0</ele><time>2026-05-01T09:12:47.157Z</time></trkpt><trkpt lat="45.0650633" lon="8.2816267"><ele>173.0</ele><time>2026-05-01T09:12:48.162Z</time></trkpt><trkpt lat="45.0651917" lon="8.2818167"><ele>173.0</ele><time>2026-05-01T09:12:49.154Z</time></trkpt><trkpt lat="45.065315" lon="8.2820183"><ele>173.0</ele><time>2026-05-01T09:12:50.154Z</time></trkpt><trkpt lat="45.0654317" lon="8.2822283"><ele>173.0</ele><time>2026-05-01T09:12:51.149Z</time></trkpt><trkpt lat="45.0655417" lon="8.2824433"><ele>173.0</ele><time>2026-05-01T09:12:52.15Z</time></trkpt><trkpt lat="45.0656433" lon="8.2826683"><ele>173.33333333333331</ele><time>2026-05-01T09:12:53.155Z</time></trkpt><trkpt lat="45.065745" lon="8.2828983"><ele>173.66666666666666</ele><time>2026-05-01T09:12:54.15Z</time></trkpt><trkpt lat="45.0658467" lon="8.28313"><ele>174.0</ele><time>2026-05-01T09:12:55.155Z</time></trkpt><trkpt lat="45.0659433" lon="8.2833633"><ele>174.33333333333334</ele><time>2026-05-01T09:12:56.162Z</time></trkpt><trkpt lat="45.0660383" lon="8.2835983"><ele>174.66666666666669</ele><time>2026-05-01T09:12:57.152Z</time></trkpt><trkpt lat="45.0661333" lon="8.2838367"><ele>175.0</ele><time>2026-05-01T09:12:58.155Z</time></trkpt><trkpt lat="45.0662283" lon="8.284075"><ele>175.0</ele><time>2026-05-01T09:12:59.152Z</time></trkpt><trkpt lat="45.0663233" lon="8.2843133"><ele>175.0</ele><time>2026-05-01T09:13:00.154Z</time></trkpt><trkpt lat="45.0664183" lon="8.284555"><ele>175.0</ele><time>2026-05-01T09:13:01.154Z</time></trkpt><trkpt lat="45.0665117" lon="8.2847917"><ele>174.33333333333334</ele><time>2026-05-01T09:13:02.155Z</time></trkpt><trkpt lat="45.066605" lon="8.2850283"><ele>173.66666666666666</ele><time>2026-05-01T09:13:03.15Z</time></trkpt><trkpt lat="45.0667" lon="8.2852583"><ele>173.0</ele><time>2026-05-01T09:13:04.15Z</time></trkpt><trkpt lat="45.066795" lon="8.2854867"><ele>177.33333333333331</ele><time>2026-05-01T09:13:05.154Z</time></trkpt><trkpt lat="45.06689" lon="8.2857183"><ele>181.66666666666666</ele><time>2026-05-01T09:13:06.153Z</time></trkpt><trkpt lat="45.066985" lon="8.2859533"><ele>186.0</ele><time>2026-05-01T09:13:07.157Z</time></trkpt><trkpt lat="45.0670833" lon="8.28619"><ele>190.66666666666669</ele><time>2026-05-01T09:13:08.153Z</time></trkpt><trkpt lat="45.06718" lon="8.28643"><ele>195.33333333333334</ele><time>2026-05-01T09:13:09.157Z</time></trkpt><trkpt lat="45.0672783" lon="8.28667"><ele>200.0</ele><time>2026-05-01T09:13:10.151Z</time></trkpt><trkpt lat="45.067375" lon="8.2869083"><ele>194.66666666666669</ele><time>2026-05-01T09:13:11.155Z</time></trkpt><trkpt lat="45.0674683" lon="8.2871467"><ele>189.33333333333334</ele><time>2026-05-01T09:13:12.158Z</time></trkpt><trkpt lat="45.067565" lon="8.28738"><ele>184.0</ele><time>2026-05-01T09:13:13.151Z</time></trkpt><trkpt lat="45.0676633" lon="8.2876083"><ele>184.0</ele><time>2026-05-01T09:13:14.157Z</time></trkpt><trkpt lat="45.06776" lon="8.287835"><ele>184.0</ele><time>2026-05-01T09:13:15.151Z</time></trkpt><trkpt lat="45.0678583" lon="8.2880617"><ele>184.0</ele><time>2026-05-01T09:13:16.151Z</time></trkpt><trkpt lat="45.0679517" lon="8.28828"><ele>185.33333333333334</ele><time>2026-05-01T09:13:17.156Z</time></trkpt><trkpt lat="45.0680383" lon="8.288495"><ele>186.66666666666666</ele><time>2026-05-01T09:13:18.154Z</time></trkpt><trkpt lat="45.06812" lon="8.2887067"><ele>188.0</ele><time>2026-05-01T09:13:19.154Z</time></trkpt><trkpt lat="45.0682033" lon="8.2889167"><ele>184.66666666666666</ele><time>2026-05-01T09:13:20.153Z</time></trkpt><trkpt lat="45.0682883" lon="8.2891233"><ele>181.33333333333334</ele><time>2026-05-01T09:13:21.156Z</time></trkpt><trkpt lat="45.0683733" lon="8.2893333"><ele>178.0</ele><time>2026-05-01T09:13:22.153Z</time></trkpt><trkpt lat="45.06846" lon="8.28954"><ele>178.0</ele><time>2026-05-01T09:13:23.152Z</time></trkpt><trkpt lat="45.0685467" lon="8.289755"><ele>178.0</ele><time>2026-05-01T09:13:24.155Z</time></trkpt><trkpt lat="45.068635" lon="8.28997"><ele>178.0</ele><time>2026-05-01T09:13:25.157Z</time></trkpt><trkpt lat="45.0687233" lon="8.29019"><ele>178.33333333333334</ele><time>2026-05-01T09:13:26.151Z</time></trkpt><trkpt lat="45.0688133" lon="8.29041"><ele>178.66666666666666</ele><time>2026-05-01T09:13:27.15Z</time></trkpt><trkpt lat="45.068905" lon="8.2906317"><ele>179.0</ele><time>2026-05-01T09:13:28.151Z</time></trkpt><trkpt lat="45.0689967" lon="8.2908533"><ele>179.0</ele><time>2026-05-01T09:13:29.154Z</time></trkpt><trkpt lat="45.0690883" lon="8.2910767"><ele>179.0</ele><time>2026-05-01T09:13:30.151Z</time></trkpt><trkpt lat="45.0691783" lon="8.2912983"><ele>179.0</ele><time>2026-05-01T09:13:31.156Z</time></trkpt><trkpt lat="45.069265" lon="8.29152"><ele>176.33333333333331</ele><time>2026-05-01T09:13:32.157Z</time></trkpt><trkpt lat="45.0693533" lon="8.29174"><ele>173.66666666666666</ele><time>2026-05-01T09:13:33.155Z</time></trkpt><trkpt lat="45.0694417" lon="8.29196"><ele>171.0</ele><time>2026-05-01T09:13:34.152Z</time></trkpt><trkpt lat="45.0695283" lon="8.2921733"><ele>172.0</ele><time>2026-05-01T09:13:35.155Z</time></trkpt><trkpt lat="45.0696133" lon="8.2923817"><ele>173.0</ele><time>2026-05-01T09:13:36.151Z</time></trkpt><trkpt lat="45.0696933" lon="8.2925783"><ele>174.0</ele><time>2026-05-01T09:13:37.152Z</time></trkpt><trkpt lat="45.0697667" lon="8.2927483"><ele>174.0</ele><time>2026-05-01T09:13:38.154Z</time></trkpt><trkpt lat="45.0698283" lon="8.2928933"><ele>174.0</ele><time>2026-05-01T09:13:39.153Z</time></trkpt><trkpt lat="45.0698783" lon="8.293015"><ele>174.0</ele><time>2026-05-01T09:13:40.156Z</time></trkpt><trkpt lat="45.06992" lon="8.29311"><ele>174.0</ele><time>2026-05-01T09:13:41.156Z</time></trkpt><trkpt lat="45.0699567" lon="8.2931833"><ele>174.0</ele><time>2026-05-01T09:13:42.154Z</time></trkpt><trkpt lat="45.0700517" lon="8.2931883"><ele>173.0</ele><time>2026-05-01T09:13:44.152Z</time></trkpt><trkpt lat="45.0701717" lon="8.2931"><ele>172.0</ele><time>2026-05-01T09:13:46.152Z</time></trkpt><trkpt lat="45.0702633" lon="8.2930183"><ele>171.0</ele><time>2026-05-01T09:13:47.15Z</time></trkpt><trkpt lat="45.070385" lon="8.29291"><ele>170.0</ele><time>2026-05-01T09:13:48.154Z</time></trkpt><trkpt lat="45.070505" lon="8.2928083"><ele>170.0</ele><time>2026-05-01T09:13:49.153Z</time></trkpt><trkpt lat="45.07063" lon="8.2927067"><ele>170.0</ele><time>2026-05-01T09:13:50.156Z</time></trkpt><trkpt lat="45.07076" lon="8.2926067"><ele>170.0</ele><time>2026-05-01T09:13:51.159Z</time></trkpt><trkpt lat="45.070895" lon="8.292495"><ele>170.0</ele><time>2026-05-01T09:13:52.154Z</time></trkpt><trkpt lat="45.0710233" lon="8.29239"><ele>168.66666666666666</ele><time>2026-05-01T09:13:53.151Z</time></trkpt><trkpt lat="45.0711533" lon="8.2922833"><ele>167.33333333333334</ele><time>2026-05-01T09:13:54.152Z</time></trkpt><trkpt lat="45.071285" lon="8.292175"><ele>166.0</ele><time>2026-05-01T09:13:55.152Z</time></trkpt><trkpt lat="45.0714133" lon="8.2920717"><ele>166.0</ele><time>2026-05-01T09:13:56.151Z</time></trkpt><trkpt lat="45.0715383" lon="8.2919683"><ele>166.0</ele><time>2026-05-01T09:13:57.152Z</time></trkpt><trkpt lat="45.07166" lon="8.291865"><ele>166.0</ele><time>2026-05-01T09:13:58.152Z</time></trkpt><trkpt lat="45.0717833" lon="8.2917617"><ele>166.0</ele><time>2026-05-01T09:13:59.152Z</time></trkpt><trkpt lat="45.0719083" lon="8.2916617"><ele>166.25</ele><time>2026-05-01T09:14:00.152Z</time></trkpt><trkpt lat="45.072035" lon="8.2915583"><ele>166.5</ele><time>2026-05-01T09:14:01.154Z</time></trkpt><trkpt lat="45.0721567" lon="8.2914483"><ele>166.75</ele><time>2026-05-01T09:14:02.152Z</time></trkpt><trkpt lat="45.0722817" lon="8.2913383"><ele>167.0</ele><time>2026-05-01T09:14:03.152Z</time></trkpt><trkpt lat="45.07241" lon="8.2912433"><ele>168.5</ele><time>2026-05-01T09:14:04.152Z</time></trkpt><trkpt lat="45.0725383" lon="8.2911483"><ele>170.0</ele><time>2026-05-01T09:14:05.154Z</time></trkpt><trkpt lat="45.0726567" lon="8.2910517"><ele>171.5</ele><time>2026-05-01T09:14:06.153Z</time></trkpt><trkpt lat="45.072765" lon="8.290955"><ele>173.0</ele><time>2026-05-01T09:14:07.158Z</time></trkpt><trkpt lat="45.0728533" lon="8.2908417"><ele>173.0</ele><time>2026-05-01T09:14:08.152Z</time></trkpt><trkpt lat="45.0729233" lon="8.29071"><ele>173.0</ele><time>2026-05-01T09:14:09.153Z</time></trkpt><trkpt lat="45.0729633" lon="8.290565"><ele>173.0</ele><time>2026-05-01T09:14:10.151Z</time></trkpt><trkpt lat="45.0729783" lon="8.2904017"><ele>173.0</ele><time>2026-05-01T09:14:11.156Z</time></trkpt><trkpt lat="45.0729817" lon="8.290235"><ele>173.2</ele><time>2026-05-01T09:14:12.157Z</time></trkpt><trkpt lat="45.0729767" lon="8.2900683"><ele>173.4</ele><time>2026-05-01T09:14:13.156Z</time></trkpt><trkpt lat="45.07297" lon="8.28991"><ele>173.6</ele><time>2026-05-01T09:14:14.158Z</time></trkpt><trkpt lat="45.0729767" lon="8.2897567"><ele>173.79999999999998</ele><time>2026-05-01T09:14:15.155Z</time></trkpt><trkpt lat="45.0730117" lon="8.2896183"><ele>174.0</ele><time>2026-05-01T09:14:16.159Z</time></trkpt><trkpt lat="45.07306" lon="8.289485"><ele>174.75</ele><time>2026-05-01T09:14:17.156Z</time></trkpt><trkpt lat="45.0731283" lon="8.28937"><ele>175.5</ele><time>2026-05-01T09:14:18.154Z</time></trkpt><trkpt lat="45.0732083" lon="8.2892567"><ele>176.25</ele><time>2026-05-01T09:14:19.154Z</time></trkpt><trkpt lat="45.073295" lon="8.289135"><ele>177.0</ele><time>2026-05-01T09:14:20.154Z</time></trkpt><trkpt lat="45.073385" lon="8.2890083"><ele>178.5</ele><time>2026-05-01T09:14:21.157Z</time></trkpt><trkpt lat="45.0734767" lon="8.288885"><ele>180.0</ele><time>2026-05-01T09:14:22.154Z</time></trkpt><trkpt lat="45.0735683" lon="8.2887583"><ele>181.5</ele><time>2026-05-01T09:14:23.156Z</time></trkpt><trkpt lat="45.07366" lon="8.2886333"><ele>183.0</ele><time>2026-05-01T09:14:24.159Z</time></trkpt><trkpt lat="45.07375" lon="8.288515"><ele>183.0</ele><time>2026-05-01T09:14:25.152Z</time></trkpt><trkpt lat="45.07385" lon="8.2884133"><ele>183.0</ele><time>2026-05-01T09:14:26.154Z</time></trkpt><trkpt lat="45.0739617" lon="8.2883417"><ele>183.0</ele><time>2026-05-01T09:14:27.153Z</time></trkpt><trkpt lat="45.0740733" lon="8.2882767"><ele>183.0</ele><time>2026-05-01T09:14:28.151Z</time></trkpt><trkpt lat="45.07419" lon="8.28823"><ele>187.25</ele><time>2026-05-01T09:14:29.153Z</time></trkpt><trkpt lat="45.0743217" lon="8.2882067"><ele>191.5</ele><time>2026-05-01T09:14:30.153Z</time></trkpt><trkpt lat="45.0744583" lon="8.2881867"><ele>195.75</ele><time>2026-05-01T09:14:31.155Z</time></trkpt><trkpt lat="45.0745933" lon="8.2881733"><ele>200.0</ele><time>2026-05-01T09:14:32.15Z</time></trkpt><trkpt lat="45.0747333" lon="8.2881583"><ele>200.0</ele><time>2026-05-01T09:14:33.153Z</time></trkpt><trkpt lat="45.07487" lon="8.2881267"><ele>200.0</ele><time>2026-05-01T09:14:34.154Z</time></trkpt><trkpt lat="45.075005" lon="8.2880733"><ele>200.0</ele><time>2026-05-01T09:14:35.151Z</time></trkpt><trkpt lat="45.0751367" lon="8.2879967"><ele>200.0</ele><time>2026-05-01T09:14:36.151Z</time></trkpt><trkpt lat="45.0752717" lon="8.28792"><ele>198.25</ele><time>2026-05-01T09:14:37.156Z</time></trkpt><trkpt lat="45.075405" lon="8.2878467"><ele>196.5</ele><time>2026-05-01T09:14:38.156Z</time></trkpt><trkpt lat="45.0755383" lon="8.2877783"><ele>194.75</ele><time>2026-05-01T09:14:39.152Z</time></trkpt><trkpt lat="45.0756683" lon="8.2876983"><ele>193.0</ele><time>2026-05-01T09:14:40.154Z</time></trkpt><trkpt lat="45.0757967" lon="8.2876133"><ele>196.75</ele><time>2026-05-01T09:14:41.156Z</time></trkpt><trkpt lat="45.075925" lon="8.2875283"><ele>200.5</ele><time>2026-05-01T09:14:42.15Z</time></trkpt><trkpt lat="45.0760533" lon="8.287445"><ele>204.25</ele><time>2026-05-01T09:14:43.156Z</time></trkpt><trkpt lat="45.0761783" lon="8.2873667"><ele>208.0</ele><time>2026-05-01T09:14:44.154Z</time></trkpt><trkpt lat="45.0762983" lon="8.2872817"><ele>207.25</ele><time>2026-05-01T09:14:45.152Z</time></trkpt><trkpt lat="45.076415" lon="8.2872083"><ele>206.5</ele><time>2026-05-01T09:14:46.154Z</time></trkpt><trkpt lat="45.0765233" lon="8.28714"><ele>205.75</ele><time>2026-05-01T09:14:47.156Z</time></trkpt><trkpt lat="45.076635" lon="8.2871017"><ele>205.0</ele><time>2026-05-01T09:14:48.152Z</time></trkpt><trkpt lat="45.0767483" lon="8.2870967"><ele>205.0</ele><time>2026-05-01T09:14:49.152Z</time></trkpt><trkpt lat="45.0768467" lon="8.28711"><ele>205.0</ele><time>2026-05-01T09:14:50.155Z</time></trkpt><trkpt lat="45.076935" lon="8.2871767"><ele>205.0</ele><time>2026-05-01T09:14:51.153Z</time></trkpt><trkpt lat="45.0770067" lon="8.2872817"><ele>205.0</ele><time>2026-05-01T09:14:52.153Z</time></trkpt><trkpt lat="45.0770583" lon="8.2874083"><ele>205.0</ele><time>2026-05-01T09:14:53.155Z</time></trkpt><trkpt lat="45.0771083" lon="8.2875533"><ele>209.2</ele><time>2026-05-01T09:14:54.154Z</time></trkpt><trkpt lat="45.0771617" lon="8.2876917"><ele>213.4</ele><time>2026-05-01T09:14:55.153Z</time></trkpt><trkpt lat="45.07722" lon="8.287805"><ele>217.60000000000002</ele><time>2026-05-01T09:14:56.155Z</time></trkpt><trkpt lat="45.0772867" lon="8.2878833"><ele>221.8</ele><time>2026-05-01T09:14:57.153Z</time></trkpt><trkpt lat="45.0773617" lon="8.28792"><ele>226.0</ele><time>2026-05-01T09:14:58.155Z</time></trkpt><trkpt lat="45.077445" lon="8.2879583"><ele>226.20000000000002</ele><time>2026-05-01T09:14:59.156Z</time></trkpt><trkpt lat="45.077535" lon="8.2879233"><ele>226.40000000000003</ele><time>2026-05-01T09:15:00.155Z</time></trkpt><trkpt lat="45.077615" lon="8.287865"><ele>226.6</ele><time>2026-05-01T09:15:01.154Z</time></trkpt><trkpt lat="45.0776783" lon="8.287785"><ele>226.8</ele><time>2026-05-01T09:15:02.153Z</time></trkpt><trkpt lat="45.0777483" lon="8.2876767"><ele>227.0</ele><time>2026-05-01T09:15:03.149Z</time></trkpt><trkpt lat="45.0778283" lon="8.2875567"><ele>227.0</ele><time>2026-05-01T09:15:04.154Z</time></trkpt><trkpt lat="45.0779033" lon="8.28743"><ele>227.0</ele><time>2026-05-01T09:15:05.152Z</time></trkpt><trkpt lat="45.0779767" lon="8.2873067"><ele>227.0</ele><time>2026-05-01T09:15:06.152Z</time></trkpt><trkpt lat="45.0780517" lon="8.28718"><ele>227.0</ele><time>2026-05-01T09:15:07.151Z</time></trkpt><trkpt lat="45.0781233" lon="8.2870517"><ele>228.5</ele><time>2026-05-01T09:15:08.151Z</time></trkpt><trkpt lat="45.0782" lon="8.2869133"><ele>230.0</ele><time>2026-05-01T09:15:09.155Z</time></trkpt><trkpt lat="45.0782767" lon="8.286775"><ele>231.5</ele><time>2026-05-01T09:15:10.155Z</time></trkpt><trkpt lat="45.07836" lon="8.2866383"><ele>233.0</ele><time>2026-05-01T09:15:11.152Z</time></trkpt><trkpt lat="45.078445" lon="8.286505"><ele>230.8</ele><time>2026-05-01T09:15:12.151Z</time></trkpt><trkpt lat="45.0785283" lon="8.28639"><ele>228.60000000000002</ele><time>2026-05-01T09:15:13.152Z</time></trkpt><trkpt lat="45.0786067" lon="8.286295"><ele>226.39999999999998</ele><time>2026-05-01T09:15:14.156Z</time></trkpt><trkpt lat="45.0786867" lon="8.2862233"><ele>224.2</ele><time>2026-05-01T09:15:15.152Z</time></trkpt><trkpt lat="45.0787833" lon="8.2861983"><ele>222.0</ele><time>2026-05-01T09:15:16.152Z</time></trkpt><trkpt lat="45.0788767" lon="8.2861767"><ele>222.0</ele><time>2026-05-01T09:15:17.156Z</time></trkpt><trkpt lat="45.078975" lon="8.2861917"><ele>222.0</ele><time>2026-05-01T09:15:18.158Z</time></trkpt><trkpt lat="45.07906" lon="8.2862583"><ele>222.0</ele><time>2026-05-01T09:15:19.156Z</time></trkpt><trkpt lat="45.0791667" lon="8.2863283"><ele>222.0</ele><time>2026-05-01T09:15:20.15Z</time></trkpt><trkpt lat="45.0792667" lon="8.2863467"><ele>222.0</ele><time>2026-05-01T09:15:21.154Z</time></trkpt><trkpt lat="45.0793783" lon="8.2863467"><ele>225.75</ele><time>2026-05-01T09:15:22.15Z</time></trkpt><trkpt lat="45.07949" lon="8.2863033"><ele>229.5</ele><time>2026-05-01T09:15:23.152Z</time></trkpt><trkpt lat="45.0795983" lon="8.2862317"><ele>233.25</ele><time>2026-05-01T09:15:24.151Z</time></trkpt><trkpt lat="45.0797" lon="8.2861467"><ele>237.0</ele><time>2026-05-01T09:15:25.158Z</time></trkpt><trkpt lat="45.07978" lon="8.286035"><ele>237.0</ele><time>2026-05-01T09:15:26.154Z</time></trkpt><trkpt lat="45.0798567" lon="8.2859033"><ele>237.0</ele><time>2026-05-01T09:15:27.154Z</time></trkpt><trkpt lat="45.0799217" lon="8.285745"><ele>237.0</ele><time>2026-05-01T09:15:28.152Z</time></trkpt><trkpt lat="45.07998" lon="8.2855667"><ele>237.0</ele><time>2026-05-01T09:15:29.155Z</time></trkpt><trkpt lat="45.0800367" lon="8.285385"><ele>238.75</ele><time>2026-05-01T09:15:30.156Z</time></trkpt><trkpt lat="45.0801067" lon="8.2851983"><ele>240.5</ele><time>2026-05-01T09:15:31.155Z</time></trkpt><trkpt lat="45.080165" lon="8.2850117"><ele>242.25</ele><time>2026-05-01T09:15:32.157Z</time></trkpt><trkpt lat="45.0802233" lon="8.2848217"><ele>244.0</ele><time>2026-05-01T09:15:33.154Z</time></trkpt><trkpt lat="45.080285" lon="8.284625"><ele>244.0</ele><time>2026-05-01T09:15:34.155Z</time></trkpt><trkpt lat="45.0803433" lon="8.2844283"><ele>244.0</ele><time>2026-05-01T09:15:35.152Z</time></trkpt><trkpt lat="45.0804" lon="8.28423"><ele>244.0</ele><time>2026-05-01T09:15:36.157Z</time></trkpt><trkpt lat="45.0804533" lon="8.28403"><ele>243.75</ele><time>2026-05-01T09:15:37.151Z</time></trkpt><trkpt lat="45.08051" lon="8.28383"><ele>243.5</ele><time>2026-05-01T09:15:38.155Z</time></trkpt><trkpt lat="45.0805667" lon="8.2836383"><ele>243.25</ele><time>2026-05-01T09:15:39.155Z</time></trkpt><trkpt lat="45.0806317" lon="8.2834567"><ele>243.0</ele><time>2026-05-01T09:15:40.151Z</time></trkpt><trkpt lat="45.0807" lon="8.28328"><ele>246.0</ele><time>2026-05-01T09:15:41.154Z</time></trkpt><trkpt lat="45.0807767" lon="8.28311"><ele>249.0</ele><time>2026-05-01T09:15:42.151Z</time></trkpt><trkpt lat="45.0808583" lon="8.2829483"><ele>252.0</ele><time>2026-05-01T09:15:43.16Z</time></trkpt><trkpt lat="45.080945" lon="8.282795"><ele>255.0</ele><time>2026-05-01T09:15:44.16Z</time></trkpt><trkpt lat="45.0810367" lon="8.2826417"><ele>257.0</ele><time>2026-05-01T09:15:45.153Z</time></trkpt><trkpt lat="45.0811317" lon="8.28249"><ele>259.0</ele><time>2026-05-01T09:15:46.152Z</time></trkpt><trkpt lat="45.0812283" lon="8.28234"><ele>261.0</ele><time>2026-05-01T09:15:47.155Z</time></trkpt><trkpt lat="45.08132" lon="8.2821983"><ele>263.0</ele><time>2026-05-01T09:15:48.15Z</time></trkpt><trkpt lat="45.0814067" lon="8.282075"><ele>263.8</ele><time>2026-05-01T09:15:49.149Z</time></trkpt><trkpt lat="45.0814967" lon="8.2819767"><ele>264.6</ele><time>2026-05-01T09:15:50.158Z</time></trkpt><trkpt lat="45.0815867" lon="8.2819217"><ele>265.4</ele><time>2026-05-01T09:15:51.154Z</time></trkpt><trkpt lat="45.0816867" lon="8.2819067"><ele>266.2</ele><time>2026-05-01T09:15:52.151Z</time></trkpt><trkpt lat="45.0817883" lon="8.2819333"><ele>267.0</ele><time>2026-05-01T09:15:53.152Z</time></trkpt><trkpt lat="45.0818933" lon="8.2819867"><ele>266.5</ele><time>2026-05-01T09:15:54.155Z</time></trkpt><trkpt lat="45.0819883" lon="8.2820717"><ele>266.0</ele><time>2026-05-01T09:15:55.152Z</time></trkpt><trkpt lat="45.0820817" lon="8.2821717"><ele>265.5</ele><time>2026-05-01T09:15:56.155Z</time></trkpt><trkpt lat="45.0821783" lon="8.28226"><ele>265.0</ele><time>2026-05-01T09:15:57.151Z</time></trkpt><trkpt lat="45.0822833" lon="8.2823167"><ele>265.0</ele><time>2026-05-01T09:15:58.15Z</time></trkpt><trkpt lat="45.0823933" lon="8.282345"><ele>265.0</ele><time>2026-05-01T09:15:59.152Z</time></trkpt><trkpt lat="45.0825083" lon="8.2823533"><ele>265.0</ele><time>2026-05-01T09:16:00.152Z</time></trkpt><trkpt lat="45.082625" lon="8.2823517"><ele>265.0</ele><time>2026-05-01T09:16:01.156Z</time></trkpt><trkpt lat="45.082745" lon="8.2823417"><ele>268.25</ele><time>2026-05-01T09:16:02.156Z</time></trkpt><trkpt lat="45.0828717" lon="8.2823417"><ele>271.5</ele><time>2026-05-01T09:16:03.15Z</time></trkpt><trkpt lat="45.0829967" lon="8.28235"><ele>274.75</ele><time>2026-05-01T09:16:04.163Z</time></trkpt><trkpt lat="45.0831167" lon="8.2823767"><ele>278.0</ele><time>2026-05-01T09:16:05.152Z</time></trkpt><trkpt lat="45.0832383" lon="8.2824333"><ele>280.5</ele><time>2026-05-01T09:16:06.15Z</time></trkpt><trkpt lat="45.08335" lon="8.28251"><ele>283.0</ele><time>2026-05-01T09:16:07.156Z</time></trkpt><trkpt lat="45.0834633" lon="8.2825717"><ele>285.5</ele><time>2026-05-01T09:16:08.155Z</time></trkpt><trkpt lat="45.0835767" lon="8.2826383"><ele>288.0</ele><time>2026-05-01T09:16:09.153Z</time></trkpt><trkpt lat="45.0836867" lon="8.2827017"><ele>288.0</ele><time>2026-05-01T09:16:10.151Z</time></trkpt><trkpt lat="45.08379" lon="8.2827667"><ele>288.0</ele><time>2026-05-01T09:16:11.155Z</time></trkpt><trkpt lat="45.0838717" lon="8.2828067"><ele>288.0</ele><time>2026-05-01T09:16:12.159Z</time></trkpt><trkpt lat="45.08394" lon="8.282825"><ele>288.0</ele><time>2026-05-01T09:16:13.154Z</time></trkpt><trkpt lat="45.0840033" lon="8.2828233"><ele>288.0</ele><time>2026-05-01T09:16:14.153Z</time></trkpt><trkpt lat="45.0839983" lon="8.2827017"><ele>288.0</ele><time>2026-05-01T09:16:17.156Z</time></trkpt><trkpt lat="45.083895" lon="8.2825883"><ele>288.0</ele><time>2026-05-01T09:16:19.152Z</time></trkpt><trkpt lat="45.0838217" lon="8.2825133"><ele>288.0</ele><time>2026-05-01T09:16:20.156Z</time></trkpt><trkpt lat="45.0837433" lon="8.2824317"><ele>288.0</ele><time>2026-05-01T09:16:21.151Z</time></trkpt><trkpt lat="45.08366" lon="8.282345"><ele>288.0</ele><time>2026-05-01T09:16:22.153Z</time></trkpt><trkpt lat="45.0835733" lon="8.2822533"><ele>288.0</ele><time>2026-05-01T09:16:23.153Z</time></trkpt><trkpt lat="45.0834817" lon="8.2821583"><ele>288.8</ele><time>2026-05-01T09:16:24.153Z</time></trkpt><trkpt lat="45.0833917" lon="8.2820683"><ele>289.6</ele><time>2026-05-01T09:16:25.153Z</time></trkpt><trkpt lat="45.0833067" lon="8.2819867"><ele>290.4</ele><time>2026-05-01T09:16:26.15Z</time></trkpt><trkpt lat="45.0832417" lon="8.28191"><ele>291.2</ele><time>2026-05-01T09:16:27.154Z</time></trkpt><trkpt lat="45.0831833" lon="8.2818333"><ele>292.0</ele><time>2026-05-01T09:16:28.155Z</time></trkpt><trkpt lat="45.083135" lon="8.2817417"><ele>292.25</ele><time>2026-05-01T09:16:29.154Z</time></trkpt><trkpt lat="45.08309" lon="8.2816133"><ele>292.5</ele><time>2026-05-01T09:16:30.152Z</time></trkpt><trkpt lat="45.0830583" lon="8.28145"><ele>292.75</ele><time>2026-05-01T09:16:31.153Z</time></trkpt><trkpt lat="45.0830267" lon="8.28127"><ele>293.0</ele><time>2026-05-01T09:16:32.151Z</time></trkpt><trkpt lat="45.0829967" lon="8.2810817"><ele>295.0</ele><time>2026-05-01T09:16:33.154Z</time></trkpt><trkpt lat="45.08297" lon="8.2808983"><ele>297.0</ele><time>2026-05-01T09:16:34.158Z</time></trkpt><trkpt lat="45.0829417" lon="8.2807267"><ele>299.0</ele><time>2026-05-01T09:16:35.153Z</time></trkpt><trkpt lat="45.082905" lon="8.2805667"><ele>301.0</ele><time>2026-05-01T09:16:36.152Z</time></trkpt><trkpt lat="45.082875" lon="8.2804067"><ele>301.0</ele><time>2026-05-01T09:16:37.152Z</time></trkpt><trkpt lat="45.0828567" lon="8.2802517"><ele>301.0</ele><time>2026-05-01T09:16:38.154Z</time></trkpt><trkpt lat="45.0828417" lon="8.2801083"><ele>301.0</ele><time>2026-05-01T09:16:39.15Z</time></trkpt><trkpt lat="45.08284" lon="8.27998"><ele>301.0</ele><time>2026-05-01T09:16:40.158Z</time></trkpt><trkpt lat="45.08284" lon="8.279875"><ele>301.0</ele><time>2026-05-01T09:16:41.152Z</time></trkpt><trkpt lat="45.08284" lon="8.2797017"><ele>300.16666666666663</ele><time>2026-05-01T09:16:43.151Z</time></trkpt><trkpt lat="45.08287" lon="8.2795233"><ele>299.3333333333333</ele><time>2026-05-01T09:16:45.158Z</time></trkpt><trkpt lat="45.082905" lon="8.2794233"><ele>298.5</ele><time>2026-05-01T09:16:46.153Z</time></trkpt><trkpt lat="45.0829483" lon="8.2793183"><ele>297.6666666666667</ele><time>2026-05-01T09:16:47.15Z</time></trkpt><trkpt lat="45.0829883" lon="8.2792217"><ele>296.83333333333337</ele><time>2026-05-01T09:16:48.154Z</time></trkpt><trkpt lat="45.0830217" lon="8.2791283"><ele>296.0</ele><time>2026-05-01T09:16:49.15Z</time></trkpt><trkpt lat="45.08304" lon="8.27904"><ele>296.0</ele><time>2026-05-01T09:16:50.157Z</time></trkpt><trkpt lat="45.0830467" lon="8.278945"><ele>296.0</ele><time>2026-05-01T09:16:51.15Z</time></trkpt><trkpt lat="45.0830383" lon="8.27885"><ele>296.0</ele><time>2026-05-01T09:16:52.154Z</time></trkpt><trkpt lat="45.08302" lon="8.2787517"><ele>296.0</ele><time>2026-05-01T09:16:53.156Z</time></trkpt><trkpt lat="45.0829833" lon="8.2786433"><ele>296.0</ele><time>2026-05-01T09:16:54.16Z</time></trkpt><trkpt lat="45.0829267" lon="8.2785183"><ele>296.0</ele><time>2026-05-01T09:16:55.156Z</time></trkpt><trkpt lat="45.0828633" lon="8.2783567"><ele>294.75</ele><time>2026-05-01T09:16:56.153Z</time></trkpt><trkpt lat="45.0828067" lon="8.2782067"><ele>293.5</ele><time>2026-05-01T09:16:57.153Z</time></trkpt><trkpt lat="45.0827533" lon="8.2780467"><ele>292.25</ele><time>2026-05-01T09:16:58.156Z</time></trkpt><trkpt lat="45.08271" lon="8.27787"><ele>291.0</ele><time>2026-05-01T09:16:59.153Z</time></trkpt><trkpt lat="45.082675" lon="8.2776917"><ele>291.0</ele><time>2026-05-01T09:17:00.157Z</time></trkpt><trkpt lat="45.08266" lon="8.2775267"><ele>291.0</ele><time>2026-05-01T09:17:01.156Z</time></trkpt><trkpt lat="45.0826533" lon="8.2773767"><ele>291.0</ele><time>2026-05-01T09:17:02.156Z</time></trkpt><trkpt lat="45.082655" lon="8.27724"><ele>291.0</ele><time>2026-05-01T09:17:03.153Z</time></trkpt><trkpt lat="45.08266" lon="8.2771183"><ele>291.0</ele><time>2026-05-01T09:17:04.155Z</time></trkpt><trkpt lat="45.08267" lon="8.2770083"><ele>291.2</ele><time>2026-05-01T09:17:05.154Z</time></trkpt><trkpt lat="45.0826867" lon="8.2768967"><ele>291.40000000000003</ele><time>2026-05-01T09:17:06.151Z</time></trkpt><trkpt lat="45.0827117" lon="8.2767833"><ele>291.6</ele><time>2026-05-01T09:17:07.156Z</time></trkpt><trkpt lat="45.0827483" lon="8.2766667"><ele>291.8</ele><time>2026-05-01T09:17:08.154Z</time></trkpt><trkpt lat="45.0827967" lon="8.27654"><ele>292.0</ele><time>2026-05-01T09:17:09.148Z</time></trkpt><trkpt lat="45.0828483" lon="8.2764067"><ele>292.0</ele><time>2026-05-01T09:17:10.154Z</time></trkpt><trkpt lat="45.0829067" lon="8.27627"><ele>292.0</ele><time>2026-05-01T09:17:11.15Z</time></trkpt><trkpt lat="45.0829667" lon="8.2761333"><ele>292.0</ele><time>2026-05-01T09:17:12.155Z</time></trkpt><trkpt lat="45.083025" lon="8.2759967"><ele>292.0</ele><time>2026-05-01T09:17:13.154Z</time></trkpt><trkpt lat="45.083085" lon="8.2758517"><ele>292.0</ele><time>2026-05-01T09:17:14.155Z</time></trkpt><trkpt lat="45.0831367" lon="8.2757017"><ele>292.0</ele><time>2026-05-01T09:17:15.152Z</time></trkpt><trkpt lat="45.083175" lon="8.275535"><ele>292.0</ele><time>2026-05-01T09:17:16.154Z</time></trkpt><trkpt lat="45.0831983" lon="8.275365"><ele>292.0</ele><time>2026-05-01T09:17:17.155Z</time></trkpt><trkpt lat="45.0832133" lon="8.2751867"><ele>292.0</ele><time>2026-05-01T09:17:18.153Z</time></trkpt><trkpt lat="45.08322" lon="8.275005"><ele>292.0</ele><time>2026-05-01T09:17:19.152Z</time></trkpt><trkpt lat="45.0832133" lon="8.27483"><ele>292.0</ele><time>2026-05-01T09:17:20.152Z</time></trkpt><trkpt lat="45.083195" lon="8.27467"><ele>292.0</ele><time>2026-05-01T09:17:21.152Z</time></trkpt><trkpt lat="45.0831817" lon="8.2745183"><ele>292.8333333333333</ele><time>2026-05-01T09:17:22.153Z</time></trkpt><trkpt lat="45.08317" lon="8.27438"><ele>293.66666666666663</ele><time>2026-05-01T09:17:23.152Z</time></trkpt><trkpt lat="45.0831583" lon="8.2742617"><ele>294.5</ele><time>2026-05-01T09:17:24.152Z</time></trkpt><trkpt lat="45.0831483" lon="8.274155"><ele>295.3333333333333</ele><time>2026-05-01T09:17:25.155Z</time></trkpt><trkpt lat="45.08314" lon="8.2740633"><ele>296.1666666666667</ele><time>2026-05-01T09:17:26.153Z</time></trkpt><trkpt lat="45.083135" lon="8.27397"><ele>297.0</ele><time>2026-05-01T09:17:27.152Z</time></trkpt><trkpt lat="45.08313" lon="8.273875"><ele>298.2</ele><time>2026-05-01T09:17:28.151Z</time></trkpt><trkpt lat="45.0831233" lon="8.2737833"><ele>299.4</ele><time>2026-05-01T09:17:29.154Z</time></trkpt><trkpt lat="45.0831183" lon="8.2736933"><ele>300.6</ele><time>2026-05-01T09:17:30.151Z</time></trkpt><trkpt lat="45.0831167" lon="8.2735283"><ele>301.8</ele><time>2026-05-01T09:17:32.154Z</time></trkpt><trkpt lat="45.0831383" lon="8.2733633"><ele>303.0</ele><time>2026-05-01T09:17:34.156Z</time></trkpt><trkpt lat="45.0831933" lon="8.273215"><ele>303.5</ele><time>2026-05-01T09:17:36.152Z</time></trkpt><trkpt lat="45.08328" lon="8.27309"><ele>304.0</ele><time>2026-05-01T09:17:38.151Z</time></trkpt><trkpt lat="45.0833817" lon="8.2729867"><ele>304.5</ele><time>2026-05-01T09:17:40.153Z</time></trkpt><trkpt lat="45.083435" lon="8.2729383"><ele>305.0</ele><time>2026-05-01T09:17:41.153Z</time></trkpt><trkpt lat="45.0834917" lon="8.2728917"><ele>305.5</ele><time>2026-05-01T09:17:42.151Z</time></trkpt><trkpt lat="45.0835483" lon="8.2728467"><ele>306.0</ele><time>2026-05-01T09:17:43.156Z</time></trkpt><trkpt lat="45.083605" lon="8.2728067"><ele>306.0</ele><time>2026-05-01T09:17:44.154Z</time></trkpt><trkpt lat="45.0837117" lon="8.272725"><ele>306.0</ele><time>2026-05-01T09:17:46.151Z</time></trkpt><trkpt lat="45.08381" lon="8.2726133"><ele>306.0</ele><time>2026-05-01T09:17:48.154Z</time></trkpt><trkpt lat="45.0838567" lon="8.2725417"><ele>306.0</ele><time>2026-05-01T09:17:49.153Z</time></trkpt><trkpt lat="45.0839" lon="8.2724733"><ele>306.0</ele><time>2026-05-01T09:17:50.155Z</time></trkpt><trkpt lat="45.083985" lon="8.27235"><ele>306.0</ele><time>2026-05-01T09:17:52.152Z</time></trkpt><trkpt lat="45.0840267" lon="8.272275"><ele>306.0</ele><time>2026-05-01T09:17:53.151Z</time></trkpt><trkpt lat="45.0840617" lon="8.2721983"><ele>306.0</ele><time>2026-05-01T09:17:54.15Z</time></trkpt><trkpt lat="45.0840933" lon="8.2721133"><ele>306.0</ele><time>2026-05-01T09:17:55.154Z</time></trkpt><trkpt lat="45.0841233" lon="8.272"><ele>306.0</ele><time>2026-05-01T09:17:56.155Z</time></trkpt><trkpt lat="45.0841583" lon="8.2718733"><ele>306.0</ele><time>2026-05-01T09:17:57.149Z</time></trkpt><trkpt lat="45.0841983" lon="8.271735"><ele>307.5</ele><time>2026-05-01T09:17:58.15Z</time></trkpt><trkpt lat="45.084245" lon="8.2715767"><ele>309.0</ele><time>2026-05-01T09:17:59.157Z</time></trkpt><trkpt lat="45.0843017" lon="8.27141"><ele>310.5</ele><time>2026-05-01T09:18:00.155Z</time></trkpt><trkpt lat="45.0843733" lon="8.2712233"><ele>312.0</ele><time>2026-05-01T09:18:01.152Z</time></trkpt><trkpt lat="45.08444" lon="8.2710333"><ele>312.0</ele><time>2026-05-01T09:18:02.153Z</time></trkpt><trkpt lat="45.0845" lon="8.2708417"><ele>312.0</ele><time>2026-05-01T09:18:03.151Z</time></trkpt><trkpt lat="45.08455" lon="8.27064"><ele>312.0</ele><time>2026-05-01T09:18:04.155Z</time></trkpt><trkpt lat="45.084595" lon="8.2704317"><ele>311.3333333333333</ele><time>2026-05-01T09:18:05.153Z</time></trkpt><trkpt lat="45.0846317" lon="8.2702233"><ele>310.66666666666663</ele><time>2026-05-01T09:18:06.154Z</time></trkpt><trkpt lat="45.08467" lon="8.27001"><ele>310.0</ele><time>2026-05-01T09:18:07.155Z</time></trkpt><trkpt lat="45.0847067" lon="8.2697983"><ele>310.25</ele><time>2026-05-01T09:18:08.153Z</time></trkpt><trkpt lat="45.08474" lon="8.2695883"><ele>310.5</ele><time>2026-05-01T09:18:09.154Z</time></trkpt><trkpt lat="45.0847733" lon="8.26938"><ele>310.75</ele><time>2026-05-01T09:18:10.153Z</time></trkpt><trkpt lat="45.0848067" lon="8.269185"><ele>311.0</ele><time>2026-05-01T09:18:11.157Z</time></trkpt><trkpt lat="45.0848367" lon="8.2689867"><ele>311.75</ele><time>2026-05-01T09:18:12.155Z</time></trkpt><trkpt lat="45.084865" lon="8.2687917"><ele>312.5</ele><time>2026-05-01T09:18:13.15Z</time></trkpt><trkpt lat="45.0848967" lon="8.2686"><ele>313.25</ele><time>2026-05-01T09:18:14.152Z</time></trkpt><trkpt lat="45.084925" lon="8.26841"><ele>314.0</ele><time>2026-05-01T09:18:15.154Z</time></trkpt><trkpt lat="45.0849433" lon="8.2682367"><ele>320.25</ele><time>2026-05-01T09:18:16.15Z</time></trkpt><trkpt lat="45.0849683" lon="8.2680517"><ele>326.5</ele><time>2026-05-01T09:18:17.152Z</time></trkpt><trkpt lat="45.0849967" lon="8.26787"><ele>332.75</ele><time>2026-05-01T09:18:18.153Z</time></trkpt><trkpt lat="45.0850283" lon="8.267695"><ele>339.0</ele><time>2026-05-01T09:18:19.153Z</time></trkpt><trkpt lat="45.0850483" lon="8.26754"><ele>339.0</ele><time>2026-05-01T09:18:20.152Z</time></trkpt><trkpt lat="45.0850467" lon="8.26741"><ele>339.0</ele><time>2026-05-01T09:18:21.153Z</time></trkpt><trkpt lat="45.08503" lon="8.2672917"><ele>339.0</ele><time>2026-05-01T09:18:22.152Z</time></trkpt><trkpt lat="45.0850017" lon="8.267185"><ele>339.0</ele><time>2026-05-01T09:18:23.149Z</time></trkpt><trkpt lat="45.0849733" lon="8.2670883"><ele>339.0</ele><time>2026-05-01T09:18:24.152Z</time></trkpt><trkpt lat="45.08491" lon="8.266965"><ele>339.0</ele><time>2026-05-01T09:18:26.152Z</time></trkpt><trkpt lat="45.0849883" lon="8.267005"><ele>339.0</ele><time>2026-05-01T09:18:36.151Z</time></trkpt><trkpt lat="45.085065" lon="8.26715"><ele>339.0</ele><time>2026-05-01T09:18:38.154Z</time></trkpt><trkpt lat="45.0850933" lon="8.2672517"><ele>339.0</ele><time>2026-05-01T09:18:39.15Z</time></trkpt><trkpt lat="45.0851117" lon="8.2673617"><ele>339.0</ele><time>2026-05-01T09:18:40.151Z</time></trkpt><trkpt lat="45.0851283" lon="8.26748"><ele>339.0</ele><time>2026-05-01T09:18:41.157Z</time></trkpt><trkpt lat="45.0851533" lon="8.2675817"><ele>339.0</ele><time>2026-05-01T09:18:42.149Z</time></trkpt><trkpt lat="45.0852267" lon="8.26771"><ele>339.0</ele><time>2026-05-01T09:18:44.158Z</time></trkpt><trkpt lat="45.085335" lon="8.2677"><ele>339.0</ele><time>2026-05-01T09:18:46.151Z</time></trkpt><trkpt lat="45.0854333" lon="8.2675883"><ele>339.0</ele><time>2026-05-01T09:18:48.151Z</time></trkpt><trkpt lat="45.085475" lon="8.2674933"><ele>339.0</ele><time>2026-05-01T09:18:49.156Z</time></trkpt><trkpt lat="45.0855283" lon="8.2673467"><ele>339.0</ele><time>2026-05-01T09:18:50.151Z</time></trkpt><trkpt lat="45.085575" lon="8.267225"><ele>340.2</ele><time>2026-05-01T09:18:51.152Z</time></trkpt><trkpt lat="45.0856283" lon="8.2670983"><ele>341.4</ele><time>2026-05-01T09:18:52.151Z</time></trkpt><trkpt lat="45.08569" lon="8.266995"><ele>342.6</ele><time>2026-05-01T09:18:53.149Z</time></trkpt><trkpt lat="45.0857633" lon="8.266915"><ele>343.8</ele><time>2026-05-01T09:18:54.15Z</time></trkpt><trkpt lat="45.085855" lon="8.2668567"><ele>345.0</ele><time>2026-05-01T09:18:55.151Z</time></trkpt><trkpt lat="45.0859567" lon="8.2668183"><ele>349.0</ele><time>2026-05-01T09:18:56.153Z</time></trkpt><trkpt lat="45.0860633" lon="8.266805"><ele>353.0</ele><time>2026-05-01T09:18:57.152Z</time></trkpt><trkpt lat="45.086175" lon="8.2668133"><ele>357.0</ele><time>2026-05-01T09:18:58.151Z</time></trkpt><trkpt lat="45.08629" lon="8.266835"><ele>361.0</ele><time>2026-05-01T09:18:59.154Z</time></trkpt><trkpt lat="45.0864067" lon="8.26685"><ele>361.0</ele><time>2026-05-01T09:19:00.154Z</time></trkpt><trkpt lat="45.0865217" lon="8.2668517"><ele>361.0</ele><time>2026-05-01T09:19:01.152Z</time></trkpt><trkpt lat="45.0866433" lon="8.2668383"><ele>361.0</ele><time>2026-05-01T09:19:02.153Z</time></trkpt><trkpt lat="45.0867633" lon="8.26681"><ele>361.0</ele><time>2026-05-01T09:19:03.154Z</time></trkpt><trkpt lat="45.0868833" lon="8.26678"><ele>360.8</ele><time>2026-05-01T09:19:04.151Z</time></trkpt><trkpt lat="45.087" lon="8.2667483"><ele>360.6</ele><time>2026-05-01T09:19:05.157Z</time></trkpt><trkpt lat="45.0871083" lon="8.2667217"><ele>360.4</ele><time>2026-05-01T09:19:06.153Z</time></trkpt><trkpt lat="45.0872117" lon="8.2666967"><ele>360.2</ele><time>2026-05-01T09:19:07.156Z</time></trkpt><trkpt lat="45.0873133" lon="8.266665"><ele>360.0</ele><time>2026-05-01T09:19:08.153Z</time></trkpt><trkpt lat="45.0874133" lon="8.266635"><ele>359.3333333333333</ele><time>2026-05-01T09:19:09.153Z</time></trkpt><trkpt lat="45.0875133" lon="8.266605"><ele>358.6666666666667</ele><time>2026-05-01T09:19:10.153Z</time></trkpt><trkpt lat="45.0876083" lon="8.26658"><ele>358.0</ele><time>2026-05-01T09:19:11.154Z</time></trkpt><trkpt lat="45.0876817" lon="8.26656"><ele>357.33333333333337</ele><time>2026-05-01T09:19:12.155Z</time></trkpt><trkpt lat="45.0877767" lon="8.26651"><ele>356.6666666666667</ele><time>2026-05-01T09:19:14.154Z</time></trkpt><trkpt lat="45.0877833" lon="8.26641"><ele>356.0</ele><time>2026-05-01T09:19:16.153Z</time></trkpt><trkpt lat="45.0877233" lon="8.26629"><ele>356.0</ele><time>2026-05-01T09:19:18.151Z</time></trkpt><trkpt lat="45.0876617" lon="8.26614"><ele>356.0</ele><time>2026-05-01T09:19:20.153Z</time></trkpt><trkpt lat="45.08763" lon="8.2660567"><ele>356.0</ele><time>2026-05-01T09:19:21.152Z</time></trkpt><trkpt lat="45.0876" lon="8.2659667"><ele>356.0</ele><time>2026-05-01T09:19:22.151Z</time></trkpt><trkpt lat="45.0875667" lon="8.2658783"><ele>356.0</ele><time>2026-05-01T09:19:23.156Z</time></trkpt><trkpt lat="45.08753" lon="8.2657867"><ele>356.0</ele><time>2026-05-01T09:19:24.152Z</time></trkpt><trkpt lat="45.087495" lon="8.2656933"><ele>355.0</ele><time>2026-05-01T09:19:25.156Z</time></trkpt><trkpt lat="45.0874583" lon="8.2656"><ele>354.0</ele><time>2026-05-01T09:19:26.151Z</time></trkpt><trkpt lat="45.0874233" lon="8.2655033"><ele>353.0</ele><time>2026-05-01T09:19:27.15Z</time></trkpt><trkpt lat="45.0873917" lon="8.2654083"><ele>352.0</ele><time>2026-05-01T09:19:28.155Z</time></trkpt><trkpt lat="45.087355" lon="8.2653183"><ele>351.0</ele><time>2026-05-01T09:19:29.155Z</time></trkpt><trkpt lat="45.0873217" lon="8.2652183"><ele>350.0</ele><time>2026-05-01T09:19:30.154Z</time></trkpt><trkpt lat="45.087285" lon="8.2651083"><ele>351.8</ele><time>2026-05-01T09:19:31.154Z</time></trkpt><trkpt lat="45.0872417" lon="8.2649867"><ele>353.6</ele><time>2026-05-01T09:19:32.155Z</time></trkpt><trkpt lat="45.0872" lon="8.2648583"><ele>355.4</ele><time>2026-05-01T09:19:33.155Z</time></trkpt><trkpt lat="45.08716" lon="8.26473"><ele>357.2</ele><time>2026-05-01T09:19:34.155Z</time></trkpt><trkpt lat="45.0871183" lon="8.2646083"><ele>359.0</ele><time>2026-05-01T09:19:35.153Z</time></trkpt><trkpt lat="45.0870817" lon="8.2644883"><ele>359.0</ele><time>2026-05-01T09:19:36.154Z</time></trkpt><trkpt lat="45.0870483" lon="8.2643783"><ele>359.0</ele><time>2026-05-01T09:19:37.15Z</time></trkpt><trkpt lat="45.087015" lon="8.2642833"><ele>359.0</ele><time>2026-05-01T09:19:38.153Z</time></trkpt><trkpt lat="45.086975" lon="8.2642"><ele>359.0</ele><time>2026-05-01T09:19:39.149Z</time></trkpt><trkpt lat="45.0869283" lon="8.264135"><ele>359.0</ele><time>2026-05-01T09:19:40.157Z</time></trkpt><trkpt lat="45.0868633" lon="8.2640883"><ele>359.0</ele><time>2026-05-01T09:19:41.154Z</time></trkpt><trkpt lat="45.0867817" lon="8.26406"><ele>359.0</ele><time>2026-05-01T09:19:42.151Z</time></trkpt><trkpt lat="45.0866817" lon="8.26404"><ele>359.0</ele><time>2026-05-01T09:19:43.151Z</time></trkpt><trkpt lat="45.08658" lon="8.2640083"><ele>359.0</ele><time>2026-05-01T09:19:44.156Z</time></trkpt><trkpt lat="45.0864733" lon="8.2639733"><ele>359.0</ele><time>2026-05-01T09:19:45.155Z</time></trkpt><trkpt lat="45.0863617" lon="8.26394"><ele>359.0</ele><time>2026-05-01T09:19:46.151Z</time></trkpt><trkpt lat="45.086255" lon="8.2639017"><ele>361.0</ele><time>2026-05-01T09:19:47.156Z</time></trkpt><trkpt lat="45.0861533" lon="8.263865"><ele>363.0</ele><time>2026-05-01T09:19:48.154Z</time></trkpt><trkpt lat="45.08606" lon="8.26383"><ele>365.0</ele><time>2026-05-01T09:19:49.156Z</time></trkpt><trkpt lat="45.0859767" lon="8.2637917"><ele>367.0</ele><time>2026-05-01T09:19:50.154Z</time></trkpt><trkpt lat="45.0858983" lon="8.2637367"><ele>369.0</ele><time>2026-05-01T09:19:51.151Z</time></trkpt><trkpt lat="45.0858367" lon="8.2636617"><ele>369.0</ele><time>2026-05-01T09:19:52.155Z</time></trkpt><trkpt lat="45.0857933" lon="8.2635683"><ele>369.0</ele><time>2026-05-01T09:19:53.152Z</time></trkpt><trkpt lat="45.0857683" lon="8.2634533"><ele>369.0</ele><time>2026-05-01T09:19:54.153Z</time></trkpt><trkpt lat="45.0857567" lon="8.26332"><ele>369.0</ele><time>2026-05-01T09:19:55.152Z</time></trkpt><trkpt lat="45.0857483" lon="8.2631833"><ele>369.0</ele><time>2026-05-01T09:19:56.151Z</time></trkpt><trkpt lat="45.0857383" lon="8.2630483"><ele>366.79999999999995</ele><time>2026-05-01T09:19:57.154Z</time></trkpt><trkpt lat="45.08573" lon="8.2629133"><ele>364.59999999999997</ele><time>2026-05-01T09:19:58.153Z</time></trkpt><trkpt lat="45.0857233" lon="8.2627783"><ele>362.4</ele><time>2026-05-01T09:19:59.155Z</time></trkpt><trkpt lat="45.0857133" lon="8.262645"><ele>360.2</ele><time>2026-05-01T09:20:00.156Z</time></trkpt><trkpt lat="45.0856933" lon="8.262525"><ele>358.0</ele><time>2026-05-01T09:20:01.154Z</time></trkpt><trkpt lat="45.0856617" lon="8.2624117"><ele>358.0</ele><time>2026-05-01T09:20:02.152Z</time></trkpt><trkpt lat="45.085625" lon="8.26231"><ele>358.0</ele><time>2026-05-01T09:20:03.154Z</time></trkpt><trkpt lat="45.0855867" lon="8.26221"><ele>358.0</ele><time>2026-05-01T09:20:04.154Z</time></trkpt><trkpt lat="45.0855517" lon="8.2621117"><ele>358.0</ele><time>2026-05-01T09:20:05.156Z</time></trkpt><trkpt lat="45.0855167" lon="8.2620267"><ele>358.0</ele><time>2026-05-01T09:20:06.152Z</time></trkpt><trkpt lat="45.08546" lon="8.2619033"><ele>358.0</ele><time>2026-05-01T09:20:08.159Z</time></trkpt><trkpt lat="45.0854067" lon="8.261785"><ele>358.66666666666663</ele><time>2026-05-01T09:20:10.157Z</time></trkpt><trkpt lat="45.0853667" lon="8.2617133"><ele>359.3333333333333</ele><time>2026-05-01T09:20:11.152Z</time></trkpt><trkpt lat="45.0853233" lon="8.2616333"><ele>360.0</ele><time>2026-05-01T09:20:12.151Z</time></trkpt><trkpt lat="45.0852733" lon="8.2615417"><ele>360.6666666666667</ele><time>2026-05-01T09:20:13.156Z</time></trkpt><trkpt lat="45.0852167" lon="8.26144"><ele>361.33333333333337</ele><time>2026-05-01T09:20:14.154Z</time></trkpt><trkpt lat="45.08516" lon="8.261315"><ele>362.0</ele><time>2026-05-01T09:20:15.155Z</time></trkpt><trkpt lat="45.0850917" lon="8.26121"><ele>361.83333333333337</ele><time>2026-05-01T09:20:16.155Z</time></trkpt><trkpt lat="45.0850517" lon="8.26108"><ele>361.6666666666667</ele><time>2026-05-01T09:20:17.154Z</time></trkpt><trkpt lat="45.0850217" lon="8.2609517"><ele>361.5</ele><time>2026-05-01T09:20:18.155Z</time></trkpt><trkpt lat="45.08499" lon="8.2608333"><ele>361.3333333333333</ele><time>2026-05-01T09:20:19.158Z</time></trkpt><trkpt lat="45.0849717" lon="8.26071"><ele>361.16666666666663</ele><time>2026-05-01T09:20:20.152Z</time></trkpt><trkpt lat="45.0849583" lon="8.26061"><ele>361.0</ele><time>2026-05-01T09:20:21.153Z</time></trkpt><trkpt lat="45.0849767" lon="8.2604867"><ele>361.0</ele><time>2026-05-01T09:20:22.156Z</time></trkpt><trkpt lat="45.085" lon="8.2603733"><ele>361.0</ele><time>2026-05-01T09:20:23.153Z</time></trkpt><trkpt lat="45.0850267" lon="8.260255"><ele>361.0</ele><time>2026-05-01T09:20:24.15Z</time></trkpt><trkpt lat="45.0850483" lon="8.26014"><ele>361.0</ele><time>2026-05-01T09:20:25.153Z</time></trkpt><trkpt lat="45.0850667" lon="8.260025"><ele>361.0</ele><time>2026-05-01T09:20:26.154Z</time></trkpt><trkpt lat="45.0851117" lon="8.2599133"><ele>361.0</ele><time>2026-05-01T09:20:27.155Z</time></trkpt><trkpt lat="45.0851617" lon="8.2598033"><ele>359.0</ele><time>2026-05-01T09:20:28.153Z</time></trkpt><trkpt lat="45.08522" lon="8.2596867"><ele>357.0</ele><time>2026-05-01T09:20:29.152Z</time></trkpt><trkpt lat="45.0852867" lon="8.2595733"><ele>355.0</ele><time>2026-05-01T09:20:30.156Z</time></trkpt><trkpt lat="45.0853667" lon="8.259455"><ele>353.0</ele><time>2026-05-01T09:20:31.153Z</time></trkpt><trkpt lat="45.0854333" lon="8.2593367"><ele>351.0</ele><time>2026-05-01T09:20:32.153Z</time></trkpt><trkpt lat="45.0855017" lon="8.2592233"><ele>351.0</ele><time>2026-05-01T09:20:33.152Z</time></trkpt><trkpt lat="45.0855717" lon="8.2591117"><ele>351.0</ele><time>2026-05-01T09:20:34.154Z</time></trkpt><trkpt lat="45.0856517" lon="8.258995"><ele>351.0</ele><time>2026-05-01T09:20:35.153Z</time></trkpt><trkpt lat="45.0857283" lon="8.2588783"><ele>351.0</ele><time>2026-05-01T09:20:36.153Z</time></trkpt><trkpt lat="45.085805" lon="8.2587633"><ele>351.0</ele><time>2026-05-01T09:20:37.155Z</time></trkpt><trkpt lat="45.08588" lon="8.258655"><ele>350.8</ele><time>2026-05-01T09:20:38.152Z</time></trkpt><trkpt lat="45.0859433" lon="8.2585483"><ele>350.6</ele><time>2026-05-01T09:20:39.15Z</time></trkpt><trkpt lat="45.08601" lon="8.2584417"><ele>350.4</ele><time>2026-05-01T09:20:40.157Z</time></trkpt><trkpt lat="45.0860733" lon="8.2583383"><ele>350.2</ele><time>2026-05-01T09:20:41.158Z</time></trkpt><trkpt lat="45.086135" lon="8.2582283"><ele>350.0</ele><time>2026-05-01T09:20:42.154Z</time></trkpt><trkpt lat="45.086195" lon="8.2581183"><ele>348.0</ele><time>2026-05-01T09:20:43.153Z</time></trkpt><trkpt lat="45.0862467" lon="8.2580233"><ele>346.0</ele><time>2026-05-01T09:20:44.153Z</time></trkpt><trkpt lat="45.0862833" lon="8.257935"><ele>344.0</ele><time>2026-05-01T09:20:45.151Z</time></trkpt><trkpt lat="45.086345" lon="8.2577867"><ele>342.0</ele><time>2026-05-01T09:20:47.154Z</time></trkpt><trkpt lat="45.0863767" lon="8.2577083"><ele>340.0</ele><time>2026-05-01T09:20:48.154Z</time></trkpt><trkpt lat="45.086415" lon="8.2576167"><ele>338.0</ele><time>2026-05-01T09:20:49.158Z</time></trkpt><trkpt lat="45.086445" lon="8.25752"><ele>338.0</ele><time>2026-05-01T09:20:50.153Z</time></trkpt><trkpt lat="45.08648" lon="8.2574217"><ele>338.0</ele><time>2026-05-01T09:20:51.155Z</time></trkpt><trkpt lat="45.0865133" lon="8.25732"><ele>338.0</ele><time>2026-05-01T09:20:52.153Z</time></trkpt><trkpt lat="45.0865467" lon="8.2572133"><ele>338.0</ele><time>2026-05-01T09:20:53.153Z</time></trkpt><trkpt lat="45.0865867" lon="8.257105"><ele>338.0</ele><time>2026-05-01T09:20:54.152Z</time></trkpt><trkpt lat="45.0866183" lon="8.256995"><ele>338.0</ele><time>2026-05-01T09:20:55.151Z</time></trkpt><trkpt lat="45.0866517" lon="8.2568867"><ele>340.1666666666667</ele><time>2026-05-01T09:20:56.153Z</time></trkpt><trkpt lat="45.0866767" lon="8.25678"><ele>342.33333333333337</ele><time>2026-05-01T09:20:57.152Z</time></trkpt><trkpt lat="45.0866967" lon="8.25667"><ele>344.5</ele><time>2026-05-01T09:20:58.153Z</time></trkpt><trkpt lat="45.0867017" lon="8.2565583"><ele>346.6666666666667</ele><time>2026-05-01T09:20:59.154Z</time></trkpt><trkpt lat="45.086685" lon="8.2564433"><ele>348.8333333333333</ele><time>2026-05-01T09:21:00.152Z</time></trkpt><trkpt lat="45.0866567" lon="8.2563317"><ele>351.0</ele><time>2026-05-01T09:21:01.154Z</time></trkpt><trkpt lat="45.0866283" lon="8.256215"><ele>351.5</ele><time>2026-05-01T09:21:02.153Z</time></trkpt><trkpt lat="45.0866" lon="8.2560983"><ele>352.0</ele><time>2026-05-01T09:21:03.154Z</time></trkpt><trkpt lat="45.0865683" lon="8.2559833"><ele>352.5</ele><time>2026-05-01T09:21:04.152Z</time></trkpt><trkpt lat="45.0865367" lon="8.255865"><ele>353.0</ele><time>2026-05-01T09:21:05.157Z</time></trkpt><trkpt lat="45.086505" lon="8.2557483"><ele>353.5</ele><time>2026-05-01T09:21:06.156Z</time></trkpt><trkpt lat="45.0864683" lon="8.25564"><ele>354.0</ele><time>2026-05-01T09:21:07.152Z</time></trkpt><trkpt lat="45.0864183" lon="8.255545"><ele>352.8333333333333</ele><time>2026-05-01T09:21:08.152Z</time></trkpt><trkpt lat="45.0863533" lon="8.25547"><ele>351.6666666666667</ele><time>2026-05-01T09:21:09.155Z</time></trkpt><trkpt lat="45.0862833" lon="8.2554133"><ele>350.5</ele><time>2026-05-01T09:21:10.154Z</time></trkpt><trkpt lat="45.086215" lon="8.2553767"><ele>349.33333333333337</ele><time>2026-05-01T09:21:11.157Z</time></trkpt><trkpt lat="45.0861483" lon="8.25535"><ele>348.1666666666667</ele><time>2026-05-01T09:21:12.155Z</time></trkpt><trkpt lat="45.0860617" lon="8.255305"><ele>347.0</ele><time>2026-05-01T09:21:14.158Z</time></trkpt><trkpt lat="45.0860167" lon="8.2552317"><ele>347.0</ele><time>2026-05-01T09:21:16.156Z</time></trkpt><trkpt lat="45.08603" lon="8.255035"><ele>347.0</ele><time>2026-05-01T09:21:18.156Z</time></trkpt><trkpt lat="45.0860483" lon="8.2549233"><ele>347.0</ele><time>2026-05-01T09:21:19.151Z</time></trkpt><trkpt lat="45.0860717" lon="8.25482"><ele>347.0</ele><time>2026-05-01T09:21:20.15Z</time></trkpt><trkpt lat="45.0861" lon="8.2547217"><ele>347.0</ele><time>2026-05-01T09:21:21.158Z</time></trkpt><trkpt lat="45.0861317" lon="8.254625"><ele>347.0</ele><time>2026-05-01T09:21:22.152Z</time></trkpt><trkpt lat="45.08617" lon="8.2545267"><ele>345.5</ele><time>2026-05-01T09:21:23.155Z</time></trkpt><trkpt lat="45.086215" lon="8.2544317"><ele>344.0</ele><time>2026-05-01T09:21:24.155Z</time></trkpt><trkpt lat="45.0862667" lon="8.2543533"><ele>342.5</ele><time>2026-05-01T09:21:25.154Z</time></trkpt><trkpt lat="45.086315" lon="8.254285"><ele>341.0</ele><time>2026-05-01T09:21:26.155Z</time></trkpt><trkpt lat="45.0863917" lon="8.2541967"><ele>339.5</ele><time>2026-05-01T09:21:28.154Z</time></trkpt><trkpt lat="45.0864317" lon="8.2540983"><ele>338.0</ele><time>2026-05-01T09:23:08.15Z</time></trkpt><trkpt lat="45.086495" lon="8.254015"><ele>337.1666666666667</ele><time>2026-05-01T09:23:10.151Z</time></trkpt><trkpt lat="45.086585" lon="8.2539133"><ele>336.33333333333337</ele><time>2026-05-01T09:23:12.154Z</time></trkpt><trkpt lat="45.0866367" lon="8.253855"><ele>335.5</ele><time>2026-05-01T09:23:13.151Z</time></trkpt><trkpt lat="45.0866883" lon="8.25379"><ele>334.6666666666667</ele><time>2026-05-01T09:23:14.154Z</time></trkpt><trkpt lat="45.086735" lon="8.2537133"><ele>333.8333333333333</ele><time>2026-05-01T09:23:15.152Z</time></trkpt><trkpt lat="45.0867833" lon="8.2536383"><ele>333.0</ele><time>2026-05-01T09:23:16.159Z</time></trkpt><trkpt lat="45.0868317" lon="8.2535567"><ele>333.0</ele><time>2026-05-01T09:23:17.15Z</time></trkpt><trkpt lat="45.0868783" lon="8.2534667"><ele>333.0</ele><time>2026-05-01T09:23:18.165Z</time></trkpt><trkpt lat="45.0869233" lon="8.2533717"><ele>333.0</ele><time>2026-05-01T09:23:19.156Z</time></trkpt><trkpt lat="45.0869717" lon="8.2532817"><ele>333.0</ele><time>2026-05-01T09:23:20.154Z</time></trkpt><trkpt lat="45.0870283" lon="8.2531983"><ele>333.0</ele><time>2026-05-01T09:23:21.15Z</time></trkpt><trkpt lat="45.087095" lon="8.2531167"><ele>333.0</ele><time>2026-05-01T09:23:22.155Z</time></trkpt><trkpt lat="45.0871683" lon="8.253035"><ele>331.79999999999995</ele><time>2026-05-01T09:23:23.154Z</time></trkpt><trkpt lat="45.08724" lon="8.2529517"><ele>330.6</ele><time>2026-05-01T09:23:24.152Z</time></trkpt><trkpt lat="45.0873067" lon="8.252855"><ele>329.4</ele><time>2026-05-01T09:23:25.149Z</time></trkpt><trkpt lat="45.08736" lon="8.2527283"><ele>328.20000000000005</ele><time>2026-05-01T09:23:26.151Z</time></trkpt><trkpt lat="45.0874017" lon="8.2525917"><ele>327.0</ele><time>2026-05-01T09:23:27.156Z</time></trkpt><trkpt lat="45.0874367" lon="8.25245"><ele>330.8</ele><time>2026-05-01T09:23:28.155Z</time></trkpt><trkpt lat="45.08747" lon="8.2523117"><ele>334.6</ele><time>2026-05-01T09:23:29.152Z</time></trkpt><trkpt lat="45.087515" lon="8.25218"><ele>338.40000000000003</ele><time>2026-05-01T09:23:30.152Z</time></trkpt><trkpt lat="45.0875633" lon="8.2520583"><ele>342.20000000000005</ele><time>2026-05-01T09:23:31.156Z</time></trkpt><trkpt lat="45.087615" lon="8.2519383"><ele>346.0</ele><time>2026-05-01T09:23:32.153Z</time></trkpt><trkpt lat="45.0876717" lon="8.25182"><ele>346.0</ele><time>2026-05-01T09:23:33.156Z</time></trkpt><trkpt lat="45.0877283" lon="8.2517033"><ele>346.0</ele><time>2026-05-01T09:23:34.152Z</time></trkpt><trkpt lat="45.0877717" lon="8.251575"><ele>346.0</ele><time>2026-05-01T09:23:35.155Z</time></trkpt><trkpt lat="45.0878083" lon="8.25145"><ele>346.0</ele><time>2026-05-01T09:23:36.15Z</time></trkpt><trkpt lat="45.087835" lon="8.2513233"><ele>346.0</ele><time>2026-05-01T09:23:37.152Z</time></trkpt><trkpt lat="45.087855" lon="8.2512033"><ele>345.8333333333333</ele><time>2026-05-01T09:23:38.155Z</time></trkpt><trkpt lat="45.0878717" lon="8.2510867"><ele>345.66666666666663</ele><time>2026-05-01T09:23:39.149Z</time></trkpt><trkpt lat="45.0878817" lon="8.2509817"><ele>345.5</ele><time>2026-05-01T09:23:40.15Z</time></trkpt><trkpt lat="45.0878783" lon="8.2508783"><ele>345.3333333333333</ele><time>2026-05-01T09:23:41.16Z</time></trkpt><trkpt lat="45.08788" lon="8.2507617"><ele>345.1666666666667</ele><time>2026-05-01T09:23:42.152Z</time></trkpt><trkpt lat="45.0878833" lon="8.2506417"><ele>345.0</ele><time>2026-05-01T09:23:43.157Z</time></trkpt><trkpt lat="45.0878817" lon="8.25052"><ele>345.0</ele><time>2026-05-01T09:23:44.159Z</time></trkpt><trkpt lat="45.0878817" lon="8.2503933"><ele>345.0</ele><time>2026-05-01T09:23:45.155Z</time></trkpt><trkpt lat="45.0878683" lon="8.2502783"><ele>345.0</ele><time>2026-05-01T09:23:46.154Z</time></trkpt><trkpt lat="45.0878633" lon="8.250165"><ele>345.0</ele><time>2026-05-01T09:23:47.157Z</time></trkpt><trkpt lat="45.0878667" lon="8.2500517"><ele>345.0</ele><time>2026-05-01T09:23:48.153Z</time></trkpt><trkpt lat="45.087875" lon="8.2499333"><ele>345.0</ele><time>2026-05-01T09:23:49.157Z</time></trkpt><trkpt lat="45.0878833" lon="8.24981"><ele>346.0</ele><time>2026-05-01T09:23:50.154Z</time></trkpt><trkpt lat="45.0878867" lon="8.2496917"><ele>347.0</ele><time>2026-05-01T09:23:51.156Z</time></trkpt><trkpt lat="45.0878833" lon="8.2495733"><ele>348.0</ele><time>2026-05-01T09:23:52.154Z</time></trkpt><trkpt lat="45.0878733" lon="8.2494467"><ele>349.0</ele><time>2026-05-01T09:23:53.153Z</time></trkpt><trkpt lat="45.0878583" lon="8.2493317"><ele>350.0</ele><time>2026-05-01T09:23:54.156Z</time></trkpt><trkpt lat="45.0878417" lon="8.2492367"><ele>351.0</ele><time>2026-05-01T09:23:55.157Z</time></trkpt><trkpt lat="45.0878117" lon="8.2491483"><ele>351.00000000000006</ele><time>2026-05-01T09:23:56.154Z</time></trkpt><trkpt lat="45.08778" lon="8.249065"><ele>351.0</ele><time>2026-05-01T09:23:57.157Z</time></trkpt><trkpt lat="45.0877383" lon="8.248995"><ele>351.0</ele><time>2026-05-01T09:23:58.151Z</time></trkpt><trkpt lat="45.0876933" lon="8.2489283"><ele>351.0</ele><time>2026-05-01T09:23:59.156Z</time></trkpt><trkpt lat="45.08764" lon="8.24886"><ele>351.0</ele><time>2026-05-01T09:24:00.153Z</time></trkpt><trkpt lat="45.0875883" lon="8.2487833"><ele>351.00000000000006</ele><time>2026-05-01T09:24:01.15Z</time></trkpt><trkpt lat="45.08754" lon="8.2487017"><ele>351.0</ele><time>2026-05-01T09:24:02.155Z</time></trkpt><trkpt lat="45.0874983" lon="8.24862"><ele>351.5714285714286</ele><time>2026-05-01T09:24:03.151Z</time></trkpt><trkpt lat="45.087465" lon="8.2485317"><ele>352.14285714285717</ele><time>2026-05-01T09:24:04.153Z</time></trkpt><trkpt lat="45.0874367" lon="8.2484333"><ele>352.7142857142857</ele><time>2026-05-01T09:24:05.152Z</time></trkpt><trkpt lat="45.08742" lon="8.2483317"><ele>353.28571428571433</ele><time>2026-05-01T09:24:06.155Z</time></trkpt><trkpt lat="45.0874133" lon="8.248225"><ele>353.8571428571429</ele><time>2026-05-01T09:24:07.152Z</time></trkpt><trkpt lat="45.08741" lon="8.24812"><ele>354.42857142857144</ele><time>2026-05-01T09:24:08.151Z</time></trkpt><trkpt lat="45.0874117" lon="8.2480217"><ele>355.0</ele><time>2026-05-01T09:24:09.154Z</time></trkpt><trkpt lat="45.08742" lon="8.247915"><ele>354.3333333333333</ele><time>2026-05-01T09:24:10.152Z</time></trkpt><trkpt lat="45.0874283" lon="8.2478067"><ele>353.66666666666663</ele><time>2026-05-01T09:24:11.153Z</time></trkpt><trkpt lat="45.0874367" lon="8.247695"><ele>353.0</ele><time>2026-05-01T09:24:12.157Z</time></trkpt><trkpt lat="45.0874467" lon="8.24758"><ele>352.3333333333333</ele><time>2026-05-01T09:24:13.152Z</time></trkpt><trkpt lat="45.0874583" lon="8.2474583"><ele>351.6666666666667</ele><time>2026-05-01T09:24:14.151Z</time></trkpt><trkpt lat="45.087465" lon="8.247335"><ele>351.0</ele><time>2026-05-01T09:24:15.152Z</time></trkpt><trkpt lat="45.0874733" lon="8.2472067"><ele>350.8</ele><time>2026-05-01T09:24:16.151Z</time></trkpt><trkpt lat="45.0874833" lon="8.24708"><ele>350.6</ele><time>2026-05-01T09:24:17.152Z</time></trkpt><trkpt lat="45.0874983" lon="8.2469517"><ele>350.4</ele><time>2026-05-01T09:24:18.161Z</time></trkpt><trkpt lat="45.0875233" lon="8.24683"><ele>350.2</ele><time>2026-05-01T09:24:19.154Z</time></trkpt><trkpt lat="45.08756" lon="8.2467167"><ele>350.0</ele><time>2026-05-01T09:24:20.15Z</time></trkpt><trkpt lat="45.0876117" lon="8.2466117"><ele>350.0</ele><time>2026-05-01T09:24:21.155Z</time></trkpt><trkpt lat="45.0876717" lon="8.2465033"><ele>350.0</ele><time>2026-05-01T09:24:22.156Z</time></trkpt><trkpt lat="45.0877317" lon="8.246395"><ele>350.0</ele><time>2026-05-01T09:24:23.151Z</time></trkpt><trkpt lat="45.0877917" lon="8.24629"><ele>350.0</ele><time>2026-05-01T09:24:24.155Z</time></trkpt><trkpt lat="45.08785" lon="8.2461883"><ele>350.0</ele><time>2026-05-01T09:24:25.156Z</time></trkpt><trkpt lat="45.0879017" lon="8.2460983"><ele>349.0</ele><time>2026-05-01T09:24:26.157Z</time></trkpt><trkpt lat="45.0879417" lon="8.246015"><ele>348.0</ele><time>2026-05-01T09:24:27.155Z</time></trkpt><trkpt lat="45.08798" lon="8.245935"><ele>347.0</ele><time>2026-05-01T09:24:28.152Z</time></trkpt><trkpt lat="45.08802" lon="8.245855"><ele>346.0</ele><time>2026-05-01T09:24:29.154Z</time></trkpt><trkpt lat="45.0880567" lon="8.2457717"><ele>345.0</ele><time>2026-05-01T09:24:30.151Z</time></trkpt><trkpt lat="45.088085" lon="8.245675"><ele>344.0</ele><time>2026-05-01T09:24:31.158Z</time></trkpt><trkpt lat="45.0881083" lon="8.2455717"><ele>343.0</ele><time>2026-05-01T09:24:32.154Z</time></trkpt><trkpt lat="45.0881267" lon="8.2454683"><ele>342.0</ele><time>2026-05-01T09:24:33.16Z</time></trkpt><trkpt lat="45.0881467" lon="8.2453667"><ele>341.0</ele><time>2026-05-01T09:24:34.152Z</time></trkpt><trkpt lat="45.0881633" lon="8.2452683"><ele>340.0</ele><time>2026-05-01T09:24:35.156Z</time></trkpt><trkpt lat="45.0881833" lon="8.2451783"><ele>339.0</ele><time>2026-05-01T09:24:36.153Z</time></trkpt><trkpt lat="45.0882067" lon="8.2450933"><ele>338.0</ele><time>2026-05-01T09:24:37.153Z</time></trkpt><trkpt lat="45.088235" lon="8.2450117"><ele>337.0</ele><time>2026-05-01T09:24:38.152Z</time></trkpt><trkpt lat="45.0882717" lon="8.244935"><ele>336.0</ele><time>2026-05-01T09:24:39.157Z</time></trkpt><trkpt lat="45.0883133" lon="8.2448567"><ele>337.2857142857143</ele><time>2026-05-01T09:24:40.153Z</time></trkpt><trkpt lat="45.0883633" lon="8.244785"><ele>338.57142857142856</ele><time>2026-05-01T09:24:41.159Z</time></trkpt><trkpt lat="45.08842" lon="8.244715"><ele>339.8571428571429</ele><time>2026-05-01T09:24:42.154Z</time></trkpt><trkpt lat="45.0884767" lon="8.2446533"><ele>341.1428571428571</ele><time>2026-05-01T09:24:43.154Z</time></trkpt><trkpt lat="45.0885333" lon="8.24459"><ele>342.42857142857144</ele><time>2026-05-01T09:24:44.157Z</time></trkpt><trkpt lat="45.0885917" lon="8.24452"><ele>343.7142857142857</ele><time>2026-05-01T09:24:45.156Z</time></trkpt><trkpt lat="45.088645" lon="8.24444"><ele>345.0</ele><time>2026-05-01T09:24:46.152Z</time></trkpt><trkpt lat="45.0886967" lon="8.24435"><ele>345.0</ele><time>2026-05-01T09:24:47.156Z</time></trkpt><trkpt lat="45.0887417" lon="8.244255"><ele>345.0</ele><time>2026-05-01T09:24:48.15Z</time></trkpt><trkpt lat="45.08878" lon="8.244165"><ele>345.0</ele><time>2026-05-01T09:24:49.154Z</time></trkpt><trkpt lat="45.0888117" lon="8.2440733"><ele>345.0</ele><time>2026-05-01T09:24:50.153Z</time></trkpt><trkpt lat="45.0888383" lon="8.243975"><ele>345.0</ele><time>2026-05-01T09:24:51.153Z</time></trkpt><trkpt lat="45.08886" lon="8.2438717"><ele>345.0</ele><time>2026-05-01T09:24:52.153Z</time></trkpt><trkpt lat="45.08888" lon="8.243765"><ele>343.1666666666667</ele><time>2026-05-01T09:24:53.154Z</time></trkpt><trkpt lat="45.0889017" lon="8.24366"><ele>341.3333333333333</ele><time>2026-05-01T09:24:54.151Z</time></trkpt><trkpt lat="45.088915" lon="8.2435633"><ele>339.5</ele><time>2026-05-01T09:24:55.154Z</time></trkpt><trkpt lat="45.088925" lon="8.2434717"><ele>337.66666666666663</ele><time>2026-05-01T09:24:56.154Z</time></trkpt><trkpt lat="45.0889233" lon="8.243315"><ele>335.8333333333333</ele><time>2026-05-01T09:24:58.158Z</time></trkpt><trkpt lat="45.0888567" lon="8.2432433"><ele>334.0</ele><time>2026-05-01T09:25:00.152Z</time></trkpt><trkpt lat="45.0887583" lon="8.2432117"><ele>334.0</ele><time>2026-05-01T09:25:02.153Z</time></trkpt><trkpt lat="45.088695" lon="8.243195"><ele>334.0</ele><time>2026-05-01T09:25:03.154Z</time></trkpt><trkpt lat="45.0886267" lon="8.2431817"><ele>334.0</ele><time>2026-05-01T09:25:04.152Z</time></trkpt><trkpt lat="45.08856" lon="8.2431733"><ele>334.0</ele><time>2026-05-01T09:25:05.157Z</time></trkpt><trkpt lat="45.0884883" lon="8.2431717"><ele>334.0</ele><time>2026-05-01T09:25:06.152Z</time></trkpt><trkpt lat="45.0884167" lon="8.2431717"><ele>334.0</ele><time>2026-05-01T09:25:07.154Z</time></trkpt><trkpt lat="45.0883467" lon="8.24317"><ele>334.0</ele><time>2026-05-01T09:25:08.154Z</time></trkpt><trkpt lat="45.0882267" lon="8.2431667"><ele>331.6</ele><time>2026-05-01T09:25:10.154Z</time></trkpt><trkpt lat="45.088115" lon="8.2431883"><ele>329.2</ele><time>2026-05-01T09:25:12.155Z</time></trkpt><trkpt lat="45.087995" lon="8.2432367"><ele>326.8</ele><time>2026-05-01T09:25:14.158Z</time></trkpt><trkpt lat="45.0879283" lon="8.2432617"><ele>324.40000000000003</ele><time>2026-05-01T09:25:15.155Z</time></trkpt><trkpt lat="45.0878567" lon="8.2432883"><ele>322.0</ele><time>2026-05-01T09:25:16.154Z</time></trkpt><trkpt lat="45.08778" lon="8.2433183"><ele>322.0</ele><time>2026-05-01T09:25:17.152Z</time></trkpt><trkpt lat="45.0876967" lon="8.2433467"><ele>322.0</ele><time>2026-05-01T09:25:18.156Z</time></trkpt><trkpt lat="45.0876083" lon="8.2433833"><ele>322.0</ele><time>2026-05-01T09:25:19.155Z</time></trkpt><trkpt lat="45.0875217" lon="8.2434283"><ele>322.0</ele><time>2026-05-01T09:25:20.159Z</time></trkpt><trkpt lat="45.0874367" lon="8.243485"><ele>322.0</ele><time>2026-05-01T09:25:21.152Z</time></trkpt><trkpt lat="45.0873533" lon="8.24355"><ele>319.8</ele><time>2026-05-01T09:25:22.153Z</time></trkpt><trkpt lat="45.0872717" lon="8.2436167"><ele>317.6</ele><time>2026-05-01T09:25:23.158Z</time></trkpt><trkpt lat="45.0871867" lon="8.2436767"><ele>315.40000000000003</ele><time>2026-05-01T09:25:24.157Z</time></trkpt><trkpt lat="45.0871" lon="8.2437333"><ele>313.20000000000005</ele><time>2026-05-01T09:25:25.157Z</time></trkpt><trkpt lat="45.08701" lon="8.243785"><ele>311.0</ele><time>2026-05-01T09:25:26.158Z</time></trkpt><trkpt lat="45.0869183" lon="8.2438167"><ele>311.0</ele><time>2026-05-01T09:25:27.156Z</time></trkpt><trkpt lat="45.0868283" lon="8.2438317"><ele>311.0</ele><time>2026-05-01T09:25:28.158Z</time></trkpt><trkpt lat="45.0867483" lon="8.2438333"><ele>311.0</ele><time>2026-05-01T09:25:29.156Z</time></trkpt><trkpt lat="45.0866733" lon="8.2438267"><ele>311.0</ele><time>2026-05-01T09:25:30.154Z</time></trkpt><trkpt lat="45.0865967" lon="8.2438117"><ele>311.0</ele><time>2026-05-01T09:25:31.159Z</time></trkpt><trkpt lat="45.08652" lon="8.2437983"><ele>311.0</ele><time>2026-05-01T09:25:32.155Z</time></trkpt><trkpt lat="45.0864417" lon="8.24379"><ele>310.5</ele><time>2026-05-01T09:25:33.159Z</time></trkpt><trkpt lat="45.0863583" lon="8.2437817"><ele>310.0</ele><time>2026-05-01T09:25:34.153Z</time></trkpt><trkpt lat="45.0862717" lon="8.2437783"><ele>309.5</ele><time>2026-05-01T09:25:35.157Z</time></trkpt><trkpt lat="45.086185" lon="8.2437767"><ele>309.0</ele><time>2026-05-01T09:25:36.156Z</time></trkpt><trkpt lat="45.0860967" lon="8.243775"><ele>308.5</ele><time>2026-05-01T09:25:37.154Z</time></trkpt><trkpt lat="45.08601" lon="8.2437717"><ele>308.0</ele><time>2026-05-01T09:25:38.156Z</time></trkpt><trkpt lat="45.0859217" lon="8.2437683"><ele>308.0</ele><time>2026-05-01T09:25:39.159Z</time></trkpt><trkpt lat="45.0858317" lon="8.2437617"><ele>308.0</ele><time>2026-05-01T09:25:40.157Z</time></trkpt><trkpt lat="45.0857417" lon="8.2437533"><ele>308.0</ele><time>2026-05-01T09:25:41.157Z</time></trkpt><trkpt lat="45.0856533" lon="8.2437433"><ele>308.0</ele><time>2026-05-01T09:25:42.155Z</time></trkpt><trkpt lat="45.0855683" lon="8.2437367"><ele>308.0</ele><time>2026-05-01T09:25:43.155Z</time></trkpt><trkpt lat="45.0854867" lon="8.2437283"><ele>308.0</ele><time>2026-05-01T09:25:44.159Z</time></trkpt><trkpt lat="45.0854067" lon="8.2437167"><ele>307.4</ele><time>2026-05-01T09:25:45.153Z</time></trkpt><trkpt lat="45.0853317" lon="8.2437033"><ele>306.8</ele><time>2026-05-01T09:25:46.154Z</time></trkpt><trkpt lat="45.0852583" lon="8.2436867"><ele>306.2</ele><time>2026-05-01T09:25:47.155Z</time></trkpt><trkpt lat="45.085185" lon="8.2436733"><ele>305.6</ele><time>2026-05-01T09:25:48.154Z</time></trkpt><trkpt lat="45.0850767" lon="8.2436833"><ele>305.0</ele><time>2026-05-01T09:25:50.151Z</time></trkpt><trkpt lat="45.0849617" lon="8.24376"><ele>306.0</ele><time>2026-05-01T09:25:52.156Z</time></trkpt><trkpt lat="45.0849" lon="8.2438167"><ele>307.0</ele><time>2026-05-01T09:25:53.155Z</time></trkpt><trkpt lat="45.0848233" lon="8.243885"><ele>308.0</ele><time>2026-05-01T09:25:54.151Z</time></trkpt><trkpt lat="45.084735" lon="8.2439617"><ele>309.0</ele><time>2026-05-01T09:25:55.15Z</time></trkpt><trkpt lat="45.08466" lon="8.2440267"><ele>310.0</ele><time>2026-05-01T09:25:56.151Z</time></trkpt><trkpt lat="45.0846017" lon="8.244085"><ele>311.0</ele><time>2026-05-01T09:25:57.158Z</time></trkpt><trkpt lat="45.08455" lon="8.2441483"><ele>308.0</ele><time>2026-05-01T09:25:58.152Z</time></trkpt><trkpt lat="45.0844933" lon="8.2442717"><ele>305.0</ele><time>2026-05-01T09:26:00.153Z</time></trkpt><trkpt lat="45.084495" lon="8.244425"><ele>302.0</ele><time>2026-05-01T09:26:02.153Z</time></trkpt><trkpt lat="45.0845267" lon="8.2445217"><ele>299.0</ele><time>2026-05-01T09:26:03.153Z</time></trkpt><trkpt lat="45.08456" lon="8.24461"><ele>296.0</ele><time>2026-05-01T09:26:04.158Z</time></trkpt><trkpt lat="45.0845883" lon="8.24477"><ele>294.14285714285717</ele><time>2026-05-01T09:26:06.15Z</time></trkpt><trkpt lat="45.08455" lon="8.2448833"><ele>292.2857142857143</ele><time>2026-05-01T09:26:08.158Z</time></trkpt><trkpt lat="45.0845133" lon="8.2449583"><ele>290.42857142857144</ele><time>2026-05-01T09:26:09.155Z</time></trkpt><trkpt lat="45.0844617" lon="8.2450367"><ele>288.57142857142856</ele><time>2026-05-01T09:26:10.152Z</time></trkpt><trkpt lat="45.0844083" lon="8.2451"><ele>286.7142857142857</ele><time>2026-05-01T09:26:11.159Z</time></trkpt><trkpt lat="45.0843467" lon="8.24515"><ele>284.8571428571429</ele><time>2026-05-01T09:26:12.151Z</time></trkpt><trkpt lat="45.0842833" lon="8.245175"><ele>283.0</ele><time>2026-05-01T09:26:13.154Z</time></trkpt><trkpt lat="45.0842183" lon="8.2452"><ele>283.0</ele><time>2026-05-01T09:26:14.155Z</time></trkpt><trkpt lat="45.0841567" lon="8.2452283"><ele>283.0</ele><time>2026-05-01T09:26:15.153Z</time></trkpt><trkpt lat="45.084065" lon="8.2453183"><ele>283.0</ele><time>2026-05-01T09:26:17.156Z</time></trkpt><trkpt lat="45.08401" lon="8.2453783"><ele>283.0</ele><time>2026-05-01T09:26:18.159Z</time></trkpt><trkpt lat="45.083965" lon="8.2454483"><ele>283.0</ele><time>2026-05-01T09:26:19.157Z</time></trkpt><trkpt lat="45.083915" lon="8.2455383"><ele>283.0</ele><time>2026-05-01T09:26:20.156Z</time></trkpt><trkpt lat="45.0838617" lon="8.2456317"><ele>281.8333333333333</ele><time>2026-05-01T09:26:21.154Z</time></trkpt><trkpt lat="45.08381" lon="8.245715"><ele>280.66666666666663</ele><time>2026-05-01T09:26:22.158Z</time></trkpt><trkpt lat="45.08373" lon="8.24583"><ele>279.5</ele><time>2026-05-01T09:26:23.156Z</time></trkpt><trkpt lat="45.0836767" lon="8.2459217"><ele>278.3333333333333</ele><time>2026-05-01T09:26:24.156Z</time></trkpt><trkpt lat="45.0836233" lon="8.246"><ele>277.1666666666667</ele><time>2026-05-01T09:26:25.154Z</time></trkpt><trkpt lat="45.0835683" lon="8.2460667"><ele>276.0</ele><time>2026-05-01T09:26:26.159Z</time></trkpt><trkpt lat="45.08351" lon="8.2461267"><ele>276.0</ele><time>2026-05-01T09:26:27.15Z</time></trkpt><trkpt lat="45.083435" lon="8.246175"><ele>276.0</ele><time>2026-05-01T09:26:28.155Z</time></trkpt><trkpt lat="45.0833583" lon="8.2462083"><ele>276.0</ele><time>2026-05-01T09:26:29.152Z</time></trkpt><trkpt lat="45.0832817" lon="8.2462317"><ele>276.0</ele><time>2026-05-01T09:26:30.155Z</time></trkpt><trkpt lat="45.0832033" lon="8.2462483"><ele>276.0</ele><time>2026-05-01T09:26:31.153Z</time></trkpt><trkpt lat="45.08312" lon="8.246245"><ele>276.0</ele><time>2026-05-01T09:26:32.153Z</time></trkpt><trkpt lat="45.08304" lon="8.2462183"><ele>274.6</ele><time>2026-05-01T09:26:33.159Z</time></trkpt><trkpt lat="45.082955" lon="8.2461817"><ele>273.20000000000005</ele><time>2026-05-01T09:26:34.151Z</time></trkpt><trkpt lat="45.0828667" lon="8.2461267"><ele>271.79999999999995</ele><time>2026-05-01T09:26:35.156Z</time></trkpt><trkpt lat="45.0827767" lon="8.2460633"><ele>270.4</ele><time>2026-05-01T09:26:36.158Z</time></trkpt><trkpt lat="45.08269" lon="8.2460033"><ele>269.0</ele><time>2026-05-01T09:26:37.153Z</time></trkpt><trkpt lat="45.0826067" lon="8.2459483"><ele>269.0</ele><time>2026-05-01T09:26:38.156Z</time></trkpt><trkpt lat="45.0825267" lon="8.245895"><ele>269.0</ele><time>2026-05-01T09:26:39.15Z</time></trkpt><trkpt lat="45.0824433" lon="8.2458483"><ele>269.0</ele><time>2026-05-01T09:26:40.155Z</time></trkpt><trkpt lat="45.0823533" lon="8.2458133"><ele>269.0</ele><time>2026-05-01T09:26:41.152Z</time></trkpt><trkpt lat="45.0822583" lon="8.24579"><ele>269.0</ele><time>2026-05-01T09:26:42.155Z</time></trkpt><trkpt lat="45.08216" lon="8.2457717"><ele>268.8</ele><time>2026-05-01T09:26:43.151Z</time></trkpt><trkpt lat="45.0820583" lon="8.24576"><ele>268.59999999999997</ele><time>2026-05-01T09:26:44.153Z</time></trkpt><trkpt lat="45.0819533" lon="8.24575"><ele>268.4</ele><time>2026-05-01T09:26:45.158Z</time></trkpt><trkpt lat="45.0818467" lon="8.2457483"><ele>268.2</ele><time>2026-05-01T09:26:46.153Z</time></trkpt><trkpt lat="45.0817367" lon="8.2457483"><ele>268.0</ele><time>2026-05-01T09:26:47.155Z</time></trkpt><trkpt lat="45.0816267" lon="8.24575"><ele>265.8</ele><time>2026-05-01T09:26:48.157Z</time></trkpt><trkpt lat="45.0815117" lon="8.2457533"><ele>263.6</ele><time>2026-05-01T09:26:49.154Z</time></trkpt><trkpt lat="45.0813983" lon="8.24575"><ele>261.4</ele><time>2026-05-01T09:26:50.155Z</time></trkpt><trkpt lat="45.0812883" lon="8.245745"><ele>259.2</ele><time>2026-05-01T09:26:51.153Z</time></trkpt><trkpt lat="45.0811817" lon="8.2457333"><ele>257.0</ele><time>2026-05-01T09:26:52.155Z</time></trkpt><trkpt lat="45.0810717" lon="8.2457217"><ele>257.0</ele><time>2026-05-01T09:26:53.153Z</time></trkpt><trkpt lat="45.080965" lon="8.2457033"><ele>257.0</ele><time>2026-05-01T09:26:54.155Z</time></trkpt><trkpt lat="45.0808567" lon="8.24568"><ele>257.0</ele><time>2026-05-01T09:26:55.152Z</time></trkpt><trkpt lat="45.08075" lon="8.2456633"><ele>257.0</ele><time>2026-05-01T09:26:56.152Z</time></trkpt><trkpt lat="45.0806433" lon="8.2456367"><ele>257.0</ele><time>2026-05-01T09:26:57.154Z</time></trkpt><trkpt lat="45.0805333" lon="8.2456083"><ele>259.6</ele><time>2026-05-01T09:26:58.156Z</time></trkpt><trkpt lat="45.0804267" lon="8.24557"><ele>262.2</ele><time>2026-05-01T09:26:59.154Z</time></trkpt><trkpt lat="45.0803217" lon="8.2455217"><ele>264.8</ele><time>2026-05-01T09:27:00.155Z</time></trkpt><trkpt lat="45.0802167" lon="8.245475"><ele>267.4</ele><time>2026-05-01T09:27:01.158Z</time></trkpt><trkpt lat="45.080115" lon="8.2454267"><ele>270.0</ele><time>2026-05-01T09:27:02.159Z</time></trkpt><trkpt lat="45.0800133" lon="8.2453783"><ele>268.8</ele><time>2026-05-01T09:27:03.152Z</time></trkpt><trkpt lat="45.0799133" lon="8.2453267"><ele>267.6</ele><time>2026-05-01T09:27:04.155Z</time></trkpt><trkpt lat="45.079815" lon="8.2452733"><ele>266.4</ele><time>2026-05-01T09:27:05.154Z</time></trkpt><trkpt lat="45.07972" lon="8.2452117"><ele>265.2</ele><time>2026-05-01T09:27:06.15Z</time></trkpt><trkpt lat="45.0796267" lon="8.2451467"><ele>264.0</ele><time>2026-05-01T09:27:07.152Z</time></trkpt><trkpt lat="45.0795317" lon="8.2450817"><ele>264.0</ele><time>2026-05-01T09:27:08.151Z</time></trkpt><trkpt lat="45.0794383" lon="8.245015"><ele>264.0</ele><time>2026-05-01T09:27:09.15Z</time></trkpt><trkpt lat="45.0793433" lon="8.2449583"><ele>264.0</ele><time>2026-05-01T09:27:10.151Z</time></trkpt><trkpt lat="45.0792467" lon="8.24491"><ele>264.0</ele><time>2026-05-01T09:27:11.154Z</time></trkpt><trkpt lat="45.0791467" lon="8.2448717"><ele>264.0</ele><time>2026-05-01T09:27:12.156Z</time></trkpt><trkpt lat="45.0790567" lon="8.2448267"><ele>264.1666666666667</ele><time>2026-05-01T09:27:13.158Z</time></trkpt><trkpt lat="45.0789733" lon="8.2447783"><ele>264.3333333333333</ele><time>2026-05-01T09:27:14.154Z</time></trkpt><trkpt lat="45.0788917" lon="8.2447233"><ele>264.5</ele><time>2026-05-01T09:27:15.152Z</time></trkpt><trkpt lat="45.0788167" lon="8.24466"><ele>264.66666666666663</ele><time>2026-05-01T09:27:16.158Z</time></trkpt><trkpt lat="45.0787417" lon="8.24459"><ele>264.8333333333333</ele><time>2026-05-01T09:27:17.152Z</time></trkpt><trkpt lat="45.0786883" lon="8.2444967"><ele>265.0</ele><time>2026-05-01T09:27:18.152Z</time></trkpt><trkpt lat="45.0786283" lon="8.244415"><ele>265.0</ele><time>2026-05-01T09:27:19.158Z</time></trkpt><trkpt lat="45.0785833" lon="8.2443033"><ele>265.0</ele><time>2026-05-01T09:27:20.152Z</time></trkpt><trkpt lat="45.0785217" lon="8.2442083"><ele>265.0</ele><time>2026-05-01T09:27:21.154Z</time></trkpt><trkpt lat="45.078455" lon="8.24411"><ele>265.0</ele><time>2026-05-01T09:27:22.151Z</time></trkpt><trkpt lat="45.0783867" lon="8.2440117"><ele>265.0</ele><time>2026-05-01T09:27:23.152Z</time></trkpt><trkpt lat="45.0783133" lon="8.2439183"><ele>265.0</ele><time>2026-05-01T09:27:24.153Z</time></trkpt><trkpt lat="45.0782433" lon="8.2438133"><ele>265.0</ele><time>2026-05-01T09:27:25.15Z</time></trkpt><trkpt lat="45.078175" lon="8.2437067"><ele>265.0</ele><time>2026-05-01T09:27:26.153Z</time></trkpt><trkpt lat="45.0781117" lon="8.2435933"><ele>265.0</ele><time>2026-05-01T09:27:27.15Z</time></trkpt><trkpt lat="45.07805" lon="8.2434733"><ele>265.0</ele><time>2026-05-01T09:27:28.151Z</time></trkpt><trkpt lat="45.077985" lon="8.2433567"><ele>265.0</ele><time>2026-05-01T09:27:29.151Z</time></trkpt><trkpt lat="45.07792" lon="8.2432467"><ele>265.0</ele><time>2026-05-01T09:27:30.152Z</time></trkpt><trkpt lat="45.0778583" lon="8.24314"><ele>265.0</ele><time>2026-05-01T09:27:31.153Z</time></trkpt><trkpt lat="45.0778033" lon="8.2430433"><ele>265.0</ele><time>2026-05-01T09:27:32.153Z</time></trkpt><trkpt lat="45.0777567" lon="8.2429583"><ele>265.0</ele><time>2026-05-01T09:27:33.154Z</time></trkpt><trkpt lat="45.0777167" lon="8.2428783"><ele>265.0</ele><time>2026-05-01T09:27:34.153Z</time></trkpt><trkpt lat="45.0776717" lon="8.2428"><ele>265.4</ele><time>2026-05-01T09:27:35.155Z</time></trkpt><trkpt lat="45.0776167" lon="8.2427133"><ele>265.8</ele><time>2026-05-01T09:27:36.156Z</time></trkpt><trkpt lat="45.07755" lon="8.24262"><ele>266.2</ele><time>2026-05-01T09:27:37.154Z</time></trkpt><trkpt lat="45.0774867" lon="8.2425217"><ele>266.6</ele><time>2026-05-01T09:27:38.155Z</time></trkpt><trkpt lat="45.0774183" lon="8.2424183"><ele>267.0</ele><time>2026-05-01T09:27:39.152Z</time></trkpt><trkpt lat="45.07735" lon="8.24231"><ele>267.8333333333333</ele><time>2026-05-01T09:27:40.156Z</time></trkpt><trkpt lat="45.0772867" lon="8.2421983"><ele>268.6666666666667</ele><time>2026-05-01T09:27:41.154Z</time></trkpt><trkpt lat="45.0772217" lon="8.2420967"><ele>269.5</ele><time>2026-05-01T09:27:42.152Z</time></trkpt><trkpt lat="45.0771567" lon="8.2420017"><ele>270.33333333333337</ele><time>2026-05-01T09:27:43.152Z</time></trkpt><trkpt lat="45.0770983" lon="8.2419217"><ele>271.1666666666667</ele><time>2026-05-01T09:27:44.152Z</time></trkpt><trkpt lat="45.0770483" lon="8.2418533"><ele>272.0</ele><time>2026-05-01T09:27:45.157Z</time></trkpt><trkpt lat="45.0769383" lon="8.2417883"><ele>272.0</ele><time>2026-05-01T09:27:47.151Z</time></trkpt><trkpt lat="45.0768683" lon="8.2418217"><ele>272.0</ele><time>2026-05-01T09:27:49.155Z</time></trkpt><trkpt lat="45.0768283" lon="8.2419783"><ele>272.0</ele><time>2026-05-01T09:27:51.152Z</time></trkpt><trkpt lat="45.07681" lon="8.2420867"><ele>272.0</ele><time>2026-05-01T09:27:52.157Z</time></trkpt><trkpt lat="45.0767817" lon="8.2421967"><ele>272.0</ele><time>2026-05-01T09:27:53.152Z</time></trkpt><trkpt lat="45.07675" lon="8.24231"><ele>272.0</ele><time>2026-05-01T09:27:54.152Z</time></trkpt><trkpt lat="45.0767233" lon="8.2424333"><ele>271.0</ele><time>2026-05-01T09:27:55.154Z</time></trkpt><trkpt lat="45.0766983" lon="8.24256"><ele>270.0</ele><time>2026-05-01T09:27:56.153Z</time></trkpt><trkpt lat="45.0766783" lon="8.2427"><ele>269.0</ele><time>2026-05-01T09:27:57.158Z</time></trkpt><trkpt lat="45.07667" lon="8.2428467"><ele>268.0</ele><time>2026-05-01T09:27:58.151Z</time></trkpt><trkpt lat="45.0766783" lon="8.24299"><ele>267.0</ele><time>2026-05-01T09:27:59.152Z</time></trkpt><trkpt lat="45.0766967" lon="8.24314"><ele>264.8</ele><time>2026-05-01T09:28:00.156Z</time></trkpt><trkpt lat="45.0767217" lon="8.2432867"><ele>262.6</ele><time>2026-05-01T09:28:01.155Z</time></trkpt><trkpt lat="45.0767467" lon="8.24343"><ele>260.40000000000003</ele><time>2026-05-01T09:28:02.153Z</time></trkpt><trkpt lat="45.076775" lon="8.24357"><ele>258.2</ele><time>2026-05-01T09:28:03.15Z</time></trkpt><trkpt lat="45.0767967" lon="8.2437167"><ele>256.0</ele><time>2026-05-01T09:28:04.151Z</time></trkpt><trkpt lat="45.0768083" lon="8.24387"><ele>254.20000000000002</ele><time>2026-05-01T09:28:05.155Z</time></trkpt><trkpt lat="45.0768167" lon="8.2440233"><ele>252.40000000000003</ele><time>2026-05-01T09:28:06.152Z</time></trkpt><trkpt lat="45.076815" lon="8.2441717"><ele>250.6</ele><time>2026-05-01T09:28:07.158Z</time></trkpt><trkpt lat="45.076805" lon="8.2443117"><ele>248.8</ele><time>2026-05-01T09:28:08.151Z</time></trkpt><trkpt lat="45.0767883" lon="8.2444483"><ele>247.0</ele><time>2026-05-01T09:28:09.151Z</time></trkpt><trkpt lat="45.07677" lon="8.2445733"><ele>246.99999999999997</ele><time>2026-05-01T09:28:10.155Z</time></trkpt><trkpt lat="45.0767517" lon="8.2446867"><ele>247.0</ele><time>2026-05-01T09:28:11.154Z</time></trkpt><trkpt lat="45.0767367" lon="8.24478"><ele>247.0</ele><time>2026-05-01T09:28:12.156Z</time></trkpt><trkpt lat="45.0767067" lon="8.2448983"><ele>247.0</ele><time>2026-05-01T09:28:14.154Z</time></trkpt><trkpt lat="45.0766567" lon="8.244955"><ele>246.99999999999997</ele><time>2026-05-01T09:28:16.157Z</time></trkpt><trkpt lat="45.07659" lon="8.2449267"><ele>247.0</ele><time>2026-05-01T09:28:18.154Z</time></trkpt><trkpt lat="45.0765117" lon="8.24484"><ele>246.99999999999997</ele><time>2026-05-01T09:28:20.151Z</time></trkpt><trkpt lat="45.0764383" lon="8.2448533"><ele>247.0</ele><time>2026-05-01T09:28:23.151Z</time></trkpt><trkpt lat="45.0765217" lon="8.2449167"><ele>247.0</ele><time>2026-05-01T09:28:27.151Z</time></trkpt><trkpt lat="45.076615" lon="8.2449217"><ele>247.0</ele><time>2026-05-01T09:28:29.155Z</time></trkpt><trkpt lat="45.076695" lon="8.2449233"><ele>246.99999999999997</ele><time>2026-05-01T09:28:32.152Z</time></trkpt><trkpt lat="45.076745" lon="8.2448583"><ele>247.0</ele><time>2026-05-01T09:28:34.153Z</time></trkpt><trkpt lat="45.0767733" lon="8.2446983"><ele>247.0</ele><time>2026-05-01T09:28:36.152Z</time></trkpt><trkpt lat="45.076785" lon="8.2445717"><ele>247.0</ele><time>2026-05-01T09:28:37.155Z</time></trkpt><trkpt lat="45.0768017" lon="8.2444217"><ele>247.0</ele><time>2026-05-01T09:28:38.155Z</time></trkpt><trkpt lat="45.0768183" lon="8.2442633"><ele>247.0</ele><time>2026-05-01T09:28:39.151Z</time></trkpt><trkpt lat="45.0768283" lon="8.2441"><ele>247.0</ele><time>2026-05-01T09:28:40.154Z</time></trkpt><trkpt lat="45.0768267" lon="8.243925"><ele>249.25</ele><time>2026-05-01T09:28:41.155Z</time></trkpt><trkpt lat="45.076815" lon="8.2437467"><ele>251.5</ele><time>2026-05-01T09:28:42.151Z</time></trkpt><trkpt lat="45.0767967" lon="8.2435767"><ele>253.75</ele><time>2026-05-01T09:28:43.152Z</time></trkpt><trkpt lat="45.0767667" lon="8.243405"><ele>256.0</ele><time>2026-05-01T09:28:44.151Z</time></trkpt><trkpt lat="45.076735" lon="8.2432333"><ele>258.2</ele><time>2026-05-01T09:28:45.155Z</time></trkpt><trkpt lat="45.0767067" lon="8.24307"><ele>260.40000000000003</ele><time>2026-05-01T09:28:46.153Z</time></trkpt><trkpt lat="45.0766867" lon="8.2429167"><ele>262.6</ele><time>2026-05-01T09:28:47.154Z</time></trkpt><trkpt lat="45.0766817" lon="8.2427717"><ele>264.8</ele><time>2026-05-01T09:28:48.151Z</time></trkpt><trkpt lat="45.076695" lon="8.242635"><ele>267.0</ele><time>2026-05-01T09:28:49.156Z</time></trkpt><trkpt lat="45.0767217" lon="8.2425017"><ele>267.0</ele><time>2026-05-01T09:28:50.152Z</time></trkpt><trkpt lat="45.0767533" lon="8.242365"><ele>267.0</ele><time>2026-05-01T09:28:51.153Z</time></trkpt><trkpt lat="45.0767867" lon="8.2422317"><ele>267.0</ele><time>2026-05-01T09:28:52.154Z</time></trkpt><trkpt lat="45.0768217" lon="8.24211"><ele>267.0</ele><time>2026-05-01T09:28:53.155Z</time></trkpt><trkpt lat="45.076855" lon="8.2420133"><ele>267.0</ele><time>2026-05-01T09:28:54.152Z</time></trkpt><trkpt lat="45.0768917" lon="8.241895"><ele>268.0</ele><time>2026-05-01T09:28:56.154Z</time></trkpt><trkpt lat="45.0768217" lon="8.2418083"><ele>269.0</ele><time>2026-05-01T09:29:00.154Z</time></trkpt><trkpt lat="45.0767067" lon="8.241785"><ele>270.0</ele><time>2026-05-01T09:29:02.152Z</time></trkpt><trkpt lat="45.0766183" lon="8.2417817"><ele>271.0</ele><time>2026-05-01T09:29:03.153Z</time></trkpt><trkpt lat="45.076515" lon="8.2417767"><ele>272.0</ele><time>2026-05-01T09:29:04.153Z</time></trkpt><trkpt lat="45.0764017" lon="8.2417567"><ele>273.25</ele><time>2026-05-01T09:29:05.153Z</time></trkpt><trkpt lat="45.0762833" lon="8.241725"><ele>274.5</ele><time>2026-05-01T09:29:06.154Z</time></trkpt><trkpt lat="45.0761633" lon="8.24169"><ele>275.75</ele><time>2026-05-01T09:29:07.156Z</time></trkpt><trkpt lat="45.076045" lon="8.241645"><ele>277.0</ele><time>2026-05-01T09:29:08.152Z</time></trkpt><trkpt lat="45.0759367" lon="8.241585"><ele>277.0</ele><time>2026-05-01T09:29:09.153Z</time></trkpt><trkpt lat="45.0758333" lon="8.2415083"><ele>277.0</ele><time>2026-05-01T09:29:10.151Z</time></trkpt><trkpt lat="45.075735" lon="8.2414283"><ele>277.0</ele><time>2026-05-01T09:29:11.156Z</time></trkpt><trkpt lat="45.075645" lon="8.2413483"><ele>277.0</ele><time>2026-05-01T09:29:12.151Z</time></trkpt><trkpt lat="45.0755567" lon="8.2412733"><ele>277.0</ele><time>2026-05-01T09:29:13.154Z</time></trkpt><trkpt lat="45.0754767" lon="8.2412"><ele>276.8</ele><time>2026-05-01T09:29:14.152Z</time></trkpt><trkpt lat="45.0753983" lon="8.2411233"><ele>276.6</ele><time>2026-05-01T09:29:15.153Z</time></trkpt><trkpt lat="45.0753183" lon="8.2410467"><ele>276.40000000000003</ele><time>2026-05-01T09:29:16.154Z</time></trkpt><trkpt lat="45.0752367" lon="8.2409733"><ele>276.2</ele><time>2026-05-01T09:29:17.154Z</time></trkpt><trkpt lat="45.0751483" lon="8.2408917"><ele>276.0</ele><time>2026-05-01T09:29:18.15Z</time></trkpt><trkpt lat="45.0750567" lon="8.24081"><ele>276.0</ele><time>2026-05-01T09:29:19.152Z</time></trkpt><trkpt lat="45.074965" lon="8.2407417"><ele>276.0</ele><time>2026-05-01T09:29:20.153Z</time></trkpt><trkpt lat="45.07487" lon="8.240675"><ele>276.0</ele><time>2026-05-01T09:29:21.152Z</time></trkpt><trkpt lat="45.0747683" lon="8.24062"><ele>276.0</ele><time>2026-05-01T09:29:22.151Z</time></trkpt><trkpt lat="45.0746617" lon="8.2405617"><ele>276.0</ele><time>2026-05-01T09:29:23.154Z</time></trkpt><trkpt lat="45.0745583" lon="8.2404967"><ele>274.2</ele><time>2026-05-01T09:29:24.155Z</time></trkpt><trkpt lat="45.0744517" lon="8.2404333"><ele>272.40000000000003</ele><time>2026-05-01T09:29:25.151Z</time></trkpt><trkpt lat="45.0743483" lon="8.2403833"><ele>270.6</ele><time>2026-05-01T09:29:26.153Z</time></trkpt><trkpt lat="45.0742433" lon="8.2403367"><ele>268.8</ele><time>2026-05-01T09:29:27.15Z</time></trkpt><trkpt lat="45.0741433" lon="8.240315"><ele>267.0</ele><time>2026-05-01T09:29:28.15Z</time></trkpt><trkpt lat="45.0740383" lon="8.24031"><ele>266.4</ele><time>2026-05-01T09:29:29.154Z</time></trkpt><trkpt lat="45.07393" lon="8.2403067"><ele>265.79999999999995</ele><time>2026-05-01T09:29:30.152Z</time></trkpt><trkpt lat="45.073815" lon="8.2403217"><ele>265.2</ele><time>2026-05-01T09:29:31.156Z</time></trkpt><trkpt lat="45.073705" lon="8.2403267"><ele>264.59999999999997</ele><time>2026-05-01T09:29:32.154Z</time></trkpt><trkpt lat="45.0735917" lon="8.24034"><ele>264.0</ele><time>2026-05-01T09:29:33.154Z</time></trkpt><trkpt lat="45.0734767" lon="8.2403533"><ele>264.0</ele><time>2026-05-01T09:29:34.156Z</time></trkpt><trkpt lat="45.0733583" lon="8.2403717"><ele>264.0</ele><time>2026-05-01T09:29:35.152Z</time></trkpt><trkpt lat="45.0732383" lon="8.240395"><ele>264.0</ele><time>2026-05-01T09:29:36.155Z</time></trkpt><trkpt lat="45.0731167" lon="8.2404183"><ele>264.0</ele><time>2026-05-01T09:29:37.163Z</time></trkpt><trkpt lat="45.072995" lon="8.240435"><ele>262.25</ele><time>2026-05-01T09:29:38.157Z</time></trkpt><trkpt lat="45.0728717" lon="8.2404567"><ele>260.5</ele><time>2026-05-01T09:29:39.154Z</time></trkpt><trkpt lat="45.0727483" lon="8.240485"><ele>258.75</ele><time>2026-05-01T09:29:40.155Z</time></trkpt><trkpt lat="45.0726283" lon="8.2405183"><ele>257.0</ele><time>2026-05-01T09:29:41.148Z</time></trkpt><trkpt lat="45.0725133" lon="8.2405433"><ele>255.5</ele><time>2026-05-01T09:29:42.152Z</time></trkpt><trkpt lat="45.0724033" lon="8.2405817"><ele>254.0</ele><time>2026-05-01T09:29:43.153Z</time></trkpt><trkpt lat="45.0722883" lon="8.2406217"><ele>252.5</ele><time>2026-05-01T09:29:44.156Z</time></trkpt><trkpt lat="45.0721683" lon="8.2406567"><ele>251.0</ele><time>2026-05-01T09:29:45.155Z</time></trkpt><trkpt lat="45.0720417" lon="8.24069"><ele>251.0</ele><time>2026-05-01T09:29:46.152Z</time></trkpt><trkpt lat="45.07191" lon="8.2407283"><ele>251.0</ele><time>2026-05-01T09:29:47.152Z</time></trkpt><trkpt lat="45.0717717" lon="8.2407617"><ele>251.0</ele><time>2026-05-01T09:29:48.151Z</time></trkpt><trkpt lat="45.0716317" lon="8.2408017"><ele>251.0</ele><time>2026-05-01T09:29:49.152Z</time></trkpt><trkpt lat="45.0714917" lon="8.2408433"><ele>249.5</ele><time>2026-05-01T09:29:50.152Z</time></trkpt><trkpt lat="45.0713517" lon="8.2408883"><ele>248.0</ele><time>2026-05-01T09:29:51.151Z</time></trkpt><trkpt lat="45.071215" lon="8.2409383"><ele>246.5</ele><time>2026-05-01T09:29:52.157Z</time></trkpt><trkpt lat="45.0710783" lon="8.2409917"><ele>245.0</ele><time>2026-05-01T09:29:53.151Z</time></trkpt><trkpt lat="45.0709383" lon="8.2410483"><ele>245.0</ele><time>2026-05-01T09:29:54.159Z</time></trkpt><trkpt lat="45.0708017" lon="8.2411033"><ele>245.0</ele><time>2026-05-01T09:29:55.151Z</time></trkpt><trkpt lat="45.070665" lon="8.2411617"><ele>245.0</ele><time>2026-05-01T09:29:56.153Z</time></trkpt><trkpt lat="45.0705233" lon="8.24121"><ele>245.0</ele><time>2026-05-01T09:29:57.154Z</time></trkpt><trkpt lat="45.0703833" lon="8.2412583"><ele>243.75</ele><time>2026-05-01T09:29:58.153Z</time></trkpt><trkpt lat="45.0702433" lon="8.2412983"><ele>242.5</ele><time>2026-05-01T09:29:59.149Z</time></trkpt><trkpt lat="45.070105" lon="8.2413333"><ele>241.25</ele><time>2026-05-01T09:30:00.157Z</time></trkpt><trkpt lat="45.069965" lon="8.24137"><ele>240.0</ele><time>2026-05-01T09:30:01.155Z</time></trkpt><trkpt lat="45.0698233" lon="8.241405"><ele>239.0</ele><time>2026-05-01T09:30:02.156Z</time></trkpt><trkpt lat="45.0696833" lon="8.2414383"><ele>238.0</ele><time>2026-05-01T09:30:03.152Z</time></trkpt><trkpt lat="45.0695467" lon="8.2414733"><ele>237.0</ele><time>2026-05-01T09:30:04.153Z</time></trkpt><trkpt lat="45.06941" lon="8.2415183"><ele>236.0</ele><time>2026-05-01T09:30:05.157Z</time></trkpt><trkpt lat="45.0692733" lon="8.2415617"><ele>236.0</ele><time>2026-05-01T09:30:06.158Z</time></trkpt><trkpt lat="45.06914" lon="8.2416083"><ele>236.0</ele><time>2026-05-01T09:30:07.16Z</time></trkpt><trkpt lat="45.0690033" lon="8.2416517"><ele>236.0</ele><time>2026-05-01T09:30:08.153Z</time></trkpt><trkpt lat="45.06887" lon="8.2416817"><ele>236.0</ele><time>2026-05-01T09:30:09.155Z</time></trkpt><trkpt lat="45.0687367" lon="8.2417117"><ele>234.25</ele><time>2026-05-01T09:30:10.152Z</time></trkpt><trkpt lat="45.0685983" lon="8.24173"><ele>232.5</ele><time>2026-05-01T09:30:11.156Z</time></trkpt><trkpt lat="45.06846" lon="8.2417367"><ele>230.75</ele><time>2026-05-01T09:30:12.154Z</time></trkpt><trkpt lat="45.068325" lon="8.2417333"><ele>229.0</ele><time>2026-05-01T09:30:13.155Z</time></trkpt><trkpt lat="45.06819" lon="8.241725"><ele>227.0</ele><time>2026-05-01T09:30:14.152Z</time></trkpt><trkpt lat="45.0680583" lon="8.2417217"><ele>225.0</ele><time>2026-05-01T09:30:15.151Z</time></trkpt><trkpt lat="45.0679283" lon="8.2417233"><ele>223.0</ele><time>2026-05-01T09:30:16.152Z</time></trkpt><trkpt lat="45.0677983" lon="8.2417333"><ele>221.0</ele><time>2026-05-01T09:30:17.154Z</time></trkpt><trkpt lat="45.0676683" lon="8.241765"><ele>221.0</ele><time>2026-05-01T09:30:18.153Z</time></trkpt><trkpt lat="45.06754" lon="8.241805"><ele>221.0</ele><time>2026-05-01T09:30:19.153Z</time></trkpt><trkpt lat="45.0674117" lon="8.24185"><ele>221.0</ele><time>2026-05-01T09:30:20.155Z</time></trkpt><trkpt lat="45.067275" lon="8.2418917"><ele>221.0</ele><time>2026-05-01T09:30:21.15Z</time></trkpt><trkpt lat="45.0671383" lon="8.2419283"><ele>218.25</ele><time>2026-05-01T09:30:22.152Z</time></trkpt><trkpt lat="45.0670033" lon="8.24197"><ele>215.5</ele><time>2026-05-01T09:30:23.152Z</time></trkpt><trkpt lat="45.066865" lon="8.242005"><ele>212.75</ele><time>2026-05-01T09:30:24.155Z</time></trkpt><trkpt lat="45.0667283" lon="8.242035"><ele>210.0</ele><time>2026-05-01T09:30:25.156Z</time></trkpt><trkpt lat="45.06659" lon="8.24207"><ele>209.0</ele><time>2026-05-01T09:30:26.151Z</time></trkpt><trkpt lat="45.0664517" lon="8.2421133"><ele>208.0</ele><time>2026-05-01T09:30:27.15Z</time></trkpt><trkpt lat="45.0663117" lon="8.2421517"><ele>207.0</ele><time>2026-05-01T09:30:28.155Z</time></trkpt><trkpt lat="45.0661767" lon="8.2421967"><ele>206.0</ele><time>2026-05-01T09:30:29.151Z</time></trkpt><trkpt lat="45.066045" lon="8.2422583"><ele>206.5</ele><time>2026-05-01T09:30:30.149Z</time></trkpt><trkpt lat="45.0659233" lon="8.242335"><ele>207.0</ele><time>2026-05-01T09:30:31.151Z</time></trkpt><trkpt lat="45.0658117" lon="8.2424183"><ele>207.5</ele><time>2026-05-01T09:30:32.155Z</time></trkpt><trkpt lat="45.0657083" lon="8.2424933"><ele>208.0</ele><time>2026-05-01T09:30:33.154Z</time></trkpt><trkpt lat="45.065615" lon="8.2425633"><ele>207.33333333333331</ele><time>2026-05-01T09:30:34.15Z</time></trkpt><trkpt lat="45.0655267" lon="8.2426167"><ele>206.66666666666666</ele><time>2026-05-01T09:30:35.151Z</time></trkpt><trkpt lat="45.065435" lon="8.242645"><ele>206.0</ele><time>2026-05-01T09:30:36.153Z</time></trkpt><trkpt lat="45.0653483" lon="8.2426583"><ele>205.33333333333331</ele><time>2026-05-01T09:30:37.154Z</time></trkpt><trkpt lat="45.06527" lon="8.2426617"><ele>204.66666666666666</ele><time>2026-05-01T09:30:38.154Z</time></trkpt><trkpt lat="45.0651783" lon="8.2426517"><ele>204.0</ele><time>2026-05-01T09:30:40.155Z</time></trkpt><trkpt lat="45.0650933" lon="8.2426433"><ele>204.0</ele><time>2026-05-01T09:30:43.158Z</time></trkpt><trkpt lat="45.0649917" lon="8.2426283"><ele>204.0</ele><time>2026-05-01T09:30:45.153Z</time></trkpt><trkpt lat="45.0649267" lon="8.2426133"><ele>204.0</ele><time>2026-05-01T09:30:46.156Z</time></trkpt><trkpt lat="45.0648483" lon="8.2425867"><ele>204.0</ele><time>2026-05-01T09:30:47.156Z</time></trkpt><trkpt lat="45.06476" lon="8.2425567"><ele>204.0</ele><time>2026-05-01T09:30:48.151Z</time></trkpt><trkpt lat="45.064655" lon="8.2425133"><ele>204.0</ele><time>2026-05-01T09:30:49.157Z</time></trkpt><trkpt lat="45.06455" lon="8.2424617"><ele>204.0</ele><time>2026-05-01T09:30:50.154Z</time></trkpt><trkpt lat="45.0644417" lon="8.2424"><ele>204.0</ele><time>2026-05-01T09:30:51.152Z</time></trkpt><trkpt lat="45.0643333" lon="8.2423267"><ele>204.0</ele><time>2026-05-01T09:30:52.163Z</time></trkpt><trkpt lat="45.0642267" lon="8.2422417"><ele>204.0</ele><time>2026-05-01T09:30:53.151Z</time></trkpt><trkpt lat="45.06412" lon="8.242145"><ele>204.5</ele><time>2026-05-01T09:30:54.156Z</time></trkpt><trkpt lat="45.064015" lon="8.2420367"><ele>205.0</ele><time>2026-05-01T09:30:55.155Z</time></trkpt><trkpt lat="45.063915" lon="8.2419133"><ele>205.5</ele><time>2026-05-01T09:30:56.154Z</time></trkpt><trkpt lat="45.0638217" lon="8.24178"><ele>206.0</ele><time>2026-05-01T09:30:57.153Z</time></trkpt><trkpt lat="45.06373" lon="8.2416417"><ele>206.0</ele><time>2026-05-01T09:30:58.154Z</time></trkpt><trkpt lat="45.0636433" lon="8.2415033"><ele>206.0</ele><time>2026-05-01T09:30:59.156Z</time></trkpt><trkpt lat="45.0635567" lon="8.241365"><ele>206.0</ele><time>2026-05-01T09:31:00.152Z</time></trkpt><trkpt lat="45.06347" lon="8.2412283"><ele>206.0</ele><time>2026-05-01T09:31:01.158Z</time></trkpt><trkpt lat="45.0633833" lon="8.2410917"><ele>207.25</ele><time>2026-05-01T09:31:02.156Z</time></trkpt><trkpt lat="45.0633" lon="8.240955"><ele>208.5</ele><time>2026-05-01T09:31:03.16Z</time></trkpt><trkpt lat="45.0632167" lon="8.2408183"><ele>209.75</ele><time>2026-05-01T09:31:04.153Z</time></trkpt><trkpt lat="45.0631333" lon="8.2406867"><ele>211.0</ele><time>2026-05-01T09:31:05.155Z</time></trkpt><trkpt lat="45.063055" lon="8.2405567"><ele>212.16666666666666</ele><time>2026-05-01T09:31:06.157Z</time></trkpt><trkpt lat="45.06298" lon="8.24043"><ele>213.33333333333331</ele><time>2026-05-01T09:31:07.149Z</time></trkpt><trkpt lat="45.0629183" lon="8.24032"><ele>214.5</ele><time>2026-05-01T09:31:08.156Z</time></trkpt><trkpt lat="45.0628667" lon="8.2402283"><ele>215.66666666666669</ele><time>2026-05-01T09:31:09.153Z</time></trkpt><trkpt lat="45.0628233" lon="8.2401467"><ele>216.83333333333334</ele><time>2026-05-01T09:31:10.151Z</time></trkpt><trkpt lat="45.0627933" lon="8.2400683"><ele>218.0</ele><time>2026-05-01T09:31:11.153Z</time></trkpt><trkpt lat="45.06279" lon="8.2399767"><ele>218.0</ele><time>2026-05-01T09:31:12.155Z</time></trkpt><trkpt lat="45.0628167" lon="8.2398817"><ele>218.0</ele><time>2026-05-01T09:31:13.153Z</time></trkpt><trkpt lat="45.0628617" lon="8.2397917"><ele>218.0</ele><time>2026-05-01T09:31:14.154Z</time></trkpt><trkpt lat="45.0629283" lon="8.23971"><ele>218.0</ele><time>2026-05-01T09:31:15.154Z</time></trkpt><trkpt lat="45.063025" lon="8.2396183"><ele>218.0</ele><time>2026-05-01T09:31:16.156Z</time></trkpt><trkpt lat="45.0631433" lon="8.23952"><ele>217.5</ele><time>2026-05-01T09:31:17.151Z</time></trkpt><trkpt lat="45.0632633" lon="8.239415"><ele>217.0</ele><time>2026-05-01T09:31:18.153Z</time></trkpt><trkpt lat="45.0633783" lon="8.2393133"><ele>216.5</ele><time>2026-05-01T09:31:19.152Z</time></trkpt><trkpt lat="45.0634883" lon="8.239215"><ele>216.0</ele><time>2026-05-01T09:31:20.152Z</time></trkpt><trkpt lat="45.0636067" lon="8.2391083"><ele>216.5</ele><time>2026-05-01T09:31:21.152Z</time></trkpt><trkpt lat="45.0637267" lon="8.2389933"><ele>217.0</ele><time>2026-05-01T09:31:22.154Z</time></trkpt><trkpt lat="45.0638467" lon="8.2388767"><ele>217.5</ele><time>2026-05-01T09:31:23.154Z</time></trkpt><trkpt lat="45.0639667" lon="8.23876"><ele>218.0</ele><time>2026-05-01T09:31:24.155Z</time></trkpt><trkpt lat="45.0640867" lon="8.2386383"><ele>220.5</ele><time>2026-05-01T09:31:25.154Z</time></trkpt><trkpt lat="45.0642067" lon="8.2385133"><ele>223.0</ele><time>2026-05-01T09:31:26.158Z</time></trkpt><trkpt lat="45.06432" lon="8.238385"><ele>225.5</ele><time>2026-05-01T09:31:27.155Z</time></trkpt><trkpt lat="45.0644283" lon="8.2382517"><ele>228.0</ele><time>2026-05-01T09:31:28.154Z</time></trkpt><trkpt lat="45.0645317" lon="8.2381083"><ele>228.25</ele><time>2026-05-01T09:31:29.155Z</time></trkpt><trkpt lat="45.0646267" lon="8.237955"><ele>228.5</ele><time>2026-05-01T09:31:30.155Z</time></trkpt><trkpt lat="45.06472" lon="8.237795"><ele>228.75</ele><time>2026-05-01T09:31:31.156Z</time></trkpt><trkpt lat="45.0648083" lon="8.237625"><ele>229.0</ele><time>2026-05-01T09:31:32.157Z</time></trkpt><trkpt lat="45.0648933" lon="8.23745"><ele>231.33333333333331</ele><time>2026-05-01T09:31:33.153Z</time></trkpt><trkpt lat="45.0649833" lon="8.2372733"><ele>233.66666666666669</ele><time>2026-05-01T09:31:34.157Z</time></trkpt><trkpt lat="45.0650717" lon="8.2371"><ele>236.0</ele><time>2026-05-01T09:31:35.153Z</time></trkpt><trkpt lat="45.0651583" lon="8.2369333"><ele>236.0</ele><time>2026-05-01T09:31:36.157Z</time></trkpt><trkpt lat="45.0652433" lon="8.2367633"><ele>236.0</ele><time>2026-05-01T09:31:37.157Z</time></trkpt><trkpt lat="45.0653133" lon="8.236585"><ele>236.0</ele><time>2026-05-01T09:31:38.157Z</time></trkpt><trkpt lat="45.0653783" lon="8.2363967"><ele>236.0</ele><time>2026-05-01T09:31:39.153Z</time></trkpt><trkpt lat="45.0654367" lon="8.2362"><ele>235.66666666666669</ele><time>2026-05-01T09:31:40.161Z</time></trkpt><trkpt lat="45.0654917" lon="8.236"><ele>235.33333333333331</ele><time>2026-05-01T09:31:41.16Z</time></trkpt><trkpt lat="45.065545" lon="8.2357983"><ele>235.0</ele><time>2026-05-01T09:31:42.154Z</time></trkpt><trkpt lat="45.0655983" lon="8.2355917"><ele>235.0</ele><time>2026-05-01T09:31:43.162Z</time></trkpt><trkpt lat="45.0656517" lon="8.2353867"><ele>235.0</ele><time>2026-05-01T09:31:44.153Z</time></trkpt><trkpt lat="45.065705" lon="8.235185"><ele>235.0</ele><time>2026-05-01T09:31:45.154Z</time></trkpt><trkpt lat="45.065755" lon="8.234985"><ele>239.0</ele><time>2026-05-01T09:31:46.156Z</time></trkpt><trkpt lat="45.065805" lon="8.2347817"><ele>243.0</ele><time>2026-05-01T09:31:47.153Z</time></trkpt><trkpt lat="45.0658583" lon="8.234575"><ele>247.0</ele><time>2026-05-01T09:31:48.152Z</time></trkpt><trkpt lat="45.0659117" lon="8.2343717"><ele>247.0</ele><time>2026-05-01T09:31:49.156Z</time></trkpt><trkpt lat="45.0659633" lon="8.234175"><ele>247.0</ele><time>2026-05-01T09:31:50.153Z</time></trkpt><trkpt lat="45.0660167" lon="8.233975"><ele>247.0</ele><time>2026-05-01T09:31:51.153Z</time></trkpt><trkpt lat="45.0660733" lon="8.2337783"><ele>247.0</ele><time>2026-05-01T09:31:52.153Z</time></trkpt><trkpt lat="45.0661283" lon="8.233585"><ele>246.75</ele><time>2026-05-01T09:31:53.154Z</time></trkpt><trkpt lat="45.0661817" lon="8.2333917"><ele>246.5</ele><time>2026-05-01T09:31:54.154Z</time></trkpt><trkpt lat="45.066235" lon="8.2332033"><ele>246.25</ele><time>2026-05-01T09:31:55.154Z</time></trkpt><trkpt lat="45.066285" lon="8.233015"><ele>246.0</ele><time>2026-05-01T09:31:56.155Z</time></trkpt><trkpt lat="45.0663367" lon="8.232825"><ele>246.5</ele><time>2026-05-01T09:31:57.154Z</time></trkpt><trkpt lat="45.0663867" lon="8.232635"><ele>247.0</ele><time>2026-05-01T09:31:58.158Z</time></trkpt><trkpt lat="45.0664367" lon="8.232445"><ele>247.5</ele><time>2026-05-01T09:31:59.156Z</time></trkpt><trkpt lat="45.066485" lon="8.2322567"><ele>248.0</ele><time>2026-05-01T09:32:00.154Z</time></trkpt><trkpt lat="45.066535" lon="8.2320683"><ele>248.0</ele><time>2026-05-01T09:32:01.156Z</time></trkpt><trkpt lat="45.0665883" lon="8.2318833"><ele>248.0</ele><time>2026-05-01T09:32:02.159Z</time></trkpt><trkpt lat="45.0666367" lon="8.2316983"><ele>248.0</ele><time>2026-05-01T09:32:03.156Z</time></trkpt><trkpt lat="45.0666867" lon="8.23152"><ele>248.0</ele><time>2026-05-01T09:32:04.159Z</time></trkpt><trkpt lat="45.0667333" lon="8.2313483"><ele>252.25</ele><time>2026-05-01T09:32:05.156Z</time></trkpt><trkpt lat="45.06677" lon="8.2311883"><ele>256.5</ele><time>2026-05-01T09:32:06.156Z</time></trkpt><trkpt lat="45.0668033" lon="8.2310333"><ele>260.75</ele><time>2026-05-01T09:32:07.155Z</time></trkpt><trkpt lat="45.066815" lon="8.2308767"><ele>265.0</ele><time>2026-05-01T09:32:08.158Z</time></trkpt><trkpt lat="45.0668083" lon="8.2307167"><ele>265.75</ele><time>2026-05-01T09:32:09.153Z</time></trkpt><trkpt lat="45.0667833" lon="8.2305583"><ele>266.5</ele><time>2026-05-01T09:32:10.152Z</time></trkpt><trkpt lat="45.0667367" lon="8.230405"><ele>267.25</ele><time>2026-05-01T09:32:11.157Z</time></trkpt><trkpt lat="45.0666767" lon="8.2302533"><ele>268.0</ele><time>2026-05-01T09:32:12.158Z</time></trkpt><trkpt lat="45.066595" lon="8.2301167"><ele>267.25</ele><time>2026-05-01T09:32:13.157Z</time></trkpt><trkpt lat="45.066505" lon="8.2299817"><ele>266.5</ele><time>2026-05-01T09:32:14.157Z</time></trkpt><trkpt lat="45.0664117" lon="8.22985"><ele>265.75</ele><time>2026-05-01T09:32:15.15Z</time></trkpt><trkpt lat="45.0663167" lon="8.2297133"><ele>265.0</ele><time>2026-05-01T09:32:16.156Z</time></trkpt><trkpt lat="45.0662233" lon="8.229575"><ele>265.0</ele><time>2026-05-01T09:32:17.154Z</time></trkpt><trkpt lat="45.06613" lon="8.2294433"><ele>265.0</ele><time>2026-05-01T09:32:18.156Z</time></trkpt><trkpt lat="45.06604" lon="8.2293067"><ele>265.0</ele><time>2026-05-01T09:32:19.152Z</time></trkpt><trkpt lat="45.065945" lon="8.2291683"><ele>265.0</ele><time>2026-05-01T09:32:20.151Z</time></trkpt><trkpt lat="45.0658517" lon="8.22903"><ele>265.75</ele><time>2026-05-01T09:32:21.154Z</time></trkpt><trkpt lat="45.0657533" lon="8.2288933"><ele>266.5</ele><time>2026-05-01T09:32:22.158Z</time></trkpt><trkpt lat="45.0656583" lon="8.22876"><ele>267.25</ele><time>2026-05-01T09:32:23.157Z</time></trkpt><trkpt lat="45.0655683" lon="8.2286283"><ele>268.0</ele><time>2026-05-01T09:32:24.151Z</time></trkpt><trkpt lat="45.065475" lon="8.2285017"><ele>268.0</ele><time>2026-05-01T09:32:25.157Z</time></trkpt><trkpt lat="45.0653833" lon="8.22838"><ele>268.0</ele><time>2026-05-01T09:32:26.151Z</time></trkpt><trkpt lat="45.06529" lon="8.2282733"><ele>268.0</ele><time>2026-05-01T09:32:27.155Z</time></trkpt><trkpt lat="45.0651983" lon="8.228175"><ele>268.0</ele><time>2026-05-01T09:32:28.154Z</time></trkpt><trkpt lat="45.0651117" lon="8.228085"><ele>268.5</ele><time>2026-05-01T09:32:29.156Z</time></trkpt><trkpt lat="45.0650317" lon="8.2280133"><ele>269.0</ele><time>2026-05-01T09:32:30.156Z</time></trkpt><trkpt lat="45.0649567" lon="8.2279483"><ele>269.5</ele><time>2026-05-01T09:32:31.161Z</time></trkpt><trkpt lat="45.0648867" lon="8.22788"><ele>270.0</ele><time>2026-05-01T09:32:32.158Z</time></trkpt><trkpt lat="45.0648267" lon="8.2277983"><ele>270.5</ele><time>2026-05-01T09:32:33.155Z</time></trkpt><trkpt lat="45.06478" lon="8.2277067"><ele>271.0</ele><time>2026-05-01T09:32:34.154Z</time></trkpt><trkpt lat="45.06475" lon="8.2276033"><ele>271.0</ele><time>2026-05-01T09:32:35.153Z</time></trkpt><trkpt lat="45.0647233" lon="8.227495"><ele>271.0</ele><time>2026-05-01T09:32:36.155Z</time></trkpt><trkpt lat="45.064745" lon="8.2273583"><ele>271.0</ele><time>2026-05-01T09:32:37.157Z</time></trkpt><trkpt lat="45.0647967" lon="8.227205"><ele>271.0</ele><time>2026-05-01T09:32:38.152Z</time></trkpt><trkpt lat="45.0648383" lon="8.22705"><ele>271.0</ele><time>2026-05-01T09:32:39.151Z</time></trkpt><trkpt lat="45.06485" lon="8.2269133"><ele>271.0</ele><time>2026-05-01T09:32:40.154Z</time></trkpt><trkpt lat="45.0648767" lon="8.22677"><ele>271.0</ele><time>2026-05-01T09:32:41.15Z</time></trkpt><trkpt lat="45.0649083" lon="8.226635"><ele>271.0</ele><time>2026-05-01T09:32:42.156Z</time></trkpt><trkpt lat="45.0649533" lon="8.22651"><ele>271.0</ele><time>2026-05-01T09:32:43.158Z</time></trkpt><trkpt lat="45.06501" lon="8.2263967"><ele>271.0</ele><time>2026-05-01T09:32:44.159Z</time></trkpt><trkpt lat="45.0650833" lon="8.2263017"><ele>268.5</ele><time>2026-05-01T09:32:45.15Z</time></trkpt><trkpt lat="45.06518" lon="8.22624"><ele>266.0</ele><time>2026-05-01T09:32:46.152Z</time></trkpt><trkpt lat="45.0652983" lon="8.22619"><ele>263.5</ele><time>2026-05-01T09:32:47.153Z</time></trkpt><trkpt lat="45.0654217" lon="8.2261517"><ele>261.0</ele><time>2026-05-01T09:32:48.155Z</time></trkpt><trkpt lat="45.065555" lon="8.2261117"><ele>261.0</ele><time>2026-05-01T09:32:49.154Z</time></trkpt><trkpt lat="45.0656933" lon="8.2260683"><ele>261.0</ele><time>2026-05-01T09:32:50.153Z</time></trkpt><trkpt lat="45.0658383" lon="8.2260267"><ele>261.0</ele><time>2026-05-01T09:32:51.15Z</time></trkpt><trkpt lat="45.0659817" lon="8.2259883"><ele>261.0</ele><time>2026-05-01T09:32:52.153Z</time></trkpt><trkpt lat="45.0661283" lon="8.2259433"><ele>261.25</ele><time>2026-05-01T09:32:53.157Z</time></trkpt><trkpt lat="45.066275" lon="8.2259"><ele>261.5</ele><time>2026-05-01T09:32:54.154Z</time></trkpt><trkpt lat="45.0664217" lon="8.2258617"><ele>261.75</ele><time>2026-05-01T09:32:55.157Z</time></trkpt><trkpt lat="45.0665667" lon="8.2258233"><ele>262.0</ele><time>2026-05-01T09:32:56.154Z</time></trkpt><trkpt lat="45.0667117" lon="8.225785"><ele>261.25</ele><time>2026-05-01T09:32:57.156Z</time></trkpt><trkpt lat="45.06686" lon="8.225745"><ele>260.5</ele><time>2026-05-01T09:32:58.152Z</time></trkpt><trkpt lat="45.0670083" lon="8.2257033"><ele>259.75</ele><time>2026-05-01T09:32:59.154Z</time></trkpt><trkpt lat="45.0671517" lon="8.22566"><ele>259.0</ele><time>2026-05-01T09:33:00.153Z</time></trkpt><trkpt lat="45.067295" lon="8.2256217"><ele>258.0</ele><time>2026-05-01T09:33:01.155Z</time></trkpt><trkpt lat="45.067435" lon="8.2255817"><ele>257.0</ele><time>2026-05-01T09:33:02.153Z</time></trkpt><trkpt lat="45.06757" lon="8.22555"><ele>256.0</ele><time>2026-05-01T09:33:03.151Z</time></trkpt><trkpt lat="45.0677033" lon="8.2255167"><ele>255.0</ele><time>2026-05-01T09:33:04.154Z</time></trkpt><trkpt lat="45.0678333" lon="8.22548"><ele>255.0</ele><time>2026-05-01T09:33:05.154Z</time></trkpt><trkpt lat="45.0679583" lon="8.2254417"><ele>255.0</ele><time>2026-05-01T09:33:06.154Z</time></trkpt><trkpt lat="45.0680833" lon="8.2253983"><ele>255.0</ele><time>2026-05-01T09:33:07.157Z</time></trkpt><trkpt lat="45.0682067" lon="8.2253367"><ele>255.0</ele><time>2026-05-01T09:33:08.156Z</time></trkpt><trkpt lat="45.06832" lon="8.22525"><ele>255.25</ele><time>2026-05-01T09:33:09.152Z</time></trkpt><trkpt lat="45.0684233" lon="8.225135"><ele>255.5</ele><time>2026-05-01T09:33:10.153Z</time></trkpt><trkpt lat="45.0685233" lon="8.2250033"><ele>255.75</ele><time>2026-05-01T09:33:11.153Z</time></trkpt><trkpt lat="45.068625" lon="8.2248667"><ele>256.0</ele><time>2026-05-01T09:33:12.154Z</time></trkpt><trkpt lat="45.06873" lon="8.224725"><ele>256.0</ele><time>2026-05-01T09:33:13.157Z</time></trkpt><trkpt lat="45.068835" lon="8.2245767"><ele>256.0</ele><time>2026-05-01T09:33:14.153Z</time></trkpt><trkpt lat="45.0689417" lon="8.2244267"><ele>256.0</ele><time>2026-05-01T09:33:15.152Z</time></trkpt><trkpt lat="45.0690433" lon="8.224275"><ele>256.0</ele><time>2026-05-01T09:33:16.152Z</time></trkpt><trkpt lat="45.0691467" lon="8.2241267"><ele>258.25</ele><time>2026-05-01T09:33:17.155Z</time></trkpt><trkpt lat="45.0692517" lon="8.22398"><ele>260.5</ele><time>2026-05-01T09:33:18.153Z</time></trkpt><trkpt lat="45.069355" lon="8.223835"><ele>262.75</ele><time>2026-05-01T09:33:19.156Z</time></trkpt><trkpt lat="45.0694567" lon="8.2236933"><ele>265.0</ele><time>2026-05-01T09:33:20.153Z</time></trkpt><trkpt lat="45.0695583" lon="8.2235483"><ele>265.0</ele><time>2026-05-01T09:33:21.152Z</time></trkpt><trkpt lat="45.0696583" lon="8.22341"><ele>265.0</ele><time>2026-05-01T09:33:22.152Z</time></trkpt><trkpt lat="45.0697567" lon="8.22327"><ele>265.0</ele><time>2026-05-01T09:33:23.155Z</time></trkpt><trkpt lat="45.0698517" lon="8.2231317"><ele>265.0</ele><time>2026-05-01T09:33:24.158Z</time></trkpt><trkpt lat="45.0699317" lon="8.2229917"><ele>266.5</ele><time>2026-05-01T09:33:25.157Z</time></trkpt><trkpt lat="45.06999" lon="8.22284"><ele>268.0</ele><time>2026-05-01T09:33:26.155Z</time></trkpt><trkpt lat="45.0700183" lon="8.22267"><ele>269.5</ele><time>2026-05-01T09:33:27.156Z</time></trkpt><trkpt lat="45.07004" lon="8.2224817"><ele>271.0</ele><time>2026-05-01T09:33:28.156Z</time></trkpt><trkpt lat="45.070055" lon="8.2222867"><ele>271.25</ele><time>2026-05-01T09:33:29.158Z</time></trkpt><trkpt lat="45.07007" lon="8.2220833"><ele>271.5</ele><time>2026-05-01T09:33:30.155Z</time></trkpt><trkpt lat="45.070085" lon="8.2218767"><ele>271.75</ele><time>2026-05-01T09:33:31.155Z</time></trkpt><trkpt lat="45.0700983" lon="8.2216633"><ele>272.0</ele><time>2026-05-01T09:33:32.155Z</time></trkpt><trkpt lat="45.0701083" lon="8.2214517"><ele>272.25</ele><time>2026-05-01T09:33:33.163Z</time></trkpt><trkpt lat="45.07012" lon="8.221245"><ele>272.5</ele><time>2026-05-01T09:33:34.156Z</time></trkpt><trkpt lat="45.0701317" lon="8.22104"><ele>272.75</ele><time>2026-05-01T09:33:35.156Z</time></trkpt><trkpt lat="45.0701433" lon="8.22084"><ele>273.0</ele><time>2026-05-01T09:33:36.158Z</time></trkpt><trkpt lat="45.070155" lon="8.2206417"><ele>273.0</ele><time>2026-05-01T09:33:37.153Z</time></trkpt><trkpt lat="45.0701567" lon="8.2204433"><ele>273.0</ele><time>2026-05-01T09:33:38.154Z</time></trkpt><trkpt lat="45.0701483" lon="8.2202467"><ele>273.0</ele><time>2026-05-01T09:33:39.163Z</time></trkpt><trkpt lat="45.0701283" lon="8.2200517"><ele>273.0</ele><time>2026-05-01T09:33:40.155Z</time></trkpt><trkpt lat="45.0701033" lon="8.2198567"><ele>275.25</ele><time>2026-05-01T09:33:41.156Z</time></trkpt><trkpt lat="45.0700867" lon="8.2196567"><ele>277.5</ele><time>2026-05-01T09:33:42.152Z</time></trkpt><trkpt lat="45.070085" lon="8.2194567"><ele>279.75</ele><time>2026-05-01T09:33:43.152Z</time></trkpt><trkpt lat="45.0700867" lon="8.2192583"><ele>282.0</ele><time>2026-05-01T09:33:44.154Z</time></trkpt><trkpt lat="45.0700883" lon="8.2190617"><ele>283.5</ele><time>2026-05-01T09:33:45.152Z</time></trkpt><trkpt lat="45.070085" lon="8.2188667"><ele>285.0</ele><time>2026-05-01T09:33:46.153Z</time></trkpt><trkpt lat="45.0700817" lon="8.2186767"><ele>286.5</ele><time>2026-05-01T09:33:47.155Z</time></trkpt><trkpt lat="45.0700783" lon="8.2184867"><ele>288.0</ele><time>2026-05-01T09:33:48.155Z</time></trkpt><trkpt lat="45.070075" lon="8.2182967"><ele>290.0</ele><time>2026-05-01T09:33:49.157Z</time></trkpt><trkpt lat="45.070075" lon="8.2181067"><ele>292.0</ele><time>2026-05-01T09:33:50.153Z</time></trkpt><trkpt lat="45.070075" lon="8.21792"><ele>294.0</ele><time>2026-05-01T09:33:51.152Z</time></trkpt><trkpt lat="45.0700717" lon="8.2177367"><ele>296.0</ele><time>2026-05-01T09:33:52.158Z</time></trkpt><trkpt lat="45.0700733" lon="8.217555"><ele>296.0</ele><time>2026-05-01T09:33:53.16Z</time></trkpt><trkpt lat="45.070075" lon="8.21738"><ele>296.0</ele><time>2026-05-01T09:33:54.154Z</time></trkpt><trkpt lat="45.07008" lon="8.217205"><ele>296.0</ele><time>2026-05-01T09:33:55.154Z</time></trkpt><trkpt lat="45.0700917" lon="8.217035"><ele>296.0</ele><time>2026-05-01T09:33:56.154Z</time></trkpt><trkpt lat="45.0701083" lon="8.2168717"><ele>296.0</ele><time>2026-05-01T09:33:57.154Z</time></trkpt><trkpt lat="45.070125" lon="8.2167117"><ele>296.0</ele><time>2026-05-01T09:33:58.153Z</time></trkpt><trkpt lat="45.07014" lon="8.21656"><ele>296.0</ele><time>2026-05-01T09:33:59.156Z</time></trkpt><trkpt lat="45.07016" lon="8.2164133"><ele>296.0</ele><time>2026-05-01T09:34:00.152Z</time></trkpt><trkpt lat="45.07019" lon="8.2162683"><ele>296.0</ele><time>2026-05-01T09:34:01.152Z</time></trkpt><trkpt lat="45.0702317" lon="8.2161217"><ele>296.0</ele><time>2026-05-01T09:34:02.153Z</time></trkpt><trkpt lat="45.0703067" lon="8.21601"><ele>296.0</ele><time>2026-05-01T09:34:03.153Z</time></trkpt><trkpt lat="45.0704017" lon="8.2159233"><ele>296.0</ele><time>2026-05-01T09:34:04.15Z</time></trkpt><trkpt lat="45.07051" lon="8.2158633"><ele>296.0</ele><time>2026-05-01T09:34:05.152Z</time></trkpt><trkpt lat="45.0706267" lon="8.2158133"><ele>296.0</ele><time>2026-05-01T09:34:06.154Z</time></trkpt><trkpt lat="45.07073" lon="8.2157317"><ele>296.0</ele><time>2026-05-01T09:34:07.152Z</time></trkpt><trkpt lat="45.0708117" lon="8.21561"><ele>296.0</ele><time>2026-05-01T09:34:08.153Z</time></trkpt><trkpt lat="45.07088" lon="8.2154583"><ele>296.0</ele><time>2026-05-01T09:34:09.153Z</time></trkpt><trkpt lat="45.0709283" lon="8.2153033"><ele>294.2</ele><time>2026-05-01T09:34:10.156Z</time></trkpt><trkpt lat="45.07095" lon="8.2151467"><ele>292.40000000000003</ele><time>2026-05-01T09:34:11.159Z</time></trkpt><trkpt lat="45.070945" lon="8.2149983"><ele>290.6</ele><time>2026-05-01T09:34:12.151Z</time></trkpt><trkpt lat="45.070925" lon="8.214845"><ele>288.8</ele><time>2026-05-01T09:34:13.158Z</time></trkpt><trkpt lat="45.0708933" lon="8.214685"><ele>287.0</ele><time>2026-05-01T09:34:14.156Z</time></trkpt><trkpt lat="45.07086" lon="8.2145217"><ele>285.5</ele><time>2026-05-01T09:34:15.156Z</time></trkpt><trkpt lat="45.0708383" lon="8.2143633"><ele>284.0</ele><time>2026-05-01T09:34:16.154Z</time></trkpt><trkpt lat="45.0708217" lon="8.2142033"><ele>282.5</ele><time>2026-05-01T09:34:17.16Z</time></trkpt><trkpt lat="45.0708417" lon="8.2140433"><ele>281.0</ele><time>2026-05-01T09:34:18.151Z</time></trkpt><trkpt lat="45.07089" lon="8.2138867"><ele>279.5</ele><time>2026-05-01T09:34:19.154Z</time></trkpt><trkpt lat="45.0709533" lon="8.213725"><ele>278.0</ele><time>2026-05-01T09:34:20.153Z</time></trkpt><trkpt lat="45.0710183" lon="8.21356"><ele>276.5</ele><time>2026-05-01T09:34:21.156Z</time></trkpt><trkpt lat="45.0710817" lon="8.2134017"><ele>275.0</ele><time>2026-05-01T09:34:22.153Z</time></trkpt><trkpt lat="45.07115" lon="8.213235"><ele>273.25</ele><time>2026-05-01T09:34:23.154Z</time></trkpt><trkpt lat="45.071215" lon="8.2130667"><ele>271.5</ele><time>2026-05-01T09:34:24.154Z</time></trkpt><trkpt lat="45.07127" lon="8.2128833"><ele>269.75</ele><time>2026-05-01T09:34:25.157Z</time></trkpt><trkpt lat="45.0713283" lon="8.2127083"><ele>268.0</ele><time>2026-05-01T09:34:26.158Z</time></trkpt><trkpt lat="45.0713883" lon="8.2125483"><ele>268.0</ele><time>2026-05-01T09:34:27.153Z</time></trkpt><trkpt lat="45.071455" lon="8.2123967"><ele>268.0</ele><time>2026-05-01T09:34:28.152Z</time></trkpt><trkpt lat="45.0715167" lon="8.2122583"><ele>268.0</ele><time>2026-05-01T09:34:29.152Z</time></trkpt><trkpt lat="45.0715867" lon="8.212135"><ele>268.0</ele><time>2026-05-01T09:34:30.151Z</time></trkpt><trkpt lat="45.0716733" lon="8.2120333"><ele>269.6</ele><time>2026-05-01T09:34:31.156Z</time></trkpt><trkpt lat="45.0717683" lon="8.2119467"><ele>271.20000000000005</ele><time>2026-05-01T09:34:32.151Z</time></trkpt><trkpt lat="45.0718483" lon="8.2118433"><ele>272.8</ele><time>2026-05-01T09:34:33.15Z</time></trkpt><trkpt lat="45.0718983" lon="8.2117083"><ele>274.40000000000003</ele><time>2026-05-01T09:34:34.159Z</time></trkpt><trkpt lat="45.0719167" lon="8.2115583"><ele>276.0</ele><time>2026-05-01T09:34:35.153Z</time></trkpt><trkpt lat="45.0718967" lon="8.211405"><ele>276.75</ele><time>2026-05-01T09:34:36.153Z</time></trkpt><trkpt lat="45.0718533" lon="8.21126"><ele>277.5</ele><time>2026-05-01T09:34:37.153Z</time></trkpt><trkpt lat="45.0718" lon="8.2111083"><ele>278.25</ele><time>2026-05-01T09:34:38.15Z</time></trkpt><trkpt lat="45.0717483" lon="8.2109483"><ele>279.0</ele><time>2026-05-01T09:34:39.152Z</time></trkpt><trkpt lat="45.0717" lon="8.2107817"><ele>280.25</ele><time>2026-05-01T09:34:40.155Z</time></trkpt><trkpt lat="45.071645" lon="8.210625"><ele>281.5</ele><time>2026-05-01T09:34:41.154Z</time></trkpt><trkpt lat="45.0715983" lon="8.2104667"><ele>282.75</ele><time>2026-05-01T09:34:42.155Z</time></trkpt><trkpt lat="45.071565" lon="8.2103133"><ele>284.0</ele><time>2026-05-01T09:34:43.154Z</time></trkpt><trkpt lat="45.0715517" lon="8.2101617"><ele>284.0</ele><time>2026-05-01T09:34:44.157Z</time></trkpt><trkpt lat="45.07156" lon="8.21"><ele>284.0</ele><time>2026-05-01T09:34:45.157Z</time></trkpt><trkpt lat="45.0715767" lon="8.2098333"><ele>284.0</ele><time>2026-05-01T09:34:46.153Z</time></trkpt><trkpt lat="45.071605" lon="8.2096633"><ele>284.0</ele><time>2026-05-01T09:34:47.155Z</time></trkpt><trkpt lat="45.07163" lon="8.2094933"><ele>284.0</ele><time>2026-05-01T09:34:48.158Z</time></trkpt><trkpt lat="45.0716533" lon="8.2093033"><ele>284.0</ele><time>2026-05-01T09:34:49.154Z</time></trkpt><trkpt lat="45.07167" lon="8.2091033"><ele>284.0</ele><time>2026-05-01T09:34:50.152Z</time></trkpt><trkpt lat="45.07169" lon="8.2089033"><ele>284.0</ele><time>2026-05-01T09:34:51.153Z</time></trkpt><trkpt lat="45.071715" lon="8.2087067"><ele>284.25</ele><time>2026-05-01T09:34:52.158Z</time></trkpt><trkpt lat="45.0717383" lon="8.2085117"><ele>284.5</ele><time>2026-05-01T09:34:53.153Z</time></trkpt><trkpt lat="45.0717617" lon="8.2083117"><ele>284.75</ele><time>2026-05-01T09:34:54.158Z</time></trkpt><trkpt lat="45.0717817" lon="8.2081183"><ele>285.0</ele><time>2026-05-01T09:34:55.152Z</time></trkpt><trkpt lat="45.0718083" lon="8.2079267"><ele>285.5</ele><time>2026-05-01T09:34:56.154Z</time></trkpt><trkpt lat="45.0718117" lon="8.2077517"><ele>286.0</ele><time>2026-05-01T09:34:57.156Z</time></trkpt><trkpt lat="45.0717833" lon="8.2075833"><ele>286.5</ele><time>2026-05-01T09:34:58.151Z</time></trkpt><trkpt lat="45.0717417" lon="8.2074133"><ele>287.0</ele><time>2026-05-01T09:34:59.157Z</time></trkpt><trkpt lat="45.0716967" lon="8.2072467"><ele>287.75</ele><time>2026-05-01T09:35:00.15Z</time></trkpt><trkpt lat="45.071655" lon="8.2070817"><ele>288.5</ele><time>2026-05-01T09:35:01.16Z</time></trkpt><trkpt lat="45.0716167" lon="8.206915"><ele>289.25</ele><time>2026-05-01T09:35:02.152Z</time></trkpt><trkpt lat="45.0715767" lon="8.2067567"><ele>290.0</ele><time>2026-05-01T09:35:03.154Z</time></trkpt><trkpt lat="45.0715133" lon="8.20662"><ele>287.75</ele><time>2026-05-01T09:35:04.154Z</time></trkpt><trkpt lat="45.07144" lon="8.2064983"><ele>285.5</ele><time>2026-05-01T09:35:05.156Z</time></trkpt><trkpt lat="45.07135" lon="8.206395"><ele>283.25</ele><time>2026-05-01T09:35:06.155Z</time></trkpt><trkpt lat="45.07126" lon="8.20629"><ele>281.0</ele><time>2026-05-01T09:35:07.156Z</time></trkpt><trkpt lat="45.0711733" lon="8.2061867"><ele>281.0</ele><time>2026-05-01T09:35:08.152Z</time></trkpt><trkpt lat="45.071095" lon="8.2060817"><ele>281.0</ele><time>2026-05-01T09:35:09.153Z</time></trkpt><trkpt lat="45.07103" lon="8.20598"><ele>281.0</ele><time>2026-05-01T09:35:10.15Z</time></trkpt><trkpt lat="45.070965" lon="8.2058933"><ele>281.0</ele><time>2026-05-01T09:35:11.158Z</time></trkpt><trkpt lat="45.070915" lon="8.2057933"><ele>281.0</ele><time>2026-05-01T09:35:12.15Z</time></trkpt><trkpt lat="45.070865" lon="8.2056883"><ele>280.40000000000003</ele><time>2026-05-01T09:35:13.156Z</time></trkpt><trkpt lat="45.0708567" lon="8.2055617"><ele>279.8</ele><time>2026-05-01T09:35:14.156Z</time></trkpt><trkpt lat="45.0708883" lon="8.2054317"><ele>279.20000000000005</ele><time>2026-05-01T09:35:15.154Z</time></trkpt><trkpt lat="45.0709383" lon="8.2053167"><ele>278.6</ele><time>2026-05-01T09:35:16.156Z</time></trkpt><trkpt lat="45.0709917" lon="8.20522"><ele>278.0</ele><time>2026-05-01T09:35:17.155Z</time></trkpt><trkpt lat="45.07106" lon="8.20515"><ele>278.0</ele><time>2026-05-01T09:35:18.15Z</time></trkpt><trkpt lat="45.0711467" lon="8.205105"><ele>278.0</ele><time>2026-05-01T09:35:19.157Z</time></trkpt><trkpt lat="45.0712333" lon="8.2050767"><ele>278.0</ele><time>2026-05-01T09:35:20.151Z</time></trkpt><trkpt lat="45.07133" lon="8.2051067"><ele>278.0</ele><time>2026-05-01T09:35:21.15Z</time></trkpt><trkpt lat="45.0714533" lon="8.2051483"><ele>278.0</ele><time>2026-05-01T09:35:22.151Z</time></trkpt><trkpt lat="45.071585" lon="8.2051983"><ele>277.5</ele><time>2026-05-01T09:35:23.158Z</time></trkpt><trkpt lat="45.0717217" lon="8.2052367"><ele>277.0</ele><time>2026-05-01T09:35:24.153Z</time></trkpt><trkpt lat="45.0718583" lon="8.2052833"><ele>276.5</ele><time>2026-05-01T09:35:25.153Z</time></trkpt><trkpt lat="45.0719867" lon="8.2053017"><ele>276.0</ele><time>2026-05-01T09:35:26.156Z</time></trkpt><trkpt lat="45.0721083" lon="8.20529"><ele>276.0</ele><time>2026-05-01T09:35:27.156Z</time></trkpt><trkpt lat="45.0722367" lon="8.20524"><ele>276.0</ele><time>2026-05-01T09:35:28.157Z</time></trkpt><trkpt lat="45.0723617" lon="8.205155"><ele>276.0</ele><time>2026-05-01T09:35:29.155Z</time></trkpt><trkpt lat="45.0724983" lon="8.2050383"><ele>276.0</ele><time>2026-05-01T09:35:30.153Z</time></trkpt><trkpt lat="45.072625" lon="8.2049367"><ele>276.5</ele><time>2026-05-01T09:35:31.156Z</time></trkpt><trkpt lat="45.07275" lon="8.2048467"><ele>277.0</ele><time>2026-05-01T09:35:32.153Z</time></trkpt><trkpt lat="45.0728683" lon="8.204765"><ele>277.5</ele><time>2026-05-01T09:35:33.156Z</time></trkpt><trkpt lat="45.072985" lon="8.2046967"><ele>278.0</ele><time>2026-05-01T09:35:34.155Z</time></trkpt><trkpt lat="45.0731017" lon="8.20466"><ele>275.75</ele><time>2026-05-01T09:35:35.153Z</time></trkpt><trkpt lat="45.0732167" lon="8.2046567"><ele>273.5</ele><time>2026-05-01T09:35:36.154Z</time></trkpt><trkpt lat="45.07334" lon="8.2046883"><ele>271.25</ele><time>2026-05-01T09:35:37.152Z</time></trkpt><trkpt lat="45.0734583" lon="8.2047167"><ele>269.0</ele><time>2026-05-01T09:35:38.151Z</time></trkpt><trkpt lat="45.0735767" lon="8.2047583"><ele>268.4</ele><time>2026-05-01T09:35:39.152Z</time></trkpt><trkpt lat="45.07369" lon="8.2048267"><ele>267.79999999999995</ele><time>2026-05-01T09:35:40.155Z</time></trkpt><trkpt lat="45.0737867" lon="8.2049183"><ele>267.20000000000005</ele><time>2026-05-01T09:35:41.153Z</time></trkpt><trkpt lat="45.073875" lon="8.2050117"><ele>266.6</ele><time>2026-05-01T09:35:42.151Z</time></trkpt><trkpt lat="45.07396" lon="8.2050767"><ele>266.0</ele><time>2026-05-01T09:35:43.157Z</time></trkpt><trkpt lat="45.0740533" lon="8.2051333"><ele>268.25</ele><time>2026-05-01T09:35:44.152Z</time></trkpt><trkpt lat="45.0741567" lon="8.2051583"><ele>270.5</ele><time>2026-05-01T09:35:45.157Z</time></trkpt><trkpt lat="45.074245" lon="8.205115"><ele>272.75</ele><time>2026-05-01T09:35:46.151Z</time></trkpt><trkpt lat="45.0743067" lon="8.2049733"><ele>275.0</ele><time>2026-05-01T09:35:47.152Z</time></trkpt><trkpt lat="45.0743217" lon="8.2047767"><ele>275.0</ele><time>2026-05-01T09:35:48.151Z</time></trkpt><trkpt lat="45.0743183" lon="8.2045867"><ele>275.0</ele><time>2026-05-01T09:35:49.154Z</time></trkpt><trkpt lat="45.074295" lon="8.2044033"><ele>275.0</ele><time>2026-05-01T09:35:50.154Z</time></trkpt><trkpt lat="45.074235" lon="8.204245"><ele>275.0</ele><time>2026-05-01T09:35:51.15Z</time></trkpt><trkpt lat="45.0741633" lon="8.2041083"><ele>272.25</ele><time>2026-05-01T09:35:52.158Z</time></trkpt><trkpt lat="45.0740683" lon="8.2039917"><ele>269.5</ele><time>2026-05-01T09:35:53.152Z</time></trkpt><trkpt lat="45.0739667" lon="8.203885"><ele>266.75</ele><time>2026-05-01T09:35:54.154Z</time></trkpt><trkpt lat="45.0738833" lon="8.2037617"><ele>264.0</ele><time>2026-05-01T09:35:55.152Z</time></trkpt><trkpt lat="45.073795" lon="8.2036383"><ele>264.0</ele><time>2026-05-01T09:35:56.15Z</time></trkpt><trkpt lat="45.07372" lon="8.2035067"><ele>264.0</ele><time>2026-05-01T09:35:57.152Z</time></trkpt><trkpt lat="45.0736483" lon="8.20337"><ele>264.0</ele><time>2026-05-01T09:35:58.155Z</time></trkpt><trkpt lat="45.0735833" lon="8.2032117"><ele>264.0</ele><time>2026-05-01T09:35:59.153Z</time></trkpt><trkpt lat="45.07353" lon="8.2030433"><ele>266.5</ele><time>2026-05-01T09:36:00.152Z</time></trkpt><trkpt lat="45.0734683" lon="8.20287"><ele>269.0</ele><time>2026-05-01T09:36:01.152Z</time></trkpt><trkpt lat="45.07341" lon="8.2026967"><ele>271.5</ele><time>2026-05-01T09:36:02.152Z</time></trkpt><trkpt lat="45.0733783" lon="8.20251"><ele>274.0</ele><time>2026-05-01T09:36:03.155Z</time></trkpt><trkpt lat="45.073365" lon="8.20231"><ele>274.5</ele><time>2026-05-01T09:36:04.151Z</time></trkpt><trkpt lat="45.0733667" lon="8.2021"><ele>275.0</ele><time>2026-05-01T09:36:05.155Z</time></trkpt><trkpt lat="45.0733733" lon="8.2018883"><ele>275.5</ele><time>2026-05-01T09:36:06.15Z</time></trkpt><trkpt lat="45.073365" lon="8.201675"><ele>276.0</ele><time>2026-05-01T09:36:07.157Z</time></trkpt><trkpt lat="45.0733367" lon="8.2014633"><ele>277.0</ele><time>2026-05-01T09:36:08.151Z</time></trkpt><trkpt lat="45.0732933" lon="8.20126"><ele>278.0</ele><time>2026-05-01T09:36:09.154Z</time></trkpt><trkpt lat="45.0732317" lon="8.2010733"><ele>279.0</ele><time>2026-05-01T09:36:10.154Z</time></trkpt><trkpt lat="45.0731617" lon="8.2009033"><ele>280.0</ele><time>2026-05-01T09:36:11.157Z</time></trkpt><trkpt lat="45.073085" lon="8.2007367"><ele>278.25</ele><time>2026-05-01T09:36:12.154Z</time></trkpt><trkpt lat="45.0730133" lon="8.20057"><ele>276.5</ele><time>2026-05-01T09:36:13.158Z</time></trkpt><trkpt lat="45.0729433" lon="8.2004017"><ele>274.75</ele><time>2026-05-01T09:36:14.153Z</time></trkpt><trkpt lat="45.0728767" lon="8.200225"><ele>273.0</ele><time>2026-05-01T09:36:15.151Z</time></trkpt><trkpt lat="45.072805" lon="8.2000467"><ele>273.0</ele><time>2026-05-01T09:36:16.155Z</time></trkpt><trkpt lat="45.0727317" lon="8.1998717"><ele>273.0</ele><time>2026-05-01T09:36:17.152Z</time></trkpt><trkpt lat="45.0726583" lon="8.1996967"><ele>273.0</ele><time>2026-05-01T09:36:18.155Z</time></trkpt><trkpt lat="45.0725817" lon="8.19952"><ele>273.0</ele><time>2026-05-01T09:36:19.158Z</time></trkpt><trkpt lat="45.0725083" lon="8.1993417"><ele>274.5</ele><time>2026-05-01T09:36:20.155Z</time></trkpt><trkpt lat="45.07244" lon="8.1991667"><ele>276.0</ele><time>2026-05-01T09:36:21.154Z</time></trkpt><trkpt lat="45.0723733" lon="8.199005"><ele>277.5</ele><time>2026-05-01T09:36:22.15Z</time></trkpt><trkpt lat="45.0723233" lon="8.1988683"><ele>279.0</ele><time>2026-05-01T09:36:23.153Z</time></trkpt><trkpt lat="45.0722833" lon="8.1987467"><ele>278.5</ele><time>2026-05-01T09:36:24.152Z</time></trkpt><trkpt lat="45.07227" lon="8.1986217"><ele>278.0</ele><time>2026-05-01T09:36:25.152Z</time></trkpt><trkpt lat="45.0722817" lon="8.1985083"><ele>277.5</ele><time>2026-05-01T09:36:26.153Z</time></trkpt><trkpt lat="45.0723167" lon="8.19841"><ele>277.0</ele><time>2026-05-01T09:36:27.15Z</time></trkpt><trkpt lat="45.0723833" lon="8.1983267"><ele>276.5</ele><time>2026-05-01T09:36:28.154Z</time></trkpt><trkpt lat="45.07247" lon="8.1982567"><ele>276.0</ele><time>2026-05-01T09:36:29.154Z</time></trkpt><trkpt lat="45.072595" lon="8.1981933"><ele>272.5</ele><time>2026-05-01T09:36:30.152Z</time></trkpt><trkpt lat="45.07271" lon="8.1981583"><ele>269.0</ele><time>2026-05-01T09:36:31.152Z</time></trkpt><trkpt lat="45.072825" lon="8.198085"><ele>265.5</ele><time>2026-05-01T09:36:32.153Z</time></trkpt><trkpt lat="45.0729733" lon="8.1979267"><ele>262.0</ele><time>2026-05-01T09:36:33.152Z</time></trkpt><trkpt lat="45.0731017" lon="8.1978233"><ele>262.0</ele><time>2026-05-01T09:36:34.155Z</time></trkpt><trkpt lat="45.07323" lon="8.1977617"><ele>262.0</ele><time>2026-05-01T09:36:35.156Z</time></trkpt><trkpt lat="45.0733633" lon="8.1976967"><ele>262.0</ele><time>2026-05-01T09:36:36.16Z</time></trkpt><trkpt lat="45.0735033" lon="8.1977033"><ele>262.0</ele><time>2026-05-01T09:36:37.151Z</time></trkpt><trkpt lat="45.073655" lon="8.1977483"><ele>264.0</ele><time>2026-05-01T09:36:38.153Z</time></trkpt><trkpt lat="45.0737917" lon="8.19775"><ele>266.0</ele><time>2026-05-01T09:36:39.151Z</time></trkpt><trkpt lat="45.0739267" lon="8.1977033"><ele>268.0</ele><time>2026-05-01T09:36:40.153Z</time></trkpt><trkpt lat="45.0740617" lon="8.1976483"><ele>270.0</ele><time>2026-05-01T09:36:41.153Z</time></trkpt><trkpt lat="45.07419" lon="8.1975833"><ele>271.0</ele><time>2026-05-01T09:36:42.151Z</time></trkpt><trkpt lat="45.0743083" lon="8.1975017"><ele>272.0</ele><time>2026-05-01T09:36:43.155Z</time></trkpt><trkpt lat="45.0744283" lon="8.1974383"><ele>273.0</ele><time>2026-05-01T09:36:44.153Z</time></trkpt><trkpt lat="45.0745583" lon="8.1973967"><ele>274.0</ele><time>2026-05-01T09:36:45.152Z</time></trkpt><trkpt lat="45.07469" lon="8.1973617"><ele>273.25</ele><time>2026-05-01T09:36:46.153Z</time></trkpt><trkpt lat="45.0748217" lon="8.1973233"><ele>272.5</ele><time>2026-05-01T09:36:47.153Z</time></trkpt><trkpt lat="45.0749483" lon="8.1973017"><ele>271.75</ele><time>2026-05-01T09:36:48.149Z</time></trkpt><trkpt lat="45.0750633" lon="8.197275"><ele>271.0</ele><time>2026-05-01T09:36:49.154Z</time></trkpt><trkpt lat="45.0751667" lon="8.1972417"><ele>271.0</ele><time>2026-05-01T09:36:50.156Z</time></trkpt><trkpt lat="45.075255" lon="8.1972"><ele>271.0</ele><time>2026-05-01T09:36:51.155Z</time></trkpt><trkpt lat="45.0753217" lon="8.197115"><ele>271.0</ele><time>2026-05-01T09:36:52.156Z</time></trkpt><trkpt lat="45.07537" lon="8.1970167"><ele>271.0</ele><time>2026-05-01T09:36:53.155Z</time></trkpt><trkpt lat="45.0753883" lon="8.196885"><ele>271.0</ele><time>2026-05-01T09:36:54.152Z</time></trkpt><trkpt lat="45.0754" lon="8.1967283"><ele>271.0</ele><time>2026-05-01T09:36:55.153Z</time></trkpt><trkpt lat="45.0754133" lon="8.196555"><ele>271.0</ele><time>2026-05-01T09:36:56.155Z</time></trkpt><trkpt lat="45.0754367" lon="8.1963817"><ele>271.0</ele><time>2026-05-01T09:36:57.154Z</time></trkpt><trkpt lat="45.07548" lon="8.1962183"><ele>271.0</ele><time>2026-05-01T09:36:58.155Z</time></trkpt><trkpt lat="45.075545" lon="8.19606"><ele>270.25</ele><time>2026-05-01T09:36:59.157Z</time></trkpt><trkpt lat="45.07563" lon="8.1959083"><ele>269.5</ele><time>2026-05-01T09:37:00.153Z</time></trkpt><trkpt lat="45.0757267" lon="8.1957717"><ele>268.75</ele><time>2026-05-01T09:37:01.155Z</time></trkpt><trkpt lat="45.0758283" lon="8.1956517"><ele>268.0</ele><time>2026-05-01T09:37:02.158Z</time></trkpt><trkpt lat="45.07592" lon="8.1955383"><ele>268.0</ele><time>2026-05-01T09:37:03.157Z</time></trkpt><trkpt lat="45.0760117" lon="8.19544"><ele>268.0</ele><time>2026-05-01T09:37:04.158Z</time></trkpt><trkpt lat="45.0761083" lon="8.1953733"><ele>268.0</ele><time>2026-05-01T09:37:05.153Z</time></trkpt><trkpt lat="45.0762133" lon="8.1953467"><ele>268.0</ele><time>2026-05-01T09:37:06.156Z</time></trkpt><trkpt lat="45.0763233" lon="8.1953583"><ele>268.0</ele><time>2026-05-01T09:37:07.156Z</time></trkpt><trkpt lat="45.0764333" lon="8.1954017"><ele>268.0</ele><time>2026-05-01T09:37:08.159Z</time></trkpt><trkpt lat="45.0765467" lon="8.19547"><ele>268.0</ele><time>2026-05-01T09:37:09.15Z</time></trkpt><trkpt lat="45.0766517" lon="8.195545"><ele>268.0</ele><time>2026-05-01T09:37:10.156Z</time></trkpt><trkpt lat="45.076745" lon="8.1956067"><ele>268.0</ele><time>2026-05-01T09:37:11.158Z</time></trkpt><trkpt lat="45.076835" lon="8.1955817"><ele>268.0</ele><time>2026-05-01T09:37:12.151Z</time></trkpt><trkpt lat="45.0769283" lon="8.195555"><ele>269.75</ele><time>2026-05-01T09:37:13.155Z</time></trkpt><trkpt lat="45.0770117" lon="8.1954983"><ele>271.5</ele><time>2026-05-01T09:37:14.152Z</time></trkpt><trkpt lat="45.0770917" lon="8.1954"><ele>273.25</ele><time>2026-05-01T09:37:15.153Z</time></trkpt><trkpt lat="45.07717" lon="8.1952517"><ele>275.0</ele><time>2026-05-01T09:37:16.155Z</time></trkpt><trkpt lat="45.0772567" lon="8.1950583"><ele>275.0</ele><time>2026-05-01T09:37:17.155Z</time></trkpt><trkpt lat="45.077335" lon="8.1948417"><ele>275.0</ele><time>2026-05-01T09:37:18.154Z</time></trkpt><trkpt lat="45.0774183" lon="8.1946417"><ele>275.0</ele><time>2026-05-01T09:37:19.162Z</time></trkpt><trkpt lat="45.077505" lon="8.1944567"><ele>275.0</ele><time>2026-05-01T09:37:20.156Z</time></trkpt><trkpt lat="45.07759" lon="8.194295"><ele>275.0</ele><time>2026-05-01T09:37:21.156Z</time></trkpt><trkpt lat="45.07768" lon="8.1941283"><ele>275.0</ele><time>2026-05-01T09:37:22.154Z</time></trkpt><trkpt lat="45.0777783" lon="8.1939817"><ele>275.0</ele><time>2026-05-01T09:37:23.155Z</time></trkpt><trkpt lat="45.0778833" lon="8.19385"><ele>275.0</ele><time>2026-05-01T09:37:24.156Z</time></trkpt><trkpt lat="45.0779967" lon="8.1937267"><ele>275.0</ele><time>2026-05-01T09:37:25.153Z</time></trkpt><trkpt lat="45.0781117" lon="8.1936067"><ele>275.0</ele><time>2026-05-01T09:37:26.16Z</time></trkpt><trkpt lat="45.0782267" lon="8.1934917"><ele>275.0</ele><time>2026-05-01T09:37:27.154Z</time></trkpt><trkpt lat="45.0783383" lon="8.1933967"><ele>277.25</ele><time>2026-05-01T09:37:28.154Z</time></trkpt><trkpt lat="45.078445" lon="8.193315"><ele>279.5</ele><time>2026-05-01T09:37:29.158Z</time></trkpt><trkpt lat="45.0785483" lon="8.1932483"><ele>281.75</ele><time>2026-05-01T09:37:30.156Z</time></trkpt><trkpt lat="45.07866" lon="8.193215"><ele>284.0</ele><time>2026-05-01T09:37:31.159Z</time></trkpt><trkpt lat="45.0787867" lon="8.19321"><ele>284.0</ele><time>2026-05-01T09:37:32.16Z</time></trkpt><trkpt lat="45.0789267" lon="8.1932417"><ele>284.0</ele><time>2026-05-01T09:37:33.152Z</time></trkpt><trkpt lat="45.079075" lon="8.1932817"><ele>284.0</ele><time>2026-05-01T09:37:34.154Z</time></trkpt><trkpt lat="45.07926" lon="8.1933683"><ele>287.33333333333337</ele><time>2026-05-01T09:37:35.153Z</time></trkpt><trkpt lat="45.07945" lon="8.1934717"><ele>290.6666666666667</ele><time>2026-05-01T09:37:36.151Z</time></trkpt><trkpt lat="45.0796267" lon="8.1935633"><ele>294.0</ele><time>2026-05-01T09:37:37.155Z</time></trkpt><trkpt lat="45.0798033" lon="8.19363"><ele>294.6666666666667</ele><time>2026-05-01T09:37:38.156Z</time></trkpt><trkpt lat="45.079975" lon="8.1936967"><ele>295.33333333333337</ele><time>2026-05-01T09:37:39.155Z</time></trkpt><trkpt lat="45.0801383" lon="8.1937667"><ele>296.0</ele><time>2026-05-01T09:37:40.155Z</time></trkpt><trkpt lat="45.0802933" lon="8.1938483"><ele>296.0</ele><time>2026-05-01T09:37:41.154Z</time></trkpt><trkpt lat="45.0804533" lon="8.1939033"><ele>296.0</ele><time>2026-05-01T09:37:42.158Z</time></trkpt><trkpt lat="45.0806083" lon="8.1939533"><ele>296.0</ele><time>2026-05-01T09:37:43.156Z</time></trkpt><trkpt lat="45.0807517" lon="8.1939917"><ele>297.40000000000003</ele><time>2026-05-01T09:37:44.156Z</time></trkpt><trkpt lat="45.08087" lon="8.1940233"><ele>298.8</ele><time>2026-05-01T09:37:45.155Z</time></trkpt><trkpt lat="45.0809683" lon="8.194015"><ele>300.20000000000005</ele><time>2026-05-01T09:37:46.152Z</time></trkpt><trkpt lat="45.0810533" lon="8.19399"><ele>301.6</ele><time>2026-05-01T09:37:47.157Z</time></trkpt><trkpt lat="45.0811333" lon="8.1939483"><ele>303.0</ele><time>2026-05-01T09:37:48.159Z</time></trkpt><trkpt lat="45.0812067" lon="8.1938733"><ele>303.0</ele><time>2026-05-01T09:37:49.154Z</time></trkpt><trkpt lat="45.081275" lon="8.19375"><ele>303.0</ele><time>2026-05-01T09:37:50.152Z</time></trkpt><trkpt lat="45.0813367" lon="8.1936183"><ele>303.0</ele><time>2026-05-01T09:37:51.156Z</time></trkpt><trkpt lat="45.081375" lon="8.19346"><ele>303.0</ele><time>2026-05-01T09:37:52.151Z</time></trkpt><trkpt lat="45.0813983" lon="8.193295"><ele>303.4</ele><time>2026-05-01T09:37:53.157Z</time></trkpt><trkpt lat="45.0814067" lon="8.1931283"><ele>303.8</ele><time>2026-05-01T09:37:54.156Z</time></trkpt><trkpt lat="45.0814033" lon="8.19297"><ele>304.2</ele><time>2026-05-01T09:37:55.153Z</time></trkpt><trkpt lat="45.08139" lon="8.1928217"><ele>304.6</ele><time>2026-05-01T09:37:56.153Z</time></trkpt><trkpt lat="45.08135" lon="8.1926917"><ele>305.0</ele><time>2026-05-01T09:37:57.155Z</time></trkpt><trkpt lat="45.08129" lon="8.1925767"><ele>305.0</ele><time>2026-05-01T09:37:58.151Z</time></trkpt><trkpt lat="45.081215" lon="8.1924683"><ele>305.0</ele><time>2026-05-01T09:37:59.155Z</time></trkpt><trkpt lat="45.0811333" lon="8.1923617"><ele>305.0</ele><time>2026-05-01T09:38:00.151Z</time></trkpt><trkpt lat="45.0810567" lon="8.1922433"><ele>305.0</ele><time>2026-05-01T09:38:01.151Z</time></trkpt><trkpt lat="45.080995" lon="8.19211"><ele>305.0</ele><time>2026-05-01T09:38:02.154Z</time></trkpt><trkpt lat="45.0809483" lon="8.1919767"><ele>305.1666666666667</ele><time>2026-05-01T09:38:03.155Z</time></trkpt><trkpt lat="45.0809033" lon="8.1918567"><ele>305.33333333333337</ele><time>2026-05-01T09:38:04.155Z</time></trkpt><trkpt lat="45.0808533" lon="8.1917533"><ele>305.5</ele><time>2026-05-01T09:38:05.154Z</time></trkpt><trkpt lat="45.0808" lon="8.1916733"><ele>305.6666666666667</ele><time>2026-05-01T09:38:06.153Z</time></trkpt><trkpt lat="45.080715" lon="8.19165"><ele>305.8333333333333</ele><time>2026-05-01T09:38:07.156Z</time></trkpt><trkpt lat="45.0806367" lon="8.1916167"><ele>306.0</ele><time>2026-05-01T09:38:08.151Z</time></trkpt><trkpt lat="45.08054" lon="8.191635"><ele>306.0</ele><time>2026-05-01T09:38:09.152Z</time></trkpt><trkpt lat="45.08046" lon="8.1916033"><ele>306.0</ele><time>2026-05-01T09:38:10.151Z</time></trkpt><trkpt lat="45.0803817" lon="8.1915633"><ele>306.0</ele><time>2026-05-01T09:38:11.16Z</time></trkpt><trkpt lat="45.0803083" lon="8.1914917"><ele>306.0</ele><time>2026-05-01T09:38:12.156Z</time></trkpt><trkpt lat="45.0802567" lon="8.1913883"><ele>306.0</ele><time>2026-05-01T09:38:13.153Z</time></trkpt><trkpt lat="45.0802233" lon="8.1912633"><ele>306.0</ele><time>2026-05-01T09:38:14.152Z</time></trkpt><trkpt lat="45.080215" lon="8.1911317"><ele>306.1666666666667</ele><time>2026-05-01T09:38:15.151Z</time></trkpt><trkpt lat="45.0801667" lon="8.191035"><ele>306.3333333333333</ele><time>2026-05-01T09:38:16.154Z</time></trkpt><trkpt lat="45.0801183" lon="8.19095"><ele>306.5</ele><time>2026-05-01T09:38:17.153Z</time></trkpt><trkpt lat="45.08005" lon="8.1909017"><ele>306.66666666666663</ele><time>2026-05-01T09:38:18.151Z</time></trkpt><trkpt lat="45.0799683" lon="8.1908783"><ele>306.8333333333333</ele><time>2026-05-01T09:38:19.152Z</time></trkpt><trkpt lat="45.0798817" lon="8.1908533"><ele>307.0</ele><time>2026-05-01T09:38:20.15Z</time></trkpt><trkpt lat="45.0797933" lon="8.1908467"><ele>307.0</ele><time>2026-05-01T09:38:21.151Z</time></trkpt><trkpt lat="45.079705" lon="8.19083"><ele>307.0</ele><time>2026-05-01T09:38:22.154Z</time></trkpt><trkpt lat="45.07964" lon="8.1907733"><ele>307.0</ele><time>2026-05-01T09:38:23.152Z</time></trkpt><trkpt lat="45.0796317" lon="8.19066"><ele>307.0</ele><time>2026-05-01T09:38:24.153Z</time></trkpt><trkpt lat="45.079605" lon="8.1905383"><ele>307.0</ele><time>2026-05-01T09:38:25.151Z</time></trkpt><trkpt lat="45.079595" lon="8.1903933"><ele>307.0</ele><time>2026-05-01T09:38:26.152Z</time></trkpt><trkpt lat="45.0796017" lon="8.1902083"><ele>308.0</ele><time>2026-05-01T09:38:27.155Z</time></trkpt><trkpt lat="45.07962" lon="8.1900067"><ele>309.0</ele><time>2026-05-01T09:38:28.156Z</time></trkpt><trkpt lat="45.079635" lon="8.1897933"><ele>310.0</ele><time>2026-05-01T09:38:29.156Z</time></trkpt><trkpt lat="45.079635" lon="8.1895817"><ele>311.0</ele><time>2026-05-01T09:38:30.16Z</time></trkpt><trkpt lat="45.0796383" lon="8.1893817"><ele>311.25</ele><time>2026-05-01T09:38:31.155Z</time></trkpt><trkpt lat="45.0796533" lon="8.1891917"><ele>311.5</ele><time>2026-05-01T09:38:32.157Z</time></trkpt><trkpt lat="45.0796783" lon="8.189015"><ele>311.75</ele><time>2026-05-01T09:38:33.152Z</time></trkpt><trkpt lat="45.0797183" lon="8.188845"><ele>312.0</ele><time>2026-05-01T09:38:34.152Z</time></trkpt><trkpt lat="45.0797633" lon="8.1886833"><ele>313.0</ele><time>2026-05-01T09:38:35.154Z</time></trkpt><trkpt lat="45.0798117" lon="8.1885183"><ele>314.0</ele><time>2026-05-01T09:38:36.151Z</time></trkpt><trkpt lat="45.07986" lon="8.1883533"><ele>315.0</ele><time>2026-05-01T09:38:37.153Z</time></trkpt><trkpt lat="45.0799117" lon="8.1881883"><ele>316.0</ele><time>2026-05-01T09:38:38.153Z</time></trkpt><trkpt lat="45.0799533" lon="8.1880317"><ele>317.4</ele><time>2026-05-01T09:38:39.155Z</time></trkpt><trkpt lat="45.07998" lon="8.1878783"><ele>318.8</ele><time>2026-05-01T09:38:40.151Z</time></trkpt><trkpt lat="45.0799933" lon="8.1877233"><ele>320.2</ele><time>2026-05-01T09:38:41.153Z</time></trkpt><trkpt lat="45.0800017" lon="8.1875717"><ele>321.59999999999997</ele><time>2026-05-01T09:38:42.156Z</time></trkpt><trkpt lat="45.0800167" lon="8.18743"><ele>323.0</ele><time>2026-05-01T09:38:43.151Z</time></trkpt><trkpt lat="45.0800483" lon="8.187295"><ele>323.0</ele><time>2026-05-01T09:38:44.156Z</time></trkpt><trkpt lat="45.080075" lon="8.1871717"><ele>323.0</ele><time>2026-05-01T09:38:45.156Z</time></trkpt><trkpt lat="45.0800867" lon="8.187045"><ele>323.0</ele><time>2026-05-01T09:38:46.155Z</time></trkpt><trkpt lat="45.08007" lon="8.18691"><ele>323.0</ele><time>2026-05-01T09:38:47.155Z</time></trkpt><trkpt lat="45.0800333" lon="8.1867733"><ele>323.0</ele><time>2026-05-01T09:38:48.154Z</time></trkpt><trkpt lat="45.079985" lon="8.1866333"><ele>321.5</ele><time>2026-05-01T09:38:49.155Z</time></trkpt><trkpt lat="45.0799383" lon="8.1864883"><ele>320.0</ele><time>2026-05-01T09:38:50.151Z</time></trkpt><trkpt lat="45.0798883" lon="8.1863283"><ele>318.5</ele><time>2026-05-01T09:38:51.151Z</time></trkpt><trkpt lat="45.0798583" lon="8.1861633"><ele>317.0</ele><time>2026-05-01T09:38:52.152Z</time></trkpt><trkpt lat="45.0798333" lon="8.185995"><ele>317.0</ele><time>2026-05-01T09:38:53.153Z</time></trkpt><trkpt lat="45.0798267" lon="8.1858267"><ele>317.0</ele><time>2026-05-01T09:38:54.151Z</time></trkpt><trkpt lat="45.0798333" lon="8.1856667"><ele>317.0</ele><time>2026-05-01T09:38:55.153Z</time></trkpt><trkpt lat="45.0798383" lon="8.1855283"><ele>317.0</ele><time>2026-05-01T09:38:56.154Z</time></trkpt><trkpt lat="45.0798833" lon="8.1853983"><ele>317.0</ele><time>2026-05-01T09:38:57.154Z</time></trkpt><trkpt lat="45.0799417" lon="8.1852867"><ele>315.8</ele><time>2026-05-01T09:38:58.153Z</time></trkpt><trkpt lat="45.0800133" lon="8.1851883"><ele>314.6</ele><time>2026-05-01T09:38:59.152Z</time></trkpt><trkpt lat="45.0800933" lon="8.1851017"><ele>313.40000000000003</ele><time>2026-05-01T09:39:00.153Z</time></trkpt><trkpt lat="45.0801833" lon="8.18503"><ele>312.2</ele><time>2026-05-01T09:39:01.156Z</time></trkpt><trkpt lat="45.080275" lon="8.184975"><ele>311.0</ele><time>2026-05-01T09:39:02.153Z</time></trkpt><trkpt lat="45.080365" lon="8.1849133"><ele>307.6</ele><time>2026-05-01T09:39:03.152Z</time></trkpt><trkpt lat="45.0804533" lon="8.1848417"><ele>304.20000000000005</ele><time>2026-05-01T09:39:04.15Z</time></trkpt><trkpt lat="45.0805333" lon="8.18476"><ele>300.79999999999995</ele><time>2026-05-01T09:39:05.153Z</time></trkpt><trkpt lat="45.0806083" lon="8.1846717"><ele>297.4</ele><time>2026-05-01T09:39:06.155Z</time></trkpt><trkpt lat="45.0806817" lon="8.1845817"><ele>294.0</ele><time>2026-05-01T09:39:07.155Z</time></trkpt><trkpt lat="45.08076" lon="8.18449"><ele>294.8</ele><time>2026-05-01T09:39:08.151Z</time></trkpt><trkpt lat="45.0808417" lon="8.1844183"><ele>295.59999999999997</ele><time>2026-05-01T09:39:09.155Z</time></trkpt><trkpt lat="45.0809283" lon="8.1843583"><ele>296.4</ele><time>2026-05-01T09:39:10.152Z</time></trkpt><trkpt lat="45.0810167" lon="8.1843183"><ele>297.2</ele><time>2026-05-01T09:39:11.154Z</time></trkpt><trkpt lat="45.0811033" lon="8.1843133"><ele>298.0</ele><time>2026-05-01T09:39:12.155Z</time></trkpt><trkpt lat="45.0811983" lon="8.1843183"><ele>298.0</ele><time>2026-05-01T09:39:13.154Z</time></trkpt><trkpt lat="45.0812983" lon="8.184325"><ele>298.0</ele><time>2026-05-01T09:39:14.15Z</time></trkpt><trkpt lat="45.081395" lon="8.184325"><ele>298.0</ele><time>2026-05-01T09:39:15.154Z</time></trkpt><trkpt lat="45.08149" lon="8.18432"><ele>298.0</ele><time>2026-05-01T09:39:16.152Z</time></trkpt><trkpt lat="45.0815717" lon="8.18427"><ele>298.0</ele><time>2026-05-01T09:39:17.153Z</time></trkpt><trkpt lat="45.0816417" lon="8.1842033"><ele>299.4</ele><time>2026-05-01T09:39:18.153Z</time></trkpt><trkpt lat="45.081705" lon="8.1841217"><ele>300.8</ele><time>2026-05-01T09:39:19.152Z</time></trkpt><trkpt lat="45.0817683" lon="8.1840317"><ele>302.2</ele><time>2026-05-01T09:39:20.151Z</time></trkpt><trkpt lat="45.0818317" lon="8.1839367"><ele>303.6</ele><time>2026-05-01T09:39:21.152Z</time></trkpt><trkpt lat="45.0819067" lon="8.183845"><ele>305.0</ele><time>2026-05-01T09:39:22.153Z</time></trkpt><trkpt lat="45.0819933" lon="8.183765"><ele>302.83333333333337</ele><time>2026-05-01T09:39:23.15Z</time></trkpt><trkpt lat="45.0820833" lon="8.183695"><ele>300.6666666666667</ele><time>2026-05-01T09:39:24.152Z</time></trkpt><trkpt lat="45.0821683" lon="8.1836167"><ele>298.5</ele><time>2026-05-01T09:39:25.151Z</time></trkpt><trkpt lat="45.0822483" lon="8.183545"><ele>296.3333333333333</ele><time>2026-05-01T09:39:26.15Z</time></trkpt><trkpt lat="45.08232" lon="8.1834967"><ele>294.16666666666663</ele><time>2026-05-01T09:39:27.16Z</time></trkpt><trkpt lat="45.0823817" lon="8.1834467"><ele>292.0</ele><time>2026-05-01T09:39:28.151Z</time></trkpt><trkpt lat="45.0824667" lon="8.1833317"><ele>292.0</ele><time>2026-05-01T09:39:30.15Z</time></trkpt><trkpt lat="45.08248" lon="8.18321"><ele>292.0</ele><time>2026-05-01T09:39:32.152Z</time></trkpt><trkpt lat="45.0823933" lon="8.1831417"><ele>292.0</ele><time>2026-05-01T09:39:34.154Z</time></trkpt><trkpt lat="45.0823117" lon="8.1831583"><ele>292.0</ele><time>2026-05-01T09:39:36.156Z</time></trkpt><trkpt lat="45.0822583" lon="8.18322"><ele>292.0</ele><time>2026-05-01T09:39:37.157Z</time></trkpt><trkpt lat="45.0821967" lon="8.18332"><ele>292.0</ele><time>2026-05-01T09:39:38.154Z</time></trkpt><trkpt lat="45.0821267" lon="8.18341"><ele>290.6</ele><time>2026-05-01T09:39:39.151Z</time></trkpt><trkpt lat="45.08204" lon="8.183485"><ele>289.2</ele><time>2026-05-01T09:39:40.154Z</time></trkpt><trkpt lat="45.08195" lon="8.1835517"><ele>287.8</ele><time>2026-05-01T09:39:41.154Z</time></trkpt><trkpt lat="45.0818583" lon="8.1836133"><ele>286.4</ele><time>2026-05-01T09:39:42.152Z</time></trkpt><trkpt lat="45.081765" lon="8.183685"><ele>285.0</ele><time>2026-05-01T09:39:43.152Z</time></trkpt><trkpt lat="45.08167" lon="8.183745"><ele>284.0</ele><time>2026-05-01T09:39:44.153Z</time></trkpt><trkpt lat="45.0815783" lon="8.1837933"><ele>283.0</ele><time>2026-05-01T09:39:45.154Z</time></trkpt><trkpt lat="45.081485" lon="8.1838117"><ele>282.0</ele><time>2026-05-01T09:39:46.153Z</time></trkpt><trkpt lat="45.0813933" lon="8.183815"><ele>281.0</ele><time>2026-05-01T09:39:47.153Z</time></trkpt><trkpt lat="45.0813067" lon="8.1837983"><ele>280.0</ele><time>2026-05-01T09:39:48.15Z</time></trkpt><trkpt lat="45.0812217" lon="8.1837667"><ele>280.0</ele><time>2026-05-01T09:39:49.15Z</time></trkpt><trkpt lat="45.081145" lon="8.18372"><ele>280.0</ele><time>2026-05-01T09:39:50.153Z</time></trkpt><trkpt lat="45.0810867" lon="8.183645"><ele>280.0</ele><time>2026-05-01T09:39:51.153Z</time></trkpt><trkpt lat="45.0810367" lon="8.1835583"><ele>280.0</ele><time>2026-05-01T09:39:52.16Z</time></trkpt><trkpt lat="45.0809867" lon="8.1834883"><ele>280.0</ele><time>2026-05-01T09:39:53.15Z</time></trkpt><trkpt lat="45.080925" lon="8.1834483"><ele>280.0</ele><time>2026-05-01T09:39:54.153Z</time></trkpt><trkpt lat="45.080845" lon="8.1834917"><ele>278.4</ele><time>2026-05-01T09:39:55.152Z</time></trkpt><trkpt lat="45.0807617" lon="8.183545"><ele>276.8</ele><time>2026-05-01T09:39:56.152Z</time></trkpt><trkpt lat="45.0806717" lon="8.1836167"><ele>275.2</ele><time>2026-05-01T09:39:57.152Z</time></trkpt><trkpt lat="45.08058" lon="8.1836983"><ele>273.6</ele><time>2026-05-01T09:39:58.148Z</time></trkpt><trkpt lat="45.0804867" lon="8.1837767"><ele>272.0</ele><time>2026-05-01T09:39:59.152Z</time></trkpt><trkpt lat="45.0803983" lon="8.1838417"><ele>272.0</ele><time>2026-05-01T09:40:00.154Z</time></trkpt><trkpt lat="45.0803117" lon="8.1838817"><ele>272.0</ele><time>2026-05-01T09:40:01.153Z</time></trkpt><trkpt lat="45.08023" lon="8.1839033"><ele>272.0</ele><time>2026-05-01T09:40:02.152Z</time></trkpt><trkpt lat="45.080145" lon="8.18387"><ele>272.0</ele><time>2026-05-01T09:40:03.152Z</time></trkpt><trkpt lat="45.08006" lon="8.1838217"><ele>272.0</ele><time>2026-05-01T09:40:04.153Z</time></trkpt><trkpt lat="45.0799767" lon="8.18377"><ele>272.0</ele><time>2026-05-01T09:40:05.159Z</time></trkpt><trkpt lat="45.079895" lon="8.1836833"><ele>272.4</ele><time>2026-05-01T09:40:06.155Z</time></trkpt><trkpt lat="45.07982" lon="8.1835317"><ele>272.79999999999995</ele><time>2026-05-01T09:40:07.154Z</time></trkpt><trkpt lat="45.079755" lon="8.1834133"><ele>273.2</ele><time>2026-05-01T09:40:08.15Z</time></trkpt><trkpt lat="45.07969" lon="8.1833167"><ele>273.59999999999997</ele><time>2026-05-01T09:40:09.15Z</time></trkpt><trkpt lat="45.07962" lon="8.1832367"><ele>274.0</ele><time>2026-05-01T09:40:10.154Z</time></trkpt><trkpt lat="45.0795517" lon="8.1832317"><ele>274.0</ele><time>2026-05-01T09:40:11.155Z</time></trkpt><trkpt lat="45.079485" lon="8.1832483"><ele>274.0</ele><time>2026-05-01T09:40:12.15Z</time></trkpt><trkpt lat="45.0794417" lon="8.1833183"><ele>274.0</ele><time>2026-05-01T09:40:13.155Z</time></trkpt><trkpt lat="45.079355" lon="8.1834283"><ele>274.0</ele><time>2026-05-01T09:40:15.15Z</time></trkpt><trkpt lat="45.0792917" lon="8.1833683"><ele>274.0</ele><time>2026-05-01T09:40:17.154Z</time></trkpt><trkpt lat="45.0792867" lon="8.183225"><ele>274.0</ele><time>2026-05-01T09:40:19.161Z</time></trkpt><trkpt lat="45.07932" lon="8.1831217"><ele>271.66666666666663</ele><time>2026-05-01T09:40:20.153Z</time></trkpt><trkpt lat="45.0793733" lon="8.1830167"><ele>269.3333333333333</ele><time>2026-05-01T09:40:21.15Z</time></trkpt><trkpt lat="45.0794317" lon="8.182925"><ele>267.0</ele><time>2026-05-01T09:40:22.154Z</time></trkpt><trkpt lat="45.079475" lon="8.1828383"><ele>264.6666666666667</ele><time>2026-05-01T09:40:23.152Z</time></trkpt><trkpt lat="45.0795567" lon="8.1828383"><ele>262.33333333333337</ele><time>2026-05-01T09:40:24.15Z</time></trkpt><trkpt lat="45.0796367" lon="8.182885"><ele>260.0</ele><time>2026-05-01T09:40:25.155Z</time></trkpt><trkpt lat="45.079715" lon="8.1829533"><ele>260.0</ele><time>2026-05-01T09:40:26.154Z</time></trkpt><trkpt lat="45.0797883" lon="8.183035"><ele>260.0</ele><time>2026-05-01T09:40:27.16Z</time></trkpt><trkpt lat="45.0798583" lon="8.1830933"><ele>260.0</ele><time>2026-05-01T09:40:28.154Z</time></trkpt><trkpt lat="45.0799317" lon="8.1831483"><ele>260.0</ele><time>2026-05-01T09:40:29.151Z</time></trkpt><trkpt lat="45.0800217" lon="8.1831683"><ele>260.0</ele><time>2026-05-01T09:40:30.155Z</time></trkpt><trkpt lat="45.0801167" lon="8.1831067"><ele>260.2</ele><time>2026-05-01T09:40:31.154Z</time></trkpt><trkpt lat="45.0802067" lon="8.183055"><ele>260.4</ele><time>2026-05-01T09:40:32.155Z</time></trkpt><trkpt lat="45.0802817" lon="8.1829533"><ele>260.6</ele><time>2026-05-01T09:40:33.149Z</time></trkpt><trkpt lat="45.0803317" lon="8.1828217"><ele>260.8</ele><time>2026-05-01T09:40:34.152Z</time></trkpt><trkpt lat="45.0803567" lon="8.1826617"><ele>261.0</ele><time>2026-05-01T09:40:35.16Z</time></trkpt><trkpt lat="45.0803917" lon="8.1825083"><ele>261.0</ele><time>2026-05-01T09:40:36.15Z</time></trkpt><trkpt lat="45.08043" lon="8.1823633"><ele>261.0</ele><time>2026-05-01T09:40:37.149Z</time></trkpt><trkpt lat="45.08048" lon="8.1822317"><ele>261.0</ele><time>2026-05-01T09:40:38.152Z</time></trkpt><trkpt lat="45.0805383" lon="8.1821267"><ele>261.0</ele><time>2026-05-01T09:40:39.151Z</time></trkpt><trkpt lat="45.0806083" lon="8.1820517"><ele>261.0</ele><time>2026-05-01T09:40:40.152Z</time></trkpt><trkpt lat="45.0806833" lon="8.1820033"><ele>258.8</ele><time>2026-05-01T09:40:41.152Z</time></trkpt><trkpt lat="45.080765" lon="8.1819883"><ele>256.6</ele><time>2026-05-01T09:40:42.154Z</time></trkpt><trkpt lat="45.0808617" lon="8.1820283"><ele>254.4</ele><time>2026-05-01T09:40:43.156Z</time></trkpt><trkpt lat="45.080955" lon="8.1820683"><ele>252.2</ele><time>2026-05-01T09:40:44.155Z</time></trkpt><trkpt lat="45.0810567" lon="8.1821017"><ele>250.0</ele><time>2026-05-01T09:40:45.152Z</time></trkpt><trkpt lat="45.081155" lon="8.1821167"><ele>249.6</ele><time>2026-05-01T09:40:46.154Z</time></trkpt><trkpt lat="45.081255" lon="8.1821133"><ele>249.2</ele><time>2026-05-01T09:40:47.153Z</time></trkpt><trkpt lat="45.0813383" lon="8.1820583"><ele>248.8</ele><time>2026-05-01T09:40:48.152Z</time></trkpt><trkpt lat="45.0814083" lon="8.1819617"><ele>248.4</ele><time>2026-05-01T09:40:49.155Z</time></trkpt><trkpt lat="45.0814733" lon="8.18184"><ele>248.0</ele><time>2026-05-01T09:40:50.155Z</time></trkpt><trkpt lat="45.081545" lon="8.1817117"><ele>249.0</ele><time>2026-05-01T09:40:51.152Z</time></trkpt><trkpt lat="45.0816267" lon="8.1815867"><ele>250.0</ele><time>2026-05-01T09:40:52.154Z</time></trkpt><trkpt lat="45.0817233" lon="8.1814783"><ele>251.0</ele><time>2026-05-01T09:40:53.152Z</time></trkpt><trkpt lat="45.08183" lon="8.1813867"><ele>252.0</ele><time>2026-05-01T09:40:54.154Z</time></trkpt><trkpt lat="45.0819433" lon="8.1812867"><ele>249.0</ele><time>2026-05-01T09:40:55.152Z</time></trkpt><trkpt lat="45.0820533" lon="8.181185"><ele>246.0</ele><time>2026-05-01T09:40:56.151Z</time></trkpt><trkpt lat="45.082155" lon="8.1810617"><ele>243.0</ele><time>2026-05-01T09:40:57.159Z</time></trkpt><trkpt lat="45.0822367" lon="8.180915"><ele>240.0</ele><time>2026-05-01T09:40:58.153Z</time></trkpt><trkpt lat="45.0823" lon="8.18075"><ele>238.25</ele><time>2026-05-01T09:40:59.156Z</time></trkpt><trkpt lat="45.0823517" lon="8.1805733"><ele>236.5</ele><time>2026-05-01T09:41:00.156Z</time></trkpt><trkpt lat="45.082395" lon="8.1803917"><ele>234.75</ele><time>2026-05-01T09:41:01.151Z</time></trkpt><trkpt lat="45.0824367" lon="8.1802117"><ele>233.0</ele><time>2026-05-01T09:41:02.152Z</time></trkpt><trkpt lat="45.08248" lon="8.1800367"><ele>233.0</ele><time>2026-05-01T09:41:03.152Z</time></trkpt><trkpt lat="45.0825317" lon="8.1798867"><ele>233.0</ele><time>2026-05-01T09:41:04.155Z</time></trkpt><trkpt lat="45.082605" lon="8.1797667"><ele>233.0</ele><time>2026-05-01T09:41:05.156Z</time></trkpt><trkpt lat="45.0826883" lon="8.17968"><ele>233.0</ele><time>2026-05-01T09:41:06.153Z</time></trkpt><trkpt lat="45.0827817" lon="8.1796167"><ele>233.0</ele><time>2026-05-01T09:41:07.153Z</time></trkpt><trkpt lat="45.0828883" lon="8.17957"><ele>229.75</ele><time>2026-05-01T09:41:08.157Z</time></trkpt><trkpt lat="45.08301" lon="8.1795467"><ele>226.5</ele><time>2026-05-01T09:41:09.153Z</time></trkpt><trkpt lat="45.0831217" lon="8.1795567"><ele>223.25</ele><time>2026-05-01T09:41:10.154Z</time></trkpt><trkpt lat="45.0832217" lon="8.17961"><ele>220.0</ele><time>2026-05-01T09:41:11.158Z</time></trkpt><trkpt lat="45.0833083" lon="8.1797017"><ele>220.0</ele><time>2026-05-01T09:41:12.156Z</time></trkpt><trkpt lat="45.0833967" lon="8.1798083"><ele>220.0</ele><time>2026-05-01T09:41:13.153Z</time></trkpt><trkpt lat="45.0834867" lon="8.17993"><ele>220.0</ele><time>2026-05-01T09:41:14.153Z</time></trkpt><trkpt lat="45.0835733" lon="8.180055"><ele>220.0</ele><time>2026-05-01T09:41:15.152Z</time></trkpt><trkpt lat="45.0836417" lon="8.1801833"><ele>222.0</ele><time>2026-05-01T09:41:16.154Z</time></trkpt><trkpt lat="45.0836867" lon="8.1803183"><ele>224.0</ele><time>2026-05-01T09:41:17.153Z</time></trkpt><trkpt lat="45.0837033" lon="8.1804583"><ele>226.0</ele><time>2026-05-01T09:41:18.159Z</time></trkpt><trkpt lat="45.0836767" lon="8.1805983"><ele>228.0</ele><time>2026-05-01T09:41:19.155Z</time></trkpt><trkpt lat="45.083625" lon="8.18073"><ele>230.0</ele><time>2026-05-01T09:41:20.157Z</time></trkpt><trkpt lat="45.08358" lon="8.1808683"><ele>230.6</ele><time>2026-05-01T09:41:21.155Z</time></trkpt><trkpt lat="45.0835483" lon="8.1810067"><ele>231.2</ele><time>2026-05-01T09:41:22.157Z</time></trkpt><trkpt lat="45.0835533" lon="8.18114"><ele>231.8</ele><time>2026-05-01T09:41:23.15Z</time></trkpt><trkpt lat="45.083595" lon="8.18125"><ele>232.4</ele><time>2026-05-01T09:41:24.155Z</time></trkpt><trkpt lat="45.083655" lon="8.18134"><ele>233.0</ele><time>2026-05-01T09:41:25.152Z</time></trkpt><trkpt lat="45.0837217" lon="8.18142"><ele>233.0</ele><time>2026-05-01T09:41:26.152Z</time></trkpt><trkpt lat="45.0837917" lon="8.1814783"><ele>233.0</ele><time>2026-05-01T09:41:27.159Z</time></trkpt><trkpt lat="45.083875" lon="8.1813883"><ele>233.0</ele><time>2026-05-01T09:41:28.157Z</time></trkpt><trkpt lat="45.0839417" lon="8.1812733"><ele>233.0</ele><time>2026-05-01T09:41:29.155Z</time></trkpt><trkpt lat="45.0839867" lon="8.1811383"><ele>233.0</ele><time>2026-05-01T09:41:30.155Z</time></trkpt><trkpt lat="45.084025" lon="8.1809967"><ele>233.0</ele><time>2026-05-01T09:41:31.153Z</time></trkpt><trkpt lat="45.0840633" lon="8.1808567"><ele>233.0</ele><time>2026-05-01T09:41:32.152Z</time></trkpt><trkpt lat="45.0841033" lon="8.1807533"><ele>233.0</ele><time>2026-05-01T09:41:33.154Z</time></trkpt><trkpt lat="45.0841533" lon="8.180695"><ele>233.0</ele><time>2026-05-01T09:41:34.153Z</time></trkpt><trkpt lat="45.0842717" lon="8.1807333"><ele>233.0</ele><time>2026-05-01T09:41:36.154Z</time></trkpt><trkpt lat="45.08433" lon="8.18081"><ele>228.5</ele><time>2026-05-01T09:41:37.158Z</time></trkpt><trkpt lat="45.0843717" lon="8.1809333"><ele>224.0</ele><time>2026-05-01T09:41:38.153Z</time></trkpt><trkpt lat="45.0844033" lon="8.1810933"><ele>219.5</ele><time>2026-05-01T09:41:39.151Z</time></trkpt><trkpt lat="45.0844283" lon="8.1812733"><ele>215.0</ele><time>2026-05-01T09:41:40.155Z</time></trkpt><trkpt lat="45.0844567" lon="8.1814433"><ele>215.4</ele><time>2026-05-01T09:41:41.157Z</time></trkpt><trkpt lat="45.0844967" lon="8.1815967"><ele>215.8</ele><time>2026-05-01T09:41:42.153Z</time></trkpt><trkpt lat="45.0845583" lon="8.18172"><ele>216.2</ele><time>2026-05-01T09:41:43.151Z</time></trkpt><trkpt lat="45.0846383" lon="8.1818"><ele>216.6</ele><time>2026-05-01T09:41:44.155Z</time></trkpt><trkpt lat="45.0847367" lon="8.1818417"><ele>217.0</ele><time>2026-05-01T09:41:45.157Z</time></trkpt><trkpt lat="45.0848483" lon="8.181825"><ele>214.75</ele><time>2026-05-01T09:41:46.157Z</time></trkpt><trkpt lat="45.0849633" lon="8.18178"><ele>212.5</ele><time>2026-05-01T09:41:47.154Z</time></trkpt><trkpt lat="45.0850717" lon="8.1817083"><ele>210.25</ele><time>2026-05-01T09:41:48.158Z</time></trkpt><trkpt lat="45.08517" lon="8.1816083"><ele>208.0</ele><time>2026-05-01T09:41:49.16Z</time></trkpt><trkpt lat="45.0852667" lon="8.181485"><ele>206.75</ele><time>2026-05-01T09:41:50.153Z</time></trkpt><trkpt lat="45.0853567" lon="8.181335"><ele>205.5</ele><time>2026-05-01T09:41:51.156Z</time></trkpt><trkpt lat="45.085445" lon="8.1811883"><ele>204.25</ele><time>2026-05-01T09:41:52.157Z</time></trkpt><trkpt lat="45.0855317" lon="8.1810267"><ele>203.0</ele><time>2026-05-01T09:41:53.155Z</time></trkpt><trkpt lat="45.08561" lon="8.18086"><ele>203.0</ele><time>2026-05-01T09:41:54.155Z</time></trkpt><trkpt lat="45.08569" lon="8.180685"><ele>203.0</ele><time>2026-05-01T09:41:55.158Z</time></trkpt><trkpt lat="45.08577" lon="8.1805017"><ele>203.0</ele><time>2026-05-01T09:41:56.155Z</time></trkpt><trkpt lat="45.0858483" lon="8.1803117"><ele>201.0</ele><time>2026-05-01T09:41:57.154Z</time></trkpt><trkpt lat="45.0859267" lon="8.1801267"><ele>199.0</ele><time>2026-05-01T09:41:58.157Z</time></trkpt><trkpt lat="45.0860067" lon="8.17994"><ele>197.0</ele><time>2026-05-01T09:41:59.16Z</time></trkpt><trkpt lat="45.08609" lon="8.179755"><ele>196.66666666666669</ele><time>2026-05-01T09:42:00.161Z</time></trkpt><trkpt lat="45.086175" lon="8.1795717"><ele>196.33333333333331</ele><time>2026-05-01T09:42:01.159Z</time></trkpt><trkpt lat="45.0862583" lon="8.1793883"><ele>196.0</ele><time>2026-05-01T09:42:02.155Z</time></trkpt><trkpt lat="45.086335" lon="8.179205"><ele>196.0</ele><time>2026-05-01T09:42:03.154Z</time></trkpt><trkpt lat="45.086415" lon="8.1790233"><ele>196.0</ele><time>2026-05-01T09:42:04.155Z</time></trkpt><trkpt lat="45.0864967" lon="8.1788417"><ele>196.0</ele><time>2026-05-01T09:42:05.154Z</time></trkpt><trkpt lat="45.0865717" lon="8.1786617"><ele>196.0</ele><time>2026-05-01T09:42:06.158Z</time></trkpt><trkpt lat="45.0866467" lon="8.1784783"><ele>196.0</ele><time>2026-05-01T09:42:07.153Z</time></trkpt><trkpt lat="45.086725" lon="8.1782967"><ele>196.0</ele><time>2026-05-01T09:42:08.158Z</time></trkpt><trkpt lat="45.086805" lon="8.1781167"><ele>196.0</ele><time>2026-05-01T09:42:09.157Z</time></trkpt><trkpt lat="45.0868817" lon="8.177935"><ele>196.0</ele><time>2026-05-01T09:42:10.159Z</time></trkpt><trkpt lat="45.0869583" lon="8.17775"><ele>196.0</ele><time>2026-05-01T09:42:11.154Z</time></trkpt><trkpt lat="45.0870283" lon="8.177575"><ele>196.0</ele><time>2026-05-01T09:42:12.154Z</time></trkpt><trkpt lat="45.08711" lon="8.1773933"><ele>196.25</ele><time>2026-05-01T09:42:13.153Z</time></trkpt><trkpt lat="45.0871883" lon="8.177215"><ele>196.5</ele><time>2026-05-01T09:42:14.155Z</time></trkpt><trkpt lat="45.0872667" lon="8.1770433"><ele>196.75</ele><time>2026-05-01T09:42:15.153Z</time></trkpt><trkpt lat="45.0873417" lon="8.1768767"><ele>197.0</ele><time>2026-05-01T09:42:16.153Z</time></trkpt><trkpt lat="45.0874033" lon="8.17674"><ele>197.39999999999998</ele><time>2026-05-01T09:42:17.155Z</time></trkpt><trkpt lat="45.0874533" lon="8.1766283"><ele>197.79999999999998</ele><time>2026-05-01T09:42:18.153Z</time></trkpt><trkpt lat="45.087495" lon="8.1765317"><ele>198.2</ele><time>2026-05-01T09:42:19.157Z</time></trkpt><trkpt lat="45.0875433" lon="8.1764417"><ele>198.6</ele><time>2026-05-01T09:42:21.151Z</time></trkpt><trkpt lat="45.0875117" lon="8.176315"><ele>199.0</ele><time>2026-05-01T09:42:27.153Z</time></trkpt><trkpt lat="45.0874083" lon="8.176185"><ele>199.0</ele><time>2026-05-01T09:42:29.155Z</time></trkpt><trkpt lat="45.0873433" lon="8.1761067"><ele>199.0</ele><time>2026-05-01T09:42:30.155Z</time></trkpt><trkpt lat="45.0872783" lon="8.1760283"><ele>199.0</ele><time>2026-05-01T09:42:31.155Z</time></trkpt><trkpt lat="45.087205" lon="8.175945"><ele>199.0</ele><time>2026-05-01T09:42:32.156Z</time></trkpt><trkpt lat="45.0871317" lon="8.1758633"><ele>199.0</ele><time>2026-05-01T09:42:33.153Z</time></trkpt><trkpt lat="45.087055" lon="8.1757683"><ele>200.25</ele><time>2026-05-01T09:42:34.152Z</time></trkpt><trkpt lat="45.0869783" lon="8.1756633"><ele>201.5</ele><time>2026-05-01T09:42:35.156Z</time></trkpt><trkpt lat="45.0868983" lon="8.1755567"><ele>202.75</ele><time>2026-05-01T09:42:36.156Z</time></trkpt><trkpt lat="45.0868133" lon="8.1754433"><ele>204.0</ele><time>2026-05-01T09:42:37.156Z</time></trkpt><trkpt lat="45.0867233" lon="8.175335"><ele>204.0</ele><time>2026-05-01T09:42:38.156Z</time></trkpt><trkpt lat="45.086635" lon="8.175215"><ele>204.0</ele><time>2026-05-01T09:42:39.154Z</time></trkpt><trkpt lat="45.0865383" lon="8.1750917"><ele>204.0</ele><time>2026-05-01T09:42:40.154Z</time></trkpt><trkpt lat="45.08644" lon="8.17496"><ele>204.0</ele><time>2026-05-01T09:42:41.154Z</time></trkpt><trkpt lat="45.08633" lon="8.1748217"><ele>203.0</ele><time>2026-05-01T09:42:42.155Z</time></trkpt><trkpt lat="45.086225" lon="8.1746883"><ele>202.0</ele><time>2026-05-01T09:42:43.154Z</time></trkpt><trkpt lat="45.0861217" lon="8.1745517"><ele>201.0</ele><time>2026-05-01T09:42:44.156Z</time></trkpt><trkpt lat="45.086015" lon="8.17441"><ele>200.0</ele><time>2026-05-01T09:42:45.152Z</time></trkpt><trkpt lat="45.0859133" lon="8.174265"><ele>200.0</ele><time>2026-05-01T09:42:46.156Z</time></trkpt><trkpt lat="45.08581" lon="8.1741167"><ele>200.0</ele><time>2026-05-01T09:42:47.156Z</time></trkpt><trkpt lat="45.0857033" lon="8.1739633"><ele>200.0</ele><time>2026-05-01T09:42:48.156Z</time></trkpt><trkpt lat="45.0855933" lon="8.17381"><ele>200.33333333333334</ele><time>2026-05-01T09:42:49.157Z</time></trkpt><trkpt lat="45.0854883" lon="8.1736533"><ele>200.66666666666669</ele><time>2026-05-01T09:42:50.156Z</time></trkpt><trkpt lat="45.0853833" lon="8.1734967"><ele>201.0</ele><time>2026-05-01T09:42:51.153Z</time></trkpt><trkpt lat="45.0852833" lon="8.1733367"><ele>202.66666666666669</ele><time>2026-05-01T09:42:52.153Z</time></trkpt><trkpt lat="45.085185" lon="8.1731717"><ele>204.33333333333334</ele><time>2026-05-01T09:42:53.151Z</time></trkpt><trkpt lat="45.0850867" lon="8.173005"><ele>206.0</ele><time>2026-05-01T09:42:54.151Z</time></trkpt><trkpt lat="45.0849833" lon="8.172835"><ele>204.0</ele><time>2026-05-01T09:42:55.157Z</time></trkpt><trkpt lat="45.08488" lon="8.1726567"><ele>202.0</ele><time>2026-05-01T09:42:56.154Z</time></trkpt><trkpt lat="45.0847683" lon="8.17249"><ele>200.0</ele><time>2026-05-01T09:42:57.153Z</time></trkpt><trkpt lat="45.0846633" lon="8.1723167"><ele>199.66666666666669</ele><time>2026-05-01T09:42:58.159Z</time></trkpt><trkpt lat="45.08457" lon="8.1721367"><ele>199.33333333333331</ele><time>2026-05-01T09:42:59.154Z</time></trkpt><trkpt lat="45.084475" lon="8.17195"><ele>199.0</ele><time>2026-05-01T09:43:00.153Z</time></trkpt><trkpt lat="45.0843817" lon="8.17176"><ele>199.0</ele><time>2026-05-01T09:43:01.155Z</time></trkpt><trkpt lat="45.0842867" lon="8.171565"><ele>199.0</ele><time>2026-05-01T09:43:02.153Z</time></trkpt><trkpt lat="45.0841933" lon="8.1713617"><ele>199.0</ele><time>2026-05-01T09:43:03.154Z</time></trkpt><trkpt lat="45.084095" lon="8.1711583"><ele>199.33333333333331</ele><time>2026-05-01T09:43:04.152Z</time></trkpt><trkpt lat="45.0839983" lon="8.17095"><ele>199.66666666666669</ele><time>2026-05-01T09:43:05.154Z</time></trkpt><trkpt lat="45.0839" lon="8.17074"><ele>200.0</ele><time>2026-05-01T09:43:06.155Z</time></trkpt><trkpt lat="45.0838067" lon="8.1705283"><ele>200.0</ele><time>2026-05-01T09:43:07.152Z</time></trkpt><trkpt lat="45.0837117" lon="8.1703183"><ele>200.0</ele><time>2026-05-01T09:43:08.152Z</time></trkpt><trkpt lat="45.0836217" lon="8.170105"><ele>200.0</ele><time>2026-05-01T09:43:09.152Z</time></trkpt><trkpt lat="45.083535" lon="8.1698933"><ele>200.66666666666669</ele><time>2026-05-01T09:43:10.153Z</time></trkpt><trkpt lat="45.0834517" lon="8.1696767"><ele>201.33333333333331</ele><time>2026-05-01T09:43:11.152Z</time></trkpt><trkpt lat="45.0833733" lon="8.1694583"><ele>202.0</ele><time>2026-05-01T09:43:12.151Z</time></trkpt><trkpt lat="45.083295" lon="8.1692383"><ele>202.66666666666666</ele><time>2026-05-01T09:43:13.155Z</time></trkpt><trkpt lat="45.0832167" lon="8.1690217"><ele>203.33333333333331</ele><time>2026-05-01T09:43:14.153Z</time></trkpt><trkpt lat="45.0831417" lon="8.168805"><ele>204.0</ele><time>2026-05-01T09:43:15.151Z</time></trkpt><trkpt lat="45.0830667" lon="8.168595"><ele>204.0</ele><time>2026-05-01T09:43:16.155Z</time></trkpt><trkpt lat="45.083" lon="8.1683817"><ele>204.0</ele><time>2026-05-01T09:43:17.152Z</time></trkpt><trkpt lat="45.082935" lon="8.1681667"><ele>204.0</ele><time>2026-05-01T09:43:18.158Z</time></trkpt><trkpt lat="45.0828683" lon="8.1679533"><ele>204.0</ele><time>2026-05-01T09:43:19.16Z</time></trkpt><trkpt lat="45.082805" lon="8.1677417"><ele>204.0</ele><time>2026-05-01T09:43:20.154Z</time></trkpt><trkpt lat="45.08274" lon="8.1675267"><ele>204.0</ele><time>2026-05-01T09:43:21.159Z</time></trkpt><trkpt lat="45.0826783" lon="8.16731"><ele>204.66666666666669</ele><time>2026-05-01T09:43:22.156Z</time></trkpt><trkpt lat="45.0826183" lon="8.1670933"><ele>205.33333333333334</ele><time>2026-05-01T09:43:23.154Z</time></trkpt><trkpt lat="45.08256" lon="8.1668717"><ele>206.0</ele><time>2026-05-01T09:43:24.155Z</time></trkpt><trkpt lat="45.082505" lon="8.1666517"><ele>206.33333333333334</ele><time>2026-05-01T09:43:25.155Z</time></trkpt><trkpt lat="45.0824467" lon="8.16643"><ele>206.66666666666669</ele><time>2026-05-01T09:43:26.157Z</time></trkpt><trkpt lat="45.08239" lon="8.1662133"><ele>207.0</ele><time>2026-05-01T09:43:27.154Z</time></trkpt><trkpt lat="45.0823367" lon="8.1659983"><ele>207.0</ele><time>2026-05-01T09:43:28.157Z</time></trkpt><trkpt lat="45.082285" lon="8.1657817"><ele>207.0</ele><time>2026-05-01T09:43:29.159Z</time></trkpt><trkpt lat="45.0822333" lon="8.165565"><ele>207.0</ele><time>2026-05-01T09:43:30.157Z</time></trkpt><trkpt lat="45.0821833" lon="8.1653533"><ele>207.0</ele><time>2026-05-01T09:43:31.156Z</time></trkpt><trkpt lat="45.0821317" lon="8.1651483"><ele>207.0</ele><time>2026-05-01T09:43:32.159Z</time></trkpt><trkpt lat="45.0820783" lon="8.1649517"><ele>207.0</ele><time>2026-05-01T09:43:33.154Z</time></trkpt><trkpt lat="45.0820267" lon="8.16476"><ele>207.0</ele><time>2026-05-01T09:43:34.155Z</time></trkpt><trkpt lat="45.0819783" lon="8.164575"><ele>206.8</ele><time>2026-05-01T09:43:35.156Z</time></trkpt><trkpt lat="45.0819317" lon="8.1644067"><ele>206.6</ele><time>2026-05-01T09:43:36.157Z</time></trkpt><trkpt lat="45.081895" lon="8.164265"><ele>206.4</ele><time>2026-05-01T09:43:37.162Z</time></trkpt><trkpt lat="45.0818667" lon="8.164145"><ele>206.20000000000002</ele><time>2026-05-01T09:43:38.155Z</time></trkpt><trkpt lat="45.081845" lon="8.164045"><ele>206.0</ele><time>2026-05-01T09:43:39.157Z</time></trkpt><trkpt lat="45.0818117" lon="8.1639067"><ele>206.00000000000003</ele><time>2026-05-01T09:43:41.153Z</time></trkpt><trkpt lat="45.0817883" lon="8.1638133"><ele>206.0</ele><time>2026-05-01T09:43:43.161Z</time></trkpt><trkpt lat="45.081725" lon="8.163715"><ele>206.0</ele><time>2026-05-01T09:43:46.154Z</time></trkpt><trkpt lat="45.0816217" lon="8.1637417"><ele>206.0</ele><time>2026-05-01T09:43:48.159Z</time></trkpt><trkpt lat="45.0815533" lon="8.1637817"><ele>206.00000000000003</ele><time>2026-05-01T09:43:49.155Z</time></trkpt><trkpt lat="45.0814783" lon="8.1638367"><ele>206.0</ele><time>2026-05-01T09:43:50.157Z</time></trkpt><trkpt lat="45.0813867" lon="8.1639033"><ele>205.75</ele><time>2026-05-01T09:43:51.154Z</time></trkpt><trkpt lat="45.08128" lon="8.1639817"><ele>205.5</ele><time>2026-05-01T09:43:52.153Z</time></trkpt><trkpt lat="45.0811667" lon="8.164065"><ele>205.25</ele><time>2026-05-01T09:43:53.157Z</time></trkpt><trkpt lat="45.081055" lon="8.16414"><ele>205.0</ele><time>2026-05-01T09:43:54.159Z</time></trkpt><trkpt lat="45.080935" lon="8.1642133"><ele>205.0</ele><time>2026-05-01T09:43:55.16Z</time></trkpt><trkpt lat="45.080805" lon="8.16431"><ele>205.0</ele><time>2026-05-01T09:43:56.155Z</time></trkpt><trkpt lat="45.0806733" lon="8.1644033"><ele>205.0</ele><time>2026-05-01T09:43:57.152Z</time></trkpt><trkpt lat="45.08054" lon="8.1644933"><ele>205.0</ele><time>2026-05-01T09:43:58.155Z</time></trkpt><trkpt lat="45.08041" lon="8.1645817"><ele>205.5</ele><time>2026-05-01T09:43:59.153Z</time></trkpt><trkpt lat="45.08028" lon="8.1646633"><ele>206.0</ele><time>2026-05-01T09:44:00.154Z</time></trkpt><trkpt lat="45.080145" lon="8.164745"><ele>206.5</ele><time>2026-05-01T09:44:01.158Z</time></trkpt><trkpt lat="45.0800117" lon="8.1648133"><ele>207.0</ele><time>2026-05-01T09:44:02.157Z</time></trkpt><trkpt lat="45.0798767" lon="8.1648667"><ele>208.75</ele><time>2026-05-01T09:44:03.154Z</time></trkpt><trkpt lat="45.07974" lon="8.164905"><ele>210.5</ele><time>2026-05-01T09:44:04.157Z</time></trkpt><trkpt lat="45.079605" lon="8.164925"><ele>212.25</ele><time>2026-05-01T09:44:05.159Z</time></trkpt><trkpt lat="45.0794667" lon="8.16493"><ele>214.0</ele><time>2026-05-01T09:44:06.154Z</time></trkpt><trkpt lat="45.07933" lon="8.164915"><ele>214.0</ele><time>2026-05-01T09:44:07.152Z</time></trkpt><trkpt lat="45.0791933" lon="8.1648883"><ele>214.0</ele><time>2026-05-01T09:44:08.156Z</time></trkpt><trkpt lat="45.07905" lon="8.1648583"><ele>214.0</ele><time>2026-05-01T09:44:09.152Z</time></trkpt><trkpt lat="45.0789033" lon="8.16482"><ele>214.0</ele><time>2026-05-01T09:44:10.154Z</time></trkpt><trkpt lat="45.0787533" lon="8.1647883"><ele>217.0</ele><time>2026-05-01T09:44:11.157Z</time></trkpt><trkpt lat="45.0786183" lon="8.1647583"><ele>220.0</ele><time>2026-05-01T09:44:12.153Z</time></trkpt><trkpt lat="45.0785083" lon="8.1647133"><ele>223.0</ele><time>2026-05-01T09:44:13.154Z</time></trkpt><trkpt lat="45.07842" lon="8.1646433"><ele>226.0</ele><time>2026-05-01T09:44:14.154Z</time></trkpt><trkpt lat="45.0783533" lon="8.1645367"><ele>226.0</ele><time>2026-05-01T09:44:15.154Z</time></trkpt><trkpt lat="45.078305" lon="8.1644067"><ele>226.00000000000003</ele><time>2026-05-01T09:44:16.154Z</time></trkpt><trkpt lat="45.0782733" lon="8.1642633"><ele>226.00000000000003</ele><time>2026-05-01T09:44:17.155Z</time></trkpt><trkpt lat="45.0782383" lon="8.164115"><ele>226.0</ele><time>2026-05-01T09:44:18.156Z</time></trkpt><trkpt lat="45.0781917" lon="8.163965"><ele>226.0</ele><time>2026-05-01T09:44:19.158Z</time></trkpt><trkpt lat="45.0781267" lon="8.1638267"><ele>227.5</ele><time>2026-05-01T09:44:20.154Z</time></trkpt><trkpt lat="45.0780517" lon="8.1636983"><ele>229.0</ele><time>2026-05-01T09:44:21.154Z</time></trkpt><trkpt lat="45.07797" lon="8.1635667"><ele>230.5</ele><time>2026-05-01T09:44:22.154Z</time></trkpt><trkpt lat="45.0778917" lon="8.1634383"><ele>232.0</ele><time>2026-05-01T09:44:23.159Z</time></trkpt><trkpt lat="45.0778117" lon="8.1633083"><ele>232.0</ele><time>2026-05-01T09:44:24.156Z</time></trkpt><trkpt lat="45.0777367" lon="8.1631783"><ele>232.0</ele><time>2026-05-01T09:44:25.157Z</time></trkpt><trkpt lat="45.0776667" lon="8.1630533"><ele>232.0</ele><time>2026-05-01T09:44:26.156Z</time></trkpt><trkpt lat="45.0775933" lon="8.16293"><ele>232.0</ele><time>2026-05-01T09:44:27.152Z</time></trkpt><trkpt lat="45.0775233" lon="8.1628133"><ele>232.0</ele><time>2026-05-01T09:44:28.159Z</time></trkpt><trkpt lat="45.0774533" lon="8.1626933"><ele>232.0</ele><time>2026-05-01T09:44:29.153Z</time></trkpt><trkpt lat="45.077385" lon="8.162575"><ele>232.0</ele><time>2026-05-01T09:44:30.154Z</time></trkpt><trkpt lat="45.077315" lon="8.1624767"><ele>232.0</ele><time>2026-05-01T09:44:31.154Z</time></trkpt><trkpt lat="45.0772483" lon="8.162405"><ele>232.0</ele><time>2026-05-01T09:44:32.156Z</time></trkpt><trkpt lat="45.0771767" lon="8.1623667"><ele>233.8</ele><time>2026-05-01T09:44:33.155Z</time></trkpt><trkpt lat="45.0771" lon="8.16236"><ele>235.6</ele><time>2026-05-01T09:44:34.156Z</time></trkpt><trkpt lat="45.0770283" lon="8.1624183"><ele>237.40000000000003</ele><time>2026-05-01T09:44:35.159Z</time></trkpt><trkpt lat="45.0769567" lon="8.1624983"><ele>239.20000000000002</ele><time>2026-05-01T09:44:36.152Z</time></trkpt><trkpt lat="45.0768983" lon="8.162605"><ele>241.0</ele><time>2026-05-01T09:44:37.158Z</time></trkpt><trkpt lat="45.0768733" lon="8.1627633"><ele>242.25</ele><time>2026-05-01T09:44:38.153Z</time></trkpt><trkpt lat="45.0768467" lon="8.162915"><ele>243.5</ele><time>2026-05-01T09:44:39.151Z</time></trkpt><trkpt lat="45.076815" lon="8.1630733"><ele>244.75</ele><time>2026-05-01T09:44:40.154Z</time></trkpt><trkpt lat="45.0767833" lon="8.1632317"><ele>246.0</ele><time>2026-05-01T09:44:41.155Z</time></trkpt><trkpt lat="45.0767567" lon="8.1633817"><ele>246.0</ele><time>2026-05-01T09:44:42.153Z</time></trkpt><trkpt lat="45.0767283" lon="8.1635283"><ele>246.00000000000003</ele><time>2026-05-01T09:44:43.153Z</time></trkpt><trkpt lat="45.0767033" lon="8.1636717"><ele>246.00000000000003</ele><time>2026-05-01T09:44:44.155Z</time></trkpt><trkpt lat="45.07668" lon="8.1638167"><ele>246.0</ele><time>2026-05-01T09:44:45.153Z</time></trkpt><trkpt lat="45.07665" lon="8.163955"><ele>246.0</ele><time>2026-05-01T09:44:46.15Z</time></trkpt><trkpt lat="45.0766383" lon="8.1641017"><ele>246.20000000000002</ele><time>2026-05-01T09:44:47.151Z</time></trkpt><trkpt lat="45.0766133" lon="8.1642383"><ele>246.40000000000003</ele><time>2026-05-01T09:44:48.153Z</time></trkpt><trkpt lat="45.0765783" lon="8.1643633"><ele>246.6</ele><time>2026-05-01T09:44:49.152Z</time></trkpt><trkpt lat="45.07653" lon="8.16448"><ele>246.8</ele><time>2026-05-01T09:44:50.155Z</time></trkpt><trkpt lat="45.07646" lon="8.164575"><ele>247.0</ele><time>2026-05-01T09:44:51.153Z</time></trkpt><trkpt lat="45.076375" lon="8.164645"><ele>249.2</ele><time>2026-05-01T09:44:52.15Z</time></trkpt><trkpt lat="45.0762717" lon="8.1646733"><ele>251.39999999999998</ele><time>2026-05-01T09:44:53.151Z</time></trkpt><trkpt lat="45.07616" lon="8.16466"><ele>253.60000000000002</ele><time>2026-05-01T09:44:54.153Z</time></trkpt><trkpt lat="45.07605" lon="8.1646133"><ele>255.8</ele><time>2026-05-01T09:44:55.155Z</time></trkpt><trkpt lat="45.0759417" lon="8.16455"><ele>258.0</ele><time>2026-05-01T09:44:56.153Z</time></trkpt><trkpt lat="45.075835" lon="8.1644617"><ele>259.25</ele><time>2026-05-01T09:44:57.154Z</time></trkpt><trkpt lat="45.07573" lon="8.1643867"><ele>260.5</ele><time>2026-05-01T09:44:58.157Z</time></trkpt><trkpt lat="45.0756233" lon="8.1642983"><ele>261.75</ele><time>2026-05-01T09:44:59.152Z</time></trkpt><trkpt lat="45.07552" lon="8.164215"><ele>263.0</ele><time>2026-05-01T09:45:00.151Z</time></trkpt><trkpt lat="45.075425" lon="8.164165"><ele>263.0</ele><time>2026-05-01T09:45:01.154Z</time></trkpt><trkpt lat="45.0753367" lon="8.1641533"><ele>263.0</ele><time>2026-05-01T09:45:02.152Z</time></trkpt><trkpt lat="45.07525" lon="8.164165"><ele>263.0</ele><time>2026-05-01T09:45:03.151Z</time></trkpt><trkpt lat="45.0751717" lon="8.16424"><ele>263.0</ele><time>2026-05-01T09:45:04.156Z</time></trkpt><trkpt lat="45.075115" lon="8.1643383"><ele>263.0</ele><time>2026-05-01T09:45:05.155Z</time></trkpt><trkpt lat="45.0750717" lon="8.164455"><ele>263.0</ele><time>2026-05-01T09:45:06.155Z</time></trkpt><trkpt lat="45.075055" lon="8.16459"><ele>263.0</ele><time>2026-05-01T09:45:07.154Z</time></trkpt><trkpt lat="45.0750533" lon="8.1647483"><ele>263.0</ele><time>2026-05-01T09:45:08.154Z</time></trkpt><trkpt lat="45.075035" lon="8.16489"><ele>263.0</ele><time>2026-05-01T09:45:09.151Z</time></trkpt><trkpt lat="45.0749933" lon="8.1650183"><ele>263.0</ele><time>2026-05-01T09:45:10.154Z</time></trkpt><trkpt lat="45.0749267" lon="8.165125"><ele>267.0</ele><time>2026-05-01T09:45:11.151Z</time></trkpt><trkpt lat="45.074845" lon="8.1652"><ele>271.0</ele><time>2026-05-01T09:45:12.152Z</time></trkpt><trkpt lat="45.0747533" lon="8.1652367"><ele>275.0</ele><time>2026-05-01T09:45:13.156Z</time></trkpt><trkpt lat="45.0746533" lon="8.1652233"><ele>279.0</ele><time>2026-05-01T09:45:14.154Z</time></trkpt><trkpt lat="45.074555" lon="8.1651867"><ele>283.0</ele><time>2026-05-01T09:45:15.152Z</time></trkpt><trkpt lat="45.07445" lon="8.1651333"><ele>283.0</ele><time>2026-05-01T09:45:16.153Z</time></trkpt><trkpt lat="45.0743417" lon="8.1650683"><ele>283.0</ele><time>2026-05-01T09:45:17.157Z</time></trkpt><trkpt lat="45.0742317" lon="8.164995"><ele>283.0</ele><time>2026-05-01T09:45:18.153Z</time></trkpt><trkpt lat="45.0741167" lon="8.16491"><ele>283.0</ele><time>2026-05-01T09:45:19.154Z</time></trkpt><trkpt lat="45.0740033" lon="8.1648167"><ele>286.5</ele><time>2026-05-01T09:45:20.154Z</time></trkpt><trkpt lat="45.0738967" lon="8.164715"><ele>290.0</ele><time>2026-05-01T09:45:21.152Z</time></trkpt><trkpt lat="45.0737883" lon="8.1646117"><ele>293.5</ele><time>2026-05-01T09:45:22.159Z</time></trkpt><trkpt lat="45.0736833" lon="8.1645133"><ele>297.0</ele><time>2026-05-01T09:45:23.156Z</time></trkpt><trkpt lat="45.0735817" lon="8.1644167"><ele>297.0</ele><time>2026-05-01T09:45:24.155Z</time></trkpt><trkpt lat="45.0734833" lon="8.164325"><ele>297.0</ele><time>2026-05-01T09:45:25.152Z</time></trkpt><trkpt lat="45.073385" lon="8.1642417"><ele>297.0</ele><time>2026-05-01T09:45:26.152Z</time></trkpt><trkpt lat="45.07329" lon="8.1641633"><ele>297.0</ele><time>2026-05-01T09:45:27.154Z</time></trkpt><trkpt lat="45.07319" lon="8.1641067"><ele>299.75</ele><time>2026-05-01T09:45:28.158Z</time></trkpt><trkpt lat="45.073085" lon="8.164065"><ele>302.5</ele><time>2026-05-01T09:45:29.154Z</time></trkpt><trkpt lat="45.0729767" lon="8.1640483"><ele>305.25</ele><time>2026-05-01T09:45:30.15Z</time></trkpt><trkpt lat="45.0728567" lon="8.16405"><ele>308.0</ele><time>2026-05-01T09:45:31.153Z</time></trkpt><trkpt lat="45.0727333" lon="8.1640633"><ele>308.0</ele><time>2026-05-01T09:45:32.15Z</time></trkpt><trkpt lat="45.0726083" lon="8.164075"><ele>308.0</ele><time>2026-05-01T09:45:33.154Z</time></trkpt><trkpt lat="45.0724783" lon="8.1640667"><ele>308.0</ele><time>2026-05-01T09:45:34.151Z</time></trkpt><trkpt lat="45.072355" lon="8.1640283"><ele>308.0</ele><time>2026-05-01T09:45:35.157Z</time></trkpt><trkpt lat="45.0722417" lon="8.1639733"><ele>308.0</ele><time>2026-05-01T09:45:36.155Z</time></trkpt><trkpt lat="45.0721367" lon="8.1639067"><ele>308.0</ele><time>2026-05-01T09:45:37.155Z</time></trkpt><trkpt lat="45.0720367" lon="8.1638217"><ele>308.0</ele><time>2026-05-01T09:45:38.153Z</time></trkpt><trkpt lat="45.0719483" lon="8.1637067"><ele>308.0</ele><time>2026-05-01T09:45:39.152Z</time></trkpt><trkpt lat="45.07188" lon="8.1635633"><ele>308.0</ele><time>2026-05-01T09:45:40.151Z</time></trkpt><trkpt lat="45.0718283" lon="8.1634067"><ele>308.0</ele><time>2026-05-01T09:45:41.153Z</time></trkpt><trkpt lat="45.0717933" lon="8.1632467"><ele>308.0</ele><time>2026-05-01T09:45:42.156Z</time></trkpt><trkpt lat="45.071765" lon="8.1630867"><ele>308.0</ele><time>2026-05-01T09:45:43.157Z</time></trkpt><trkpt lat="45.0717333" lon="8.1629383"><ele>307.6</ele><time>2026-05-01T09:45:44.157Z</time></trkpt><trkpt lat="45.0716967" lon="8.162815"><ele>307.20000000000005</ele><time>2026-05-01T09:45:45.157Z</time></trkpt><trkpt lat="45.0716533" lon="8.1627217"><ele>306.8</ele><time>2026-05-01T09:45:46.155Z</time></trkpt><trkpt lat="45.0715483" lon="8.1626583"><ele>306.40000000000003</ele><time>2026-05-01T09:45:48.157Z</time></trkpt><trkpt lat="45.0714483" lon="8.16266"><ele>306.0</ele><time>2026-05-01T09:45:50.153Z</time></trkpt><trkpt lat="45.0713817" lon="8.1625833"><ele>305.6666666666667</ele><time>2026-05-01T09:45:53.153Z</time></trkpt><trkpt lat="45.0714017" lon="8.1624883"><ele>305.3333333333333</ele><time>2026-05-01T09:45:55.155Z</time></trkpt><trkpt lat="45.0714567" lon="8.1623767"><ele>305.0</ele><time>2026-05-01T09:45:57.152Z</time></trkpt><trkpt lat="45.0715283" lon="8.1622533"><ele>304.66666666666663</ele><time>2026-05-01T09:45:59.154Z</time></trkpt><trkpt lat="45.0715733" lon="8.1621817"><ele>304.3333333333333</ele><time>2026-05-01T09:46:00.151Z</time></trkpt><trkpt lat="45.0716233" lon="8.1621033"><ele>304.0</ele><time>2026-05-01T09:46:01.151Z</time></trkpt><trkpt lat="45.07168" lon="8.1620233"><ele>304.0</ele><time>2026-05-01T09:46:02.152Z</time></trkpt><trkpt lat="45.0717333" lon="8.1619467"><ele>304.0</ele><time>2026-05-01T09:46:03.154Z</time></trkpt><trkpt lat="45.0717883" lon="8.161865"><ele>304.0</ele><time>2026-05-01T09:46:04.158Z</time></trkpt><trkpt lat="45.071845" lon="8.1617833"><ele>304.0</ele><time>2026-05-01T09:46:05.153Z</time></trkpt><trkpt lat="45.0719067" lon="8.1617083"><ele>304.0</ele><time>2026-05-01T09:46:06.155Z</time></trkpt><trkpt lat="45.0719733" lon="8.1616367"><ele>304.0</ele><time>2026-05-01T09:46:07.151Z</time></trkpt><trkpt lat="45.0720533" lon="8.1615617"><ele>301.59999999999997</ele><time>2026-05-01T09:46:08.158Z</time></trkpt><trkpt lat="45.0721367" lon="8.161485"><ele>299.2</ele><time>2026-05-01T09:46:09.157Z</time></trkpt><trkpt lat="45.0722167" lon="8.1614083"><ele>296.79999999999995</ele><time>2026-05-01T09:46:10.165Z</time></trkpt><trkpt lat="45.072295" lon="8.161325"><ele>294.4</ele><time>2026-05-01T09:46:11.162Z</time></trkpt><trkpt lat="45.0723683" lon="8.1612283"><ele>292.0</ele><time>2026-05-01T09:46:12.153Z</time></trkpt><trkpt lat="45.0724233" lon="8.161115"><ele>291.4</ele><time>2026-05-01T09:46:13.159Z</time></trkpt><trkpt lat="45.072465" lon="8.1609967"><ele>290.79999999999995</ele><time>2026-05-01T09:46:14.156Z</time></trkpt><trkpt lat="45.0725" lon="8.160875"><ele>290.2</ele><time>2026-05-01T09:46:15.153Z</time></trkpt><trkpt lat="45.0725383" lon="8.1607467"><ele>289.59999999999997</ele><time>2026-05-01T09:46:16.155Z</time></trkpt><trkpt lat="45.07258" lon="8.160615"><ele>289.0</ele><time>2026-05-01T09:46:17.155Z</time></trkpt><trkpt lat="45.0726283" lon="8.16048"><ele>289.0</ele><time>2026-05-01T09:46:18.153Z</time></trkpt><trkpt lat="45.072675" lon="8.160355"><ele>289.0</ele><time>2026-05-01T09:46:19.153Z</time></trkpt><trkpt lat="45.072725" lon="8.16022"><ele>289.0</ele><time>2026-05-01T09:46:20.152Z</time></trkpt><trkpt lat="45.07278" lon="8.160085"><ele>289.0</ele><time>2026-05-01T09:46:21.153Z</time></trkpt><trkpt lat="45.072835" lon="8.15996"><ele>289.0</ele><time>2026-05-01T09:46:22.156Z</time></trkpt><trkpt lat="45.0728933" lon="8.1598433"><ele>286.2</ele><time>2026-05-01T09:46:23.153Z</time></trkpt><trkpt lat="45.0729517" lon="8.1597467"><ele>283.4</ele><time>2026-05-01T09:46:24.153Z</time></trkpt><trkpt lat="45.07302" lon="8.1596683"><ele>280.6</ele><time>2026-05-01T09:46:25.154Z</time></trkpt><trkpt lat="45.0730933" lon="8.1595933"><ele>277.8</ele><time>2026-05-01T09:46:26.154Z</time></trkpt><trkpt lat="45.0731833" lon="8.1595083"><ele>275.0</ele><time>2026-05-01T09:46:27.157Z</time></trkpt><trkpt lat="45.0732567" lon="8.1594283"><ele>274.8</ele><time>2026-05-01T09:46:28.156Z</time></trkpt><trkpt lat="45.07332" lon="8.1593117"><ele>274.6</ele><time>2026-05-01T09:46:29.155Z</time></trkpt><trkpt lat="45.073375" lon="8.1591767"><ele>274.4</ele><time>2026-05-01T09:46:30.151Z</time></trkpt><trkpt lat="45.0734233" lon="8.159035"><ele>274.2</ele><time>2026-05-01T09:46:31.153Z</time></trkpt><trkpt lat="45.0734733" lon="8.1588883"><ele>274.0</ele><time>2026-05-01T09:46:32.155Z</time></trkpt><trkpt lat="45.0735267" lon="8.15874"><ele>273.25</ele><time>2026-05-01T09:46:33.153Z</time></trkpt><trkpt lat="45.0735817" lon="8.158595"><ele>272.5</ele><time>2026-05-01T09:46:34.151Z</time></trkpt><trkpt lat="45.0736667" lon="8.15848"><ele>271.75</ele><time>2026-05-01T09:46:35.157Z</time></trkpt><trkpt lat="45.0737617" lon="8.15838"><ele>271.0</ele><time>2026-05-01T09:46:36.154Z</time></trkpt><trkpt lat="45.0738617" lon="8.1582633"><ele>269.25</ele><time>2026-05-01T09:46:37.155Z</time></trkpt><trkpt lat="45.0739467" lon="8.1581067"><ele>267.5</ele><time>2026-05-01T09:46:38.157Z</time></trkpt><trkpt lat="45.0740233" lon="8.15794"><ele>265.75</ele><time>2026-05-01T09:46:39.155Z</time></trkpt><trkpt lat="45.0740983" lon="8.157755"><ele>264.0</ele><time>2026-05-01T09:46:40.152Z</time></trkpt><trkpt lat="45.07417" lon="8.15756"><ele>264.6666666666667</ele><time>2026-05-01T09:46:41.152Z</time></trkpt><trkpt lat="45.074245" lon="8.1573517"><ele>265.33333333333337</ele><time>2026-05-01T09:46:42.152Z</time></trkpt><trkpt lat="45.0743217" lon="8.1571333"><ele>266.0</ele><time>2026-05-01T09:46:43.154Z</time></trkpt><trkpt lat="45.0743933" lon="8.156905"><ele>266.0</ele><time>2026-05-01T09:46:44.154Z</time></trkpt><trkpt lat="45.07446" lon="8.1566783"><ele>266.0</ele><time>2026-05-01T09:46:45.152Z</time></trkpt><trkpt lat="45.0745267" lon="8.1564467"><ele>266.0</ele><time>2026-05-01T09:46:46.152Z</time></trkpt><trkpt lat="45.0745933" lon="8.1562167"><ele>265.0</ele><time>2026-05-01T09:46:47.154Z</time></trkpt><trkpt lat="45.07466" lon="8.15599"><ele>264.0</ele><time>2026-05-01T09:46:48.156Z</time></trkpt><trkpt lat="45.0747167" lon="8.15577"><ele>263.0</ele><time>2026-05-01T09:46:49.154Z</time></trkpt><trkpt lat="45.0747767" lon="8.155555"><ele>262.33333333333337</ele><time>2026-05-01T09:46:50.153Z</time></trkpt><trkpt lat="45.0748333" lon="8.1553433"><ele>261.6666666666667</ele><time>2026-05-01T09:46:51.153Z</time></trkpt><trkpt lat="45.074875" lon="8.15514"><ele>261.0</ele><time>2026-05-01T09:46:52.151Z</time></trkpt><trkpt lat="45.0749017" lon="8.154945"><ele>262.75</ele><time>2026-05-01T09:46:53.151Z</time></trkpt><trkpt lat="45.0749083" lon="8.15475"><ele>264.5</ele><time>2026-05-01T09:46:54.151Z</time></trkpt><trkpt lat="45.0748933" lon="8.1545517"><ele>266.25</ele><time>2026-05-01T09:46:55.152Z</time></trkpt><trkpt lat="45.0748617" lon="8.1543533"><ele>268.0</ele><time>2026-05-01T09:46:56.152Z</time></trkpt><trkpt lat="45.07482" lon="8.154155"><ele>268.66666666666663</ele><time>2026-05-01T09:46:57.154Z</time></trkpt><trkpt lat="45.0747617" lon="8.1539567"><ele>269.3333333333333</ele><time>2026-05-01T09:46:58.153Z</time></trkpt><trkpt lat="45.0746883" lon="8.1537633"><ele>270.0</ele><time>2026-05-01T09:46:59.154Z</time></trkpt><trkpt lat="45.0746083" lon="8.1535783"><ele>270.0</ele><time>2026-05-01T09:47:00.152Z</time></trkpt><trkpt lat="45.0745133" lon="8.1534083"><ele>270.0</ele><time>2026-05-01T09:47:01.155Z</time></trkpt><trkpt lat="45.074405" lon="8.1532517"><ele>270.0</ele><time>2026-05-01T09:47:02.156Z</time></trkpt><trkpt lat="45.07429" lon="8.153105"><ele>269.0</ele><time>2026-05-01T09:47:03.152Z</time></trkpt><trkpt lat="45.074175" lon="8.1529633"><ele>268.0</ele><time>2026-05-01T09:47:04.155Z</time></trkpt><trkpt lat="45.0740583" lon="8.1528267"><ele>267.0</ele><time>2026-05-01T09:47:05.159Z</time></trkpt><trkpt lat="45.0739433" lon="8.1526933"><ele>267.0</ele><time>2026-05-01T09:47:06.157Z</time></trkpt><trkpt lat="45.0738333" lon="8.152565"><ele>267.0</ele><time>2026-05-01T09:47:07.158Z</time></trkpt><trkpt lat="45.0737233" lon="8.1524333"><ele>267.0</ele><time>2026-05-01T09:47:08.152Z</time></trkpt><trkpt lat="45.0736217" lon="8.1522917"><ele>267.0</ele><time>2026-05-01T09:47:09.152Z</time></trkpt><trkpt lat="45.073535" lon="8.15214"><ele>269.0</ele><time>2026-05-01T09:47:10.154Z</time></trkpt><trkpt lat="45.0734583" lon="8.15198"><ele>271.0</ele><time>2026-05-01T09:47:11.153Z</time></trkpt><trkpt lat="45.073405" lon="8.1518033"><ele>273.0</ele><time>2026-05-01T09:47:12.156Z</time></trkpt><trkpt lat="45.0733667" lon="8.1516183"><ele>275.0</ele><time>2026-05-01T09:47:13.154Z</time></trkpt><trkpt lat="45.0733417" lon="8.151435"><ele>275.25</ele><time>2026-05-01T09:47:14.155Z</time></trkpt><trkpt lat="45.0733217" lon="8.1512567"><ele>275.5</ele><time>2026-05-01T09:47:15.155Z</time></trkpt><trkpt lat="45.073295" lon="8.1510867"><ele>275.75</ele><time>2026-05-01T09:47:16.155Z</time></trkpt><trkpt lat="45.073255" lon="8.1509267"><ele>276.0</ele><time>2026-05-01T09:47:17.152Z</time></trkpt><trkpt lat="45.07321" lon="8.150765"><ele>275.40000000000003</ele><time>2026-05-01T09:47:18.156Z</time></trkpt><trkpt lat="45.0731633" lon="8.150605"><ele>274.8</ele><time>2026-05-01T09:47:19.153Z</time></trkpt><trkpt lat="45.0731383" lon="8.1504433"><ele>274.20000000000005</ele><time>2026-05-01T09:47:20.153Z</time></trkpt><trkpt lat="45.07313" lon="8.150295"><ele>273.6</ele><time>2026-05-01T09:47:21.155Z</time></trkpt><trkpt lat="45.0731583" lon="8.1501533"><ele>273.0</ele><time>2026-05-01T09:47:22.154Z</time></trkpt><trkpt lat="45.073205" lon="8.1500083"><ele>273.0</ele><time>2026-05-01T09:47:23.151Z</time></trkpt><trkpt lat="45.0732533" lon="8.1498667"><ele>273.0</ele><time>2026-05-01T09:47:24.159Z</time></trkpt><trkpt lat="45.073305" lon="8.1497217"><ele>273.0</ele><time>2026-05-01T09:47:25.159Z</time></trkpt><trkpt lat="45.0733567" lon="8.1495783"><ele>273.0</ele><time>2026-05-01T09:47:26.153Z</time></trkpt><trkpt lat="45.0734067" lon="8.1494367"><ele>273.0</ele><time>2026-05-01T09:47:27.158Z</time></trkpt><trkpt lat="45.0734567" lon="8.1492933"><ele>273.0</ele><time>2026-05-01T09:47:28.153Z</time></trkpt><trkpt lat="45.0735067" lon="8.1491433"><ele>273.0</ele><time>2026-05-01T09:47:29.155Z</time></trkpt><trkpt lat="45.07355" lon="8.14899"><ele>273.0</ele><time>2026-05-01T09:47:30.156Z</time></trkpt><trkpt lat="45.0735883" lon="8.1488383"><ele>273.2</ele><time>2026-05-01T09:47:31.157Z</time></trkpt><trkpt lat="45.0736217" lon="8.1486933"><ele>273.4</ele><time>2026-05-01T09:47:32.153Z</time></trkpt><trkpt lat="45.0736467" lon="8.1485517"><ele>273.59999999999997</ele><time>2026-05-01T09:47:33.156Z</time></trkpt><trkpt lat="45.07366" lon="8.1484083"><ele>273.8</ele><time>2026-05-01T09:47:34.155Z</time></trkpt><trkpt lat="45.0736583" lon="8.14827"><ele>274.0</ele><time>2026-05-01T09:47:35.158Z</time></trkpt><trkpt lat="45.073645" lon="8.1481433"><ele>273.3333333333333</ele><time>2026-05-01T09:47:36.158Z</time></trkpt><trkpt lat="45.07363" lon="8.1480233"><ele>272.66666666666663</ele><time>2026-05-01T09:47:37.157Z</time></trkpt><trkpt lat="45.0736183" lon="8.147915"><ele>272.0</ele><time>2026-05-01T09:47:38.156Z</time></trkpt><trkpt lat="45.0736083" lon="8.1478267"><ele>271.3333333333333</ele><time>2026-05-01T09:47:39.153Z</time></trkpt><trkpt lat="45.073625" lon="8.147705"><ele>270.6666666666667</ele><time>2026-05-01T09:47:41.151Z</time></trkpt><trkpt lat="45.0736717" lon="8.1476183"><ele>270.0</ele><time>2026-05-01T09:47:43.16Z</time></trkpt><trkpt lat="45.073795" lon="8.1475417"><ele>270.0</ele><time>2026-05-01T09:47:45.159Z</time></trkpt><trkpt lat="45.0738867" lon="8.147515"><ele>270.0</ele><time>2026-05-01T09:47:46.153Z</time></trkpt><trkpt lat="45.07399" lon="8.1474817"><ele>270.0</ele><time>2026-05-01T09:47:47.155Z</time></trkpt><trkpt lat="45.0741" lon="8.1474433"><ele>270.0</ele><time>2026-05-01T09:47:48.157Z</time></trkpt><trkpt lat="45.0742067" lon="8.1473933"><ele>270.0</ele><time>2026-05-01T09:47:49.152Z</time></trkpt><trkpt lat="45.0743083" lon="8.14733"><ele>269.75</ele><time>2026-05-01T09:47:50.155Z</time></trkpt><trkpt lat="45.07441" lon="8.14726"><ele>269.5</ele><time>2026-05-01T09:47:51.157Z</time></trkpt><trkpt lat="45.07451" lon="8.1471767"><ele>269.25</ele><time>2026-05-01T09:47:52.151Z</time></trkpt><trkpt lat="45.0746117" lon="8.14709"><ele>269.0</ele><time>2026-05-01T09:47:53.154Z</time></trkpt><trkpt lat="45.0747083" lon="8.1469933"><ele>269.0</ele><time>2026-05-01T09:47:54.153Z</time></trkpt><trkpt lat="45.0748" lon="8.1468967"><ele>269.0</ele><time>2026-05-01T09:47:55.153Z</time></trkpt><trkpt lat="45.0748917" lon="8.146805"><ele>269.0</ele><time>2026-05-01T09:47:56.152Z</time></trkpt><trkpt lat="45.0749783" lon="8.14671"><ele>269.0</ele><time>2026-05-01T09:47:57.153Z</time></trkpt><trkpt lat="45.0750617" lon="8.14662"><ele>269.0</ele><time>2026-05-01T09:47:58.153Z</time></trkpt><trkpt lat="45.07514" lon="8.146535"><ele>269.4</ele><time>2026-05-01T09:47:59.154Z</time></trkpt><trkpt lat="45.0752167" lon="8.1464567"><ele>269.79999999999995</ele><time>2026-05-01T09:48:00.159Z</time></trkpt><trkpt lat="45.0752917" lon="8.14638"><ele>270.20000000000005</ele><time>2026-05-01T09:48:01.154Z</time></trkpt><trkpt lat="45.07536" lon="8.1462917"><ele>270.6</ele><time>2026-05-01T09:48:02.152Z</time></trkpt><trkpt lat="45.075415" lon="8.146185"><ele>271.0</ele><time>2026-05-01T09:48:03.151Z</time></trkpt><trkpt lat="45.0754567" lon="8.146055"><ele>271.0</ele><time>2026-05-01T09:48:04.151Z</time></trkpt><trkpt lat="45.0754817" lon="8.1459117"><ele>271.0</ele><time>2026-05-01T09:48:05.156Z</time></trkpt><trkpt lat="45.0755017" lon="8.1457583"><ele>271.0</ele><time>2026-05-01T09:48:06.15Z</time></trkpt><trkpt lat="45.0755133" lon="8.1456083"><ele>271.0</ele><time>2026-05-01T09:48:07.156Z</time></trkpt><trkpt lat="45.0755217" lon="8.14546"><ele>271.0</ele><time>2026-05-01T09:48:08.151Z</time></trkpt><trkpt lat="45.0755267" lon="8.145305"><ele>269.8</ele><time>2026-05-01T09:48:09.154Z</time></trkpt><trkpt lat="45.075535" lon="8.1451483"><ele>268.6</ele><time>2026-05-01T09:48:10.151Z</time></trkpt><trkpt lat="45.07555" lon="8.14499"><ele>267.4</ele><time>2026-05-01T09:48:11.153Z</time></trkpt><trkpt lat="45.075575" lon="8.14484"><ele>266.2</ele><time>2026-05-01T09:48:12.152Z</time></trkpt><trkpt lat="45.07562" lon="8.1446967"><ele>265.0</ele><time>2026-05-01T09:48:13.152Z</time></trkpt><trkpt lat="45.0756767" lon="8.14455"><ele>265.5</ele><time>2026-05-01T09:48:14.161Z</time></trkpt><trkpt lat="45.0757367" lon="8.1443983"><ele>266.0</ele><time>2026-05-01T09:48:15.155Z</time></trkpt><trkpt lat="45.0757967" lon="8.144235"><ele>266.5</ele><time>2026-05-01T09:48:16.152Z</time></trkpt><trkpt lat="45.07586" lon="8.14406"><ele>267.0</ele><time>2026-05-01T09:48:17.152Z</time></trkpt><trkpt lat="45.0759183" lon="8.14388"><ele>267.0</ele><time>2026-05-01T09:48:18.151Z</time></trkpt><trkpt lat="45.075975" lon="8.1437033"><ele>267.0</ele><time>2026-05-01T09:48:19.154Z</time></trkpt><trkpt lat="45.0760233" lon="8.143525"><ele>267.0</ele><time>2026-05-01T09:48:20.155Z</time></trkpt><trkpt lat="45.07607" lon="8.14335"><ele>267.0</ele><time>2026-05-01T09:48:21.153Z</time></trkpt><trkpt lat="45.0761167" lon="8.1431783"><ele>266.0</ele><time>2026-05-01T09:48:22.156Z</time></trkpt><trkpt lat="45.07616" lon="8.143005"><ele>265.0</ele><time>2026-05-01T09:48:23.152Z</time></trkpt><trkpt lat="45.0762033" lon="8.142835"><ele>264.0</ele><time>2026-05-01T09:48:24.151Z</time></trkpt><trkpt lat="45.0762467" lon="8.1426683"><ele>263.0</ele><time>2026-05-01T09:48:25.156Z</time></trkpt><trkpt lat="45.076295" lon="8.1425033"><ele>262.0</ele><time>2026-05-01T09:48:26.153Z</time></trkpt><trkpt lat="45.07635" lon="8.1423333"><ele>261.0</ele><time>2026-05-01T09:48:27.153Z</time></trkpt><trkpt lat="45.0764083" lon="8.1421717"><ele>260.0</ele><time>2026-05-01T09:48:28.155Z</time></trkpt><trkpt lat="45.0764633" lon="8.1420067"><ele>259.0</ele><time>2026-05-01T09:48:29.151Z</time></trkpt><trkpt lat="45.0765167" lon="8.1418383"><ele>259.0</ele><time>2026-05-01T09:48:30.151Z</time></trkpt><trkpt lat="45.076575" lon="8.14168"><ele>259.0</ele><time>2026-05-01T09:48:31.157Z</time></trkpt><trkpt lat="45.0766317" lon="8.1415283"><ele>259.0</ele><time>2026-05-01T09:48:32.153Z</time></trkpt><trkpt lat="45.0766833" lon="8.14138"><ele>259.0</ele><time>2026-05-01T09:48:33.154Z</time></trkpt><trkpt lat="45.0767317" lon="8.1412433"><ele>262.2</ele><time>2026-05-01T09:48:34.15Z</time></trkpt><trkpt lat="45.0767767" lon="8.1411117"><ele>265.4</ele><time>2026-05-01T09:48:35.151Z</time></trkpt><trkpt lat="45.0768183" lon="8.140995"><ele>268.6</ele><time>2026-05-01T09:48:36.153Z</time></trkpt><trkpt lat="45.0768567" lon="8.140885"><ele>271.8</ele><time>2026-05-01T09:48:37.153Z</time></trkpt><trkpt lat="45.0769" lon="8.1407783"><ele>275.0</ele><time>2026-05-01T09:48:38.155Z</time></trkpt><trkpt lat="45.0769433" lon="8.140675"><ele>275.0</ele><time>2026-05-01T09:48:39.158Z</time></trkpt><trkpt lat="45.0769883" lon="8.140575"><ele>275.0</ele><time>2026-05-01T09:48:40.153Z</time></trkpt><trkpt lat="45.0770467" lon="8.14048"><ele>275.0</ele><time>2026-05-01T09:48:41.156Z</time></trkpt><trkpt lat="45.077105" lon="8.14037"><ele>275.0</ele><time>2026-05-01T09:48:42.156Z</time></trkpt><trkpt lat="45.0771633" lon="8.1402533"><ele>275.0</ele><time>2026-05-01T09:48:43.15Z</time></trkpt><trkpt lat="45.077225" lon="8.140135"><ele>275.0</ele><time>2026-05-01T09:48:44.153Z</time></trkpt><trkpt lat="45.0772917" lon="8.1400133"><ele>275.0</ele><time>2026-05-01T09:48:45.153Z</time></trkpt><trkpt lat="45.0773617" lon="8.1398917"><ele>275.0</ele><time>2026-05-01T09:48:46.153Z</time></trkpt><trkpt lat="45.077435" lon="8.1397733"><ele>275.0</ele><time>2026-05-01T09:48:47.152Z</time></trkpt><trkpt lat="45.0775017" lon="8.139645"><ele>275.0</ele><time>2026-05-01T09:48:48.152Z</time></trkpt><trkpt lat="45.0775683" lon="8.1395133"><ele>274.4</ele><time>2026-05-01T09:48:49.154Z</time></trkpt><trkpt lat="45.077635" lon="8.1393817"><ele>273.8</ele><time>2026-05-01T09:48:50.156Z</time></trkpt><trkpt lat="45.0777033" lon="8.1392567"><ele>273.2</ele><time>2026-05-01T09:48:51.154Z</time></trkpt><trkpt lat="45.07777" lon="8.1391383"><ele>272.6</ele><time>2026-05-01T09:48:52.152Z</time></trkpt><trkpt lat="45.0778367" lon="8.1390217"><ele>272.0</ele><time>2026-05-01T09:48:53.154Z</time></trkpt><trkpt lat="45.0778917" lon="8.138915"><ele>271.6666666666667</ele><time>2026-05-01T09:48:54.155Z</time></trkpt><trkpt lat="45.0779283" lon="8.138835"><ele>271.33333333333337</ele><time>2026-05-01T09:48:55.155Z</time></trkpt><trkpt lat="45.0780017" lon="8.1387"><ele>271.0</ele><time>2026-05-01T09:48:57.154Z</time></trkpt><trkpt lat="45.0780533" lon="8.1386417"><ele>270.6666666666667</ele><time>2026-05-01T09:48:58.155Z</time></trkpt><trkpt lat="45.0781133" lon="8.138575"><ele>270.3333333333333</ele><time>2026-05-01T09:48:59.155Z</time></trkpt><trkpt lat="45.07818" lon="8.1385217"><ele>270.0</ele><time>2026-05-01T09:49:00.156Z</time></trkpt><trkpt lat="45.0782583" lon="8.1384767"><ele>271.8</ele><time>2026-05-01T09:49:01.154Z</time></trkpt><trkpt lat="45.0783433" lon="8.138445"><ele>273.6</ele><time>2026-05-01T09:49:02.153Z</time></trkpt><trkpt lat="45.0784317" lon="8.1384133"><ele>275.4</ele><time>2026-05-01T09:49:03.158Z</time></trkpt><trkpt lat="45.078525" lon="8.13838"><ele>277.2</ele><time>2026-05-01T09:49:04.155Z</time></trkpt><trkpt lat="45.0786217" lon="8.138335"><ele>279.0</ele><time>2026-05-01T09:49:05.154Z</time></trkpt><trkpt lat="45.0787233" lon="8.138285"><ele>279.0</ele><time>2026-05-01T09:49:06.153Z</time></trkpt><trkpt lat="45.0788183" lon="8.138235"><ele>279.0</ele><time>2026-05-01T09:49:07.154Z</time></trkpt><trkpt lat="45.07891" lon="8.1381883"><ele>279.0</ele><time>2026-05-01T09:49:08.154Z</time></trkpt><trkpt lat="45.079" lon="8.1381433"><ele>279.0</ele><time>2026-05-01T09:49:09.152Z</time></trkpt><trkpt lat="45.0790833" lon="8.1380917"><ele>279.0</ele><time>2026-05-01T09:49:10.155Z</time></trkpt><trkpt lat="45.0791667" lon="8.13803"><ele>278.2</ele><time>2026-05-01T09:49:11.153Z</time></trkpt><trkpt lat="45.079245" lon="8.1379533"><ele>277.4</ele><time>2026-05-01T09:49:12.155Z</time></trkpt><trkpt lat="45.0793183" lon="8.1378633"><ele>276.6</ele><time>2026-05-01T09:49:13.156Z</time></trkpt><trkpt lat="45.079385" lon="8.1377667"><ele>275.8</ele><time>2026-05-01T09:49:14.153Z</time></trkpt><trkpt lat="45.0794467" lon="8.1376617"><ele>275.0</ele><time>2026-05-01T09:49:15.153Z</time></trkpt><trkpt lat="45.079505" lon="8.1375417"><ele>275.0</ele><time>2026-05-01T09:49:16.155Z</time></trkpt><trkpt lat="45.079555" lon="8.1374133"><ele>275.0</ele><time>2026-05-01T09:49:17.157Z</time></trkpt><trkpt lat="45.0796017" lon="8.1372833"><ele>275.0</ele><time>2026-05-01T09:49:18.152Z</time></trkpt><trkpt lat="45.079645" lon="8.13715"><ele>275.0</ele><time>2026-05-01T09:49:19.159Z</time></trkpt><trkpt lat="45.0796833" lon="8.1370183"><ele>275.0</ele><time>2026-05-01T09:49:20.159Z</time></trkpt><trkpt lat="45.079715" lon="8.1368817"><ele>276.0</ele><time>2026-05-01T09:49:21.152Z</time></trkpt><trkpt lat="45.0797467" lon="8.136745"><ele>277.0</ele><time>2026-05-01T09:49:22.158Z</time></trkpt><trkpt lat="45.0797717" lon="8.1366167"><ele>278.0</ele><time>2026-05-01T09:49:23.156Z</time></trkpt><trkpt lat="45.0797933" lon="8.1365033"><ele>279.0</ele><time>2026-05-01T09:49:24.151Z</time></trkpt><trkpt lat="45.079825" lon="8.1364117"><ele>280.0</ele><time>2026-05-01T09:49:25.157Z</time></trkpt><trkpt lat="45.0798567" lon="8.1363217"><ele>281.0</ele><time>2026-05-01T09:49:26.157Z</time></trkpt><trkpt lat="45.07989" lon="8.13622"><ele>281.0</ele><time>2026-05-01T09:49:27.152Z</time></trkpt><trkpt lat="45.079925" lon="8.13611"><ele>281.0</ele><time>2026-05-01T09:49:28.155Z</time></trkpt><trkpt lat="45.0799633" lon="8.1359967"><ele>281.0</ele><time>2026-05-01T09:49:29.159Z</time></trkpt><trkpt lat="45.0800067" lon="8.1358817"><ele>281.0</ele><time>2026-05-01T09:49:30.161Z</time></trkpt><trkpt lat="45.0800517" lon="8.1357667"><ele>281.0</ele><time>2026-05-01T09:49:31.152Z</time></trkpt><trkpt lat="45.080105" lon="8.1356567"><ele>281.0</ele><time>2026-05-01T09:49:32.153Z</time></trkpt><trkpt lat="45.0801567" lon="8.1355583"><ele>281.0</ele><time>2026-05-01T09:49:33.154Z</time></trkpt><trkpt lat="45.0802133" lon="8.1354617"><ele>281.0</ele><time>2026-05-01T09:49:34.153Z</time></trkpt><trkpt lat="45.0802633" lon="8.1353683"><ele>281.0</ele><time>2026-05-01T09:49:35.153Z</time></trkpt><trkpt lat="45.0803183" lon="8.1352817"><ele>281.0</ele><time>2026-05-01T09:49:36.153Z</time></trkpt><trkpt lat="45.08038" lon="8.1352067"><ele>281.0</ele><time>2026-05-01T09:49:37.156Z</time></trkpt><trkpt lat="45.0804517" lon="8.1351567"><ele>281.0</ele><time>2026-05-01T09:49:38.157Z</time></trkpt><trkpt lat="45.0805317" lon="8.1351333"><ele>281.0</ele><time>2026-05-01T09:49:39.154Z</time></trkpt><trkpt lat="45.08061" lon="8.13512"><ele>281.0</ele><time>2026-05-01T09:49:40.154Z</time></trkpt><trkpt lat="45.0807167" lon="8.1351133"><ele>281.0</ele><time>2026-05-01T09:49:42.153Z</time></trkpt><trkpt lat="45.0808083" lon="8.1351367"><ele>281.0</ele><time>2026-05-01T09:49:44.153Z</time></trkpt><trkpt lat="45.080935" lon="8.1351767"><ele>279.5</ele><time>2026-05-01T09:49:46.156Z</time></trkpt><trkpt lat="45.0810067" lon="8.135205"><ele>278.0</ele><time>2026-05-01T09:49:47.152Z</time></trkpt><trkpt lat="45.0810717" lon="8.13524"><ele>276.5</ele><time>2026-05-01T09:49:48.157Z</time></trkpt><trkpt lat="45.0811367" lon="8.135265"><ele>275.0</ele><time>2026-05-01T09:49:49.154Z</time></trkpt><trkpt lat="45.08124" lon="8.1352667"><ele>273.5</ele><time>2026-05-01T09:49:51.155Z</time></trkpt><trkpt lat="45.0813167" lon="8.135155"><ele>272.0</ele><time>2026-05-01T09:49:53.157Z</time></trkpt><trkpt lat="45.0813583" lon="8.1349833"><ele>271.4</ele><time>2026-05-01T09:49:55.157Z</time></trkpt><trkpt lat="45.0813633" lon="8.1348567"><ele>270.79999999999995</ele><time>2026-05-01T09:49:56.156Z</time></trkpt><trkpt lat="45.0813783" lon="8.134725"><ele>270.2</ele><time>2026-05-01T09:49:57.152Z</time></trkpt><trkpt lat="45.081385" lon="8.1345883"><ele>269.59999999999997</ele><time>2026-05-01T09:49:58.152Z</time></trkpt><trkpt lat="45.081395" lon="8.1344417"><ele>269.0</ele><time>2026-05-01T09:49:59.152Z</time></trkpt><trkpt lat="45.081405" lon="8.134285"><ele>269.0</ele><time>2026-05-01T09:50:00.151Z</time></trkpt><trkpt lat="45.0814167" lon="8.1341183"><ele>269.0</ele><time>2026-05-01T09:50:01.156Z</time></trkpt><trkpt lat="45.0814267" lon="8.133955"><ele>269.0</ele><time>2026-05-01T09:50:02.151Z</time></trkpt><trkpt lat="45.0814333" lon="8.133795"><ele>269.0</ele><time>2026-05-01T09:50:03.151Z</time></trkpt><trkpt lat="45.08144" lon="8.1336333"><ele>269.0</ele><time>2026-05-01T09:50:04.155Z</time></trkpt><trkpt lat="45.0814483" lon="8.13347"><ele>269.0</ele><time>2026-05-01T09:50:05.152Z</time></trkpt><trkpt lat="45.0814583" lon="8.1333117"><ele>269.0</ele><time>2026-05-01T09:50:06.152Z</time></trkpt><trkpt lat="45.0814683" lon="8.133155"><ele>269.0</ele><time>2026-05-01T09:50:07.151Z</time></trkpt><trkpt lat="45.0814717" lon="8.1330017"><ele>269.0</ele><time>2026-05-01T09:50:08.152Z</time></trkpt><trkpt lat="45.081485" lon="8.1328517"><ele>269.2</ele><time>2026-05-01T09:50:09.151Z</time></trkpt><trkpt lat="45.0815" lon="8.13271"><ele>269.4</ele><time>2026-05-01T09:50:10.153Z</time></trkpt><trkpt lat="45.0815367" lon="8.1325867"><ele>269.6</ele><time>2026-05-01T09:50:11.156Z</time></trkpt><trkpt lat="45.0816017" lon="8.13248"><ele>269.8</ele><time>2026-05-01T09:50:12.152Z</time></trkpt><trkpt lat="45.0816833" lon="8.1324"><ele>270.0</ele><time>2026-05-01T09:50:13.159Z</time></trkpt><trkpt lat="45.0817767" lon="8.1323367"><ele>267.25</ele><time>2026-05-01T09:50:14.153Z</time></trkpt><trkpt lat="45.0818833" lon="8.1322817"><ele>264.5</ele><time>2026-05-01T09:50:15.154Z</time></trkpt><trkpt lat="45.082" lon="8.132235"><ele>261.75</ele><time>2026-05-01T09:50:16.156Z</time></trkpt><trkpt lat="45.0821267" lon="8.132185"><ele>259.0</ele><time>2026-05-01T09:50:17.156Z</time></trkpt><trkpt lat="45.0822717" lon="8.1321317"><ele>259.0</ele><time>2026-05-01T09:50:18.156Z</time></trkpt><trkpt lat="45.0824117" lon="8.1320767"><ele>259.0</ele><time>2026-05-01T09:50:19.152Z</time></trkpt><trkpt lat="45.082555" lon="8.1320183"><ele>259.0</ele><time>2026-05-01T09:50:20.153Z</time></trkpt><trkpt lat="45.082695" lon="8.1319583"><ele>259.0</ele><time>2026-05-01T09:50:21.153Z</time></trkpt><trkpt lat="45.0828333" lon="8.1319033"><ele>256.25</ele><time>2026-05-01T09:50:22.153Z</time></trkpt><trkpt lat="45.0829767" lon="8.1318683"><ele>253.5</ele><time>2026-05-01T09:50:23.152Z</time></trkpt><trkpt lat="45.0831283" lon="8.1318533"><ele>250.75</ele><time>2026-05-01T09:50:24.153Z</time></trkpt><trkpt lat="45.083275" lon="8.13186"><ele>248.0</ele><time>2026-05-01T09:50:25.153Z</time></trkpt><trkpt lat="45.08342" lon="8.1318783"><ele>246.0</ele><time>2026-05-01T09:50:26.157Z</time></trkpt><trkpt lat="45.0835617" lon="8.1319017"><ele>244.0</ele><time>2026-05-01T09:50:27.151Z</time></trkpt><trkpt lat="45.0837033" lon="8.1319333"><ele>242.0</ele><time>2026-05-01T09:50:28.152Z</time></trkpt><trkpt lat="45.0838467" lon="8.1319683"><ele>240.0</ele><time>2026-05-01T09:50:29.157Z</time></trkpt><trkpt lat="45.08399" lon="8.1320033"><ele>239.75</ele><time>2026-05-01T09:50:30.152Z</time></trkpt><trkpt lat="45.0841333" lon="8.1320417"><ele>239.5</ele><time>2026-05-01T09:50:31.152Z</time></trkpt><trkpt lat="45.0842783" lon="8.13208"><ele>239.25</ele><time>2026-05-01T09:50:32.157Z</time></trkpt><trkpt lat="45.0844217" lon="8.1321183"><ele>239.0</ele><time>2026-05-01T09:50:33.156Z</time></trkpt><trkpt lat="45.0845683" lon="8.1321583"><ele>239.0</ele><time>2026-05-01T09:50:34.154Z</time></trkpt><trkpt lat="45.0847183" lon="8.1321967"><ele>239.0</ele><time>2026-05-01T09:50:35.153Z</time></trkpt><trkpt lat="45.0848667" lon="8.132235"><ele>239.0</ele><time>2026-05-01T09:50:36.157Z</time></trkpt><trkpt lat="45.085015" lon="8.13227"><ele>237.66666666666669</ele><time>2026-05-01T09:50:37.157Z</time></trkpt><trkpt lat="45.085165" lon="8.1323133"><ele>236.33333333333331</ele><time>2026-05-01T09:50:38.154Z</time></trkpt><trkpt lat="45.0853183" lon="8.132355"><ele>235.0</ele><time>2026-05-01T09:50:39.157Z</time></trkpt><trkpt lat="45.08547" lon="8.1324"><ele>235.0</ele><time>2026-05-01T09:50:40.153Z</time></trkpt><trkpt lat="45.0856233" lon="8.1324417"><ele>235.0</ele><time>2026-05-01T09:50:41.154Z</time></trkpt><trkpt lat="45.085775" lon="8.132485"><ele>235.0</ele><time>2026-05-01T09:50:42.157Z</time></trkpt><trkpt lat="45.085925" lon="8.132525"><ele>233.5</ele><time>2026-05-01T09:50:43.16Z</time></trkpt><trkpt lat="45.0860733" lon="8.1325617"><ele>232.0</ele><time>2026-05-01T09:50:44.156Z</time></trkpt><trkpt lat="45.0862183" lon="8.1325933"><ele>230.5</ele><time>2026-05-01T09:50:45.151Z</time></trkpt><trkpt lat="45.0863583" lon="8.132615"><ele>229.0</ele><time>2026-05-01T09:50:46.152Z</time></trkpt><trkpt lat="45.086495" lon="8.1326217"><ele>228.25</ele><time>2026-05-01T09:50:47.154Z</time></trkpt><trkpt lat="45.086625" lon="8.13261"><ele>227.5</ele><time>2026-05-01T09:50:48.155Z</time></trkpt><trkpt lat="45.086755" lon="8.132575"><ele>226.75</ele><time>2026-05-01T09:50:49.152Z</time></trkpt><trkpt lat="45.086885" lon="8.13251"><ele>226.0</ele><time>2026-05-01T09:50:50.156Z</time></trkpt><trkpt lat="45.0870133" lon="8.1324333"><ele>226.5</ele><time>2026-05-01T09:50:51.15Z</time></trkpt><trkpt lat="45.0871417" lon="8.1323617"><ele>227.0</ele><time>2026-05-01T09:50:52.15Z</time></trkpt><trkpt lat="45.0872767" lon="8.1322783"><ele>227.5</ele><time>2026-05-01T09:50:53.152Z</time></trkpt><trkpt lat="45.08741" lon="8.1322033"><ele>228.0</ele><time>2026-05-01T09:50:54.152Z</time></trkpt><trkpt lat="45.0875417" lon="8.1321283"><ele>228.0</ele><time>2026-05-01T09:50:55.154Z</time></trkpt><trkpt lat="45.0876717" lon="8.1320517"><ele>228.0</ele><time>2026-05-01T09:50:56.155Z</time></trkpt><trkpt lat="45.0878067" lon="8.1319717"><ele>228.0</ele><time>2026-05-01T09:50:57.152Z</time></trkpt><trkpt lat="45.0879367" lon="8.1318917"><ele>228.0</ele><time>2026-05-01T09:50:58.155Z</time></trkpt><trkpt lat="45.0880617" lon="8.1318117"><ele>228.0</ele><time>2026-05-01T09:50:59.154Z</time></trkpt><trkpt lat="45.0881767" lon="8.1317333"><ele>228.0</ele><time>2026-05-01T09:51:00.152Z</time></trkpt><trkpt lat="45.0882917" lon="8.131665"><ele>228.0</ele><time>2026-05-01T09:51:01.159Z</time></trkpt><trkpt lat="45.0883967" lon="8.1316017"><ele>228.0</ele><time>2026-05-01T09:51:02.153Z</time></trkpt><trkpt lat="45.08848" lon="8.13155"><ele>227.60000000000002</ele><time>2026-05-01T09:51:03.154Z</time></trkpt><trkpt lat="45.0885483" lon="8.1315133"><ele>227.20000000000002</ele><time>2026-05-01T09:51:04.159Z</time></trkpt><trkpt lat="45.0886217" lon="8.1314817"><ele>226.8</ele><time>2026-05-01T09:51:06.15Z</time></trkpt><trkpt lat="45.0886967" lon="8.131375"><ele>226.4</ele><time>2026-05-01T09:51:11.155Z</time></trkpt><trkpt lat="45.0886767" lon="8.13121"><ele>226.0</ele><time>2026-05-01T09:51:13.155Z</time></trkpt><trkpt lat="45.0886483" lon="8.1311"><ele>226.0</ele><time>2026-05-01T09:51:14.152Z</time></trkpt><trkpt lat="45.0886217" lon="8.130985"><ele>226.00000000000003</ele><time>2026-05-01T09:51:15.152Z</time></trkpt><trkpt lat="45.0885867" lon="8.130855"><ele>226.00000000000003</ele><time>2026-05-01T09:51:16.152Z</time></trkpt><trkpt lat="45.0885517" lon="8.1307083"><ele>226.0</ele><time>2026-05-01T09:51:17.154Z</time></trkpt><trkpt lat="45.0885117" lon="8.1305583"><ele>226.0</ele><time>2026-05-01T09:51:18.155Z</time></trkpt><trkpt lat="45.08847" lon="8.1304033"><ele>226.25</ele><time>2026-05-01T09:51:19.155Z</time></trkpt><trkpt lat="45.0884283" lon="8.1302333"><ele>226.5</ele><time>2026-05-01T09:51:20.154Z</time></trkpt><trkpt lat="45.088385" lon="8.13005"><ele>226.75</ele><time>2026-05-01T09:51:21.152Z</time></trkpt><trkpt lat="45.0883283" lon="8.129865"><ele>227.0</ele><time>2026-05-01T09:51:22.151Z</time></trkpt><trkpt lat="45.0882783" lon="8.129665"><ele>227.25</ele><time>2026-05-01T09:51:23.15Z</time></trkpt><trkpt lat="45.0882267" lon="8.1294717"><ele>227.5</ele><time>2026-05-01T09:51:24.152Z</time></trkpt><trkpt lat="45.0881717" lon="8.12928"><ele>227.75</ele><time>2026-05-01T09:51:25.158Z</time></trkpt><trkpt lat="45.08812" lon="8.129085"><ele>228.0</ele><time>2026-05-01T09:51:26.155Z</time></trkpt><trkpt lat="45.088065" lon="8.1288883"><ele>228.0</ele><time>2026-05-01T09:51:27.159Z</time></trkpt><trkpt lat="45.0880167" lon="8.1286867"><ele>228.0</ele><time>2026-05-01T09:51:28.153Z</time></trkpt><trkpt lat="45.08796" lon="8.1284817"><ele>228.0</ele><time>2026-05-01T09:51:29.154Z</time></trkpt><trkpt lat="45.0879" lon="8.1282767"><ele>228.0</ele><time>2026-05-01T09:51:30.153Z</time></trkpt><trkpt lat="45.087845" lon="8.1280717"><ele>228.0</ele><time>2026-05-01T09:51:31.152Z</time></trkpt><trkpt lat="45.0877883" lon="8.1278633"><ele>228.0</ele><time>2026-05-01T09:51:32.152Z</time></trkpt><trkpt lat="45.0877283" lon="8.1276517"><ele>228.0</ele><time>2026-05-01T09:51:33.154Z</time></trkpt><trkpt lat="45.08767" lon="8.12744"><ele>228.0</ele><time>2026-05-01T09:51:34.156Z</time></trkpt><trkpt lat="45.0876083" lon="8.1272217"><ele>228.0</ele><time>2026-05-01T09:51:35.155Z</time></trkpt><trkpt lat="45.087545" lon="8.1270033"><ele>229.33333333333331</ele><time>2026-05-01T09:51:36.156Z</time></trkpt><trkpt lat="45.087485" lon="8.1267867"><ele>230.66666666666666</ele><time>2026-05-01T09:51:37.153Z</time></trkpt><trkpt lat="45.0874283" lon="8.12657"><ele>232.0</ele><time>2026-05-01T09:51:38.154Z</time></trkpt><trkpt lat="45.0873733" lon="8.1263517"><ele>232.33333333333331</ele><time>2026-05-01T09:51:39.15Z</time></trkpt><trkpt lat="45.08732" lon="8.1261317"><ele>232.66666666666669</ele><time>2026-05-01T09:51:40.155Z</time></trkpt><trkpt lat="45.0872617" lon="8.125915"><ele>233.0</ele><time>2026-05-01T09:51:41.154Z</time></trkpt><trkpt lat="45.087205" lon="8.125695"><ele>233.66666666666669</ele><time>2026-05-01T09:51:42.161Z</time></trkpt><trkpt lat="45.08715" lon="8.1254767"><ele>234.33333333333331</ele><time>2026-05-01T09:51:43.151Z</time></trkpt><trkpt lat="45.08709" lon="8.1252517"><ele>235.0</ele><time>2026-05-01T09:51:44.151Z</time></trkpt><trkpt lat="45.08703" lon="8.1250283"><ele>234.66666666666666</ele><time>2026-05-01T09:51:45.152Z</time></trkpt><trkpt lat="45.0869717" lon="8.1248067"><ele>234.33333333333331</ele><time>2026-05-01T09:51:46.153Z</time></trkpt><trkpt lat="45.0869117" lon="8.1245833"><ele>234.0</ele><time>2026-05-01T09:51:47.154Z</time></trkpt><trkpt lat="45.0868533" lon="8.1243567"><ele>234.0</ele><time>2026-05-01T09:51:48.156Z</time></trkpt><trkpt lat="45.0867917" lon="8.12413"><ele>234.0</ele><time>2026-05-01T09:51:49.152Z</time></trkpt><trkpt lat="45.0867283" lon="8.1239017"><ele>234.0</ele><time>2026-05-01T09:51:50.151Z</time></trkpt><trkpt lat="45.0866667" lon="8.1236733"><ele>233.66666666666669</ele><time>2026-05-01T09:51:51.154Z</time></trkpt><trkpt lat="45.086605" lon="8.123445"><ele>233.33333333333334</ele><time>2026-05-01T09:51:52.152Z</time></trkpt><trkpt lat="45.0865417" lon="8.12321"><ele>233.0</ele><time>2026-05-01T09:51:53.152Z</time></trkpt><trkpt lat="45.0864683" lon="8.12297"><ele>233.0</ele><time>2026-05-01T09:51:54.152Z</time></trkpt><trkpt lat="45.0864017" lon="8.122725"><ele>233.0</ele><time>2026-05-01T09:51:55.156Z</time></trkpt><trkpt lat="45.0863383" lon="8.1224917"><ele>233.0</ele><time>2026-05-01T09:51:56.153Z</time></trkpt><trkpt lat="45.086275" lon="8.122255"><ele>233.0</ele><time>2026-05-01T09:51:57.153Z</time></trkpt><trkpt lat="45.086215" lon="8.122015"><ele>233.0</ele><time>2026-05-01T09:51:58.154Z</time></trkpt><trkpt lat="45.086155" lon="8.121775"><ele>233.0</ele><time>2026-05-01T09:51:59.156Z</time></trkpt><trkpt lat="45.086095" lon="8.1215317"><ele>233.0</ele><time>2026-05-01T09:52:00.154Z</time></trkpt><trkpt lat="45.086035" lon="8.1212883"><ele>233.0</ele><time>2026-05-01T09:52:01.159Z</time></trkpt><trkpt lat="45.0859717" lon="8.12104"><ele>233.0</ele><time>2026-05-01T09:52:02.151Z</time></trkpt><trkpt lat="45.0859133" lon="8.12079"><ele>233.66666666666669</ele><time>2026-05-01T09:52:03.151Z</time></trkpt><trkpt lat="45.085855" lon="8.1205367"><ele>234.33333333333331</ele><time>2026-05-01T09:52:04.158Z</time></trkpt><trkpt lat="45.085805" lon="8.12028"><ele>235.0</ele><time>2026-05-01T09:52:05.157Z</time></trkpt><trkpt lat="45.0857617" lon="8.1200217"><ele>234.66666666666666</ele><time>2026-05-01T09:52:06.155Z</time></trkpt><trkpt lat="45.08573" lon="8.119755"><ele>234.33333333333331</ele><time>2026-05-01T09:52:07.155Z</time></trkpt><trkpt lat="45.0857067" lon="8.1194883"><ele>234.0</ele><time>2026-05-01T09:52:08.154Z</time></trkpt><trkpt lat="45.0856917" lon="8.1192217"><ele>233.66666666666669</ele><time>2026-05-01T09:52:09.154Z</time></trkpt><trkpt lat="45.0856883" lon="8.1189567"><ele>233.33333333333334</ele><time>2026-05-01T09:52:10.152Z</time></trkpt><trkpt lat="45.0856933" lon="8.11869"><ele>233.0</ele><time>2026-05-01T09:52:11.151Z</time></trkpt><trkpt lat="45.0857067" lon="8.118425"><ele>233.66666666666669</ele><time>2026-05-01T09:52:12.153Z</time></trkpt><trkpt lat="45.0857217" lon="8.11816"><ele>234.33333333333331</ele><time>2026-05-01T09:52:13.152Z</time></trkpt><trkpt lat="45.0857367" lon="8.1178917"><ele>235.0</ele><time>2026-05-01T09:52:14.154Z</time></trkpt><trkpt lat="45.0857517" lon="8.117625"><ele>235.33333333333331</ele><time>2026-05-01T09:52:15.153Z</time></trkpt><trkpt lat="45.085765" lon="8.1173583"><ele>235.66666666666669</ele><time>2026-05-01T09:52:16.155Z</time></trkpt><trkpt lat="45.0857833" lon="8.11709"><ele>236.0</ele><time>2026-05-01T09:52:17.151Z</time></trkpt><trkpt lat="45.0858017" lon="8.116825"><ele>236.33333333333334</ele><time>2026-05-01T09:52:18.155Z</time></trkpt><trkpt lat="45.08582" lon="8.1165567"><ele>236.66666666666669</ele><time>2026-05-01T09:52:19.158Z</time></trkpt><trkpt lat="45.08584" lon="8.1162917"><ele>237.0</ele><time>2026-05-01T09:52:20.158Z</time></trkpt><trkpt lat="45.0858617" lon="8.116025"><ele>237.0</ele><time>2026-05-01T09:52:21.156Z</time></trkpt><trkpt lat="45.0858783" lon="8.115755"><ele>237.0</ele><time>2026-05-01T09:52:22.158Z</time></trkpt><trkpt lat="45.0858983" lon="8.1154833"><ele>237.0</ele><time>2026-05-01T09:52:23.16Z</time></trkpt><trkpt lat="45.08592" lon="8.1152133"><ele>237.0</ele><time>2026-05-01T09:52:24.154Z</time></trkpt><trkpt lat="45.08594" lon="8.1149417"><ele>237.0</ele><time>2026-05-01T09:52:25.155Z</time></trkpt><trkpt lat="45.0859617" lon="8.1146733"><ele>237.0</ele><time>2026-05-01T09:52:26.159Z</time></trkpt><trkpt lat="45.0859833" lon="8.114405"><ele>237.0</ele><time>2026-05-01T09:52:27.154Z</time></trkpt><trkpt lat="45.0860033" lon="8.1141367"><ele>237.0</ele><time>2026-05-01T09:52:28.152Z</time></trkpt><trkpt lat="45.0860233" lon="8.1138667"><ele>237.0</ele><time>2026-05-01T09:52:29.159Z</time></trkpt><trkpt lat="45.086045" lon="8.1136017"><ele>236.33333333333331</ele><time>2026-05-01T09:52:30.152Z</time></trkpt><trkpt lat="45.0860683" lon="8.1133383"><ele>235.66666666666666</ele><time>2026-05-01T09:52:31.155Z</time></trkpt><trkpt lat="45.0860917" lon="8.1130733"><ele>235.0</ele><time>2026-05-01T09:52:32.15Z</time></trkpt><trkpt lat="45.0861117" lon="8.11281"><ele>236.0</ele><time>2026-05-01T09:52:33.15Z</time></trkpt><trkpt lat="45.0861267" lon="8.1125483"><ele>237.0</ele><time>2026-05-01T09:52:34.153Z</time></trkpt><trkpt lat="45.0861467" lon="8.1122883"><ele>238.0</ele><time>2026-05-01T09:52:35.152Z</time></trkpt><trkpt lat="45.0861667" lon="8.1120317"><ele>238.0</ele><time>2026-05-01T09:52:36.152Z</time></trkpt><trkpt lat="45.086185" lon="8.1117733"><ele>238.0</ele><time>2026-05-01T09:52:37.152Z</time></trkpt><trkpt lat="45.086205" lon="8.1115167"><ele>238.0</ele><time>2026-05-01T09:52:38.155Z</time></trkpt><trkpt lat="45.086225" lon="8.1112617"><ele>238.0</ele><time>2026-05-01T09:52:39.156Z</time></trkpt><trkpt lat="45.086245" lon="8.1110067"><ele>238.0</ele><time>2026-05-01T09:52:40.156Z</time></trkpt><trkpt lat="45.0862617" lon="8.1107533"><ele>238.0</ele><time>2026-05-01T09:52:41.153Z</time></trkpt><trkpt lat="45.0862817" lon="8.1105"><ele>237.66666666666666</ele><time>2026-05-01T09:52:42.155Z</time></trkpt><trkpt lat="45.0863017" lon="8.1102467"><ele>237.33333333333331</ele><time>2026-05-01T09:52:43.152Z</time></trkpt><trkpt lat="45.08632" lon="8.109995"><ele>237.0</ele><time>2026-05-01T09:52:44.157Z</time></trkpt><trkpt lat="45.0863367" lon="8.1097417"><ele>237.33333333333331</ele><time>2026-05-01T09:52:45.156Z</time></trkpt><trkpt lat="45.0863533" lon="8.10949"><ele>237.66666666666666</ele><time>2026-05-01T09:52:46.159Z</time></trkpt><trkpt lat="45.0863717" lon="8.10924"><ele>238.0</ele><time>2026-05-01T09:52:47.156Z</time></trkpt><trkpt lat="45.0863883" lon="8.1089917"><ele>238.0</ele><time>2026-05-01T09:52:48.152Z</time></trkpt><trkpt lat="45.086405" lon="8.1087417"><ele>238.0</ele><time>2026-05-01T09:52:49.156Z</time></trkpt><trkpt lat="45.0864267" lon="8.1084917"><ele>238.0</ele><time>2026-05-01T09:52:50.157Z</time></trkpt><trkpt lat="45.08645" lon="8.1082417"><ele>238.0</ele><time>2026-05-01T09:52:51.154Z</time></trkpt><trkpt lat="45.0864683" lon="8.1079967"><ele>238.0</ele><time>2026-05-01T09:52:52.153Z</time></trkpt><trkpt lat="45.086485" lon="8.1077533"><ele>238.0</ele><time>2026-05-01T09:52:53.149Z</time></trkpt><trkpt lat="45.0865033" lon="8.10751"><ele>238.33333333333331</ele><time>2026-05-01T09:52:54.155Z</time></trkpt><trkpt lat="45.086525" lon="8.1072683"><ele>238.66666666666669</ele><time>2026-05-01T09:52:55.158Z</time></trkpt><trkpt lat="45.0865533" lon="8.10703"><ele>239.0</ele><time>2026-05-01T09:52:56.155Z</time></trkpt><trkpt lat="45.08659" lon="8.1067933"><ele>240.0</ele><time>2026-05-01T09:52:57.152Z</time></trkpt><trkpt lat="45.0866367" lon="8.10656"><ele>241.0</ele><time>2026-05-01T09:52:58.152Z</time></trkpt><trkpt lat="45.086695" lon="8.1063317"><ele>242.0</ele><time>2026-05-01T09:52:59.153Z</time></trkpt><trkpt lat="45.08676" lon="8.1061067"><ele>242.0</ele><time>2026-05-01T09:53:00.153Z</time></trkpt><trkpt lat="45.0868267" lon="8.1058833"><ele>242.0</ele><time>2026-05-01T09:53:01.159Z</time></trkpt><trkpt lat="45.0868983" lon="8.1056667"><ele>242.0</ele><time>2026-05-01T09:53:02.155Z</time></trkpt><trkpt lat="45.0869717" lon="8.105455"><ele>242.33333333333334</ele><time>2026-05-01T09:53:03.155Z</time></trkpt><trkpt lat="45.0870467" lon="8.1052433"><ele>242.66666666666669</ele><time>2026-05-01T09:53:04.154Z</time></trkpt><trkpt lat="45.0871217" lon="8.1050333"><ele>243.0</ele><time>2026-05-01T09:53:05.151Z</time></trkpt><trkpt lat="45.0871983" lon="8.1048267"><ele>243.0</ele><time>2026-05-01T09:53:06.157Z</time></trkpt><trkpt lat="45.0872767" lon="8.1046217"><ele>243.0</ele><time>2026-05-01T09:53:07.153Z</time></trkpt><trkpt lat="45.0873517" lon="8.104415"><ele>243.0</ele><time>2026-05-01T09:53:08.154Z</time></trkpt><trkpt lat="45.087425" lon="8.1042083"><ele>244.33333333333331</ele><time>2026-05-01T09:53:09.161Z</time></trkpt><trkpt lat="45.0875" lon="8.1040083"><ele>245.66666666666666</ele><time>2026-05-01T09:53:10.158Z</time></trkpt><trkpt lat="45.0875717" lon="8.10381"><ele>247.0</ele><time>2026-05-01T09:53:11.152Z</time></trkpt><trkpt lat="45.0876483" lon="8.1036133"><ele>247.0</ele><time>2026-05-01T09:53:12.153Z</time></trkpt><trkpt lat="45.0877233" lon="8.1034167"><ele>247.0</ele><time>2026-05-01T09:53:13.16Z</time></trkpt><trkpt lat="45.0877983" lon="8.1032183"><ele>247.0</ele><time>2026-05-01T09:53:14.153Z</time></trkpt><trkpt lat="45.087875" lon="8.10302"><ele>246.33333333333331</ele><time>2026-05-01T09:53:15.155Z</time></trkpt><trkpt lat="45.08795" lon="8.1028183"><ele>245.66666666666669</ele><time>2026-05-01T09:53:16.153Z</time></trkpt><trkpt lat="45.088025" lon="8.1026183"><ele>245.0</ele><time>2026-05-01T09:53:17.154Z</time></trkpt><trkpt lat="45.0880983" lon="8.10242"><ele>245.0</ele><time>2026-05-01T09:53:18.152Z</time></trkpt><trkpt lat="45.088175" lon="8.1022183"><ele>245.0</ele><time>2026-05-01T09:53:19.155Z</time></trkpt><trkpt lat="45.0882517" lon="8.102015"><ele>245.0</ele><time>2026-05-01T09:53:20.153Z</time></trkpt><trkpt lat="45.0883217" lon="8.101815"><ele>245.0</ele><time>2026-05-01T09:53:21.155Z</time></trkpt><trkpt lat="45.088395" lon="8.1016167"><ele>245.0</ele><time>2026-05-01T09:53:22.153Z</time></trkpt><trkpt lat="45.0884733" lon="8.1014167"><ele>245.0</ele><time>2026-05-01T09:53:23.151Z</time></trkpt><trkpt lat="45.0885483" lon="8.1012183"><ele>245.33333333333334</ele><time>2026-05-01T09:53:24.156Z</time></trkpt><trkpt lat="45.0886217" lon="8.1010183"><ele>245.66666666666669</ele><time>2026-05-01T09:53:25.157Z</time></trkpt><trkpt lat="45.0886967" lon="8.10082"><ele>246.0</ele><time>2026-05-01T09:53:26.156Z</time></trkpt><trkpt lat="45.088775" lon="8.1006167"><ele>244.66666666666669</ele><time>2026-05-01T09:53:27.15Z</time></trkpt><trkpt lat="45.0888533" lon="8.100415"><ele>243.33333333333334</ele><time>2026-05-01T09:53:28.155Z</time></trkpt><trkpt lat="45.0889283" lon="8.1002117"><ele>242.0</ele><time>2026-05-01T09:53:29.157Z</time></trkpt><trkpt lat="45.0890017" lon="8.1000117"><ele>243.0</ele><time>2026-05-01T09:53:30.157Z</time></trkpt><trkpt lat="45.0890733" lon="8.0998117"><ele>244.0</ele><time>2026-05-01T09:53:31.158Z</time></trkpt><trkpt lat="45.0891517" lon="8.09961"><ele>245.0</ele><time>2026-05-01T09:53:32.157Z</time></trkpt><trkpt lat="45.0892267" lon="8.09941"><ele>245.66666666666669</ele><time>2026-05-01T09:53:33.158Z</time></trkpt><trkpt lat="45.089305" lon="8.0992083"><ele>246.33333333333331</ele><time>2026-05-01T09:53:34.156Z</time></trkpt><trkpt lat="45.0893817" lon="8.099005"><ele>247.0</ele><time>2026-05-01T09:53:35.16Z</time></trkpt><trkpt lat="45.0894567" lon="8.0988"><ele>247.0</ele><time>2026-05-01T09:53:36.158Z</time></trkpt><trkpt lat="45.089535" lon="8.0985933"><ele>247.0</ele><time>2026-05-01T09:53:37.157Z</time></trkpt><trkpt lat="45.0896117" lon="8.0983883"><ele>247.0</ele><time>2026-05-01T09:53:38.158Z</time></trkpt><trkpt lat="45.0896883" lon="8.0981833"><ele>247.66666666666666</ele><time>2026-05-01T09:53:39.155Z</time></trkpt><trkpt lat="45.0897633" lon="8.0979767"><ele>248.33333333333331</ele><time>2026-05-01T09:53:40.157Z</time></trkpt><trkpt lat="45.08984" lon="8.0977683"><ele>249.0</ele><time>2026-05-01T09:53:41.162Z</time></trkpt><trkpt lat="45.0899167" lon="8.0975633"><ele>249.66666666666669</ele><time>2026-05-01T09:53:42.155Z</time></trkpt><trkpt lat="45.0899917" lon="8.09736"><ele>250.33333333333334</ele><time>2026-05-01T09:53:43.156Z</time></trkpt><trkpt lat="45.0900733" lon="8.0971567"><ele>251.0</ele><time>2026-05-01T09:53:44.158Z</time></trkpt><trkpt lat="45.0901483" lon="8.0969533"><ele>251.0</ele><time>2026-05-01T09:53:45.158Z</time></trkpt><trkpt lat="45.0902283" lon="8.0967517"><ele>251.0</ele><time>2026-05-01T09:53:46.157Z</time></trkpt><trkpt lat="45.090305" lon="8.0965467"><ele>251.0</ele><time>2026-05-01T09:53:47.156Z</time></trkpt><trkpt lat="45.0903817" lon="8.0963367"><ele>251.66666666666669</ele><time>2026-05-01T09:53:48.153Z</time></trkpt><trkpt lat="45.09046" lon="8.0961317"><ele>252.33333333333331</ele><time>2026-05-01T09:53:49.153Z</time></trkpt><trkpt lat="45.0905367" lon="8.09593"><ele>253.0</ele><time>2026-05-01T09:53:50.156Z</time></trkpt><trkpt lat="45.0906133" lon="8.0957267"><ele>253.0</ele><time>2026-05-01T09:53:51.157Z</time></trkpt><trkpt lat="45.0906917" lon="8.09552"><ele>253.0</ele><time>2026-05-01T09:53:52.156Z</time></trkpt><trkpt lat="45.0907683" lon="8.095315"><ele>253.0</ele><time>2026-05-01T09:53:53.153Z</time></trkpt><trkpt lat="45.0908517" lon="8.0951083"><ele>253.0</ele><time>2026-05-01T09:53:54.152Z</time></trkpt><trkpt lat="45.0909283" lon="8.094905"><ele>253.0</ele><time>2026-05-01T09:53:55.158Z</time></trkpt><trkpt lat="45.0910033" lon="8.0946967"><ele>253.0</ele><time>2026-05-01T09:53:56.156Z</time></trkpt><trkpt lat="45.0910783" lon="8.0944883"><ele>253.0</ele><time>2026-05-01T09:53:57.159Z</time></trkpt><trkpt lat="45.091155" lon="8.0942783"><ele>253.0</ele><time>2026-05-01T09:53:58.156Z</time></trkpt><trkpt lat="45.091235" lon="8.0940683"><ele>253.0</ele><time>2026-05-01T09:53:59.16Z</time></trkpt><trkpt lat="45.0913133" lon="8.0938617"><ele>252.66666666666666</ele><time>2026-05-01T09:54:00.151Z</time></trkpt><trkpt lat="45.0913883" lon="8.0936533"><ele>252.33333333333331</ele><time>2026-05-01T09:54:01.157Z</time></trkpt><trkpt lat="45.091465" lon="8.0934433"><ele>252.0</ele><time>2026-05-01T09:54:02.151Z</time></trkpt><trkpt lat="45.0915433" lon="8.09323"><ele>253.66666666666669</ele><time>2026-05-01T09:54:03.152Z</time></trkpt><trkpt lat="45.0916217" lon="8.0930167"><ele>255.33333333333334</ele><time>2026-05-01T09:54:04.152Z</time></trkpt><trkpt lat="45.0917" lon="8.0928067"><ele>257.0</ele><time>2026-05-01T09:54:05.153Z</time></trkpt><trkpt lat="45.09178" lon="8.092605"><ele>257.0</ele><time>2026-05-01T09:54:06.154Z</time></trkpt><trkpt lat="45.0918567" lon="8.092405"><ele>257.0</ele><time>2026-05-01T09:54:07.157Z</time></trkpt><trkpt lat="45.0919283" lon="8.0922133"><ele>257.0</ele><time>2026-05-01T09:54:08.152Z</time></trkpt><trkpt lat="45.0919967" lon="8.0920217"><ele>257.0</ele><time>2026-05-01T09:54:09.157Z</time></trkpt><trkpt lat="45.0920683" lon="8.0918333"><ele>257.0</ele><time>2026-05-01T09:54:10.155Z</time></trkpt><trkpt lat="45.0921383" lon="8.091645"><ele>257.0</ele><time>2026-05-01T09:54:11.158Z</time></trkpt><trkpt lat="45.0922083" lon="8.09146"><ele>257.0</ele><time>2026-05-01T09:54:12.156Z</time></trkpt><trkpt lat="45.0922783" lon="8.0912733"><ele>257.33333333333337</ele><time>2026-05-01T09:54:13.156Z</time></trkpt><trkpt lat="45.0923467" lon="8.0910833"><ele>257.6666666666667</ele><time>2026-05-01T09:54:14.158Z</time></trkpt><trkpt lat="45.0924183" lon="8.090895"><ele>258.0</ele><time>2026-05-01T09:54:15.157Z</time></trkpt><trkpt lat="45.0924917" lon="8.0907067"><ele>258.0</ele><time>2026-05-01T09:54:16.154Z</time></trkpt><trkpt lat="45.09256" lon="8.0905117"><ele>258.0</ele><time>2026-05-01T09:54:17.152Z</time></trkpt><trkpt lat="45.0926317" lon="8.090315"><ele>258.0</ele><time>2026-05-01T09:54:18.153Z</time></trkpt><trkpt lat="45.0927017" lon="8.0901133"><ele>257.6666666666667</ele><time>2026-05-01T09:54:19.152Z</time></trkpt><trkpt lat="45.0927717" lon="8.08991"><ele>257.33333333333337</ele><time>2026-05-01T09:54:20.154Z</time></trkpt><trkpt lat="45.0928467" lon="8.0897067"><ele>257.0</ele><time>2026-05-01T09:54:21.156Z</time></trkpt><trkpt lat="45.092925" lon="8.0895083"><ele>257.0</ele><time>2026-05-01T09:54:22.156Z</time></trkpt><trkpt lat="45.093" lon="8.0893067"><ele>257.0</ele><time>2026-05-01T09:54:23.153Z</time></trkpt><trkpt lat="45.0930733" lon="8.089115"><ele>257.0</ele><time>2026-05-01T09:54:24.152Z</time></trkpt><trkpt lat="45.0931517" lon="8.0889367"><ele>256.75</ele><time>2026-05-01T09:54:25.157Z</time></trkpt><trkpt lat="45.0932317" lon="8.0887633"><ele>256.5</ele><time>2026-05-01T09:54:26.155Z</time></trkpt><trkpt lat="45.0933133" lon="8.0885967"><ele>256.25</ele><time>2026-05-01T09:54:27.151Z</time></trkpt><trkpt lat="45.093405" lon="8.088435"><ele>256.0</ele><time>2026-05-01T09:54:28.152Z</time></trkpt><trkpt lat="45.0935117" lon="8.0882867"><ele>254.75</ele><time>2026-05-01T09:54:29.154Z</time></trkpt><trkpt lat="45.0936267" lon="8.0881533"><ele>253.5</ele><time>2026-05-01T09:54:30.152Z</time></trkpt><trkpt lat="45.09374" lon="8.0880267"><ele>252.25</ele><time>2026-05-01T09:54:31.155Z</time></trkpt><trkpt lat="45.0938517" lon="8.0879033"><ele>251.0</ele><time>2026-05-01T09:54:32.153Z</time></trkpt><trkpt lat="45.09397" lon="8.087775"><ele>251.0</ele><time>2026-05-01T09:54:33.15Z</time></trkpt><trkpt lat="45.09409" lon="8.087645"><ele>251.0</ele><time>2026-05-01T09:54:34.155Z</time></trkpt><trkpt lat="45.0942117" lon="8.0875167"><ele>251.0</ele><time>2026-05-01T09:54:35.157Z</time></trkpt><trkpt lat="45.094335" lon="8.0873867"><ele>251.0</ele><time>2026-05-01T09:54:36.152Z</time></trkpt><trkpt lat="45.09446" lon="8.087255"><ele>251.0</ele><time>2026-05-01T09:54:37.156Z</time></trkpt><trkpt lat="45.0945833" lon="8.0871267"><ele>251.0</ele><time>2026-05-01T09:54:38.15Z</time></trkpt><trkpt lat="45.094705" lon="8.087"><ele>251.0</ele><time>2026-05-01T09:54:39.15Z</time></trkpt><trkpt lat="45.094825" lon="8.0868733"><ele>251.0</ele><time>2026-05-01T09:54:40.155Z</time></trkpt><trkpt lat="45.094945" lon="8.0867467"><ele>251.0</ele><time>2026-05-01T09:54:41.154Z</time></trkpt><trkpt lat="45.095065" lon="8.086625"><ele>251.0</ele><time>2026-05-01T09:54:42.157Z</time></trkpt><trkpt lat="45.09518" lon="8.0865033"><ele>251.25</ele><time>2026-05-01T09:54:43.162Z</time></trkpt><trkpt lat="45.0952917" lon="8.0863833"><ele>251.5</ele><time>2026-05-01T09:54:44.155Z</time></trkpt><trkpt lat="45.0954033" lon="8.086265"><ele>251.75</ele><time>2026-05-01T09:54:45.155Z</time></trkpt><trkpt lat="45.09551" lon="8.08615"><ele>252.0</ele><time>2026-05-01T09:54:46.159Z</time></trkpt><trkpt lat="45.0956083" lon="8.0860383"><ele>252.0</ele><time>2026-05-01T09:54:47.156Z</time></trkpt><trkpt lat="45.0956917" lon="8.0859517"><ele>252.0</ele><time>2026-05-01T09:54:48.156Z</time></trkpt><trkpt lat="45.09576" lon="8.0858783"><ele>252.0</ele><time>2026-05-01T09:54:49.158Z</time></trkpt><trkpt lat="45.0958217" lon="8.0858083"><ele>252.0</ele><time>2026-05-01T09:54:50.154Z</time></trkpt><trkpt lat="45.09588" lon="8.085745"><ele>252.0</ele><time>2026-05-01T09:54:51.154Z</time></trkpt><trkpt lat="45.0959367" lon="8.0856883"><ele>252.0</ele><time>2026-05-01T09:54:52.156Z</time></trkpt><trkpt lat="45.0959917" lon="8.0856417"><ele>252.0</ele><time>2026-05-01T09:54:53.152Z</time></trkpt><trkpt lat="45.096115" lon="8.0856117"><ele>252.0</ele><time>2026-05-01T09:54:55.152Z</time></trkpt><trkpt lat="45.096185" lon="8.0856433"><ele>252.0</ele><time>2026-05-01T09:54:56.153Z</time></trkpt><trkpt lat="45.0962583" lon="8.0857017"><ele>252.0</ele><time>2026-05-01T09:54:57.155Z</time></trkpt><trkpt lat="45.09634" lon="8.0857683"><ele>252.0</ele><time>2026-05-01T09:54:58.157Z</time></trkpt><trkpt lat="45.0964417" lon="8.085835"><ele>252.75</ele><time>2026-05-01T09:54:59.15Z</time></trkpt><trkpt lat="45.096545" lon="8.0859183"><ele>253.5</ele><time>2026-05-01T09:55:00.15Z</time></trkpt><trkpt lat="45.0966417" lon="8.0860017"><ele>254.25</ele><time>2026-05-01T09:55:01.154Z</time></trkpt><trkpt lat="45.09674" lon="8.086095"><ele>255.0</ele><time>2026-05-01T09:55:02.153Z</time></trkpt><trkpt lat="45.0968383" lon="8.0861867"><ele>255.0</ele><time>2026-05-01T09:55:03.152Z</time></trkpt><trkpt lat="45.09694" lon="8.0862783"><ele>255.0</ele><time>2026-05-01T09:55:04.153Z</time></trkpt><trkpt lat="45.097045" lon="8.0863717"><ele>255.0</ele><time>2026-05-01T09:55:05.156Z</time></trkpt><trkpt lat="45.0971517" lon="8.0864667"><ele>255.0</ele><time>2026-05-01T09:55:06.156Z</time></trkpt><trkpt lat="45.09726" lon="8.0865633"><ele>256.5</ele><time>2026-05-01T09:55:07.155Z</time></trkpt><trkpt lat="45.0973683" lon="8.0866583"><ele>258.0</ele><time>2026-05-01T09:55:08.158Z</time></trkpt><trkpt lat="45.0974767" lon="8.0867533"><ele>259.5</ele><time>2026-05-01T09:55:09.158Z</time></trkpt><trkpt lat="45.0975817" lon="8.0868467"><ele>261.0</ele><time>2026-05-01T09:55:10.152Z</time></trkpt><trkpt lat="45.097685" lon="8.086935"><ele>261.0</ele><time>2026-05-01T09:55:11.152Z</time></trkpt><trkpt lat="45.0977833" lon="8.0870233"><ele>261.0</ele><time>2026-05-01T09:55:12.156Z</time></trkpt><trkpt lat="45.0978783" lon="8.0871067"><ele>261.0</ele><time>2026-05-01T09:55:13.154Z</time></trkpt><trkpt lat="45.0979683" lon="8.08719"><ele>261.0</ele><time>2026-05-01T09:55:14.161Z</time></trkpt><trkpt lat="45.09804" lon="8.0872583"><ele>261.0</ele><time>2026-05-01T09:55:15.152Z</time></trkpt><trkpt lat="45.0981433" lon="8.087355"><ele>261.0</ele><time>2026-05-01T09:55:17.158Z</time></trkpt><trkpt lat="45.098205" lon="8.0873933"><ele>261.0</ele><time>2026-05-01T09:55:18.156Z</time></trkpt><trkpt lat="45.0982817" lon="8.0874067"><ele>261.0</ele><time>2026-05-01T09:55:19.157Z</time></trkpt><trkpt lat="45.09836" lon="8.0874117"><ele>261.0</ele><time>2026-05-01T09:55:20.155Z</time></trkpt><trkpt lat="45.0984467" lon="8.0874183"><ele>261.0</ele><time>2026-05-01T09:55:21.155Z</time></trkpt><trkpt lat="45.0985333" lon="8.0874367"><ele>261.0</ele><time>2026-05-01T09:55:22.153Z</time></trkpt><trkpt lat="45.09863" lon="8.0874633"><ele>262.0</ele><time>2026-05-01T09:55:23.156Z</time></trkpt><trkpt lat="45.098725" lon="8.08751"><ele>263.0</ele><time>2026-05-01T09:55:24.16Z</time></trkpt><trkpt lat="45.0988267" lon="8.0875583"><ele>264.0</ele><time>2026-05-01T09:55:25.16Z</time></trkpt><trkpt lat="45.098925" lon="8.0875967"><ele>265.0</ele><time>2026-05-01T09:55:26.153Z</time></trkpt><trkpt lat="45.0990233" lon="8.0876367"><ele>266.0</ele><time>2026-05-01T09:55:27.156Z</time></trkpt><trkpt lat="45.09913" lon="8.0876883"><ele>266.0</ele><time>2026-05-01T09:55:28.153Z</time></trkpt><trkpt lat="45.0992433" lon="8.0877433"><ele>266.0</ele><time>2026-05-01T09:55:29.156Z</time></trkpt><trkpt lat="45.0993617" lon="8.0877983"><ele>266.0</ele><time>2026-05-01T09:55:30.152Z</time></trkpt><trkpt lat="45.0994817" lon="8.08785"><ele>266.0</ele><time>2026-05-01T09:55:31.152Z</time></trkpt><trkpt lat="45.0996017" lon="8.0879083"><ele>266.0</ele><time>2026-05-01T09:55:32.155Z</time></trkpt><trkpt lat="45.0997267" lon="8.0879717"><ele>266.0</ele><time>2026-05-01T09:55:33.152Z</time></trkpt><trkpt lat="45.09985" lon="8.088035"><ele>266.0</ele><time>2026-05-01T09:55:34.151Z</time></trkpt><trkpt lat="45.0999767" lon="8.088085"><ele>266.0</ele><time>2026-05-01T09:55:35.158Z</time></trkpt><trkpt lat="45.100105" lon="8.0881183"><ele>266.75</ele><time>2026-05-01T09:55:36.152Z</time></trkpt><trkpt lat="45.1002383" lon="8.0881317"><ele>267.5</ele><time>2026-05-01T09:55:37.153Z</time></trkpt><trkpt lat="45.1003733" lon="8.088115"><ele>268.25</ele><time>2026-05-01T09:55:38.153Z</time></trkpt><trkpt lat="45.10051" lon="8.0880767"><ele>269.0</ele><time>2026-05-01T09:55:39.153Z</time></trkpt><trkpt lat="45.1006467" lon="8.0880317"><ele>269.75</ele><time>2026-05-01T09:55:40.155Z</time></trkpt><trkpt lat="45.1007817" lon="8.0879917"><ele>270.5</ele><time>2026-05-01T09:55:41.154Z</time></trkpt><trkpt lat="45.1009117" lon="8.087965"><ele>271.25</ele><time>2026-05-01T09:55:42.158Z</time></trkpt><trkpt lat="45.10104" lon="8.0879617"><ele>272.0</ele><time>2026-05-01T09:55:43.156Z</time></trkpt><trkpt lat="45.101165" lon="8.08799"><ele>272.0</ele><time>2026-05-01T09:55:44.152Z</time></trkpt><trkpt lat="45.1012833" lon="8.0880167"><ele>272.0</ele><time>2026-05-01T09:55:45.15Z</time></trkpt><trkpt lat="45.1014" lon="8.088075"><ele>272.0</ele><time>2026-05-01T09:55:46.155Z</time></trkpt><trkpt lat="45.1015233" lon="8.08812"><ele>272.0</ele><time>2026-05-01T09:55:47.155Z</time></trkpt><trkpt lat="45.101645" lon="8.0881217"><ele>270.5</ele><time>2026-05-01T09:55:48.157Z</time></trkpt><trkpt lat="45.10177" lon="8.088095"><ele>269.0</ele><time>2026-05-01T09:55:49.155Z</time></trkpt><trkpt lat="45.1018917" lon="8.08804"><ele>267.5</ele><time>2026-05-01T09:55:50.152Z</time></trkpt><trkpt lat="45.102015" lon="8.08798"><ele>266.0</ele><time>2026-05-01T09:55:51.152Z</time></trkpt><trkpt lat="45.1021417" lon="8.0879333"><ele>266.0</ele><time>2026-05-01T09:55:52.159Z</time></trkpt><trkpt lat="45.10227" lon="8.0878983"><ele>266.0</ele><time>2026-05-01T09:55:53.157Z</time></trkpt><trkpt lat="45.1024" lon="8.0878683"><ele>266.0</ele><time>2026-05-01T09:55:54.153Z</time></trkpt><trkpt lat="45.1025333" lon="8.087865"><ele>266.0</ele><time>2026-05-01T09:55:55.159Z</time></trkpt><trkpt lat="45.10267" lon="8.08785"><ele>267.0</ele><time>2026-05-01T09:55:56.156Z</time></trkpt><trkpt lat="45.1028117" lon="8.0878367"><ele>268.0</ele><time>2026-05-01T09:55:57.155Z</time></trkpt><trkpt lat="45.1029583" lon="8.0878233"><ele>269.0</ele><time>2026-05-01T09:55:58.16Z</time></trkpt><trkpt lat="45.1031067" lon="8.0878133"><ele>270.0</ele><time>2026-05-01T09:55:59.154Z</time></trkpt><trkpt lat="45.1032633" lon="8.0878067"><ele>270.0</ele><time>2026-05-01T09:56:00.157Z</time></trkpt><trkpt lat="45.1034233" lon="8.0877933"><ele>270.0</ele><time>2026-05-01T09:56:01.148Z</time></trkpt><trkpt lat="45.1035833" lon="8.087805"><ele>270.0</ele><time>2026-05-01T09:56:02.162Z</time></trkpt><trkpt lat="45.1037483" lon="8.0878067"><ele>270.0</ele><time>2026-05-01T09:56:03.154Z</time></trkpt><trkpt lat="45.1039233" lon="8.087815"><ele>270.0</ele><time>2026-05-01T09:56:04.151Z</time></trkpt><trkpt lat="45.10409" lon="8.087825"><ele>270.0</ele><time>2026-05-01T09:56:05.158Z</time></trkpt><trkpt lat="45.1042583" lon="8.0878433"><ele>272.0</ele><time>2026-05-01T09:56:06.155Z</time></trkpt><trkpt lat="45.104415" lon="8.08787"><ele>274.0</ele><time>2026-05-01T09:56:07.154Z</time></trkpt><trkpt lat="45.104565" lon="8.0878817"><ele>276.0</ele><time>2026-05-01T09:56:08.158Z</time></trkpt><trkpt lat="45.1047183" lon="8.0879033"><ele>276.0</ele><time>2026-05-01T09:56:09.154Z</time></trkpt><trkpt lat="45.1048567" lon="8.087925"><ele>276.0</ele><time>2026-05-01T09:56:10.157Z</time></trkpt><trkpt lat="45.10498" lon="8.08797"><ele>276.0</ele><time>2026-05-01T09:56:11.156Z</time></trkpt><trkpt lat="45.1050883" lon="8.088035"><ele>276.0</ele><time>2026-05-01T09:56:12.153Z</time></trkpt><trkpt lat="45.105195" lon="8.0881283"><ele>275.25</ele><time>2026-05-01T09:56:13.155Z</time></trkpt><trkpt lat="45.1053017" lon="8.0882283"><ele>274.5</ele><time>2026-05-01T09:56:14.157Z</time></trkpt><trkpt lat="45.1054117" lon="8.0883333"><ele>273.75</ele><time>2026-05-01T09:56:15.153Z</time></trkpt><trkpt lat="45.10552" lon="8.0884483"><ele>273.0</ele><time>2026-05-01T09:56:16.158Z</time></trkpt><trkpt lat="45.10563" lon="8.08856"><ele>273.75</ele><time>2026-05-01T09:56:17.152Z</time></trkpt><trkpt lat="45.105735" lon="8.08868"><ele>274.5</ele><time>2026-05-01T09:56:18.155Z</time></trkpt><trkpt lat="45.1058333" lon="8.088815"><ele>275.25</ele><time>2026-05-01T09:56:19.152Z</time></trkpt><trkpt lat="45.1059233" lon="8.088965"><ele>276.0</ele><time>2026-05-01T09:56:20.161Z</time></trkpt><trkpt lat="45.1060133" lon="8.0891233"><ele>279.25</ele><time>2026-05-01T09:56:21.155Z</time></trkpt><trkpt lat="45.1061" lon="8.08927"><ele>282.5</ele><time>2026-05-01T09:56:22.151Z</time></trkpt><trkpt lat="45.1061867" lon="8.0894117"><ele>285.75</ele><time>2026-05-01T09:56:23.154Z</time></trkpt><trkpt lat="45.106275" lon="8.0895533"><ele>289.0</ele><time>2026-05-01T09:56:24.153Z</time></trkpt><trkpt lat="45.10634" lon="8.089705"><ele>289.0</ele><time>2026-05-01T09:56:25.154Z</time></trkpt><trkpt lat="45.1063833" lon="8.08987"><ele>289.0</ele><time>2026-05-01T09:56:26.155Z</time></trkpt><trkpt lat="45.1064083" lon="8.0900467"><ele>289.0</ele><time>2026-05-01T09:56:27.153Z</time></trkpt><trkpt lat="45.1064267" lon="8.0902267"><ele>289.0</ele><time>2026-05-01T09:56:28.151Z</time></trkpt><trkpt lat="45.10644" lon="8.09041"><ele>289.5</ele><time>2026-05-01T09:56:29.157Z</time></trkpt><trkpt lat="45.1064633" lon="8.0905883"><ele>290.0</ele><time>2026-05-01T09:56:30.155Z</time></trkpt><trkpt lat="45.1064967" lon="8.0907667"><ele>290.5</ele><time>2026-05-01T09:56:31.153Z</time></trkpt><trkpt lat="45.10655" lon="8.0909383"><ele>291.0</ele><time>2026-05-01T09:56:32.15Z</time></trkpt><trkpt lat="45.1066117" lon="8.0911067"><ele>291.0</ele><time>2026-05-01T09:56:33.154Z</time></trkpt><trkpt lat="45.106685" lon="8.0912667"><ele>291.0</ele><time>2026-05-01T09:56:34.153Z</time></trkpt><trkpt lat="45.10675" lon="8.091425"><ele>291.0</ele><time>2026-05-01T09:56:35.152Z</time></trkpt><trkpt lat="45.106815" lon="8.0915867"><ele>291.0</ele><time>2026-05-01T09:56:36.16Z</time></trkpt><trkpt lat="45.1068783" lon="8.0917533"><ele>292.5</ele><time>2026-05-01T09:56:37.154Z</time></trkpt><trkpt lat="45.1069433" lon="8.09192"><ele>294.0</ele><time>2026-05-01T09:56:38.154Z</time></trkpt><trkpt lat="45.1070017" lon="8.0920817"><ele>295.5</ele><time>2026-05-01T09:56:39.154Z</time></trkpt><trkpt lat="45.107045" lon="8.0922367"><ele>297.0</ele><time>2026-05-01T09:56:40.154Z</time></trkpt><trkpt lat="45.1070733" lon="8.092405"><ele>298.5</ele><time>2026-05-01T09:56:41.157Z</time></trkpt><trkpt lat="45.1070817" lon="8.0925767"><ele>300.0</ele><time>2026-05-01T09:56:42.155Z</time></trkpt><trkpt lat="45.1070683" lon="8.0927517"><ele>301.5</ele><time>2026-05-01T09:56:43.157Z</time></trkpt><trkpt lat="45.1070433" lon="8.0929267"><ele>303.0</ele><time>2026-05-01T09:56:44.159Z</time></trkpt><trkpt lat="45.1070083" lon="8.0931017"><ele>304.0</ele><time>2026-05-01T09:56:45.158Z</time></trkpt><trkpt lat="45.106975" lon="8.0932717"><ele>305.0</ele><time>2026-05-01T09:56:46.157Z</time></trkpt><trkpt lat="45.10695" lon="8.0934383"><ele>306.0</ele><time>2026-05-01T09:56:47.16Z</time></trkpt><trkpt lat="45.106945" lon="8.0936117"><ele>307.0</ele><time>2026-05-01T09:56:48.157Z</time></trkpt><trkpt lat="45.1069483" lon="8.0937817"><ele>307.0</ele><time>2026-05-01T09:56:49.158Z</time></trkpt><trkpt lat="45.1069617" lon="8.09395"><ele>307.0</ele><time>2026-05-01T09:56:50.158Z</time></trkpt><trkpt lat="45.1069817" lon="8.0941167"><ele>307.0</ele><time>2026-05-01T09:56:51.152Z</time></trkpt><trkpt lat="45.1070033" lon="8.0942833"><ele>307.0</ele><time>2026-05-01T09:56:52.157Z</time></trkpt><trkpt lat="45.10704" lon="8.0944467"><ele>308.25</ele><time>2026-05-01T09:56:53.153Z</time></trkpt><trkpt lat="45.1070917" lon="8.0945983"><ele>309.5</ele><time>2026-05-01T09:56:54.16Z</time></trkpt><trkpt lat="45.10716" lon="8.0947267"><ele>310.75</ele><time>2026-05-01T09:56:55.161Z</time></trkpt><trkpt lat="45.1072483" lon="8.0948333"><ele>312.0</ele><time>2026-05-01T09:56:56.155Z</time></trkpt><trkpt lat="45.1073567" lon="8.09492"><ele>311.75</ele><time>2026-05-01T09:56:57.154Z</time></trkpt><trkpt lat="45.1074733" lon="8.0949917"><ele>311.5</ele><time>2026-05-01T09:56:58.156Z</time></trkpt><trkpt lat="45.1076017" lon="8.095055"><ele>311.25</ele><time>2026-05-01T09:56:59.159Z</time></trkpt><trkpt lat="45.1077317" lon="8.0951117"><ele>311.0</ele><time>2026-05-01T09:57:00.157Z</time></trkpt><trkpt lat="45.1078683" lon="8.095165"><ele>311.0</ele><time>2026-05-01T09:57:01.161Z</time></trkpt><trkpt lat="45.1080033" lon="8.09522"><ele>311.0</ele><time>2026-05-01T09:57:02.156Z</time></trkpt><trkpt lat="45.1081367" lon="8.0952717"><ele>311.0</ele><time>2026-05-01T09:57:03.157Z</time></trkpt><trkpt lat="45.1082683" lon="8.0953233"><ele>311.0</ele><time>2026-05-01T09:57:04.158Z</time></trkpt><trkpt lat="45.1084" lon="8.0953617"><ele>311.25</ele><time>2026-05-01T09:57:05.159Z</time></trkpt><trkpt lat="45.1085317" lon="8.0953833"><ele>311.5</ele><time>2026-05-01T09:57:06.159Z</time></trkpt><trkpt lat="45.10866" lon="8.095385"><ele>311.75</ele><time>2026-05-01T09:57:07.158Z</time></trkpt><trkpt lat="45.108785" lon="8.0953733"><ele>312.0</ele><time>2026-05-01T09:57:08.16Z</time></trkpt><trkpt lat="45.1089017" lon="8.09537"><ele>312.0</ele><time>2026-05-01T09:57:09.155Z</time></trkpt><trkpt lat="45.10901" lon="8.0953833"><ele>312.0</ele><time>2026-05-01T09:57:10.156Z</time></trkpt><trkpt lat="45.10911" lon="8.095425"><ele>312.0</ele><time>2026-05-01T09:57:11.155Z</time></trkpt><trkpt lat="45.10921" lon="8.0954783"><ele>312.0</ele><time>2026-05-01T09:57:12.156Z</time></trkpt><trkpt lat="45.109315" lon="8.095535"><ele>312.0</ele><time>2026-05-01T09:57:13.163Z</time></trkpt><trkpt lat="45.10942" lon="8.0955833"><ele>314.0</ele><time>2026-05-01T09:57:14.153Z</time></trkpt><trkpt lat="45.1095317" lon="8.0955917"><ele>316.0</ele><time>2026-05-01T09:57:15.153Z</time></trkpt><trkpt lat="45.1096433" lon="8.095585"><ele>318.0</ele><time>2026-05-01T09:57:16.154Z</time></trkpt><trkpt lat="45.1097567" lon="8.09557"><ele>320.0</ele><time>2026-05-01T09:57:17.154Z</time></trkpt><trkpt lat="45.10987" lon="8.095575"><ele>320.4</ele><time>2026-05-01T09:57:18.157Z</time></trkpt><trkpt lat="45.1099817" lon="8.0955883"><ele>320.8</ele><time>2026-05-01T09:57:19.157Z</time></trkpt><trkpt lat="45.1100883" lon="8.095595"><ele>321.20000000000005</ele><time>2026-05-01T09:57:20.152Z</time></trkpt><trkpt lat="45.1101883" lon="8.0955917"><ele>321.6</ele><time>2026-05-01T09:57:21.162Z</time></trkpt><trkpt lat="45.1102817" lon="8.0955617"><ele>322.0</ele><time>2026-05-01T09:57:22.152Z</time></trkpt><trkpt lat="45.1103617" lon="8.0955233"><ele>322.0</ele><time>2026-05-01T09:57:23.161Z</time></trkpt><trkpt lat="45.1104283" lon="8.0954867"><ele>322.0</ele><time>2026-05-01T09:57:24.153Z</time></trkpt><trkpt lat="45.11054" lon="8.0954683"><ele>322.0</ele><time>2026-05-01T09:57:26.157Z</time></trkpt><trkpt lat="45.110615" lon="8.0955517"><ele>322.0</ele><time>2026-05-01T09:57:28.158Z</time></trkpt><trkpt lat="45.11062" lon="8.0956467"><ele>322.0</ele><time>2026-05-01T09:57:29.155Z</time></trkpt><trkpt lat="45.1105717" lon="8.0957767"><ele>323.8333333333333</ele><time>2026-05-01T09:57:30.154Z</time></trkpt><trkpt lat="45.1105333" lon="8.095895"><ele>325.66666666666663</ele><time>2026-05-01T09:57:31.158Z</time></trkpt><trkpt lat="45.1105017" lon="8.0960133"><ele>327.5</ele><time>2026-05-01T09:57:32.156Z</time></trkpt><trkpt lat="45.1104917" lon="8.0961317"><ele>329.3333333333333</ele><time>2026-05-01T09:57:33.156Z</time></trkpt><trkpt lat="45.11049" lon="8.096245"><ele>331.1666666666667</ele><time>2026-05-01T09:57:34.154Z</time></trkpt><trkpt lat="45.1105067" lon="8.0963467"><ele>333.0</ele><time>2026-05-01T09:57:35.151Z</time></trkpt><trkpt lat="45.1105467" lon="8.09642"><ele>333.0</ele><time>2026-05-01T09:57:36.154Z</time></trkpt><trkpt lat="45.1106267" lon="8.09643"><ele>333.0</ele><time>2026-05-01T09:57:37.152Z</time></trkpt><trkpt lat="45.1107017" lon="8.0964283"><ele>333.0</ele><time>2026-05-01T09:57:38.155Z</time></trkpt><trkpt lat="45.1107817" lon="8.096425"><ele>333.0</ele><time>2026-05-01T09:57:39.152Z</time></trkpt><trkpt lat="45.1108633" lon="8.09644"><ele>333.0</ele><time>2026-05-01T09:57:40.156Z</time></trkpt><trkpt lat="45.1109467" lon="8.0964767"><ele>333.0</ele><time>2026-05-01T09:57:41.157Z</time></trkpt><trkpt lat="45.111025" lon="8.096535"><ele>334.79999999999995</ele><time>2026-05-01T09:57:42.155Z</time></trkpt><trkpt lat="45.1111" lon="8.0966267"><ele>336.6</ele><time>2026-05-01T09:57:43.16Z</time></trkpt><trkpt lat="45.1111767" lon="8.096745"><ele>338.4</ele><time>2026-05-01T09:57:44.158Z</time></trkpt><trkpt lat="45.1112583" lon="8.096865"><ele>340.20000000000005</ele><time>2026-05-01T09:57:45.154Z</time></trkpt><trkpt lat="45.11134" lon="8.096985"><ele>342.0</ele><time>2026-05-01T09:57:46.155Z</time></trkpt><trkpt lat="45.1114117" lon="8.09711"><ele>342.0</ele><time>2026-05-01T09:57:47.156Z</time></trkpt><trkpt lat="45.1114617" lon="8.097255"><ele>342.0</ele><time>2026-05-01T09:57:48.154Z</time></trkpt><trkpt lat="45.1114933" lon="8.09742"><ele>342.0</ele><time>2026-05-01T09:57:49.154Z</time></trkpt><trkpt lat="45.1115167" lon="8.0975983"><ele>342.0</ele><time>2026-05-01T09:57:50.151Z</time></trkpt><trkpt lat="45.111535" lon="8.09779"><ele>339.0</ele><time>2026-05-01T09:57:51.153Z</time></trkpt><trkpt lat="45.1115533" lon="8.097995"><ele>336.0</ele><time>2026-05-01T09:57:52.161Z</time></trkpt><trkpt lat="45.1115733" lon="8.0982067"><ele>333.0</ele><time>2026-05-01T09:57:53.153Z</time></trkpt><trkpt lat="45.1115967" lon="8.0984233"><ele>333.0</ele><time>2026-05-01T09:57:54.152Z</time></trkpt><trkpt lat="45.111615" lon="8.0986483"><ele>333.0</ele><time>2026-05-01T09:57:55.154Z</time></trkpt><trkpt lat="45.1116367" lon="8.0988767"><ele>333.0</ele><time>2026-05-01T09:57:56.153Z</time></trkpt><trkpt lat="45.1116567" lon="8.0991083"><ele>333.6666666666667</ele><time>2026-05-01T09:57:57.16Z</time></trkpt><trkpt lat="45.1116767" lon="8.099345"><ele>334.33333333333337</ele><time>2026-05-01T09:57:58.154Z</time></trkpt><trkpt lat="45.1116933" lon="8.0995783"><ele>335.0</ele><time>2026-05-01T09:57:59.154Z</time></trkpt><trkpt lat="45.11171" lon="8.0998033"><ele>334.25</ele><time>2026-05-01T09:58:00.151Z</time></trkpt><trkpt lat="45.1117267" lon="8.1000133"><ele>333.5</ele><time>2026-05-01T09:58:01.153Z</time></trkpt><trkpt lat="45.1117517" lon="8.1001933"><ele>332.75</ele><time>2026-05-01T09:58:02.154Z</time></trkpt><trkpt lat="45.1117917" lon="8.1003367"><ele>332.0</ele><time>2026-05-01T09:58:03.158Z</time></trkpt><trkpt lat="45.11186" lon="8.10046"><ele>332.0</ele><time>2026-05-01T09:58:04.154Z</time></trkpt><trkpt lat="45.1119567" lon="8.1005517"><ele>332.0</ele><time>2026-05-01T09:58:05.152Z</time></trkpt><trkpt lat="45.1120717" lon="8.1006217"><ele>332.0</ele><time>2026-05-01T09:58:06.151Z</time></trkpt><trkpt lat="45.1122" lon="8.1006817"><ele>332.0</ele><time>2026-05-01T09:58:07.161Z</time></trkpt><trkpt lat="45.1123317" lon="8.10074"><ele>334.5</ele><time>2026-05-01T09:58:08.157Z</time></trkpt><trkpt lat="45.1124617" lon="8.1007983"><ele>337.0</ele><time>2026-05-01T09:58:09.153Z</time></trkpt><trkpt lat="45.1125867" lon="8.100865"><ele>339.5</ele><time>2026-05-01T09:58:10.157Z</time></trkpt><trkpt lat="45.112695" lon="8.1009483"><ele>342.0</ele><time>2026-05-01T09:58:11.157Z</time></trkpt><trkpt lat="45.1127917" lon="8.10106"><ele>342.0</ele><time>2026-05-01T09:58:12.156Z</time></trkpt><trkpt lat="45.1128633" lon="8.10121"><ele>342.0</ele><time>2026-05-01T09:58:13.158Z</time></trkpt><trkpt lat="45.1129233" lon="8.1013767"><ele>342.0</ele><time>2026-05-01T09:58:14.158Z</time></trkpt><trkpt lat="45.112975" lon="8.1015483"><ele>342.0</ele><time>2026-05-01T09:58:15.156Z</time></trkpt><trkpt lat="45.1130183" lon="8.1017233"><ele>341.8</ele><time>2026-05-01T09:58:16.154Z</time></trkpt><trkpt lat="45.1130433" lon="8.101895"><ele>341.6</ele><time>2026-05-01T09:58:17.153Z</time></trkpt><trkpt lat="45.1130433" lon="8.1020533"><ele>341.40000000000003</ele><time>2026-05-01T09:58:18.154Z</time></trkpt><trkpt lat="45.113025" lon="8.1021983"><ele>341.20000000000005</ele><time>2026-05-01T09:58:19.158Z</time></trkpt><trkpt lat="45.1129817" lon="8.1023333"><ele>341.0</ele><time>2026-05-01T09:58:20.157Z</time></trkpt><trkpt lat="45.1129167" lon="8.1024567"><ele>341.0</ele><time>2026-05-01T09:58:21.155Z</time></trkpt><trkpt lat="45.11283" lon="8.1025533"><ele>341.0</ele><time>2026-05-01T09:58:22.158Z</time></trkpt><trkpt lat="45.11275" lon="8.1026567"><ele>341.0</ele><time>2026-05-01T09:58:23.158Z</time></trkpt><trkpt lat="45.1126817" lon="8.1027717"><ele>341.0</ele><time>2026-05-01T09:58:24.158Z</time></trkpt><trkpt lat="45.1126233" lon="8.102895"><ele>341.0</ele><time>2026-05-01T09:58:25.154Z</time></trkpt><trkpt lat="45.112585" lon="8.103025"><ele>341.0</ele><time>2026-05-01T09:58:26.156Z</time></trkpt><trkpt lat="45.1125583" lon="8.1031617"><ele>341.0</ele><time>2026-05-01T09:58:27.155Z</time></trkpt><trkpt lat="45.1125533" lon="8.1033"><ele>341.0</ele><time>2026-05-01T09:58:28.153Z</time></trkpt><trkpt lat="45.1125867" lon="8.1034267"><ele>341.0</ele><time>2026-05-01T09:58:29.156Z</time></trkpt><trkpt lat="45.1126383" lon="8.103545"><ele>341.0</ele><time>2026-05-01T09:58:30.155Z</time></trkpt><trkpt lat="45.112695" lon="8.1036567"><ele>342.4</ele><time>2026-05-01T09:58:31.162Z</time></trkpt><trkpt lat="45.11276" lon="8.1037683"><ele>343.8</ele><time>2026-05-01T09:58:32.157Z</time></trkpt><trkpt lat="45.1128233" lon="8.1038767"><ele>345.2</ele><time>2026-05-01T09:58:33.164Z</time></trkpt><trkpt lat="45.1128917" lon="8.10399"><ele>346.59999999999997</ele><time>2026-05-01T09:58:34.154Z</time></trkpt><trkpt lat="45.1129733" lon="8.104095"><ele>348.0</ele><time>2026-05-01T09:58:35.155Z</time></trkpt><trkpt lat="45.113055" lon="8.1042067"><ele>348.0</ele><time>2026-05-01T09:58:36.157Z</time></trkpt><trkpt lat="45.1131183" lon="8.10433"><ele>348.0</ele><time>2026-05-01T09:58:37.163Z</time></trkpt><trkpt lat="45.113195" lon="8.1044417"><ele>348.0</ele><time>2026-05-01T09:58:38.155Z</time></trkpt><trkpt lat="45.1132667" lon="8.104555"><ele>348.0</ele><time>2026-05-01T09:58:39.161Z</time></trkpt><trkpt lat="45.113355" lon="8.1046533"><ele>348.0</ele><time>2026-05-01T09:58:40.152Z</time></trkpt><trkpt lat="45.1134283" lon="8.1047533"><ele>348.4</ele><time>2026-05-01T09:58:41.154Z</time></trkpt><trkpt lat="45.1134917" lon="8.1048633"><ele>348.79999999999995</ele><time>2026-05-01T09:58:42.161Z</time></trkpt><trkpt lat="45.1135367" lon="8.1049883"><ele>349.2</ele><time>2026-05-01T09:58:43.165Z</time></trkpt><trkpt lat="45.1135633" lon="8.1051283"><ele>349.6</ele><time>2026-05-01T09:58:44.157Z</time></trkpt><trkpt lat="45.1135817" lon="8.1052733"><ele>350.0</ele><time>2026-05-01T09:58:45.156Z</time></trkpt><trkpt lat="45.1135917" lon="8.1054317"><ele>350.0</ele><time>2026-05-01T09:58:46.158Z</time></trkpt><trkpt lat="45.1135833" lon="8.1056"><ele>350.0</ele><time>2026-05-01T09:58:47.156Z</time></trkpt><trkpt lat="45.11355" lon="8.105775"><ele>350.0</ele><time>2026-05-01T09:58:48.157Z</time></trkpt><trkpt lat="45.1135167" lon="8.1059533"><ele>350.0</ele><time>2026-05-01T09:58:49.157Z</time></trkpt><trkpt lat="45.1134833" lon="8.106125"><ele>350.0</ele><time>2026-05-01T09:58:50.156Z</time></trkpt><trkpt lat="45.1134517" lon="8.1062883"><ele>350.0</ele><time>2026-05-01T09:58:51.157Z</time></trkpt><trkpt lat="45.1134383" lon="8.106455"><ele>350.0</ele><time>2026-05-01T09:58:52.162Z</time></trkpt><trkpt lat="45.113435" lon="8.1066217"><ele>350.0</ele><time>2026-05-01T09:58:53.155Z</time></trkpt><trkpt lat="45.1134467" lon="8.1067883"><ele>350.0</ele><time>2026-05-01T09:58:54.158Z</time></trkpt><trkpt lat="45.1134733" lon="8.106955"><ele>350.0</ele><time>2026-05-01T09:58:55.16Z</time></trkpt><trkpt lat="45.1135167" lon="8.10712"><ele>350.0</ele><time>2026-05-01T09:58:56.153Z</time></trkpt><trkpt lat="45.1135733" lon="8.1072767"><ele>350.0</ele><time>2026-05-01T09:58:57.155Z</time></trkpt><trkpt lat="45.113635" lon="8.1074317"><ele>349.75</ele><time>2026-05-01T09:58:58.155Z</time></trkpt><trkpt lat="45.1137067" lon="8.1075817"><ele>349.5</ele><time>2026-05-01T09:58:59.157Z</time></trkpt><trkpt lat="45.1137883" lon="8.1077267"><ele>349.25</ele><time>2026-05-01T09:59:00.155Z</time></trkpt><trkpt lat="45.1138867" lon="8.107855"><ele>349.0</ele><time>2026-05-01T09:59:01.154Z</time></trkpt><trkpt lat="45.1139967" lon="8.1079767"><ele>349.0</ele><time>2026-05-01T09:59:02.156Z</time></trkpt><trkpt lat="45.1141167" lon="8.1080933"><ele>349.0</ele><time>2026-05-01T09:59:03.156Z</time></trkpt><trkpt lat="45.1142417" lon="8.1082033"><ele>349.0</ele><time>2026-05-01T09:59:04.157Z</time></trkpt><trkpt lat="45.1143683" lon="8.1083083"><ele>349.0</ele><time>2026-05-01T09:59:05.154Z</time></trkpt><trkpt lat="45.1144817" lon="8.1084117"><ele>349.0</ele><time>2026-05-01T09:59:06.156Z</time></trkpt><trkpt lat="45.1145767" lon="8.1085133"><ele>349.0</ele><time>2026-05-01T09:59:07.153Z</time></trkpt><trkpt lat="45.1146483" lon="8.108625"><ele>349.0</ele><time>2026-05-01T09:59:08.157Z</time></trkpt><trkpt lat="45.1146967" lon="8.10876"><ele>349.0</ele><time>2026-05-01T09:59:09.151Z</time></trkpt><trkpt lat="45.1147383" lon="8.1089133"><ele>349.0</ele><time>2026-05-01T09:59:10.155Z</time></trkpt><trkpt lat="45.1147717" lon="8.1090767"><ele>346.5</ele><time>2026-05-01T09:59:11.152Z</time></trkpt><trkpt lat="45.1148017" lon="8.1092467"><ele>344.0</ele><time>2026-05-01T09:59:12.157Z</time></trkpt><trkpt lat="45.114815" lon="8.1094217"><ele>341.5</ele><time>2026-05-01T09:59:13.157Z</time></trkpt><trkpt lat="45.114815" lon="8.1096017"><ele>339.0</ele><time>2026-05-01T09:59:14.159Z</time></trkpt><trkpt lat="45.1147933" lon="8.1097833"><ele>339.5</ele><time>2026-05-01T09:59:15.154Z</time></trkpt><trkpt lat="45.1147583" lon="8.10996"><ele>340.0</ele><time>2026-05-01T09:59:16.155Z</time></trkpt><trkpt lat="45.1147083" lon="8.1101283"><ele>340.5</ele><time>2026-05-01T09:59:17.153Z</time></trkpt><trkpt lat="45.114655" lon="8.1102883"><ele>341.0</ele><time>2026-05-01T09:59:18.155Z</time></trkpt><trkpt lat="45.1146183" lon="8.1104383"><ele>341.0</ele><time>2026-05-01T09:59:19.157Z</time></trkpt><trkpt lat="45.1145983" lon="8.1105767"><ele>341.0</ele><time>2026-05-01T09:59:20.155Z</time></trkpt><trkpt lat="45.1146033" lon="8.1107083"><ele>341.0</ele><time>2026-05-01T09:59:21.153Z</time></trkpt><trkpt lat="45.1146283" lon="8.1108417"><ele>341.0</ele><time>2026-05-01T09:59:22.156Z</time></trkpt><trkpt lat="45.1146633" lon="8.1109717"><ele>341.0</ele><time>2026-05-01T09:59:23.155Z</time></trkpt><trkpt lat="45.1146983" lon="8.1110983"><ele>341.0</ele><time>2026-05-01T09:59:24.156Z</time></trkpt><trkpt lat="45.1147467" lon="8.1112083"><ele>341.0</ele><time>2026-05-01T09:59:25.158Z</time></trkpt><trkpt lat="45.1148033" lon="8.1113"><ele>341.0</ele><time>2026-05-01T09:59:26.154Z</time></trkpt><trkpt lat="45.1148783" lon="8.11137"><ele>341.0</ele><time>2026-05-01T09:59:27.155Z</time></trkpt><trkpt lat="45.1149717" lon="8.1114117"><ele>341.0</ele><time>2026-05-01T09:59:28.153Z</time></trkpt><trkpt lat="45.1150783" lon="8.1114133"><ele>342.25</ele><time>2026-05-01T09:59:29.156Z</time></trkpt><trkpt lat="45.1151917" lon="8.1113867"><ele>343.5</ele><time>2026-05-01T09:59:30.156Z</time></trkpt><trkpt lat="45.11531" lon="8.11134"><ele>344.75</ele><time>2026-05-01T09:59:31.156Z</time></trkpt><trkpt lat="45.11543" lon="8.111295"><ele>346.0</ele><time>2026-05-01T09:59:32.153Z</time></trkpt><trkpt lat="45.11555" lon="8.1112467"><ele>346.0</ele><time>2026-05-01T09:59:33.153Z</time></trkpt><trkpt lat="45.1156683" lon="8.1111767"><ele>346.0</ele><time>2026-05-01T09:59:34.151Z</time></trkpt><trkpt lat="45.1157833" lon="8.111095"><ele>346.0</ele><time>2026-05-01T09:59:35.153Z</time></trkpt><trkpt lat="45.1158983" lon="8.1109867"><ele>346.0</ele><time>2026-05-01T09:59:36.151Z</time></trkpt><trkpt lat="45.1160133" lon="8.1108667"><ele>344.25</ele><time>2026-05-01T09:59:37.155Z</time></trkpt><trkpt lat="45.1161317" lon="8.1107433"><ele>342.5</ele><time>2026-05-01T09:59:38.156Z</time></trkpt><trkpt lat="45.1162467" lon="8.1106233"><ele>340.75</ele><time>2026-05-01T09:59:39.154Z</time></trkpt><trkpt lat="45.11636" lon="8.1105083"><ele>339.0</ele><time>2026-05-01T09:59:40.15Z</time></trkpt><trkpt lat="45.1164733" lon="8.110405"><ele>336.5</ele><time>2026-05-01T09:59:41.151Z</time></trkpt><trkpt lat="45.116585" lon="8.1103117"><ele>334.0</ele><time>2026-05-01T09:59:42.158Z</time></trkpt><trkpt lat="45.1166917" lon="8.1102317"><ele>331.5</ele><time>2026-05-01T09:59:43.156Z</time></trkpt><trkpt lat="45.116795" lon="8.110175"><ele>329.0</ele><time>2026-05-01T09:59:44.158Z</time></trkpt><trkpt lat="45.1168983" lon="8.11014"><ele>329.0</ele><time>2026-05-01T09:59:45.152Z</time></trkpt><trkpt lat="45.116995" lon="8.1101183"><ele>329.0</ele><time>2026-05-01T09:59:46.153Z</time></trkpt><trkpt lat="45.117085" lon="8.1101283"><ele>329.0</ele><time>2026-05-01T09:59:47.153Z</time></trkpt><trkpt lat="45.1171717" lon="8.1101733"><ele>329.0</ele><time>2026-05-01T09:59:48.156Z</time></trkpt><trkpt lat="45.1172583" lon="8.1102317"><ele>329.0</ele><time>2026-05-01T09:59:49.151Z</time></trkpt><trkpt lat="45.1173183" lon="8.11036"><ele>329.0</ele><time>2026-05-01T09:59:50.156Z</time></trkpt><trkpt lat="45.1173767" lon="8.11048"><ele>329.0</ele><time>2026-05-01T09:59:51.155Z</time></trkpt><trkpt lat="45.1174267" lon="8.1105833"><ele>329.0</ele><time>2026-05-01T09:59:52.157Z</time></trkpt><trkpt lat="45.1174867" lon="8.1106767"><ele>329.0</ele><time>2026-05-01T09:59:53.155Z</time></trkpt><trkpt lat="45.1175583" lon="8.1107467"><ele>329.0</ele><time>2026-05-01T09:59:54.153Z</time></trkpt><trkpt lat="45.1176617" lon="8.1107467"><ele>328.75</ele><time>2026-05-01T09:59:55.157Z</time></trkpt><trkpt lat="45.1177767" lon="8.110745"><ele>328.5</ele><time>2026-05-01T09:59:56.153Z</time></trkpt><trkpt lat="45.1178983" lon="8.1107433"><ele>328.25</ele><time>2026-05-01T09:59:57.157Z</time></trkpt><trkpt lat="45.118025" lon="8.110745"><ele>328.0</ele><time>2026-05-01T09:59:58.159Z</time></trkpt><trkpt lat="45.118155" lon="8.1107483"><ele>325.59999999999997</ele><time>2026-05-01T09:59:59.153Z</time></trkpt><trkpt lat="45.1182767" lon="8.110755"><ele>323.2</ele><time>2026-05-01T10:00:00.154Z</time></trkpt><trkpt lat="45.1183817" lon="8.11078"><ele>320.8</ele><time>2026-05-01T10:00:01.156Z</time></trkpt><trkpt lat="45.1184733" lon="8.11083"><ele>318.4</ele><time>2026-05-01T10:00:02.156Z</time></trkpt><trkpt lat="45.1185583" lon="8.1109167"><ele>316.0</ele><time>2026-05-01T10:00:03.152Z</time></trkpt><trkpt lat="45.118625" lon="8.1110367"><ele>316.0</ele><time>2026-05-01T10:00:04.154Z</time></trkpt><trkpt lat="45.1186933" lon="8.1111683"><ele>316.0</ele><time>2026-05-01T10:00:05.156Z</time></trkpt><trkpt lat="45.1187833" lon="8.1112917"><ele>316.0</ele><time>2026-05-01T10:00:06.154Z</time></trkpt><trkpt lat="45.1188983" lon="8.1113867"><ele>316.0</ele><time>2026-05-01T10:00:07.155Z</time></trkpt><trkpt lat="45.1190167" lon="8.1114783"><ele>316.0</ele><time>2026-05-01T10:00:08.158Z</time></trkpt><trkpt lat="45.119125" lon="8.1115817"><ele>316.0</ele><time>2026-05-01T10:00:09.153Z</time></trkpt><trkpt lat="45.1192217" lon="8.1117133"><ele>316.0</ele><time>2026-05-01T10:00:10.154Z</time></trkpt><trkpt lat="45.1193033" lon="8.11186"><ele>316.0</ele><time>2026-05-01T10:00:11.151Z</time></trkpt><trkpt lat="45.119375" lon="8.11202"><ele>316.0</ele><time>2026-05-01T10:00:12.155Z</time></trkpt><trkpt lat="45.1194433" lon="8.1121767"><ele>316.0</ele><time>2026-05-01T10:00:13.155Z</time></trkpt><trkpt lat="45.1194983" lon="8.1123383"><ele>316.0</ele><time>2026-05-01T10:00:14.158Z</time></trkpt><trkpt lat="45.1195433" lon="8.112505"><ele>316.0</ele><time>2026-05-01T10:00:15.162Z</time></trkpt><trkpt lat="45.11957" lon="8.112675"><ele>315.25</ele><time>2026-05-01T10:00:16.157Z</time></trkpt><trkpt lat="45.119585" lon="8.1128467"><ele>314.5</ele><time>2026-05-01T10:00:17.158Z</time></trkpt><trkpt lat="45.1196033" lon="8.1130167"><ele>313.75</ele><time>2026-05-01T10:00:18.154Z</time></trkpt><trkpt lat="45.1196283" lon="8.1131917"><ele>313.0</ele><time>2026-05-01T10:00:19.156Z</time></trkpt><trkpt lat="45.11966" lon="8.11337"><ele>311.5</ele><time>2026-05-01T10:00:20.159Z</time></trkpt><trkpt lat="45.119695" lon="8.1135517"><ele>310.0</ele><time>2026-05-01T10:00:21.154Z</time></trkpt><trkpt lat="45.11973" lon="8.1137317"><ele>308.5</ele><time>2026-05-01T10:00:22.154Z</time></trkpt><trkpt lat="45.1197583" lon="8.1139267"><ele>307.0</ele><time>2026-05-01T10:00:23.152Z</time></trkpt><trkpt lat="45.1197833" lon="8.11412"><ele>304.5</ele><time>2026-05-01T10:00:24.155Z</time></trkpt><trkpt lat="45.11981" lon="8.1143083"><ele>302.0</ele><time>2026-05-01T10:00:25.15Z</time></trkpt><trkpt lat="45.1198333" lon="8.1144933"><ele>299.5</ele><time>2026-05-01T10:00:26.157Z</time></trkpt><trkpt lat="45.1198483" lon="8.11468"><ele>297.0</ele><time>2026-05-01T10:00:27.154Z</time></trkpt><trkpt lat="45.119865" lon="8.1148583"><ele>297.0</ele><time>2026-05-01T10:00:28.157Z</time></trkpt><trkpt lat="45.1198833" lon="8.1150317"><ele>297.0</ele><time>2026-05-01T10:00:29.153Z</time></trkpt><trkpt lat="45.1199133" lon="8.1151833"><ele>297.0</ele><time>2026-05-01T10:00:30.152Z</time></trkpt><trkpt lat="45.11995" lon="8.115335"><ele>297.0</ele><time>2026-05-01T10:00:31.157Z</time></trkpt><trkpt lat="45.1199833" lon="8.1154833"><ele>302.0</ele><time>2026-05-01T10:00:32.153Z</time></trkpt><trkpt lat="45.1200067" lon="8.115615"><ele>307.0</ele><time>2026-05-01T10:00:33.153Z</time></trkpt><trkpt lat="45.120005" lon="8.115735"><ele>312.0</ele><time>2026-05-01T10:00:34.158Z</time></trkpt><trkpt lat="45.1199983" lon="8.1158417"><ele>317.0</ele><time>2026-05-01T10:00:35.154Z</time></trkpt><trkpt lat="45.1199833" lon="8.1159367"><ele>322.0</ele><time>2026-05-01T10:00:36.155Z</time></trkpt><trkpt lat="45.1199667" lon="8.116025"><ele>327.0</ele><time>2026-05-01T10:00:37.153Z</time></trkpt><trkpt lat="45.1199833" lon="8.1161933"><ele>327.0</ele><time>2026-05-01T10:00:39.152Z</time></trkpt><trkpt lat="45.1200617" lon="8.116335"><ele>327.0</ele><time>2026-05-01T10:00:41.154Z</time></trkpt><trkpt lat="45.12011" lon="8.1164083"><ele>327.0</ele><time>2026-05-01T10:00:42.155Z</time></trkpt><trkpt lat="45.12018" lon="8.1164833"><ele>327.0</ele><time>2026-05-01T10:00:43.156Z</time></trkpt><trkpt lat="45.1202583" lon="8.1165733"><ele>327.0</ele><time>2026-05-01T10:00:44.157Z</time></trkpt><trkpt lat="45.1203417" lon="8.11668"><ele>324.25</ele><time>2026-05-01T10:00:45.155Z</time></trkpt><trkpt lat="45.120425" lon="8.1168"><ele>321.5</ele><time>2026-05-01T10:00:46.153Z</time></trkpt><trkpt lat="45.120495" lon="8.1169367"><ele>318.75</ele><time>2026-05-01T10:00:47.157Z</time></trkpt><trkpt lat="45.1205617" lon="8.1170833"><ele>316.0</ele><time>2026-05-01T10:00:48.153Z</time></trkpt><trkpt lat="45.1206183" lon="8.117235"><ele>316.0</ele><time>2026-05-01T10:00:49.154Z</time></trkpt><trkpt lat="45.120665" lon="8.1173917"><ele>316.0</ele><time>2026-05-01T10:00:50.154Z</time></trkpt><trkpt lat="45.120705" lon="8.1175533"><ele>316.0</ele><time>2026-05-01T10:00:51.154Z</time></trkpt><trkpt lat="45.1207367" lon="8.1177183"><ele>316.0</ele><time>2026-05-01T10:00:52.155Z</time></trkpt><trkpt lat="45.1207617" lon="8.1178817"><ele>315.75</ele><time>2026-05-01T10:00:53.155Z</time></trkpt><trkpt lat="45.1207767" lon="8.1180517"><ele>315.5</ele><time>2026-05-01T10:00:54.152Z</time></trkpt><trkpt lat="45.1207917" lon="8.1182183"><ele>315.25</ele><time>2026-05-01T10:00:55.154Z</time></trkpt><trkpt lat="45.1208" lon="8.1183883"><ele>315.0</ele><time>2026-05-01T10:00:56.153Z</time></trkpt><trkpt lat="45.1208117" lon="8.118555"><ele>313.25</ele><time>2026-05-01T10:00:57.155Z</time></trkpt><trkpt lat="45.1208217" lon="8.118725"><ele>311.5</ele><time>2026-05-01T10:00:58.158Z</time></trkpt><trkpt lat="45.1208333" lon="8.118895"><ele>309.75</ele><time>2026-05-01T10:00:59.155Z</time></trkpt><trkpt lat="45.1208433" lon="8.1190633"><ele>308.0</ele><time>2026-05-01T10:01:00.155Z</time></trkpt><trkpt lat="45.1208567" lon="8.1192283"><ele>307.0</ele><time>2026-05-01T10:01:01.158Z</time></trkpt><trkpt lat="45.1208767" lon="8.1193867"><ele>306.0</ele><time>2026-05-01T10:01:02.153Z</time></trkpt><trkpt lat="45.1208967" lon="8.1195433"><ele>305.0</ele><time>2026-05-01T10:01:03.157Z</time></trkpt><trkpt lat="45.1209133" lon="8.11969"><ele>304.0</ele><time>2026-05-01T10:01:04.151Z</time></trkpt><trkpt lat="45.12093" lon="8.1198417"><ele>303.0</ele><time>2026-05-01T10:01:05.162Z</time></trkpt><trkpt lat="45.1209483" lon="8.1199917"><ele>302.8</ele><time>2026-05-01T10:01:06.152Z</time></trkpt><trkpt lat="45.1209633" lon="8.1201483"><ele>302.6</ele><time>2026-05-01T10:01:07.151Z</time></trkpt><trkpt lat="45.1209767" lon="8.1203133"><ele>302.4</ele><time>2026-05-01T10:01:08.158Z</time></trkpt><trkpt lat="45.1209817" lon="8.120475"><ele>302.2</ele><time>2026-05-01T10:01:09.153Z</time></trkpt><trkpt lat="45.1209783" lon="8.1206167"><ele>302.0</ele><time>2026-05-01T10:01:10.155Z</time></trkpt><trkpt lat="45.12098" lon="8.1207333"><ele>301.33333333333337</ele><time>2026-05-01T10:01:11.155Z</time></trkpt><trkpt lat="45.120975" lon="8.1208367"><ele>300.6666666666667</ele><time>2026-05-01T10:01:12.155Z</time></trkpt><trkpt lat="45.1210133" lon="8.1210117"><ele>300.0</ele><time>2026-05-01T10:01:14.152Z</time></trkpt><trkpt lat="45.1210483" lon="8.1211"><ele>299.3333333333333</ele><time>2026-05-01T10:01:15.155Z</time></trkpt><trkpt lat="45.1210883" lon="8.1211817"><ele>298.66666666666663</ele><time>2026-05-01T10:01:16.154Z</time></trkpt><trkpt lat="45.1211217" lon="8.1212783"><ele>298.0</ele><time>2026-05-01T10:01:17.158Z</time></trkpt><trkpt lat="45.12115" lon="8.12138"><ele>298.0</ele><time>2026-05-01T10:01:18.158Z</time></trkpt><trkpt lat="45.1211783" lon="8.1214933"><ele>298.0</ele><time>2026-05-01T10:01:19.152Z</time></trkpt><trkpt lat="45.121195" lon="8.1216183"><ele>298.0</ele><time>2026-05-01T10:01:20.156Z</time></trkpt><trkpt lat="45.1212067" lon="8.1217533"><ele>298.0</ele><time>2026-05-01T10:01:21.157Z</time></trkpt><trkpt lat="45.1212233" lon="8.121895"><ele>298.0</ele><time>2026-05-01T10:01:22.158Z</time></trkpt><trkpt lat="45.1212333" lon="8.122045"><ele>300.2</ele><time>2026-05-01T10:01:23.153Z</time></trkpt><trkpt lat="45.1212517" lon="8.1222017"><ele>302.4</ele><time>2026-05-01T10:01:24.157Z</time></trkpt><trkpt lat="45.1212667" lon="8.1223583"><ele>304.59999999999997</ele><time>2026-05-01T10:01:25.153Z</time></trkpt><trkpt lat="45.1212867" lon="8.1225117"><ele>306.8</ele><time>2026-05-01T10:01:26.151Z</time></trkpt><trkpt lat="45.1213217" lon="8.1226533"><ele>309.0</ele><time>2026-05-01T10:01:27.154Z</time></trkpt><trkpt lat="45.1213617" lon="8.1227883"><ele>310.0</ele><time>2026-05-01T10:01:28.157Z</time></trkpt><trkpt lat="45.121415" lon="8.12292"><ele>311.0</ele><time>2026-05-01T10:01:29.153Z</time></trkpt><trkpt lat="45.1214683" lon="8.1230483"><ele>312.0</ele><time>2026-05-01T10:01:30.155Z</time></trkpt><trkpt lat="45.1215267" lon="8.1231717"><ele>313.0</ele><time>2026-05-01T10:01:31.156Z</time></trkpt><trkpt lat="45.1215917" lon="8.123285"><ele>314.0</ele><time>2026-05-01T10:01:32.153Z</time></trkpt><trkpt lat="45.12165" lon="8.1234"><ele>310.33333333333337</ele><time>2026-05-01T10:01:33.153Z</time></trkpt><trkpt lat="45.1217017" lon="8.12352"><ele>306.6666666666667</ele><time>2026-05-01T10:01:34.156Z</time></trkpt><trkpt lat="45.1217467" lon="8.1236333"><ele>303.0</ele><time>2026-05-01T10:01:35.154Z</time></trkpt><trkpt lat="45.1217783" lon="8.123735"><ele>299.3333333333333</ele><time>2026-05-01T10:01:36.152Z</time></trkpt><trkpt lat="45.1218067" lon="8.1238217"><ele>295.66666666666663</ele><time>2026-05-01T10:01:37.154Z</time></trkpt><trkpt lat="45.121865" lon="8.1239583"><ele>292.0</ele><time>2026-05-01T10:01:39.152Z</time></trkpt><trkpt lat="45.121985" lon="8.12401"><ele>292.0</ele><time>2026-05-01T10:01:41.157Z</time></trkpt><trkpt lat="45.1220683" lon="8.1239633"><ele>292.0</ele><time>2026-05-01T10:01:42.157Z</time></trkpt><trkpt lat="45.1221567" lon="8.12391"><ele>292.0</ele><time>2026-05-01T10:01:43.16Z</time></trkpt><trkpt lat="45.122245" lon="8.1238383"><ele>292.0</ele><time>2026-05-01T10:01:44.151Z</time></trkpt><trkpt lat="45.1223267" lon="8.123775"><ele>292.0</ele><time>2026-05-01T10:01:45.155Z</time></trkpt><trkpt lat="45.122405" lon="8.1237"><ele>288.6</ele><time>2026-05-01T10:01:46.155Z</time></trkpt><trkpt lat="45.1224867" lon="8.1236217"><ele>285.2</ele><time>2026-05-01T10:01:47.153Z</time></trkpt><trkpt lat="45.122565" lon="8.123535"><ele>281.8</ele><time>2026-05-01T10:01:48.16Z</time></trkpt><trkpt lat="45.1226367" lon="8.1234383"><ele>278.4</ele><time>2026-05-01T10:01:49.15Z</time></trkpt><trkpt lat="45.1227083" lon="8.12334"><ele>275.0</ele><time>2026-05-01T10:01:50.153Z</time></trkpt><trkpt lat="45.1227767" lon="8.12322"><ele>272.2</ele><time>2026-05-01T10:01:51.153Z</time></trkpt><trkpt lat="45.1228417" lon="8.1231183"><ele>269.4</ele><time>2026-05-01T10:01:52.151Z</time></trkpt><trkpt lat="45.122905" lon="8.123005"><ele>266.6</ele><time>2026-05-01T10:01:53.156Z</time></trkpt><trkpt lat="45.1229667" lon="8.1228933"><ele>263.8</ele><time>2026-05-01T10:01:54.156Z</time></trkpt><trkpt lat="45.1230283" lon="8.122785"><ele>261.0</ele><time>2026-05-01T10:01:55.157Z</time></trkpt><trkpt lat="45.123105" lon="8.1226983"><ele>261.0</ele><time>2026-05-01T10:01:56.157Z</time></trkpt><trkpt lat="45.12318" lon="8.1226183"><ele>261.0</ele><time>2026-05-01T10:01:57.151Z</time></trkpt><trkpt lat="45.1232517" lon="8.12253"><ele>261.0</ele><time>2026-05-01T10:01:58.156Z</time></trkpt><trkpt lat="45.1233183" lon="8.1224467"><ele>261.0</ele><time>2026-05-01T10:01:59.156Z</time></trkpt><trkpt lat="45.123385" lon="8.1223817"><ele>261.0</ele><time>2026-05-01T10:02:00.16Z</time></trkpt><trkpt lat="45.1234483" lon="8.12233"><ele>261.0</ele><time>2026-05-01T10:02:01.153Z</time></trkpt><trkpt lat="45.123515" lon="8.122295"><ele>259.6666666666667</ele><time>2026-05-01T10:02:02.157Z</time></trkpt><trkpt lat="45.1235833" lon="8.12228"><ele>258.3333333333333</ele><time>2026-05-01T10:02:03.15Z</time></trkpt><trkpt lat="45.12366" lon="8.1223067"><ele>257.0</ele><time>2026-05-01T10:02:04.15Z</time></trkpt><trkpt lat="45.1237317" lon="8.122385"><ele>255.66666666666666</ele><time>2026-05-01T10:02:05.155Z</time></trkpt><trkpt lat="45.1237817" lon="8.1225"><ele>254.33333333333331</ele><time>2026-05-01T10:02:06.157Z</time></trkpt><trkpt lat="45.1238217" lon="8.1226183"><ele>253.0</ele><time>2026-05-01T10:02:07.153Z</time></trkpt><trkpt lat="45.12385" lon="8.12272"><ele>253.0</ele><time>2026-05-01T10:02:08.15Z</time></trkpt><trkpt lat="45.1238583" lon="8.12283"><ele>253.0</ele><time>2026-05-01T10:02:09.154Z</time></trkpt><trkpt lat="45.1238533" lon="8.1229283"><ele>253.0</ele><time>2026-05-01T10:02:10.152Z</time></trkpt><trkpt lat="45.123825" lon="8.1231"><ele>253.0</ele><time>2026-05-01T10:02:12.153Z</time></trkpt><trkpt lat="45.1238917" lon="8.1230567"><ele>253.0</ele><time>2026-05-01T10:02:15.155Z</time></trkpt><trkpt lat="45.1239133" lon="8.122865"><ele>252.99999999999997</ele><time>2026-05-01T10:02:17.157Z</time></trkpt><trkpt lat="45.12391" lon="8.12275"><ele>253.0</ele><time>2026-05-01T10:02:18.155Z</time></trkpt><trkpt lat="45.1239133" lon="8.1226367"><ele>253.0</ele><time>2026-05-01T10:02:19.156Z</time></trkpt><trkpt lat="45.12392" lon="8.12252"><ele>253.0</ele><time>2026-05-01T10:02:20.155Z</time></trkpt><trkpt lat="45.1239267" lon="8.12241"><ele>252.99999999999997</ele><time>2026-05-01T10:02:21.157Z</time></trkpt><trkpt lat="45.12392" lon="8.1223067"><ele>253.0</ele><time>2026-05-01T10:02:22.159Z</time></trkpt><trkpt lat="45.1239" lon="8.1222117"><ele>251.42857142857144</ele><time>2026-05-01T10:02:23.157Z</time></trkpt><trkpt lat="45.12387" lon="8.1221283"><ele>249.85714285714286</ele><time>2026-05-01T10:02:24.157Z</time></trkpt><trkpt lat="45.1238367" lon="8.122045"><ele>248.28571428571428</ele><time>2026-05-01T10:02:25.158Z</time></trkpt><trkpt lat="45.123795" lon="8.1219617"><ele>246.71428571428572</ele><time>2026-05-01T10:02:26.163Z</time></trkpt><trkpt lat="45.1237583" lon="8.1218667"><ele>245.1428571428571</ele><time>2026-05-01T10:02:27.159Z</time></trkpt><trkpt lat="45.1237217" lon="8.12177"><ele>243.57142857142856</ele><time>2026-05-01T10:02:28.157Z</time></trkpt><trkpt lat="45.1236783" lon="8.1216733"><ele>242.0</ele><time>2026-05-01T10:02:29.156Z</time></trkpt><trkpt lat="45.12363" lon="8.1215767"><ele>240.39999999999998</ele><time>2026-05-01T10:02:30.157Z</time></trkpt><trkpt lat="45.12359" lon="8.1214833"><ele>238.79999999999998</ele><time>2026-05-01T10:02:31.161Z</time></trkpt><trkpt lat="45.1235467" lon="8.12141"><ele>237.2</ele><time>2026-05-01T10:02:32.156Z</time></trkpt><trkpt lat="45.1234917" lon="8.1213517"><ele>235.6</ele><time>2026-05-01T10:02:33.155Z</time></trkpt><trkpt lat="45.12338" lon="8.1213583"><ele>234.0</ele><time>2026-05-01T10:02:35.156Z</time></trkpt><trkpt lat="45.12326" lon="8.1214333"><ele>237.83333333333334</ele><time>2026-05-01T10:02:37.156Z</time></trkpt><trkpt lat="45.1231917" lon="8.12152"><ele>241.66666666666669</ele><time>2026-05-01T10:02:38.162Z</time></trkpt><trkpt lat="45.1231267" lon="8.12162"><ele>245.5</ele><time>2026-05-01T10:02:39.158Z</time></trkpt><trkpt lat="45.1230667" lon="8.1216933"><ele>249.33333333333334</ele><time>2026-05-01T10:02:40.154Z</time></trkpt><trkpt lat="45.1229833" lon="8.1217917"><ele>253.16666666666669</ele><time>2026-05-01T10:02:42.158Z</time></trkpt><trkpt lat="45.1229267" lon="8.1218383"><ele>257.0</ele><time>2026-05-01T10:02:44.152Z</time></trkpt><trkpt lat="45.1229217" lon="8.1217467"><ele>257.0</ele><time>2026-05-01T10:02:45.156Z</time></trkpt><trkpt lat="45.1229333" lon="8.121655"><ele>257.0</ele><time>2026-05-01T10:02:46.156Z</time></trkpt><trkpt lat="45.1229533" lon="8.1215517"><ele>257.0</ele><time>2026-05-01T10:02:47.156Z</time></trkpt><trkpt lat="45.1229917" lon="8.12144"><ele>257.0</ele><time>2026-05-01T10:02:48.158Z</time></trkpt><trkpt lat="45.1230483" lon="8.121345"><ele>257.0</ele><time>2026-05-01T10:02:49.159Z</time></trkpt><trkpt lat="45.12312" lon="8.1212467"><ele>257.0</ele><time>2026-05-01T10:02:50.157Z</time></trkpt><trkpt lat="45.123205" lon="8.1211467"><ele>252.39999999999998</ele><time>2026-05-01T10:02:51.155Z</time></trkpt><trkpt lat="45.123275" lon="8.1210533"><ele>247.79999999999998</ele><time>2026-05-01T10:02:52.158Z</time></trkpt><trkpt lat="45.1233367" lon="8.1209583"><ele>243.2</ele><time>2026-05-01T10:02:53.159Z</time></trkpt><trkpt lat="45.1234133" lon="8.1208683"><ele>238.6</ele><time>2026-05-01T10:02:54.158Z</time></trkpt><trkpt lat="45.1234933" lon="8.12078"><ele>234.0</ele><time>2026-05-01T10:02:55.157Z</time></trkpt><trkpt lat="45.123585" lon="8.1207233"><ele>233.79999999999998</ele><time>2026-05-01T10:02:56.156Z</time></trkpt><trkpt lat="45.1236867" lon="8.1206667"><ele>233.59999999999997</ele><time>2026-05-01T10:02:57.155Z</time></trkpt><trkpt lat="45.12379" lon="8.1206167"><ele>233.4</ele><time>2026-05-01T10:02:58.16Z</time></trkpt><trkpt lat="45.1238867" lon="8.1205767"><ele>233.2</ele><time>2026-05-01T10:02:59.155Z</time></trkpt><trkpt lat="45.12397" lon="8.120535"><ele>233.0</ele><time>2026-05-01T10:03:00.157Z</time></trkpt><trkpt lat="45.1240433" lon="8.1205067"><ele>230.50000000000003</ele><time>2026-05-01T10:03:01.16Z</time></trkpt><trkpt lat="45.1241167" lon="8.1204933"><ele>228.0</ele><time>2026-05-01T10:03:02.158Z</time></trkpt><trkpt lat="45.1241867" lon="8.1205017"><ele>225.5</ele><time>2026-05-01T10:03:03.156Z</time></trkpt><trkpt lat="45.1242633" lon="8.1205267"><ele>223.0</ele><time>2026-05-01T10:03:04.156Z</time></trkpt><trkpt lat="45.1243483" lon="8.1205783"><ele>220.50000000000003</ele><time>2026-05-01T10:03:05.156Z</time></trkpt><trkpt lat="45.1244317" lon="8.1206233"><ele>218.0</ele><time>2026-05-01T10:03:06.155Z</time></trkpt><trkpt lat="45.1245167" lon="8.1206833"><ele>218.00000000000003</ele><time>2026-05-01T10:03:07.157Z</time></trkpt><trkpt lat="45.1245967" lon="8.1207417"><ele>218.0</ele><time>2026-05-01T10:03:08.154Z</time></trkpt><trkpt lat="45.124665" lon="8.120815"><ele>218.0</ele><time>2026-05-01T10:03:09.151Z</time></trkpt><trkpt lat="45.12473" lon="8.1209"><ele>218.0</ele><time>2026-05-01T10:03:10.157Z</time></trkpt><trkpt lat="45.1247917" lon="8.1209883"><ele>218.00000000000003</ele><time>2026-05-01T10:03:11.158Z</time></trkpt><trkpt lat="45.1248533" lon="8.1210833"><ele>218.0</ele><time>2026-05-01T10:03:12.156Z</time></trkpt><trkpt lat="45.124915" lon="8.1211783"><ele>218.0</ele><time>2026-05-01T10:03:13.155Z</time></trkpt><trkpt lat="45.1249783" lon="8.1212783"><ele>218.0</ele><time>2026-05-01T10:03:14.156Z</time></trkpt><trkpt lat="45.12504" lon="8.121385"><ele>218.0</ele><time>2026-05-01T10:03:15.157Z</time></trkpt><trkpt lat="45.1251" lon="8.1214983"><ele>218.0</ele><time>2026-05-01T10:03:16.154Z</time></trkpt><trkpt lat="45.1251567" lon="8.1216167"><ele>218.0</ele><time>2026-05-01T10:03:17.158Z</time></trkpt><trkpt lat="45.1252133" lon="8.1217283"><ele>217.4</ele><time>2026-05-01T10:03:18.155Z</time></trkpt><trkpt lat="45.1252683" lon="8.1218383"><ele>216.8</ele><time>2026-05-01T10:03:19.156Z</time></trkpt><trkpt lat="45.125325" lon="8.121945"><ele>216.2</ele><time>2026-05-01T10:03:20.157Z</time></trkpt><trkpt lat="45.1253817" lon="8.1220533"><ele>215.6</ele><time>2026-05-01T10:03:21.159Z</time></trkpt><trkpt lat="45.1254433" lon="8.12216"><ele>215.0</ele><time>2026-05-01T10:03:22.159Z</time></trkpt><trkpt lat="45.1255117" lon="8.1222583"><ele>215.0</ele><time>2026-05-01T10:03:23.159Z</time></trkpt><trkpt lat="45.1255883" lon="8.122335"><ele>215.0</ele><time>2026-05-01T10:03:24.156Z</time></trkpt><trkpt lat="45.1256767" lon="8.122385"><ele>215.0</ele><time>2026-05-01T10:03:25.16Z</time></trkpt><trkpt lat="45.1257733" lon="8.1224167"><ele>215.0</ele><time>2026-05-01T10:03:26.159Z</time></trkpt><trkpt lat="45.125875" lon="8.122445"><ele>215.0</ele><time>2026-05-01T10:03:27.158Z</time></trkpt><trkpt lat="45.12598" lon="8.1224733"><ele>214.2</ele><time>2026-05-01T10:03:28.154Z</time></trkpt><trkpt lat="45.12608" lon="8.1225067"><ele>213.4</ele><time>2026-05-01T10:03:29.159Z</time></trkpt><trkpt lat="45.12618" lon="8.122555"><ele>212.60000000000002</ele><time>2026-05-01T10:03:30.161Z</time></trkpt><trkpt lat="45.1262767" lon="8.1226183"><ele>211.8</ele><time>2026-05-01T10:03:31.154Z</time></trkpt><trkpt lat="45.1263733" lon="8.1226883"><ele>211.0</ele><time>2026-05-01T10:03:32.159Z</time></trkpt><trkpt lat="45.12647" lon="8.1227617"><ele>212.0</ele><time>2026-05-01T10:03:33.157Z</time></trkpt><trkpt lat="45.1265667" lon="8.1228367"><ele>213.0</ele><time>2026-05-01T10:03:34.154Z</time></trkpt><trkpt lat="45.1266633" lon="8.122915"><ele>214.00000000000003</ele><time>2026-05-01T10:03:35.159Z</time></trkpt><trkpt lat="45.1267533" lon="8.123"><ele>215.0</ele><time>2026-05-01T10:03:36.154Z</time></trkpt><trkpt lat="45.1268367" lon="8.1230967"><ele>216.0</ele><time>2026-05-01T10:03:37.157Z</time></trkpt><trkpt lat="45.1269183" lon="8.1232"><ele>215.20000000000002</ele><time>2026-05-01T10:03:38.155Z</time></trkpt><trkpt lat="45.1269917" lon="8.1233167"><ele>214.40000000000003</ele><time>2026-05-01T10:03:39.153Z</time></trkpt><trkpt lat="45.1270567" lon="8.1234433"><ele>213.6</ele><time>2026-05-01T10:03:40.152Z</time></trkpt><trkpt lat="45.12712" lon="8.1235717"><ele>212.8</ele><time>2026-05-01T10:03:41.153Z</time></trkpt><trkpt lat="45.127185" lon="8.123695"><ele>212.0</ele><time>2026-05-01T10:03:42.162Z</time></trkpt><trkpt lat="45.1272617" lon="8.123815"><ele>212.0</ele><time>2026-05-01T10:03:43.154Z</time></trkpt><trkpt lat="45.127345" lon="8.1239317"><ele>212.0</ele><time>2026-05-01T10:03:44.153Z</time></trkpt><trkpt lat="45.1274367" lon="8.1240367"><ele>212.0</ele><time>2026-05-01T10:03:45.154Z</time></trkpt><trkpt lat="45.1275283" lon="8.1241367"><ele>212.0</ele><time>2026-05-01T10:03:46.151Z</time></trkpt><trkpt lat="45.1276233" lon="8.124225"><ele>211.0</ele><time>2026-05-01T10:03:47.155Z</time></trkpt><trkpt lat="45.1277267" lon="8.1243017"><ele>210.0</ele><time>2026-05-01T10:03:48.156Z</time></trkpt><trkpt lat="45.12783" lon="8.1243683"><ele>209.0</ele><time>2026-05-01T10:03:49.154Z</time></trkpt><trkpt lat="45.1279367" lon="8.12443"><ele>208.0</ele><time>2026-05-01T10:03:50.157Z</time></trkpt><trkpt lat="45.1280417" lon="8.1244883"><ele>208.0</ele><time>2026-05-01T10:03:51.154Z</time></trkpt><trkpt lat="45.1281483" lon="8.124545"><ele>208.0</ele><time>2026-05-01T10:03:52.153Z</time></trkpt><trkpt lat="45.128255" lon="8.1245967"><ele>208.0</ele><time>2026-05-01T10:03:53.154Z</time></trkpt><trkpt lat="45.1283633" lon="8.1246383"><ele>208.0</ele><time>2026-05-01T10:03:54.154Z</time></trkpt><trkpt lat="45.128475" lon="8.1246783"><ele>207.75</ele><time>2026-05-01T10:03:55.155Z</time></trkpt><trkpt lat="45.1285867" lon="8.124725"><ele>207.5</ele><time>2026-05-01T10:03:56.158Z</time></trkpt><trkpt lat="45.1286983" lon="8.1247967"><ele>207.25</ele><time>2026-05-01T10:03:57.157Z</time></trkpt><trkpt lat="45.128805" lon="8.1248783"><ele>207.0</ele><time>2026-05-01T10:03:58.153Z</time></trkpt><trkpt lat="45.1289033" lon="8.1249717"><ele>206.8</ele><time>2026-05-01T10:03:59.154Z</time></trkpt><trkpt lat="45.1289867" lon="8.125075"><ele>206.6</ele><time>2026-05-01T10:04:00.156Z</time></trkpt><trkpt lat="45.1290633" lon="8.125185"><ele>206.4</ele><time>2026-05-01T10:04:01.153Z</time></trkpt><trkpt lat="45.1291467" lon="8.125275"><ele>206.20000000000002</ele><time>2026-05-01T10:04:02.151Z</time></trkpt><trkpt lat="45.1292467" lon="8.1253367"><ele>206.0</ele><time>2026-05-01T10:04:03.152Z</time></trkpt><trkpt lat="45.1293533" lon="8.1253733"><ele>205.25</ele><time>2026-05-01T10:04:04.159Z</time></trkpt><trkpt lat="45.1294633" lon="8.125405"><ele>204.5</ele><time>2026-05-01T10:04:05.153Z</time></trkpt><trkpt lat="45.12958" lon="8.1254333"><ele>203.75</ele><time>2026-05-01T10:04:06.153Z</time></trkpt><trkpt lat="45.129695" lon="8.12547"><ele>203.0</ele><time>2026-05-01T10:04:07.156Z</time></trkpt><trkpt lat="45.1298067" lon="8.1255383"><ele>203.5</ele><time>2026-05-01T10:04:08.16Z</time></trkpt><trkpt lat="45.1299133" lon="8.1256067"><ele>204.0</ele><time>2026-05-01T10:04:09.158Z</time></trkpt><trkpt lat="45.130015" lon="8.1256933"><ele>204.5</ele><time>2026-05-01T10:04:10.154Z</time></trkpt><trkpt lat="45.1301167" lon="8.1257867"><ele>205.0</ele><time>2026-05-01T10:04:11.155Z</time></trkpt><trkpt lat="45.130215" lon="8.1258867"><ele>205.0</ele><time>2026-05-01T10:04:12.153Z</time></trkpt><trkpt lat="45.1303183" lon="8.1259833"><ele>205.0</ele><time>2026-05-01T10:04:13.156Z</time></trkpt><trkpt lat="45.1304267" lon="8.1260767"><ele>205.0</ele><time>2026-05-01T10:04:14.151Z</time></trkpt><trkpt lat="45.1305383" lon="8.1261683"><ele>205.0</ele><time>2026-05-01T10:04:15.155Z</time></trkpt><trkpt lat="45.130655" lon="8.1262617"><ele>204.5</ele><time>2026-05-01T10:04:16.157Z</time></trkpt><trkpt lat="45.130775" lon="8.1263517"><ele>204.0</ele><time>2026-05-01T10:04:17.156Z</time></trkpt><trkpt lat="45.1309033" lon="8.1264333"><ele>203.5</ele><time>2026-05-01T10:04:18.153Z</time></trkpt><trkpt lat="45.1310317" lon="8.1265067"><ele>203.0</ele><time>2026-05-01T10:04:19.154Z</time></trkpt><trkpt lat="45.1311583" lon="8.1265783"><ele>203.0</ele><time>2026-05-01T10:04:20.157Z</time></trkpt><trkpt lat="45.1312767" lon="8.12666"><ele>203.0</ele><time>2026-05-01T10:04:21.151Z</time></trkpt><trkpt lat="45.13138" lon="8.12676"><ele>203.0</ele><time>2026-05-01T10:04:22.158Z</time></trkpt><trkpt lat="45.1314733" lon="8.1268583"><ele>203.0</ele><time>2026-05-01T10:04:23.157Z</time></trkpt><trkpt lat="45.1315467" lon="8.126955"><ele>203.4</ele><time>2026-05-01T10:04:24.151Z</time></trkpt><trkpt lat="45.131615" lon="8.1270367"><ele>203.8</ele><time>2026-05-01T10:04:25.155Z</time></trkpt><trkpt lat="45.1316933" lon="8.127105"><ele>204.2</ele><time>2026-05-01T10:04:26.16Z</time></trkpt><trkpt lat="45.1317817" lon="8.127135"><ele>204.6</ele><time>2026-05-01T10:04:27.152Z</time></trkpt><trkpt lat="45.131875" lon="8.1271483"><ele>205.0</ele><time>2026-05-01T10:04:28.155Z</time></trkpt><trkpt lat="45.1319783" lon="8.1271383"><ele>205.0</ele><time>2026-05-01T10:04:29.152Z</time></trkpt><trkpt lat="45.1320883" lon="8.1271017"><ele>205.0</ele><time>2026-05-01T10:04:30.153Z</time></trkpt><trkpt lat="45.1322" lon="8.1270583"><ele>205.0</ele><time>2026-05-01T10:04:31.152Z</time></trkpt><trkpt lat="45.1323183" lon="8.1270267"><ele>205.0</ele><time>2026-05-01T10:04:32.154Z</time></trkpt><trkpt lat="45.13243" lon="8.1270033"><ele>204.0</ele><time>2026-05-01T10:04:33.154Z</time></trkpt><trkpt lat="45.1325483" lon="8.1270117"><ele>203.0</ele><time>2026-05-01T10:04:34.153Z</time></trkpt><trkpt lat="45.1326633" lon="8.1270383"><ele>202.0</ele><time>2026-05-01T10:04:35.156Z</time></trkpt><trkpt lat="45.1327767" lon="8.127085"><ele>201.0</ele><time>2026-05-01T10:04:36.155Z</time></trkpt><trkpt lat="45.13288" lon="8.1271483"><ele>201.0</ele><time>2026-05-01T10:04:37.155Z</time></trkpt><trkpt lat="45.1329683" lon="8.1272117"><ele>201.0</ele><time>2026-05-01T10:04:38.156Z</time></trkpt><trkpt lat="45.1330533" lon="8.1272583"><ele>201.0</ele><time>2026-05-01T10:04:39.152Z</time></trkpt><trkpt lat="45.1331433" lon="8.12727"><ele>201.0</ele><time>2026-05-01T10:04:40.155Z</time></trkpt><trkpt lat="45.1332333" lon="8.1272867"><ele>201.0</ele><time>2026-05-01T10:04:41.16Z</time></trkpt><trkpt lat="45.1333283" lon="8.1272233"><ele>199.25</ele><time>2026-05-01T10:04:42.156Z</time></trkpt><trkpt lat="45.133425" lon="8.12714"><ele>197.5</ele><time>2026-05-01T10:04:43.149Z</time></trkpt><trkpt lat="45.13353" lon="8.1270583"><ele>195.75</ele><time>2026-05-01T10:04:44.15Z</time></trkpt><trkpt lat="45.1336333" lon="8.126985"><ele>194.0</ele><time>2026-05-01T10:04:45.153Z</time></trkpt><trkpt lat="45.133745" lon="8.1269183"><ele>194.0</ele><time>2026-05-01T10:04:46.15Z</time></trkpt><trkpt lat="45.1338567" lon="8.1268533"><ele>194.0</ele><time>2026-05-01T10:04:47.152Z</time></trkpt><trkpt lat="45.1339767" lon="8.1267867"><ele>194.0</ele><time>2026-05-01T10:04:48.157Z</time></trkpt><trkpt lat="45.1340917" lon="8.1267183"><ele>194.0</ele><time>2026-05-01T10:04:49.158Z</time></trkpt><trkpt lat="45.13421" lon="8.1266467"><ele>191.75</ele><time>2026-05-01T10:04:50.152Z</time></trkpt><trkpt lat="45.134325" lon="8.1265717"><ele>189.5</ele><time>2026-05-01T10:04:51.157Z</time></trkpt><trkpt lat="45.1344283" lon="8.1264933"><ele>187.25</ele><time>2026-05-01T10:04:52.155Z</time></trkpt><trkpt lat="45.1345217" lon="8.12641"><ele>185.0</ele><time>2026-05-01T10:04:53.156Z</time></trkpt><trkpt lat="45.1346017" lon="8.1263017"><ele>184.8</ele><time>2026-05-01T10:04:54.153Z</time></trkpt><trkpt lat="45.1346717" lon="8.1261833"><ele>184.6</ele><time>2026-05-01T10:04:55.158Z</time></trkpt><trkpt lat="45.1347383" lon="8.1260667"><ele>184.39999999999998</ele><time>2026-05-01T10:04:56.154Z</time></trkpt><trkpt lat="45.1348083" lon="8.1259667"><ele>184.2</ele><time>2026-05-01T10:04:57.154Z</time></trkpt><trkpt lat="45.13489" lon="8.1258983"><ele>184.0</ele><time>2026-05-01T10:04:58.155Z</time></trkpt><trkpt lat="45.1349783" lon="8.1258567"><ele>184.0</ele><time>2026-05-01T10:04:59.157Z</time></trkpt><trkpt lat="45.13507" lon="8.1258167"><ele>184.0</ele><time>2026-05-01T10:05:00.153Z</time></trkpt><trkpt lat="45.1351617" lon="8.1257583"><ele>184.0</ele><time>2026-05-01T10:05:01.153Z</time></trkpt><trkpt lat="45.1352567" lon="8.125695"><ele>184.0</ele><time>2026-05-01T10:05:02.153Z</time></trkpt><trkpt lat="45.1353617" lon="8.125635"><ele>184.0</ele><time>2026-05-01T10:05:03.155Z</time></trkpt><trkpt lat="45.1354683" lon="8.125575"><ele>182.75</ele><time>2026-05-01T10:05:04.149Z</time></trkpt><trkpt lat="45.1355783" lon="8.1255133"><ele>181.5</ele><time>2026-05-01T10:05:05.155Z</time></trkpt><trkpt lat="45.1356833" lon="8.1254417"><ele>180.25</ele><time>2026-05-01T10:05:06.163Z</time></trkpt><trkpt lat="45.1357783" lon="8.1253517"><ele>179.0</ele><time>2026-05-01T10:05:07.16Z</time></trkpt><trkpt lat="45.1358633" lon="8.125235"><ele>179.0</ele><time>2026-05-01T10:05:08.154Z</time></trkpt><trkpt lat="45.1359383" lon="8.1251"><ele>179.0</ele><time>2026-05-01T10:05:09.153Z</time></trkpt><trkpt lat="45.1360083" lon="8.12495"><ele>179.0</ele><time>2026-05-01T10:05:10.152Z</time></trkpt><trkpt lat="45.1360733" lon="8.1247983"><ele>179.0</ele><time>2026-05-01T10:05:11.157Z</time></trkpt><trkpt lat="45.1361167" lon="8.124655"><ele>179.0</ele><time>2026-05-01T10:05:12.155Z</time></trkpt><trkpt lat="45.1361367" lon="8.1245183"><ele>179.0</ele><time>2026-05-01T10:05:13.153Z</time></trkpt><trkpt lat="45.1361283" lon="8.1243783"><ele>179.0</ele><time>2026-05-01T10:05:14.153Z</time></trkpt><trkpt lat="45.136095" lon="8.1242367"><ele>179.0</ele><time>2026-05-01T10:05:15.156Z</time></trkpt><trkpt lat="45.1360483" lon="8.1240883"><ele>179.0</ele><time>2026-05-01T10:05:16.155Z</time></trkpt><trkpt lat="45.13599" lon="8.1239317"><ele>179.2</ele><time>2026-05-01T10:05:17.152Z</time></trkpt><trkpt lat="45.1359333" lon="8.1237767"><ele>179.39999999999998</ele><time>2026-05-01T10:05:18.157Z</time></trkpt><trkpt lat="45.1358883" lon="8.1236283"><ele>179.6</ele><time>2026-05-01T10:05:19.156Z</time></trkpt><trkpt lat="45.13587" lon="8.1234933"><ele>179.8</ele><time>2026-05-01T10:05:20.153Z</time></trkpt><trkpt lat="45.135885" lon="8.1233583"><ele>180.0</ele><time>2026-05-01T10:05:21.153Z</time></trkpt><trkpt lat="45.1359367" lon="8.1232333"><ele>181.0</ele><time>2026-05-01T10:05:22.154Z</time></trkpt><trkpt lat="45.1360083" lon="8.1231217"><ele>182.0</ele><time>2026-05-01T10:05:23.153Z</time></trkpt><trkpt lat="45.1360917" lon="8.1230133"><ele>183.0</ele><time>2026-05-01T10:05:24.154Z</time></trkpt><trkpt lat="45.1361817" lon="8.122905"><ele>184.0</ele><time>2026-05-01T10:05:25.153Z</time></trkpt><trkpt lat="45.13628" lon="8.122805"><ele>184.0</ele><time>2026-05-01T10:05:26.155Z</time></trkpt><trkpt lat="45.1363817" lon="8.1227283"><ele>184.0</ele><time>2026-05-01T10:05:27.152Z</time></trkpt><trkpt lat="45.136485" lon="8.12269"><ele>184.0</ele><time>2026-05-01T10:05:28.155Z</time></trkpt><trkpt lat="45.13659" lon="8.1226967"><ele>184.0</ele><time>2026-05-01T10:05:29.154Z</time></trkpt><trkpt lat="45.1366883" lon="8.12275"><ele>184.0</ele><time>2026-05-01T10:05:30.155Z</time></trkpt><trkpt lat="45.1367683" lon="8.1228483"><ele>184.39999999999998</ele><time>2026-05-01T10:05:31.153Z</time></trkpt><trkpt lat="45.13684" lon="8.12296"><ele>184.8</ele><time>2026-05-01T10:05:32.149Z</time></trkpt><trkpt lat="45.1369167" lon="8.1230683"><ele>185.2</ele><time>2026-05-01T10:05:33.153Z</time></trkpt><trkpt lat="45.1369967" lon="8.1231717"><ele>185.60000000000002</ele><time>2026-05-01T10:05:34.15Z</time></trkpt><trkpt lat="45.1370883" lon="8.12326"><ele>186.0</ele><time>2026-05-01T10:05:35.151Z</time></trkpt><trkpt lat="45.1371817" lon="8.1233283"><ele>186.0</ele><time>2026-05-01T10:05:36.153Z</time></trkpt><trkpt lat="45.1372833" lon="8.1233617"><ele>186.0</ele><time>2026-05-01T10:05:37.154Z</time></trkpt><trkpt lat="45.1373867" lon="8.1233683"><ele>186.0</ele><time>2026-05-01T10:05:38.153Z</time></trkpt><trkpt lat="45.1374883" lon="8.1233517"><ele>186.0</ele><time>2026-05-01T10:05:39.151Z</time></trkpt><trkpt lat="45.137585" lon="8.123315"><ele>186.0</ele><time>2026-05-01T10:05:40.153Z</time></trkpt><trkpt lat="45.13768" lon="8.12326"><ele>187.16666666666666</ele><time>2026-05-01T10:05:41.156Z</time></trkpt><trkpt lat="45.13776" lon="8.1232033"><ele>188.33333333333331</ele><time>2026-05-01T10:05:42.154Z</time></trkpt><trkpt lat="45.13783" lon="8.12316"><ele>189.5</ele><time>2026-05-01T10:05:43.154Z</time></trkpt><trkpt lat="45.1379" lon="8.1231283"><ele>190.66666666666666</ele><time>2026-05-01T10:05:44.154Z</time></trkpt><trkpt lat="45.1379633" lon="8.1231283"><ele>191.83333333333331</ele><time>2026-05-01T10:05:45.152Z</time></trkpt><trkpt lat="45.13807" lon="8.12325"><ele>193.0</ele><time>2026-05-01T10:05:47.155Z</time></trkpt><trkpt lat="45.13812" lon="8.1233567"><ele>193.0</ele><time>2026-05-01T10:05:48.158Z</time></trkpt><trkpt lat="45.13817" lon="8.1234917"><ele>193.0</ele><time>2026-05-01T10:05:49.152Z</time></trkpt><trkpt lat="45.13823" lon="8.1236117"><ele>193.0</ele><time>2026-05-01T10:05:50.156Z</time></trkpt><trkpt lat="45.138305" lon="8.1237283"><ele>193.0</ele><time>2026-05-01T10:05:51.154Z</time></trkpt><trkpt lat="45.138395" lon="8.1238417"><ele>193.0</ele><time>2026-05-01T10:05:52.154Z</time></trkpt><trkpt lat="45.1384967" lon="8.1239417"><ele>193.5</ele><time>2026-05-01T10:05:53.155Z</time></trkpt><trkpt lat="45.1386017" lon="8.12404"><ele>194.0</ele><time>2026-05-01T10:05:54.157Z</time></trkpt><trkpt lat="45.1387083" lon="8.1241367"><ele>194.5</ele><time>2026-05-01T10:05:55.16Z</time></trkpt><trkpt lat="45.13882" lon="8.1242383"><ele>195.0</ele><time>2026-05-01T10:05:56.157Z</time></trkpt><trkpt lat="45.138935" lon="8.1243417"><ele>193.25</ele><time>2026-05-01T10:05:57.155Z</time></trkpt><trkpt lat="45.139055" lon="8.1244417"><ele>191.5</ele><time>2026-05-01T10:05:58.155Z</time></trkpt><trkpt lat="45.1391817" lon="8.1245467"><ele>189.75</ele><time>2026-05-01T10:05:59.156Z</time></trkpt><trkpt lat="45.1393067" lon="8.12465"><ele>188.0</ele><time>2026-05-01T10:06:00.16Z</time></trkpt><trkpt lat="45.1394367" lon="8.124755"><ele>188.0</ele><time>2026-05-01T10:06:01.156Z</time></trkpt><trkpt lat="45.1395683" lon="8.1248483"><ele>188.0</ele><time>2026-05-01T10:06:02.151Z</time></trkpt><trkpt lat="45.139705" lon="8.1249317"><ele>188.0</ele><time>2026-05-01T10:06:03.152Z</time></trkpt><trkpt lat="45.139845" lon="8.125005"><ele>188.0</ele><time>2026-05-01T10:06:04.156Z</time></trkpt><trkpt lat="45.1399867" lon="8.1250683"><ele>186.25</ele><time>2026-05-01T10:06:05.156Z</time></trkpt><trkpt lat="45.1401283" lon="8.1251283"><ele>184.5</ele><time>2026-05-01T10:06:06.159Z</time></trkpt><trkpt lat="45.1402733" lon="8.1251817"><ele>182.75</ele><time>2026-05-01T10:06:07.153Z</time></trkpt><trkpt lat="45.14042" lon="8.1252183"><ele>181.0</ele><time>2026-05-01T10:06:08.158Z</time></trkpt><trkpt lat="45.14057" lon="8.12525"><ele>180.75</ele><time>2026-05-01T10:06:09.152Z</time></trkpt><trkpt lat="45.14072" lon="8.1252767"><ele>180.5</ele><time>2026-05-01T10:06:10.156Z</time></trkpt><trkpt lat="45.140865" lon="8.1253017"><ele>180.25</ele><time>2026-05-01T10:06:11.154Z</time></trkpt><trkpt lat="45.141005" lon="8.1253317"><ele>180.0</ele><time>2026-05-01T10:06:12.154Z</time></trkpt><trkpt lat="45.14114" lon="8.1253567"><ele>180.0</ele><time>2026-05-01T10:06:13.155Z</time></trkpt><trkpt lat="45.1412733" lon="8.1253817"><ele>180.0</ele><time>2026-05-01T10:06:14.158Z</time></trkpt><trkpt lat="45.1414033" lon="8.1254033"><ele>180.0</ele><time>2026-05-01T10:06:15.154Z</time></trkpt><trkpt lat="45.1415283" lon="8.1254217"><ele>180.0</ele><time>2026-05-01T10:06:16.156Z</time></trkpt><trkpt lat="45.141655" lon="8.1254367"><ele>180.0</ele><time>2026-05-01T10:06:17.151Z</time></trkpt><trkpt lat="45.14178" lon="8.125455"><ele>180.0</ele><time>2026-05-01T10:06:18.156Z</time></trkpt><trkpt lat="45.1419083" lon="8.12547"><ele>180.0</ele><time>2026-05-01T10:06:19.162Z</time></trkpt><trkpt lat="45.1420333" lon="8.1254883"><ele>180.0</ele><time>2026-05-01T10:06:20.154Z</time></trkpt><trkpt lat="45.14216" lon="8.12551"><ele>180.0</ele><time>2026-05-01T10:06:21.154Z</time></trkpt><trkpt lat="45.1422867" lon="8.125535"><ele>180.0</ele><time>2026-05-01T10:06:22.153Z</time></trkpt><trkpt lat="45.14241" lon="8.1255767"><ele>180.0</ele><time>2026-05-01T10:06:23.155Z</time></trkpt><trkpt lat="45.1425367" lon="8.1256267"><ele>180.0</ele><time>2026-05-01T10:06:24.156Z</time></trkpt><trkpt lat="45.1426533" lon="8.1257"><ele>179.25</ele><time>2026-05-01T10:06:25.155Z</time></trkpt><trkpt lat="45.1427617" lon="8.1257833"><ele>178.5</ele><time>2026-05-01T10:06:26.156Z</time></trkpt><trkpt lat="45.14287" lon="8.125875"><ele>177.75</ele><time>2026-05-01T10:06:27.152Z</time></trkpt><trkpt lat="45.14298" lon="8.1259783"><ele>177.0</ele><time>2026-05-01T10:06:28.155Z</time></trkpt><trkpt lat="45.1430917" lon="8.12608"><ele>177.0</ele><time>2026-05-01T10:06:29.157Z</time></trkpt><trkpt lat="45.1432083" lon="8.1261767"><ele>177.0</ele><time>2026-05-01T10:06:30.157Z</time></trkpt><trkpt lat="45.143325" lon="8.126275"><ele>177.0</ele><time>2026-05-01T10:06:31.158Z</time></trkpt><trkpt lat="45.1434417" lon="8.1263833"><ele>177.0</ele><time>2026-05-01T10:06:32.156Z</time></trkpt><trkpt lat="45.1435583" lon="8.1264833"><ele>176.75</ele><time>2026-05-01T10:06:33.154Z</time></trkpt><trkpt lat="45.1436733" lon="8.126585"><ele>176.5</ele><time>2026-05-01T10:06:34.155Z</time></trkpt><trkpt lat="45.1437933" lon="8.126685"><ele>176.25</ele><time>2026-05-01T10:06:35.161Z</time></trkpt><trkpt lat="45.1439133" lon="8.12678"><ele>176.0</ele><time>2026-05-01T10:06:36.152Z</time></trkpt><trkpt lat="45.14403" lon="8.1268833"><ele>176.5</ele><time>2026-05-01T10:06:37.156Z</time></trkpt><trkpt lat="45.1441467" lon="8.1269817"><ele>177.0</ele><time>2026-05-01T10:06:38.157Z</time></trkpt><trkpt lat="45.14426" lon="8.127075"><ele>177.5</ele><time>2026-05-01T10:06:39.153Z</time></trkpt><trkpt lat="45.1443733" lon="8.12716"><ele>178.0</ele><time>2026-05-01T10:06:40.154Z</time></trkpt><trkpt lat="45.14448" lon="8.12725"><ele>178.0</ele><time>2026-05-01T10:06:41.153Z</time></trkpt><trkpt lat="45.1445833" lon="8.127335"><ele>178.0</ele><time>2026-05-01T10:06:42.152Z</time></trkpt><trkpt lat="45.1446833" lon="8.1274133"><ele>178.0</ele><time>2026-05-01T10:06:43.16Z</time></trkpt><trkpt lat="45.1447783" lon="8.12749"><ele>178.0</ele><time>2026-05-01T10:06:44.152Z</time></trkpt><trkpt lat="45.1448717" lon="8.1275633"><ele>177.2</ele><time>2026-05-01T10:06:45.152Z</time></trkpt><trkpt lat="45.14496" lon="8.1276433"><ele>176.4</ele><time>2026-05-01T10:06:46.157Z</time></trkpt><trkpt lat="45.1450517" lon="8.1277233"><ele>175.6</ele><time>2026-05-01T10:06:47.154Z</time></trkpt><trkpt lat="45.1451483" lon="8.1278"><ele>174.79999999999998</ele><time>2026-05-01T10:06:48.157Z</time></trkpt><trkpt lat="45.14525" lon="8.127875"><ele>174.0</ele><time>2026-05-01T10:06:49.159Z</time></trkpt><trkpt lat="45.145355" lon="8.1279517"><ele>174.0</ele><time>2026-05-01T10:06:50.154Z</time></trkpt><trkpt lat="45.14546" lon="8.128035"><ele>174.0</ele><time>2026-05-01T10:06:51.156Z</time></trkpt><trkpt lat="45.1455683" lon="8.1281117"><ele>174.0</ele><time>2026-05-01T10:06:52.156Z</time></trkpt><trkpt lat="45.14567" lon="8.1281783"><ele>174.0</ele><time>2026-05-01T10:06:53.162Z</time></trkpt><trkpt lat="45.1457667" lon="8.128225"><ele>174.6</ele><time>2026-05-01T10:06:54.154Z</time></trkpt><trkpt lat="45.1458567" lon="8.1282517"><ele>175.2</ele><time>2026-05-01T10:06:55.153Z</time></trkpt><trkpt lat="45.14595" lon="8.1282533"><ele>175.79999999999998</ele><time>2026-05-01T10:06:56.155Z</time></trkpt><trkpt lat="45.1460433" lon="8.1282417"><ele>176.39999999999998</ele><time>2026-05-01T10:06:57.153Z</time></trkpt><trkpt lat="45.1461433" lon="8.1282133"><ele>177.0</ele><time>2026-05-01T10:06:58.153Z</time></trkpt><trkpt lat="45.1462517" lon="8.1281767"><ele>177.0</ele><time>2026-05-01T10:06:59.155Z</time></trkpt><trkpt lat="45.1463667" lon="8.1281433"><ele>177.0</ele><time>2026-05-01T10:07:00.155Z</time></trkpt><trkpt lat="45.146485" lon="8.1281183"><ele>177.0</ele><time>2026-05-01T10:07:01.155Z</time></trkpt><trkpt lat="45.146605" lon="8.12809"><ele>177.0</ele><time>2026-05-01T10:07:02.149Z</time></trkpt><trkpt lat="45.1467233" lon="8.1280733"><ele>178.5</ele><time>2026-05-01T10:07:03.149Z</time></trkpt><trkpt lat="45.14684" lon="8.1280783"><ele>180.0</ele><time>2026-05-01T10:07:04.154Z</time></trkpt><trkpt lat="45.1469583" lon="8.1280883"><ele>181.5</ele><time>2026-05-01T10:07:05.154Z</time></trkpt><trkpt lat="45.1470767" lon="8.1280983"><ele>183.0</ele><time>2026-05-01T10:07:06.16Z</time></trkpt><trkpt lat="45.1472" lon="8.1281167"><ele>183.0</ele><time>2026-05-01T10:07:07.154Z</time></trkpt><trkpt lat="45.14732" lon="8.1281333"><ele>183.0</ele><time>2026-05-01T10:07:08.15Z</time></trkpt><trkpt lat="45.147445" lon="8.1281217"><ele>183.0</ele><time>2026-05-01T10:07:09.155Z</time></trkpt><trkpt lat="45.14757" lon="8.1281017"><ele>183.0</ele><time>2026-05-01T10:07:10.155Z</time></trkpt><trkpt lat="45.147695" lon="8.1280917"><ele>184.75</ele><time>2026-05-01T10:07:11.155Z</time></trkpt><trkpt lat="45.14782" lon="8.128085"><ele>186.5</ele><time>2026-05-01T10:07:12.154Z</time></trkpt><trkpt lat="45.1479483" lon="8.1280967"><ele>188.25</ele><time>2026-05-01T10:07:13.155Z</time></trkpt><trkpt lat="45.1480717" lon="8.12812"><ele>190.0</ele><time>2026-05-01T10:07:14.156Z</time></trkpt><trkpt lat="45.1482033" lon="8.128165"><ele>192.0</ele><time>2026-05-01T10:07:15.152Z</time></trkpt><trkpt lat="45.1483217" lon="8.128175"><ele>194.0</ele><time>2026-05-01T10:07:16.161Z</time></trkpt><trkpt lat="45.1484417" lon="8.1281617"><ele>196.0</ele><time>2026-05-01T10:07:17.157Z</time></trkpt><trkpt lat="45.1485483" lon="8.1281533"><ele>198.0</ele><time>2026-05-01T10:07:18.151Z</time></trkpt><trkpt lat="45.1486533" lon="8.12816"><ele>198.0</ele><time>2026-05-01T10:07:19.152Z</time></trkpt><trkpt lat="45.1487533" lon="8.1281933"><ele>198.0</ele><time>2026-05-01T10:07:20.151Z</time></trkpt><trkpt lat="45.1488417" lon="8.1282467"><ele>198.0</ele><time>2026-05-01T10:07:21.16Z</time></trkpt><trkpt lat="45.1489183" lon="8.1283117"><ele>198.0</ele><time>2026-05-01T10:07:22.155Z</time></trkpt><trkpt lat="45.1489833" lon="8.1283633"><ele>198.0</ele><time>2026-05-01T10:07:23.153Z</time></trkpt><trkpt lat="45.1490833" lon="8.1284067"><ele>197.42857142857144</ele><time>2026-05-01T10:07:25.157Z</time></trkpt><trkpt lat="45.1491467" lon="8.1283983"><ele>196.85714285714283</ele><time>2026-05-01T10:07:26.155Z</time></trkpt><trkpt lat="45.1492133" lon="8.1283883"><ele>196.28571428571428</ele><time>2026-05-01T10:07:27.159Z</time></trkpt><trkpt lat="45.14928" lon="8.12837"><ele>195.71428571428572</ele><time>2026-05-01T10:07:28.159Z</time></trkpt><trkpt lat="45.149345" lon="8.1283467"><ele>195.14285714285717</ele><time>2026-05-01T10:07:29.155Z</time></trkpt><trkpt lat="45.1494083" lon="8.1283133"><ele>194.57142857142856</ele><time>2026-05-01T10:07:30.158Z</time></trkpt><trkpt lat="45.1494733" lon="8.1282667"><ele>194.0</ele><time>2026-05-01T10:07:31.152Z</time></trkpt><trkpt lat="45.1495367" lon="8.12821"><ele>194.00000000000003</ele><time>2026-05-01T10:07:32.157Z</time></trkpt><trkpt lat="45.1495967" lon="8.1281483"><ele>194.0</ele><time>2026-05-01T10:07:33.152Z</time></trkpt><trkpt lat="45.1496583" lon="8.1280733"><ele>194.0</ele><time>2026-05-01T10:07:34.153Z</time></trkpt><trkpt lat="45.1497183" lon="8.1279983"><ele>194.0</ele><time>2026-05-01T10:07:35.158Z</time></trkpt><trkpt lat="45.1497817" lon="8.1279283"><ele>194.00000000000003</ele><time>2026-05-01T10:07:36.156Z</time></trkpt><trkpt lat="45.1498483" lon="8.12786"><ele>194.0</ele><time>2026-05-01T10:07:37.155Z</time></trkpt><trkpt lat="45.1499083" lon="8.1277933"><ele>193.2</ele><time>2026-05-01T10:07:38.153Z</time></trkpt><trkpt lat="45.1499717" lon="8.1277333"><ele>192.39999999999998</ele><time>2026-05-01T10:07:39.156Z</time></trkpt><trkpt lat="45.15003" lon="8.12768"><ele>191.6</ele><time>2026-05-01T10:07:40.158Z</time></trkpt><trkpt lat="45.150135" lon="8.127615"><ele>190.8</ele><time>2026-05-01T10:07:42.156Z</time></trkpt><trkpt lat="45.1502317" lon="8.1275867"><ele>190.0</ele><time>2026-05-01T10:07:44.152Z</time></trkpt><trkpt lat="45.1503283" lon="8.1275817"><ele>190.0</ele><time>2026-05-01T10:07:46.152Z</time></trkpt><trkpt lat="45.1504183" lon="8.1276667"><ele>190.0</ele><time>2026-05-01T10:07:48.154Z</time></trkpt><trkpt lat="45.150515" lon="8.127665"><ele>190.0</ele><time>2026-05-01T10:07:50.153Z</time></trkpt><trkpt lat="45.150615" lon="8.1276467"><ele>190.0</ele><time>2026-05-01T10:07:52.153Z</time></trkpt><trkpt lat="45.1507267" lon="8.1276317"><ele>190.0</ele><time>2026-05-01T10:07:54.157Z</time></trkpt><trkpt lat="45.1508417" lon="8.1275883"><ele>189.2</ele><time>2026-05-01T10:07:56.157Z</time></trkpt><trkpt lat="45.1508983" lon="8.127535"><ele>188.4</ele><time>2026-05-01T10:07:57.151Z</time></trkpt><trkpt lat="45.1509683" lon="8.1274133"><ele>187.60000000000002</ele><time>2026-05-01T10:07:59.156Z</time></trkpt><trkpt lat="45.1510433" lon="8.12733"><ele>186.8</ele><time>2026-05-01T10:08:01.159Z</time></trkpt><trkpt lat="45.1511433" lon="8.1272967"><ele>186.0</ele><time>2026-05-01T10:08:03.154Z</time></trkpt><trkpt lat="45.1512767" lon="8.1272867"><ele>187.5</ele><time>2026-05-01T10:08:05.154Z</time></trkpt><trkpt lat="45.1513533" lon="8.127285"><ele>189.0</ele><time>2026-05-01T10:08:06.151Z</time></trkpt><trkpt lat="45.151435" lon="8.1272883"><ele>190.5</ele><time>2026-05-01T10:08:07.157Z</time></trkpt><trkpt lat="45.1515167" lon="8.1272867"><ele>192.0</ele><time>2026-05-01T10:08:08.152Z</time></trkpt><trkpt lat="45.1516" lon="8.1272833"><ele>193.5</ele><time>2026-05-01T10:08:09.155Z</time></trkpt><trkpt lat="45.1516883" lon="8.1272833"><ele>195.0</ele><time>2026-05-01T10:08:10.154Z</time></trkpt><trkpt lat="45.1517767" lon="8.1272933"><ele>195.0</ele><time>2026-05-01T10:08:11.156Z</time></trkpt><trkpt lat="45.1518667" lon="8.127315"><ele>195.0</ele><time>2026-05-01T10:08:12.153Z</time></trkpt><trkpt lat="45.15196" lon="8.1273267"><ele>195.0</ele><time>2026-05-01T10:08:13.153Z</time></trkpt><trkpt lat="45.1520533" lon="8.1273383"><ele>195.0</ele><time>2026-05-01T10:08:14.153Z</time></trkpt><trkpt lat="45.1521433" lon="8.1273533"><ele>195.0</ele><time>2026-05-01T10:08:15.153Z</time></trkpt><trkpt lat="45.15224" lon="8.12736"><ele>195.0</ele><time>2026-05-01T10:08:16.15Z</time></trkpt><trkpt lat="45.1523367" lon="8.1273717"><ele>195.0</ele><time>2026-05-01T10:08:17.153Z</time></trkpt><trkpt lat="45.1524317" lon="8.1273833"><ele>195.0</ele><time>2026-05-01T10:08:18.153Z</time></trkpt><trkpt lat="45.1525233" lon="8.127395"><ele>195.0</ele><time>2026-05-01T10:08:19.165Z</time></trkpt><trkpt lat="45.15261" lon="8.1273967"><ele>195.0</ele><time>2026-05-01T10:08:20.157Z</time></trkpt><trkpt lat="45.15269" lon="8.1273967"><ele>195.16666666666666</ele><time>2026-05-01T10:08:21.151Z</time></trkpt><trkpt lat="45.1527717" lon="8.12739"><ele>195.33333333333331</ele><time>2026-05-01T10:08:22.157Z</time></trkpt><trkpt lat="45.1528517" lon="8.1273517"><ele>195.5</ele><time>2026-05-01T10:08:23.16Z</time></trkpt><trkpt lat="45.1529233" lon="8.12729"><ele>195.66666666666666</ele><time>2026-05-01T10:08:24.156Z</time></trkpt><trkpt lat="45.1529883" lon="8.12721"><ele>195.83333333333331</ele><time>2026-05-01T10:08:25.154Z</time></trkpt><trkpt lat="45.1530483" lon="8.12712"><ele>196.0</ele><time>2026-05-01T10:08:26.155Z</time></trkpt><trkpt lat="45.1531" lon="8.1270133"><ele>196.0</ele><time>2026-05-01T10:08:27.152Z</time></trkpt><trkpt lat="45.1531467" lon="8.1268933"><ele>196.0</ele><time>2026-05-01T10:08:28.154Z</time></trkpt><trkpt lat="45.153185" lon="8.1267717"><ele>196.0</ele><time>2026-05-01T10:08:29.158Z</time></trkpt><trkpt lat="45.1532217" lon="8.1266483"><ele>196.0</ele><time>2026-05-01T10:08:30.161Z</time></trkpt><trkpt lat="45.1532433" lon="8.126525"><ele>196.0</ele><time>2026-05-01T10:08:31.157Z</time></trkpt><trkpt lat="45.1532767" lon="8.1264017"><ele>195.16666666666666</ele><time>2026-05-01T10:08:32.156Z</time></trkpt><trkpt lat="45.153305" lon="8.1262917"><ele>194.33333333333331</ele><time>2026-05-01T10:08:33.152Z</time></trkpt><trkpt lat="45.1533317" lon="8.126205"><ele>193.5</ele><time>2026-05-01T10:08:34.15Z</time></trkpt><trkpt lat="45.1533767" lon="8.1261033"><ele>192.66666666666666</ele><time>2026-05-01T10:08:36.155Z</time></trkpt><trkpt lat="45.1534067" lon="8.1260183"><ele>191.83333333333331</ele><time>2026-05-01T10:08:42.153Z</time></trkpt><trkpt lat="45.15344" lon="8.12583"><ele>191.0</ele><time>2026-05-01T10:08:44.161Z</time></trkpt><trkpt lat="45.153465" lon="8.12571"><ele>191.0</ele><time>2026-05-01T10:08:45.155Z</time></trkpt><trkpt lat="45.1534867" lon="8.125575"><ele>191.0</ele><time>2026-05-01T10:08:46.156Z</time></trkpt><trkpt lat="45.1534967" lon="8.1254267"><ele>191.0</ele><time>2026-05-01T10:08:47.155Z</time></trkpt><trkpt lat="45.15349" lon="8.1252667"><ele>191.0</ele><time>2026-05-01T10:08:48.156Z</time></trkpt><trkpt lat="45.153475" lon="8.1251083"><ele>191.0</ele><time>2026-05-01T10:08:49.155Z</time></trkpt><trkpt lat="45.1534567" lon="8.124945"><ele>190.75</ele><time>2026-05-01T10:08:50.155Z</time></trkpt><trkpt lat="45.1534417" lon="8.124775"><ele>190.5</ele><time>2026-05-01T10:08:51.156Z</time></trkpt><trkpt lat="45.1534267" lon="8.12461"><ele>190.25</ele><time>2026-05-01T10:08:52.151Z</time></trkpt><trkpt lat="45.1534033" lon="8.12445"><ele>190.0</ele><time>2026-05-01T10:08:53.152Z</time></trkpt><trkpt lat="45.1533833" lon="8.1242917"><ele>190.0</ele><time>2026-05-01T10:08:54.154Z</time></trkpt><trkpt lat="45.1533683" lon="8.12413"><ele>190.0</ele><time>2026-05-01T10:08:55.153Z</time></trkpt><trkpt lat="45.153355" lon="8.123965"><ele>190.0</ele><time>2026-05-01T10:08:56.156Z</time></trkpt><trkpt lat="45.153355" lon="8.12381"><ele>190.0</ele><time>2026-05-01T10:08:57.151Z</time></trkpt><trkpt lat="45.1533833" lon="8.1236567"><ele>189.75</ele><time>2026-05-01T10:08:58.16Z</time></trkpt><trkpt lat="45.1534217" lon="8.123505"><ele>189.5</ele><time>2026-05-01T10:08:59.153Z</time></trkpt><trkpt lat="45.1534683" lon="8.1233617"><ele>189.25</ele><time>2026-05-01T10:09:00.157Z</time></trkpt><trkpt lat="45.1535233" lon="8.1232167"><ele>189.0</ele><time>2026-05-01T10:09:01.152Z</time></trkpt><trkpt lat="45.1535967" lon="8.1230683"><ele>191.0</ele><time>2026-05-01T10:09:02.154Z</time></trkpt><trkpt lat="45.1536767" lon="8.122925"><ele>193.0</ele><time>2026-05-01T10:09:03.151Z</time></trkpt><trkpt lat="45.153765" lon="8.1227817"><ele>195.0</ele><time>2026-05-01T10:09:04.154Z</time></trkpt><trkpt lat="45.1538567" lon="8.12263"><ele>197.0</ele><time>2026-05-01T10:09:05.154Z</time></trkpt><trkpt lat="45.1539533" lon="8.12247"><ele>196.66666666666669</ele><time>2026-05-01T10:09:06.157Z</time></trkpt><trkpt lat="45.1540517" lon="8.122305"><ele>196.33333333333331</ele><time>2026-05-01T10:09:07.153Z</time></trkpt><trkpt lat="45.1541533" lon="8.1221333"><ele>196.0</ele><time>2026-05-01T10:09:08.153Z</time></trkpt><trkpt lat="45.1542517" lon="8.1219683"><ele>196.0</ele><time>2026-05-01T10:09:09.155Z</time></trkpt><trkpt lat="45.154345" lon="8.12181"><ele>196.0</ele><time>2026-05-01T10:09:10.159Z</time></trkpt><trkpt lat="45.1544383" lon="8.1216583"><ele>196.0</ele><time>2026-05-01T10:09:11.153Z</time></trkpt><trkpt lat="45.1545283" lon="8.1215083"><ele>196.0</ele><time>2026-05-01T10:09:12.156Z</time></trkpt><trkpt lat="45.1546167" lon="8.12136"><ele>196.25</ele><time>2026-05-01T10:09:13.153Z</time></trkpt><trkpt lat="45.1547017" lon="8.12121"><ele>196.5</ele><time>2026-05-01T10:09:14.154Z</time></trkpt><trkpt lat="45.1547817" lon="8.12106"><ele>196.75</ele><time>2026-05-01T10:09:15.156Z</time></trkpt><trkpt lat="45.15486" lon="8.12091"><ele>197.0</ele><time>2026-05-01T10:09:16.15Z</time></trkpt><trkpt lat="45.15494" lon="8.1207667"><ele>199.0</ele><time>2026-05-01T10:09:17.154Z</time></trkpt><trkpt lat="45.15501" lon="8.12063"><ele>201.0</ele><time>2026-05-01T10:09:18.152Z</time></trkpt><trkpt lat="45.1550833" lon="8.1205167"><ele>203.0</ele><time>2026-05-01T10:09:19.155Z</time></trkpt><trkpt lat="45.155145" lon="8.12041"><ele>205.0</ele><time>2026-05-01T10:09:20.153Z</time></trkpt><trkpt lat="45.155185" lon="8.1203067"><ele>207.0</ele><time>2026-05-01T10:09:21.153Z</time></trkpt><trkpt lat="45.1551967" lon="8.1202033"><ele>207.0</ele><time>2026-05-01T10:09:22.155Z</time></trkpt><trkpt lat="45.15518" lon="8.1200967"><ele>207.0</ele><time>2026-05-01T10:09:23.162Z</time></trkpt><trkpt lat="45.1551383" lon="8.1199933"><ele>207.0</ele><time>2026-05-01T10:09:24.155Z</time></trkpt><trkpt lat="45.1550833" lon="8.1198917"><ele>207.0</ele><time>2026-05-01T10:09:25.155Z</time></trkpt><trkpt lat="45.1550417" lon="8.1197883"><ele>207.0</ele><time>2026-05-01T10:09:26.156Z</time></trkpt><trkpt lat="45.15501" lon="8.11968"><ele>207.0</ele><time>2026-05-01T10:09:27.153Z</time></trkpt><trkpt lat="45.155" lon="8.1195667"><ele>207.39999999999998</ele><time>2026-05-01T10:09:28.156Z</time></trkpt><trkpt lat="45.155005" lon="8.1194533"><ele>207.79999999999998</ele><time>2026-05-01T10:09:29.157Z</time></trkpt><trkpt lat="45.15503" lon="8.1193317"><ele>208.2</ele><time>2026-05-01T10:09:30.155Z</time></trkpt><trkpt lat="45.1550433" lon="8.119195"><ele>208.6</ele><time>2026-05-01T10:09:31.152Z</time></trkpt><trkpt lat="45.1550467" lon="8.119045"><ele>209.0</ele><time>2026-05-01T10:09:32.155Z</time></trkpt><trkpt lat="45.1550417" lon="8.118885"><ele>210.5</ele><time>2026-05-01T10:09:33.158Z</time></trkpt><trkpt lat="45.15503" lon="8.11872"><ele>212.0</ele><time>2026-05-01T10:09:34.155Z</time></trkpt><trkpt lat="45.1550133" lon="8.1185533"><ele>213.5</ele><time>2026-05-01T10:09:35.155Z</time></trkpt><trkpt lat="45.154995" lon="8.11838"><ele>215.0</ele><time>2026-05-01T10:09:36.155Z</time></trkpt><trkpt lat="45.1549717" lon="8.1182117"><ele>216.0</ele><time>2026-05-01T10:09:37.155Z</time></trkpt><trkpt lat="45.1549433" lon="8.118045"><ele>217.0</ele><time>2026-05-01T10:09:38.154Z</time></trkpt><trkpt lat="45.1549133" lon="8.1178783"><ele>218.0</ele><time>2026-05-01T10:09:39.153Z</time></trkpt><trkpt lat="45.1548833" lon="8.1177117"><ele>219.0</ele><time>2026-05-01T10:09:40.156Z</time></trkpt><trkpt lat="45.15485" lon="8.11754"><ele>220.0</ele><time>2026-05-01T10:09:41.151Z</time></trkpt><trkpt lat="45.1548167" lon="8.11737"><ele>221.0</ele><time>2026-05-01T10:09:42.156Z</time></trkpt><trkpt lat="45.1547817" lon="8.1172"><ele>222.0</ele><time>2026-05-01T10:09:43.154Z</time></trkpt><trkpt lat="45.1547467" lon="8.11703"><ele>223.0</ele><time>2026-05-01T10:09:44.153Z</time></trkpt><trkpt lat="45.15471" lon="8.1168567"><ele>223.0</ele><time>2026-05-01T10:09:45.151Z</time></trkpt><trkpt lat="45.1546767" lon="8.116685"><ele>223.0</ele><time>2026-05-01T10:09:46.152Z</time></trkpt><trkpt lat="45.1546417" lon="8.1165133"><ele>223.0</ele><time>2026-05-01T10:09:47.155Z</time></trkpt><trkpt lat="45.1546083" lon="8.1163433"><ele>223.0</ele><time>2026-05-01T10:09:48.154Z</time></trkpt><trkpt lat="45.1545783" lon="8.1161767"><ele>224.2</ele><time>2026-05-01T10:09:49.157Z</time></trkpt><trkpt lat="45.15455" lon="8.1160183"><ele>225.4</ele><time>2026-05-01T10:09:50.157Z</time></trkpt><trkpt lat="45.1545133" lon="8.1158717"><ele>226.59999999999997</ele><time>2026-05-01T10:09:51.155Z</time></trkpt><trkpt lat="45.15447" lon="8.1157333"><ele>227.79999999999998</ele><time>2026-05-01T10:09:52.153Z</time></trkpt><trkpt lat="45.1544117" lon="8.115615"><ele>229.0</ele><time>2026-05-01T10:09:53.16Z</time></trkpt><trkpt lat="45.1543433" lon="8.11551"><ele>230.79999999999998</ele><time>2026-05-01T10:09:54.156Z</time></trkpt><trkpt lat="45.1542633" lon="8.1154233"><ele>232.59999999999997</ele><time>2026-05-01T10:09:55.156Z</time></trkpt><trkpt lat="45.1541717" lon="8.115355"><ele>234.4</ele><time>2026-05-01T10:09:56.154Z</time></trkpt><trkpt lat="45.1540733" lon="8.1153017"><ele>236.2</ele><time>2026-05-01T10:09:57.154Z</time></trkpt><trkpt lat="45.1539783" lon="8.1152517"><ele>238.0</ele><time>2026-05-01T10:09:58.153Z</time></trkpt><trkpt lat="45.153885" lon="8.1152033"><ele>238.2</ele><time>2026-05-01T10:09:59.156Z</time></trkpt><trkpt lat="45.15379" lon="8.1151633"><ele>238.4</ele><time>2026-05-01T10:10:00.155Z</time></trkpt><trkpt lat="45.1537133" lon="8.115095"><ele>238.59999999999997</ele><time>2026-05-01T10:10:01.154Z</time></trkpt><trkpt lat="45.1536517" lon="8.1150067"><ele>238.79999999999998</ele><time>2026-05-01T10:10:02.157Z</time></trkpt><trkpt lat="45.15361" lon="8.1148933"><ele>239.0</ele><time>2026-05-01T10:10:03.157Z</time></trkpt><trkpt lat="45.1535867" lon="8.114775"><ele>239.66666666666669</ele><time>2026-05-01T10:10:04.156Z</time></trkpt><trkpt lat="45.1535933" lon="8.11466"><ele>240.33333333333334</ele><time>2026-05-01T10:10:05.159Z</time></trkpt><trkpt lat="45.1536133" lon="8.114545"><ele>241.0</ele><time>2026-05-01T10:10:06.159Z</time></trkpt><trkpt lat="45.153635" lon="8.11443"><ele>241.66666666666669</ele><time>2026-05-01T10:10:07.161Z</time></trkpt><trkpt lat="45.1536617" lon="8.1143133"><ele>242.33333333333334</ele><time>2026-05-01T10:10:08.154Z</time></trkpt><trkpt lat="45.1537033" lon="8.1141983"><ele>243.0</ele><time>2026-05-01T10:10:09.154Z</time></trkpt><trkpt lat="45.15376" lon="8.1140933"><ele>242.8</ele><time>2026-05-01T10:10:10.155Z</time></trkpt><trkpt lat="45.1538217" lon="8.1139933"><ele>242.60000000000002</ele><time>2026-05-01T10:10:11.157Z</time></trkpt><trkpt lat="45.1538933" lon="8.1139083"><ele>242.39999999999998</ele><time>2026-05-01T10:10:12.157Z</time></trkpt><trkpt lat="45.1539833" lon="8.113865"><ele>242.2</ele><time>2026-05-01T10:10:13.156Z</time></trkpt><trkpt lat="45.1540867" lon="8.1138483"><ele>242.0</ele><time>2026-05-01T10:10:14.157Z</time></trkpt><trkpt lat="45.154195" lon="8.113835"><ele>238.5</ele><time>2026-05-01T10:10:15.159Z</time></trkpt><trkpt lat="45.1543133" lon="8.1138267"><ele>235.0</ele><time>2026-05-01T10:10:16.157Z</time></trkpt><trkpt lat="45.1544267" lon="8.1137817"><ele>231.5</ele><time>2026-05-01T10:10:17.158Z</time></trkpt><trkpt lat="45.1545317" lon="8.1137117"><ele>228.0</ele><time>2026-05-01T10:10:18.156Z</time></trkpt><trkpt lat="45.1546367" lon="8.1136367"><ele>228.0</ele><time>2026-05-01T10:10:19.159Z</time></trkpt><trkpt lat="45.1547317" lon="8.1135633"><ele>228.0</ele><time>2026-05-01T10:10:20.154Z</time></trkpt><trkpt lat="45.1548317" lon="8.113495"><ele>228.0</ele><time>2026-05-01T10:10:21.152Z</time></trkpt><trkpt lat="45.1549333" lon="8.1134467"><ele>228.0</ele><time>2026-05-01T10:10:22.155Z</time></trkpt><trkpt lat="45.1550483" lon="8.11341"><ele>228.0</ele><time>2026-05-01T10:10:23.159Z</time></trkpt><trkpt lat="45.1551633" lon="8.1133867"><ele>227.25</ele><time>2026-05-01T10:10:24.159Z</time></trkpt><trkpt lat="45.1552833" lon="8.1133583"><ele>226.5</ele><time>2026-05-01T10:10:25.154Z</time></trkpt><trkpt lat="45.1554083" lon="8.1133333"><ele>225.75</ele><time>2026-05-01T10:10:26.155Z</time></trkpt><trkpt lat="45.1555433" lon="8.1133067"><ele>225.0</ele><time>2026-05-01T10:10:27.153Z</time></trkpt><trkpt lat="45.1556767" lon="8.1132783"><ele>224.8</ele><time>2026-05-01T10:10:28.155Z</time></trkpt><trkpt lat="45.15581" lon="8.113245"><ele>224.6</ele><time>2026-05-01T10:10:29.157Z</time></trkpt><trkpt lat="45.155925" lon="8.1132167"><ele>224.39999999999998</ele><time>2026-05-01T10:10:30.158Z</time></trkpt><trkpt lat="45.1560183" lon="8.1131967"><ele>224.2</ele><time>2026-05-01T10:10:31.154Z</time></trkpt><trkpt lat="45.15609" lon="8.1131767"><ele>224.0</ele><time>2026-05-01T10:10:32.153Z</time></trkpt><trkpt lat="45.1561733" lon="8.1130767"><ele>220.6</ele><time>2026-05-01T10:10:34.155Z</time></trkpt><trkpt lat="45.15613" lon="8.1129667"><ele>217.2</ele><time>2026-05-01T10:10:36.156Z</time></trkpt><trkpt lat="45.15601" lon="8.112905"><ele>213.79999999999998</ele><time>2026-05-01T10:10:38.161Z</time></trkpt><trkpt lat="45.1559117" lon="8.112885"><ele>210.39999999999998</ele><time>2026-05-01T10:10:39.157Z</time></trkpt><trkpt lat="45.1558183" lon="8.11286"><ele>207.0</ele><time>2026-05-01T10:10:40.157Z</time></trkpt><trkpt lat="45.1557133" lon="8.112835"><ele>207.8</ele><time>2026-05-01T10:10:41.157Z</time></trkpt><trkpt lat="45.155605" lon="8.1128067"><ele>208.6</ele><time>2026-05-01T10:10:42.156Z</time></trkpt><trkpt lat="45.1554983" lon="8.1127833"><ele>209.4</ele><time>2026-05-01T10:10:43.156Z</time></trkpt><trkpt lat="45.15539" lon="8.1127633"><ele>210.20000000000002</ele><time>2026-05-01T10:10:44.157Z</time></trkpt><trkpt lat="45.15528" lon="8.1127467"><ele>211.0</ele><time>2026-05-01T10:10:45.154Z</time></trkpt><trkpt lat="45.1551717" lon="8.1127283"><ele>211.0</ele><time>2026-05-01T10:10:46.155Z</time></trkpt><trkpt lat="45.155065" lon="8.1126933"><ele>211.0</ele><time>2026-05-01T10:10:47.156Z</time></trkpt><trkpt lat="45.1549617" lon="8.11264"><ele>211.0</ele><time>2026-05-01T10:10:48.157Z</time></trkpt><trkpt lat="45.1548683" lon="8.1125833"><ele>211.0</ele><time>2026-05-01T10:10:49.154Z</time></trkpt><trkpt lat="45.1547717" lon="8.11253"><ele>211.0</ele><time>2026-05-01T10:10:50.161Z</time></trkpt><trkpt lat="45.1546733" lon="8.1124783"><ele>210.0</ele><time>2026-05-01T10:10:51.157Z</time></trkpt><trkpt lat="45.1545783" lon="8.1124217"><ele>209.0</ele><time>2026-05-01T10:10:52.158Z</time></trkpt><trkpt lat="45.154485" lon="8.1123483"><ele>208.0</ele><time>2026-05-01T10:10:53.16Z</time></trkpt><trkpt lat="45.1544017" lon="8.112265"><ele>207.0</ele><time>2026-05-01T10:10:54.162Z</time></trkpt><trkpt lat="45.15432" lon="8.1121733"><ele>206.0</ele><time>2026-05-01T10:10:55.157Z</time></trkpt><trkpt lat="45.1542517" lon="8.11207"><ele>206.0</ele><time>2026-05-01T10:10:56.157Z</time></trkpt><trkpt lat="45.1541933" lon="8.1119533"><ele>206.0</ele><time>2026-05-01T10:10:57.156Z</time></trkpt><trkpt lat="45.1541567" lon="8.1118233"><ele>206.0</ele><time>2026-05-01T10:10:58.16Z</time></trkpt><trkpt lat="45.1541333" lon="8.11168"><ele>206.0</ele><time>2026-05-01T10:10:59.159Z</time></trkpt><trkpt lat="45.15413" lon="8.111525"><ele>206.0</ele><time>2026-05-01T10:11:00.158Z</time></trkpt><trkpt lat="45.154135" lon="8.11137"><ele>204.60000000000002</ele><time>2026-05-01T10:11:01.156Z</time></trkpt><trkpt lat="45.154145" lon="8.1112117"><ele>203.2</ele><time>2026-05-01T10:11:02.158Z</time></trkpt><trkpt lat="45.15415" lon="8.1110533"><ele>201.8</ele><time>2026-05-01T10:11:03.158Z</time></trkpt><trkpt lat="45.15414" lon="8.110905"><ele>200.39999999999998</ele><time>2026-05-01T10:11:04.155Z</time></trkpt><trkpt lat="45.154115" lon="8.1107667"><ele>199.0</ele><time>2026-05-01T10:11:05.157Z</time></trkpt><trkpt lat="45.154065" lon="8.1106333"><ele>199.75</ele><time>2026-05-01T10:11:06.154Z</time></trkpt><trkpt lat="45.153995" lon="8.1105083"><ele>200.5</ele><time>2026-05-01T10:11:07.154Z</time></trkpt><trkpt lat="45.1539233" lon="8.11038"><ele>201.25</ele><time>2026-05-01T10:11:08.157Z</time></trkpt><trkpt lat="45.153855" lon="8.1102417"><ele>202.0</ele><time>2026-05-01T10:11:09.154Z</time></trkpt><trkpt lat="45.1537917" lon="8.1100967"><ele>202.0</ele><time>2026-05-01T10:11:10.155Z</time></trkpt><trkpt lat="45.1537317" lon="8.1099483"><ele>202.0</ele><time>2026-05-01T10:11:11.16Z</time></trkpt><trkpt lat="45.1536767" lon="8.1098017"><ele>202.0</ele><time>2026-05-01T10:11:12.158Z</time></trkpt><trkpt lat="45.1536167" lon="8.109655"><ele>202.0</ele><time>2026-05-01T10:11:13.153Z</time></trkpt><trkpt lat="45.1535617" lon="8.1095183"><ele>200.66666666666666</ele><time>2026-05-01T10:11:14.153Z</time></trkpt><trkpt lat="45.15352" lon="8.1093933"><ele>199.33333333333331</ele><time>2026-05-01T10:11:15.156Z</time></trkpt><trkpt lat="45.1535033" lon="8.1092717"><ele>198.0</ele><time>2026-05-01T10:11:16.161Z</time></trkpt><trkpt lat="45.1535" lon="8.1091533"><ele>196.66666666666669</ele><time>2026-05-01T10:11:17.159Z</time></trkpt><trkpt lat="45.1535083" lon="8.109035"><ele>195.33333333333334</ele><time>2026-05-01T10:11:18.154Z</time></trkpt><trkpt lat="45.153525" lon="8.10892"><ele>194.0</ele><time>2026-05-01T10:11:19.153Z</time></trkpt><trkpt lat="45.15357" lon="8.1088067"><ele>193.79999999999998</ele><time>2026-05-01T10:11:20.155Z</time></trkpt><trkpt lat="45.1536183" lon="8.1087067"><ele>193.6</ele><time>2026-05-01T10:11:21.154Z</time></trkpt><trkpt lat="45.1536867" lon="8.1086183"><ele>193.4</ele><time>2026-05-01T10:11:22.155Z</time></trkpt><trkpt lat="45.15377" lon="8.1085533"><ele>193.2</ele><time>2026-05-01T10:11:23.155Z</time></trkpt><trkpt lat="45.1538633" lon="8.10852"><ele>193.0</ele><time>2026-05-01T10:11:24.158Z</time></trkpt><trkpt lat="45.153975" lon="8.108515"><ele>195.75</ele><time>2026-05-01T10:11:25.16Z</time></trkpt><trkpt lat="45.15411" lon="8.1085417"><ele>198.5</ele><time>2026-05-01T10:11:26.159Z</time></trkpt><trkpt lat="45.1542267" lon="8.10856"><ele>201.25</ele><time>2026-05-01T10:11:27.156Z</time></trkpt><trkpt lat="45.1543467" lon="8.1085783"><ele>204.0</ele><time>2026-05-01T10:11:28.153Z</time></trkpt><trkpt lat="45.1544633" lon="8.1086"><ele>204.0</ele><time>2026-05-01T10:11:29.155Z</time></trkpt><trkpt lat="45.154575" lon="8.1086233"><ele>204.0</ele><time>2026-05-01T10:11:30.155Z</time></trkpt><trkpt lat="45.154685" lon="8.1086317"><ele>204.0</ele><time>2026-05-01T10:11:31.159Z</time></trkpt><trkpt lat="45.1547767" lon="8.10864"><ele>204.0</ele><time>2026-05-01T10:11:32.154Z</time></trkpt><trkpt lat="45.15486" lon="8.1086283"><ele>204.0</ele><time>2026-05-01T10:11:33.154Z</time></trkpt><trkpt lat="45.154935" lon="8.1085967"><ele>204.39999999999998</ele><time>2026-05-01T10:11:34.155Z</time></trkpt><trkpt lat="45.15501" lon="8.1085417"><ele>204.8</ele><time>2026-05-01T10:11:35.152Z</time></trkpt><trkpt lat="45.1550783" lon="8.108465"><ele>205.2</ele><time>2026-05-01T10:11:36.153Z</time></trkpt><trkpt lat="45.15515" lon="8.1083633"><ele>205.60000000000002</ele><time>2026-05-01T10:11:37.162Z</time></trkpt><trkpt lat="45.1552183" lon="8.1082467"><ele>206.0</ele><time>2026-05-01T10:11:38.159Z</time></trkpt><trkpt lat="45.1552917" lon="8.1081283"><ele>210.0</ele><time>2026-05-01T10:11:39.154Z</time></trkpt><trkpt lat="45.155365" lon="8.1080083"><ele>214.0</ele><time>2026-05-01T10:11:40.156Z</time></trkpt><trkpt lat="45.1554367" lon="8.1078917"><ele>218.00000000000003</ele><time>2026-05-01T10:11:41.156Z</time></trkpt><trkpt lat="45.1555" lon="8.107785"><ele>222.0</ele><time>2026-05-01T10:11:42.155Z</time></trkpt><trkpt lat="45.1555483" lon="8.1076883"><ele>226.0</ele><time>2026-05-01T10:11:43.154Z</time></trkpt><trkpt lat="45.1555717" lon="8.107595"><ele>226.0</ele><time>2026-05-01T10:11:44.159Z</time></trkpt><trkpt lat="45.1555633" lon="8.10743"><ele>226.0</ele><time>2026-05-01T10:11:46.158Z</time></trkpt><trkpt lat="45.1554017" lon="8.1074333"><ele>226.0</ele><time>2026-05-01T10:11:48.157Z</time></trkpt><trkpt lat="45.1553" lon="8.1074867"><ele>226.0</ele><time>2026-05-01T10:11:49.156Z</time></trkpt><trkpt lat="45.15518" lon="8.1075517"><ele>226.0</ele><time>2026-05-01T10:11:50.155Z</time></trkpt><trkpt lat="45.1550467" lon="8.1076183"><ele>226.0</ele><time>2026-05-01T10:11:51.155Z</time></trkpt><trkpt lat="45.15493" lon="8.107685"><ele>226.0</ele><time>2026-05-01T10:11:52.154Z</time></trkpt><trkpt lat="45.154815" lon="8.1077483"><ele>226.0</ele><time>2026-05-01T10:11:53.155Z</time></trkpt><trkpt lat="45.1547117" lon="8.1078083"><ele>225.60000000000002</ele><time>2026-05-01T10:11:54.156Z</time></trkpt><trkpt lat="45.15461" lon="8.1078617"><ele>225.20000000000002</ele><time>2026-05-01T10:11:55.156Z</time></trkpt><trkpt lat="45.1545067" lon="8.1078933"><ele>224.79999999999998</ele><time>2026-05-01T10:11:56.159Z</time></trkpt><trkpt lat="45.154415" lon="8.10791"><ele>224.39999999999998</ele><time>2026-05-01T10:11:57.155Z</time></trkpt><trkpt lat="45.1543267" lon="8.1079067"><ele>224.0</ele><time>2026-05-01T10:11:58.157Z</time></trkpt><trkpt lat="45.15425" lon="8.107845"><ele>224.0</ele><time>2026-05-01T10:11:59.154Z</time></trkpt><trkpt lat="45.1541733" lon="8.107765"><ele>223.99999999999997</ele><time>2026-05-01T10:12:00.158Z</time></trkpt><trkpt lat="45.154105" lon="8.1076633"><ele>223.99999999999997</ele><time>2026-05-01T10:12:01.153Z</time></trkpt><trkpt lat="45.1540533" lon="8.1075233"><ele>224.0</ele><time>2026-05-01T10:12:02.156Z</time></trkpt><trkpt lat="45.1540017" lon="8.1073983"><ele>224.0</ele><time>2026-05-01T10:12:03.155Z</time></trkpt><trkpt lat="45.1539583" lon="8.1072683"><ele>221.25</ele><time>2026-05-01T10:12:04.155Z</time></trkpt><trkpt lat="45.1539317" lon="8.1071183"><ele>218.5</ele><time>2026-05-01T10:12:05.157Z</time></trkpt><trkpt lat="45.1539067" lon="8.1069633"><ele>215.75</ele><time>2026-05-01T10:12:06.155Z</time></trkpt><trkpt lat="45.1538883" lon="8.1068"><ele>213.0</ele><time>2026-05-01T10:12:07.154Z</time></trkpt><trkpt lat="45.1538717" lon="8.1066367"><ele>216.25</ele><time>2026-05-01T10:12:08.156Z</time></trkpt><trkpt lat="45.1538567" lon="8.10647"><ele>219.5</ele><time>2026-05-01T10:12:09.158Z</time></trkpt><trkpt lat="45.1538483" lon="8.1062883"><ele>222.75</ele><time>2026-05-01T10:12:10.153Z</time></trkpt><trkpt lat="45.15384" lon="8.1061067"><ele>226.0</ele><time>2026-05-01T10:12:11.156Z</time></trkpt><trkpt lat="45.1538217" lon="8.105935"><ele>226.0</ele><time>2026-05-01T10:12:12.157Z</time></trkpt><trkpt lat="45.15379" lon="8.10577"><ele>226.00000000000003</ele><time>2026-05-01T10:12:13.156Z</time></trkpt><trkpt lat="45.15374" lon="8.1056233"><ele>226.00000000000003</ele><time>2026-05-01T10:12:14.156Z</time></trkpt><trkpt lat="45.1536733" lon="8.1055017"><ele>226.0</ele><time>2026-05-01T10:12:15.157Z</time></trkpt><trkpt lat="45.15359" lon="8.105415"><ele>226.0</ele><time>2026-05-01T10:12:16.157Z</time></trkpt><trkpt lat="45.1535017" lon="8.1053533"><ele>227.0</ele><time>2026-05-01T10:12:17.159Z</time></trkpt><trkpt lat="45.1534183" lon="8.10528"><ele>228.00000000000003</ele><time>2026-05-01T10:12:18.156Z</time></trkpt><trkpt lat="45.153335" lon="8.1051983"><ele>229.00000000000003</ele><time>2026-05-01T10:12:19.158Z</time></trkpt><trkpt lat="45.1532617" lon="8.1051017"><ele>230.0</ele><time>2026-05-01T10:12:20.156Z</time></trkpt><trkpt lat="45.1532" lon="8.1049867"><ele>231.0</ele><time>2026-05-01T10:12:21.156Z</time></trkpt><trkpt lat="45.1531517" lon="8.10486"><ele>231.0</ele><time>2026-05-01T10:12:22.156Z</time></trkpt><trkpt lat="45.1531033" lon="8.1047233"><ele>231.00000000000003</ele><time>2026-05-01T10:12:23.158Z</time></trkpt><trkpt lat="45.1530583" lon="8.1045917"><ele>231.00000000000003</ele><time>2026-05-01T10:12:24.153Z</time></trkpt><trkpt lat="45.1530117" lon="8.1044467"><ele>231.0</ele><time>2026-05-01T10:12:25.161Z</time></trkpt><trkpt lat="45.152965" lon="8.1043033"><ele>231.0</ele><time>2026-05-01T10:12:26.155Z</time></trkpt><trkpt lat="45.1529167" lon="8.10416"><ele>234.0</ele><time>2026-05-01T10:12:27.153Z</time></trkpt><trkpt lat="45.1528683" lon="8.1040133"><ele>237.0</ele><time>2026-05-01T10:12:28.157Z</time></trkpt><trkpt lat="45.15282" lon="8.103865"><ele>240.0</ele><time>2026-05-01T10:12:29.155Z</time></trkpt><trkpt lat="45.15277" lon="8.103715"><ele>243.0</ele><time>2026-05-01T10:12:30.156Z</time></trkpt><trkpt lat="45.15272" lon="8.1035633"><ele>243.0</ele><time>2026-05-01T10:12:31.156Z</time></trkpt><trkpt lat="45.15267" lon="8.1034167"><ele>243.0</ele><time>2026-05-01T10:12:32.164Z</time></trkpt><trkpt lat="45.15262" lon="8.10328"><ele>243.0</ele><time>2026-05-01T10:12:33.157Z</time></trkpt><trkpt lat="45.15258" lon="8.1031583"><ele>243.0</ele><time>2026-05-01T10:12:34.154Z</time></trkpt><trkpt lat="45.15256" lon="8.10305"><ele>243.0</ele><time>2026-05-01T10:12:35.153Z</time></trkpt><trkpt lat="45.1525533" lon="8.1029533"><ele>244.8</ele><time>2026-05-01T10:12:36.154Z</time></trkpt><trkpt lat="45.1526133" lon="8.1028583"><ele>246.60000000000002</ele><time>2026-05-01T10:12:38.153Z</time></trkpt><trkpt lat="45.1527167" lon="8.1029017"><ele>248.39999999999998</ele><time>2026-05-01T10:12:40.152Z</time></trkpt><trkpt lat="45.1527883" lon="8.1029783"><ele>250.2</ele><time>2026-05-01T10:12:41.153Z</time></trkpt><trkpt lat="45.1528667" lon="8.1030767"><ele>252.0</ele><time>2026-05-01T10:12:42.152Z</time></trkpt><trkpt lat="45.15295" lon="8.10318"><ele>253.0</ele><time>2026-05-01T10:12:43.153Z</time></trkpt><trkpt lat="45.1530317" lon="8.1032717"><ele>254.0</ele><time>2026-05-01T10:12:44.156Z</time></trkpt><trkpt lat="45.1531117" lon="8.1033583"><ele>255.0</ele><time>2026-05-01T10:12:45.154Z</time></trkpt><trkpt lat="45.153195" lon="8.1034333"><ele>256.0</ele><time>2026-05-01T10:12:46.157Z</time></trkpt><trkpt lat="45.15327" lon="8.10349"><ele>257.0</ele><time>2026-05-01T10:12:47.157Z</time></trkpt><trkpt lat="45.153345" lon="8.10353"><ele>257.0</ele><time>2026-05-01T10:12:48.156Z</time></trkpt><trkpt lat="45.1534333" lon="8.1034317"><ele>257.0</ele><time>2026-05-01T10:12:50.153Z</time></trkpt><trkpt lat="45.153435" lon="8.1033383"><ele>257.0</ele><time>2026-05-01T10:12:51.157Z</time></trkpt><trkpt lat="45.1534167" lon="8.1032483"><ele>257.0</ele><time>2026-05-01T10:12:52.155Z</time></trkpt><trkpt lat="45.1533783" lon="8.1031567"><ele>257.0</ele><time>2026-05-01T10:12:53.155Z</time></trkpt><trkpt lat="45.1533133" lon="8.10305"><ele>257.0</ele><time>2026-05-01T10:12:54.157Z</time></trkpt><trkpt lat="45.1532467" lon="8.10293"><ele>257.0</ele><time>2026-05-01T10:12:55.156Z</time></trkpt><trkpt lat="45.15319" lon="8.1027983"><ele>257.0</ele><time>2026-05-01T10:12:56.154Z</time></trkpt><trkpt lat="45.1531383" lon="8.1026533"><ele>257.0</ele><time>2026-05-01T10:12:57.154Z</time></trkpt><trkpt lat="45.1530883" lon="8.1025083"><ele>257.0</ele><time>2026-05-01T10:12:58.153Z</time></trkpt><trkpt lat="45.1530467" lon="8.1023583"><ele>257.0</ele><time>2026-05-01T10:12:59.161Z</time></trkpt><trkpt lat="45.153015" lon="8.1022"><ele>257.0</ele><time>2026-05-01T10:13:00.153Z</time></trkpt><trkpt lat="45.1530017" lon="8.1020283"><ele>257.0</ele><time>2026-05-01T10:13:01.159Z</time></trkpt><trkpt lat="45.153" lon="8.1018517"><ele>257.0</ele><time>2026-05-01T10:13:02.159Z</time></trkpt><trkpt lat="45.1530033" lon="8.1016717"><ele>258.75</ele><time>2026-05-01T10:13:03.151Z</time></trkpt><trkpt lat="45.1530117" lon="8.1015"><ele>260.5</ele><time>2026-05-01T10:13:04.154Z</time></trkpt><trkpt lat="45.1530283" lon="8.1013367"><ele>262.25</ele><time>2026-05-01T10:13:05.17Z</time></trkpt><trkpt lat="45.15306" lon="8.101185"><ele>264.0</ele><time>2026-05-01T10:13:06.154Z</time></trkpt><trkpt lat="45.15311" lon="8.1010433"><ele>264.0</ele><time>2026-05-01T10:13:07.156Z</time></trkpt><trkpt lat="45.153155" lon="8.10091"><ele>264.0</ele><time>2026-05-01T10:13:08.154Z</time></trkpt><trkpt lat="45.15318" lon="8.10077"><ele>264.0</ele><time>2026-05-01T10:13:09.155Z</time></trkpt><trkpt lat="45.1531733" lon="8.1006217"><ele>264.0</ele><time>2026-05-01T10:13:10.152Z</time></trkpt><trkpt lat="45.153155" lon="8.1004733"><ele>264.0</ele><time>2026-05-01T10:13:11.157Z</time></trkpt><trkpt lat="45.1531367" lon="8.1003233"><ele>266.0</ele><time>2026-05-01T10:13:12.151Z</time></trkpt><trkpt lat="45.1531317" lon="8.1001717"><ele>268.0</ele><time>2026-05-01T10:13:13.153Z</time></trkpt><trkpt lat="45.1531517" lon="8.1000167"><ele>270.0</ele><time>2026-05-01T10:13:14.153Z</time></trkpt><trkpt lat="45.1531883" lon="8.0998617"><ele>272.0</ele><time>2026-05-01T10:13:15.151Z</time></trkpt><trkpt lat="45.153235" lon="8.0997033"><ele>274.25</ele><time>2026-05-01T10:13:16.152Z</time></trkpt><trkpt lat="45.1532917" lon="8.0995417"><ele>276.5</ele><time>2026-05-01T10:13:17.154Z</time></trkpt><trkpt lat="45.1533617" lon="8.099385"><ele>278.75</ele><time>2026-05-01T10:13:18.154Z</time></trkpt><trkpt lat="45.1534383" lon="8.0992183"><ele>281.0</ele><time>2026-05-01T10:13:19.156Z</time></trkpt><trkpt lat="45.15352" lon="8.0990483"><ele>282.0</ele><time>2026-05-01T10:13:20.153Z</time></trkpt><trkpt lat="45.1536033" lon="8.0988767"><ele>283.0</ele><time>2026-05-01T10:13:21.153Z</time></trkpt><trkpt lat="45.153685" lon="8.0987117"><ele>284.0</ele><time>2026-05-01T10:13:22.153Z</time></trkpt><trkpt lat="45.153765" lon="8.0985433"><ele>285.0</ele><time>2026-05-01T10:13:23.157Z</time></trkpt><trkpt lat="45.1538433" lon="8.098375"><ele>284.5</ele><time>2026-05-01T10:13:24.156Z</time></trkpt><trkpt lat="45.15392" lon="8.098205"><ele>284.0</ele><time>2026-05-01T10:13:25.155Z</time></trkpt><trkpt lat="45.1539967" lon="8.0980333"><ele>283.5</ele><time>2026-05-01T10:13:26.157Z</time></trkpt><trkpt lat="45.1540767" lon="8.0978667"><ele>283.0</ele><time>2026-05-01T10:13:27.153Z</time></trkpt><trkpt lat="45.1541533" lon="8.0977067"><ele>283.0</ele><time>2026-05-01T10:13:28.161Z</time></trkpt><trkpt lat="45.1542317" lon="8.0975567"><ele>283.0</ele><time>2026-05-01T10:13:29.161Z</time></trkpt><trkpt lat="45.1543017" lon="8.09741"><ele>283.0</ele><time>2026-05-01T10:13:30.161Z</time></trkpt><trkpt lat="45.1543667" lon="8.0972767"><ele>283.0</ele><time>2026-05-01T10:13:31.153Z</time></trkpt><trkpt lat="45.1544183" lon="8.0971333"><ele>283.5</ele><time>2026-05-01T10:13:32.154Z</time></trkpt><trkpt lat="45.1544583" lon="8.0969817"><ele>284.0</ele><time>2026-05-01T10:13:33.154Z</time></trkpt><trkpt lat="45.1544833" lon="8.0968217"><ele>284.5</ele><time>2026-05-01T10:13:34.153Z</time></trkpt><trkpt lat="45.1544983" lon="8.0966533"><ele>285.0</ele><time>2026-05-01T10:13:35.155Z</time></trkpt><trkpt lat="45.15451" lon="8.0964867"><ele>285.5</ele><time>2026-05-01T10:13:36.154Z</time></trkpt><trkpt lat="45.1545217" lon="8.096315"><ele>286.0</ele><time>2026-05-01T10:13:37.154Z</time></trkpt><trkpt lat="45.1545333" lon="8.0961433"><ele>286.5</ele><time>2026-05-01T10:13:38.154Z</time></trkpt><trkpt lat="45.1545533" lon="8.09597"><ele>287.0</ele><time>2026-05-01T10:13:39.157Z</time></trkpt><trkpt lat="45.15458" lon="8.0958"><ele>288.5</ele><time>2026-05-01T10:13:40.157Z</time></trkpt><trkpt lat="45.15462" lon="8.0956317"><ele>290.0</ele><time>2026-05-01T10:13:41.157Z</time></trkpt><trkpt lat="45.1546617" lon="8.0954667"><ele>291.5</ele><time>2026-05-01T10:13:42.158Z</time></trkpt><trkpt lat="45.1547083" lon="8.09531"><ele>293.0</ele><time>2026-05-01T10:13:43.152Z</time></trkpt><trkpt lat="45.154755" lon="8.0951517"><ele>293.0</ele><time>2026-05-01T10:13:44.156Z</time></trkpt><trkpt lat="45.1548" lon="8.0949917"><ele>293.0</ele><time>2026-05-01T10:13:45.152Z</time></trkpt><trkpt lat="45.1548417" lon="8.094825"><ele>293.0</ele><time>2026-05-01T10:13:46.155Z</time></trkpt><trkpt lat="45.1548883" lon="8.0946583"><ele>293.0</ele><time>2026-05-01T10:13:47.153Z</time></trkpt><trkpt lat="45.1549317" lon="8.094495"><ele>293.0</ele><time>2026-05-01T10:13:48.157Z</time></trkpt><trkpt lat="45.1549783" lon="8.094335"><ele>293.0</ele><time>2026-05-01T10:13:49.156Z</time></trkpt><trkpt lat="45.1550167" lon="8.0941833"><ele>293.0</ele><time>2026-05-01T10:13:50.15Z</time></trkpt><trkpt lat="45.1550467" lon="8.0940467"><ele>293.0</ele><time>2026-05-01T10:13:51.152Z</time></trkpt><trkpt lat="45.15507" lon="8.09394"><ele>293.0</ele><time>2026-05-01T10:13:52.156Z</time></trkpt><trkpt lat="45.1550917" lon="8.0938533"><ele>293.6666666666667</ele><time>2026-05-01T10:13:53.154Z</time></trkpt><trkpt lat="45.1551217" lon="8.09375"><ele>294.33333333333337</ele><time>2026-05-01T10:13:55.153Z</time></trkpt><trkpt lat="45.1552067" lon="8.09368"><ele>295.0</ele><time>2026-05-01T10:13:57.158Z</time></trkpt><trkpt lat="45.155275" lon="8.0936633"><ele>295.6666666666667</ele><time>2026-05-01T10:13:58.152Z</time></trkpt><trkpt lat="45.155355" lon="8.09365"><ele>296.3333333333333</ele><time>2026-05-01T10:13:59.156Z</time></trkpt><trkpt lat="45.1554417" lon="8.09364"><ele>297.0</ele><time>2026-05-01T10:14:00.154Z</time></trkpt><trkpt lat="45.155535" lon="8.0936267"><ele>297.0</ele><time>2026-05-01T10:14:01.159Z</time></trkpt><trkpt lat="45.1556333" lon="8.093615"><ele>297.0</ele><time>2026-05-01T10:14:02.153Z</time></trkpt><trkpt lat="45.1557267" lon="8.0936033"><ele>297.0</ele><time>2026-05-01T10:14:03.157Z</time></trkpt><trkpt lat="45.1558183" lon="8.0935883"><ele>297.0</ele><time>2026-05-01T10:14:04.159Z</time></trkpt><trkpt lat="45.15591" lon="8.0935683"><ele>297.0</ele><time>2026-05-01T10:14:05.161Z</time></trkpt><trkpt lat="45.1560017" lon="8.09355"><ele>296.3333333333333</ele><time>2026-05-01T10:14:06.156Z</time></trkpt><trkpt lat="45.1561" lon="8.0935317"><ele>295.6666666666667</ele><time>2026-05-01T10:14:07.155Z</time></trkpt><trkpt lat="45.1561883" lon="8.093515"><ele>295.0</ele><time>2026-05-01T10:14:08.161Z</time></trkpt><trkpt lat="45.1562683" lon="8.0935033"><ele>294.33333333333337</ele><time>2026-05-01T10:14:09.155Z</time></trkpt><trkpt lat="45.1563433" lon="8.0934883"><ele>293.6666666666667</ele><time>2026-05-01T10:14:10.156Z</time></trkpt><trkpt lat="45.15641" lon="8.09348"><ele>293.0</ele><time>2026-05-01T10:14:11.154Z</time></trkpt><trkpt lat="45.1564783" lon="8.0934767"><ele>292.4285714285714</ele><time>2026-05-01T10:14:12.156Z</time></trkpt><trkpt lat="45.1565433" lon="8.09349"><ele>291.85714285714283</ele><time>2026-05-01T10:14:13.159Z</time></trkpt><trkpt lat="45.156615" lon="8.0935017"><ele>291.2857142857143</ele><time>2026-05-01T10:14:14.153Z</time></trkpt><trkpt lat="45.1566867" lon="8.093495"><ele>290.71428571428567</ele><time>2026-05-01T10:14:15.155Z</time></trkpt><trkpt lat="45.1567633" lon="8.0934883"><ele>290.1428571428571</ele><time>2026-05-01T10:14:16.151Z</time></trkpt><trkpt lat="45.1568383" lon="8.0934833"><ele>289.57142857142856</ele><time>2026-05-01T10:14:17.154Z</time></trkpt><trkpt lat="45.1569133" lon="8.0934767"><ele>289.0</ele><time>2026-05-01T10:14:18.155Z</time></trkpt><trkpt lat="45.156985" lon="8.0934583"><ele>289.0</ele><time>2026-05-01T10:14:19.155Z</time></trkpt><trkpt lat="45.1570533" lon="8.0934417"><ele>289.0</ele><time>2026-05-01T10:14:20.155Z</time></trkpt><trkpt lat="45.157155" lon="8.0933967"><ele>289.0</ele><time>2026-05-01T10:14:22.158Z</time></trkpt><trkpt lat="45.15721" lon="8.0932767"><ele>289.0</ele><time>2026-05-01T10:14:24.157Z</time></trkpt><trkpt lat="45.157235" lon="8.0930967"><ele>289.0</ele><time>2026-05-01T10:14:26.156Z</time></trkpt><trkpt lat="45.15722" lon="8.0930033"><ele>288.8333333333333</ele><time>2026-05-01T10:14:27.152Z</time></trkpt><trkpt lat="45.157185" lon="8.092895"><ele>288.66666666666663</ele><time>2026-05-01T10:14:28.161Z</time></trkpt><trkpt lat="45.157155" lon="8.09279"><ele>288.5</ele><time>2026-05-01T10:14:29.164Z</time></trkpt><trkpt lat="45.1571033" lon="8.0926867"><ele>288.3333333333333</ele><time>2026-05-01T10:14:30.156Z</time></trkpt><trkpt lat="45.157055" lon="8.0925867"><ele>288.1666666666667</ele><time>2026-05-01T10:14:31.158Z</time></trkpt><trkpt lat="45.1570033" lon="8.0924817"><ele>288.0</ele><time>2026-05-01T10:14:32.155Z</time></trkpt><trkpt lat="45.1569583" lon="8.0923767"><ele>286.0</ele><time>2026-05-01T10:14:33.154Z</time></trkpt><trkpt lat="45.15691" lon="8.0922717"><ele>284.0</ele><time>2026-05-01T10:14:34.156Z</time></trkpt><trkpt lat="45.156865" lon="8.09216"><ele>282.0</ele><time>2026-05-01T10:14:35.156Z</time></trkpt><trkpt lat="45.1568233" lon="8.0920483"><ele>280.0</ele><time>2026-05-01T10:14:36.155Z</time></trkpt><trkpt lat="45.156785" lon="8.09193"><ele>278.0</ele><time>2026-05-01T10:14:37.166Z</time></trkpt><trkpt lat="45.156745" lon="8.0918067"><ele>278.0</ele><time>2026-05-01T10:14:38.153Z</time></trkpt><trkpt lat="45.1567017" lon="8.0916867"><ele>278.0</ele><time>2026-05-01T10:14:39.152Z</time></trkpt><trkpt lat="45.1566533" lon="8.0915667"><ele>278.0</ele><time>2026-05-01T10:14:40.16Z</time></trkpt><trkpt lat="45.1566" lon="8.0914433"><ele>278.0</ele><time>2026-05-01T10:14:41.159Z</time></trkpt><trkpt lat="45.1565367" lon="8.0913217"><ele>278.0</ele><time>2026-05-01T10:14:42.151Z</time></trkpt><trkpt lat="45.1564683" lon="8.0911983"><ele>278.5</ele><time>2026-05-01T10:14:43.153Z</time></trkpt><trkpt lat="45.1563983" lon="8.0910733"><ele>279.0</ele><time>2026-05-01T10:14:44.156Z</time></trkpt><trkpt lat="45.1563233" lon="8.0909433"><ele>279.5</ele><time>2026-05-01T10:14:45.154Z</time></trkpt><trkpt lat="45.1562483" lon="8.0908067"><ele>280.0</ele><time>2026-05-01T10:14:46.154Z</time></trkpt><trkpt lat="45.1561717" lon="8.0906667"><ele>277.75</ele><time>2026-05-01T10:14:47.153Z</time></trkpt><trkpt lat="45.156095" lon="8.0905217"><ele>275.5</ele><time>2026-05-01T10:14:48.155Z</time></trkpt><trkpt lat="45.156015" lon="8.09038"><ele>273.25</ele><time>2026-05-01T10:14:49.156Z</time></trkpt><trkpt lat="45.1559317" lon="8.090245"><ele>271.0</ele><time>2026-05-01T10:14:50.155Z</time></trkpt><trkpt lat="45.1558383" lon="8.0901183"><ele>271.0</ele><time>2026-05-01T10:14:51.154Z</time></trkpt><trkpt lat="45.1557383" lon="8.0899983"><ele>271.0</ele><time>2026-05-01T10:14:52.152Z</time></trkpt><trkpt lat="45.1556383" lon="8.0898833"><ele>271.0</ele><time>2026-05-01T10:14:53.153Z</time></trkpt><trkpt lat="45.155545" lon="8.089765"><ele>271.0</ele><time>2026-05-01T10:14:54.152Z</time></trkpt><trkpt lat="45.15546" lon="8.0896383"><ele>270.5</ele><time>2026-05-01T10:14:55.155Z</time></trkpt><trkpt lat="45.15538" lon="8.0895067"><ele>270.0</ele><time>2026-05-01T10:14:56.154Z</time></trkpt><trkpt lat="45.15531" lon="8.0893633"><ele>269.5</ele><time>2026-05-01T10:14:57.155Z</time></trkpt><trkpt lat="45.1552483" lon="8.08922"><ele>269.0</ele><time>2026-05-01T10:14:58.152Z</time></trkpt><trkpt lat="45.155185" lon="8.08908"><ele>267.0</ele><time>2026-05-01T10:14:59.153Z</time></trkpt><trkpt lat="45.1551167" lon="8.0889417"><ele>265.0</ele><time>2026-05-01T10:15:00.159Z</time></trkpt><trkpt lat="45.15505" lon="8.0888017"><ele>263.0</ele><time>2026-05-01T10:15:01.155Z</time></trkpt><trkpt lat="45.1549833" lon="8.08866"><ele>261.0</ele><time>2026-05-01T10:15:02.156Z</time></trkpt><trkpt lat="45.1549183" lon="8.0885233"><ele>262.8</ele><time>2026-05-01T10:15:03.155Z</time></trkpt><trkpt lat="45.1548583" lon="8.0883833"><ele>264.6</ele><time>2026-05-01T10:15:04.154Z</time></trkpt><trkpt lat="45.15481" lon="8.08824"><ele>266.4</ele><time>2026-05-01T10:15:05.16Z</time></trkpt><trkpt lat="45.1547983" lon="8.0880933"><ele>268.2</ele><time>2026-05-01T10:15:06.151Z</time></trkpt><trkpt lat="45.1548083" lon="8.0879533"><ele>270.0</ele><time>2026-05-01T10:15:07.154Z</time></trkpt><trkpt lat="45.1548467" lon="8.0878267"><ele>268.2</ele><time>2026-05-01T10:15:08.155Z</time></trkpt><trkpt lat="45.1549083" lon="8.0877117"><ele>266.4</ele><time>2026-05-01T10:15:09.153Z</time></trkpt><trkpt lat="45.154985" lon="8.087605"><ele>264.6</ele><time>2026-05-01T10:15:10.155Z</time></trkpt><trkpt lat="45.1550667" lon="8.0874967"><ele>262.8</ele><time>2026-05-01T10:15:11.156Z</time></trkpt><trkpt lat="45.155145" lon="8.0873783"><ele>261.0</ele><time>2026-05-01T10:15:12.153Z</time></trkpt><trkpt lat="45.15521" lon="8.0872417"><ele>260.25</ele><time>2026-05-01T10:15:13.155Z</time></trkpt><trkpt lat="45.1552483" lon="8.087095"><ele>259.5</ele><time>2026-05-01T10:15:14.153Z</time></trkpt><trkpt lat="45.1552667" lon="8.0869383"><ele>258.75</ele><time>2026-05-01T10:15:15.152Z</time></trkpt><trkpt lat="45.1552733" lon="8.0867783"><ele>258.0</ele><time>2026-05-01T10:15:16.15Z</time></trkpt><trkpt lat="45.1552633" lon="8.0866117"><ele>258.25</ele><time>2026-05-01T10:15:17.154Z</time></trkpt><trkpt lat="45.155255" lon="8.0864383"><ele>258.5</ele><time>2026-05-01T10:15:18.156Z</time></trkpt><trkpt lat="45.1552533" lon="8.086265"><ele>258.75</ele><time>2026-05-01T10:15:19.152Z</time></trkpt><trkpt lat="45.1552633" lon="8.0860883"><ele>259.0</ele><time>2026-05-01T10:15:20.155Z</time></trkpt><trkpt lat="45.1552867" lon="8.0859117"><ele>257.5</ele><time>2026-05-01T10:15:21.149Z</time></trkpt><trkpt lat="45.155325" lon="8.0857383"><ele>256.0</ele><time>2026-05-01T10:15:22.153Z</time></trkpt><trkpt lat="45.15538" lon="8.0855717"><ele>254.5</ele><time>2026-05-01T10:15:23.151Z</time></trkpt><trkpt lat="45.1554383" lon="8.085405"><ele>253.0</ele><time>2026-05-01T10:15:24.157Z</time></trkpt><trkpt lat="45.155495" lon="8.0852333"><ele>253.0</ele><time>2026-05-01T10:15:25.16Z</time></trkpt><trkpt lat="45.1555517" lon="8.0850617"><ele>253.0</ele><time>2026-05-01T10:15:26.153Z</time></trkpt><trkpt lat="45.15561" lon="8.08489"><ele>253.0</ele><time>2026-05-01T10:15:27.156Z</time></trkpt><trkpt lat="45.155665" lon="8.0847167"><ele>253.0</ele><time>2026-05-01T10:15:28.154Z</time></trkpt><trkpt lat="45.1557183" lon="8.08455"><ele>251.0</ele><time>2026-05-01T10:15:29.155Z</time></trkpt><trkpt lat="45.1557617" lon="8.0843967"><ele>249.0</ele><time>2026-05-01T10:15:30.151Z</time></trkpt><trkpt lat="45.1557867" lon="8.0842533"><ele>247.0</ele><time>2026-05-01T10:15:31.152Z</time></trkpt><trkpt lat="45.155775" lon="8.084125"><ele>245.0</ele><time>2026-05-01T10:15:32.155Z</time></trkpt><trkpt lat="45.1557417" lon="8.0839983"><ele>243.0</ele><time>2026-05-01T10:15:33.155Z</time></trkpt><trkpt lat="45.15569" lon="8.0838767"><ele>242.60000000000002</ele><time>2026-05-01T10:15:34.157Z</time></trkpt><trkpt lat="45.1556333" lon="8.0837567"><ele>242.20000000000002</ele><time>2026-05-01T10:15:35.153Z</time></trkpt><trkpt lat="45.1555783" lon="8.0836383"><ele>241.8</ele><time>2026-05-01T10:15:36.153Z</time></trkpt><trkpt lat="45.1555183" lon="8.0835333"><ele>241.4</ele><time>2026-05-01T10:15:37.155Z</time></trkpt><trkpt lat="45.1554733" lon="8.0834383"><ele>241.0</ele><time>2026-05-01T10:15:38.154Z</time></trkpt><trkpt lat="45.155435" lon="8.08335"><ele>238.49999999999997</ele><time>2026-05-01T10:15:39.15Z</time></trkpt><trkpt lat="45.155425" lon="8.0832567"><ele>236.0</ele><time>2026-05-01T10:15:40.154Z</time></trkpt><trkpt lat="45.15543" lon="8.0831633"><ele>233.5</ele><time>2026-05-01T10:15:41.152Z</time></trkpt><trkpt lat="45.1554617" lon="8.0830667"><ele>231.0</ele><time>2026-05-01T10:15:42.153Z</time></trkpt><trkpt lat="45.15552" lon="8.082965"><ele>228.49999999999997</ele><time>2026-05-01T10:15:43.15Z</time></trkpt><trkpt lat="45.155595" lon="8.08284"><ele>226.0</ele><time>2026-05-01T10:15:44.159Z</time></trkpt><trkpt lat="45.1556667" lon="8.0827167"><ele>226.20000000000002</ele><time>2026-05-01T10:15:45.154Z</time></trkpt><trkpt lat="45.15572" lon="8.08259"><ele>226.40000000000003</ele><time>2026-05-01T10:15:46.151Z</time></trkpt><trkpt lat="45.155785" lon="8.0824683"><ele>226.6</ele><time>2026-05-01T10:15:47.155Z</time></trkpt><trkpt lat="45.1558417" lon="8.08235"><ele>226.8</ele><time>2026-05-01T10:15:48.158Z</time></trkpt><trkpt lat="45.1558883" lon="8.0822217"><ele>227.0</ele><time>2026-05-01T10:15:49.152Z</time></trkpt><trkpt lat="45.1559233" lon="8.08209"><ele>227.0</ele><time>2026-05-01T10:15:50.154Z</time></trkpt><trkpt lat="45.155955" lon="8.081955"><ele>227.0</ele><time>2026-05-01T10:15:51.157Z</time></trkpt><trkpt lat="45.1559933" lon="8.0818067"><ele>227.0</ele><time>2026-05-01T10:15:52.155Z</time></trkpt><trkpt lat="45.15603" lon="8.081655"><ele>227.0</ele><time>2026-05-01T10:15:53.151Z</time></trkpt><trkpt lat="45.1560617" lon="8.0814967"><ele>227.0</ele><time>2026-05-01T10:15:54.153Z</time></trkpt><trkpt lat="45.1560933" lon="8.0813367"><ele>225.25</ele><time>2026-05-01T10:15:55.155Z</time></trkpt><trkpt lat="45.1561333" lon="8.0811767"><ele>223.5</ele><time>2026-05-01T10:15:56.154Z</time></trkpt><trkpt lat="45.15617" lon="8.0810133"><ele>221.75</ele><time>2026-05-01T10:15:57.151Z</time></trkpt><trkpt lat="45.156205" lon="8.0808517"><ele>220.0</ele><time>2026-05-01T10:15:58.154Z</time></trkpt><trkpt lat="45.1562333" lon="8.0807117"><ele>218.16666666666666</ele><time>2026-05-01T10:15:59.157Z</time></trkpt><trkpt lat="45.1562617" lon="8.0806"><ele>216.33333333333331</ele><time>2026-05-01T10:16:00.154Z</time></trkpt><trkpt lat="45.15627" lon="8.0805067"><ele>214.5</ele><time>2026-05-01T10:16:01.152Z</time></trkpt><trkpt lat="45.1562517" lon="8.080355"><ele>212.66666666666669</ele><time>2026-05-01T10:16:03.153Z</time></trkpt><trkpt lat="45.1561783" lon="8.080355"><ele>210.83333333333334</ele><time>2026-05-01T10:16:04.151Z</time></trkpt><trkpt lat="45.1561167" lon="8.080375"><ele>209.0</ele><time>2026-05-01T10:16:05.158Z</time></trkpt><trkpt lat="45.156045" lon="8.0804167"><ele>209.0</ele><time>2026-05-01T10:16:06.151Z</time></trkpt><trkpt lat="45.155975" lon="8.08048"><ele>209.0</ele><time>2026-05-01T10:16:07.156Z</time></trkpt><trkpt lat="45.1559083" lon="8.0805767"><ele>209.0</ele><time>2026-05-01T10:16:08.156Z</time></trkpt><trkpt lat="45.155835" lon="8.0807083"><ele>209.0</ele><time>2026-05-01T10:16:09.16Z</time></trkpt><trkpt lat="45.1557583" lon="8.0808283"><ele>209.0</ele><time>2026-05-01T10:16:10.152Z</time></trkpt><trkpt lat="45.1556867" lon="8.0809467"><ele>208.50000000000003</ele><time>2026-05-01T10:16:11.155Z</time></trkpt><trkpt lat="45.1556133" lon="8.0810567"><ele>208.0</ele><time>2026-05-01T10:16:12.156Z</time></trkpt><trkpt lat="45.1555433" lon="8.081155"><ele>207.5</ele><time>2026-05-01T10:16:13.155Z</time></trkpt><trkpt lat="45.1554783" lon="8.0812267"><ele>207.0</ele><time>2026-05-01T10:16:14.15Z</time></trkpt><trkpt lat="45.15542" lon="8.0812883"><ele>206.50000000000003</ele><time>2026-05-01T10:16:15.153Z</time></trkpt><trkpt lat="45.1553533" lon="8.0812783"><ele>206.0</ele><time>2026-05-01T10:16:16.153Z</time></trkpt><trkpt lat="45.1552767" lon="8.081135"><ele>206.0</ele><time>2026-05-01T10:16:18.154Z</time></trkpt><trkpt lat="45.1552667" lon="8.0810383"><ele>206.0</ele><time>2026-05-01T10:16:19.156Z</time></trkpt><trkpt lat="45.1552833" lon="8.0809167"><ele>206.0</ele><time>2026-05-01T10:16:20.154Z</time></trkpt><trkpt lat="45.1553317" lon="8.0807717"><ele>206.0</ele><time>2026-05-01T10:16:21.152Z</time></trkpt><trkpt lat="45.1554" lon="8.0806167"><ele>206.0</ele><time>2026-05-01T10:16:22.151Z</time></trkpt><trkpt lat="45.155465" lon="8.0804533"><ele>204.0</ele><time>2026-05-01T10:16:23.153Z</time></trkpt><trkpt lat="45.155525" lon="8.0802867"><ele>202.0</ele><time>2026-05-01T10:16:24.154Z</time></trkpt><trkpt lat="45.1555867" lon="8.08012"><ele>200.0</ele><time>2026-05-01T10:16:25.153Z</time></trkpt><trkpt lat="45.15566" lon="8.0799617"><ele>198.0</ele><time>2026-05-01T10:16:26.153Z</time></trkpt><trkpt lat="45.155735" lon="8.079805"><ele>198.0</ele><time>2026-05-01T10:16:27.153Z</time></trkpt><trkpt lat="45.155815" lon="8.07965"><ele>198.0</ele><time>2026-05-01T10:16:28.153Z</time></trkpt><trkpt lat="45.1559033" lon="8.079505"><ele>198.0</ele><time>2026-05-01T10:16:29.155Z</time></trkpt><trkpt lat="45.1560017" lon="8.0793717"><ele>198.0</ele><time>2026-05-01T10:16:30.15Z</time></trkpt><trkpt lat="45.1560967" lon="8.07924"><ele>198.0</ele><time>2026-05-01T10:16:31.157Z</time></trkpt><trkpt lat="45.1561833" lon="8.0791017"><ele>198.0</ele><time>2026-05-01T10:16:32.157Z</time></trkpt><trkpt lat="45.15626" lon="8.0789533"><ele>198.0</ele><time>2026-05-01T10:16:33.151Z</time></trkpt><trkpt lat="45.1563267" lon="8.078795"><ele>198.0</ele><time>2026-05-01T10:16:34.154Z</time></trkpt><trkpt lat="45.1563733" lon="8.0786233"><ele>196.75</ele><time>2026-05-01T10:16:35.155Z</time></trkpt><trkpt lat="45.1563983" lon="8.078435"><ele>195.5</ele><time>2026-05-01T10:16:36.154Z</time></trkpt><trkpt lat="45.1564033" lon="8.0782417"><ele>194.25</ele><time>2026-05-01T10:16:37.152Z</time></trkpt><trkpt lat="45.15639" lon="8.0780433"><ele>193.0</ele><time>2026-05-01T10:16:38.154Z</time></trkpt><trkpt lat="45.15637" lon="8.0778467"><ele>191.8</ele><time>2026-05-01T10:16:39.153Z</time></trkpt><trkpt lat="45.1563517" lon="8.077665"><ele>190.60000000000002</ele><time>2026-05-01T10:16:40.15Z</time></trkpt><trkpt lat="45.1563433" lon="8.0775133"><ele>189.39999999999998</ele><time>2026-05-01T10:16:41.154Z</time></trkpt><trkpt lat="45.156355" lon="8.0773783"><ele>188.2</ele><time>2026-05-01T10:16:42.153Z</time></trkpt><trkpt lat="45.1564083" lon="8.077255"><ele>187.0</ele><time>2026-05-01T10:16:43.155Z</time></trkpt><trkpt lat="45.1564767" lon="8.077145"><ele>186.75</ele><time>2026-05-01T10:16:44.15Z</time></trkpt><trkpt lat="45.156565" lon="8.0770433"><ele>186.5</ele><time>2026-05-01T10:16:45.151Z</time></trkpt><trkpt lat="45.1566633" lon="8.0769433"><ele>186.25</ele><time>2026-05-01T10:16:46.153Z</time></trkpt><trkpt lat="45.1567633" lon="8.07684"><ele>186.0</ele><time>2026-05-01T10:16:47.151Z</time></trkpt><trkpt lat="45.1568617" lon="8.0767217"><ele>184.5</ele><time>2026-05-01T10:16:48.154Z</time></trkpt><trkpt lat="45.15695" lon="8.0765817"><ele>183.0</ele><time>2026-05-01T10:16:49.152Z</time></trkpt><trkpt lat="45.1570283" lon="8.0764183"><ele>181.5</ele><time>2026-05-01T10:16:50.15Z</time></trkpt><trkpt lat="45.157095" lon="8.07624"><ele>180.0</ele><time>2026-05-01T10:16:51.153Z</time></trkpt><trkpt lat="45.1571617" lon="8.07605"><ele>180.0</ele><time>2026-05-01T10:16:52.15Z</time></trkpt><trkpt lat="45.1572283" lon="8.0758583"><ele>180.0</ele><time>2026-05-01T10:16:53.155Z</time></trkpt><trkpt lat="45.1572933" lon="8.075665"><ele>180.0</ele><time>2026-05-01T10:16:54.153Z</time></trkpt><trkpt lat="45.157355" lon="8.0754717"><ele>179.25</ele><time>2026-05-01T10:16:55.157Z</time></trkpt><trkpt lat="45.15742" lon="8.07528"><ele>178.5</ele><time>2026-05-01T10:16:56.153Z</time></trkpt><trkpt lat="45.1574833" lon="8.0750967"><ele>177.75</ele><time>2026-05-01T10:16:57.155Z</time></trkpt><trkpt lat="45.15754" lon="8.0749217"><ele>177.0</ele><time>2026-05-01T10:16:58.153Z</time></trkpt><trkpt lat="45.157585" lon="8.0747667"><ele>176.0</ele><time>2026-05-01T10:16:59.156Z</time></trkpt><trkpt lat="45.157615" lon="8.0746383"><ele>175.0</ele><time>2026-05-01T10:17:00.157Z</time></trkpt><trkpt lat="45.15764" lon="8.0745333"><ele>174.0</ele><time>2026-05-01T10:17:01.156Z</time></trkpt><trkpt lat="45.1576633" lon="8.07445"><ele>173.0</ele><time>2026-05-01T10:17:02.156Z</time></trkpt><trkpt lat="45.157705" lon="8.074335"><ele>172.0</ele><time>2026-05-01T10:17:04.153Z</time></trkpt><trkpt lat="45.1577833" lon="8.07426"><ele>171.0</ele><time>2026-05-01T10:17:07.156Z</time></trkpt><trkpt lat="45.1578683" lon="8.07426"><ele>171.0</ele><time>2026-05-01T10:17:09.158Z</time></trkpt><trkpt lat="45.157975" lon="8.074195"><ele>171.0</ele><time>2026-05-01T10:17:11.152Z</time></trkpt><trkpt lat="45.1580133" lon="8.07412"><ele>171.0</ele><time>2026-05-01T10:17:12.151Z</time></trkpt><trkpt lat="45.1579833" lon="8.0740283"><ele>171.0</ele><time>2026-05-01T10:17:13.152Z</time></trkpt><trkpt lat="45.1579517" lon="8.073945"><ele>171.0</ele><time>2026-05-01T10:17:14.151Z</time></trkpt><trkpt lat="45.1579017" lon="8.073865"><ele>171.0</ele><time>2026-05-01T10:17:15.156Z</time></trkpt><trkpt lat="45.1578317" lon="8.0738"><ele>171.0</ele><time>2026-05-01T10:17:16.149Z</time></trkpt><trkpt lat="45.1577583" lon="8.0737167"><ele>171.0</ele><time>2026-05-01T10:17:17.154Z</time></trkpt><trkpt lat="45.1577" lon="8.0736067"><ele>171.0</ele><time>2026-05-01T10:17:18.153Z</time></trkpt><trkpt lat="45.157655" lon="8.0734733"><ele>171.0</ele><time>2026-05-01T10:17:19.154Z</time></trkpt><trkpt lat="45.15761" lon="8.07332"><ele>171.0</ele><time>2026-05-01T10:17:20.158Z</time></trkpt><trkpt lat="45.1575633" lon="8.0731567"><ele>171.25</ele><time>2026-05-01T10:17:21.154Z</time></trkpt><trkpt lat="45.1575183" lon="8.0729783"><ele>171.5</ele><time>2026-05-01T10:17:22.154Z</time></trkpt><trkpt lat="45.1574683" lon="8.072795"><ele>171.75</ele><time>2026-05-01T10:17:23.154Z</time></trkpt><trkpt lat="45.1574217" lon="8.072605"><ele>172.0</ele><time>2026-05-01T10:17:24.151Z</time></trkpt><trkpt lat="45.1573717" lon="8.072415"><ele>172.25</ele><time>2026-05-01T10:17:25.155Z</time></trkpt><trkpt lat="45.15732" lon="8.0722217"><ele>172.5</ele><time>2026-05-01T10:17:26.156Z</time></trkpt><trkpt lat="45.1572683" lon="8.0720267"><ele>172.75</ele><time>2026-05-01T10:17:27.155Z</time></trkpt><trkpt lat="45.157215" lon="8.07183"><ele>173.0</ele><time>2026-05-01T10:17:28.151Z</time></trkpt><trkpt lat="45.1571617" lon="8.0716317"><ele>172.66666666666666</ele><time>2026-05-01T10:17:29.151Z</time></trkpt><trkpt lat="45.1571083" lon="8.07143"><ele>172.33333333333334</ele><time>2026-05-01T10:17:30.151Z</time></trkpt><trkpt lat="45.1570517" lon="8.07123"><ele>172.0</ele><time>2026-05-01T10:17:31.154Z</time></trkpt><trkpt lat="45.156995" lon="8.0710267"><ele>172.0</ele><time>2026-05-01T10:17:32.154Z</time></trkpt><trkpt lat="45.1569367" lon="8.07082"><ele>172.0</ele><time>2026-05-01T10:17:33.156Z</time></trkpt><trkpt lat="45.1568817" lon="8.07061"><ele>172.0</ele><time>2026-05-01T10:17:34.155Z</time></trkpt><trkpt lat="45.1568283" lon="8.0704067"><ele>172.0</ele><time>2026-05-01T10:17:35.152Z</time></trkpt><trkpt lat="45.1567733" lon="8.0702083"><ele>172.0</ele><time>2026-05-01T10:17:36.156Z</time></trkpt><trkpt lat="45.1567167" lon="8.07001"><ele>172.0</ele><time>2026-05-01T10:17:37.156Z</time></trkpt><trkpt lat="45.15666" lon="8.0698117"><ele>172.33333333333334</ele><time>2026-05-01T10:17:38.155Z</time></trkpt><trkpt lat="45.1566067" lon="8.0696117"><ele>172.66666666666666</ele><time>2026-05-01T10:17:39.156Z</time></trkpt><trkpt lat="45.1565517" lon="8.0694117"><ele>173.0</ele><time>2026-05-01T10:17:40.153Z</time></trkpt><trkpt lat="45.1565" lon="8.06921"><ele>173.33333333333331</ele><time>2026-05-01T10:17:41.154Z</time></trkpt><trkpt lat="45.1564433" lon="8.06901"><ele>173.66666666666666</ele><time>2026-05-01T10:17:42.161Z</time></trkpt><trkpt lat="45.1563883" lon="8.06881"><ele>174.0</ele><time>2026-05-01T10:17:43.155Z</time></trkpt><trkpt lat="45.1563317" lon="8.06861"><ele>174.0</ele><time>2026-05-01T10:17:44.152Z</time></trkpt><trkpt lat="45.1562767" lon="8.06841"><ele>174.0</ele><time>2026-05-01T10:17:45.157Z</time></trkpt><trkpt lat="45.156225" lon="8.0682083"><ele>174.0</ele><time>2026-05-01T10:17:46.156Z</time></trkpt><trkpt lat="45.1561717" lon="8.06801"><ele>173.5</ele><time>2026-05-01T10:17:47.157Z</time></trkpt><trkpt lat="45.15612" lon="8.0678133"><ele>173.0</ele><time>2026-05-01T10:17:48.158Z</time></trkpt><trkpt lat="45.1560667" lon="8.0676167"><ele>172.5</ele><time>2026-05-01T10:17:49.16Z</time></trkpt><trkpt lat="45.1560133" lon="8.0674217"><ele>172.0</ele><time>2026-05-01T10:17:50.153Z</time></trkpt><trkpt lat="45.1559617" lon="8.0672283"><ele>171.5</ele><time>2026-05-01T10:17:51.153Z</time></trkpt><trkpt lat="45.15591" lon="8.067035"><ele>171.0</ele><time>2026-05-01T10:17:52.151Z</time></trkpt><trkpt lat="45.1558567" lon="8.0668467"><ele>170.5</ele><time>2026-05-01T10:17:53.153Z</time></trkpt><trkpt lat="45.1558083" lon="8.0666683"><ele>170.0</ele><time>2026-05-01T10:17:54.149Z</time></trkpt><trkpt lat="45.1557633" lon="8.0665017"><ele>169.6</ele><time>2026-05-01T10:17:55.153Z</time></trkpt><trkpt lat="45.1557217" lon="8.0663517"><ele>169.2</ele><time>2026-05-01T10:17:56.15Z</time></trkpt><trkpt lat="45.1556867" lon="8.06622"><ele>168.8</ele><time>2026-05-01T10:17:57.15Z</time></trkpt><trkpt lat="45.1556567" lon="8.066095"><ele>168.4</ele><time>2026-05-01T10:17:58.149Z</time></trkpt><trkpt lat="45.15563" lon="8.0659717"><ele>168.0</ele><time>2026-05-01T10:17:59.152Z</time></trkpt><trkpt lat="45.1556117" lon="8.0658433"><ele>169.60000000000002</ele><time>2026-05-01T10:18:00.16Z</time></trkpt><trkpt lat="45.1556033" lon="8.0657083"><ele>171.20000000000002</ele><time>2026-05-01T10:18:01.152Z</time></trkpt><trkpt lat="45.155605" lon="8.0655617"><ele>172.8</ele><time>2026-05-01T10:18:02.154Z</time></trkpt><trkpt lat="45.15562" lon="8.0653983"><ele>174.4</ele><time>2026-05-01T10:18:03.15Z</time></trkpt><trkpt lat="45.1556417" lon="8.06523"><ele>176.0</ele><time>2026-05-01T10:18:04.158Z</time></trkpt><trkpt lat="45.1556633" lon="8.0650567"><ele>175.75</ele><time>2026-05-01T10:18:05.156Z</time></trkpt><trkpt lat="45.155685" lon="8.0648767"><ele>175.5</ele><time>2026-05-01T10:18:06.155Z</time></trkpt><trkpt lat="45.1557083" lon="8.0646867"><ele>175.25</ele><time>2026-05-01T10:18:07.16Z</time></trkpt><trkpt lat="45.1557317" lon="8.0644917"><ele>175.0</ele><time>2026-05-01T10:18:08.152Z</time></trkpt><trkpt lat="45.1557567" lon="8.0643"><ele>173.75</ele><time>2026-05-01T10:18:09.151Z</time></trkpt><trkpt lat="45.1557783" lon="8.06411"><ele>172.5</ele><time>2026-05-01T10:18:10.155Z</time></trkpt><trkpt lat="45.155805" lon="8.0639267"><ele>171.25</ele><time>2026-05-01T10:18:11.153Z</time></trkpt><trkpt lat="45.1558317" lon="8.063745"><ele>170.0</ele><time>2026-05-01T10:18:12.155Z</time></trkpt><trkpt lat="45.15586" lon="8.0635633"><ele>170.0</ele><time>2026-05-01T10:18:13.152Z</time></trkpt><trkpt lat="45.1558883" lon="8.0633783"><ele>170.0</ele><time>2026-05-01T10:18:14.153Z</time></trkpt><trkpt lat="45.1559133" lon="8.0631917"><ele>170.0</ele><time>2026-05-01T10:18:15.152Z</time></trkpt><trkpt lat="45.15594" lon="8.063005"><ele>170.0</ele><time>2026-05-01T10:18:16.153Z</time></trkpt><trkpt lat="45.155965" lon="8.0628183"><ele>170.25</ele><time>2026-05-01T10:18:17.153Z</time></trkpt><trkpt lat="45.1559933" lon="8.0626317"><ele>170.5</ele><time>2026-05-01T10:18:18.156Z</time></trkpt><trkpt lat="45.1560167" lon="8.0624533"><ele>170.75</ele><time>2026-05-01T10:18:19.16Z</time></trkpt><trkpt lat="45.156035" lon="8.062275"><ele>171.0</ele><time>2026-05-01T10:18:20.161Z</time></trkpt><trkpt lat="45.15605" lon="8.0620967"><ele>170.75</ele><time>2026-05-01T10:18:21.153Z</time></trkpt><trkpt lat="45.1560633" lon="8.0619217"><ele>170.5</ele><time>2026-05-01T10:18:22.154Z</time></trkpt><trkpt lat="45.1560817" lon="8.0617483"><ele>170.25</ele><time>2026-05-01T10:18:23.156Z</time></trkpt><trkpt lat="45.156095" lon="8.061575"><ele>170.0</ele><time>2026-05-01T10:18:24.156Z</time></trkpt><trkpt lat="45.156105" lon="8.0614"><ele>170.0</ele><time>2026-05-01T10:18:25.156Z</time></trkpt><trkpt lat="45.1561167" lon="8.0612267"><ele>170.0</ele><time>2026-05-01T10:18:26.154Z</time></trkpt><trkpt lat="45.1561317" lon="8.06105"><ele>170.0</ele><time>2026-05-01T10:18:27.154Z</time></trkpt><trkpt lat="45.156145" lon="8.060875"><ele>170.0</ele><time>2026-05-01T10:18:28.151Z</time></trkpt><trkpt lat="45.1561567" lon="8.0606983"><ele>170.25</ele><time>2026-05-01T10:18:29.152Z</time></trkpt><trkpt lat="45.15617" lon="8.0605217"><ele>170.5</ele><time>2026-05-01T10:18:30.154Z</time></trkpt><trkpt lat="45.1561817" lon="8.06035"><ele>170.75</ele><time>2026-05-01T10:18:31.153Z</time></trkpt><trkpt lat="45.1561867" lon="8.0601683"><ele>171.0</ele><time>2026-05-01T10:18:32.155Z</time></trkpt><trkpt lat="45.15618" lon="8.05999"><ele>171.0</ele><time>2026-05-01T10:18:33.152Z</time></trkpt><trkpt lat="45.156165" lon="8.0598033"><ele>171.0</ele><time>2026-05-01T10:18:34.155Z</time></trkpt><trkpt lat="45.1561483" lon="8.059625"><ele>171.0</ele><time>2026-05-01T10:18:35.152Z</time></trkpt><trkpt lat="45.1561233" lon="8.0594533"><ele>171.0</ele><time>2026-05-01T10:18:36.152Z</time></trkpt><trkpt lat="45.1560833" lon="8.0592867"><ele>171.0</ele><time>2026-05-01T10:18:37.157Z</time></trkpt><trkpt lat="45.156035" lon="8.05912"><ele>171.0</ele><time>2026-05-01T10:18:38.153Z</time></trkpt><trkpt lat="45.1559767" lon="8.0589567"><ele>171.0</ele><time>2026-05-01T10:18:39.152Z</time></trkpt><trkpt lat="45.15591" lon="8.0587933"><ele>171.0</ele><time>2026-05-01T10:18:40.156Z</time></trkpt><trkpt lat="45.1558367" lon="8.058635"><ele>171.0</ele><time>2026-05-01T10:18:41.151Z</time></trkpt><trkpt lat="45.15575" lon="8.0584883"><ele>171.0</ele><time>2026-05-01T10:18:42.156Z</time></trkpt><trkpt lat="45.1556617" lon="8.058345"><ele>171.0</ele><time>2026-05-01T10:18:43.153Z</time></trkpt><trkpt lat="45.1555667" lon="8.0582017"><ele>171.0</ele><time>2026-05-01T10:18:44.156Z</time></trkpt><trkpt lat="45.155465" lon="8.0580667"><ele>171.25</ele><time>2026-05-01T10:18:45.158Z</time></trkpt><trkpt lat="45.1553617" lon="8.0579317"><ele>171.5</ele><time>2026-05-01T10:18:46.157Z</time></trkpt><trkpt lat="45.155255" lon="8.057805"><ele>171.75</ele><time>2026-05-01T10:18:47.157Z</time></trkpt><trkpt lat="45.15515" lon="8.05768"><ele>172.0</ele><time>2026-05-01T10:18:48.152Z</time></trkpt><trkpt lat="45.155045" lon="8.0575617"><ele>172.0</ele><time>2026-05-01T10:18:49.154Z</time></trkpt><trkpt lat="45.1549417" lon="8.057445"><ele>172.0</ele><time>2026-05-01T10:18:50.152Z</time></trkpt><trkpt lat="45.15484" lon="8.0573267"><ele>172.0</ele><time>2026-05-01T10:18:51.15Z</time></trkpt><trkpt lat="45.1547367" lon="8.0572117"><ele>172.0</ele><time>2026-05-01T10:18:52.157Z</time></trkpt><trkpt lat="45.1546333" lon="8.0570983"><ele>172.0</ele><time>2026-05-01T10:18:53.158Z</time></trkpt><trkpt lat="45.1545333" lon="8.056975"><ele>172.0</ele><time>2026-05-01T10:18:54.158Z</time></trkpt><trkpt lat="45.154435" lon="8.0568483"><ele>172.0</ele><time>2026-05-01T10:18:55.155Z</time></trkpt><trkpt lat="45.1543367" lon="8.05672"><ele>172.0</ele><time>2026-05-01T10:18:56.154Z</time></trkpt><trkpt lat="45.1542433" lon="8.056595"><ele>171.8</ele><time>2026-05-01T10:18:57.151Z</time></trkpt><trkpt lat="45.1541533" lon="8.0564833"><ele>171.6</ele><time>2026-05-01T10:18:58.15Z</time></trkpt><trkpt lat="45.1540717" lon="8.056385"><ele>171.4</ele><time>2026-05-01T10:18:59.158Z</time></trkpt><trkpt lat="45.15399" lon="8.0563033"><ele>171.20000000000002</ele><time>2026-05-01T10:19:00.155Z</time></trkpt><trkpt lat="45.15391" lon="8.056225"><ele>171.0</ele><time>2026-05-01T10:19:01.156Z</time></trkpt><trkpt lat="45.15383" lon="8.05614"><ele>171.60000000000002</ele><time>2026-05-01T10:19:02.15Z</time></trkpt><trkpt lat="45.153755" lon="8.0560433"><ele>172.2</ele><time>2026-05-01T10:19:03.156Z</time></trkpt><trkpt lat="45.15369" lon="8.0559267"><ele>172.8</ele><time>2026-05-01T10:19:04.15Z</time></trkpt><trkpt lat="45.15363" lon="8.0557933"><ele>173.39999999999998</ele><time>2026-05-01T10:19:05.15Z</time></trkpt><trkpt lat="45.15357" lon="8.0556517"><ele>174.0</ele><time>2026-05-01T10:19:06.154Z</time></trkpt><trkpt lat="45.1535117" lon="8.0554967"><ele>174.0</ele><time>2026-05-01T10:19:07.154Z</time></trkpt><trkpt lat="45.153455" lon="8.0553333"><ele>174.0</ele><time>2026-05-01T10:19:08.15Z</time></trkpt><trkpt lat="45.1533967" lon="8.0551617"><ele>174.0</ele><time>2026-05-01T10:19:09.151Z</time></trkpt><trkpt lat="45.1533383" lon="8.0549917"><ele>174.0</ele><time>2026-05-01T10:19:10.156Z</time></trkpt><trkpt lat="45.1532783" lon="8.05482"><ele>174.0</ele><time>2026-05-01T10:19:11.161Z</time></trkpt><trkpt lat="45.1532267" lon="8.05464"><ele>174.0</ele><time>2026-05-01T10:19:12.152Z</time></trkpt><trkpt lat="45.1531717" lon="8.0544617"><ele>174.0</ele><time>2026-05-01T10:19:13.156Z</time></trkpt><trkpt lat="45.15312" lon="8.0542833"><ele>174.0</ele><time>2026-05-01T10:19:14.154Z</time></trkpt><trkpt lat="45.15307" lon="8.054105"><ele>174.0</ele><time>2026-05-01T10:19:15.154Z</time></trkpt><trkpt lat="45.153015" lon="8.0539317"><ele>174.0</ele><time>2026-05-01T10:19:16.157Z</time></trkpt><trkpt lat="45.1529633" lon="8.0537617"><ele>174.0</ele><time>2026-05-01T10:19:17.159Z</time></trkpt><trkpt lat="45.1529067" lon="8.0535917"><ele>174.0</ele><time>2026-05-01T10:19:18.155Z</time></trkpt><trkpt lat="45.15285" lon="8.0534233"><ele>174.5</ele><time>2026-05-01T10:19:19.158Z</time></trkpt><trkpt lat="45.152795" lon="8.0532567"><ele>175.0</ele><time>2026-05-01T10:19:20.154Z</time></trkpt><trkpt lat="45.1527467" lon="8.0530817"><ele>175.5</ele><time>2026-05-01T10:19:21.153Z</time></trkpt><trkpt lat="45.15269" lon="8.0529133"><ele>176.0</ele><time>2026-05-01T10:19:22.154Z</time></trkpt><trkpt lat="45.15263" lon="8.0527517"><ele>176.0</ele><time>2026-05-01T10:19:23.153Z</time></trkpt><trkpt lat="45.1525783" lon="8.0525883"><ele>176.0</ele><time>2026-05-01T10:19:24.153Z</time></trkpt><trkpt lat="45.1525233" lon="8.0524317"><ele>176.0</ele><time>2026-05-01T10:19:25.153Z</time></trkpt><trkpt lat="45.1524717" lon="8.052285"><ele>176.0</ele><time>2026-05-01T10:19:26.152Z</time></trkpt><trkpt lat="45.1524217" lon="8.052145"><ele>175.83333333333331</ele><time>2026-05-01T10:19:27.155Z</time></trkpt><trkpt lat="45.1523867" lon="8.05202"><ele>175.66666666666666</ele><time>2026-05-01T10:19:28.151Z</time></trkpt><trkpt lat="45.1523567" lon="8.051915"><ele>175.5</ele><time>2026-05-01T10:19:29.153Z</time></trkpt><trkpt lat="45.1523317" lon="8.0518283"><ele>175.33333333333334</ele><time>2026-05-01T10:19:30.149Z</time></trkpt><trkpt lat="45.15234" lon="8.0517133"><ele>175.16666666666669</ele><time>2026-05-01T10:19:32.152Z</time></trkpt><trkpt lat="45.1523583" lon="8.0515817"><ele>175.0</ele><time>2026-05-01T10:19:34.155Z</time></trkpt><trkpt lat="45.1523067" lon="8.0514833"><ele>175.4</ele><time>2026-05-01T10:19:36.156Z</time></trkpt><trkpt lat="45.1521867" lon="8.05149"><ele>175.8</ele><time>2026-05-01T10:19:38.154Z</time></trkpt><trkpt lat="45.152095" lon="8.0515617"><ele>176.2</ele><time>2026-05-01T10:19:39.155Z</time></trkpt><trkpt lat="45.152005" lon="8.0516467"><ele>176.6</ele><time>2026-05-01T10:19:40.156Z</time></trkpt><trkpt lat="45.151915" lon="8.05171"><ele>177.0</ele><time>2026-05-01T10:19:41.157Z</time></trkpt><trkpt lat="45.15183" lon="8.0517767"><ele>177.0</ele><time>2026-05-01T10:19:42.159Z</time></trkpt><trkpt lat="45.1517483" lon="8.0518433"><ele>177.0</ele><time>2026-05-01T10:19:43.159Z</time></trkpt><trkpt lat="45.1516583" lon="8.0519"><ele>177.0</ele><time>2026-05-01T10:19:44.156Z</time></trkpt><trkpt lat="45.151565" lon="8.0519617"><ele>177.0</ele><time>2026-05-01T10:19:45.155Z</time></trkpt><trkpt lat="45.1514717" lon="8.0520233"><ele>177.0</ele><time>2026-05-01T10:19:46.156Z</time></trkpt><trkpt lat="45.1513817" lon="8.0520867"><ele>176.83333333333334</ele><time>2026-05-01T10:19:47.154Z</time></trkpt><trkpt lat="45.1512967" lon="8.0521333"><ele>176.66666666666666</ele><time>2026-05-01T10:19:48.159Z</time></trkpt><trkpt lat="45.15122" lon="8.0521733"><ele>176.5</ele><time>2026-05-01T10:19:49.151Z</time></trkpt><trkpt lat="45.1511517" lon="8.0521917"><ele>176.33333333333331</ele><time>2026-05-01T10:19:50.156Z</time></trkpt><trkpt lat="45.1510783" lon="8.0521917"><ele>176.16666666666666</ele><time>2026-05-01T10:19:51.156Z</time></trkpt><trkpt lat="45.15106" lon="8.05202"><ele>176.0</ele><time>2026-05-01T10:19:53.155Z</time></trkpt><trkpt lat="45.1510217" lon="8.0519117"><ele>176.0</ele><time>2026-05-01T10:19:54.157Z</time></trkpt><trkpt lat="45.1509767" lon="8.05179"><ele>176.0</ele><time>2026-05-01T10:19:55.158Z</time></trkpt><trkpt lat="45.1509333" lon="8.0516633"><ele>176.0</ele><time>2026-05-01T10:19:56.155Z</time></trkpt><trkpt lat="45.1508817" lon="8.0515433"><ele>176.0</ele><time>2026-05-01T10:19:57.153Z</time></trkpt><trkpt lat="45.1508267" lon="8.0514183"><ele>176.0</ele><time>2026-05-01T10:19:58.152Z</time></trkpt><trkpt lat="45.1507717" lon="8.05129"><ele>176.0</ele><time>2026-05-01T10:19:59.156Z</time></trkpt><trkpt lat="45.15071" lon="8.05116"><ele>176.0</ele><time>2026-05-01T10:20:00.154Z</time></trkpt><trkpt lat="45.150645" lon="8.05103"><ele>176.0</ele><time>2026-05-01T10:20:01.154Z</time></trkpt><trkpt lat="45.1505767" lon="8.0509017"><ele>176.0</ele><time>2026-05-01T10:20:02.158Z</time></trkpt><trkpt lat="45.1505" lon="8.050775"><ele>176.75</ele><time>2026-05-01T10:20:03.157Z</time></trkpt><trkpt lat="45.150425" lon="8.0506467"><ele>177.5</ele><time>2026-05-01T10:20:04.154Z</time></trkpt><trkpt lat="45.1503483" lon="8.05052"><ele>178.25</ele><time>2026-05-01T10:20:05.154Z</time></trkpt><trkpt lat="45.15027" lon="8.0503967"><ele>179.0</ele><time>2026-05-01T10:20:06.151Z</time></trkpt><trkpt lat="45.15019" lon="8.0502767"><ele>179.0</ele><time>2026-05-01T10:20:07.154Z</time></trkpt><trkpt lat="45.1501133" lon="8.0501533"><ele>179.0</ele><time>2026-05-01T10:20:08.152Z</time></trkpt><trkpt lat="45.1500317" lon="8.0500317"><ele>179.0</ele><time>2026-05-01T10:20:09.154Z</time></trkpt><trkpt lat="45.149955" lon="8.049905"><ele>179.0</ele><time>2026-05-01T10:20:10.155Z</time></trkpt><trkpt lat="45.14988" lon="8.0497683"><ele>179.5</ele><time>2026-05-01T10:20:11.155Z</time></trkpt><trkpt lat="45.1497983" lon="8.0496283"><ele>180.0</ele><time>2026-05-01T10:20:12.153Z</time></trkpt><trkpt lat="45.1497233" lon="8.04949"><ele>180.5</ele><time>2026-05-01T10:20:13.155Z</time></trkpt><trkpt lat="45.14965" lon="8.0493467"><ele>181.0</ele><time>2026-05-01T10:20:14.15Z</time></trkpt><trkpt lat="45.1495817" lon="8.0492017"><ele>181.75</ele><time>2026-05-01T10:20:15.156Z</time></trkpt><trkpt lat="45.1495083" lon="8.049065"><ele>182.5</ele><time>2026-05-01T10:20:16.155Z</time></trkpt><trkpt lat="45.149435" lon="8.048935"><ele>183.25</ele><time>2026-05-01T10:20:17.152Z</time></trkpt><trkpt lat="45.1493567" lon="8.0488"><ele>184.0</ele><time>2026-05-01T10:20:18.156Z</time></trkpt><trkpt lat="45.1492817" lon="8.04866"><ele>184.0</ele><time>2026-05-01T10:20:19.152Z</time></trkpt><trkpt lat="45.149215" lon="8.04851"><ele>184.0</ele><time>2026-05-01T10:20:20.156Z</time></trkpt><trkpt lat="45.1491617" lon="8.04835"><ele>184.0</ele><time>2026-05-01T10:20:21.153Z</time></trkpt><trkpt lat="45.14911" lon="8.0481867"><ele>184.0</ele><time>2026-05-01T10:20:22.154Z</time></trkpt><trkpt lat="45.14906" lon="8.0480217"><ele>184.0</ele><time>2026-05-01T10:20:23.162Z</time></trkpt><trkpt lat="45.1490067" lon="8.0478533"><ele>184.0</ele><time>2026-05-01T10:20:24.158Z</time></trkpt><trkpt lat="45.148945" lon="8.0476817"><ele>184.0</ele><time>2026-05-01T10:20:25.154Z</time></trkpt><trkpt lat="45.148875" lon="8.0475183"><ele>184.0</ele><time>2026-05-01T10:20:26.159Z</time></trkpt><trkpt lat="45.1487933" lon="8.047365"><ele>184.0</ele><time>2026-05-01T10:20:27.153Z</time></trkpt><trkpt lat="45.1487083" lon="8.0472083"><ele>184.0</ele><time>2026-05-01T10:20:28.156Z</time></trkpt><trkpt lat="45.1486233" lon="8.04705"><ele>184.0</ele><time>2026-05-01T10:20:29.154Z</time></trkpt><trkpt lat="45.148545" lon="8.046885"><ele>184.0</ele><time>2026-05-01T10:20:30.154Z</time></trkpt><trkpt lat="45.1484667" lon="8.0467217"><ele>184.25</ele><time>2026-05-01T10:20:31.154Z</time></trkpt><trkpt lat="45.1484" lon="8.0465517"><ele>184.5</ele><time>2026-05-01T10:20:32.154Z</time></trkpt><trkpt lat="45.148335" lon="8.0463833"><ele>184.75</ele><time>2026-05-01T10:20:33.151Z</time></trkpt><trkpt lat="45.1482783" lon="8.0462133"><ele>185.0</ele><time>2026-05-01T10:20:34.153Z</time></trkpt><trkpt lat="45.1482317" lon="8.0460417"><ele>185.0</ele><time>2026-05-01T10:20:35.149Z</time></trkpt><trkpt lat="45.1481967" lon="8.045865"><ele>185.0</ele><time>2026-05-01T10:20:36.158Z</time></trkpt><trkpt lat="45.1481717" lon="8.0456867"><ele>185.0</ele><time>2026-05-01T10:20:37.154Z</time></trkpt><trkpt lat="45.1481517" lon="8.0455133"><ele>185.0</ele><time>2026-05-01T10:20:38.156Z</time></trkpt><trkpt lat="45.14813" lon="8.0453417"><ele>185.0</ele><time>2026-05-01T10:20:39.152Z</time></trkpt><trkpt lat="45.148095" lon="8.045175"><ele>185.0</ele><time>2026-05-01T10:20:40.153Z</time></trkpt><trkpt lat="45.1480433" lon="8.0450217"><ele>185.0</ele><time>2026-05-01T10:20:41.161Z</time></trkpt><trkpt lat="45.147975" lon="8.0448767"><ele>185.0</ele><time>2026-05-01T10:20:42.152Z</time></trkpt><trkpt lat="45.1478983" lon="8.0447467"><ele>186.0</ele><time>2026-05-01T10:20:43.154Z</time></trkpt><trkpt lat="45.1478133" lon="8.0446183"><ele>187.0</ele><time>2026-05-01T10:20:44.161Z</time></trkpt><trkpt lat="45.1477267" lon="8.04448"><ele>188.0</ele><time>2026-05-01T10:20:45.159Z</time></trkpt><trkpt lat="45.1476467" lon="8.044335"><ele>189.0</ele><time>2026-05-01T10:20:46.152Z</time></trkpt><trkpt lat="45.1475683" lon="8.0441767"><ele>187.75</ele><time>2026-05-01T10:20:47.157Z</time></trkpt><trkpt lat="45.1475083" lon="8.0440067"><ele>186.5</ele><time>2026-05-01T10:20:48.151Z</time></trkpt><trkpt lat="45.1474417" lon="8.043835"><ele>185.25</ele><time>2026-05-01T10:20:49.151Z</time></trkpt><trkpt lat="45.14738" lon="8.0436633"><ele>184.0</ele><time>2026-05-01T10:20:50.153Z</time></trkpt><trkpt lat="45.1473183" lon="8.0434917"><ele>184.0</ele><time>2026-05-01T10:20:51.151Z</time></trkpt><trkpt lat="45.1472567" lon="8.0433133"><ele>184.0</ele><time>2026-05-01T10:20:52.157Z</time></trkpt><trkpt lat="45.1471917" lon="8.0431367"><ele>184.0</ele><time>2026-05-01T10:20:53.152Z</time></trkpt><trkpt lat="45.1471267" lon="8.0429567"><ele>184.0</ele><time>2026-05-01T10:20:54.152Z</time></trkpt><trkpt lat="45.1470617" lon="8.0427833"><ele>184.75</ele><time>2026-05-01T10:20:55.156Z</time></trkpt><trkpt lat="45.1469883" lon="8.04262"><ele>185.5</ele><time>2026-05-01T10:20:56.155Z</time></trkpt><trkpt lat="45.1469117" lon="8.042465"><ele>186.25</ele><time>2026-05-01T10:20:57.153Z</time></trkpt><trkpt lat="45.1468283" lon="8.0423183"><ele>187.0</ele><time>2026-05-01T10:20:58.155Z</time></trkpt><trkpt lat="45.1467367" lon="8.0421733"><ele>187.0</ele><time>2026-05-01T10:20:59.153Z</time></trkpt><trkpt lat="45.1466383" lon="8.0420267"><ele>187.0</ele><time>2026-05-01T10:21:00.153Z</time></trkpt><trkpt lat="45.1465367" lon="8.04188"><ele>187.0</ele><time>2026-05-01T10:21:01.153Z</time></trkpt><trkpt lat="45.1464333" lon="8.04173"><ele>187.0</ele><time>2026-05-01T10:21:02.156Z</time></trkpt><trkpt lat="45.1463267" lon="8.041575"><ele>188.0</ele><time>2026-05-01T10:21:03.154Z</time></trkpt><trkpt lat="45.1462183" lon="8.0414167"><ele>189.0</ele><time>2026-05-01T10:21:04.155Z</time></trkpt><trkpt lat="45.1461067" lon="8.0412583"><ele>190.0</ele><time>2026-05-01T10:21:05.156Z</time></trkpt><trkpt lat="45.1459883" lon="8.0411033"><ele>190.0</ele><time>2026-05-01T10:21:06.153Z</time></trkpt><trkpt lat="45.14587" lon="8.0409467"><ele>190.0</ele><time>2026-05-01T10:21:07.155Z</time></trkpt><trkpt lat="45.145755" lon="8.0407883"><ele>190.0</ele><time>2026-05-01T10:21:08.154Z</time></trkpt><trkpt lat="45.1456383" lon="8.0406317"><ele>189.33333333333334</ele><time>2026-05-01T10:21:09.155Z</time></trkpt><trkpt lat="45.1455217" lon="8.0404733"><ele>188.66666666666666</ele><time>2026-05-01T10:21:10.156Z</time></trkpt><trkpt lat="45.145405" lon="8.040315"><ele>188.0</ele><time>2026-05-01T10:21:11.153Z</time></trkpt><trkpt lat="45.1452867" lon="8.0401533"><ele>188.0</ele><time>2026-05-01T10:21:12.154Z</time></trkpt><trkpt lat="45.1451683" lon="8.0399933"><ele>188.0</ele><time>2026-05-01T10:21:13.157Z</time></trkpt><trkpt lat="45.1450517" lon="8.0398333"><ele>188.0</ele><time>2026-05-01T10:21:14.155Z</time></trkpt><trkpt lat="45.1449367" lon="8.0396733"><ele>189.0</ele><time>2026-05-01T10:21:15.152Z</time></trkpt><trkpt lat="45.1448217" lon="8.0395117"><ele>190.0</ele><time>2026-05-01T10:21:16.152Z</time></trkpt><trkpt lat="45.14471" lon="8.0393567"><ele>191.0</ele><time>2026-05-01T10:21:17.152Z</time></trkpt><trkpt lat="45.1445983" lon="8.0392017"><ele>190.33333333333331</ele><time>2026-05-01T10:21:18.151Z</time></trkpt><trkpt lat="45.1444933" lon="8.039045"><ele>189.66666666666666</ele><time>2026-05-01T10:21:19.156Z</time></trkpt><trkpt lat="45.14438" lon="8.03889"><ele>189.0</ele><time>2026-05-01T10:21:20.156Z</time></trkpt><trkpt lat="45.14427" lon="8.0387333"><ele>189.0</ele><time>2026-05-01T10:21:21.154Z</time></trkpt><trkpt lat="45.1441617" lon="8.0385833"><ele>189.0</ele><time>2026-05-01T10:21:22.151Z</time></trkpt><trkpt lat="45.1440583" lon="8.0384417"><ele>189.0</ele><time>2026-05-01T10:21:23.154Z</time></trkpt><trkpt lat="45.14396" lon="8.0383067"><ele>189.0</ele><time>2026-05-01T10:21:24.155Z</time></trkpt><trkpt lat="45.1438617" lon="8.0381833"><ele>190.79999999999998</ele><time>2026-05-01T10:21:25.154Z</time></trkpt><trkpt lat="45.1437633" lon="8.0380817"><ele>192.6</ele><time>2026-05-01T10:21:26.154Z</time></trkpt><trkpt lat="45.1436667" lon="8.038005"><ele>194.4</ele><time>2026-05-01T10:21:27.152Z</time></trkpt><trkpt lat="45.1435683" lon="8.037965"><ele>196.2</ele><time>2026-05-01T10:21:28.156Z</time></trkpt><trkpt lat="45.14347" lon="8.0379483"><ele>198.0</ele><time>2026-05-01T10:21:29.149Z</time></trkpt><trkpt lat="45.1433717" lon="8.0379617"><ele>198.0</ele><time>2026-05-01T10:21:30.15Z</time></trkpt><trkpt lat="45.1432667" lon="8.0379717"><ele>198.0</ele><time>2026-05-01T10:21:31.155Z</time></trkpt><trkpt lat="45.1431567" lon="8.037975"><ele>198.0</ele><time>2026-05-01T10:21:32.153Z</time></trkpt><trkpt lat="45.1430433" lon="8.0379717"><ele>198.0</ele><time>2026-05-01T10:21:33.155Z</time></trkpt><trkpt lat="45.1429333" lon="8.037935"><ele>198.0</ele><time>2026-05-01T10:21:34.154Z</time></trkpt><trkpt lat="45.14284" lon="8.0378817"><ele>197.0</ele><time>2026-05-01T10:21:35.156Z</time></trkpt><trkpt lat="45.14276" lon="8.037815"><ele>196.0</ele><time>2026-05-01T10:21:36.154Z</time></trkpt><trkpt lat="45.14269" lon="8.0377417"><ele>195.0</ele><time>2026-05-01T10:21:37.154Z</time></trkpt><trkpt lat="45.14262" lon="8.0376583"><ele>194.0</ele><time>2026-05-01T10:21:38.153Z</time></trkpt><trkpt lat="45.1425433" lon="8.0375933"><ele>193.0</ele><time>2026-05-01T10:21:39.154Z</time></trkpt><trkpt lat="45.1424617" lon="8.0375317"><ele>193.4</ele><time>2026-05-01T10:21:40.15Z</time></trkpt><trkpt lat="45.142375" lon="8.037485"><ele>193.8</ele><time>2026-05-01T10:21:41.153Z</time></trkpt><trkpt lat="45.14228" lon="8.03745"><ele>194.2</ele><time>2026-05-01T10:21:42.15Z</time></trkpt><trkpt lat="45.142175" lon="8.0374167"><ele>194.6</ele><time>2026-05-01T10:21:43.151Z</time></trkpt><trkpt lat="45.1420617" lon="8.037385"><ele>195.0</ele><time>2026-05-01T10:21:44.152Z</time></trkpt><trkpt lat="45.1419483" lon="8.037345"><ele>195.0</ele><time>2026-05-01T10:21:45.15Z</time></trkpt><trkpt lat="45.14183" lon="8.0373033"><ele>195.0</ele><time>2026-05-01T10:21:46.152Z</time></trkpt><trkpt lat="45.141705" lon="8.03727"><ele>195.0</ele><time>2026-05-01T10:21:47.155Z</time></trkpt><trkpt lat="45.14158" lon="8.0372333"><ele>195.0</ele><time>2026-05-01T10:21:48.151Z</time></trkpt><trkpt lat="45.1414567" lon="8.0372"><ele>196.0</ele><time>2026-05-01T10:21:49.157Z</time></trkpt><trkpt lat="45.141335" lon="8.0371683"><ele>197.0</ele><time>2026-05-01T10:21:50.155Z</time></trkpt><trkpt lat="45.1412167" lon="8.0371383"><ele>198.0</ele><time>2026-05-01T10:21:51.157Z</time></trkpt><trkpt lat="45.1410983" lon="8.037105"><ele>199.0</ele><time>2026-05-01T10:21:52.152Z</time></trkpt><trkpt lat="45.1409867" lon="8.0370733"><ele>199.0</ele><time>2026-05-01T10:21:53.153Z</time></trkpt><trkpt lat="45.14088" lon="8.0370233"><ele>199.0</ele><time>2026-05-01T10:21:54.154Z</time></trkpt><trkpt lat="45.1407817" lon="8.0369467"><ele>199.0</ele><time>2026-05-01T10:21:55.153Z</time></trkpt><trkpt lat="45.1406883" lon="8.0368417"><ele>199.0</ele><time>2026-05-01T10:21:56.16Z</time></trkpt><trkpt lat="45.1406" lon="8.0367083"><ele>199.2</ele><time>2026-05-01T10:21:57.152Z</time></trkpt><trkpt lat="45.1405267" lon="8.03657"><ele>199.39999999999998</ele><time>2026-05-01T10:21:58.154Z</time></trkpt><trkpt lat="45.1404633" lon="8.0364417"><ele>199.6</ele><time>2026-05-01T10:21:59.154Z</time></trkpt><trkpt lat="45.1403867" lon="8.0363417"><ele>199.8</ele><time>2026-05-01T10:22:00.152Z</time></trkpt><trkpt lat="45.1403017" lon="8.0362633"><ele>200.0</ele><time>2026-05-01T10:22:01.153Z</time></trkpt><trkpt lat="45.1401983" lon="8.0362167"><ele>200.0</ele><time>2026-05-01T10:22:02.151Z</time></trkpt><trkpt lat="45.1400783" lon="8.0361983"><ele>200.0</ele><time>2026-05-01T10:22:03.156Z</time></trkpt><trkpt lat="45.1399483" lon="8.0361983"><ele>200.0</ele><time>2026-05-01T10:22:04.151Z</time></trkpt><trkpt lat="45.1398083" lon="8.0362117"><ele>200.0</ele><time>2026-05-01T10:22:05.154Z</time></trkpt><trkpt lat="45.1396617" lon="8.0362367"><ele>200.33333333333334</ele><time>2026-05-01T10:22:06.155Z</time></trkpt><trkpt lat="45.1395117" lon="8.0362667"><ele>200.66666666666669</ele><time>2026-05-01T10:22:07.156Z</time></trkpt><trkpt lat="45.1393617" lon="8.0363017"><ele>201.0</ele><time>2026-05-01T10:22:08.151Z</time></trkpt><trkpt lat="45.1392117" lon="8.0363267"><ele>201.0</ele><time>2026-05-01T10:22:09.152Z</time></trkpt><trkpt lat="45.1390617" lon="8.0363567"><ele>201.0</ele><time>2026-05-01T10:22:10.152Z</time></trkpt><trkpt lat="45.13891" lon="8.036395"><ele>201.0</ele><time>2026-05-01T10:22:11.154Z</time></trkpt><trkpt lat="45.1387567" lon="8.0364417"><ele>202.0</ele><time>2026-05-01T10:22:12.154Z</time></trkpt><trkpt lat="45.138605" lon="8.0364867"><ele>203.0</ele><time>2026-05-01T10:22:13.151Z</time></trkpt><trkpt lat="45.1384533" lon="8.03653"><ele>204.0</ele><time>2026-05-01T10:22:14.154Z</time></trkpt><trkpt lat="45.1383067" lon="8.0365717"><ele>204.75</ele><time>2026-05-01T10:22:15.152Z</time></trkpt><trkpt lat="45.13816" lon="8.0366117"><ele>205.5</ele><time>2026-05-01T10:22:16.157Z</time></trkpt><trkpt lat="45.1380167" lon="8.03665"><ele>206.25</ele><time>2026-05-01T10:22:17.161Z</time></trkpt><trkpt lat="45.13788" lon="8.0366833"><ele>207.0</ele><time>2026-05-01T10:22:18.157Z</time></trkpt><trkpt lat="45.1377533" lon="8.0367"><ele>207.0</ele><time>2026-05-01T10:22:19.154Z</time></trkpt><trkpt lat="45.1376417" lon="8.0367067"><ele>207.0</ele><time>2026-05-01T10:22:20.15Z</time></trkpt><trkpt lat="45.1375333" lon="8.0367167"><ele>207.0</ele><time>2026-05-01T10:22:21.155Z</time></trkpt><trkpt lat="45.1374233" lon="8.0367167"><ele>207.0</ele><time>2026-05-01T10:22:22.151Z</time></trkpt><trkpt lat="45.13731" lon="8.0367033"><ele>207.0</ele><time>2026-05-01T10:22:23.154Z</time></trkpt><trkpt lat="45.137195" lon="8.0366717"><ele>210.5</ele><time>2026-05-01T10:22:24.157Z</time></trkpt><trkpt lat="45.1370783" lon="8.0366267"><ele>214.0</ele><time>2026-05-01T10:22:25.153Z</time></trkpt><trkpt lat="45.1369617" lon="8.0365733"><ele>217.5</ele><time>2026-05-01T10:22:26.152Z</time></trkpt><trkpt lat="45.1368417" lon="8.0365217"><ele>221.0</ele><time>2026-05-01T10:22:27.153Z</time></trkpt><trkpt lat="45.1367233" lon="8.03646"><ele>221.0</ele><time>2026-05-01T10:22:28.154Z</time></trkpt><trkpt lat="45.1366183" lon="8.0363967"><ele>221.00000000000003</ele><time>2026-05-01T10:22:29.156Z</time></trkpt><trkpt lat="45.136515" lon="8.0363333"><ele>221.00000000000003</ele><time>2026-05-01T10:22:30.154Z</time></trkpt><trkpt lat="45.1364083" lon="8.0363017"><ele>221.0</ele><time>2026-05-01T10:22:31.152Z</time></trkpt><trkpt lat="45.1363033" lon="8.036305"><ele>221.0</ele><time>2026-05-01T10:22:32.158Z</time></trkpt><trkpt lat="45.1362" lon="8.0363533"><ele>220.8</ele><time>2026-05-01T10:22:33.154Z</time></trkpt><trkpt lat="45.136115" lon="8.0364317"><ele>220.60000000000002</ele><time>2026-05-01T10:22:34.16Z</time></trkpt><trkpt lat="45.13603" lon="8.0365167"><ele>220.4</ele><time>2026-05-01T10:22:35.157Z</time></trkpt><trkpt lat="45.1359317" lon="8.0365867"><ele>220.2</ele><time>2026-05-01T10:22:36.152Z</time></trkpt><trkpt lat="45.1358183" lon="8.0366367"><ele>220.0</ele><time>2026-05-01T10:22:37.156Z</time></trkpt><trkpt lat="45.1357033" lon="8.0366617"><ele>223.4</ele><time>2026-05-01T10:22:38.157Z</time></trkpt><trkpt lat="45.135595" lon="8.036685"><ele>226.8</ele><time>2026-05-01T10:22:39.153Z</time></trkpt><trkpt lat="45.135495" lon="8.0366983"><ele>230.2</ele><time>2026-05-01T10:22:40.158Z</time></trkpt><trkpt lat="45.13541" lon="8.0367417"><ele>233.6</ele><time>2026-05-01T10:22:41.155Z</time></trkpt><trkpt lat="45.135335" lon="8.0367933"><ele>237.0</ele><time>2026-05-01T10:22:42.156Z</time></trkpt><trkpt lat="45.1352983" lon="8.0368883"><ele>237.0</ele><time>2026-05-01T10:22:43.159Z</time></trkpt><trkpt lat="45.1352667" lon="8.0370033"><ele>237.0</ele><time>2026-05-01T10:22:44.155Z</time></trkpt><trkpt lat="45.135255" lon="8.0371333"><ele>237.0</ele><time>2026-05-01T10:22:45.154Z</time></trkpt><trkpt lat="45.135265" lon="8.0372667"><ele>237.0</ele><time>2026-05-01T10:22:46.162Z</time></trkpt><trkpt lat="45.135275" lon="8.0373983"><ele>237.0</ele><time>2026-05-01T10:22:47.154Z</time></trkpt><trkpt lat="45.1352783" lon="8.0375233"><ele>236.83333333333334</ele><time>2026-05-01T10:22:48.155Z</time></trkpt><trkpt lat="45.13526" lon="8.0376383"><ele>236.66666666666669</ele><time>2026-05-01T10:22:49.157Z</time></trkpt><trkpt lat="45.13524" lon="8.0377417"><ele>236.5</ele><time>2026-05-01T10:22:50.156Z</time></trkpt><trkpt lat="45.13515" lon="8.0378167"><ele>236.33333333333334</ele><time>2026-05-01T10:22:52.154Z</time></trkpt><trkpt lat="45.1350633" lon="8.0377967"><ele>236.16666666666669</ele><time>2026-05-01T10:22:53.161Z</time></trkpt><trkpt lat="45.1349717" lon="8.0377783"><ele>236.0</ele><time>2026-05-01T10:22:54.153Z</time></trkpt><trkpt lat="45.1348767" lon="8.03776"><ele>236.0</ele><time>2026-05-01T10:22:55.155Z</time></trkpt><trkpt lat="45.13476" lon="8.0377667"><ele>236.0</ele><time>2026-05-01T10:22:56.156Z</time></trkpt><trkpt lat="45.134635" lon="8.0377933"><ele>236.0</ele><time>2026-05-01T10:22:57.152Z</time></trkpt><trkpt lat="45.1345183" lon="8.0378333"><ele>236.0</ele><time>2026-05-01T10:22:58.157Z</time></trkpt><trkpt lat="45.1344017" lon="8.0378733"><ele>236.0</ele><time>2026-05-01T10:22:59.162Z</time></trkpt><trkpt lat="45.1342817" lon="8.0379067"><ele>236.0</ele><time>2026-05-01T10:23:00.16Z</time></trkpt><trkpt lat="45.134165" lon="8.0379167"><ele>236.0</ele><time>2026-05-01T10:23:01.159Z</time></trkpt><trkpt lat="45.1340467" lon="8.037915"><ele>236.0</ele><time>2026-05-01T10:23:02.153Z</time></trkpt><trkpt lat="45.1339183" lon="8.0379"><ele>235.5</ele><time>2026-05-01T10:23:03.155Z</time></trkpt><trkpt lat="45.1337883" lon="8.0378867"><ele>235.0</ele><time>2026-05-01T10:23:04.155Z</time></trkpt><trkpt lat="45.1336483" lon="8.0378583"><ele>234.5</ele><time>2026-05-01T10:23:05.163Z</time></trkpt><trkpt lat="45.133505" lon="8.0378233"><ele>234.0</ele><time>2026-05-01T10:23:06.156Z</time></trkpt><trkpt lat="45.1333583" lon="8.03778"><ele>232.5</ele><time>2026-05-01T10:23:07.159Z</time></trkpt><trkpt lat="45.1332183" lon="8.0377383"><ele>231.0</ele><time>2026-05-01T10:23:08.155Z</time></trkpt><trkpt lat="45.1330783" lon="8.0377167"><ele>229.5</ele><time>2026-05-01T10:23:09.156Z</time></trkpt><trkpt lat="45.13294" lon="8.0377033"><ele>228.0</ele><time>2026-05-01T10:23:10.155Z</time></trkpt><trkpt lat="45.1328183" lon="8.0376667"><ele>228.0</ele><time>2026-05-01T10:23:11.157Z</time></trkpt><trkpt lat="45.13269" lon="8.037655"><ele>228.0</ele><time>2026-05-01T10:23:12.154Z</time></trkpt><trkpt lat="45.1325617" lon="8.0376567"><ele>228.0</ele><time>2026-05-01T10:23:13.159Z</time></trkpt><trkpt lat="45.13244" lon="8.0376617"><ele>228.0</ele><time>2026-05-01T10:23:14.155Z</time></trkpt><trkpt lat="45.1323283" lon="8.0376783"><ele>231.2</ele><time>2026-05-01T10:23:15.153Z</time></trkpt><trkpt lat="45.13222" lon="8.0377067"><ele>234.4</ele><time>2026-05-01T10:23:16.156Z</time></trkpt><trkpt lat="45.13211" lon="8.0377533"><ele>237.59999999999997</ele><time>2026-05-01T10:23:17.159Z</time></trkpt><trkpt lat="45.1320117" lon="8.0378233"><ele>240.79999999999998</ele><time>2026-05-01T10:23:18.152Z</time></trkpt><trkpt lat="45.1319133" lon="8.0378983"><ele>244.0</ele><time>2026-05-01T10:23:19.154Z</time></trkpt><trkpt lat="45.1318017" lon="8.0379767"><ele>244.0</ele><time>2026-05-01T10:23:20.154Z</time></trkpt><trkpt lat="45.1316733" lon="8.0380467"><ele>244.0</ele><time>2026-05-01T10:23:21.153Z</time></trkpt><trkpt lat="45.1315567" lon="8.038105"><ele>244.0</ele><time>2026-05-01T10:23:22.155Z</time></trkpt><trkpt lat="45.131445" lon="8.0381767"><ele>244.0</ele><time>2026-05-01T10:23:23.154Z</time></trkpt><trkpt lat="45.131335" lon="8.0382517"><ele>243.25</ele><time>2026-05-01T10:23:24.152Z</time></trkpt><trkpt lat="45.131225" lon="8.0383183"><ele>242.5</ele><time>2026-05-01T10:23:25.154Z</time></trkpt><trkpt lat="45.13111" lon="8.0383717"><ele>241.75</ele><time>2026-05-01T10:23:26.154Z</time></trkpt><trkpt lat="45.130985" lon="8.038405"><ele>241.0</ele><time>2026-05-01T10:23:27.152Z</time></trkpt><trkpt lat="45.130875" lon="8.0384383"><ele>241.0</ele><time>2026-05-01T10:23:28.152Z</time></trkpt><trkpt lat="45.1307933" lon="8.0385283"><ele>241.00000000000003</ele><time>2026-05-01T10:23:29.153Z</time></trkpt><trkpt lat="45.130725" lon="8.03865"><ele>241.00000000000003</ele><time>2026-05-01T10:23:30.153Z</time></trkpt><trkpt lat="45.1306717" lon="8.0387817"><ele>241.0</ele><time>2026-05-01T10:23:31.153Z</time></trkpt><trkpt lat="45.1306183" lon="8.0389067"><ele>241.0</ele><time>2026-05-01T10:23:32.154Z</time></trkpt><trkpt lat="45.1305483" lon="8.039015"><ele>240.60000000000002</ele><time>2026-05-01T10:23:33.153Z</time></trkpt><trkpt lat="45.13048" lon="8.03909"><ele>240.20000000000002</ele><time>2026-05-01T10:23:34.154Z</time></trkpt><trkpt lat="45.13039" lon="8.0391167"><ele>239.79999999999998</ele><time>2026-05-01T10:23:35.155Z</time></trkpt><trkpt lat="45.1302817" lon="8.0391417"><ele>239.39999999999998</ele><time>2026-05-01T10:23:36.15Z</time></trkpt><trkpt lat="45.1301783" lon="8.03915"><ele>239.0</ele><time>2026-05-01T10:23:37.153Z</time></trkpt><trkpt lat="45.1300717" lon="8.039135"><ele>242.25</ele><time>2026-05-01T10:23:38.157Z</time></trkpt><trkpt lat="45.1299533" lon="8.0390833"><ele>245.5</ele><time>2026-05-01T10:23:39.15Z</time></trkpt><trkpt lat="45.1298367" lon="8.0390417"><ele>248.75</ele><time>2026-05-01T10:23:40.159Z</time></trkpt><trkpt lat="45.1297233" lon="8.038995"><ele>252.0</ele><time>2026-05-01T10:23:41.151Z</time></trkpt><trkpt lat="45.1296017" lon="8.03898"><ele>252.0</ele><time>2026-05-01T10:23:42.153Z</time></trkpt><trkpt lat="45.129485" lon="8.0389917"><ele>252.0</ele><time>2026-05-01T10:23:43.153Z</time></trkpt><trkpt lat="45.1293733" lon="8.039015"><ele>252.0</ele><time>2026-05-01T10:23:44.151Z</time></trkpt><trkpt lat="45.1292667" lon="8.0390467"><ele>252.0</ele><time>2026-05-01T10:23:45.154Z</time></trkpt><trkpt lat="45.1291667" lon="8.0390433"><ele>252.0</ele><time>2026-05-01T10:23:46.15Z</time></trkpt><trkpt lat="45.12906" lon="8.0390133"><ele>251.0</ele><time>2026-05-01T10:23:47.154Z</time></trkpt><trkpt lat="45.12895" lon="8.038955"><ele>250.0</ele><time>2026-05-01T10:23:48.156Z</time></trkpt><trkpt lat="45.1288333" lon="8.038895"><ele>249.0</ele><time>2026-05-01T10:23:49.155Z</time></trkpt><trkpt lat="45.12871" lon="8.0388567"><ele>248.0</ele><time>2026-05-01T10:23:50.152Z</time></trkpt><trkpt lat="45.1285867" lon="8.0388333"><ele>248.0</ele><time>2026-05-01T10:23:51.153Z</time></trkpt><trkpt lat="45.1284683" lon="8.0388317"><ele>248.0</ele><time>2026-05-01T10:23:52.154Z</time></trkpt><trkpt lat="45.12835" lon="8.038865"><ele>248.0</ele><time>2026-05-01T10:23:53.153Z</time></trkpt><trkpt lat="45.1282267" lon="8.0388933"><ele>248.0</ele><time>2026-05-01T10:23:54.155Z</time></trkpt><trkpt lat="45.1281083" lon="8.0389133"><ele>247.5</ele><time>2026-05-01T10:23:55.159Z</time></trkpt><trkpt lat="45.1279817" lon="8.0389083"><ele>247.0</ele><time>2026-05-01T10:23:56.153Z</time></trkpt><trkpt lat="45.1278567" lon="8.038895"><ele>246.5</ele><time>2026-05-01T10:23:57.151Z</time></trkpt><trkpt lat="45.1277333" lon="8.03884"><ele>246.0</ele><time>2026-05-01T10:23:58.154Z</time></trkpt><trkpt lat="45.1275967" lon="8.0387683"><ele>246.0</ele><time>2026-05-01T10:23:59.151Z</time></trkpt><trkpt lat="45.12747" lon="8.03865"><ele>246.0</ele><time>2026-05-01T10:24:00.156Z</time></trkpt><trkpt lat="45.1273417" lon="8.0385183"><ele>246.0</ele><time>2026-05-01T10:24:01.151Z</time></trkpt><trkpt lat="45.12721" lon="8.038385"><ele>247.66666666666669</ele><time>2026-05-01T10:24:02.152Z</time></trkpt><trkpt lat="45.1270833" lon="8.0382517"><ele>249.33333333333334</ele><time>2026-05-01T10:24:03.155Z</time></trkpt><trkpt lat="45.1269633" lon="8.03812"><ele>251.0</ele><time>2026-05-01T10:24:04.153Z</time></trkpt><trkpt lat="45.1268367" lon="8.0380167"><ele>251.0</ele><time>2026-05-01T10:24:05.154Z</time></trkpt><trkpt lat="45.12672" lon="8.03794"><ele>251.0</ele><time>2026-05-01T10:24:06.156Z</time></trkpt><trkpt lat="45.126615" lon="8.037875"><ele>251.0</ele><time>2026-05-01T10:24:07.155Z</time></trkpt><trkpt lat="45.126505" lon="8.03783"><ele>251.0</ele><time>2026-05-01T10:24:08.153Z</time></trkpt><trkpt lat="45.1263883" lon="8.0377933"><ele>248.25</ele><time>2026-05-01T10:24:09.151Z</time></trkpt><trkpt lat="45.1262583" lon="8.0377567"><ele>245.5</ele><time>2026-05-01T10:24:10.153Z</time></trkpt><trkpt lat="45.12612" lon="8.037725"><ele>242.75</ele><time>2026-05-01T10:24:11.156Z</time></trkpt><trkpt lat="45.1259717" lon="8.0376917"><ele>240.0</ele><time>2026-05-01T10:24:12.153Z</time></trkpt><trkpt lat="45.1258283" lon="8.037655"><ele>240.5</ele><time>2026-05-01T10:24:13.155Z</time></trkpt><trkpt lat="45.1256817" lon="8.0376183"><ele>241.0</ele><time>2026-05-01T10:24:14.152Z</time></trkpt><trkpt lat="45.1255333" lon="8.0375817"><ele>241.5</ele><time>2026-05-01T10:24:15.15Z</time></trkpt><trkpt lat="45.125385" lon="8.037555"><ele>242.0</ele><time>2026-05-01T10:24:16.156Z</time></trkpt><trkpt lat="45.12523" lon="8.0375367"><ele>242.0</ele><time>2026-05-01T10:24:17.15Z</time></trkpt><trkpt lat="45.1250833" lon="8.0375367"><ele>242.0</ele><time>2026-05-01T10:24:18.152Z</time></trkpt><trkpt lat="45.1249517" lon="8.037555"><ele>242.0</ele><time>2026-05-01T10:24:19.156Z</time></trkpt><trkpt lat="45.1248367" lon="8.037575"><ele>242.0</ele><time>2026-05-01T10:24:20.15Z</time></trkpt><trkpt lat="45.1247417" lon="8.0375817"><ele>243.39999999999998</ele><time>2026-05-01T10:24:21.154Z</time></trkpt><trkpt lat="45.1246617" lon="8.03756"><ele>244.79999999999998</ele><time>2026-05-01T10:24:22.15Z</time></trkpt><trkpt lat="45.124585" lon="8.0375317"><ele>246.2</ele><time>2026-05-01T10:24:23.155Z</time></trkpt><trkpt lat="45.1244983" lon="8.0374867"><ele>247.6</ele><time>2026-05-01T10:24:24.152Z</time></trkpt><trkpt lat="45.1243867" lon="8.0373683"><ele>249.0</ele><time>2026-05-01T10:24:25.15Z</time></trkpt><trkpt lat="45.1242767" lon="8.037225"><ele>251.0</ele><time>2026-05-01T10:24:26.149Z</time></trkpt><trkpt lat="45.124155" lon="8.0370883"><ele>253.0</ele><time>2026-05-01T10:24:27.155Z</time></trkpt><trkpt lat="45.1240383" lon="8.0369467"><ele>255.0</ele><time>2026-05-01T10:24:28.152Z</time></trkpt><trkpt lat="45.1239217" lon="8.036815"><ele>255.0</ele><time>2026-05-01T10:24:29.15Z</time></trkpt><trkpt lat="45.1238083" lon="8.036695"><ele>255.0</ele><time>2026-05-01T10:24:30.158Z</time></trkpt><trkpt lat="45.1237033" lon="8.0365733"><ele>255.0</ele><time>2026-05-01T10:24:31.153Z</time></trkpt><trkpt lat="45.1236067" lon="8.0364367"><ele>255.0</ele><time>2026-05-01T10:24:32.154Z</time></trkpt><trkpt lat="45.1235" lon="8.0363083"><ele>256.0</ele><time>2026-05-01T10:24:33.152Z</time></trkpt><trkpt lat="45.12339" lon="8.0361867"><ele>257.0</ele><time>2026-05-01T10:24:34.153Z</time></trkpt><trkpt lat="45.12329" lon="8.03606"><ele>258.0</ele><time>2026-05-01T10:24:35.154Z</time></trkpt><trkpt lat="45.12321" lon="8.0359267"><ele>259.0</ele><time>2026-05-01T10:24:36.152Z</time></trkpt><trkpt lat="45.1231483" lon="8.0357917"><ele>259.4</ele><time>2026-05-01T10:24:37.155Z</time></trkpt><trkpt lat="45.1231267" lon="8.0356467"><ele>259.79999999999995</ele><time>2026-05-01T10:24:38.154Z</time></trkpt><trkpt lat="45.1231383" lon="8.0354867"><ele>260.20000000000005</ele><time>2026-05-01T10:24:39.152Z</time></trkpt><trkpt lat="45.1231717" lon="8.0353383"><ele>260.6</ele><time>2026-05-01T10:24:40.155Z</time></trkpt><trkpt lat="45.1231917" lon="8.0351983"><ele>261.0</ele><time>2026-05-01T10:24:41.155Z</time></trkpt><trkpt lat="45.1231633" lon="8.035075"><ele>262.8</ele><time>2026-05-01T10:24:42.152Z</time></trkpt><trkpt lat="45.1231267" lon="8.0349667"><ele>264.6</ele><time>2026-05-01T10:24:43.156Z</time></trkpt><trkpt lat="45.1230633" lon="8.0348633"><ele>266.4</ele><time>2026-05-01T10:24:44.152Z</time></trkpt><trkpt lat="45.12298" lon="8.03475"><ele>268.2</ele><time>2026-05-01T10:24:45.159Z</time></trkpt><trkpt lat="45.122895" lon="8.0346333"><ele>270.0</ele><time>2026-05-01T10:24:46.152Z</time></trkpt><trkpt lat="45.1228167" lon="8.0345167"><ele>270.0</ele><time>2026-05-01T10:24:47.155Z</time></trkpt><trkpt lat="45.1227283" lon="8.0344117"><ele>270.0</ele><time>2026-05-01T10:24:48.152Z</time></trkpt><trkpt lat="45.122625" lon="8.0343233"><ele>270.0</ele><time>2026-05-01T10:24:49.153Z</time></trkpt><trkpt lat="45.1225233" lon="8.034245"><ele>270.0</ele><time>2026-05-01T10:24:50.15Z</time></trkpt><trkpt lat="45.1224117" lon="8.0341967"><ele>269.8333333333333</ele><time>2026-05-01T10:24:51.153Z</time></trkpt><trkpt lat="45.122325" lon="8.0341383"><ele>269.6666666666667</ele><time>2026-05-01T10:24:52.155Z</time></trkpt><trkpt lat="45.1222783" lon="8.0340383"><ele>269.5</ele><time>2026-05-01T10:24:53.154Z</time></trkpt><trkpt lat="45.1222367" lon="8.0339333"><ele>269.33333333333337</ele><time>2026-05-01T10:24:54.154Z</time></trkpt><trkpt lat="45.1222533" lon="8.0338317"><ele>269.1666666666667</ele><time>2026-05-01T10:24:55.154Z</time></trkpt><trkpt lat="45.122255" lon="8.0337183"><ele>269.0</ele><time>2026-05-01T10:24:56.156Z</time></trkpt><trkpt lat="45.1223233" lon="8.033685"><ele>270.8</ele><time>2026-05-01T10:24:57.155Z</time></trkpt><trkpt lat="45.1224233" lon="8.0337067"><ele>272.59999999999997</ele><time>2026-05-01T10:24:58.154Z</time></trkpt><trkpt lat="45.122525" lon="8.0337183"><ele>274.4</ele><time>2026-05-01T10:24:59.153Z</time></trkpt><trkpt lat="45.122635" lon="8.0337517"><ele>276.2</ele><time>2026-05-01T10:25:00.156Z</time></trkpt><trkpt lat="45.12275" lon="8.0338017"><ele>278.0</ele><time>2026-05-01T10:25:01.151Z</time></trkpt><trkpt lat="45.1229733" lon="8.0339383"><ele>278.0</ele><time>2026-05-01T10:25:02.154Z</time></trkpt><trkpt lat="45.1230867" lon="8.0340167"><ele>278.0</ele><time>2026-05-01T10:25:03.155Z</time></trkpt><trkpt lat="45.12321" lon="8.0340817"><ele>278.0</ele><time>2026-05-01T10:25:04.151Z</time></trkpt><trkpt lat="45.1233433" lon="8.034125"><ele>278.0</ele><time>2026-05-01T10:25:05.156Z</time></trkpt><trkpt lat="45.1234767" lon="8.0341483"><ele>279.0</ele><time>2026-05-01T10:25:06.152Z</time></trkpt><trkpt lat="45.123615" lon="8.034165"><ele>280.0</ele><time>2026-05-01T10:25:07.153Z</time></trkpt><trkpt lat="45.12375" lon="8.0341967"><ele>281.0</ele><time>2026-05-01T10:25:08.15Z</time></trkpt><trkpt lat="45.123875" lon="8.0342433"><ele>282.0</ele><time>2026-05-01T10:25:09.152Z</time></trkpt><trkpt lat="45.12399" lon="8.0343183"><ele>285.5</ele><time>2026-05-01T10:25:10.152Z</time></trkpt><trkpt lat="45.1240917" lon="8.0344"><ele>289.0</ele><time>2026-05-01T10:25:11.155Z</time></trkpt><trkpt lat="45.12417" lon="8.03452"><ele>292.5</ele><time>2026-05-01T10:25:12.16Z</time></trkpt><trkpt lat="45.12423" lon="8.0346633"><ele>296.0</ele><time>2026-05-01T10:25:13.155Z</time></trkpt><trkpt lat="45.1242833" lon="8.0348083"><ele>296.0</ele><time>2026-05-01T10:25:14.158Z</time></trkpt><trkpt lat="45.1243367" lon="8.0349467"><ele>296.0</ele><time>2026-05-01T10:25:15.153Z</time></trkpt><trkpt lat="45.1243867" lon="8.0350717"><ele>296.0</ele><time>2026-05-01T10:25:16.155Z</time></trkpt><trkpt lat="45.1244183" lon="8.0351783"><ele>296.0</ele><time>2026-05-01T10:25:17.154Z</time></trkpt><trkpt lat="45.1244633" lon="8.0352567"><ele>296.0</ele><time>2026-05-01T10:25:18.154Z</time></trkpt><trkpt lat="45.1244867" lon="8.0351333"><ele>296.0</ele><time>2026-05-01T10:25:22.159Z</time></trkpt><trkpt lat="45.12446" lon="8.035015"><ele>296.0</ele><time>2026-05-01T10:25:23.154Z</time></trkpt><trkpt lat="45.1244417" lon="8.03487"><ele>296.0</ele><time>2026-05-01T10:25:24.157Z</time></trkpt><trkpt lat="45.1244317" lon="8.0346617"><ele>296.0</ele><time>2026-05-01T10:25:25.16Z</time></trkpt><trkpt lat="45.124425" lon="8.0344667"><ele>296.0</ele><time>2026-05-01T10:25:26.155Z</time></trkpt><trkpt lat="45.1244083" lon="8.0342733"><ele>296.0</ele><time>2026-05-01T10:25:27.162Z</time></trkpt><trkpt lat="45.1243833" lon="8.0340967"><ele>296.0</ele><time>2026-05-01T10:25:28.152Z</time></trkpt><trkpt lat="45.12434" lon="8.0339383"><ele>296.0</ele><time>2026-05-01T10:25:29.155Z</time></trkpt><trkpt lat="45.12428" lon="8.0337933"><ele>297.25</ele><time>2026-05-01T10:25:30.157Z</time></trkpt><trkpt lat="45.124195" lon="8.0336733"><ele>298.5</ele><time>2026-05-01T10:25:31.152Z</time></trkpt><trkpt lat="45.12409" lon="8.0335917"><ele>299.75</ele><time>2026-05-01T10:25:32.153Z</time></trkpt><trkpt lat="45.1239717" lon="8.033555"><ele>301.0</ele><time>2026-05-01T10:25:33.158Z</time></trkpt><trkpt lat="45.12386" lon="8.0335533"><ele>301.0</ele><time>2026-05-01T10:25:34.153Z</time></trkpt><trkpt lat="45.12376" lon="8.0335667"><ele>301.0</ele><time>2026-05-01T10:25:35.156Z</time></trkpt><trkpt lat="45.1236683" lon="8.0335617"><ele>301.0</ele><time>2026-05-01T10:25:36.156Z</time></trkpt><trkpt lat="45.1235833" lon="8.033545"><ele>301.0</ele><time>2026-05-01T10:25:37.161Z</time></trkpt><trkpt lat="45.1235067" lon="8.0334817"><ele>301.0</ele><time>2026-05-01T10:25:38.154Z</time></trkpt><trkpt lat="45.1234383" lon="8.0334167"><ele>301.0</ele><time>2026-05-01T10:25:39.158Z</time></trkpt><trkpt lat="45.12345" lon="8.033325"><ele>301.0</ele><time>2026-05-01T10:25:40.159Z</time></trkpt><trkpt lat="45.1235133" lon="8.033275"><ele>301.0</ele><time>2026-05-01T10:25:42.154Z</time></trkpt><trkpt lat="45.123605" lon="8.03335"><ele>301.0</ele><time>2026-05-01T10:25:44.156Z</time></trkpt><trkpt lat="45.1237183" lon="8.0334183"><ele>301.0</ele><time>2026-05-01T10:25:46.153Z</time></trkpt><trkpt lat="45.123795" lon="8.0334183"><ele>301.0</ele><time>2026-05-01T10:25:47.156Z</time></trkpt><trkpt lat="45.1238733" lon="8.033395"><ele>301.0</ele><time>2026-05-01T10:25:48.155Z</time></trkpt><trkpt lat="45.12395" lon="8.03337"><ele>301.0</ele><time>2026-05-01T10:25:49.154Z</time></trkpt><trkpt lat="45.1240183" lon="8.0333333"><ele>301.0</ele><time>2026-05-01T10:25:50.156Z</time></trkpt><trkpt lat="45.1240733" lon="8.033285"><ele>301.0</ele><time>2026-05-01T10:25:51.153Z</time></trkpt><trkpt lat="45.1240567" lon="8.033155"><ele>301.0</ele><time>2026-05-01T10:25:53.159Z</time></trkpt><trkpt lat="45.123945" lon="8.0331167"><ele>301.0</ele><time>2026-05-01T10:25:55.156Z</time></trkpt><trkpt lat="45.123875" lon="8.0331467"><ele>303.14285714285717</ele><time>2026-05-01T10:25:56.154Z</time></trkpt><trkpt lat="45.1238083" lon="8.033165"><ele>305.2857142857143</ele><time>2026-05-01T10:25:57.154Z</time></trkpt><trkpt lat="45.1237417" lon="8.0331683"><ele>307.42857142857144</ele><time>2026-05-01T10:25:58.154Z</time></trkpt><trkpt lat="45.123685" lon="8.0331083"><ele>309.57142857142856</ele><time>2026-05-01T10:25:59.158Z</time></trkpt><trkpt lat="45.1236267" lon="8.0330467"><ele>311.7142857142857</ele><time>2026-05-01T10:26:00.154Z</time></trkpt><trkpt lat="45.1235867" lon="8.0329517"><ele>313.8571428571429</ele><time>2026-05-01T10:26:01.155Z</time></trkpt><trkpt lat="45.1235567" lon="8.0328333"><ele>316.0</ele><time>2026-05-01T10:26:02.154Z</time></trkpt><trkpt lat="45.1235467" lon="8.0326767"><ele>316.0</ele><time>2026-05-01T10:26:03.155Z</time></trkpt><trkpt lat="45.1235317" lon="8.0325067"><ele>316.0</ele><time>2026-05-01T10:26:04.154Z</time></trkpt><trkpt lat="45.1235033" lon="8.0323633"><ele>316.0</ele><time>2026-05-01T10:26:05.154Z</time></trkpt><trkpt lat="45.123465" lon="8.0322267"><ele>316.0</ele><time>2026-05-01T10:26:06.151Z</time></trkpt><trkpt lat="45.1234133" lon="8.0321133"><ele>316.0</ele><time>2026-05-01T10:26:07.158Z</time></trkpt><trkpt lat="45.1233433" lon="8.0320267"><ele>314.8333333333333</ele><time>2026-05-01T10:26:08.158Z</time></trkpt><trkpt lat="45.123275" lon="8.0319517"><ele>313.66666666666663</ele><time>2026-05-01T10:26:09.155Z</time></trkpt><trkpt lat="45.123215" lon="8.0318717"><ele>312.5</ele><time>2026-05-01T10:26:10.153Z</time></trkpt><trkpt lat="45.1231633" lon="8.0317767"><ele>311.3333333333333</ele><time>2026-05-01T10:26:11.154Z</time></trkpt><trkpt lat="45.1231183" lon="8.03167"><ele>310.1666666666667</ele><time>2026-05-01T10:26:12.157Z</time></trkpt><trkpt lat="45.1230767" lon="8.031555"><ele>309.0</ele><time>2026-05-01T10:26:13.155Z</time></trkpt><trkpt lat="45.12304" lon="8.031435"><ele>313.79999999999995</ele><time>2026-05-01T10:26:14.154Z</time></trkpt><trkpt lat="45.123" lon="8.0313117"><ele>318.59999999999997</ele><time>2026-05-01T10:26:15.159Z</time></trkpt><trkpt lat="45.1229617" lon="8.0311883"><ele>323.4</ele><time>2026-05-01T10:26:16.156Z</time></trkpt><trkpt lat="45.12293" lon="8.03106"><ele>328.2</ele><time>2026-05-01T10:26:17.155Z</time></trkpt><trkpt lat="45.1229" lon="8.0309317"><ele>333.0</ele><time>2026-05-01T10:26:18.153Z</time></trkpt><trkpt lat="45.122875" lon="8.0308"><ele>337.3333333333333</ele><time>2026-05-01T10:26:19.156Z</time></trkpt><trkpt lat="45.122855" lon="8.0306667"><ele>341.6666666666667</ele><time>2026-05-01T10:26:20.154Z</time></trkpt><trkpt lat="45.122825" lon="8.0305467"><ele>346.0</ele><time>2026-05-01T10:26:21.154Z</time></trkpt><trkpt lat="45.1227667" lon="8.03046"><ele>350.33333333333337</ele><time>2026-05-01T10:26:22.157Z</time></trkpt><trkpt lat="45.1227083" lon="8.0303883"><ele>354.6666666666667</ele><time>2026-05-01T10:26:23.153Z</time></trkpt><trkpt lat="45.122635" lon="8.030345"><ele>359.0</ele><time>2026-05-01T10:26:24.156Z</time></trkpt><trkpt lat="45.122545" lon="8.0303567"><ele>359.0</ele><time>2026-05-01T10:26:25.155Z</time></trkpt><trkpt lat="45.1224567" lon="8.03038"><ele>359.0</ele><time>2026-05-01T10:26:26.155Z</time></trkpt><trkpt lat="45.1223467" lon="8.0304883"><ele>359.0</ele><time>2026-05-01T10:26:27.154Z</time></trkpt><trkpt lat="45.12225" lon="8.03058"><ele>359.0</ele><time>2026-05-01T10:26:28.155Z</time></trkpt><trkpt lat="45.1221633" lon="8.0306583"><ele>359.0</ele><time>2026-05-01T10:26:29.155Z</time></trkpt><trkpt lat="45.1220717" lon="8.0306983"><ele>359.0</ele><time>2026-05-01T10:26:30.156Z</time></trkpt><trkpt lat="45.121975" lon="8.03074"><ele>359.0</ele><time>2026-05-01T10:26:31.157Z</time></trkpt><trkpt lat="45.1218817" lon="8.0307783"><ele>359.0</ele><time>2026-05-01T10:26:32.154Z</time></trkpt><trkpt lat="45.1217933" lon="8.03083"><ele>359.0</ele><time>2026-05-01T10:26:33.16Z</time></trkpt><trkpt lat="45.1217083" lon="8.0308733"><ele>359.0</ele><time>2026-05-01T10:26:34.159Z</time></trkpt><trkpt lat="45.1216383" lon="8.0309"><ele>353.6</ele><time>2026-05-01T10:26:35.157Z</time></trkpt><trkpt lat="45.1215633" lon="8.0308367"><ele>348.2</ele><time>2026-05-01T10:26:36.158Z</time></trkpt><trkpt lat="45.121485" lon="8.0307783"><ele>342.8</ele><time>2026-05-01T10:26:37.157Z</time></trkpt><trkpt lat="45.121385" lon="8.030725"><ele>337.40000000000003</ele><time>2026-05-01T10:26:38.154Z</time></trkpt><trkpt lat="45.1212867" lon="8.0306783"><ele>332.0</ele><time>2026-05-01T10:26:39.15Z</time></trkpt><trkpt lat="45.1212017" lon="8.0306233"><ele>332.0</ele><time>2026-05-01T10:26:40.152Z</time></trkpt><trkpt lat="45.12113" lon="8.03057"><ele>332.0</ele><time>2026-05-01T10:26:41.157Z</time></trkpt><trkpt lat="45.1210883" lon="8.0304933"><ele>332.0</ele><time>2026-05-01T10:26:42.153Z</time></trkpt><trkpt lat="45.12105" lon="8.0304117"><ele>332.0</ele><time>2026-05-01T10:26:43.159Z</time></trkpt><trkpt lat="45.1210383" lon="8.0303133"><ele>332.0</ele><time>2026-05-01T10:26:44.155Z</time></trkpt><trkpt lat="45.1210967" lon="8.030155"><ele>332.0</ele><time>2026-05-01T10:26:45.154Z</time></trkpt><trkpt lat="45.1211517" lon="8.0300083"><ele>333.8</ele><time>2026-05-01T10:26:46.156Z</time></trkpt><trkpt lat="45.1212133" lon="8.02987"><ele>335.6</ele><time>2026-05-01T10:26:47.156Z</time></trkpt><trkpt lat="45.1212733" lon="8.029745"><ele>337.40000000000003</ele><time>2026-05-01T10:26:48.159Z</time></trkpt><trkpt lat="45.1213233" lon="8.02963"><ele>339.20000000000005</ele><time>2026-05-01T10:26:49.155Z</time></trkpt><trkpt lat="45.1213483" lon="8.0295017"><ele>341.0</ele><time>2026-05-01T10:26:50.157Z</time></trkpt><trkpt lat="45.12134" lon="8.0293683"><ele>341.0</ele><time>2026-05-01T10:26:51.153Z</time></trkpt><trkpt lat="45.1213233" lon="8.029235"><ele>341.0</ele><time>2026-05-01T10:26:52.157Z</time></trkpt><trkpt lat="45.1213317" lon="8.0290867"><ele>341.0</ele><time>2026-05-01T10:26:53.154Z</time></trkpt><trkpt lat="45.12134" lon="8.0289433"><ele>341.0</ele><time>2026-05-01T10:26:54.152Z</time></trkpt><trkpt lat="45.1213367" lon="8.0287967"><ele>341.0</ele><time>2026-05-01T10:26:55.155Z</time></trkpt><trkpt lat="45.12131" lon="8.0286517"><ele>344.4</ele><time>2026-05-01T10:26:56.152Z</time></trkpt><trkpt lat="45.121265" lon="8.0285217"><ele>347.8</ele><time>2026-05-01T10:26:57.155Z</time></trkpt><trkpt lat="45.1212017" lon="8.02842"><ele>351.2</ele><time>2026-05-01T10:26:58.163Z</time></trkpt><trkpt lat="45.12112" lon="8.02836"><ele>354.59999999999997</ele><time>2026-05-01T10:26:59.154Z</time></trkpt><trkpt lat="45.1210217" lon="8.0283483"><ele>358.0</ele><time>2026-05-01T10:27:00.158Z</time></trkpt><trkpt lat="45.12092" lon="8.02835"><ele>358.0</ele><time>2026-05-01T10:27:01.154Z</time></trkpt><trkpt lat="45.1208083" lon="8.0283617"><ele>358.0</ele><time>2026-05-01T10:27:02.153Z</time></trkpt><trkpt lat="45.1207067" lon="8.02837"><ele>358.0</ele><time>2026-05-01T10:27:03.154Z</time></trkpt><trkpt lat="45.1206167" lon="8.0283633"><ele>358.0</ele><time>2026-05-01T10:27:04.151Z</time></trkpt><trkpt lat="45.120535" lon="8.028335"><ele>358.0</ele><time>2026-05-01T10:27:05.149Z</time></trkpt><trkpt lat="45.1204867" lon="8.028235"><ele>359.79999999999995</ele><time>2026-05-01T10:27:06.158Z</time></trkpt><trkpt lat="45.1204383" lon="8.02813"><ele>361.6</ele><time>2026-05-01T10:27:07.157Z</time></trkpt><trkpt lat="45.1204033" lon="8.027995"><ele>363.4</ele><time>2026-05-01T10:27:08.153Z</time></trkpt><trkpt lat="45.1203583" lon="8.0278633"><ele>365.20000000000005</ele><time>2026-05-01T10:27:09.156Z</time></trkpt><trkpt lat="45.12029" lon="8.0277367"><ele>367.0</ele><time>2026-05-01T10:27:10.156Z</time></trkpt><trkpt lat="45.1202017" lon="8.0276167"><ele>367.0</ele><time>2026-05-01T10:27:11.155Z</time></trkpt><trkpt lat="45.1201067" lon="8.027495"><ele>367.0</ele><time>2026-05-01T10:27:12.155Z</time></trkpt><trkpt lat="45.1200083" lon="8.0273783"><ele>367.0</ele><time>2026-05-01T10:27:13.152Z</time></trkpt><trkpt lat="45.1199183" lon="8.0272617"><ele>367.0</ele><time>2026-05-01T10:27:14.157Z</time></trkpt><trkpt lat="45.1198333" lon="8.0271583"><ele>370.0</ele><time>2026-05-01T10:27:15.155Z</time></trkpt><trkpt lat="45.119735" lon="8.027075"><ele>373.0</ele><time>2026-05-01T10:27:16.156Z</time></trkpt><trkpt lat="45.11963" lon="8.0270133"><ele>376.0</ele><time>2026-05-01T10:27:17.158Z</time></trkpt><trkpt lat="45.11952" lon="8.0269767"><ele>379.0</ele><time>2026-05-01T10:27:18.155Z</time></trkpt><trkpt lat="45.119405" lon="8.0269683"><ele>379.0</ele><time>2026-05-01T10:27:19.153Z</time></trkpt><trkpt lat="45.11929" lon="8.0269783"><ele>379.0</ele><time>2026-05-01T10:27:20.154Z</time></trkpt><trkpt lat="45.1191833" lon="8.027005"><ele>379.0</ele><time>2026-05-01T10:27:21.154Z</time></trkpt><trkpt lat="45.1190833" lon="8.02703"><ele>379.0</ele><time>2026-05-01T10:27:22.16Z</time></trkpt><trkpt lat="45.118985" lon="8.02703"><ele>379.0</ele><time>2026-05-01T10:27:23.154Z</time></trkpt><trkpt lat="45.1188917" lon="8.0269867"><ele>379.0</ele><time>2026-05-01T10:27:24.153Z</time></trkpt><trkpt lat="45.1187883" lon="8.0269433"><ele>379.0</ele><time>2026-05-01T10:27:25.154Z</time></trkpt><trkpt lat="45.1186833" lon="8.0269"><ele>379.0</ele><time>2026-05-01T10:27:26.158Z</time></trkpt><trkpt lat="45.1185833" lon="8.0268667"><ele>379.0</ele><time>2026-05-01T10:27:27.153Z</time></trkpt><trkpt lat="45.118505" lon="8.0268117"><ele>379.0</ele><time>2026-05-01T10:27:28.158Z</time></trkpt><trkpt lat="45.11844" lon="8.0267467"><ele>379.0</ele><time>2026-05-01T10:27:29.153Z</time></trkpt><trkpt lat="45.1183833" lon="8.0266583"><ele>379.0</ele><time>2026-05-01T10:27:30.154Z</time></trkpt><trkpt lat="45.118335" lon="8.0265483"><ele>379.0</ele><time>2026-05-01T10:27:31.153Z</time></trkpt><trkpt lat="45.1182883" lon="8.026415"><ele>379.0</ele><time>2026-05-01T10:27:32.155Z</time></trkpt><trkpt lat="45.1182333" lon="8.0262833"><ele>379.0</ele><time>2026-05-01T10:27:33.153Z</time></trkpt><trkpt lat="45.118175" lon="8.0261333"><ele>379.4</ele><time>2026-05-01T10:27:34.153Z</time></trkpt><trkpt lat="45.1181083" lon="8.026"><ele>379.79999999999995</ele><time>2026-05-01T10:27:35.154Z</time></trkpt><trkpt lat="45.11805" lon="8.0258733"><ele>380.20000000000005</ele><time>2026-05-01T10:27:36.156Z</time></trkpt><trkpt lat="45.11801" lon="8.025745"><ele>380.6</ele><time>2026-05-01T10:27:37.155Z</time></trkpt><trkpt lat="45.1179883" lon="8.025615"><ele>381.0</ele><time>2026-05-01T10:27:38.156Z</time></trkpt><trkpt lat="45.1179817" lon="8.025475"><ele>381.0</ele><time>2026-05-01T10:27:39.152Z</time></trkpt><trkpt lat="45.1179817" lon="8.0253317"><ele>381.0</ele><time>2026-05-01T10:27:40.153Z</time></trkpt><trkpt lat="45.1179733" lon="8.0251917"><ele>381.0</ele><time>2026-05-01T10:27:41.155Z</time></trkpt><trkpt lat="45.1179467" lon="8.0250733"><ele>381.0</ele><time>2026-05-01T10:27:42.153Z</time></trkpt><trkpt lat="45.1179017" lon="8.0249667"><ele>381.0</ele><time>2026-05-01T10:27:43.153Z</time></trkpt><trkpt lat="45.1178417" lon="8.0248717"><ele>384.6</ele><time>2026-05-01T10:27:44.154Z</time></trkpt><trkpt lat="45.1177667" lon="8.0247867"><ele>388.20000000000005</ele><time>2026-05-01T10:27:45.16Z</time></trkpt><trkpt lat="45.1176833" lon="8.0247167"><ele>391.79999999999995</ele><time>2026-05-01T10:27:46.15Z</time></trkpt><trkpt lat="45.1175833" lon="8.0246567"><ele>395.4</ele><time>2026-05-01T10:27:47.157Z</time></trkpt><trkpt lat="45.1174717" lon="8.0246017"><ele>399.0</ele><time>2026-05-01T10:27:48.15Z</time></trkpt><trkpt lat="45.1173617" lon="8.0245467"><ele>402.25</ele><time>2026-05-01T10:27:49.154Z</time></trkpt><trkpt lat="45.117245" lon="8.0245067"><ele>405.5</ele><time>2026-05-01T10:27:50.156Z</time></trkpt><trkpt lat="45.1171267" lon="8.02448"><ele>408.75</ele><time>2026-05-01T10:27:51.156Z</time></trkpt><trkpt lat="45.1170067" lon="8.0244767"><ele>412.0</ele><time>2026-05-01T10:27:52.161Z</time></trkpt><trkpt lat="45.11689" lon="8.024475"><ele>412.0</ele><time>2026-05-01T10:27:53.157Z</time></trkpt><trkpt lat="45.1167783" lon="8.024475"><ele>412.0</ele><time>2026-05-01T10:27:54.152Z</time></trkpt><trkpt lat="45.1166717" lon="8.0244683"><ele>412.0</ele><time>2026-05-01T10:27:55.153Z</time></trkpt><trkpt lat="45.1165633" lon="8.0244433"><ele>412.0</ele><time>2026-05-01T10:27:56.157Z</time></trkpt><trkpt lat="45.1164533" lon="8.0244217"><ele>412.0</ele><time>2026-05-01T10:27:57.155Z</time></trkpt><trkpt lat="45.1163483" lon="8.0244017"><ele>411.0</ele><time>2026-05-01T10:27:58.156Z</time></trkpt><trkpt lat="45.11624" lon="8.0243917"><ele>410.0</ele><time>2026-05-01T10:27:59.156Z</time></trkpt><trkpt lat="45.1161383" lon="8.02438"><ele>409.0</ele><time>2026-05-01T10:28:00.153Z</time></trkpt><trkpt lat="45.1160367" lon="8.02437"><ele>408.0</ele><time>2026-05-01T10:28:01.156Z</time></trkpt><trkpt lat="45.1159383" lon="8.0243617"><ele>407.0</ele><time>2026-05-01T10:28:02.154Z</time></trkpt><trkpt lat="45.1158417" lon="8.024355"><ele>406.99999999999994</ele><time>2026-05-01T10:28:03.157Z</time></trkpt><trkpt lat="45.1157517" lon="8.0243533"><ele>407.0</ele><time>2026-05-01T10:28:04.155Z</time></trkpt><trkpt lat="45.1156733" lon="8.0243417"><ele>407.0</ele><time>2026-05-01T10:28:05.153Z</time></trkpt><trkpt lat="45.115605" lon="8.02432"><ele>407.0</ele><time>2026-05-01T10:28:06.151Z</time></trkpt><trkpt lat="45.1155433" lon="8.024295"><ele>406.99999999999994</ele><time>2026-05-01T10:28:07.159Z</time></trkpt><trkpt lat="45.115445" lon="8.02423"><ele>407.0</ele><time>2026-05-01T10:28:09.153Z</time></trkpt><trkpt lat="45.11542" lon="8.0240783"><ele>402.8</ele><time>2026-05-01T10:28:11.155Z</time></trkpt><trkpt lat="45.11544" lon="8.0239767"><ele>398.6</ele><time>2026-05-01T10:28:12.153Z</time></trkpt><trkpt lat="45.1154883" lon="8.0238667"><ele>394.40000000000003</ele><time>2026-05-01T10:28:13.16Z</time></trkpt><trkpt lat="45.1155367" lon="8.0237483"><ele>390.20000000000005</ele><time>2026-05-01T10:28:14.154Z</time></trkpt><trkpt lat="45.1155917" lon="8.0236117"><ele>386.0</ele><time>2026-05-01T10:28:15.15Z</time></trkpt><trkpt lat="45.1156517" lon="8.023475"><ele>386.0</ele><time>2026-05-01T10:28:16.154Z</time></trkpt><trkpt lat="45.1157067" lon="8.02334"><ele>386.0</ele><time>2026-05-01T10:28:17.155Z</time></trkpt><trkpt lat="45.115765" lon="8.0232033"><ele>386.0</ele><time>2026-05-01T10:28:18.153Z</time></trkpt><trkpt lat="45.1158217" lon="8.0230667"><ele>386.0</ele><time>2026-05-01T10:28:19.154Z</time></trkpt><trkpt lat="45.1158983" lon="8.0229383"><ele>387.75</ele><time>2026-05-01T10:28:20.155Z</time></trkpt><trkpt lat="45.1159817" lon="8.0228183"><ele>389.5</ele><time>2026-05-01T10:28:21.153Z</time></trkpt><trkpt lat="45.1160667" lon="8.0226917"><ele>391.25</ele><time>2026-05-01T10:28:22.154Z</time></trkpt><trkpt lat="45.1161533" lon="8.02256"><ele>393.0</ele><time>2026-05-01T10:28:23.154Z</time></trkpt><trkpt lat="45.1162433" lon="8.0224333"><ele>389.5</ele><time>2026-05-01T10:28:24.156Z</time></trkpt><trkpt lat="45.116325" lon="8.022305"><ele>386.0</ele><time>2026-05-01T10:28:25.155Z</time></trkpt><trkpt lat="45.1163983" lon="8.022175"><ele>382.5</ele><time>2026-05-01T10:28:26.158Z</time></trkpt><trkpt lat="45.1164667" lon="8.02204"><ele>379.0</ele><time>2026-05-01T10:28:27.153Z</time></trkpt><trkpt lat="45.116525" lon="8.0218967"><ele>380.5</ele><time>2026-05-01T10:28:28.152Z</time></trkpt><trkpt lat="45.1165817" lon="8.02175"><ele>382.0</ele><time>2026-05-01T10:28:29.154Z</time></trkpt><trkpt lat="45.1166317" lon="8.0215967"><ele>383.5</ele><time>2026-05-01T10:28:30.152Z</time></trkpt><trkpt lat="45.1166883" lon="8.021445"><ele>385.0</ele><time>2026-05-01T10:28:31.156Z</time></trkpt><trkpt lat="45.1167467" lon="8.0212867"><ele>385.0</ele><time>2026-05-01T10:28:32.154Z</time></trkpt><trkpt lat="45.11681" lon="8.0211333"><ele>385.0</ele><time>2026-05-01T10:28:33.152Z</time></trkpt><trkpt lat="45.1168783" lon="8.02099"><ele>385.0</ele><time>2026-05-01T10:28:34.156Z</time></trkpt><trkpt lat="45.1169583" lon="8.02086"><ele>385.0</ele><time>2026-05-01T10:28:35.153Z</time></trkpt><trkpt lat="45.1170483" lon="8.0207433"><ele>382.5</ele><time>2026-05-01T10:28:36.153Z</time></trkpt><trkpt lat="45.1171333" lon="8.0206283"><ele>380.0</ele><time>2026-05-01T10:28:37.153Z</time></trkpt><trkpt lat="45.117215" lon="8.0205067"><ele>377.5</ele><time>2026-05-01T10:28:38.157Z</time></trkpt><trkpt lat="45.1172783" lon="8.020365"><ele>375.0</ele><time>2026-05-01T10:28:39.153Z</time></trkpt><trkpt lat="45.1173383" lon="8.0202183"><ele>375.0</ele><time>2026-05-01T10:28:40.154Z</time></trkpt><trkpt lat="45.1173883" lon="8.0200683"><ele>375.0</ele><time>2026-05-01T10:28:41.155Z</time></trkpt><trkpt lat="45.11744" lon="8.0199183"><ele>375.0</ele><time>2026-05-01T10:28:42.15Z</time></trkpt><trkpt lat="45.1174883" lon="8.0197633"><ele>375.0</ele><time>2026-05-01T10:28:43.155Z</time></trkpt><trkpt lat="45.1175383" lon="8.0196083"><ele>375.0</ele><time>2026-05-01T10:28:44.153Z</time></trkpt><trkpt lat="45.1175917" lon="8.0194517"><ele>375.0</ele><time>2026-05-01T10:28:45.152Z</time></trkpt><trkpt lat="45.1176383" lon="8.019295"><ele>375.0</ele><time>2026-05-01T10:28:46.155Z</time></trkpt><trkpt lat="45.11769" lon="8.0191383"><ele>375.0</ele><time>2026-05-01T10:28:47.157Z</time></trkpt><trkpt lat="45.1177417" lon="8.0189817"><ele>375.0</ele><time>2026-05-01T10:28:48.157Z</time></trkpt><trkpt lat="45.117795" lon="8.0188267"><ele>375.0</ele><time>2026-05-01T10:28:49.159Z</time></trkpt><trkpt lat="45.1178417" lon="8.0186733"><ele>375.0</ele><time>2026-05-01T10:28:50.155Z</time></trkpt><trkpt lat="45.1178817" lon="8.0185167"><ele>375.0</ele><time>2026-05-01T10:28:51.154Z</time></trkpt><trkpt lat="45.1178983" lon="8.0183583"><ele>375.4</ele><time>2026-05-01T10:28:52.154Z</time></trkpt><trkpt lat="45.1178883" lon="8.018205"><ele>375.8</ele><time>2026-05-01T10:28:53.154Z</time></trkpt><trkpt lat="45.1178483" lon="8.0180633"><ele>376.20000000000005</ele><time>2026-05-01T10:28:54.15Z</time></trkpt><trkpt lat="45.1177883" lon="8.017935"><ele>376.6</ele><time>2026-05-01T10:28:55.156Z</time></trkpt><trkpt lat="45.117725" lon="8.01781"><ele>377.0</ele><time>2026-05-01T10:28:56.155Z</time></trkpt><trkpt lat="45.11766" lon="8.01769"><ele>377.0</ele><time>2026-05-01T10:28:57.15Z</time></trkpt><trkpt lat="45.1176" lon="8.0175783"><ele>377.0</ele><time>2026-05-01T10:28:58.156Z</time></trkpt><trkpt lat="45.1175283" lon="8.0174917"><ele>377.0</ele><time>2026-05-01T10:28:59.157Z</time></trkpt><trkpt lat="45.117465" lon="8.0174317"><ele>377.0</ele><time>2026-05-01T10:29:00.156Z</time></trkpt><trkpt lat="45.1173767" lon="8.0174317"><ele>377.0</ele><time>2026-05-01T10:29:01.155Z</time></trkpt><trkpt lat="45.1172917" lon="8.0174533"><ele>377.0</ele><time>2026-05-01T10:29:02.154Z</time></trkpt><trkpt lat="45.1172033" lon="8.017505"><ele>378.8</ele><time>2026-05-01T10:29:03.154Z</time></trkpt><trkpt lat="45.117115" lon="8.0175783"><ele>380.6</ele><time>2026-05-01T10:29:04.154Z</time></trkpt><trkpt lat="45.1170233" lon="8.0176667"><ele>382.40000000000003</ele><time>2026-05-01T10:29:05.153Z</time></trkpt><trkpt lat="45.1169367" lon="8.0177433"><ele>384.20000000000005</ele><time>2026-05-01T10:29:06.153Z</time></trkpt><trkpt lat="45.116845" lon="8.0178067"><ele>386.0</ele><time>2026-05-01T10:29:07.151Z</time></trkpt><trkpt lat="45.1167417" lon="8.0178583"><ele>386.0</ele><time>2026-05-01T10:29:08.154Z</time></trkpt><trkpt lat="45.1166283" lon="8.017895"><ele>386.0</ele><time>2026-05-01T10:29:09.154Z</time></trkpt><trkpt lat="45.11651" lon="8.0179233"><ele>386.0</ele><time>2026-05-01T10:29:10.151Z</time></trkpt><trkpt lat="45.1163867" lon="8.01796"><ele>386.0</ele><time>2026-05-01T10:29:11.155Z</time></trkpt><trkpt lat="45.1162617" lon="8.0179917"><ele>385.75</ele><time>2026-05-01T10:29:12.151Z</time></trkpt><trkpt lat="45.1161317" lon="8.018055"><ele>385.5</ele><time>2026-05-01T10:29:13.156Z</time></trkpt><trkpt lat="45.1160133" lon="8.0181233"><ele>385.25</ele><time>2026-05-01T10:29:14.154Z</time></trkpt><trkpt lat="45.1159017" lon="8.018225"><ele>385.0</ele><time>2026-05-01T10:29:15.153Z</time></trkpt><trkpt lat="45.1158017" lon="8.01832"><ele>386.75</ele><time>2026-05-01T10:29:16.154Z</time></trkpt><trkpt lat="45.1157083" lon="8.01841"><ele>388.5</ele><time>2026-05-01T10:29:17.151Z</time></trkpt><trkpt lat="45.1156017" lon="8.018465"><ele>390.25</ele><time>2026-05-01T10:29:18.155Z</time></trkpt><trkpt lat="45.1154833" lon="8.01849"><ele>392.0</ele><time>2026-05-01T10:29:19.15Z</time></trkpt><trkpt lat="45.1153617" lon="8.0184883"><ele>392.0</ele><time>2026-05-01T10:29:20.151Z</time></trkpt><trkpt lat="45.1152433" lon="8.0184633"><ele>392.0</ele><time>2026-05-01T10:29:21.152Z</time></trkpt><trkpt lat="45.1151217" lon="8.0184333"><ele>392.0</ele><time>2026-05-01T10:29:22.153Z</time></trkpt><trkpt lat="45.1150017" lon="8.018415"><ele>392.0</ele><time>2026-05-01T10:29:23.154Z</time></trkpt><trkpt lat="45.1148817" lon="8.0184133"><ele>398.25</ele><time>2026-05-01T10:29:24.154Z</time></trkpt><trkpt lat="45.1147617" lon="8.0184333"><ele>404.5</ele><time>2026-05-01T10:29:25.154Z</time></trkpt><trkpt lat="45.1146467" lon="8.018475"><ele>410.75</ele><time>2026-05-01T10:29:26.153Z</time></trkpt><trkpt lat="45.1145283" lon="8.0185417"><ele>417.0</ele><time>2026-05-01T10:29:27.153Z</time></trkpt><trkpt lat="45.1144267" lon="8.0186483"><ele>417.0</ele><time>2026-05-01T10:29:28.153Z</time></trkpt><trkpt lat="45.1143333" lon="8.0187567"><ele>417.0</ele><time>2026-05-01T10:29:29.156Z</time></trkpt><trkpt lat="45.114245" lon="8.0188467"><ele>417.0</ele><time>2026-05-01T10:29:30.153Z</time></trkpt><trkpt lat="45.1141617" lon="8.01891"><ele>417.0</ele><time>2026-05-01T10:29:31.16Z</time></trkpt><trkpt lat="45.11406" lon="8.0189567"><ele>417.0</ele><time>2026-05-01T10:29:32.151Z</time></trkpt><trkpt lat="45.1139517" lon="8.0189867"><ele>418.0</ele><time>2026-05-01T10:29:33.152Z</time></trkpt><trkpt lat="45.113855" lon="8.0189817"><ele>419.0</ele><time>2026-05-01T10:29:34.156Z</time></trkpt><trkpt lat="45.1137583" lon="8.0189333"><ele>420.0</ele><time>2026-05-01T10:29:35.151Z</time></trkpt><trkpt lat="45.1136583" lon="8.018855"><ele>421.0</ele><time>2026-05-01T10:29:36.152Z</time></trkpt><trkpt lat="45.113555" lon="8.0187533"><ele>422.0</ele><time>2026-05-01T10:29:37.153Z</time></trkpt><trkpt lat="45.1134483" lon="8.0186433"><ele>422.0</ele><time>2026-05-01T10:29:38.152Z</time></trkpt><trkpt lat="45.1133433" lon="8.0185433"><ele>422.0</ele><time>2026-05-01T10:29:39.155Z</time></trkpt><trkpt lat="45.1132417" lon="8.0184583"><ele>422.0</ele><time>2026-05-01T10:29:40.151Z</time></trkpt><trkpt lat="45.1131317" lon="8.0184183"><ele>422.0</ele><time>2026-05-01T10:29:41.157Z</time></trkpt><trkpt lat="45.113015" lon="8.0184233"><ele>421.20000000000005</ele><time>2026-05-01T10:29:42.155Z</time></trkpt><trkpt lat="45.1129017" lon="8.0184417"><ele>420.4</ele><time>2026-05-01T10:29:43.151Z</time></trkpt><trkpt lat="45.1128083" lon="8.01842"><ele>419.6</ele><time>2026-05-01T10:29:44.156Z</time></trkpt><trkpt lat="45.11273" lon="8.018345"><ele>418.79999999999995</ele><time>2026-05-01T10:29:45.154Z</time></trkpt><trkpt lat="45.1126383" lon="8.0182667"><ele>418.0</ele><time>2026-05-01T10:29:46.155Z</time></trkpt><trkpt lat="45.1125433" lon="8.0182133"><ele>418.2</ele><time>2026-05-01T10:29:47.155Z</time></trkpt><trkpt lat="45.1124433" lon="8.018185"><ele>418.4</ele><time>2026-05-01T10:29:48.159Z</time></trkpt><trkpt lat="45.1123467" lon="8.018165"><ele>418.59999999999997</ele><time>2026-05-01T10:29:49.154Z</time></trkpt><trkpt lat="45.1122533" lon="8.0181883"><ele>418.79999999999995</ele><time>2026-05-01T10:29:50.16Z</time></trkpt><trkpt lat="45.1121683" lon="8.0182617"><ele>419.0</ele><time>2026-05-01T10:29:51.153Z</time></trkpt><trkpt lat="45.1120817" lon="8.0183683"><ele>419.75</ele><time>2026-05-01T10:29:52.155Z</time></trkpt><trkpt lat="45.1120117" lon="8.018495"><ele>420.5</ele><time>2026-05-01T10:29:53.154Z</time></trkpt><trkpt lat="45.11196" lon="8.0186483"><ele>421.25</ele><time>2026-05-01T10:29:54.152Z</time></trkpt><trkpt lat="45.1119233" lon="8.0188183"><ele>422.0</ele><time>2026-05-01T10:29:55.159Z</time></trkpt><trkpt lat="45.1118983" lon="8.0190033"><ele>422.75</ele><time>2026-05-01T10:29:56.156Z</time></trkpt><trkpt lat="45.1118833" lon="8.0191817"><ele>423.5</ele><time>2026-05-01T10:29:57.157Z</time></trkpt><trkpt lat="45.1118683" lon="8.0193483"><ele>424.25</ele><time>2026-05-01T10:29:58.152Z</time></trkpt><trkpt lat="45.1118567" lon="8.0195"><ele>425.0</ele><time>2026-05-01T10:29:59.153Z</time></trkpt><trkpt lat="45.1118133" lon="8.0196333"><ele>425.0</ele><time>2026-05-01T10:30:00.156Z</time></trkpt><trkpt lat="45.1117483" lon="8.0197483"><ele>425.0</ele><time>2026-05-01T10:30:01.15Z</time></trkpt><trkpt lat="45.1116517" lon="8.019835"><ele>425.0</ele><time>2026-05-01T10:30:02.15Z</time></trkpt><trkpt lat="45.1115583" lon="8.019905"><ele>425.0</ele><time>2026-05-01T10:30:03.151Z</time></trkpt><trkpt lat="45.111455" lon="8.01996"><ele>425.0</ele><time>2026-05-01T10:30:04.154Z</time></trkpt><trkpt lat="45.1113583" lon="8.0199967"><ele>424.16666666666663</ele><time>2026-05-01T10:30:05.151Z</time></trkpt><trkpt lat="45.111275" lon="8.0200033"><ele>423.3333333333333</ele><time>2026-05-01T10:30:06.156Z</time></trkpt><trkpt lat="45.1112083" lon="8.02"><ele>422.5</ele><time>2026-05-01T10:30:07.152Z</time></trkpt><trkpt lat="45.1111167" lon="8.0199533"><ele>421.66666666666663</ele><time>2026-05-01T10:30:09.154Z</time></trkpt><trkpt lat="45.1111133" lon="8.01986"><ele>420.8333333333333</ele><time>2026-05-01T10:30:11.153Z</time></trkpt><trkpt lat="45.1111883" lon="8.0197067"><ele>420.0</ele><time>2026-05-01T10:30:13.156Z</time></trkpt><trkpt lat="45.111255" lon="8.0196017"><ele>420.5</ele><time>2026-05-01T10:30:14.153Z</time></trkpt><trkpt lat="45.1113317" lon="8.019465"><ele>421.0</ele><time>2026-05-01T10:30:15.154Z</time></trkpt><trkpt lat="45.111415" lon="8.0192717"><ele>421.5</ele><time>2026-05-01T10:30:16.157Z</time></trkpt><trkpt lat="45.1115017" lon="8.0190817"><ele>422.0</ele><time>2026-05-01T10:30:17.153Z</time></trkpt><trkpt lat="45.1115867" lon="8.0188733"><ele>422.0</ele><time>2026-05-01T10:30:18.155Z</time></trkpt><trkpt lat="45.1116783" lon="8.0186717"><ele>422.0</ele><time>2026-05-01T10:30:19.153Z</time></trkpt><trkpt lat="45.1117617" lon="8.0184733"><ele>422.0</ele><time>2026-05-01T10:30:20.154Z</time></trkpt><trkpt lat="45.1118383" lon="8.0182867"><ele>421.25</ele><time>2026-05-01T10:30:21.154Z</time></trkpt><trkpt lat="45.1119167" lon="8.01811"><ele>420.5</ele><time>2026-05-01T10:30:22.151Z</time></trkpt><trkpt lat="45.11199" lon="8.0179383"><ele>419.75</ele><time>2026-05-01T10:30:23.15Z</time></trkpt><trkpt lat="45.112065" lon="8.0177617"><ele>419.0</ele><time>2026-05-01T10:30:24.152Z</time></trkpt><trkpt lat="45.1121417" lon="8.01758"><ele>417.0</ele><time>2026-05-01T10:30:25.158Z</time></trkpt><trkpt lat="45.1122217" lon="8.0173933"><ele>415.0</ele><time>2026-05-01T10:30:26.15Z</time></trkpt><trkpt lat="45.1123" lon="8.0172067"><ele>413.0</ele><time>2026-05-01T10:30:27.153Z</time></trkpt><trkpt lat="45.112375" lon="8.0170283"><ele>417.5</ele><time>2026-05-01T10:30:28.155Z</time></trkpt><trkpt lat="45.11245" lon="8.01685"><ele>422.0</ele><time>2026-05-01T10:30:29.16Z</time></trkpt><trkpt lat="45.112525" lon="8.0166733"><ele>426.5</ele><time>2026-05-01T10:30:30.157Z</time></trkpt><trkpt lat="45.1125867" lon="8.0164833"><ele>431.0</ele><time>2026-05-01T10:30:31.158Z</time></trkpt><trkpt lat="45.1126267" lon="8.01628"><ele>431.0</ele><time>2026-05-01T10:30:32.156Z</time></trkpt><trkpt lat="45.1126483" lon="8.01607"><ele>431.0</ele><time>2026-05-01T10:30:33.152Z</time></trkpt><trkpt lat="45.1126583" lon="8.0158467"><ele>431.0</ele><time>2026-05-01T10:30:34.16Z</time></trkpt><trkpt lat="45.112665" lon="8.01563"><ele>430.25</ele><time>2026-05-01T10:30:35.154Z</time></trkpt><trkpt lat="45.1126717" lon="8.0154267"><ele>429.5</ele><time>2026-05-01T10:30:36.155Z</time></trkpt><trkpt lat="45.112685" lon="8.01525"><ele>428.75</ele><time>2026-05-01T10:30:37.156Z</time></trkpt><trkpt lat="45.1127083" lon="8.0150917"><ele>428.0</ele><time>2026-05-01T10:30:38.154Z</time></trkpt><trkpt lat="45.1127483" lon="8.0149483"><ele>428.0</ele><time>2026-05-01T10:30:39.151Z</time></trkpt><trkpt lat="45.1128033" lon="8.01481"><ele>428.0</ele><time>2026-05-01T10:30:40.155Z</time></trkpt><trkpt lat="45.1128717" lon="8.01467"><ele>428.0</ele><time>2026-05-01T10:30:41.152Z</time></trkpt><trkpt lat="45.1129483" lon="8.0145233"><ele>428.0</ele><time>2026-05-01T10:30:42.152Z</time></trkpt><trkpt lat="45.1130317" lon="8.0143733"><ele>428.0</ele><time>2026-05-01T10:30:43.156Z</time></trkpt><trkpt lat="45.1131217" lon="8.01422"><ele>428.0</ele><time>2026-05-01T10:30:44.151Z</time></trkpt><trkpt lat="45.11321" lon="8.01406"><ele>428.0</ele><time>2026-05-01T10:30:45.153Z</time></trkpt><trkpt lat="45.1133" lon="8.0139"><ele>428.0</ele><time>2026-05-01T10:30:46.152Z</time></trkpt><trkpt lat="45.1133933" lon="8.01375"><ele>427.25</ele><time>2026-05-01T10:30:47.156Z</time></trkpt><trkpt lat="45.113485" lon="8.0136033"><ele>426.5</ele><time>2026-05-01T10:30:48.161Z</time></trkpt><trkpt lat="45.113575" lon="8.013465"><ele>425.75</ele><time>2026-05-01T10:30:49.155Z</time></trkpt><trkpt lat="45.1136733" lon="8.0133483"><ele>425.0</ele><time>2026-05-01T10:30:50.152Z</time></trkpt><trkpt lat="45.1137733" lon="8.0132467"><ele>422.0</ele><time>2026-05-01T10:30:51.152Z</time></trkpt><trkpt lat="45.113885" lon="8.0131717"><ele>419.0</ele><time>2026-05-01T10:30:52.155Z</time></trkpt><trkpt lat="45.1140017" lon="8.0131083"><ele>416.0</ele><time>2026-05-01T10:30:53.153Z</time></trkpt><trkpt lat="45.1141167" lon="8.0130367"><ele>413.0</ele><time>2026-05-01T10:30:54.156Z</time></trkpt><trkpt lat="45.114225" lon="8.01295"><ele>417.79999999999995</ele><time>2026-05-01T10:30:55.157Z</time></trkpt><trkpt lat="45.1143183" lon="8.0128617"><ele>422.6</ele><time>2026-05-01T10:30:56.153Z</time></trkpt><trkpt lat="45.1143967" lon="8.0127667"><ele>427.40000000000003</ele><time>2026-05-01T10:30:57.154Z</time></trkpt><trkpt lat="45.1144633" lon="8.0126783"><ele>432.20000000000005</ele><time>2026-05-01T10:30:58.154Z</time></trkpt><trkpt lat="45.11452" lon="8.0125983"><ele>437.0</ele><time>2026-05-01T10:30:59.153Z</time></trkpt><trkpt lat="45.114565" lon="8.0125283"><ele>435.0</ele><time>2026-05-01T10:31:00.155Z</time></trkpt><trkpt lat="45.1146033" lon="8.0124433"><ele>433.00000000000006</ele><time>2026-05-01T10:31:01.156Z</time></trkpt><trkpt lat="45.1146317" lon="8.0123383"><ele>431.00000000000006</ele><time>2026-05-01T10:31:02.161Z</time></trkpt><trkpt lat="45.1146583" lon="8.0122067"><ele>429.0</ele><time>2026-05-01T10:31:03.154Z</time></trkpt><trkpt lat="45.1146783" lon="8.0120433"><ele>427.0</ele><time>2026-05-01T10:31:04.152Z</time></trkpt><trkpt lat="45.1147017" lon="8.011875"><ele>427.0</ele><time>2026-05-01T10:31:05.152Z</time></trkpt><trkpt lat="45.1147233" lon="8.0117"><ele>427.0</ele><time>2026-05-01T10:31:06.153Z</time></trkpt><trkpt lat="45.11474" lon="8.0115167"><ele>427.0</ele><time>2026-05-01T10:31:07.16Z</time></trkpt><trkpt lat="45.11476" lon="8.0113317"><ele>427.0</ele><time>2026-05-01T10:31:08.155Z</time></trkpt><trkpt lat="45.1147783" lon="8.0111417"><ele>427.25</ele><time>2026-05-01T10:31:09.156Z</time></trkpt><trkpt lat="45.114795" lon="8.010945"><ele>427.5</ele><time>2026-05-01T10:31:10.154Z</time></trkpt><trkpt lat="45.1148133" lon="8.0107467"><ele>427.75</ele><time>2026-05-01T10:31:11.158Z</time></trkpt><trkpt lat="45.1148317" lon="8.01055"><ele>428.0</ele><time>2026-05-01T10:31:12.153Z</time></trkpt><trkpt lat="45.1148533" lon="8.0103567"><ele>428.5</ele><time>2026-05-01T10:31:13.157Z</time></trkpt><trkpt lat="45.1148733" lon="8.0101633"><ele>429.0</ele><time>2026-05-01T10:31:14.154Z</time></trkpt><trkpt lat="45.1148817" lon="8.0099667"><ele>429.5</ele><time>2026-05-01T10:31:15.154Z</time></trkpt><trkpt lat="45.11488" lon="8.009765"><ele>430.0</ele><time>2026-05-01T10:31:16.157Z</time></trkpt><trkpt lat="45.1148733" lon="8.0095633"><ele>430.0</ele><time>2026-05-01T10:31:17.154Z</time></trkpt><trkpt lat="45.1148667" lon="8.0093617"><ele>430.0</ele><time>2026-05-01T10:31:18.155Z</time></trkpt><trkpt lat="45.1148533" lon="8.009155"><ele>430.0</ele><time>2026-05-01T10:31:19.155Z</time></trkpt><trkpt lat="45.1148467" lon="8.0089483"><ele>430.0</ele><time>2026-05-01T10:31:20.152Z</time></trkpt><trkpt lat="45.114835" lon="8.0087417"><ele>432.25</ele><time>2026-05-01T10:31:21.155Z</time></trkpt><trkpt lat="45.1148283" lon="8.0085317"><ele>434.5</ele><time>2026-05-01T10:31:22.16Z</time></trkpt><trkpt lat="45.1148167" lon="8.0083283"><ele>436.75</ele><time>2026-05-01T10:31:23.154Z</time></trkpt><trkpt lat="45.1148067" lon="8.0081367"><ele>439.0</ele><time>2026-05-01T10:31:24.154Z</time></trkpt><trkpt lat="45.1147767" lon="8.00796"><ele>444.0</ele><time>2026-05-01T10:31:25.154Z</time></trkpt><trkpt lat="45.11473" lon="8.0078"><ele>449.0</ele><time>2026-05-01T10:31:26.155Z</time></trkpt><trkpt lat="45.1146583" lon="8.0076583"><ele>454.0</ele><time>2026-05-01T10:31:27.153Z</time></trkpt><trkpt lat="45.11456" lon="8.007555"><ele>459.0</ele><time>2026-05-01T10:31:28.154Z</time></trkpt><trkpt lat="45.114445" lon="8.007465"><ele>460.5</ele><time>2026-05-01T10:31:29.156Z</time></trkpt><trkpt lat="45.1143167" lon="8.0073717"><ele>462.0</ele><time>2026-05-01T10:31:30.149Z</time></trkpt><trkpt lat="45.114185" lon="8.00728"><ele>463.5</ele><time>2026-05-01T10:31:31.151Z</time></trkpt><trkpt lat="45.11405" lon="8.0071833"><ele>465.0</ele><time>2026-05-01T10:31:32.153Z</time></trkpt><trkpt lat="45.1139133" lon="8.0070833"><ele>465.0</ele><time>2026-05-01T10:31:33.152Z</time></trkpt><trkpt lat="45.113775" lon="8.00699"><ele>465.0</ele><time>2026-05-01T10:31:34.155Z</time></trkpt><trkpt lat="45.1136433" lon="8.0069"><ele>465.0</ele><time>2026-05-01T10:31:35.154Z</time></trkpt><trkpt lat="45.1135167" lon="8.00681"><ele>465.0</ele><time>2026-05-01T10:31:36.154Z</time></trkpt><trkpt lat="45.113395" lon="8.0067217"><ele>464.0</ele><time>2026-05-01T10:31:37.153Z</time></trkpt><trkpt lat="45.11328" lon="8.006635"><ele>463.0</ele><time>2026-05-01T10:31:38.156Z</time></trkpt><trkpt lat="45.1131783" lon="8.0065583"><ele>462.0</ele><time>2026-05-01T10:31:39.153Z</time></trkpt><trkpt lat="45.113095" lon="8.00649"><ele>461.0</ele><time>2026-05-01T10:31:40.158Z</time></trkpt><trkpt lat="45.113025" lon="8.0064217"><ele>460.0</ele><time>2026-05-01T10:31:41.155Z</time></trkpt><trkpt lat="45.1129667" lon="8.0063383"><ele>460.0</ele><time>2026-05-01T10:31:42.156Z</time></trkpt><trkpt lat="45.11297" lon="8.0062333"><ele>460.0</ele><time>2026-05-01T10:31:43.156Z</time></trkpt><trkpt lat="45.1130433" lon="8.0061483"><ele>460.0</ele><time>2026-05-01T10:31:44.154Z</time></trkpt><trkpt lat="45.1131083" lon="8.006085"><ele>460.0</ele><time>2026-05-01T10:31:45.157Z</time></trkpt><trkpt lat="45.1131967" lon="8.0060333"><ele>460.0</ele><time>2026-05-01T10:31:46.156Z</time></trkpt><trkpt lat="45.1133167" lon="8.0059883"><ele>459.25</ele><time>2026-05-01T10:31:47.153Z</time></trkpt><trkpt lat="45.1134433" lon="8.0059433"><ele>458.5</ele><time>2026-05-01T10:31:48.153Z</time></trkpt><trkpt lat="45.1135683" lon="8.005915"><ele>457.75</ele><time>2026-05-01T10:31:49.16Z</time></trkpt><trkpt lat="45.1136917" lon="8.0059133"><ele>457.0</ele><time>2026-05-01T10:31:50.155Z</time></trkpt><trkpt lat="45.1138217" lon="8.005935"><ele>457.0</ele><time>2026-05-01T10:31:51.157Z</time></trkpt><trkpt lat="45.1139467" lon="8.0059567"><ele>457.0</ele><time>2026-05-01T10:31:52.158Z</time></trkpt><trkpt lat="45.1140683" lon="8.0059667"><ele>457.0</ele><time>2026-05-01T10:31:53.157Z</time></trkpt><trkpt lat="45.11419" lon="8.0059317"><ele>457.0</ele><time>2026-05-01T10:31:54.148Z</time></trkpt><trkpt lat="45.1143017" lon="8.00587"><ele>451.0</ele><time>2026-05-01T10:31:55.153Z</time></trkpt><trkpt lat="45.1144117" lon="8.0057583"><ele>445.0</ele><time>2026-05-01T10:31:56.15Z</time></trkpt><trkpt lat="45.11451" lon="8.0056017"><ele>439.0</ele><time>2026-05-01T10:31:57.153Z</time></trkpt><trkpt lat="45.114615" lon="8.0054367"><ele>433.0</ele><time>2026-05-01T10:31:58.151Z</time></trkpt><trkpt lat="45.1147133" lon="8.0052633"><ele>433.0</ele><time>2026-05-01T10:31:59.15Z</time></trkpt><trkpt lat="45.1148033" lon="8.0050933"><ele>433.0</ele><time>2026-05-01T10:32:00.151Z</time></trkpt><trkpt lat="45.1148817" lon="8.0049267"><ele>433.0</ele><time>2026-05-01T10:32:01.158Z</time></trkpt><trkpt lat="45.1149717" lon="8.004795"><ele>433.0</ele><time>2026-05-01T10:32:02.152Z</time></trkpt><trkpt lat="45.1150767" lon="8.0046867"><ele>433.5</ele><time>2026-05-01T10:32:03.153Z</time></trkpt><trkpt lat="45.1151833" lon="8.004585"><ele>434.0</ele><time>2026-05-01T10:32:04.152Z</time></trkpt><trkpt lat="45.1153367" lon="8.0045417"><ele>434.5</ele><time>2026-05-01T10:32:05.157Z</time></trkpt><trkpt lat="45.1154483" lon="8.0044283"><ele>435.0</ele><time>2026-05-01T10:32:06.155Z</time></trkpt><trkpt lat="45.1155517" lon="8.00432"><ele>435.0</ele><time>2026-05-01T10:32:07.157Z</time></trkpt><trkpt lat="45.1156517" lon="8.00423"><ele>435.0</ele><time>2026-05-01T10:32:08.155Z</time></trkpt><trkpt lat="45.1157567" lon="8.0041733"><ele>435.0</ele><time>2026-05-01T10:32:09.151Z</time></trkpt><trkpt lat="45.1158717" lon="8.004195"><ele>435.0</ele><time>2026-05-01T10:32:10.154Z</time></trkpt><trkpt lat="45.11599" lon="8.0041883"><ele>432.6</ele><time>2026-05-01T10:32:11.155Z</time></trkpt><trkpt lat="45.1160967" lon="8.0041517"><ele>430.2</ele><time>2026-05-01T10:32:12.152Z</time></trkpt><trkpt lat="45.1161917" lon="8.0041033"><ele>427.79999999999995</ele><time>2026-05-01T10:32:13.154Z</time></trkpt><trkpt lat="45.116275" lon="8.004035"><ele>425.4</ele><time>2026-05-01T10:32:14.155Z</time></trkpt><trkpt lat="45.1163517" lon="8.0039633"><ele>423.0</ele><time>2026-05-01T10:32:15.152Z</time></trkpt><trkpt lat="45.1164267" lon="8.0038883"><ele>423.0</ele><time>2026-05-01T10:32:16.153Z</time></trkpt><trkpt lat="45.1164983" lon="8.00382"><ele>423.0</ele><time>2026-05-01T10:32:17.15Z</time></trkpt><trkpt lat="45.1165567" lon="8.003745"><ele>423.0</ele><time>2026-05-01T10:32:18.154Z</time></trkpt><trkpt lat="45.116605" lon="8.0036783"><ele>423.0</ele><time>2026-05-01T10:32:19.152Z</time></trkpt><trkpt lat="45.1166667" lon="8.00357"><ele>423.0</ele><time>2026-05-01T10:32:21.155Z</time></trkpt><trkpt lat="45.1167" lon="8.003485"><ele>423.0</ele><time>2026-05-01T10:32:23.163Z</time></trkpt><trkpt lat="45.1167383" lon="8.003395"><ele>425.0</ele><time>2026-05-01T10:32:25.16Z</time></trkpt><trkpt lat="45.1167917" lon="8.0032567"><ele>427.0</ele><time>2026-05-01T10:32:27.151Z</time></trkpt><trkpt lat="45.11683" lon="8.00318"><ele>429.0</ele><time>2026-05-01T10:32:28.154Z</time></trkpt><trkpt lat="45.1168683" lon="8.003105"><ele>431.0</ele><time>2026-05-01T10:32:29.155Z</time></trkpt><trkpt lat="45.1169067" lon="8.00303"><ele>433.0</ele><time>2026-05-01T10:32:30.159Z</time></trkpt><trkpt lat="45.1169667" lon="8.0028817"><ele>435.0</ele><time>2026-05-01T10:32:32.153Z</time></trkpt><trkpt lat="45.1170467" lon="8.0027583"><ele>435.0</ele><time>2026-05-01T10:32:34.155Z</time></trkpt><trkpt lat="45.1171417" lon="8.00265"><ele>435.0</ele><time>2026-05-01T10:32:36.161Z</time></trkpt><trkpt lat="45.117205" lon="8.0026033"><ele>435.0</ele><time>2026-05-01T10:32:37.153Z</time></trkpt><trkpt lat="45.1172767" lon="8.00255"><ele>435.0</ele><time>2026-05-01T10:32:38.153Z</time></trkpt><trkpt lat="45.1173533" lon="8.0024867"><ele>435.0</ele><time>2026-05-01T10:32:39.153Z</time></trkpt><trkpt lat="45.117445" lon="8.00244"><ele>437.8</ele><time>2026-05-01T10:32:40.155Z</time></trkpt><trkpt lat="45.1175417" lon="8.002385"><ele>440.6</ele><time>2026-05-01T10:32:41.155Z</time></trkpt><trkpt lat="45.1176433" lon="8.00233"><ele>443.4</ele><time>2026-05-01T10:32:42.159Z</time></trkpt><trkpt lat="45.1177483" lon="8.0022917"><ele>446.2</ele><time>2026-05-01T10:32:43.154Z</time></trkpt><trkpt lat="45.117845" lon="8.0022783"><ele>449.0</ele><time>2026-05-01T10:32:44.152Z</time></trkpt><trkpt lat="45.1179367" lon="8.0022833"><ele>449.0</ele><time>2026-05-01T10:32:45.15Z</time></trkpt><trkpt lat="45.1180367" lon="8.0023"><ele>449.0</ele><time>2026-05-01T10:32:46.155Z</time></trkpt><trkpt lat="45.1181283" lon="8.002315"><ele>449.0</ele><time>2026-05-01T10:32:47.152Z</time></trkpt><trkpt lat="45.1182267" lon="8.0023233"><ele>449.0</ele><time>2026-05-01T10:32:48.152Z</time></trkpt><trkpt lat="45.1183183" lon="8.002325"><ele>449.0</ele><time>2026-05-01T10:32:49.161Z</time></trkpt><trkpt lat="45.1184117" lon="8.0023083"><ele>446.2</ele><time>2026-05-01T10:32:50.157Z</time></trkpt><trkpt lat="45.1185067" lon="8.0022833"><ele>443.4</ele><time>2026-05-01T10:32:51.153Z</time></trkpt><trkpt lat="45.1185933" lon="8.002245"><ele>440.6</ele><time>2026-05-01T10:32:52.155Z</time></trkpt><trkpt lat="45.1186767" lon="8.0022033"><ele>437.8</ele><time>2026-05-01T10:32:53.157Z</time></trkpt><trkpt lat="45.1187683" lon="8.0021583"><ele>435.0</ele><time>2026-05-01T10:32:54.154Z</time></trkpt><trkpt lat="45.1188683" lon="8.002125"><ele>435.0</ele><time>2026-05-01T10:32:55.153Z</time></trkpt><trkpt lat="45.118965" lon="8.00209"><ele>435.0</ele><time>2026-05-01T10:32:56.155Z</time></trkpt><trkpt lat="45.1190667" lon="8.0020767"><ele>435.0</ele><time>2026-05-01T10:32:57.154Z</time></trkpt><trkpt lat="45.1191733" lon="8.0020717"><ele>435.0</ele><time>2026-05-01T10:32:58.154Z</time></trkpt><trkpt lat="45.1192733" lon="8.002105"><ele>435.0</ele><time>2026-05-01T10:32:59.153Z</time></trkpt><trkpt lat="45.1193783" lon="8.00206"><ele>433.25</ele><time>2026-05-01T10:33:00.151Z</time></trkpt><trkpt lat="45.1194817" lon="8.002005"><ele>431.5</ele><time>2026-05-01T10:33:01.155Z</time></trkpt><trkpt lat="45.119575" lon="8.001935"><ele>429.75</ele><time>2026-05-01T10:33:02.157Z</time></trkpt><trkpt lat="45.1196733" lon="8.0018567"><ele>428.0</ele><time>2026-05-01T10:33:03.154Z</time></trkpt><trkpt lat="45.1197767" lon="8.0017667"><ele>428.0</ele><time>2026-05-01T10:33:04.156Z</time></trkpt><trkpt lat="45.119885" lon="8.00168"><ele>428.0</ele><time>2026-05-01T10:33:05.153Z</time></trkpt><trkpt lat="45.1199933" lon="8.001585"><ele>428.0</ele><time>2026-05-01T10:33:06.156Z</time></trkpt><trkpt lat="45.1201067" lon="8.0014883"><ele>428.0</ele><time>2026-05-01T10:33:07.154Z</time></trkpt><trkpt lat="45.1202233" lon="8.0013917"><ele>426.5</ele><time>2026-05-01T10:33:08.154Z</time></trkpt><trkpt lat="45.1203417" lon="8.0013"><ele>425.0</ele><time>2026-05-01T10:33:09.155Z</time></trkpt><trkpt lat="45.1204633" lon="8.0012067"><ele>423.5</ele><time>2026-05-01T10:33:10.153Z</time></trkpt><trkpt lat="45.1205833" lon="8.0011067"><ele>422.0</ele><time>2026-05-01T10:33:11.157Z</time></trkpt><trkpt lat="45.12071" lon="8.001015"><ele>422.25</ele><time>2026-05-01T10:33:12.16Z</time></trkpt><trkpt lat="45.1208383" lon="8.0009433"><ele>422.5</ele><time>2026-05-01T10:33:13.157Z</time></trkpt><trkpt lat="45.12097" lon="8.0008867"><ele>422.75</ele><time>2026-05-01T10:33:14.15Z</time></trkpt><trkpt lat="45.1210933" lon="8.00082"><ele>423.0</ele><time>2026-05-01T10:33:15.158Z</time></trkpt><trkpt lat="45.1212017" lon="8.0007217"><ele>421.5</ele><time>2026-05-01T10:33:16.155Z</time></trkpt><trkpt lat="45.1212967" lon="8.0006033"><ele>420.0</ele><time>2026-05-01T10:33:17.155Z</time></trkpt><trkpt lat="45.1213867" lon="8.00048"><ele>418.5</ele><time>2026-05-01T10:33:18.157Z</time></trkpt><trkpt lat="45.121465" lon="8.0003483"><ele>417.0</ele><time>2026-05-01T10:33:19.156Z</time></trkpt><trkpt lat="45.1215267" lon="8.0002067"><ele>417.0</ele><time>2026-05-01T10:33:20.153Z</time></trkpt><trkpt lat="45.1215567" lon="8.0000467"><ele>417.0</ele><time>2026-05-01T10:33:21.151Z</time></trkpt><trkpt lat="45.1215617" lon="7.9998783"><ele>417.0</ele><time>2026-05-01T10:33:22.156Z</time></trkpt><trkpt lat="45.12156" lon="7.9997167"><ele>417.0</ele><time>2026-05-01T10:33:23.157Z</time></trkpt><trkpt lat="45.1215633" lon="7.9995717"><ele>419.40000000000003</ele><time>2026-05-01T10:33:24.153Z</time></trkpt><trkpt lat="45.1215817" lon="7.999435"><ele>421.8</ele><time>2026-05-01T10:33:25.157Z</time></trkpt><trkpt lat="45.12162" lon="7.999305"><ele>424.2</ele><time>2026-05-01T10:33:26.151Z</time></trkpt><trkpt lat="45.12168" lon="7.99918"><ele>426.6</ele><time>2026-05-01T10:33:27.156Z</time></trkpt><trkpt lat="45.1217517" lon="7.9990567"><ele>429.0</ele><time>2026-05-01T10:33:28.156Z</time></trkpt><trkpt lat="45.1218317" lon="7.998925"><ele>429.0</ele><time>2026-05-01T10:33:29.149Z</time></trkpt><trkpt lat="45.1219233" lon="7.9987883"><ele>429.0</ele><time>2026-05-01T10:33:30.155Z</time></trkpt><trkpt lat="45.1220233" lon="7.9986517"><ele>429.0</ele><time>2026-05-01T10:33:31.155Z</time></trkpt><trkpt lat="45.122125" lon="7.9985133"><ele>429.0</ele><time>2026-05-01T10:33:32.155Z</time></trkpt><trkpt lat="45.122235" lon="7.99839"><ele>427.0</ele><time>2026-05-01T10:33:33.153Z</time></trkpt><trkpt lat="45.1223417" lon="7.9982833"><ele>425.0</ele><time>2026-05-01T10:33:34.16Z</time></trkpt><trkpt lat="45.1224483" lon="7.99819"><ele>423.0</ele><time>2026-05-01T10:33:35.151Z</time></trkpt><trkpt lat="45.12255" lon="7.9981033"><ele>421.0</ele><time>2026-05-01T10:33:36.159Z</time></trkpt><trkpt lat="45.1226417" lon="7.9980283"><ele>424.00000000000006</ele><time>2026-05-01T10:33:37.152Z</time></trkpt><trkpt lat="45.1227233" lon="7.9979633"><ele>427.0</ele><time>2026-05-01T10:33:38.156Z</time></trkpt><trkpt lat="45.1227967" lon="7.997915"><ele>430.0</ele><time>2026-05-01T10:33:39.154Z</time></trkpt><trkpt lat="45.1228717" lon="7.99787"><ele>433.0</ele><time>2026-05-01T10:33:40.159Z</time></trkpt><trkpt lat="45.1229433" lon="7.9978183"><ele>436.00000000000006</ele><time>2026-05-01T10:33:41.153Z</time></trkpt><trkpt lat="45.1230133" lon="7.9977433"><ele>439.0</ele><time>2026-05-01T10:33:42.156Z</time></trkpt><trkpt lat="45.1230583" lon="7.997625"><ele>437.75</ele><time>2026-05-01T10:33:43.151Z</time></trkpt><trkpt lat="45.1230933" lon="7.997475"><ele>436.5</ele><time>2026-05-01T10:33:44.154Z</time></trkpt><trkpt lat="45.1231117" lon="7.9973017"><ele>435.25</ele><time>2026-05-01T10:33:45.151Z</time></trkpt><trkpt lat="45.123125" lon="7.9971233"><ele>434.0</ele><time>2026-05-01T10:33:46.157Z</time></trkpt><trkpt lat="45.1231417" lon="7.9969483"><ele>434.0</ele><time>2026-05-01T10:33:47.153Z</time></trkpt><trkpt lat="45.1231683" lon="7.9967767"><ele>434.0</ele><time>2026-05-01T10:33:48.165Z</time></trkpt><trkpt lat="45.1231983" lon="7.9966017"><ele>434.0</ele><time>2026-05-01T10:33:49.158Z</time></trkpt><trkpt lat="45.123235" lon="7.996425"><ele>434.0</ele><time>2026-05-01T10:33:50.149Z</time></trkpt><trkpt lat="45.1232717" lon="7.9962533"><ele>441.0</ele><time>2026-05-01T10:33:51.151Z</time></trkpt><trkpt lat="45.1233067" lon="7.9960867"><ele>448.0</ele><time>2026-05-01T10:33:52.152Z</time></trkpt><trkpt lat="45.123335" lon="7.9959217"><ele>455.0</ele><time>2026-05-01T10:33:53.151Z</time></trkpt><trkpt lat="45.12336" lon="7.9957683"><ele>462.0</ele><time>2026-05-01T10:33:54.161Z</time></trkpt><trkpt lat="45.1233533" lon="7.9956233"><ele>462.0</ele><time>2026-05-01T10:33:55.154Z</time></trkpt><trkpt lat="45.1233217" lon="7.9954917"><ele>462.00000000000006</ele><time>2026-05-01T10:33:56.156Z</time></trkpt><trkpt lat="45.12327" lon="7.99538"><ele>462.00000000000006</ele><time>2026-05-01T10:33:57.155Z</time></trkpt><trkpt lat="45.1231983" lon="7.9952917"><ele>462.0</ele><time>2026-05-01T10:33:58.152Z</time></trkpt><trkpt lat="45.12311" lon="7.995225"><ele>462.0</ele><time>2026-05-01T10:33:59.155Z</time></trkpt><trkpt lat="45.1230117" lon="7.995185"><ele>458.25</ele><time>2026-05-01T10:34:00.154Z</time></trkpt><trkpt lat="45.1229" lon="7.9951633"><ele>454.5</ele><time>2026-05-01T10:34:01.157Z</time></trkpt><trkpt lat="45.1227833" lon="7.9951417"><ele>450.75</ele><time>2026-05-01T10:34:02.157Z</time></trkpt><trkpt lat="45.1226633" lon="7.9951233"><ele>447.0</ele><time>2026-05-01T10:34:03.155Z</time></trkpt><trkpt lat="45.1225383" lon="7.9951033"><ele>447.0</ele><time>2026-05-01T10:34:04.156Z</time></trkpt><trkpt lat="45.12242" lon="7.9950817"><ele>447.00000000000006</ele><time>2026-05-01T10:34:05.154Z</time></trkpt><trkpt lat="45.1223133" lon="7.9950433"><ele>447.00000000000006</ele><time>2026-05-01T10:34:06.16Z</time></trkpt><trkpt lat="45.12221" lon="7.9950017"><ele>447.0</ele><time>2026-05-01T10:34:07.157Z</time></trkpt><trkpt lat="45.1221117" lon="7.9949517"><ele>447.0</ele><time>2026-05-01T10:34:08.153Z</time></trkpt><trkpt lat="45.1220233" lon="7.99489"><ele>450.25</ele><time>2026-05-01T10:34:09.154Z</time></trkpt><trkpt lat="45.1219317" lon="7.994815"><ele>453.5</ele><time>2026-05-01T10:34:10.158Z</time></trkpt><trkpt lat="45.1218367" lon="7.9947283"><ele>456.75</ele><time>2026-05-01T10:34:11.151Z</time></trkpt><trkpt lat="45.1217383" lon="7.9946217"><ele>460.0</ele><time>2026-05-01T10:34:12.155Z</time></trkpt><trkpt lat="45.1216433" lon="7.9944983"><ele>462.25</ele><time>2026-05-01T10:34:13.152Z</time></trkpt><trkpt lat="45.1215483" lon="7.9943667"><ele>464.5</ele><time>2026-05-01T10:34:14.152Z</time></trkpt><trkpt lat="45.1214517" lon="7.9942333"><ele>466.75</ele><time>2026-05-01T10:34:15.152Z</time></trkpt><trkpt lat="45.121355" lon="7.9941133"><ele>469.0</ele><time>2026-05-01T10:34:16.152Z</time></trkpt><trkpt lat="45.1212517" lon="7.9939967"><ele>471.0</ele><time>2026-05-01T10:34:17.151Z</time></trkpt><trkpt lat="45.1211467" lon="7.99389"><ele>473.0</ele><time>2026-05-01T10:34:18.155Z</time></trkpt><trkpt lat="45.1210383" lon="7.99379"><ele>475.0</ele><time>2026-05-01T10:34:19.154Z</time></trkpt><trkpt lat="45.120935" lon="7.99369"><ele>477.0</ele><time>2026-05-01T10:34:20.154Z</time></trkpt><trkpt lat="45.120855" lon="7.9935683"><ele>477.0</ele><time>2026-05-01T10:34:21.155Z</time></trkpt><trkpt lat="45.1207983" lon="7.993425"><ele>477.0</ele><time>2026-05-01T10:34:22.157Z</time></trkpt><trkpt lat="45.1207583" lon="7.99327"><ele>477.0</ele><time>2026-05-01T10:34:23.158Z</time></trkpt><trkpt lat="45.12072" lon="7.993105"><ele>477.0</ele><time>2026-05-01T10:34:24.155Z</time></trkpt><trkpt lat="45.120665" lon="7.9929617"><ele>471.8</ele><time>2026-05-01T10:34:25.155Z</time></trkpt><trkpt lat="45.1206067" lon="7.99283"><ele>466.6</ele><time>2026-05-01T10:34:26.15Z</time></trkpt><trkpt lat="45.120545" lon="7.9927017"><ele>461.40000000000003</ele><time>2026-05-01T10:34:27.151Z</time></trkpt><trkpt lat="45.1204983" lon="7.992565"><ele>456.20000000000005</ele><time>2026-05-01T10:34:28.156Z</time></trkpt><trkpt lat="45.1204583" lon="7.992405"><ele>451.0</ele><time>2026-05-01T10:34:29.153Z</time></trkpt><trkpt lat="45.1204317" lon="7.9922067"><ele>451.0</ele><time>2026-05-01T10:34:30.152Z</time></trkpt><trkpt lat="45.1204067" lon="7.9919983"><ele>451.0</ele><time>2026-05-01T10:34:31.152Z</time></trkpt><trkpt lat="45.1203767" lon="7.9917917"><ele>451.0</ele><time>2026-05-01T10:34:32.157Z</time></trkpt><trkpt lat="45.120335" lon="7.9915917"><ele>451.0</ele><time>2026-05-01T10:34:33.155Z</time></trkpt><trkpt lat="45.12028" lon="7.991405"><ele>454.5</ele><time>2026-05-01T10:34:34.154Z</time></trkpt><trkpt lat="45.120205" lon="7.9912183"><ele>458.0</ele><time>2026-05-01T10:34:35.155Z</time></trkpt><trkpt lat="45.120125" lon="7.9910367"><ele>461.5</ele><time>2026-05-01T10:34:36.156Z</time></trkpt><trkpt lat="45.12005" lon="7.9908683"><ele>465.0</ele><time>2026-05-01T10:34:37.155Z</time></trkpt><trkpt lat="45.1199767" lon="7.990715"><ele>466.0</ele><time>2026-05-01T10:34:38.154Z</time></trkpt><trkpt lat="45.1198883" lon="7.9905783"><ele>467.0</ele><time>2026-05-01T10:34:39.16Z</time></trkpt><trkpt lat="45.1197883" lon="7.99045"><ele>468.0</ele><time>2026-05-01T10:34:40.16Z</time></trkpt><trkpt lat="45.119685" lon="7.9903217"><ele>469.0</ele><time>2026-05-01T10:34:41.152Z</time></trkpt><trkpt lat="45.1195783" lon="7.9901983"><ele>469.0</ele><time>2026-05-01T10:34:42.152Z</time></trkpt><trkpt lat="45.1194667" lon="7.9900767"><ele>469.0</ele><time>2026-05-01T10:34:43.154Z</time></trkpt><trkpt lat="45.1193567" lon="7.9899583"><ele>469.0</ele><time>2026-05-01T10:34:44.153Z</time></trkpt><trkpt lat="45.1192417" lon="7.9898417"><ele>469.0</ele><time>2026-05-01T10:34:45.152Z</time></trkpt><trkpt lat="45.1191233" lon="7.9897283"><ele>473.25</ele><time>2026-05-01T10:34:46.155Z</time></trkpt><trkpt lat="45.1190083" lon="7.989625"><ele>477.5</ele><time>2026-05-01T10:34:47.153Z</time></trkpt><trkpt lat="45.1189017" lon="7.9895133"><ele>481.75</ele><time>2026-05-01T10:34:48.155Z</time></trkpt><trkpt lat="45.1188117" lon="7.9893717"><ele>486.0</ele><time>2026-05-01T10:34:49.153Z</time></trkpt><trkpt lat="45.11873" lon="7.9892217"><ele>485.5</ele><time>2026-05-01T10:34:50.153Z</time></trkpt><trkpt lat="45.118645" lon="7.9890767"><ele>485.0</ele><time>2026-05-01T10:34:51.151Z</time></trkpt><trkpt lat="45.1185383" lon="7.9889483"><ele>484.5</ele><time>2026-05-01T10:34:52.156Z</time></trkpt><trkpt lat="45.118435" lon="7.98882"><ele>484.0</ele><time>2026-05-01T10:34:53.153Z</time></trkpt><trkpt lat="45.1183367" lon="7.9886917"><ele>484.0</ele><time>2026-05-01T10:34:54.153Z</time></trkpt><trkpt lat="45.118265" lon="7.9885667"><ele>484.0</ele><time>2026-05-01T10:34:55.155Z</time></trkpt><trkpt lat="45.118215" lon="7.988435"><ele>484.0</ele><time>2026-05-01T10:34:56.155Z</time></trkpt><trkpt lat="45.1181783" lon="7.98829"><ele>484.0</ele><time>2026-05-01T10:34:57.154Z</time></trkpt><trkpt lat="45.1181567" lon="7.9881217"><ele>484.0</ele><time>2026-05-01T10:34:58.154Z</time></trkpt><trkpt lat="45.1181233" lon="7.987945"><ele>482.5</ele><time>2026-05-01T10:34:59.155Z</time></trkpt><trkpt lat="45.11808" lon="7.987785"><ele>481.0</ele><time>2026-05-01T10:35:00.154Z</time></trkpt><trkpt lat="45.11803" lon="7.9876267"><ele>479.5</ele><time>2026-05-01T10:35:01.156Z</time></trkpt><trkpt lat="45.117975" lon="7.9874717"><ele>478.0</ele><time>2026-05-01T10:35:02.154Z</time></trkpt><trkpt lat="45.117915" lon="7.9873167"><ele>478.0</ele><time>2026-05-01T10:35:03.155Z</time></trkpt><trkpt lat="45.11785" lon="7.987175"><ele>478.0</ele><time>2026-05-01T10:35:04.153Z</time></trkpt><trkpt lat="45.117785" lon="7.9870333"><ele>478.0</ele><time>2026-05-01T10:35:05.155Z</time></trkpt><trkpt lat="45.1177183" lon="7.9868917"><ele>478.0</ele><time>2026-05-01T10:35:06.153Z</time></trkpt><trkpt lat="45.1176633" lon="7.98675"><ele>480.0</ele><time>2026-05-01T10:35:07.156Z</time></trkpt><trkpt lat="45.11762" lon="7.9865967"><ele>482.0</ele><time>2026-05-01T10:35:08.154Z</time></trkpt><trkpt lat="45.11757" lon="7.98644"><ele>484.0</ele><time>2026-05-01T10:35:09.153Z</time></trkpt><trkpt lat="45.11753" lon="7.986265"><ele>486.0</ele><time>2026-05-01T10:35:10.153Z</time></trkpt><trkpt lat="45.1174733" lon="7.9860917"><ele>486.0</ele><time>2026-05-01T10:35:11.152Z</time></trkpt><trkpt lat="45.117405" lon="7.9859133"><ele>486.0</ele><time>2026-05-01T10:35:12.153Z</time></trkpt><trkpt lat="45.1173183" lon="7.9857617"><ele>486.0</ele><time>2026-05-01T10:35:13.157Z</time></trkpt><trkpt lat="45.117225" lon="7.9856283"><ele>486.0</ele><time>2026-05-01T10:35:14.151Z</time></trkpt><trkpt lat="45.1171133" lon="7.9855267"><ele>482.75</ele><time>2026-05-01T10:35:15.151Z</time></trkpt><trkpt lat="45.1169817" lon="7.985455"><ele>479.5</ele><time>2026-05-01T10:35:16.151Z</time></trkpt><trkpt lat="45.116865" lon="7.98538"><ele>476.25</ele><time>2026-05-01T10:35:17.149Z</time></trkpt><trkpt lat="45.1167617" lon="7.9853033"><ele>473.0</ele><time>2026-05-01T10:35:18.151Z</time></trkpt><trkpt lat="45.1166583" lon="7.985245"><ele>471.2</ele><time>2026-05-01T10:35:19.155Z</time></trkpt><trkpt lat="45.11656" lon="7.9851933"><ele>469.4</ele><time>2026-05-01T10:35:20.16Z</time></trkpt><trkpt lat="45.116475" lon="7.9851167"><ele>467.59999999999997</ele><time>2026-05-01T10:35:21.153Z</time></trkpt><trkpt lat="45.1163917" lon="7.98501"><ele>465.79999999999995</ele><time>2026-05-01T10:35:22.16Z</time></trkpt><trkpt lat="45.1163033" lon="7.9848783"><ele>464.0</ele><time>2026-05-01T10:35:23.15Z</time></trkpt><trkpt lat="45.1162117" lon="7.984735"><ele>464.0</ele><time>2026-05-01T10:35:24.158Z</time></trkpt><trkpt lat="45.1161083" lon="7.9845983"><ele>464.0</ele><time>2026-05-01T10:35:25.153Z</time></trkpt><trkpt lat="45.1160017" lon="7.9844633"><ele>464.0</ele><time>2026-05-01T10:35:26.153Z</time></trkpt><trkpt lat="45.1158967" lon="7.9843433"><ele>464.0</ele><time>2026-05-01T10:35:27.154Z</time></trkpt><trkpt lat="45.1158083" lon="7.984225"><ele>466.0</ele><time>2026-05-01T10:35:28.162Z</time></trkpt><trkpt lat="45.1157467" lon="7.9840917"><ele>468.0</ele><time>2026-05-01T10:35:29.154Z</time></trkpt><trkpt lat="45.1156967" lon="7.9839467"><ele>470.0</ele><time>2026-05-01T10:35:30.155Z</time></trkpt><trkpt lat="45.1156567" lon="7.9837967"><ele>472.0</ele><time>2026-05-01T10:35:31.156Z</time></trkpt><trkpt lat="45.1156333" lon="7.9836533"><ele>474.0</ele><time>2026-05-01T10:35:32.156Z</time></trkpt><trkpt lat="45.115625" lon="7.98354"><ele>470.0</ele><time>2026-05-01T10:35:33.158Z</time></trkpt><trkpt lat="45.1156317" lon="7.983445"><ele>466.0</ele><time>2026-05-01T10:35:34.158Z</time></trkpt><trkpt lat="45.11567" lon="7.9833283"><ele>462.0</ele><time>2026-05-01T10:35:36.154Z</time></trkpt><trkpt lat="45.1156333" lon="7.9832517"><ele>458.0</ele><time>2026-05-01T10:35:39.161Z</time></trkpt><trkpt lat="45.1155283" lon="7.983285"><ele>454.0</ele><time>2026-05-01T10:35:41.154Z</time></trkpt><trkpt lat="45.1154567" lon="7.9833167"><ele>450.0</ele><time>2026-05-01T10:35:42.152Z</time></trkpt><trkpt lat="45.1153667" lon="7.9833283"><ele>450.0</ele><time>2026-05-01T10:35:43.155Z</time></trkpt><trkpt lat="45.11526" lon="7.9833183"><ele>450.0</ele><time>2026-05-01T10:35:44.152Z</time></trkpt><trkpt lat="45.1151533" lon="7.9833033"><ele>450.0</ele><time>2026-05-01T10:35:45.152Z</time></trkpt><trkpt lat="45.115055" lon="7.98326"><ele>450.0</ele><time>2026-05-01T10:35:46.152Z</time></trkpt><trkpt lat="45.1149717" lon="7.9832217"><ele>450.0</ele><time>2026-05-01T10:35:47.151Z</time></trkpt><trkpt lat="45.1148817" lon="7.9831967"><ele>449.0</ele><time>2026-05-01T10:35:48.161Z</time></trkpt><trkpt lat="45.1147933" lon="7.9831817"><ele>448.0</ele><time>2026-05-01T10:35:49.152Z</time></trkpt><trkpt lat="45.1146983" lon="7.98317"><ele>447.0</ele><time>2026-05-01T10:35:50.154Z</time></trkpt><trkpt lat="45.1145883" lon="7.9831783"><ele>446.0</ele><time>2026-05-01T10:35:51.152Z</time></trkpt><trkpt lat="45.11448" lon="7.9832083"><ele>445.0</ele><time>2026-05-01T10:35:52.153Z</time></trkpt><trkpt lat="45.1143733" lon="7.9832583"><ele>445.0</ele><time>2026-05-01T10:35:53.159Z</time></trkpt><trkpt lat="45.11427" lon="7.983315"><ele>445.0</ele><time>2026-05-01T10:35:54.152Z</time></trkpt><trkpt lat="45.1141683" lon="7.9833767"><ele>445.0</ele><time>2026-05-01T10:35:55.155Z</time></trkpt><trkpt lat="45.1140717" lon="7.983435"><ele>445.0</ele><time>2026-05-01T10:35:56.153Z</time></trkpt><trkpt lat="45.11398" lon="7.9834917"><ele>445.0</ele><time>2026-05-01T10:35:57.156Z</time></trkpt><trkpt lat="45.1139" lon="7.9835533"><ele>445.50000000000006</ele><time>2026-05-01T10:35:58.152Z</time></trkpt><trkpt lat="45.1138333" lon="7.9836267"><ele>446.0</ele><time>2026-05-01T10:35:59.15Z</time></trkpt><trkpt lat="45.1137733" lon="7.9837117"><ele>446.5</ele><time>2026-05-01T10:36:00.152Z</time></trkpt><trkpt lat="45.1137233" lon="7.983805"><ele>447.0</ele><time>2026-05-01T10:36:01.151Z</time></trkpt><trkpt lat="45.11368" lon="7.983905"><ele>447.50000000000006</ele><time>2026-05-01T10:36:02.154Z</time></trkpt><trkpt lat="45.113635" lon="7.9840083"><ele>448.0</ele><time>2026-05-01T10:36:03.15Z</time></trkpt><trkpt lat="45.1135883" lon="7.9841133"><ele>449.79999999999995</ele><time>2026-05-01T10:36:04.156Z</time></trkpt><trkpt lat="45.1135367" lon="7.98421"><ele>451.59999999999997</ele><time>2026-05-01T10:36:05.151Z</time></trkpt><trkpt lat="45.113475" lon="7.9842917"><ele>453.40000000000003</ele><time>2026-05-01T10:36:06.155Z</time></trkpt><trkpt lat="45.1134033" lon="7.984385"><ele>455.20000000000005</ele><time>2026-05-01T10:36:07.156Z</time></trkpt><trkpt lat="45.1133283" lon="7.9844617"><ele>457.0</ele><time>2026-05-01T10:36:08.158Z</time></trkpt><trkpt lat="45.1132533" lon="7.9845467"><ele>456.20000000000005</ele><time>2026-05-01T10:36:09.15Z</time></trkpt><trkpt lat="45.11317" lon="7.9846333"><ele>455.40000000000003</ele><time>2026-05-01T10:36:10.158Z</time></trkpt><trkpt lat="45.1130917" lon="7.98472"><ele>454.59999999999997</ele><time>2026-05-01T10:36:11.159Z</time></trkpt><trkpt lat="45.11301" lon="7.98481"><ele>453.79999999999995</ele><time>2026-05-01T10:36:12.159Z</time></trkpt><trkpt lat="45.112935" lon="7.9849"><ele>453.0</ele><time>2026-05-01T10:36:13.162Z</time></trkpt><trkpt lat="45.1128617" lon="7.9850033"><ele>454.59999999999997</ele><time>2026-05-01T10:36:14.157Z</time></trkpt><trkpt lat="45.11279" lon="7.9851083"><ele>456.19999999999993</ele><time>2026-05-01T10:36:15.153Z</time></trkpt><trkpt lat="45.1127133" lon="7.9852117"><ele>457.8</ele><time>2026-05-01T10:36:16.154Z</time></trkpt><trkpt lat="45.11264" lon="7.9853217"><ele>459.4</ele><time>2026-05-01T10:36:17.153Z</time></trkpt><trkpt lat="45.1125583" lon="7.98543"><ele>461.0</ele><time>2026-05-01T10:36:18.157Z</time></trkpt><trkpt lat="45.1124733" lon="7.98554"><ele>458.0</ele><time>2026-05-01T10:36:19.154Z</time></trkpt><trkpt lat="45.1123967" lon="7.9856617"><ele>455.0</ele><time>2026-05-01T10:36:20.155Z</time></trkpt><trkpt lat="45.112325" lon="7.98579"><ele>452.0</ele><time>2026-05-01T10:36:21.154Z</time></trkpt><trkpt lat="45.1122683" lon="7.985925"><ele>449.0</ele><time>2026-05-01T10:36:22.153Z</time></trkpt><trkpt lat="45.1122033" lon="7.98606"><ele>449.0</ele><time>2026-05-01T10:36:23.155Z</time></trkpt><trkpt lat="45.1121417" lon="7.9861933"><ele>449.0</ele><time>2026-05-01T10:36:24.155Z</time></trkpt><trkpt lat="45.1120833" lon="7.9863333"><ele>449.0</ele><time>2026-05-01T10:36:25.155Z</time></trkpt><trkpt lat="45.11203" lon="7.9864783"><ele>449.0</ele><time>2026-05-01T10:36:26.151Z</time></trkpt><trkpt lat="45.11197" lon="7.9866233"><ele>449.25</ele><time>2026-05-01T10:36:27.151Z</time></trkpt><trkpt lat="45.1119083" lon="7.9867633"><ele>449.5</ele><time>2026-05-01T10:36:28.155Z</time></trkpt><trkpt lat="45.1118467" lon="7.9869017"><ele>449.75</ele><time>2026-05-01T10:36:29.158Z</time></trkpt><trkpt lat="45.1117783" lon="7.9870333"><ele>450.0</ele><time>2026-05-01T10:36:30.153Z</time></trkpt><trkpt lat="45.11171" lon="7.987165"><ele>450.0</ele><time>2026-05-01T10:36:31.151Z</time></trkpt><trkpt lat="45.111645" lon="7.9872983"><ele>450.0</ele><time>2026-05-01T10:36:32.157Z</time></trkpt><trkpt lat="45.11158" lon="7.9874417"><ele>450.0</ele><time>2026-05-01T10:36:33.155Z</time></trkpt><trkpt lat="45.1115217" lon="7.9875983"><ele>450.0</ele><time>2026-05-01T10:36:34.155Z</time></trkpt><trkpt lat="45.1114633" lon="7.9877567"><ele>451.0</ele><time>2026-05-01T10:36:35.153Z</time></trkpt><trkpt lat="45.1114067" lon="7.9879133"><ele>452.0</ele><time>2026-05-01T10:36:36.159Z</time></trkpt><trkpt lat="45.1113533" lon="7.988045"><ele>453.0</ele><time>2026-05-01T10:36:37.155Z</time></trkpt><trkpt lat="45.1113017" lon="7.9881533"><ele>454.0</ele><time>2026-05-01T10:36:38.155Z</time></trkpt><trkpt lat="45.111255" lon="7.98825"><ele>455.0</ele><time>2026-05-01T10:36:39.153Z</time></trkpt><trkpt lat="45.1112" lon="7.9883267"><ele>454.2</ele><time>2026-05-01T10:36:40.157Z</time></trkpt><trkpt lat="45.1111333" lon="7.9884017"><ele>453.4</ele><time>2026-05-01T10:36:41.153Z</time></trkpt><trkpt lat="45.111055" lon="7.988465"><ele>452.6</ele><time>2026-05-01T10:36:42.152Z</time></trkpt><trkpt lat="45.11097" lon="7.9885133"><ele>451.8</ele><time>2026-05-01T10:36:43.154Z</time></trkpt><trkpt lat="45.1108833" lon="7.98857"><ele>451.0</ele><time>2026-05-01T10:36:44.153Z</time></trkpt><trkpt lat="45.1107883" lon="7.9886267"><ele>449.75</ele><time>2026-05-01T10:36:45.155Z</time></trkpt><trkpt lat="45.1106833" lon="7.9886833"><ele>448.5</ele><time>2026-05-01T10:36:46.157Z</time></trkpt><trkpt lat="45.11058" lon="7.9887483"><ele>447.25</ele><time>2026-05-01T10:36:47.16Z</time></trkpt><trkpt lat="45.1104683" lon="7.9888183"><ele>446.0</ele><time>2026-05-01T10:36:48.151Z</time></trkpt><trkpt lat="45.1103617" lon="7.9889167"><ele>446.0</ele><time>2026-05-01T10:36:49.157Z</time></trkpt><trkpt lat="45.11026" lon="7.9890267"><ele>446.0</ele><time>2026-05-01T10:36:50.151Z</time></trkpt><trkpt lat="45.1101833" lon="7.9891417"><ele>446.0</ele><time>2026-05-01T10:36:51.151Z</time></trkpt><trkpt lat="45.1101117" lon="7.9892717"><ele>446.0</ele><time>2026-05-01T10:36:52.151Z</time></trkpt><trkpt lat="45.1100417" lon="7.989395"><ele>445.20000000000005</ele><time>2026-05-01T10:36:53.154Z</time></trkpt><trkpt lat="45.109975" lon="7.9895133"><ele>444.40000000000003</ele><time>2026-05-01T10:36:54.152Z</time></trkpt><trkpt lat="45.109905" lon="7.98961"><ele>443.6</ele><time>2026-05-01T10:36:55.153Z</time></trkpt><trkpt lat="45.1098283" lon="7.9896883"><ele>442.8</ele><time>2026-05-01T10:36:56.158Z</time></trkpt><trkpt lat="45.109735" lon="7.989765"><ele>442.0</ele><time>2026-05-01T10:36:57.155Z</time></trkpt><trkpt lat="45.1096367" lon="7.989825"><ele>443.6</ele><time>2026-05-01T10:36:58.152Z</time></trkpt><trkpt lat="45.109535" lon="7.9898617"><ele>445.20000000000005</ele><time>2026-05-01T10:36:59.155Z</time></trkpt><trkpt lat="45.10943" lon="7.9898867"><ele>446.8</ele><time>2026-05-01T10:37:00.163Z</time></trkpt><trkpt lat="45.1093217" lon="7.9899067"><ele>448.4</ele><time>2026-05-01T10:37:01.159Z</time></trkpt><trkpt lat="45.1092167" lon="7.989925"><ele>450.0</ele><time>2026-05-01T10:37:02.156Z</time></trkpt><trkpt lat="45.109125" lon="7.989955"><ele>449.0</ele><time>2026-05-01T10:37:03.154Z</time></trkpt><trkpt lat="45.10904" lon="7.9900067"><ele>448.0</ele><time>2026-05-01T10:37:04.155Z</time></trkpt><trkpt lat="45.10897" lon="7.9900667"><ele>447.0</ele><time>2026-05-01T10:37:05.157Z</time></trkpt><trkpt lat="45.1089017" lon="7.990135"><ele>446.0</ele><time>2026-05-01T10:37:06.155Z</time></trkpt><trkpt lat="45.10884" lon="7.99021"><ele>445.0</ele><time>2026-05-01T10:37:07.16Z</time></trkpt><trkpt lat="45.1087983" lon="7.990315"><ele>444.0</ele><time>2026-05-01T10:37:08.154Z</time></trkpt><trkpt lat="45.1087583" lon="7.9904267"><ele>444.0</ele><time>2026-05-01T10:37:09.157Z</time></trkpt><trkpt lat="45.1087267" lon="7.990555"><ele>444.0</ele><time>2026-05-01T10:37:10.155Z</time></trkpt><trkpt lat="45.108675" lon="7.990675"><ele>444.0</ele><time>2026-05-01T10:37:11.158Z</time></trkpt><trkpt lat="45.1085983" lon="7.9907967"><ele>444.0</ele><time>2026-05-01T10:37:12.155Z</time></trkpt><trkpt lat="45.1085217" lon="7.99092"><ele>444.0</ele><time>2026-05-01T10:37:13.158Z</time></trkpt><trkpt lat="45.1084567" lon="7.9910483"><ele>443.75</ele><time>2026-05-01T10:37:14.153Z</time></trkpt><trkpt lat="45.1083817" lon="7.9911867"><ele>443.5</ele><time>2026-05-01T10:37:15.153Z</time></trkpt><trkpt lat="45.1082983" lon="7.99132"><ele>443.25</ele><time>2026-05-01T10:37:16.154Z</time></trkpt><trkpt lat="45.1082" lon="7.9914217"><ele>443.0</ele><time>2026-05-01T10:37:17.155Z</time></trkpt><trkpt lat="45.1080917" lon="7.9915033"><ele>443.0</ele><time>2026-05-01T10:37:18.155Z</time></trkpt><trkpt lat="45.1079867" lon="7.9915717"><ele>442.99999999999994</ele><time>2026-05-01T10:37:19.155Z</time></trkpt><trkpt lat="45.1078867" lon="7.99165"><ele>442.99999999999994</ele><time>2026-05-01T10:37:20.155Z</time></trkpt><trkpt lat="45.107805" lon="7.991735"><ele>443.0</ele><time>2026-05-01T10:37:21.156Z</time></trkpt><trkpt lat="45.1077383" lon="7.9918217"><ele>443.0</ele><time>2026-05-01T10:37:22.155Z</time></trkpt><trkpt lat="45.10768" lon="7.9919233"><ele>446.0</ele><time>2026-05-01T10:37:23.152Z</time></trkpt><trkpt lat="45.1076383" lon="7.9920833"><ele>449.0</ele><time>2026-05-01T10:37:24.155Z</time></trkpt><trkpt lat="45.1075933" lon="7.9922333"><ele>452.0</ele><time>2026-05-01T10:37:25.154Z</time></trkpt><trkpt lat="45.10754" lon="7.9923633"><ele>455.0</ele><time>2026-05-01T10:37:26.158Z</time></trkpt><trkpt lat="45.1074933" lon="7.9925017"><ele>455.2</ele><time>2026-05-01T10:37:27.151Z</time></trkpt><trkpt lat="45.10744" lon="7.9926117"><ele>455.4</ele><time>2026-05-01T10:37:28.153Z</time></trkpt><trkpt lat="45.1073917" lon="7.9927133"><ele>455.6</ele><time>2026-05-01T10:37:29.157Z</time></trkpt><trkpt lat="45.1073083" lon="7.9927633"><ele>455.8</ele><time>2026-05-01T10:37:30.152Z</time></trkpt><trkpt lat="45.10722" lon="7.992815"><ele>456.0</ele><time>2026-05-01T10:37:31.158Z</time></trkpt><trkpt lat="45.1071133" lon="7.99282"><ele>458.5</ele><time>2026-05-01T10:37:32.154Z</time></trkpt><trkpt lat="45.1069483" lon="7.9927883"><ele>461.0</ele><time>2026-05-01T10:37:33.15Z</time></trkpt><trkpt lat="45.1068133" lon="7.9927983"><ele>463.5</ele><time>2026-05-01T10:37:34.151Z</time></trkpt><trkpt lat="45.10668" lon="7.9928233"><ele>466.0</ele><time>2026-05-01T10:37:35.149Z</time></trkpt><trkpt lat="45.1065467" lon="7.9928433"><ele>460.75</ele><time>2026-05-01T10:37:36.154Z</time></trkpt><trkpt lat="45.1064167" lon="7.9928567"><ele>455.5</ele><time>2026-05-01T10:37:37.156Z</time></trkpt><trkpt lat="45.1062833" lon="7.9928317"><ele>450.25</ele><time>2026-05-01T10:37:38.154Z</time></trkpt><trkpt lat="45.1061633" lon="7.99279"><ele>445.0</ele><time>2026-05-01T10:37:39.153Z</time></trkpt><trkpt lat="45.10605" lon="7.9927367"><ele>445.0</ele><time>2026-05-01T10:37:40.156Z</time></trkpt><trkpt lat="45.1059467" lon="7.992635"><ele>445.0</ele><time>2026-05-01T10:37:41.153Z</time></trkpt><trkpt lat="45.1058517" lon="7.9925283"><ele>445.0</ele><time>2026-05-01T10:37:42.155Z</time></trkpt><trkpt lat="45.1057533" lon="7.99243"><ele>445.0</ele><time>2026-05-01T10:37:43.151Z</time></trkpt><trkpt lat="45.1056533" lon="7.9923517"><ele>438.4</ele><time>2026-05-01T10:37:44.155Z</time></trkpt><trkpt lat="45.105555" lon="7.9923017"><ele>431.8</ele><time>2026-05-01T10:37:45.156Z</time></trkpt><trkpt lat="45.10546" lon="7.9922733"><ele>425.20000000000005</ele><time>2026-05-01T10:37:46.15Z</time></trkpt><trkpt lat="45.105365" lon="7.9922683"><ele>418.6</ele><time>2026-05-01T10:37:47.152Z</time></trkpt><trkpt lat="45.105285" lon="7.9922833"><ele>412.0</ele><time>2026-05-01T10:37:48.15Z</time></trkpt><trkpt lat="45.1052083" lon="7.99231"><ele>412.0</ele><time>2026-05-01T10:37:49.158Z</time></trkpt><trkpt lat="45.1051367" lon="7.9924083"><ele>412.0</ele><time>2026-05-01T10:37:50.158Z</time></trkpt><trkpt lat="45.105065" lon="7.9925083"><ele>412.0</ele><time>2026-05-01T10:37:51.152Z</time></trkpt><trkpt lat="45.1049933" lon="7.99263"><ele>412.0</ele><time>2026-05-01T10:37:52.153Z</time></trkpt><trkpt lat="45.104915" lon="7.9927283"><ele>412.0</ele><time>2026-05-01T10:37:53.154Z</time></trkpt><trkpt lat="45.1048283" lon="7.9928017"><ele>408.20000000000005</ele><time>2026-05-01T10:37:54.152Z</time></trkpt><trkpt lat="45.1047383" lon="7.9928617"><ele>404.4</ele><time>2026-05-01T10:37:55.151Z</time></trkpt><trkpt lat="45.1046367" lon="7.992905"><ele>400.6</ele><time>2026-05-01T10:37:56.154Z</time></trkpt><trkpt lat="45.1045317" lon="7.9929383"><ele>396.79999999999995</ele><time>2026-05-01T10:37:57.15Z</time></trkpt><trkpt lat="45.1044233" lon="7.99295"><ele>393.0</ele><time>2026-05-01T10:37:58.15Z</time></trkpt><trkpt lat="45.1043217" lon="7.99294"><ele>393.0</ele><time>2026-05-01T10:37:59.15Z</time></trkpt><trkpt lat="45.1042183" lon="7.9929283"><ele>393.0</ele><time>2026-05-01T10:38:00.152Z</time></trkpt><trkpt lat="45.1041117" lon="7.9929033"><ele>393.0</ele><time>2026-05-01T10:38:01.157Z</time></trkpt><trkpt lat="45.1040017" lon="7.9928733"><ele>393.0</ele><time>2026-05-01T10:38:02.156Z</time></trkpt><trkpt lat="45.1038933" lon="7.992845"><ele>393.0</ele><time>2026-05-01T10:38:03.153Z</time></trkpt><trkpt lat="45.1038017" lon="7.992795"><ele>391.8333333333333</ele><time>2026-05-01T10:38:04.155Z</time></trkpt><trkpt lat="45.103705" lon="7.9927383"><ele>390.66666666666663</ele><time>2026-05-01T10:38:05.154Z</time></trkpt><trkpt lat="45.1036217" lon="7.992675"><ele>389.5</ele><time>2026-05-01T10:38:06.156Z</time></trkpt><trkpt lat="45.1035533" lon="7.9926167"><ele>388.3333333333333</ele><time>2026-05-01T10:38:07.156Z</time></trkpt><trkpt lat="45.10349" lon="7.9925767"><ele>387.16666666666663</ele><time>2026-05-01T10:38:08.159Z</time></trkpt><trkpt lat="45.103405" lon="7.99254"><ele>386.0</ele><time>2026-05-01T10:38:10.159Z</time></trkpt><trkpt lat="45.1033983" lon="7.9924417"><ele>385.99999999999994</ele><time>2026-05-01T10:38:14.159Z</time></trkpt><trkpt lat="45.10347" lon="7.99241"><ele>386.0</ele><time>2026-05-01T10:38:16.154Z</time></trkpt><trkpt lat="45.1035817" lon="7.9924033"><ele>386.0</ele><time>2026-05-01T10:38:18.155Z</time></trkpt><trkpt lat="45.103665" lon="7.992415"><ele>386.0</ele><time>2026-05-01T10:38:19.156Z</time></trkpt><trkpt lat="45.1037533" lon="7.992435"><ele>385.99999999999994</ele><time>2026-05-01T10:38:20.158Z</time></trkpt><trkpt lat="45.10384" lon="7.992445"><ele>386.0</ele><time>2026-05-01T10:38:21.153Z</time></trkpt><trkpt lat="45.1039233" lon="7.992445"><ele>385.99999999999994</ele><time>2026-05-01T10:38:22.152Z</time></trkpt><trkpt lat="45.1040067" lon="7.99243"><ele>386.0</ele><time>2026-05-01T10:38:23.155Z</time></trkpt><trkpt lat="45.1040867" lon="7.99239"><ele>386.0</ele><time>2026-05-01T10:38:24.157Z</time></trkpt><trkpt lat="45.1041633" lon="7.99234"><ele>386.0</ele><time>2026-05-01T10:38:25.153Z</time></trkpt><trkpt lat="45.1042367" lon="7.9922483"><ele>385.99999999999994</ele><time>2026-05-01T10:38:26.156Z</time></trkpt><trkpt lat="45.1043067" lon="7.99216"><ele>386.0</ele><time>2026-05-01T10:38:27.152Z</time></trkpt><trkpt lat="45.1043683" lon="7.9920583"><ele>385.0</ele><time>2026-05-01T10:38:28.152Z</time></trkpt><trkpt lat="45.1044133" lon="7.9919383"><ele>384.0</ele><time>2026-05-01T10:38:29.154Z</time></trkpt><trkpt lat="45.1044083" lon="7.9918083"><ele>383.0</ele><time>2026-05-01T10:38:30.154Z</time></trkpt><trkpt lat="45.10439" lon="7.9916717"><ele>382.0</ele><time>2026-05-01T10:38:31.159Z</time></trkpt><trkpt lat="45.1043717" lon="7.9915333"><ele>381.0</ele><time>2026-05-01T10:38:32.152Z</time></trkpt><trkpt lat="45.1043583" lon="7.99139"><ele>381.0</ele><time>2026-05-01T10:38:33.155Z</time></trkpt><trkpt lat="45.1043617" lon="7.9912433"><ele>381.0</ele><time>2026-05-01T10:38:34.151Z</time></trkpt><trkpt lat="45.10438" lon="7.9910883"><ele>381.0</ele><time>2026-05-01T10:38:35.154Z</time></trkpt><trkpt lat="45.1044133" lon="7.9909267"><ele>381.0</ele><time>2026-05-01T10:38:36.152Z</time></trkpt><trkpt lat="45.104455" lon="7.9907617"><ele>378.0</ele><time>2026-05-01T10:38:37.157Z</time></trkpt><trkpt lat="45.1044933" lon="7.9905967"><ele>375.0</ele><time>2026-05-01T10:38:38.155Z</time></trkpt><trkpt lat="45.1045283" lon="7.9904317"><ele>372.0</ele><time>2026-05-01T10:38:39.151Z</time></trkpt><trkpt lat="45.1045467" lon="7.9902633"><ele>369.0</ele><time>2026-05-01T10:38:40.155Z</time></trkpt><trkpt lat="45.1045567" lon="7.9900967"><ele>367.5</ele><time>2026-05-01T10:38:41.158Z</time></trkpt><trkpt lat="45.1045733" lon="7.98993"><ele>366.0</ele><time>2026-05-01T10:38:42.152Z</time></trkpt><trkpt lat="45.1045767" lon="7.989745"><ele>364.5</ele><time>2026-05-01T10:38:43.153Z</time></trkpt><trkpt lat="45.1045767" lon="7.9895533"><ele>363.0</ele><time>2026-05-01T10:38:44.154Z</time></trkpt><trkpt lat="45.1045833" lon="7.9893567"><ele>361.25</ele><time>2026-05-01T10:38:45.153Z</time></trkpt><trkpt lat="45.104585" lon="7.9891617"><ele>359.5</ele><time>2026-05-01T10:38:46.156Z</time></trkpt><trkpt lat="45.104585" lon="7.98898"><ele>357.75</ele><time>2026-05-01T10:38:47.157Z</time></trkpt><trkpt lat="45.10458" lon="7.988815"><ele>356.0</ele><time>2026-05-01T10:38:48.157Z</time></trkpt><trkpt lat="45.1045583" lon="7.9886567"><ele>356.0</ele><time>2026-05-01T10:38:49.154Z</time></trkpt><trkpt lat="45.1045183" lon="7.9885033"><ele>356.0</ele><time>2026-05-01T10:38:50.154Z</time></trkpt><trkpt lat="45.1044617" lon="7.98835"><ele>356.0</ele><time>2026-05-01T10:38:51.154Z</time></trkpt><trkpt lat="45.1043967" lon="7.9882017"><ele>356.0</ele><time>2026-05-01T10:38:52.152Z</time></trkpt><trkpt lat="45.1043417" lon="7.9880583"><ele>355.0</ele><time>2026-05-01T10:38:53.152Z</time></trkpt><trkpt lat="45.1042883" lon="7.9879233"><ele>354.0</ele><time>2026-05-01T10:38:54.154Z</time></trkpt><trkpt lat="45.104225" lon="7.987805"><ele>353.0</ele><time>2026-05-01T10:38:55.156Z</time></trkpt><trkpt lat="45.104155" lon="7.987705"><ele>352.0</ele><time>2026-05-01T10:38:56.155Z</time></trkpt><trkpt lat="45.1040683" lon="7.9876283"><ele>351.0</ele><time>2026-05-01T10:38:57.155Z</time></trkpt><trkpt lat="45.1039633" lon="7.987565"><ele>348.25</ele><time>2026-05-01T10:38:58.155Z</time></trkpt><trkpt lat="45.1038533" lon="7.9875"><ele>345.5</ele><time>2026-05-01T10:38:59.156Z</time></trkpt><trkpt lat="45.1037483" lon="7.9874333"><ele>342.75</ele><time>2026-05-01T10:39:00.159Z</time></trkpt><trkpt lat="45.1036467" lon="7.98737"><ele>340.0</ele><time>2026-05-01T10:39:01.155Z</time></trkpt><trkpt lat="45.1035533" lon="7.9873"><ele>340.0</ele><time>2026-05-01T10:39:02.156Z</time></trkpt><trkpt lat="45.1034733" lon="7.9872117"><ele>340.0</ele><time>2026-05-01T10:39:03.155Z</time></trkpt><trkpt lat="45.1034033" lon="7.98713"><ele>340.0</ele><time>2026-05-01T10:39:04.153Z</time></trkpt><trkpt lat="45.1033383" lon="7.9870617"><ele>340.0</ele><time>2026-05-01T10:39:05.153Z</time></trkpt><trkpt lat="45.10327" lon="7.9870117"><ele>340.0</ele><time>2026-05-01T10:39:06.157Z</time></trkpt><trkpt lat="45.1032017" lon="7.9869667"><ele>340.0</ele><time>2026-05-01T10:39:07.155Z</time></trkpt><trkpt lat="45.1031167" lon="7.9869417"><ele>337.2</ele><time>2026-05-01T10:39:08.156Z</time></trkpt><trkpt lat="45.103025" lon="7.9869267"><ele>334.4</ele><time>2026-05-01T10:39:09.156Z</time></trkpt><trkpt lat="45.1029283" lon="7.9869117"><ele>331.6</ele><time>2026-05-01T10:39:10.156Z</time></trkpt><trkpt lat="45.102825" lon="7.9868967"><ele>328.8</ele><time>2026-05-01T10:39:11.16Z</time></trkpt><trkpt lat="45.1027267" lon="7.9868683"><ele>326.0</ele><time>2026-05-01T10:39:12.156Z</time></trkpt><trkpt lat="45.10263" lon="7.9868367"><ele>326.0</ele><time>2026-05-01T10:39:13.162Z</time></trkpt><trkpt lat="45.10253" lon="7.986795"><ele>326.0</ele><time>2026-05-01T10:39:14.152Z</time></trkpt><trkpt lat="45.1024333" lon="7.9867267"><ele>326.0</ele><time>2026-05-01T10:39:15.156Z</time></trkpt><trkpt lat="45.1023367" lon="7.9866433"><ele>326.0</ele><time>2026-05-01T10:39:16.154Z</time></trkpt><trkpt lat="45.1022433" lon="7.9865467"><ele>326.0</ele><time>2026-05-01T10:39:17.155Z</time></trkpt><trkpt lat="45.1021533" lon="7.9864433"><ele>324.5</ele><time>2026-05-01T10:39:18.156Z</time></trkpt><trkpt lat="45.102065" lon="7.986335"><ele>323.0</ele><time>2026-05-01T10:39:19.157Z</time></trkpt><trkpt lat="45.1019783" lon="7.9862167"><ele>321.5</ele><time>2026-05-01T10:39:20.152Z</time></trkpt><trkpt lat="45.1018917" lon="7.9861017"><ele>320.0</ele><time>2026-05-01T10:39:21.157Z</time></trkpt><trkpt lat="45.1018083" lon="7.9859783"><ele>319.5</ele><time>2026-05-01T10:39:22.158Z</time></trkpt><trkpt lat="45.101745" lon="7.9858417"><ele>319.0</ele><time>2026-05-01T10:39:23.159Z</time></trkpt><trkpt lat="45.1017033" lon="7.9856933"><ele>318.5</ele><time>2026-05-01T10:39:24.153Z</time></trkpt><trkpt lat="45.101675" lon="7.9855383"><ele>318.0</ele><time>2026-05-01T10:39:25.155Z</time></trkpt><trkpt lat="45.101655" lon="7.9853833"><ele>318.0</ele><time>2026-05-01T10:39:26.154Z</time></trkpt><trkpt lat="45.10164" lon="7.9852283"><ele>318.0</ele><time>2026-05-01T10:39:27.155Z</time></trkpt><trkpt lat="45.1016317" lon="7.9850733"><ele>318.0</ele><time>2026-05-01T10:39:28.154Z</time></trkpt><trkpt lat="45.101625" lon="7.9849167"><ele>318.0</ele><time>2026-05-01T10:39:29.158Z</time></trkpt><trkpt lat="45.1016167" lon="7.98476"><ele>318.0</ele><time>2026-05-01T10:39:30.155Z</time></trkpt><trkpt lat="45.1016083" lon="7.9846017"><ele>317.6</ele><time>2026-05-01T10:39:31.16Z</time></trkpt><trkpt lat="45.1015967" lon="7.9844417"><ele>317.20000000000005</ele><time>2026-05-01T10:39:32.159Z</time></trkpt><trkpt lat="45.1015867" lon="7.984285"><ele>316.8</ele><time>2026-05-01T10:39:33.154Z</time></trkpt><trkpt lat="45.1015733" lon="7.9841383"><ele>316.40000000000003</ele><time>2026-05-01T10:39:34.154Z</time></trkpt><trkpt lat="45.10156" lon="7.98401"><ele>316.0</ele><time>2026-05-01T10:39:35.155Z</time></trkpt><trkpt lat="45.1015433" lon="7.983895"><ele>314.3333333333333</ele><time>2026-05-01T10:39:36.157Z</time></trkpt><trkpt lat="45.1015217" lon="7.9838"><ele>312.66666666666663</ele><time>2026-05-01T10:39:37.155Z</time></trkpt><trkpt lat="45.1014733" lon="7.98366"><ele>311.0</ele><time>2026-05-01T10:39:39.156Z</time></trkpt><trkpt lat="45.1014033" lon="7.9835967"><ele>309.3333333333333</ele><time>2026-05-01T10:39:45.154Z</time></trkpt><trkpt lat="45.1013333" lon="7.983685"><ele>307.6666666666667</ele><time>2026-05-01T10:39:47.155Z</time></trkpt><trkpt lat="45.1012917" lon="7.9837733"><ele>306.0</ele><time>2026-05-01T10:39:48.153Z</time></trkpt><trkpt lat="45.1012333" lon="7.98387"><ele>306.0</ele><time>2026-05-01T10:39:49.154Z</time></trkpt><trkpt lat="45.1011633" lon="7.98396"><ele>306.0</ele><time>2026-05-01T10:39:50.155Z</time></trkpt><trkpt lat="45.10107" lon="7.9840283"><ele>306.0</ele><time>2026-05-01T10:39:51.157Z</time></trkpt><trkpt lat="45.10096" lon="7.98406"><ele>306.0</ele><time>2026-05-01T10:39:52.155Z</time></trkpt><trkpt lat="45.1008433" lon="7.9840467"><ele>306.0</ele><time>2026-05-01T10:39:53.155Z</time></trkpt><trkpt lat="45.1007217" lon="7.9839933"><ele>307.25</ele><time>2026-05-01T10:39:54.157Z</time></trkpt><trkpt lat="45.1006033" lon="7.9839083"><ele>308.5</ele><time>2026-05-01T10:39:55.157Z</time></trkpt><trkpt lat="45.1004967" lon="7.9838033"><ele>309.75</ele><time>2026-05-01T10:39:56.156Z</time></trkpt><trkpt lat="45.100385" lon="7.983705"><ele>311.0</ele><time>2026-05-01T10:39:57.154Z</time></trkpt><trkpt lat="45.1002583" lon="7.983635"><ele>311.0</ele><time>2026-05-01T10:39:58.155Z</time></trkpt><trkpt lat="45.1001217" lon="7.9836033"><ele>311.0</ele><time>2026-05-01T10:39:59.157Z</time></trkpt><trkpt lat="45.0999733" lon="7.98361"><ele>311.0</ele><time>2026-05-01T10:40:00.154Z</time></trkpt><trkpt lat="45.0998167" lon="7.9836417"><ele>311.0</ele><time>2026-05-01T10:40:01.156Z</time></trkpt><trkpt lat="45.0996683" lon="7.98369"><ele>310.0</ele><time>2026-05-01T10:40:02.153Z</time></trkpt><trkpt lat="45.099525" lon="7.9837633"><ele>309.0</ele><time>2026-05-01T10:40:03.151Z</time></trkpt><trkpt lat="45.0993917" lon="7.983865"><ele>308.0</ele><time>2026-05-01T10:40:04.156Z</time></trkpt><trkpt lat="45.0992617" lon="7.983985"><ele>308.0</ele><time>2026-05-01T10:40:05.151Z</time></trkpt><trkpt lat="45.0991367" lon="7.9841067"><ele>308.0</ele><time>2026-05-01T10:40:06.156Z</time></trkpt><trkpt lat="45.0990033" lon="7.9841833"><ele>308.0</ele><time>2026-05-01T10:40:07.155Z</time></trkpt><trkpt lat="45.0988633" lon="7.9842167"><ele>308.0</ele><time>2026-05-01T10:40:08.156Z</time></trkpt><trkpt lat="45.0987167" lon="7.98421"><ele>310.0</ele><time>2026-05-01T10:40:09.156Z</time></trkpt><trkpt lat="45.098565" lon="7.9842183"><ele>312.0</ele><time>2026-05-01T10:40:10.154Z</time></trkpt><trkpt lat="45.09841" lon="7.9842383"><ele>314.0</ele><time>2026-05-01T10:40:11.153Z</time></trkpt><trkpt lat="45.0982533" lon="7.98428"><ele>311.33333333333337</ele><time>2026-05-01T10:40:12.156Z</time></trkpt><trkpt lat="45.0980967" lon="7.984325"><ele>308.6666666666667</ele><time>2026-05-01T10:40:13.156Z</time></trkpt><trkpt lat="45.0979333" lon="7.984385"><ele>306.0</ele><time>2026-05-01T10:40:14.156Z</time></trkpt><trkpt lat="45.0977683" lon="7.9844583"><ele>306.0</ele><time>2026-05-01T10:40:15.152Z</time></trkpt><trkpt lat="45.09761" lon="7.9845483"><ele>306.0</ele><time>2026-05-01T10:40:16.159Z</time></trkpt><trkpt lat="45.0974633" lon="7.98467"><ele>306.0</ele><time>2026-05-01T10:40:17.155Z</time></trkpt><trkpt lat="45.0973267" lon="7.9848133"><ele>305.0</ele><time>2026-05-01T10:40:18.152Z</time></trkpt><trkpt lat="45.097195" lon="7.9849617"><ele>304.0</ele><time>2026-05-01T10:40:19.157Z</time></trkpt><trkpt lat="45.0970583" lon="7.9851017"><ele>303.0</ele><time>2026-05-01T10:40:20.161Z</time></trkpt><trkpt lat="45.096915" lon="7.985215"><ele>303.0</ele><time>2026-05-01T10:40:21.155Z</time></trkpt><trkpt lat="45.0967617" lon="7.985305"><ele>303.0</ele><time>2026-05-01T10:40:22.157Z</time></trkpt><trkpt lat="45.0966033" lon="7.9853833"><ele>303.0</ele><time>2026-05-01T10:40:23.158Z</time></trkpt><trkpt lat="45.0964517" lon="7.98545"><ele>301.6666666666667</ele><time>2026-05-01T10:40:24.154Z</time></trkpt><trkpt lat="45.0963033" lon="7.98552"><ele>300.33333333333337</ele><time>2026-05-01T10:40:25.156Z</time></trkpt><trkpt lat="45.0961583" lon="7.9855933"><ele>299.0</ele><time>2026-05-01T10:40:26.152Z</time></trkpt><trkpt lat="45.0960233" lon="7.98568"><ele>299.0</ele><time>2026-05-01T10:40:27.152Z</time></trkpt><trkpt lat="45.0958917" lon="7.98579"><ele>299.0</ele><time>2026-05-01T10:40:28.154Z</time></trkpt><trkpt lat="45.0957767" lon="7.98593"><ele>299.0</ele><time>2026-05-01T10:40:29.152Z</time></trkpt><trkpt lat="45.095675" lon="7.9860983"><ele>298.6666666666667</ele><time>2026-05-01T10:40:30.16Z</time></trkpt><trkpt lat="45.0955883" lon="7.9862867"><ele>298.3333333333333</ele><time>2026-05-01T10:40:31.152Z</time></trkpt><trkpt lat="45.095515" lon="7.98648"><ele>298.0</ele><time>2026-05-01T10:40:32.152Z</time></trkpt><trkpt lat="45.09544" lon="7.98666"><ele>298.75</ele><time>2026-05-01T10:40:33.153Z</time></trkpt><trkpt lat="45.0953533" lon="7.986815"><ele>299.5</ele><time>2026-05-01T10:40:34.157Z</time></trkpt><trkpt lat="45.0952417" lon="7.9869367"><ele>300.25</ele><time>2026-05-01T10:40:35.153Z</time></trkpt><trkpt lat="45.0951183" lon="7.9870183"><ele>301.0</ele><time>2026-05-01T10:40:36.151Z</time></trkpt><trkpt lat="45.09499" lon="7.9870633"><ele>301.0</ele><time>2026-05-01T10:40:37.156Z</time></trkpt><trkpt lat="45.0948533" lon="7.9870583"><ele>301.0</ele><time>2026-05-01T10:40:38.151Z</time></trkpt><trkpt lat="45.0947133" lon="7.9870233"><ele>301.0</ele><time>2026-05-01T10:40:39.156Z</time></trkpt><trkpt lat="45.09457" lon="7.9869667"><ele>301.0</ele><time>2026-05-01T10:40:40.152Z</time></trkpt><trkpt lat="45.0944267" lon="7.9869067"><ele>301.0</ele><time>2026-05-01T10:40:41.156Z</time></trkpt><trkpt lat="45.0942817" lon="7.98684"><ele>301.0</ele><time>2026-05-01T10:40:42.16Z</time></trkpt><trkpt lat="45.0941317" lon="7.9867733"><ele>301.0</ele><time>2026-05-01T10:40:43.157Z</time></trkpt><trkpt lat="45.0939783" lon="7.9867133"><ele>300.3333333333333</ele><time>2026-05-01T10:40:44.153Z</time></trkpt><trkpt lat="45.09382" lon="7.9866583"><ele>299.6666666666667</ele><time>2026-05-01T10:40:45.155Z</time></trkpt><trkpt lat="45.0936583" lon="7.9866233"><ele>299.0</ele><time>2026-05-01T10:40:46.154Z</time></trkpt><trkpt lat="45.0934983" lon="7.98661"><ele>299.0</ele><time>2026-05-01T10:40:47.157Z</time></trkpt><trkpt lat="45.0933383" lon="7.9866233"><ele>299.0</ele><time>2026-05-01T10:40:48.157Z</time></trkpt><trkpt lat="45.0931883" lon="7.9866583"><ele>299.0</ele><time>2026-05-01T10:40:49.157Z</time></trkpt><trkpt lat="45.0930467" lon="7.9867217"><ele>300.33333333333337</ele><time>2026-05-01T10:40:50.159Z</time></trkpt><trkpt lat="45.0929083" lon="7.98681"><ele>301.6666666666667</ele><time>2026-05-01T10:40:51.151Z</time></trkpt><trkpt lat="45.0927783" lon="7.9869267"><ele>303.0</ele><time>2026-05-01T10:40:52.157Z</time></trkpt><trkpt lat="45.092655" lon="7.9870633"><ele>303.0</ele><time>2026-05-01T10:40:53.154Z</time></trkpt><trkpt lat="45.0925367" lon="7.9872183"><ele>303.0</ele><time>2026-05-01T10:40:54.157Z</time></trkpt><trkpt lat="45.0924383" lon="7.9873883"><ele>303.0</ele><time>2026-05-01T10:40:55.157Z</time></trkpt><trkpt lat="45.0923467" lon="7.9875567"><ele>302.75</ele><time>2026-05-01T10:40:56.156Z</time></trkpt><trkpt lat="45.09225" lon="7.9876983"><ele>302.5</ele><time>2026-05-01T10:40:57.159Z</time></trkpt><trkpt lat="45.0921433" lon="7.9878067"><ele>302.25</ele><time>2026-05-01T10:40:58.154Z</time></trkpt><trkpt lat="45.09203" lon="7.9878883"><ele>302.0</ele><time>2026-05-01T10:40:59.153Z</time></trkpt><trkpt lat="45.0919133" lon="7.9879433"><ele>302.0</ele><time>2026-05-01T10:41:00.15Z</time></trkpt><trkpt lat="45.091785" lon="7.9879683"><ele>302.0</ele><time>2026-05-01T10:41:01.158Z</time></trkpt><trkpt lat="45.0916533" lon="7.9879667"><ele>302.0</ele><time>2026-05-01T10:41:02.154Z</time></trkpt><trkpt lat="45.0915183" lon="7.98793"><ele>302.0</ele><time>2026-05-01T10:41:03.156Z</time></trkpt><trkpt lat="45.0913833" lon="7.9878717"><ele>306.6666666666667</ele><time>2026-05-01T10:41:04.152Z</time></trkpt><trkpt lat="45.0912433" lon="7.9878033"><ele>311.3333333333333</ele><time>2026-05-01T10:41:05.158Z</time></trkpt><trkpt lat="45.0911" lon="7.9877483"><ele>316.0</ele><time>2026-05-01T10:41:06.155Z</time></trkpt><trkpt lat="45.0909483" lon="7.987715"><ele>316.0</ele><time>2026-05-01T10:41:07.159Z</time></trkpt><trkpt lat="45.0907933" lon="7.987695"><ele>316.0</ele><time>2026-05-01T10:41:08.153Z</time></trkpt><trkpt lat="45.0906317" lon="7.9876767"><ele>316.0</ele><time>2026-05-01T10:41:09.16Z</time></trkpt><trkpt lat="45.0904733" lon="7.98767"><ele>315.0</ele><time>2026-05-01T10:41:10.155Z</time></trkpt><trkpt lat="45.090315" lon="7.9876667"><ele>314.0</ele><time>2026-05-01T10:41:11.157Z</time></trkpt><trkpt lat="45.0901617" lon="7.9876767"><ele>313.0</ele><time>2026-05-01T10:41:12.155Z</time></trkpt><trkpt lat="45.09002" lon="7.9876967"><ele>310.0</ele><time>2026-05-01T10:41:13.156Z</time></trkpt><trkpt lat="45.08989" lon="7.98773"><ele>307.0</ele><time>2026-05-01T10:41:14.157Z</time></trkpt><trkpt lat="45.08977" lon="7.98778"><ele>304.0</ele><time>2026-05-01T10:41:15.154Z</time></trkpt><trkpt lat="45.0896533" lon="7.9878467"><ele>301.0</ele><time>2026-05-01T10:41:16.152Z</time></trkpt><trkpt lat="45.08955" lon="7.9879283"><ele>301.0</ele><time>2026-05-01T10:41:17.159Z</time></trkpt><trkpt lat="45.08946" lon="7.988"><ele>301.0</ele><time>2026-05-01T10:41:18.159Z</time></trkpt><trkpt lat="45.08937" lon="7.9880517"><ele>301.0</ele><time>2026-05-01T10:41:19.158Z</time></trkpt><trkpt lat="45.08928" lon="7.9880933"><ele>301.0</ele><time>2026-05-01T10:41:20.154Z</time></trkpt><trkpt lat="45.0891867" lon="7.9881583"><ele>301.0</ele><time>2026-05-01T10:41:21.152Z</time></trkpt><trkpt lat="45.08909" lon="7.9882467"><ele>301.25</ele><time>2026-05-01T10:41:22.156Z</time></trkpt><trkpt lat="45.0889883" lon="7.98833"><ele>301.5</ele><time>2026-05-01T10:41:23.153Z</time></trkpt><trkpt lat="45.0888767" lon="7.9883983"><ele>301.75</ele><time>2026-05-01T10:41:24.16Z</time></trkpt><trkpt lat="45.08876" lon="7.98844"><ele>302.0</ele><time>2026-05-01T10:41:25.156Z</time></trkpt><trkpt lat="45.08863" lon="7.98846"><ele>302.0</ele><time>2026-05-01T10:41:26.157Z</time></trkpt><trkpt lat="45.0885" lon="7.9884883"><ele>302.0</ele><time>2026-05-01T10:41:27.159Z</time></trkpt><trkpt lat="45.088375" lon="7.9885167"><ele>302.0</ele><time>2026-05-01T10:41:28.156Z</time></trkpt><trkpt lat="45.0882533" lon="7.988525"><ele>302.0</ele><time>2026-05-01T10:41:29.154Z</time></trkpt><trkpt lat="45.088145" lon="7.9885267"><ele>297.75</ele><time>2026-05-01T10:41:30.153Z</time></trkpt><trkpt lat="45.0880433" lon="7.9884583"><ele>293.5</ele><time>2026-05-01T10:41:31.161Z</time></trkpt><trkpt lat="45.0879517" lon="7.9883533"><ele>289.25</ele><time>2026-05-01T10:41:32.155Z</time></trkpt><trkpt lat="45.0878683" lon="7.9882217"><ele>285.0</ele><time>2026-05-01T10:41:33.157Z</time></trkpt><trkpt lat="45.0877867" lon="7.988065"><ele>284.5</ele><time>2026-05-01T10:41:34.158Z</time></trkpt><trkpt lat="45.0877267" lon="7.9878817"><ele>284.0</ele><time>2026-05-01T10:41:35.157Z</time></trkpt><trkpt lat="45.0876783" lon="7.987695"><ele>283.5</ele><time>2026-05-01T10:41:36.158Z</time></trkpt><trkpt lat="45.08764" lon="7.9875183"><ele>283.0</ele><time>2026-05-01T10:41:37.154Z</time></trkpt><trkpt lat="45.087585" lon="7.9873617"><ele>283.0</ele><time>2026-05-01T10:41:38.154Z</time></trkpt><trkpt lat="45.0875117" lon="7.9872333"><ele>283.0</ele><time>2026-05-01T10:41:39.155Z</time></trkpt><trkpt lat="45.0874167" lon="7.98713"><ele>283.0</ele><time>2026-05-01T10:41:40.155Z</time></trkpt><trkpt lat="45.0873033" lon="7.9870583"><ele>283.0</ele><time>2026-05-01T10:41:41.154Z</time></trkpt><trkpt lat="45.0871767" lon="7.9869983"><ele>284.0</ele><time>2026-05-01T10:41:42.156Z</time></trkpt><trkpt lat="45.0870483" lon="7.9869367"><ele>285.0</ele><time>2026-05-01T10:41:43.156Z</time></trkpt><trkpt lat="45.0869167" lon="7.986875"><ele>286.0</ele><time>2026-05-01T10:41:44.156Z</time></trkpt><trkpt lat="45.08679" lon="7.9868167"><ele>287.0</ele><time>2026-05-01T10:41:45.152Z</time></trkpt><trkpt lat="45.0866717" lon="7.9867567"><ele>289.5</ele><time>2026-05-01T10:41:46.152Z</time></trkpt><trkpt lat="45.0865583" lon="7.9866683"><ele>292.0</ele><time>2026-05-01T10:41:47.153Z</time></trkpt><trkpt lat="45.0864483" lon="7.986565"><ele>294.5</ele><time>2026-05-01T10:41:48.156Z</time></trkpt><trkpt lat="45.0863417" lon="7.9864583"><ele>297.0</ele><time>2026-05-01T10:41:49.156Z</time></trkpt><trkpt lat="45.0862383" lon="7.9863533"><ele>297.0</ele><time>2026-05-01T10:41:50.157Z</time></trkpt><trkpt lat="45.0861433" lon="7.98626"><ele>297.0</ele><time>2026-05-01T10:41:51.154Z</time></trkpt><trkpt lat="45.086055" lon="7.986195"><ele>297.0</ele><time>2026-05-01T10:41:52.156Z</time></trkpt><trkpt lat="45.08596" lon="7.9861783"><ele>297.0</ele><time>2026-05-01T10:41:53.152Z</time></trkpt><trkpt lat="45.0858683" lon="7.98621"><ele>297.0</ele><time>2026-05-01T10:41:54.157Z</time></trkpt><trkpt lat="45.0857817" lon="7.9862667"><ele>298.6</ele><time>2026-05-01T10:41:55.156Z</time></trkpt><trkpt lat="45.0856967" lon="7.986325"><ele>300.2</ele><time>2026-05-01T10:41:56.156Z</time></trkpt><trkpt lat="45.0856067" lon="7.98637"><ele>301.8</ele><time>2026-05-01T10:41:57.154Z</time></trkpt><trkpt lat="45.0855167" lon="7.9863817"><ele>303.4</ele><time>2026-05-01T10:41:58.155Z</time></trkpt><trkpt lat="45.085415" lon="7.9863617"><ele>305.0</ele><time>2026-05-01T10:41:59.155Z</time></trkpt><trkpt lat="45.0853067" lon="7.986325"><ele>305.0</ele><time>2026-05-01T10:42:00.153Z</time></trkpt><trkpt lat="45.0851917" lon="7.9862717"><ele>305.0</ele><time>2026-05-01T10:42:01.154Z</time></trkpt><trkpt lat="45.08508" lon="7.9862017"><ele>305.0</ele><time>2026-05-01T10:42:02.154Z</time></trkpt><trkpt lat="45.0849767" lon="7.98611"><ele>305.0</ele><time>2026-05-01T10:42:03.161Z</time></trkpt><trkpt lat="45.08488" lon="7.9859833"><ele>306.33333333333337</ele><time>2026-05-01T10:42:04.154Z</time></trkpt><trkpt lat="45.0847883" lon="7.9858233"><ele>307.6666666666667</ele><time>2026-05-01T10:42:05.153Z</time></trkpt><trkpt lat="45.0846983" lon="7.985635"><ele>309.0</ele><time>2026-05-01T10:42:06.153Z</time></trkpt><trkpt lat="45.0846033" lon="7.985425"><ele>309.0</ele><time>2026-05-01T10:42:07.154Z</time></trkpt><trkpt lat="45.084505" lon="7.98521"><ele>309.0</ele><time>2026-05-01T10:42:08.156Z</time></trkpt><trkpt lat="45.0844117" lon="7.985"><ele>309.0</ele><time>2026-05-01T10:42:09.155Z</time></trkpt><trkpt lat="45.0843167" lon="7.9847883"><ele>312.3333333333333</ele><time>2026-05-01T10:42:10.157Z</time></trkpt><trkpt lat="45.08422" lon="7.9845683"><ele>315.66666666666663</ele><time>2026-05-01T10:42:11.159Z</time></trkpt><trkpt lat="45.0841233" lon="7.98434"><ele>319.0</ele><time>2026-05-01T10:42:12.154Z</time></trkpt><trkpt lat="45.0840317" lon="7.9841217"><ele>321.0</ele><time>2026-05-01T10:42:13.155Z</time></trkpt><trkpt lat="45.0839417" lon="7.9839067"><ele>323.0</ele><time>2026-05-01T10:42:14.153Z</time></trkpt><trkpt lat="45.08385" lon="7.9837017"><ele>325.0</ele><time>2026-05-01T10:42:15.155Z</time></trkpt><trkpt lat="45.0837717" lon="7.9835233"><ele>325.0</ele><time>2026-05-01T10:42:16.155Z</time></trkpt><trkpt lat="45.0837017" lon="7.9833667"><ele>325.0</ele><time>2026-05-01T10:42:17.154Z</time></trkpt><trkpt lat="45.0836383" lon="7.9832283"><ele>325.0</ele><time>2026-05-01T10:42:18.156Z</time></trkpt><trkpt lat="45.083585" lon="7.983105"><ele>325.0</ele><time>2026-05-01T10:42:19.156Z</time></trkpt><trkpt lat="45.0835533" lon="7.9829917"><ele>325.0</ele><time>2026-05-01T10:42:20.157Z</time></trkpt><trkpt lat="45.0835467" lon="7.98289"><ele>326.0</ele><time>2026-05-01T10:42:21.161Z</time></trkpt><trkpt lat="45.0835567" lon="7.982795"><ele>327.0</ele><time>2026-05-01T10:42:22.154Z</time></trkpt><trkpt lat="45.083615" lon="7.98272"><ele>328.0</ele><time>2026-05-01T10:42:23.157Z</time></trkpt><trkpt lat="45.0836817" lon="7.9826517"><ele>329.0</ele><time>2026-05-01T10:42:24.153Z</time></trkpt><trkpt lat="45.083765" lon="7.98261"><ele>330.0</ele><time>2026-05-01T10:42:25.156Z</time></trkpt><trkpt lat="45.0838767" lon="7.982605"><ele>331.0</ele><time>2026-05-01T10:42:26.153Z</time></trkpt><trkpt lat="45.0839817" lon="7.9825983"><ele>332.8</ele><time>2026-05-01T10:42:27.154Z</time></trkpt><trkpt lat="45.0840967" lon="7.9826217"><ele>334.6</ele><time>2026-05-01T10:42:28.152Z</time></trkpt><trkpt lat="45.084195" lon="7.9826617"><ele>336.4</ele><time>2026-05-01T10:42:29.153Z</time></trkpt><trkpt lat="45.0842933" lon="7.9827017"><ele>338.2</ele><time>2026-05-01T10:42:30.155Z</time></trkpt><trkpt lat="45.08437" lon="7.98277"><ele>340.0</ele><time>2026-05-01T10:42:31.155Z</time></trkpt><trkpt lat="45.084425" lon="7.98286"><ele>340.0</ele><time>2026-05-01T10:42:32.157Z</time></trkpt><trkpt lat="45.0844733" lon="7.9829367"><ele>340.0</ele><time>2026-05-01T10:42:33.152Z</time></trkpt><trkpt lat="45.0845283" lon="7.9829967"><ele>340.0</ele><time>2026-05-01T10:42:34.155Z</time></trkpt><trkpt lat="45.0845867" lon="7.9830333"><ele>340.0</ele><time>2026-05-01T10:42:35.154Z</time></trkpt><trkpt lat="45.084655" lon="7.9830433"><ele>340.0</ele><time>2026-05-01T10:42:36.157Z</time></trkpt><trkpt lat="45.0847283" lon="7.9830183"><ele>340.0</ele><time>2026-05-01T10:42:37.16Z</time></trkpt><trkpt lat="45.0847817" lon="7.9829383"><ele>340.0</ele><time>2026-05-01T10:42:38.156Z</time></trkpt><trkpt lat="45.0848317" lon="7.98286"><ele>340.0</ele><time>2026-05-01T10:42:39.155Z</time></trkpt><trkpt lat="45.0848667" lon="7.9827617"><ele>340.0</ele><time>2026-05-01T10:42:40.153Z</time></trkpt><trkpt lat="45.08489" lon="7.9826233"><ele>340.0</ele><time>2026-05-01T10:42:41.157Z</time></trkpt><trkpt lat="45.084895" lon="7.98249"><ele>340.0</ele><time>2026-05-01T10:42:42.153Z</time></trkpt><trkpt lat="45.0848883" lon="7.9823783"><ele>340.0</ele><time>2026-05-01T10:42:43.155Z</time></trkpt><trkpt lat="45.08486" lon="7.9822733"><ele>340.0</ele><time>2026-05-01T10:42:44.155Z</time></trkpt><trkpt lat="45.08481" lon="7.9821717"><ele>342.0</ele><time>2026-05-01T10:42:45.151Z</time></trkpt><trkpt lat="45.084745" lon="7.982075"><ele>344.0</ele><time>2026-05-01T10:42:46.155Z</time></trkpt><trkpt lat="45.0846583" lon="7.981995"><ele>346.0</ele><time>2026-05-01T10:42:47.156Z</time></trkpt><trkpt lat="45.0845733" lon="7.98194"><ele>348.0</ele><time>2026-05-01T10:42:48.154Z</time></trkpt><trkpt lat="45.0844867" lon="7.981905"><ele>350.0</ele><time>2026-05-01T10:42:49.151Z</time></trkpt><trkpt lat="45.0844017" lon="7.9818833"><ele>350.0</ele><time>2026-05-01T10:42:50.151Z</time></trkpt><trkpt lat="45.084315" lon="7.9818567"><ele>350.0</ele><time>2026-05-01T10:42:51.154Z</time></trkpt><trkpt lat="45.0842317" lon="7.9818067"><ele>350.0</ele><time>2026-05-01T10:42:52.155Z</time></trkpt><trkpt lat="45.08416" lon="7.9817133"><ele>350.0</ele><time>2026-05-01T10:42:53.157Z</time></trkpt><trkpt lat="45.0841017" lon="7.98158"><ele>350.0</ele><time>2026-05-01T10:42:54.157Z</time></trkpt><trkpt lat="45.0840233" lon="7.981455"><ele>350.75</ele><time>2026-05-01T10:42:55.152Z</time></trkpt><trkpt lat="45.0839417" lon="7.981335"><ele>351.5</ele><time>2026-05-01T10:42:56.153Z</time></trkpt><trkpt lat="45.083845" lon="7.9812367"><ele>352.25</ele><time>2026-05-01T10:42:57.154Z</time></trkpt><trkpt lat="45.0837383" lon="7.981155"><ele>353.0</ele><time>2026-05-01T10:42:58.156Z</time></trkpt><trkpt lat="45.083625" lon="7.9810833"><ele>353.0</ele><time>2026-05-01T10:42:59.154Z</time></trkpt><trkpt lat="45.0835117" lon="7.9810033"><ele>353.0</ele><time>2026-05-01T10:43:00.151Z</time></trkpt><trkpt lat="45.0833967" lon="7.9809183"><ele>353.0</ele><time>2026-05-01T10:43:01.154Z</time></trkpt><trkpt lat="45.0832883" lon="7.98081"><ele>353.0</ele><time>2026-05-01T10:43:02.156Z</time></trkpt><trkpt lat="45.0831817" lon="7.98068"><ele>352.75</ele><time>2026-05-01T10:43:03.156Z</time></trkpt><trkpt lat="45.0830767" lon="7.9805333"><ele>352.5</ele><time>2026-05-01T10:43:04.155Z</time></trkpt><trkpt lat="45.082975" lon="7.9803783"><ele>352.25</ele><time>2026-05-01T10:43:05.157Z</time></trkpt><trkpt lat="45.0828733" lon="7.98022"><ele>352.0</ele><time>2026-05-01T10:43:06.153Z</time></trkpt><trkpt lat="45.0827783" lon="7.9800517"><ele>357.0</ele><time>2026-05-01T10:43:07.155Z</time></trkpt><trkpt lat="45.08268" lon="7.97988"><ele>362.0</ele><time>2026-05-01T10:43:08.154Z</time></trkpt><trkpt lat="45.0825817" lon="7.9797017"><ele>367.0</ele><time>2026-05-01T10:43:09.154Z</time></trkpt><trkpt lat="45.08248" lon="7.9795167"><ele>368.3333333333333</ele><time>2026-05-01T10:43:10.154Z</time></trkpt><trkpt lat="45.082375" lon="7.97933"><ele>369.6666666666667</ele><time>2026-05-01T10:43:11.155Z</time></trkpt><trkpt lat="45.0822717" lon="7.9791367"><ele>371.0</ele><time>2026-05-01T10:43:12.151Z</time></trkpt><trkpt lat="45.08217" lon="7.9789483"><ele>371.0</ele><time>2026-05-01T10:43:13.153Z</time></trkpt><trkpt lat="45.0820817" lon="7.9787683"><ele>371.0</ele><time>2026-05-01T10:43:14.152Z</time></trkpt><trkpt lat="45.0819933" lon="7.97862"><ele>371.0</ele><time>2026-05-01T10:43:15.155Z</time></trkpt><trkpt lat="45.0818983" lon="7.9784983"><ele>371.0</ele><time>2026-05-01T10:43:16.152Z</time></trkpt><trkpt lat="45.0818067" lon="7.9783933"><ele>375.0</ele><time>2026-05-01T10:43:17.158Z</time></trkpt><trkpt lat="45.0817083" lon="7.97829"><ele>379.0</ele><time>2026-05-01T10:43:18.156Z</time></trkpt><trkpt lat="45.081605" lon="7.9782017"><ele>383.0</ele><time>2026-05-01T10:43:19.155Z</time></trkpt><trkpt lat="45.0814833" lon="7.9781183"><ele>387.0</ele><time>2026-05-01T10:43:20.153Z</time></trkpt><trkpt lat="45.081355" lon="7.9780467"><ele>387.0</ele><time>2026-05-01T10:43:21.152Z</time></trkpt><trkpt lat="45.0812167" lon="7.977985"><ele>387.0</ele><time>2026-05-01T10:43:22.157Z</time></trkpt><trkpt lat="45.0810733" lon="7.97793"><ele>387.0</ele><time>2026-05-01T10:43:23.153Z</time></trkpt><trkpt lat="45.08092" lon="7.9778717"><ele>391.0</ele><time>2026-05-01T10:43:24.153Z</time></trkpt><trkpt lat="45.080765" lon="7.97781"><ele>395.0</ele><time>2026-05-01T10:43:25.156Z</time></trkpt><trkpt lat="45.0806133" lon="7.97775"><ele>399.0</ele><time>2026-05-01T10:43:26.155Z</time></trkpt><trkpt lat="45.080475" lon="7.9776967"><ele>399.0</ele><time>2026-05-01T10:43:27.156Z</time></trkpt><trkpt lat="45.0803583" lon="7.9776467"><ele>399.0</ele><time>2026-05-01T10:43:28.153Z</time></trkpt><trkpt lat="45.0802667" lon="7.9775867"><ele>399.0</ele><time>2026-05-01T10:43:29.156Z</time></trkpt><trkpt lat="45.0802017" lon="7.9775067"><ele>399.0</ele><time>2026-05-01T10:43:30.153Z</time></trkpt><trkpt lat="45.08015" lon="7.9774117"><ele>399.0</ele><time>2026-05-01T10:43:31.156Z</time></trkpt><trkpt lat="45.0801633" lon="7.9772917"><ele>400.6</ele><time>2026-05-01T10:43:32.152Z</time></trkpt><trkpt lat="45.08019" lon="7.9771667"><ele>402.2</ele><time>2026-05-01T10:43:33.162Z</time></trkpt><trkpt lat="45.0802383" lon="7.9770317"><ele>403.8</ele><time>2026-05-01T10:43:34.162Z</time></trkpt><trkpt lat="45.0803017" lon="7.9768983"><ele>405.40000000000003</ele><time>2026-05-01T10:43:35.156Z</time></trkpt><trkpt lat="45.0803767" lon="7.9767783"><ele>407.0</ele><time>2026-05-01T10:43:36.152Z</time></trkpt><trkpt lat="45.0804667" lon="7.976695"><ele>408.5</ele><time>2026-05-01T10:43:37.155Z</time></trkpt><trkpt lat="45.0805717" lon="7.976655"><ele>410.0</ele><time>2026-05-01T10:43:38.15Z</time></trkpt><trkpt lat="45.080685" lon="7.9766617"><ele>411.5</ele><time>2026-05-01T10:43:39.155Z</time></trkpt><trkpt lat="45.0807983" lon="7.9767067"><ele>413.0</ele><time>2026-05-01T10:43:40.152Z</time></trkpt><trkpt lat="45.0809083" lon="7.97677"><ele>408.5</ele><time>2026-05-01T10:43:41.152Z</time></trkpt><trkpt lat="45.0810167" lon="7.9768333"><ele>404.0</ele><time>2026-05-01T10:43:42.15Z</time></trkpt><trkpt lat="45.0811267" lon="7.9768883"><ele>399.5</ele><time>2026-05-01T10:43:43.154Z</time></trkpt><trkpt lat="45.0812383" lon="7.976925"><ele>395.0</ele><time>2026-05-01T10:43:44.155Z</time></trkpt><trkpt lat="45.0813533" lon="7.9769283"><ele>395.0</ele><time>2026-05-01T10:43:45.152Z</time></trkpt><trkpt lat="45.0814733" lon="7.9769017"><ele>395.0</ele><time>2026-05-01T10:43:46.152Z</time></trkpt><trkpt lat="45.0815983" lon="7.9768633"><ele>395.0</ele><time>2026-05-01T10:43:47.155Z</time></trkpt><trkpt lat="45.0817283" lon="7.9768267"><ele>395.0</ele><time>2026-05-01T10:43:48.152Z</time></trkpt><trkpt lat="45.081855" lon="7.9768017"><ele>396.0</ele><time>2026-05-01T10:43:49.153Z</time></trkpt><trkpt lat="45.0819717" lon="7.9768017"><ele>397.0</ele><time>2026-05-01T10:43:50.152Z</time></trkpt><trkpt lat="45.0820683" lon="7.976815"><ele>398.0</ele><time>2026-05-01T10:43:51.154Z</time></trkpt><trkpt lat="45.0821483" lon="7.9768133"><ele>399.0</ele><time>2026-05-01T10:43:52.153Z</time></trkpt><trkpt lat="45.0822667" lon="7.9767617"><ele>400.0</ele><time>2026-05-01T10:43:54.159Z</time></trkpt><trkpt lat="45.0823033" lon="7.9766117"><ele>403.0</ele><time>2026-05-01T10:43:56.153Z</time></trkpt><trkpt lat="45.0822833" lon="7.97652"><ele>406.0</ele><time>2026-05-01T10:43:57.153Z</time></trkpt><trkpt lat="45.08224" lon="7.97644"><ele>409.0</ele><time>2026-05-01T10:43:58.153Z</time></trkpt><trkpt lat="45.0821717" lon="7.9763767"><ele>412.0</ele><time>2026-05-01T10:43:59.153Z</time></trkpt><trkpt lat="45.0820817" lon="7.9763183"><ele>415.0</ele><time>2026-05-01T10:44:00.153Z</time></trkpt><trkpt lat="45.0819533" lon="7.976265"><ele>415.0</ele><time>2026-05-01T10:44:01.157Z</time></trkpt><trkpt lat="45.081825" lon="7.9762083"><ele>415.0</ele><time>2026-05-01T10:44:02.155Z</time></trkpt><trkpt lat="45.0817017" lon="7.9761383"><ele>415.0</ele><time>2026-05-01T10:44:03.156Z</time></trkpt><trkpt lat="45.08158" lon="7.97605"><ele>415.0</ele><time>2026-05-01T10:44:04.155Z</time></trkpt><trkpt lat="45.0814633" lon="7.97594"><ele>417.33333333333337</ele><time>2026-05-01T10:44:05.155Z</time></trkpt><trkpt lat="45.0813517" lon="7.9758033"><ele>419.66666666666663</ele><time>2026-05-01T10:44:06.155Z</time></trkpt><trkpt lat="45.0812433" lon="7.9756583"><ele>422.0</ele><time>2026-05-01T10:44:07.156Z</time></trkpt><trkpt lat="45.081135" lon="7.9755"><ele>422.0</ele><time>2026-05-01T10:44:08.155Z</time></trkpt><trkpt lat="45.081025" lon="7.975335"><ele>422.0</ele><time>2026-05-01T10:44:09.153Z</time></trkpt><trkpt lat="45.0809217" lon="7.9751683"><ele>422.0</ele><time>2026-05-01T10:44:10.154Z</time></trkpt><trkpt lat="45.080815" lon="7.9750017"><ele>426.0</ele><time>2026-05-01T10:44:11.155Z</time></trkpt><trkpt lat="45.080705" lon="7.9748367"><ele>430.0</ele><time>2026-05-01T10:44:12.155Z</time></trkpt><trkpt lat="45.0805983" lon="7.9746767"><ele>434.0</ele><time>2026-05-01T10:44:13.155Z</time></trkpt><trkpt lat="45.0804883" lon="7.9745267"><ele>434.0</ele><time>2026-05-01T10:44:14.152Z</time></trkpt><trkpt lat="45.0803917" lon="7.9743667"><ele>434.0</ele><time>2026-05-01T10:44:15.155Z</time></trkpt><trkpt lat="45.0803017" lon="7.9742083"><ele>434.0</ele><time>2026-05-01T10:44:16.16Z</time></trkpt><trkpt lat="45.0802233" lon="7.9740433"><ele>434.0</ele><time>2026-05-01T10:44:17.164Z</time></trkpt><trkpt lat="45.080155" lon="7.9738717"><ele>437.0</ele><time>2026-05-01T10:44:18.154Z</time></trkpt><trkpt lat="45.0800933" lon="7.97369"><ele>440.0</ele><time>2026-05-01T10:44:19.151Z</time></trkpt><trkpt lat="45.08004" lon="7.9734967"><ele>443.0</ele><time>2026-05-01T10:44:20.152Z</time></trkpt><trkpt lat="45.079985" lon="7.9733"><ele>446.0</ele><time>2026-05-01T10:44:21.153Z</time></trkpt><trkpt lat="45.0799283" lon="7.9731067"><ele>455.25</ele><time>2026-05-01T10:44:22.16Z</time></trkpt><trkpt lat="45.0798667" lon="7.9729283"><ele>464.5</ele><time>2026-05-01T10:44:23.151Z</time></trkpt><trkpt lat="45.07981" lon="7.972765"><ele>473.75</ele><time>2026-05-01T10:44:24.155Z</time></trkpt><trkpt lat="45.0797767" lon="7.9726133"><ele>483.0</ele><time>2026-05-01T10:44:25.151Z</time></trkpt><trkpt lat="45.079765" lon="7.97247"><ele>484.4</ele><time>2026-05-01T10:44:26.151Z</time></trkpt><trkpt lat="45.0797733" lon="7.9723267"><ele>485.79999999999995</ele><time>2026-05-01T10:44:27.154Z</time></trkpt><trkpt lat="45.0798083" lon="7.9721767"><ele>487.2</ele><time>2026-05-01T10:44:28.153Z</time></trkpt><trkpt lat="45.07986" lon="7.9720433"><ele>488.6</ele><time>2026-05-01T10:44:29.157Z</time></trkpt><trkpt lat="45.07994" lon="7.9719367"><ele>490.0</ele><time>2026-05-01T10:44:30.152Z</time></trkpt><trkpt lat="45.0800217" lon="7.971865"><ele>486.6</ele><time>2026-05-01T10:44:31.155Z</time></trkpt><trkpt lat="45.0800967" lon="7.9718133"><ele>483.2</ele><time>2026-05-01T10:44:32.153Z</time></trkpt><trkpt lat="45.080155" lon="7.9717633"><ele>479.79999999999995</ele><time>2026-05-01T10:44:33.154Z</time></trkpt><trkpt lat="45.0801983" lon="7.971625"><ele>476.4</ele><time>2026-05-01T10:44:35.151Z</time></trkpt><trkpt lat="45.0801183" lon="7.9715467"><ele>473.0</ele><time>2026-05-01T10:44:37.154Z</time></trkpt><trkpt lat="45.079995" lon="7.9715883"><ele>477.25</ele><time>2026-05-01T10:44:38.155Z</time></trkpt><trkpt lat="45.0798933" lon="7.9716233"><ele>481.5</ele><time>2026-05-01T10:44:39.156Z</time></trkpt><trkpt lat="45.079785" lon="7.9716633"><ele>485.75</ele><time>2026-05-01T10:44:40.156Z</time></trkpt><trkpt lat="45.079675" lon="7.971725"><ele>490.0</ele><time>2026-05-01T10:44:41.159Z</time></trkpt><trkpt lat="45.0795733" lon="7.9718233"><ele>490.0</ele><time>2026-05-01T10:44:42.156Z</time></trkpt><trkpt lat="45.0794917" lon="7.971945"><ele>490.0</ele><time>2026-05-01T10:44:43.155Z</time></trkpt><trkpt lat="45.0794467" lon="7.9720967"><ele>490.0</ele><time>2026-05-01T10:44:44.154Z</time></trkpt><trkpt lat="45.07942" lon="7.972255"><ele>490.0</ele><time>2026-05-01T10:44:45.152Z</time></trkpt><trkpt lat="45.0794017" lon="7.9724083"><ele>488.83333333333337</ele><time>2026-05-01T10:44:46.153Z</time></trkpt><trkpt lat="45.0793967" lon="7.9725433"><ele>487.6666666666667</ele><time>2026-05-01T10:44:47.154Z</time></trkpt><trkpt lat="45.0794017" lon="7.97266"><ele>486.5</ele><time>2026-05-01T10:44:48.153Z</time></trkpt><trkpt lat="45.0794083" lon="7.9727617"><ele>485.33333333333337</ele><time>2026-05-01T10:44:49.155Z</time></trkpt><trkpt lat="45.0793833" lon="7.9728867"><ele>484.1666666666667</ele><time>2026-05-01T10:44:51.153Z</time></trkpt><trkpt lat="45.07932" lon="7.9728133"><ele>483.0</ele><time>2026-05-01T10:44:52.152Z</time></trkpt><trkpt lat="45.079255" lon="7.97267"><ele>484.75</ele><time>2026-05-01T10:44:54.157Z</time></trkpt><trkpt lat="45.079245" lon="7.9725017"><ele>486.5</ele><time>2026-05-01T10:44:55.155Z</time></trkpt><trkpt lat="45.0792167" lon="7.9723233"><ele>488.25</ele><time>2026-05-01T10:44:56.154Z</time></trkpt><trkpt lat="45.07919" lon="7.9721333"><ele>490.0</ele><time>2026-05-01T10:44:57.15Z</time></trkpt><trkpt lat="45.0791667" lon="7.9719533"><ele>490.0</ele><time>2026-05-01T10:44:58.158Z</time></trkpt><trkpt lat="45.0791517" lon="7.9717817"><ele>490.0</ele><time>2026-05-01T10:44:59.154Z</time></trkpt><trkpt lat="45.0791567" lon="7.971625"><ele>490.0</ele><time>2026-05-01T10:45:00.155Z</time></trkpt><trkpt lat="45.0791883" lon="7.9714817"><ele>490.0</ele><time>2026-05-01T10:45:01.156Z</time></trkpt><trkpt lat="45.079245" lon="7.9713567"><ele>490.0</ele><time>2026-05-01T10:45:02.156Z</time></trkpt><trkpt lat="45.0793217" lon="7.971255"><ele>491.0</ele><time>2026-05-01T10:45:03.156Z</time></trkpt><trkpt lat="45.0794083" lon="7.9711567"><ele>492.0</ele><time>2026-05-01T10:45:04.153Z</time></trkpt><trkpt lat="45.0795067" lon="7.9710683"><ele>493.0</ele><time>2026-05-01T10:45:05.152Z</time></trkpt><trkpt lat="45.07961" lon="7.9709933"><ele>494.0</ele><time>2026-05-01T10:45:06.153Z</time></trkpt><trkpt lat="45.0797117" lon="7.9709333"><ele>493.99999999999994</ele><time>2026-05-01T10:45:07.152Z</time></trkpt><trkpt lat="45.0797983" lon="7.970875"><ele>494.0</ele><time>2026-05-01T10:45:08.151Z</time></trkpt><trkpt lat="45.0798617" lon="7.9708067"><ele>494.0</ele><time>2026-05-01T10:45:09.158Z</time></trkpt><trkpt lat="45.0799067" lon="7.9707233"><ele>494.0</ele><time>2026-05-01T10:45:10.151Z</time></trkpt><trkpt lat="45.0799267" lon="7.9706317"><ele>493.99999999999994</ele><time>2026-05-01T10:45:11.159Z</time></trkpt><trkpt lat="45.0799317" lon="7.9705317"><ele>494.0</ele><time>2026-05-01T10:45:12.155Z</time></trkpt><trkpt lat="45.079935" lon="7.9704117"><ele>498.0</ele><time>2026-05-01T10:45:13.158Z</time></trkpt><trkpt lat="45.0799217" lon="7.9702717"><ele>502.0</ele><time>2026-05-01T10:45:14.155Z</time></trkpt><trkpt lat="45.0799117" lon="7.9701183"><ele>506.0</ele><time>2026-05-01T10:45:15.157Z</time></trkpt><trkpt lat="45.07991" lon="7.9699617"><ele>510.0</ele><time>2026-05-01T10:45:16.156Z</time></trkpt><trkpt lat="45.0799133" lon="7.9698017"><ele>514.0</ele><time>2026-05-01T10:45:17.161Z</time></trkpt><trkpt lat="45.07992" lon="7.96965"><ele>515.6</ele><time>2026-05-01T10:45:18.155Z</time></trkpt><trkpt lat="45.0799083" lon="7.9695133"><ele>517.2</ele><time>2026-05-01T10:45:19.155Z</time></trkpt><trkpt lat="45.079885" lon="7.9693817"><ele>518.8000000000001</ele><time>2026-05-01T10:45:20.154Z</time></trkpt><trkpt lat="45.0798517" lon="7.9692583"><ele>520.4</ele><time>2026-05-01T10:45:21.154Z</time></trkpt><trkpt lat="45.0798133" lon="7.9691483"><ele>522.0</ele><time>2026-05-01T10:45:22.152Z</time></trkpt><trkpt lat="45.0797767" lon="7.9690517"><ele>522.0</ele><time>2026-05-01T10:45:23.158Z</time></trkpt><trkpt lat="45.0797417" lon="7.9689717"><ele>522.0</ele><time>2026-05-01T10:45:24.154Z</time></trkpt><trkpt lat="45.0796967" lon="7.968825"><ele>522.0</ele><time>2026-05-01T10:45:26.153Z</time></trkpt><trkpt lat="45.0797133" lon="7.9686617"><ele>522.0</ele><time>2026-05-01T10:45:28.159Z</time></trkpt><trkpt lat="45.0797567" lon="7.9685767"><ele>522.0</ele><time>2026-05-01T10:45:29.155Z</time></trkpt><trkpt lat="45.0798117" lon="7.968485"><ele>522.0</ele><time>2026-05-01T10:45:30.152Z</time></trkpt><trkpt lat="45.0798833" lon="7.9683733"><ele>522.0</ele><time>2026-05-01T10:45:31.161Z</time></trkpt><trkpt lat="45.079975" lon="7.96825"><ele>522.0</ele><time>2026-05-01T10:45:32.152Z</time></trkpt><trkpt lat="45.0800633" lon="7.96812"><ele>522.0</ele><time>2026-05-01T10:45:33.152Z</time></trkpt><trkpt lat="45.0801533" lon="7.96797"><ele>516.6666666666666</ele><time>2026-05-01T10:45:34.155Z</time></trkpt><trkpt lat="45.0802467" lon="7.9678133"><ele>511.3333333333333</ele><time>2026-05-01T10:45:35.154Z</time></trkpt><trkpt lat="45.0803467" lon="7.9676467"><ele>506.0</ele><time>2026-05-01T10:45:36.156Z</time></trkpt><trkpt lat="45.0804417" lon="7.9674767"><ele>503.75</ele><time>2026-05-01T10:45:37.151Z</time></trkpt><trkpt lat="45.08053" lon="7.967305"><ele>501.5</ele><time>2026-05-01T10:45:38.155Z</time></trkpt><trkpt lat="45.080615" lon="7.967135"><ele>499.25</ele><time>2026-05-01T10:45:39.152Z</time></trkpt><trkpt lat="45.0806967" lon="7.9669583"><ele>497.0</ele><time>2026-05-01T10:45:40.157Z</time></trkpt><trkpt lat="45.08078" lon="7.966785"><ele>500.0</ele><time>2026-05-01T10:45:41.156Z</time></trkpt><trkpt lat="45.080865" lon="7.9666133"><ele>503.0</ele><time>2026-05-01T10:45:42.156Z</time></trkpt><trkpt lat="45.0809467" lon="7.9664417"><ele>506.0</ele><time>2026-05-01T10:45:43.155Z</time></trkpt><trkpt lat="45.08103" lon="7.96627"><ele>509.0</ele><time>2026-05-01T10:45:44.153Z</time></trkpt><trkpt lat="45.0811117" lon="7.9661017"><ele>509.0</ele><time>2026-05-01T10:45:45.158Z</time></trkpt><trkpt lat="45.0811917" lon="7.9659333"><ele>509.0</ele><time>2026-05-01T10:45:46.155Z</time></trkpt><trkpt lat="45.0812667" lon="7.9657617"><ele>509.0</ele><time>2026-05-01T10:45:47.164Z</time></trkpt><trkpt lat="45.08133" lon="7.965585"><ele>509.0</ele><time>2026-05-01T10:45:48.152Z</time></trkpt><trkpt lat="45.08138" lon="7.9654"><ele>507.5</ele><time>2026-05-01T10:45:49.154Z</time></trkpt><trkpt lat="45.0814117" lon="7.9652067"><ele>506.0</ele><time>2026-05-01T10:45:50.151Z</time></trkpt><trkpt lat="45.08143" lon="7.9650133"><ele>504.5</ele><time>2026-05-01T10:45:51.152Z</time></trkpt><trkpt lat="45.0814517" lon="7.964825"><ele>503.0</ele><time>2026-05-01T10:45:52.151Z</time></trkpt><trkpt lat="45.0814833" lon="7.9646533"><ele>503.0</ele><time>2026-05-01T10:45:53.157Z</time></trkpt><trkpt lat="45.08153" lon="7.964515"><ele>502.99999999999994</ele><time>2026-05-01T10:45:54.155Z</time></trkpt><trkpt lat="45.0815917" lon="7.964415"><ele>502.99999999999994</ele><time>2026-05-01T10:45:55.153Z</time></trkpt><trkpt lat="45.0816583" lon="7.9643233"><ele>503.0</ele><time>2026-05-01T10:45:56.149Z</time></trkpt><trkpt lat="45.0817567" lon="7.96425"><ele>503.0</ele><time>2026-05-01T10:45:57.151Z</time></trkpt><trkpt lat="45.0818667" lon="7.9641733"><ele>506.75</ele><time>2026-05-01T10:45:58.152Z</time></trkpt><trkpt lat="45.0819917" lon="7.9640983"><ele>510.5</ele><time>2026-05-01T10:45:59.154Z</time></trkpt><trkpt lat="45.0821217" lon="7.964015"><ele>514.25</ele><time>2026-05-01T10:46:00.154Z</time></trkpt><trkpt lat="45.0822617" lon="7.9639217"><ele>518.0</ele><time>2026-05-01T10:46:01.152Z</time></trkpt><trkpt lat="45.0824033" lon="7.9638217"><ele>513.0</ele><time>2026-05-01T10:46:02.154Z</time></trkpt><trkpt lat="45.0825583" lon="7.9637517"><ele>508.0</ele><time>2026-05-01T10:46:03.154Z</time></trkpt><trkpt lat="45.0826967" lon="7.9636383"><ele>503.0</ele><time>2026-05-01T10:46:04.153Z</time></trkpt><trkpt lat="45.0828333" lon="7.963515"><ele>503.0</ele><time>2026-05-01T10:46:05.154Z</time></trkpt><trkpt lat="45.0829733" lon="7.96339"><ele>503.0</ele><time>2026-05-01T10:46:06.155Z</time></trkpt><trkpt lat="45.083115" lon="7.9632783"><ele>503.0</ele><time>2026-05-01T10:46:07.157Z</time></trkpt><trkpt lat="45.0832567" lon="7.9631867"><ele>499.0</ele><time>2026-05-01T10:46:08.152Z</time></trkpt><trkpt lat="45.0834083" lon="7.9631217"><ele>495.0</ele><time>2026-05-01T10:46:09.156Z</time></trkpt><trkpt lat="45.083565" lon="7.9630767"><ele>491.0</ele><time>2026-05-01T10:46:10.156Z</time></trkpt><trkpt lat="45.08372" lon="7.9630333"><ele>491.0</ele><time>2026-05-01T10:46:11.153Z</time></trkpt><trkpt lat="45.083875" lon="7.9629933"><ele>491.0</ele><time>2026-05-01T10:46:12.152Z</time></trkpt><trkpt lat="45.084025" lon="7.9629717"><ele>491.0</ele><time>2026-05-01T10:46:13.153Z</time></trkpt><trkpt lat="45.0841733" lon="7.9629817"><ele>490.0</ele><time>2026-05-01T10:46:14.152Z</time></trkpt><trkpt lat="45.0843233" lon="7.9630133"><ele>489.0</ele><time>2026-05-01T10:46:15.152Z</time></trkpt><trkpt lat="45.084465" lon="7.9630783"><ele>488.0</ele><time>2026-05-01T10:46:16.155Z</time></trkpt><trkpt lat="45.08458" lon="7.9631817"><ele>487.0</ele><time>2026-05-01T10:46:17.152Z</time></trkpt><trkpt lat="45.08468" lon="7.9633083"><ele>482.0</ele><time>2026-05-01T10:46:18.156Z</time></trkpt><trkpt lat="45.0847717" lon="7.9634117"><ele>477.00000000000006</ele><time>2026-05-01T10:46:19.151Z</time></trkpt><trkpt lat="45.0848617" lon="7.96348"><ele>472.00000000000006</ele><time>2026-05-01T10:46:20.155Z</time></trkpt><trkpt lat="45.0849517" lon="7.9635117"><ele>467.0</ele><time>2026-05-01T10:46:21.151Z</time></trkpt><trkpt lat="45.0850333" lon="7.9635283"><ele>462.0</ele><time>2026-05-01T10:46:22.154Z</time></trkpt><trkpt lat="45.0851033" lon="7.9634333"><ele>467.0</ele><time>2026-05-01T10:46:23.155Z</time></trkpt><trkpt lat="45.085155" lon="7.9633067"><ele>472.00000000000006</ele><time>2026-05-01T10:46:24.154Z</time></trkpt><trkpt lat="45.0851933" lon="7.96317"><ele>477.00000000000006</ele><time>2026-05-01T10:46:25.153Z</time></trkpt><trkpt lat="45.0852383" lon="7.9630383"><ele>482.0</ele><time>2026-05-01T10:46:26.154Z</time></trkpt><trkpt lat="45.0853" lon="7.9629233"><ele>487.0</ele><time>2026-05-01T10:46:27.151Z</time></trkpt><trkpt lat="45.085385" lon="7.9628333"><ele>487.0</ele><time>2026-05-01T10:46:28.154Z</time></trkpt><trkpt lat="45.08549" lon="7.962775"><ele>487.0</ele><time>2026-05-01T10:46:29.154Z</time></trkpt><trkpt lat="45.085615" lon="7.96275"><ele>487.0</ele><time>2026-05-01T10:46:30.155Z</time></trkpt><trkpt lat="45.085755" lon="7.9627417"><ele>487.0</ele><time>2026-05-01T10:46:31.152Z</time></trkpt><trkpt lat="45.0859067" lon="7.962745"><ele>479.33333333333337</ele><time>2026-05-01T10:46:32.151Z</time></trkpt><trkpt lat="45.0860567" lon="7.9627517"><ele>471.66666666666663</ele><time>2026-05-01T10:46:33.153Z</time></trkpt><trkpt lat="45.0862067" lon="7.96274"><ele>464.0</ele><time>2026-05-01T10:46:34.152Z</time></trkpt><trkpt lat="45.08636" lon="7.96272"><ele>464.0</ele><time>2026-05-01T10:46:35.156Z</time></trkpt><trkpt lat="45.0865117" lon="7.962695"><ele>464.0</ele><time>2026-05-01T10:46:36.152Z</time></trkpt><trkpt lat="45.0866583" lon="7.9626633"><ele>464.0</ele><time>2026-05-01T10:46:37.155Z</time></trkpt><trkpt lat="45.0868033" lon="7.9626117"><ele>461.0</ele><time>2026-05-01T10:46:38.153Z</time></trkpt><trkpt lat="45.0869483" lon="7.9625467"><ele>458.0</ele><time>2026-05-01T10:46:39.153Z</time></trkpt><trkpt lat="45.0870867" lon="7.96247"><ele>455.0</ele><time>2026-05-01T10:46:40.153Z</time></trkpt><trkpt lat="45.08723" lon="7.9623967"><ele>454.75</ele><time>2026-05-01T10:46:41.155Z</time></trkpt><trkpt lat="45.0873733" lon="7.9623233"><ele>454.5</ele><time>2026-05-01T10:46:42.153Z</time></trkpt><trkpt lat="45.0875117" lon="7.9622567"><ele>454.25</ele><time>2026-05-01T10:46:43.155Z</time></trkpt><trkpt lat="45.0876317" lon="7.9621933"><ele>454.0</ele><time>2026-05-01T10:46:44.15Z</time></trkpt><trkpt lat="45.0877267" lon="7.96215"><ele>454.0</ele><time>2026-05-01T10:46:45.155Z</time></trkpt><trkpt lat="45.087815" lon="7.9621283"><ele>454.0</ele><time>2026-05-01T10:46:46.154Z</time></trkpt><trkpt lat="45.0879017" lon="7.9621283"><ele>454.0</ele><time>2026-05-01T10:46:47.155Z</time></trkpt><trkpt lat="45.0879833" lon="7.96217"><ele>454.0</ele><time>2026-05-01T10:46:48.156Z</time></trkpt><trkpt lat="45.0880067" lon="7.962315"><ele>454.0</ele><time>2026-05-01T10:46:49.152Z</time></trkpt><trkpt lat="45.0880333" lon="7.962435"><ele>452.79999999999995</ele><time>2026-05-01T10:46:50.153Z</time></trkpt><trkpt lat="45.08804" lon="7.96256"><ele>451.59999999999997</ele><time>2026-05-01T10:46:51.156Z</time></trkpt><trkpt lat="45.0879933" lon="7.9626767"><ele>450.4</ele><time>2026-05-01T10:46:52.153Z</time></trkpt><trkpt lat="45.087965" lon="7.96278"><ele>449.2</ele><time>2026-05-01T10:46:53.152Z</time></trkpt><trkpt lat="45.0878483" lon="7.9628617"><ele>448.0</ele><time>2026-05-01T10:46:54.153Z</time></trkpt><trkpt lat="45.0877267" lon="7.9629583"><ele>448.0</ele><time>2026-05-01T10:46:55.155Z</time></trkpt><trkpt lat="45.087635" lon="7.963075"><ele>447.99999999999994</ele><time>2026-05-01T10:46:56.156Z</time></trkpt><trkpt lat="45.0875833" lon="7.9632"><ele>447.99999999999994</ele><time>2026-05-01T10:46:57.153Z</time></trkpt><trkpt lat="45.087565" lon="7.9633183"><ele>448.0</ele><time>2026-05-01T10:46:58.152Z</time></trkpt><trkpt lat="45.0875683" lon="7.9634267"><ele>448.0</ele><time>2026-05-01T10:46:59.154Z</time></trkpt><trkpt lat="45.0876233" lon="7.9634933"><ele>448.4</ele><time>2026-05-01T10:47:00.158Z</time></trkpt><trkpt lat="45.0877017" lon="7.963545"><ele>448.79999999999995</ele><time>2026-05-01T10:47:01.161Z</time></trkpt><trkpt lat="45.08779" lon="7.963595"><ele>449.2</ele><time>2026-05-01T10:47:02.152Z</time></trkpt><trkpt lat="45.087905" lon="7.9636533"><ele>449.6</ele><time>2026-05-01T10:47:03.158Z</time></trkpt><trkpt lat="45.0880167" lon="7.9637433"><ele>450.0</ele><time>2026-05-01T10:47:04.158Z</time></trkpt><trkpt lat="45.0881317" lon="7.9638467"><ele>450.0</ele><time>2026-05-01T10:47:05.154Z</time></trkpt><trkpt lat="45.0882517" lon="7.9639517"><ele>450.0</ele><time>2026-05-01T10:47:06.152Z</time></trkpt><trkpt lat="45.0883767" lon="7.9640683"><ele>450.0</ele><time>2026-05-01T10:47:07.152Z</time></trkpt><trkpt lat="45.0885" lon="7.9641867"><ele>450.0</ele><time>2026-05-01T10:47:08.153Z</time></trkpt><trkpt lat="45.08862" lon="7.9643133"><ele>446.0</ele><time>2026-05-01T10:47:09.153Z</time></trkpt><trkpt lat="45.0887383" lon="7.964445"><ele>442.0</ele><time>2026-05-01T10:47:10.157Z</time></trkpt><trkpt lat="45.0888383" lon="7.9645917"><ele>438.0</ele><time>2026-05-01T10:47:11.156Z</time></trkpt><trkpt lat="45.0889333" lon="7.9647467"><ele>434.0</ele><time>2026-05-01T10:47:12.155Z</time></trkpt><trkpt lat="45.0890283" lon="7.9648983"><ele>429.6</ele><time>2026-05-01T10:47:13.156Z</time></trkpt><trkpt lat="45.0891067" lon="7.9650433"><ele>425.2</ele><time>2026-05-01T10:47:14.159Z</time></trkpt><trkpt lat="45.08918" lon="7.9651733"><ele>420.8</ele><time>2026-05-01T10:47:15.158Z</time></trkpt><trkpt lat="45.0892467" lon="7.9652683"><ele>416.40000000000003</ele><time>2026-05-01T10:47:16.155Z</time></trkpt><trkpt lat="45.0893217" lon="7.9653033"><ele>412.0</ele><time>2026-05-01T10:47:17.155Z</time></trkpt><trkpt lat="45.0894067" lon="7.9653117"><ele>412.00000000000006</ele><time>2026-05-01T10:47:18.153Z</time></trkpt><trkpt lat="45.089475" lon="7.965265"><ele>412.0</ele><time>2026-05-01T10:47:19.154Z</time></trkpt><trkpt lat="45.0895317" lon="7.9651983"><ele>412.0</ele><time>2026-05-01T10:47:20.158Z</time></trkpt><trkpt lat="45.089545" lon="7.96508"><ele>412.0</ele><time>2026-05-01T10:47:21.154Z</time></trkpt><trkpt lat="45.0895383" lon="7.9649433"><ele>412.00000000000006</ele><time>2026-05-01T10:47:22.149Z</time></trkpt><trkpt lat="45.0894917" lon="7.9648083"><ele>412.0</ele><time>2026-05-01T10:47:23.154Z</time></trkpt><trkpt lat="45.0894433" lon="7.9646633"><ele>413.6</ele><time>2026-05-01T10:47:24.15Z</time></trkpt><trkpt lat="45.0893917" lon="7.9645167"><ele>415.20000000000005</ele><time>2026-05-01T10:47:25.156Z</time></trkpt><trkpt lat="45.08935" lon="7.9643867"><ele>416.8</ele><time>2026-05-01T10:47:26.156Z</time></trkpt><trkpt lat="45.08933" lon="7.96427"><ele>418.4</ele><time>2026-05-01T10:47:27.157Z</time></trkpt><trkpt lat="45.0893217" lon="7.96417"><ele>420.0</ele><time>2026-05-01T10:47:28.155Z</time></trkpt><trkpt lat="45.089405" lon="7.96406"><ele>420.0</ele><time>2026-05-01T10:47:30.159Z</time></trkpt><trkpt lat="45.0894733" lon="7.96405"><ele>420.0</ele><time>2026-05-01T10:47:31.155Z</time></trkpt><trkpt lat="45.089545" lon="7.964125"><ele>420.0</ele><time>2026-05-01T10:47:32.153Z</time></trkpt><trkpt lat="45.0896217" lon="7.9642133"><ele>420.0</ele><time>2026-05-01T10:47:33.154Z</time></trkpt><trkpt lat="45.0897" lon="7.964315"><ele>420.0</ele><time>2026-05-01T10:47:34.156Z</time></trkpt><trkpt lat="45.08979" lon="7.964405"><ele>420.25</ele><time>2026-05-01T10:47:35.154Z</time></trkpt><trkpt lat="45.089895" lon="7.96447"><ele>420.5</ele><time>2026-05-01T10:47:36.151Z</time></trkpt><trkpt lat="45.0900117" lon="7.9645"><ele>420.75</ele><time>2026-05-01T10:47:37.154Z</time></trkpt><trkpt lat="45.09015" lon="7.96449"><ele>421.0</ele><time>2026-05-01T10:47:38.155Z</time></trkpt><trkpt lat="45.09029" lon="7.964455"><ele>421.0</ele><time>2026-05-01T10:47:39.154Z</time></trkpt><trkpt lat="45.090435" lon="7.9644167"><ele>421.0</ele><time>2026-05-01T10:47:40.15Z</time></trkpt><trkpt lat="45.0905833" lon="7.96438"><ele>421.0</ele><time>2026-05-01T10:47:41.152Z</time></trkpt><trkpt lat="45.090735" lon="7.9643483"><ele>421.0</ele><time>2026-05-01T10:47:42.154Z</time></trkpt><trkpt lat="45.0908883" lon="7.9643167"><ele>421.0</ele><time>2026-05-01T10:47:43.152Z</time></trkpt><trkpt lat="45.0910383" lon="7.9642817"><ele>421.0</ele><time>2026-05-01T10:47:44.155Z</time></trkpt><trkpt lat="45.0911683" lon="7.9642417"><ele>421.0</ele><time>2026-05-01T10:47:45.154Z</time></trkpt><trkpt lat="45.0912783" lon="7.96418"><ele>418.0</ele><time>2026-05-01T10:47:46.152Z</time></trkpt><trkpt lat="45.0913733" lon="7.9640933"><ele>415.0</ele><time>2026-05-01T10:47:47.157Z</time></trkpt><trkpt lat="45.0914417" lon="7.9639733"><ele>412.0</ele><time>2026-05-01T10:47:48.153Z</time></trkpt><trkpt lat="45.091475" lon="7.9638267"><ele>409.0</ele><time>2026-05-01T10:47:49.15Z</time></trkpt><trkpt lat="45.0914783" lon="7.9636733"><ele>406.0</ele><time>2026-05-01T10:47:50.151Z</time></trkpt><trkpt lat="45.09145" lon="7.9635"><ele>403.75</ele><time>2026-05-01T10:47:51.152Z</time></trkpt><trkpt lat="45.0914067" lon="7.963315"><ele>401.5</ele><time>2026-05-01T10:47:52.154Z</time></trkpt><trkpt lat="45.091355" lon="7.9631267"><ele>399.25</ele><time>2026-05-01T10:47:53.154Z</time></trkpt><trkpt lat="45.0913117" lon="7.9629417"><ele>397.0</ele><time>2026-05-01T10:47:54.153Z</time></trkpt><trkpt lat="45.0912867" lon="7.9627517"><ele>397.0</ele><time>2026-05-01T10:47:55.157Z</time></trkpt><trkpt lat="45.09128" lon="7.9625667"><ele>397.0</ele><time>2026-05-01T10:47:56.155Z</time></trkpt><trkpt lat="45.09129" lon="7.9623817"><ele>397.0</ele><time>2026-05-01T10:47:57.152Z</time></trkpt><trkpt lat="45.09133" lon="7.962205"><ele>397.0</ele><time>2026-05-01T10:47:58.151Z</time></trkpt><trkpt lat="45.0914017" lon="7.9620333"><ele>398.0</ele><time>2026-05-01T10:47:59.154Z</time></trkpt><trkpt lat="45.09149" lon="7.9618533"><ele>399.0</ele><time>2026-05-01T10:48:00.151Z</time></trkpt><trkpt lat="45.091585" lon="7.9616583"><ele>400.0</ele><time>2026-05-01T10:48:01.155Z</time></trkpt><trkpt lat="45.0916883" lon="7.96145"><ele>394.6666666666667</ele><time>2026-05-01T10:48:02.151Z</time></trkpt><trkpt lat="45.091795" lon="7.961245"><ele>389.33333333333337</ele><time>2026-05-01T10:48:03.156Z</time></trkpt><trkpt lat="45.0919067" lon="7.9610367"><ele>384.0</ele><time>2026-05-01T10:48:04.155Z</time></trkpt><trkpt lat="45.09202" lon="7.9608183"><ele>384.0</ele><time>2026-05-01T10:48:05.156Z</time></trkpt><trkpt lat="45.0921317" lon="7.9606"><ele>384.0</ele><time>2026-05-01T10:48:06.152Z</time></trkpt><trkpt lat="45.09224" lon="7.9603817"><ele>384.0</ele><time>2026-05-01T10:48:07.151Z</time></trkpt><trkpt lat="45.0923517" lon="7.9601683"><ele>382.3333333333333</ele><time>2026-05-01T10:48:08.151Z</time></trkpt><trkpt lat="45.0924617" lon="7.9599533"><ele>380.66666666666663</ele><time>2026-05-01T10:48:09.151Z</time></trkpt><trkpt lat="45.092565" lon="7.9597433"><ele>379.0</ele><time>2026-05-01T10:48:10.155Z</time></trkpt><trkpt lat="45.0926567" lon="7.9595383"><ele>379.0</ele><time>2026-05-01T10:48:11.151Z</time></trkpt><trkpt lat="45.0927183" lon="7.9593317"><ele>379.0</ele><time>2026-05-01T10:48:12.153Z</time></trkpt><trkpt lat="45.0927617" lon="7.9591133"><ele>379.0</ele><time>2026-05-01T10:48:13.15Z</time></trkpt><trkpt lat="45.09278" lon="7.9588833"><ele>378.3333333333333</ele><time>2026-05-01T10:48:14.159Z</time></trkpt><trkpt lat="45.0927883" lon="7.9586467"><ele>377.6666666666667</ele><time>2026-05-01T10:48:15.155Z</time></trkpt><trkpt lat="45.092795" lon="7.95841"><ele>377.0</ele><time>2026-05-01T10:48:16.155Z</time></trkpt><trkpt lat="45.0928" lon="7.9581683"><ele>377.0</ele><time>2026-05-01T10:48:17.154Z</time></trkpt><trkpt lat="45.0928017" lon="7.9579267"><ele>377.0</ele><time>2026-05-01T10:48:18.149Z</time></trkpt><trkpt lat="45.09281" lon="7.9576983"><ele>377.0</ele><time>2026-05-01T10:48:19.152Z</time></trkpt><trkpt lat="45.092825" lon="7.9574983"><ele>377.5</ele><time>2026-05-01T10:48:20.154Z</time></trkpt><trkpt lat="45.0928633" lon="7.9573267"><ele>378.0</ele><time>2026-05-01T10:48:21.149Z</time></trkpt><trkpt lat="45.092935" lon="7.9571883"><ele>378.5</ele><time>2026-05-01T10:48:22.15Z</time></trkpt><trkpt lat="45.0930283" lon="7.957075"><ele>379.0</ele><time>2026-05-01T10:48:23.158Z</time></trkpt><trkpt lat="45.0931383" lon="7.9569667"><ele>381.5</ele><time>2026-05-01T10:48:24.157Z</time></trkpt><trkpt lat="45.0932617" lon="7.9568617"><ele>384.0</ele><time>2026-05-01T10:48:25.156Z</time></trkpt><trkpt lat="45.09338" lon="7.9567567"><ele>386.5</ele><time>2026-05-01T10:48:26.153Z</time></trkpt><trkpt lat="45.0935033" lon="7.9566583"><ele>389.0</ele><time>2026-05-01T10:48:27.152Z</time></trkpt><trkpt lat="45.0936167" lon="7.9565667"><ele>389.0</ele><time>2026-05-01T10:48:28.156Z</time></trkpt><trkpt lat="45.0937183" lon="7.9564683"><ele>389.0</ele><time>2026-05-01T10:48:29.151Z</time></trkpt><trkpt lat="45.09382" lon="7.95636"><ele>389.0</ele><time>2026-05-01T10:48:30.153Z</time></trkpt><trkpt lat="45.0939183" lon="7.9562517"><ele>389.0</ele><time>2026-05-01T10:48:31.15Z</time></trkpt><trkpt lat="45.0940167" lon="7.956135"><ele>390.0</ele><time>2026-05-01T10:48:32.159Z</time></trkpt><trkpt lat="45.0941117" lon="7.956015"><ele>391.0</ele><time>2026-05-01T10:48:33.153Z</time></trkpt><trkpt lat="45.0942083" lon="7.9558983"><ele>392.0</ele><time>2026-05-01T10:48:34.151Z</time></trkpt><trkpt lat="45.0943033" lon="7.9557817"><ele>393.0</ele><time>2026-05-01T10:48:35.152Z</time></trkpt><trkpt lat="45.0943967" lon="7.9556717"><ele>393.0</ele><time>2026-05-01T10:48:36.153Z</time></trkpt><trkpt lat="45.094485" lon="7.9555667"><ele>393.0</ele><time>2026-05-01T10:48:37.16Z</time></trkpt><trkpt lat="45.0945733" lon="7.955465"><ele>393.0</ele><time>2026-05-01T10:48:38.161Z</time></trkpt><trkpt lat="45.0946583" lon="7.95536"><ele>393.0</ele><time>2026-05-01T10:48:39.15Z</time></trkpt><trkpt lat="45.0947433" lon="7.955255"><ele>393.0</ele><time>2026-05-01T10:48:40.153Z</time></trkpt><trkpt lat="45.0948267" lon="7.9551467"><ele>393.0</ele><time>2026-05-01T10:48:41.154Z</time></trkpt><trkpt lat="45.094915" lon="7.9550433"><ele>393.0</ele><time>2026-05-01T10:48:42.156Z</time></trkpt><trkpt lat="45.0949817" lon="7.9549433"><ele>393.0</ele><time>2026-05-01T10:48:43.154Z</time></trkpt><trkpt lat="45.0950433" lon="7.9548483"><ele>393.0</ele><time>2026-05-01T10:48:44.154Z</time></trkpt><trkpt lat="45.095105" lon="7.954755"><ele>393.4</ele><time>2026-05-01T10:48:45.156Z</time></trkpt><trkpt lat="45.0951633" lon="7.9546533"><ele>393.79999999999995</ele><time>2026-05-01T10:48:46.16Z</time></trkpt><trkpt lat="45.095225" lon="7.95455"><ele>394.2</ele><time>2026-05-01T10:48:47.161Z</time></trkpt><trkpt lat="45.0952883" lon="7.9544467"><ele>394.6</ele><time>2026-05-01T10:48:48.161Z</time></trkpt><trkpt lat="45.0953483" lon="7.9543383"><ele>395.0</ele><time>2026-05-01T10:48:49.154Z</time></trkpt><trkpt lat="45.0953883" lon="7.95421"><ele>394.6</ele><time>2026-05-01T10:48:50.159Z</time></trkpt><trkpt lat="45.0954217" lon="7.9540733"><ele>394.2</ele><time>2026-05-01T10:48:51.151Z</time></trkpt><trkpt lat="45.0954517" lon="7.9539383"><ele>393.79999999999995</ele><time>2026-05-01T10:48:52.154Z</time></trkpt><trkpt lat="45.09547" lon="7.9537967"><ele>393.4</ele><time>2026-05-01T10:48:53.152Z</time></trkpt><trkpt lat="45.0954683" lon="7.9536567"><ele>393.0</ele><time>2026-05-01T10:48:54.156Z</time></trkpt><trkpt lat="45.0954467" lon="7.953525"><ele>393.0</ele><time>2026-05-01T10:48:55.155Z</time></trkpt><trkpt lat="45.0954117" lon="7.953405"><ele>393.0</ele><time>2026-05-01T10:48:56.156Z</time></trkpt><trkpt lat="45.0953733" lon="7.9532983"><ele>393.0</ele><time>2026-05-01T10:48:57.151Z</time></trkpt><trkpt lat="45.0953417" lon="7.9532067"><ele>393.0</ele><time>2026-05-01T10:48:58.157Z</time></trkpt><trkpt lat="45.0953083" lon="7.9531233"><ele>393.0</ele><time>2026-05-01T10:48:59.154Z</time></trkpt><trkpt lat="45.0952667" lon="7.95304"><ele>393.0</ele><time>2026-05-01T10:49:01.157Z</time></trkpt><trkpt lat="45.0951817" lon="7.9530217"><ele>393.1666666666667</ele><time>2026-05-01T10:49:08.153Z</time></trkpt><trkpt lat="45.0950667" lon="7.9529683"><ele>393.33333333333337</ele><time>2026-05-01T10:49:10.15Z</time></trkpt><trkpt lat="45.0949917" lon="7.9529467"><ele>393.5</ele><time>2026-05-01T10:49:11.153Z</time></trkpt><trkpt lat="45.0949117" lon="7.952925"><ele>393.6666666666667</ele><time>2026-05-01T10:49:12.154Z</time></trkpt><trkpt lat="45.09484" lon="7.95292"><ele>393.83333333333337</ele><time>2026-05-01T10:49:13.157Z</time></trkpt><trkpt lat="45.0947767" lon="7.9529233"><ele>394.0</ele><time>2026-05-01T10:49:14.153Z</time></trkpt><trkpt lat="45.0946567" lon="7.952915"><ele>394.83333333333337</ele><time>2026-05-01T10:49:16.152Z</time></trkpt><trkpt lat="45.0945883" lon="7.952895"><ele>395.6666666666667</ele><time>2026-05-01T10:49:17.153Z</time></trkpt><trkpt lat="45.0945117" lon="7.9528667"><ele>396.5</ele><time>2026-05-01T10:49:18.156Z</time></trkpt><trkpt lat="45.09443" lon="7.9528417"><ele>397.33333333333337</ele><time>2026-05-01T10:49:19.152Z</time></trkpt><trkpt lat="45.094345" lon="7.952815"><ele>398.1666666666667</ele><time>2026-05-01T10:49:20.156Z</time></trkpt><trkpt lat="45.0942583" lon="7.9527967"><ele>399.0</ele><time>2026-05-01T10:49:21.151Z</time></trkpt><trkpt lat="45.0941767" lon="7.9527817"><ele>399.0</ele><time>2026-05-01T10:49:22.151Z</time></trkpt><trkpt lat="45.0940933" lon="7.9527667"><ele>399.0</ele><time>2026-05-01T10:49:23.16Z</time></trkpt><trkpt lat="45.0940067" lon="7.952765"><ele>399.0</ele><time>2026-05-01T10:49:24.154Z</time></trkpt><trkpt lat="45.0939167" lon="7.9527617"><ele>399.0</ele><time>2026-05-01T10:49:25.154Z</time></trkpt><trkpt lat="45.09382" lon="7.95277"><ele>399.0</ele><time>2026-05-01T10:49:26.154Z</time></trkpt><trkpt lat="45.09372" lon="7.9527667"><ele>401.5</ele><time>2026-05-01T10:49:27.152Z</time></trkpt><trkpt lat="45.09361" lon="7.952755"><ele>404.0</ele><time>2026-05-01T10:49:28.157Z</time></trkpt><trkpt lat="45.0934967" lon="7.9527483"><ele>406.5</ele><time>2026-05-01T10:49:29.152Z</time></trkpt><trkpt lat="45.0933817" lon="7.9527433"><ele>409.0</ele><time>2026-05-01T10:49:30.154Z</time></trkpt><trkpt lat="45.0932667" lon="7.9527317"><ele>408.6</ele><time>2026-05-01T10:49:31.151Z</time></trkpt><trkpt lat="45.0931583" lon="7.9527133"><ele>408.2</ele><time>2026-05-01T10:49:32.153Z</time></trkpt><trkpt lat="45.0930533" lon="7.9526867"><ele>407.8</ele><time>2026-05-01T10:49:33.155Z</time></trkpt><trkpt lat="45.0929517" lon="7.9526667"><ele>407.40000000000003</ele><time>2026-05-01T10:49:34.157Z</time></trkpt><trkpt lat="45.0928567" lon="7.9526267"><ele>407.0</ele><time>2026-05-01T10:49:35.152Z</time></trkpt><trkpt lat="45.09276" lon="7.95257"><ele>406.0</ele><time>2026-05-01T10:49:36.152Z</time></trkpt><trkpt lat="45.092655" lon="7.952505"><ele>405.0</ele><time>2026-05-01T10:49:37.151Z</time></trkpt><trkpt lat="45.0925533" lon="7.9524283"><ele>404.0</ele><time>2026-05-01T10:49:38.15Z</time></trkpt><trkpt lat="45.0924467" lon="7.9523333"><ele>403.0</ele><time>2026-05-01T10:49:39.153Z</time></trkpt><trkpt lat="45.0923383" lon="7.95223"><ele>403.0</ele><time>2026-05-01T10:49:40.155Z</time></trkpt><trkpt lat="45.0922333" lon="7.95212"><ele>403.0</ele><time>2026-05-01T10:49:41.154Z</time></trkpt><trkpt lat="45.09213" lon="7.9520067"><ele>403.0</ele><time>2026-05-01T10:49:42.158Z</time></trkpt><trkpt lat="45.092035" lon="7.951885"><ele>403.0</ele><time>2026-05-01T10:49:43.154Z</time></trkpt><trkpt lat="45.0919367" lon="7.9517633"><ele>400.5</ele><time>2026-05-01T10:49:44.152Z</time></trkpt><trkpt lat="45.0918317" lon="7.951655"><ele>398.0</ele><time>2026-05-01T10:49:45.152Z</time></trkpt><trkpt lat="45.091725" lon="7.95156"><ele>395.5</ele><time>2026-05-01T10:49:46.155Z</time></trkpt><trkpt lat="45.0916117" lon="7.951485"><ele>393.0</ele><time>2026-05-01T10:49:47.152Z</time></trkpt><trkpt lat="45.091485" lon="7.951425"><ele>390.5</ele><time>2026-05-01T10:49:48.153Z</time></trkpt><trkpt lat="45.0913567" lon="7.9513767"><ele>388.0</ele><time>2026-05-01T10:49:49.158Z</time></trkpt><trkpt lat="45.09123" lon="7.9513233"><ele>385.5</ele><time>2026-05-01T10:49:50.153Z</time></trkpt><trkpt lat="45.091105" lon="7.9512717"><ele>383.0</ele><time>2026-05-01T10:49:51.154Z</time></trkpt><trkpt lat="45.0909783" lon="7.9512183"><ele>383.0</ele><time>2026-05-01T10:49:52.156Z</time></trkpt><trkpt lat="45.0908533" lon="7.951165"><ele>383.0</ele><time>2026-05-01T10:49:53.153Z</time></trkpt><trkpt lat="45.09072" lon="7.9511083"><ele>383.0</ele><time>2026-05-01T10:49:54.153Z</time></trkpt><trkpt lat="45.09058" lon="7.9510517"><ele>383.0</ele><time>2026-05-01T10:49:55.153Z</time></trkpt><trkpt lat="45.0904383" lon="7.950995"><ele>383.75</ele><time>2026-05-01T10:49:56.158Z</time></trkpt><trkpt lat="45.0902933" lon="7.9509483"><ele>384.5</ele><time>2026-05-01T10:49:57.154Z</time></trkpt><trkpt lat="45.0901483" lon="7.9508933"><ele>385.25</ele><time>2026-05-01T10:49:58.153Z</time></trkpt><trkpt lat="45.0900083" lon="7.95084"><ele>386.0</ele><time>2026-05-01T10:49:59.153Z</time></trkpt><trkpt lat="45.08988" lon="7.9507867"><ele>381.0</ele><time>2026-05-01T10:50:00.153Z</time></trkpt><trkpt lat="45.0897683" lon="7.9506933"><ele>376.0</ele><time>2026-05-01T10:50:01.154Z</time></trkpt><trkpt lat="45.0896683" lon="7.9505717"><ele>371.0</ele><time>2026-05-01T10:50:02.157Z</time></trkpt><trkpt lat="45.0895833" lon="7.95042"><ele>366.0</ele><time>2026-05-01T10:50:03.155Z</time></trkpt><trkpt lat="45.0895083" lon="7.950255"><ele>366.0</ele><time>2026-05-01T10:50:04.155Z</time></trkpt><trkpt lat="45.0894283" lon="7.95007"><ele>366.0</ele><time>2026-05-01T10:50:05.159Z</time></trkpt><trkpt lat="45.0893267" lon="7.9498967"><ele>366.0</ele><time>2026-05-01T10:50:06.156Z</time></trkpt><trkpt lat="45.08921" lon="7.9497367"><ele>363.3333333333333</ele><time>2026-05-01T10:50:07.151Z</time></trkpt><trkpt lat="45.0890817" lon="7.9495933"><ele>360.66666666666663</ele><time>2026-05-01T10:50:08.155Z</time></trkpt><trkpt lat="45.0889417" lon="7.9494583"><ele>358.0</ele><time>2026-05-01T10:50:09.156Z</time></trkpt><trkpt lat="45.0888017" lon="7.94933"><ele>358.0</ele><time>2026-05-01T10:50:10.154Z</time></trkpt><trkpt lat="45.0886683" lon="7.9492267"><ele>358.0</ele><time>2026-05-01T10:50:11.155Z</time></trkpt><trkpt lat="45.0885633" lon="7.9490833"><ele>358.0</ele><time>2026-05-01T10:50:12.155Z</time></trkpt><trkpt lat="45.08846" lon="7.94894"><ele>358.0</ele><time>2026-05-01T10:50:13.154Z</time></trkpt><trkpt lat="45.0883783" lon="7.9487667"><ele>357.3333333333333</ele><time>2026-05-01T10:50:14.156Z</time></trkpt><trkpt lat="45.08829" lon="7.9485917"><ele>356.6666666666667</ele><time>2026-05-01T10:50:15.151Z</time></trkpt><trkpt lat="45.0881917" lon="7.94842"><ele>356.0</ele><time>2026-05-01T10:50:16.154Z</time></trkpt><trkpt lat="45.0880817" lon="7.94825"><ele>356.0</ele><time>2026-05-01T10:50:17.155Z</time></trkpt><trkpt lat="45.0879667" lon="7.9480867"><ele>356.0</ele><time>2026-05-01T10:50:18.153Z</time></trkpt><trkpt lat="45.087845" lon="7.947945"><ele>356.0</ele><time>2026-05-01T10:50:19.155Z</time></trkpt><trkpt lat="45.087715" lon="7.94782"><ele>356.0</ele><time>2026-05-01T10:50:20.154Z</time></trkpt><trkpt lat="45.0875733" lon="7.94771"><ele>356.0</ele><time>2026-05-01T10:50:21.153Z</time></trkpt><trkpt lat="45.0874267" lon="7.9476183"><ele>356.0</ele><time>2026-05-01T10:50:22.153Z</time></trkpt><trkpt lat="45.087285" lon="7.9475317"><ele>355.0</ele><time>2026-05-01T10:50:23.157Z</time></trkpt><trkpt lat="45.0871533" lon="7.947445"><ele>354.0</ele><time>2026-05-01T10:50:24.154Z</time></trkpt><trkpt lat="45.0870383" lon="7.9473317"><ele>353.0</ele><time>2026-05-01T10:50:25.156Z</time></trkpt><trkpt lat="45.0869333" lon="7.9471917"><ele>352.0</ele><time>2026-05-01T10:50:26.153Z</time></trkpt><trkpt lat="45.0868433" lon="7.9470217"><ele>352.0</ele><time>2026-05-01T10:50:27.157Z</time></trkpt><trkpt lat="45.0867533" lon="7.9468367"><ele>352.0</ele><time>2026-05-01T10:50:28.158Z</time></trkpt><trkpt lat="45.0866633" lon="7.9466417"><ele>352.0</ele><time>2026-05-01T10:50:29.154Z</time></trkpt><trkpt lat="45.0865683" lon="7.9464417"><ele>349.3333333333333</ele><time>2026-05-01T10:50:30.156Z</time></trkpt><trkpt lat="45.086475" lon="7.9462417"><ele>346.6666666666667</ele><time>2026-05-01T10:50:31.154Z</time></trkpt><trkpt lat="45.0863817" lon="7.9460433"><ele>344.0</ele><time>2026-05-01T10:50:32.156Z</time></trkpt><trkpt lat="45.086285" lon="7.9458483"><ele>344.0</ele><time>2026-05-01T10:50:33.151Z</time></trkpt><trkpt lat="45.0861817" lon="7.94566"><ele>344.0</ele><time>2026-05-01T10:50:34.159Z</time></trkpt><trkpt lat="45.0860683" lon="7.94548"><ele>344.0</ele><time>2026-05-01T10:50:35.154Z</time></trkpt><trkpt lat="45.0859433" lon="7.94531"><ele>344.0</ele><time>2026-05-01T10:50:36.152Z</time></trkpt><trkpt lat="45.0858133" lon="7.9451517"><ele>344.0</ele><time>2026-05-01T10:50:37.155Z</time></trkpt><trkpt lat="45.0856783" lon="7.9449967"><ele>344.0</ele><time>2026-05-01T10:50:38.153Z</time></trkpt><trkpt lat="45.0855383" lon="7.9448367"><ele>342.6666666666667</ele><time>2026-05-01T10:50:39.153Z</time></trkpt><trkpt lat="45.0853967" lon="7.9446733"><ele>341.3333333333333</ele><time>2026-05-01T10:50:40.153Z</time></trkpt><trkpt lat="45.08525" lon="7.9445117"><ele>340.0</ele><time>2026-05-01T10:50:41.158Z</time></trkpt><trkpt lat="45.0851067" lon="7.9443467"><ele>340.3333333333333</ele><time>2026-05-01T10:50:42.152Z</time></trkpt><trkpt lat="45.0849633" lon="7.9441817"><ele>340.6666666666667</ele><time>2026-05-01T10:50:43.153Z</time></trkpt><trkpt lat="45.0848217" lon="7.9440267"><ele>341.0</ele><time>2026-05-01T10:50:44.151Z</time></trkpt><trkpt lat="45.084685" lon="7.94389"><ele>339.33333333333337</ele><time>2026-05-01T10:50:45.153Z</time></trkpt><trkpt lat="45.0845483" lon="7.9437733"><ele>337.6666666666667</ele><time>2026-05-01T10:50:46.151Z</time></trkpt><trkpt lat="45.0844067" lon="7.9436883"><ele>336.0</ele><time>2026-05-01T10:50:47.153Z</time></trkpt><trkpt lat="45.0842567" lon="7.9436317"><ele>336.0</ele><time>2026-05-01T10:50:48.156Z</time></trkpt><trkpt lat="45.0841083" lon="7.9436083"><ele>336.0</ele><time>2026-05-01T10:50:49.154Z</time></trkpt><trkpt lat="45.08395" lon="7.9436017"><ele>336.0</ele><time>2026-05-01T10:50:50.154Z</time></trkpt><trkpt lat="45.0837933" lon="7.9435883"><ele>336.6666666666667</ele><time>2026-05-01T10:50:51.155Z</time></trkpt><trkpt lat="45.0836333" lon="7.9435483"><ele>337.33333333333337</ele><time>2026-05-01T10:50:52.152Z</time></trkpt><trkpt lat="45.08348" lon="7.94348"><ele>338.0</ele><time>2026-05-01T10:50:53.151Z</time></trkpt><trkpt lat="45.08335" lon="7.943365"><ele>335.5</ele><time>2026-05-01T10:50:54.154Z</time></trkpt><trkpt lat="45.0832367" lon="7.9432333"><ele>333.0</ele><time>2026-05-01T10:50:55.154Z</time></trkpt><trkpt lat="45.083135" lon="7.9431017"><ele>330.5</ele><time>2026-05-01T10:50:56.152Z</time></trkpt><trkpt lat="45.083055" lon="7.9429517"><ele>328.0</ele><time>2026-05-01T10:50:57.154Z</time></trkpt><trkpt lat="45.0829983" lon="7.942805"><ele>328.0</ele><time>2026-05-01T10:50:58.154Z</time></trkpt><trkpt lat="45.08294" lon="7.9426833"><ele>328.0</ele><time>2026-05-01T10:50:59.16Z</time></trkpt><trkpt lat="45.08287" lon="7.942605"><ele>328.0</ele><time>2026-05-01T10:51:00.155Z</time></trkpt><trkpt lat="45.0827933" lon="7.9425383"><ele>328.0</ele><time>2026-05-01T10:51:01.157Z</time></trkpt><trkpt lat="45.0826883" lon="7.942565"><ele>328.0</ele><time>2026-05-01T10:51:02.154Z</time></trkpt><trkpt lat="45.0825633" lon="7.942625"><ele>328.0</ele><time>2026-05-01T10:51:03.154Z</time></trkpt><trkpt lat="45.0824433" lon="7.9426717"><ele>328.0</ele><time>2026-05-01T10:51:04.152Z</time></trkpt><trkpt lat="45.08232" lon="7.942705"><ele>328.0</ele><time>2026-05-01T10:51:05.151Z</time></trkpt><trkpt lat="45.08217" lon="7.94268"><ele>328.0</ele><time>2026-05-01T10:51:06.152Z</time></trkpt><trkpt lat="45.082025" lon="7.94263"><ele>326.75</ele><time>2026-05-01T10:51:07.161Z</time></trkpt><trkpt lat="45.0818817" lon="7.9425767"><ele>325.5</ele><time>2026-05-01T10:51:08.149Z</time></trkpt><trkpt lat="45.08174" lon="7.94254"><ele>324.25</ele><time>2026-05-01T10:51:09.152Z</time></trkpt><trkpt lat="45.0815933" lon="7.9425117"><ele>323.0</ele><time>2026-05-01T10:51:10.15Z</time></trkpt><trkpt lat="45.0814533" lon="7.9424817"><ele>322.0</ele><time>2026-05-01T10:51:11.156Z</time></trkpt><trkpt lat="45.0813183" lon="7.9424483"><ele>321.0</ele><time>2026-05-01T10:51:12.156Z</time></trkpt><trkpt lat="45.081185" lon="7.942405"><ele>320.0</ele><time>2026-05-01T10:51:13.151Z</time></trkpt><trkpt lat="45.081055" lon="7.9423417"><ele>319.0</ele><time>2026-05-01T10:51:14.156Z</time></trkpt><trkpt lat="45.0809233" lon="7.9422733"><ele>319.0</ele><time>2026-05-01T10:51:15.15Z</time></trkpt><trkpt lat="45.0807817" lon="7.942195"><ele>319.0</ele><time>2026-05-01T10:51:16.153Z</time></trkpt><trkpt lat="45.080635" lon="7.9421117"><ele>319.0</ele><time>2026-05-01T10:51:17.153Z</time></trkpt><trkpt lat="45.080485" lon="7.9420217"><ele>316.3333333333333</ele><time>2026-05-01T10:51:18.153Z</time></trkpt><trkpt lat="45.0803333" lon="7.9419283"><ele>313.6666666666667</ele><time>2026-05-01T10:51:19.152Z</time></trkpt><trkpt lat="45.08018" lon="7.9418317"><ele>311.0</ele><time>2026-05-01T10:51:20.151Z</time></trkpt><trkpt lat="45.0800233" lon="7.941735"><ele>309.0</ele><time>2026-05-01T10:51:21.15Z</time></trkpt><trkpt lat="45.0798633" lon="7.9416383"><ele>307.0</ele><time>2026-05-01T10:51:22.159Z</time></trkpt><trkpt lat="45.0797067" lon="7.9415417"><ele>305.0</ele><time>2026-05-01T10:51:23.153Z</time></trkpt><trkpt lat="45.0795433" lon="7.94144"><ele>305.0</ele><time>2026-05-01T10:51:24.153Z</time></trkpt><trkpt lat="45.07938" lon="7.9413383"><ele>305.0</ele><time>2026-05-01T10:51:25.152Z</time></trkpt><trkpt lat="45.0792117" lon="7.9412317"><ele>305.0</ele><time>2026-05-01T10:51:26.151Z</time></trkpt><trkpt lat="45.0790417" lon="7.9411233"><ele>305.33333333333337</ele><time>2026-05-01T10:51:27.151Z</time></trkpt><trkpt lat="45.0788783" lon="7.9410083"><ele>305.6666666666667</ele><time>2026-05-01T10:51:28.154Z</time></trkpt><trkpt lat="45.078725" lon="7.9408983"><ele>306.0</ele><time>2026-05-01T10:51:29.154Z</time></trkpt><trkpt lat="45.07859" lon="7.9407917"><ele>305.25</ele><time>2026-05-01T10:51:30.153Z</time></trkpt><trkpt lat="45.0784767" lon="7.9407033"><ele>304.5</ele><time>2026-05-01T10:51:31.154Z</time></trkpt><trkpt lat="45.0783617" lon="7.9406483"><ele>303.75</ele><time>2026-05-01T10:51:32.155Z</time></trkpt><trkpt lat="45.0782317" lon="7.940635"><ele>303.0</ele><time>2026-05-01T10:51:33.154Z</time></trkpt><trkpt lat="45.0780883" lon="7.9406483"><ele>303.0</ele><time>2026-05-01T10:51:34.151Z</time></trkpt><trkpt lat="45.0779333" lon="7.9406783"><ele>303.0</ele><time>2026-05-01T10:51:35.155Z</time></trkpt><trkpt lat="45.0777633" lon="7.940715"><ele>303.0</ele><time>2026-05-01T10:51:36.153Z</time></trkpt><trkpt lat="45.0775833" lon="7.9407483"><ele>304.0</ele><time>2026-05-01T10:51:37.151Z</time></trkpt><trkpt lat="45.0773933" lon="7.9407867"><ele>305.0</ele><time>2026-05-01T10:51:38.151Z</time></trkpt><trkpt lat="45.0772033" lon="7.94082"><ele>306.0</ele><time>2026-05-01T10:51:39.151Z</time></trkpt><trkpt lat="45.0770183" lon="7.940855"><ele>304.6666666666667</ele><time>2026-05-01T10:51:40.155Z</time></trkpt><trkpt lat="45.07683" lon="7.9408917"><ele>303.33333333333337</ele><time>2026-05-01T10:51:41.151Z</time></trkpt><trkpt lat="45.076645" lon="7.9409267"><ele>302.0</ele><time>2026-05-01T10:51:42.156Z</time></trkpt><trkpt lat="45.0764617" lon="7.940965"><ele>302.0</ele><time>2026-05-01T10:51:43.155Z</time></trkpt><trkpt lat="45.0762833" lon="7.9410083"><ele>302.0</ele><time>2026-05-01T10:51:44.159Z</time></trkpt><trkpt lat="45.07611" lon="7.9410467"><ele>302.0</ele><time>2026-05-01T10:51:45.149Z</time></trkpt><trkpt lat="45.075935" lon="7.9410817"><ele>302.0</ele><time>2026-05-01T10:51:46.151Z</time></trkpt><trkpt lat="45.07577" lon="7.9411167"><ele>302.0</ele><time>2026-05-01T10:51:47.15Z</time></trkpt><trkpt lat="45.0756067" lon="7.9411483"><ele>302.0</ele><time>2026-05-01T10:51:48.152Z</time></trkpt><trkpt lat="45.07545" lon="7.941175"><ele>302.0</ele><time>2026-05-01T10:51:49.151Z</time></trkpt><trkpt lat="45.0752967" lon="7.9411933"><ele>302.0</ele><time>2026-05-01T10:51:50.156Z</time></trkpt><trkpt lat="45.0751517" lon="7.941195"><ele>302.0</ele><time>2026-05-01T10:51:51.157Z</time></trkpt><trkpt lat="45.0750083" lon="7.94117"><ele>302.0</ele><time>2026-05-01T10:51:52.151Z</time></trkpt><trkpt lat="45.0748717" lon="7.9411167"><ele>302.33333333333337</ele><time>2026-05-01T10:51:53.163Z</time></trkpt><trkpt lat="45.07473" lon="7.941055"><ele>302.6666666666667</ele><time>2026-05-01T10:51:54.155Z</time></trkpt><trkpt lat="45.0745833" lon="7.9410017"><ele>303.0</ele><time>2026-05-01T10:51:55.156Z</time></trkpt><trkpt lat="45.0744233" lon="7.9409783"><ele>303.0</ele><time>2026-05-01T10:51:56.155Z</time></trkpt><trkpt lat="45.0742567" lon="7.94097"><ele>303.0</ele><time>2026-05-01T10:51:57.154Z</time></trkpt><trkpt lat="45.0740867" lon="7.9409567"><ele>303.0</ele><time>2026-05-01T10:51:58.159Z</time></trkpt><trkpt lat="45.0739117" lon="7.94095"><ele>300.0</ele><time>2026-05-01T10:51:59.153Z</time></trkpt><trkpt lat="45.073735" lon="7.9409417"><ele>297.0</ele><time>2026-05-01T10:52:00.158Z</time></trkpt><trkpt lat="45.0735633" lon="7.9409317"><ele>294.0</ele><time>2026-05-01T10:52:01.154Z</time></trkpt><trkpt lat="45.073395" lon="7.9409233"><ele>293.75</ele><time>2026-05-01T10:52:02.158Z</time></trkpt><trkpt lat="45.0732417" lon="7.9409217"><ele>293.5</ele><time>2026-05-01T10:52:03.153Z</time></trkpt><trkpt lat="45.0731033" lon="7.940945"><ele>293.25</ele><time>2026-05-01T10:52:04.155Z</time></trkpt><trkpt lat="45.0729717" lon="7.94101"><ele>293.0</ele><time>2026-05-01T10:52:05.16Z</time></trkpt><trkpt lat="45.07286" lon="7.9411117"><ele>293.0</ele><time>2026-05-01T10:52:06.156Z</time></trkpt><trkpt lat="45.07274" lon="7.9412167"><ele>293.0</ele><time>2026-05-01T10:52:07.155Z</time></trkpt><trkpt lat="45.0726167" lon="7.9413167"><ele>293.0</ele><time>2026-05-01T10:52:08.156Z</time></trkpt><trkpt lat="45.0724817" lon="7.941395"><ele>293.0</ele><time>2026-05-01T10:52:09.153Z</time></trkpt><trkpt lat="45.0723183" lon="7.9414467"><ele>293.6666666666667</ele><time>2026-05-01T10:52:10.156Z</time></trkpt><trkpt lat="45.0721483" lon="7.941505"><ele>294.3333333333333</ele><time>2026-05-01T10:52:11.153Z</time></trkpt><trkpt lat="45.0719633" lon="7.9415533"><ele>295.0</ele><time>2026-05-01T10:52:12.154Z</time></trkpt><trkpt lat="45.0717783" lon="7.9415933"><ele>294.3333333333333</ele><time>2026-05-01T10:52:13.153Z</time></trkpt><trkpt lat="45.0716" lon="7.9416267"><ele>293.6666666666667</ele><time>2026-05-01T10:52:14.16Z</time></trkpt><trkpt lat="45.0714183" lon="7.9416533"><ele>293.0</ele><time>2026-05-01T10:52:15.156Z</time></trkpt><trkpt lat="45.0712433" lon="7.9416783"><ele>293.0</ele><time>2026-05-01T10:52:16.164Z</time></trkpt><trkpt lat="45.071075" lon="7.9416983"><ele>293.0</ele><time>2026-05-01T10:52:17.153Z</time></trkpt><trkpt lat="45.07092" lon="7.941705"><ele>293.0</ele><time>2026-05-01T10:52:18.156Z</time></trkpt><trkpt lat="45.0707717" lon="7.94169"><ele>291.6666666666667</ele><time>2026-05-01T10:52:19.155Z</time></trkpt><trkpt lat="45.0706233" lon="7.94165"><ele>290.3333333333333</ele><time>2026-05-01T10:52:20.159Z</time></trkpt><trkpt lat="45.07047" lon="7.9415983"><ele>289.0</ele><time>2026-05-01T10:52:21.153Z</time></trkpt><trkpt lat="45.0703133" lon="7.9415317"><ele>289.0</ele><time>2026-05-01T10:52:22.153Z</time></trkpt><trkpt lat="45.0701583" lon="7.94146"><ele>289.0</ele><time>2026-05-01T10:52:23.157Z</time></trkpt><trkpt lat="45.0700033" lon="7.9413817"><ele>289.0</ele><time>2026-05-01T10:52:24.157Z</time></trkpt><trkpt lat="45.069855" lon="7.941305"><ele>288.25</ele><time>2026-05-01T10:52:25.153Z</time></trkpt><trkpt lat="45.06972" lon="7.94125"><ele>287.5</ele><time>2026-05-01T10:52:26.156Z</time></trkpt><trkpt lat="45.0695933" lon="7.9412333"><ele>286.75</ele><time>2026-05-01T10:52:27.156Z</time></trkpt><trkpt lat="45.0694717" lon="7.9412517"><ele>286.0</ele><time>2026-05-01T10:52:28.153Z</time></trkpt><trkpt lat="45.0693583" lon="7.9413283"><ele>286.0</ele><time>2026-05-01T10:52:29.158Z</time></trkpt><trkpt lat="45.0692567" lon="7.941445"><ele>286.0</ele><time>2026-05-01T10:52:30.157Z</time></trkpt><trkpt lat="45.0691667" lon="7.9416033"><ele>286.0</ele><time>2026-05-01T10:52:31.155Z</time></trkpt><trkpt lat="45.06909" lon="7.94178"><ele>286.0</ele><time>2026-05-01T10:52:32.158Z</time></trkpt><trkpt lat="45.0690283" lon="7.9419733"><ele>285.3333333333333</ele><time>2026-05-01T10:52:33.155Z</time></trkpt><trkpt lat="45.0689867" lon="7.9421867"><ele>284.6666666666667</ele><time>2026-05-01T10:52:34.156Z</time></trkpt><trkpt lat="45.0689617" lon="7.9424067"><ele>284.0</ele><time>2026-05-01T10:52:35.156Z</time></trkpt><trkpt lat="45.06895" lon="7.94264"><ele>281.6666666666667</ele><time>2026-05-01T10:52:36.152Z</time></trkpt><trkpt lat="45.068935" lon="7.9428717"><ele>279.3333333333333</ele><time>2026-05-01T10:52:37.152Z</time></trkpt><trkpt lat="45.0689267" lon="7.9430983"><ele>277.0</ele><time>2026-05-01T10:52:38.157Z</time></trkpt><trkpt lat="45.06892" lon="7.94332"><ele>277.5</ele><time>2026-05-01T10:52:39.154Z</time></trkpt><trkpt lat="45.0689117" lon="7.9435333"><ele>278.0</ele><time>2026-05-01T10:52:40.152Z</time></trkpt><trkpt lat="45.0689017" lon="7.9437183"><ele>278.5</ele><time>2026-05-01T10:52:41.155Z</time></trkpt><trkpt lat="45.0688817" lon="7.9438733"><ele>279.0</ele><time>2026-05-01T10:52:42.159Z</time></trkpt><trkpt lat="45.0688417" lon="7.9439983"><ele>279.0</ele><time>2026-05-01T10:52:43.159Z</time></trkpt><trkpt lat="45.068785" lon="7.9441083"><ele>279.0</ele><time>2026-05-01T10:52:44.157Z</time></trkpt><trkpt lat="45.0687083" lon="7.9441867"><ele>279.0</ele><time>2026-05-01T10:52:45.152Z</time></trkpt><trkpt lat="45.0686083" lon="7.9442383"><ele>279.0</ele><time>2026-05-01T10:52:46.155Z</time></trkpt><trkpt lat="45.0685067" lon="7.94428"><ele>279.0</ele><time>2026-05-01T10:52:47.154Z</time></trkpt><trkpt lat="45.0683983" lon="7.9443417"><ele>278.0</ele><time>2026-05-01T10:52:48.158Z</time></trkpt><trkpt lat="45.068285" lon="7.94444"><ele>277.0</ele><time>2026-05-01T10:52:49.154Z</time></trkpt><trkpt lat="45.06818" lon="7.9445917"><ele>276.0</ele><time>2026-05-01T10:52:50.155Z</time></trkpt><trkpt lat="45.0680833" lon="7.9447633"><ele>275.0</ele><time>2026-05-01T10:52:51.151Z</time></trkpt><trkpt lat="45.0679933" lon="7.944955"><ele>276.0</ele><time>2026-05-01T10:52:52.155Z</time></trkpt><trkpt lat="45.0679017" lon="7.9451633"><ele>277.0</ele><time>2026-05-01T10:52:53.154Z</time></trkpt><trkpt lat="45.0678067" lon="7.9453733"><ele>278.0</ele><time>2026-05-01T10:52:54.157Z</time></trkpt><trkpt lat="45.0677133" lon="7.9455867"><ele>278.0</ele><time>2026-05-01T10:52:55.157Z</time></trkpt><trkpt lat="45.067615" lon="7.9457983"><ele>278.0</ele><time>2026-05-01T10:52:56.153Z</time></trkpt><trkpt lat="45.06751" lon="7.9459983"><ele>278.0</ele><time>2026-05-01T10:52:57.153Z</time></trkpt><trkpt lat="45.0673967" lon="7.94618"><ele>278.0</ele><time>2026-05-01T10:52:58.154Z</time></trkpt><trkpt lat="45.06727" lon="7.9463233"><ele>278.0</ele><time>2026-05-01T10:52:59.154Z</time></trkpt><trkpt lat="45.06713" lon="7.9464283"><ele>278.0</ele><time>2026-05-01T10:53:00.158Z</time></trkpt><trkpt lat="45.066975" lon="7.9465067"><ele>278.0</ele><time>2026-05-01T10:53:01.155Z</time></trkpt><trkpt lat="45.0668067" lon="7.9465617"><ele>278.0</ele><time>2026-05-01T10:53:02.156Z</time></trkpt><trkpt lat="45.0666317" lon="7.946595"><ele>278.0</ele><time>2026-05-01T10:53:03.156Z</time></trkpt><trkpt lat="45.06646" lon="7.9466183"><ele>277.33333333333337</ele><time>2026-05-01T10:53:04.156Z</time></trkpt><trkpt lat="45.0662983" lon="7.946625"><ele>276.6666666666667</ele><time>2026-05-01T10:53:05.153Z</time></trkpt><trkpt lat="45.0661467" lon="7.946595"><ele>276.0</ele><time>2026-05-01T10:53:06.157Z</time></trkpt><trkpt lat="45.0660083" lon="7.9465283"><ele>276.0</ele><time>2026-05-01T10:53:07.153Z</time></trkpt><trkpt lat="45.0658767" lon="7.94645"><ele>276.0</ele><time>2026-05-01T10:53:08.15Z</time></trkpt><trkpt lat="45.0657467" lon="7.9463833"><ele>276.0</ele><time>2026-05-01T10:53:09.15Z</time></trkpt><trkpt lat="45.0656117" lon="7.9463517"><ele>276.0</ele><time>2026-05-01T10:53:10.149Z</time></trkpt><trkpt lat="45.0654717" lon="7.94636"><ele>274.75</ele><time>2026-05-01T10:53:11.156Z</time></trkpt><trkpt lat="45.065325" lon="7.9463983"><ele>273.5</ele><time>2026-05-01T10:53:12.152Z</time></trkpt><trkpt lat="45.0651867" lon="7.9464533"><ele>272.25</ele><time>2026-05-01T10:53:13.154Z</time></trkpt><trkpt lat="45.0650583" lon="7.9465267"><ele>271.0</ele><time>2026-05-01T10:53:14.153Z</time></trkpt><trkpt lat="45.06493" lon="7.9466317"><ele>270.0</ele><time>2026-05-01T10:53:15.153Z</time></trkpt><trkpt lat="45.064815" lon="7.9467667"><ele>269.0</ele><time>2026-05-01T10:53:16.154Z</time></trkpt><trkpt lat="45.06471" lon="7.9469283"><ele>268.0</ele><time>2026-05-01T10:53:17.153Z</time></trkpt><trkpt lat="45.0646167" lon="7.9471117"><ele>268.0</ele><time>2026-05-01T10:53:18.156Z</time></trkpt><trkpt lat="45.0645217" lon="7.9472967"><ele>268.0</ele><time>2026-05-01T10:53:19.152Z</time></trkpt><trkpt lat="45.0644283" lon="7.947475"><ele>268.0</ele><time>2026-05-01T10:53:20.152Z</time></trkpt><trkpt lat="45.06433" lon="7.94763"><ele>269.5</ele><time>2026-05-01T10:53:21.152Z</time></trkpt><trkpt lat="45.0642167" lon="7.9477567"><ele>271.0</ele><time>2026-05-01T10:53:22.153Z</time></trkpt><trkpt lat="45.0640933" lon="7.9478533"><ele>272.5</ele><time>2026-05-01T10:53:23.156Z</time></trkpt><trkpt lat="45.063955" lon="7.94791"><ele>274.0</ele><time>2026-05-01T10:53:24.152Z</time></trkpt><trkpt lat="45.06382" lon="7.9479367"><ele>274.75</ele><time>2026-05-01T10:53:25.154Z</time></trkpt><trkpt lat="45.0636683" lon="7.947935"><ele>275.5</ele><time>2026-05-01T10:53:26.153Z</time></trkpt><trkpt lat="45.0635233" lon="7.94792"><ele>276.25</ele><time>2026-05-01T10:53:27.151Z</time></trkpt><trkpt lat="45.0633767" lon="7.9479033"><ele>277.0</ele><time>2026-05-01T10:53:28.158Z</time></trkpt><trkpt lat="45.0632317" lon="7.9478683"><ele>280.0</ele><time>2026-05-01T10:53:29.156Z</time></trkpt><trkpt lat="45.0630883" lon="7.9478117"><ele>283.0</ele><time>2026-05-01T10:53:30.156Z</time></trkpt><trkpt lat="45.0629467" lon="7.94775"><ele>286.0</ele><time>2026-05-01T10:53:31.154Z</time></trkpt><trkpt lat="45.0628" lon="7.9476883"><ele>286.0</ele><time>2026-05-01T10:53:32.152Z</time></trkpt><trkpt lat="45.06266" lon="7.9476367"><ele>286.0</ele><time>2026-05-01T10:53:33.152Z</time></trkpt><trkpt lat="45.0625217" lon="7.947595"><ele>286.0</ele><time>2026-05-01T10:53:34.153Z</time></trkpt><trkpt lat="45.0623883" lon="7.94756"><ele>286.0</ele><time>2026-05-01T10:53:35.155Z</time></trkpt><trkpt lat="45.062255" lon="7.9475433"><ele>284.25</ele><time>2026-05-01T10:53:36.154Z</time></trkpt><trkpt lat="45.0621217" lon="7.9475517"><ele>282.5</ele><time>2026-05-01T10:53:37.152Z</time></trkpt><trkpt lat="45.0619867" lon="7.947595"><ele>280.75</ele><time>2026-05-01T10:53:38.158Z</time></trkpt><trkpt lat="45.0618533" lon="7.9476633"><ele>279.0</ele><time>2026-05-01T10:53:39.153Z</time></trkpt><trkpt lat="45.0617233" lon="7.947755"><ele>275.3333333333333</ele><time>2026-05-01T10:53:40.153Z</time></trkpt><trkpt lat="45.0615917" lon="7.9478567"><ele>271.66666666666663</ele><time>2026-05-01T10:53:41.155Z</time></trkpt><trkpt lat="45.0614667" lon="7.9479817"><ele>268.0</ele><time>2026-05-01T10:53:42.154Z</time></trkpt><trkpt lat="45.061345" lon="7.9481267"><ele>268.0</ele><time>2026-05-01T10:53:43.158Z</time></trkpt><trkpt lat="45.0612317" lon="7.9482917"><ele>268.0</ele><time>2026-05-01T10:53:44.155Z</time></trkpt><trkpt lat="45.0611217" lon="7.948465"><ele>268.0</ele><time>2026-05-01T10:53:45.158Z</time></trkpt><trkpt lat="45.06101" lon="7.9486467"><ele>269.0</ele><time>2026-05-01T10:53:46.151Z</time></trkpt><trkpt lat="45.060895" lon="7.94882"><ele>270.0</ele><time>2026-05-01T10:53:47.16Z</time></trkpt><trkpt lat="45.0607583" lon="7.94897"><ele>271.0</ele><time>2026-05-01T10:53:48.156Z</time></trkpt><trkpt lat="45.0606133" lon="7.9490983"><ele>273.0</ele><time>2026-05-01T10:53:49.155Z</time></trkpt><trkpt lat="45.0604617" lon="7.9492117"><ele>275.0</ele><time>2026-05-01T10:53:50.152Z</time></trkpt><trkpt lat="45.060305" lon="7.9493217"><ele>277.0</ele><time>2026-05-01T10:53:51.15Z</time></trkpt><trkpt lat="45.06015" lon="7.949425"><ele>277.0</ele><time>2026-05-01T10:53:52.154Z</time></trkpt><trkpt lat="45.0600033" lon="7.94952"><ele>277.0</ele><time>2026-05-01T10:53:53.157Z</time></trkpt><trkpt lat="45.0598667" lon="7.9496117"><ele>277.0</ele><time>2026-05-01T10:53:54.152Z</time></trkpt><trkpt lat="45.05974" lon="7.949715"><ele>276.25</ele><time>2026-05-01T10:53:55.158Z</time></trkpt><trkpt lat="45.0596267" lon="7.9498433"><ele>275.5</ele><time>2026-05-01T10:53:56.157Z</time></trkpt><trkpt lat="45.05952" lon="7.9499933"><ele>274.75</ele><time>2026-05-01T10:53:57.153Z</time></trkpt><trkpt lat="45.05941" lon="7.950145"><ele>274.0</ele><time>2026-05-01T10:53:58.155Z</time></trkpt><trkpt lat="45.0592967" lon="7.950295"><ele>274.0</ele><time>2026-05-01T10:53:59.155Z</time></trkpt><trkpt lat="45.0591833" lon="7.9504367"><ele>274.0</ele><time>2026-05-01T10:54:00.156Z</time></trkpt><trkpt lat="45.0590583" lon="7.9505667"><ele>274.0</ele><time>2026-05-01T10:54:01.154Z</time></trkpt><trkpt lat="45.0589267" lon="7.9506733"><ele>272.66666666666663</ele><time>2026-05-01T10:54:02.156Z</time></trkpt><trkpt lat="45.05879" lon="7.9507667"><ele>271.3333333333333</ele><time>2026-05-01T10:54:03.159Z</time></trkpt><trkpt lat="45.05865" lon="7.9508517"><ele>270.0</ele><time>2026-05-01T10:54:04.157Z</time></trkpt><trkpt lat="45.0584967" lon="7.9509383"><ele>270.0</ele><time>2026-05-01T10:54:05.152Z</time></trkpt><trkpt lat="45.0583533" lon="7.9510567"><ele>270.0</ele><time>2026-05-01T10:54:06.154Z</time></trkpt><trkpt lat="45.0582233" lon="7.9512033"><ele>270.0</ele><time>2026-05-01T10:54:07.152Z</time></trkpt><trkpt lat="45.0581017" lon="7.9513733"><ele>268.0</ele><time>2026-05-01T10:54:08.151Z</time></trkpt><trkpt lat="45.05798" lon="7.95156"><ele>266.0</ele><time>2026-05-01T10:54:09.151Z</time></trkpt><trkpt lat="45.0578583" lon="7.951755"><ele>264.0</ele><time>2026-05-01T10:54:10.152Z</time></trkpt><trkpt lat="45.0577517" lon="7.9519467"><ele>264.0</ele><time>2026-05-01T10:54:11.157Z</time></trkpt><trkpt lat="45.0576483" lon="7.9521067"><ele>264.0</ele><time>2026-05-01T10:54:12.153Z</time></trkpt><trkpt lat="45.0575467" lon="7.9522433"><ele>264.0</ele><time>2026-05-01T10:54:13.157Z</time></trkpt><trkpt lat="45.0574383" lon="7.9523567"><ele>264.0</ele><time>2026-05-01T10:54:14.15Z</time></trkpt><trkpt lat="45.0573217" lon="7.9524433"><ele>263.25</ele><time>2026-05-01T10:54:15.151Z</time></trkpt><trkpt lat="45.0571967" lon="7.952505"><ele>262.5</ele><time>2026-05-01T10:54:16.157Z</time></trkpt><trkpt lat="45.0570467" lon="7.9525367"><ele>261.75</ele><time>2026-05-01T10:54:17.16Z</time></trkpt><trkpt lat="45.0569017" lon="7.9525683"><ele>261.0</ele><time>2026-05-01T10:54:18.154Z</time></trkpt><trkpt lat="45.056755" lon="7.952605"><ele>263.0</ele><time>2026-05-01T10:54:19.155Z</time></trkpt><trkpt lat="45.0565967" lon="7.95263"><ele>265.0</ele><time>2026-05-01T10:54:20.159Z</time></trkpt><trkpt lat="45.0564367" lon="7.9526833"><ele>267.0</ele><time>2026-05-01T10:54:21.152Z</time></trkpt><trkpt lat="45.0562717" lon="7.9527483"><ele>267.0</ele><time>2026-05-01T10:54:22.156Z</time></trkpt><trkpt lat="45.0561017" lon="7.9528383"><ele>267.0</ele><time>2026-05-01T10:54:23.151Z</time></trkpt><trkpt lat="45.055925" lon="7.95293"><ele>267.0</ele><time>2026-05-01T10:54:24.153Z</time></trkpt><trkpt lat="45.0557483" lon="7.9530133"><ele>266.0</ele><time>2026-05-01T10:54:25.153Z</time></trkpt><trkpt lat="45.0555667" lon="7.953075"><ele>265.0</ele><time>2026-05-01T10:54:26.159Z</time></trkpt><trkpt lat="45.0553867" lon="7.9531133"><ele>264.0</ele><time>2026-05-01T10:54:27.153Z</time></trkpt><trkpt lat="45.0552033" lon="7.95312"><ele>264.0</ele><time>2026-05-01T10:54:28.155Z</time></trkpt><trkpt lat="45.0550133" lon="7.95311"><ele>264.0</ele><time>2026-05-01T10:54:29.153Z</time></trkpt><trkpt lat="45.0548233" lon="7.953095"><ele>264.0</ele><time>2026-05-01T10:54:30.154Z</time></trkpt><trkpt lat="45.0546333" lon="7.953075"><ele>263.3333333333333</ele><time>2026-05-01T10:54:31.155Z</time></trkpt><trkpt lat="45.0544467" lon="7.9530617"><ele>262.66666666666663</ele><time>2026-05-01T10:54:32.156Z</time></trkpt><trkpt lat="45.0542783" lon="7.9530717"><ele>262.0</ele><time>2026-05-01T10:54:33.152Z</time></trkpt><trkpt lat="45.054125" lon="7.9531033"><ele>260.25</ele><time>2026-05-01T10:54:34.161Z</time></trkpt><trkpt lat="45.0539867" lon="7.9531617"><ele>258.5</ele><time>2026-05-01T10:54:35.157Z</time></trkpt><trkpt lat="45.053855" lon="7.9532483"><ele>256.75</ele><time>2026-05-01T10:54:36.155Z</time></trkpt><trkpt lat="45.053725" lon="7.953345"><ele>255.0</ele><time>2026-05-01T10:54:37.153Z</time></trkpt><trkpt lat="45.053595" lon="7.953435"><ele>258.5</ele><time>2026-05-01T10:54:38.153Z</time></trkpt><trkpt lat="45.053455" lon="7.9534967"><ele>262.0</ele><time>2026-05-01T10:54:39.159Z</time></trkpt><trkpt lat="45.053315" lon="7.9535233"><ele>265.5</ele><time>2026-05-01T10:54:40.158Z</time></trkpt><trkpt lat="45.0531633" lon="7.953525"><ele>269.0</ele><time>2026-05-01T10:54:41.154Z</time></trkpt><trkpt lat="45.05301" lon="7.953505"><ele>271.6666666666667</ele><time>2026-05-01T10:54:42.157Z</time></trkpt><trkpt lat="45.05285" lon="7.9534667"><ele>274.3333333333333</ele><time>2026-05-01T10:54:43.16Z</time></trkpt><trkpt lat="45.0526833" lon="7.95342"><ele>277.0</ele><time>2026-05-01T10:54:44.16Z</time></trkpt><trkpt lat="45.0525083" lon="7.9533883"><ele>270.66666666666663</ele><time>2026-05-01T10:54:45.156Z</time></trkpt><trkpt lat="45.05233" lon="7.95336"><ele>264.3333333333333</ele><time>2026-05-01T10:54:46.156Z</time></trkpt><trkpt lat="45.0521533" lon="7.9533383"><ele>258.0</ele><time>2026-05-01T10:54:47.16Z</time></trkpt><trkpt lat="45.051975" lon="7.9533183"><ele>258.0</ele><time>2026-05-01T10:54:48.153Z</time></trkpt><trkpt lat="45.0518017" lon="7.9533067"><ele>258.0</ele><time>2026-05-01T10:54:49.159Z</time></trkpt><trkpt lat="45.0516267" lon="7.9533017"><ele>258.0</ele><time>2026-05-01T10:54:50.154Z</time></trkpt><trkpt lat="45.05146" lon="7.953305"><ele>257.6666666666667</ele><time>2026-05-01T10:54:51.159Z</time></trkpt><trkpt lat="45.0512983" lon="7.953325"><ele>257.33333333333337</ele><time>2026-05-01T10:54:52.154Z</time></trkpt><trkpt lat="45.051145" lon="7.9533717"><ele>257.0</ele><time>2026-05-01T10:54:53.153Z</time></trkpt><trkpt lat="45.0509983" lon="7.95345"><ele>256.33333333333337</ele><time>2026-05-01T10:54:54.155Z</time></trkpt><trkpt lat="45.0508517" lon="7.9535583"><ele>255.66666666666669</ele><time>2026-05-01T10:54:55.153Z</time></trkpt><trkpt lat="45.0507117" lon="7.9536783"><ele>255.0</ele><time>2026-05-01T10:54:56.158Z</time></trkpt><trkpt lat="45.0505717" lon="7.9538"><ele>255.0</ele><time>2026-05-01T10:54:57.154Z</time></trkpt><trkpt lat="45.0504283" lon="7.953915"><ele>255.0</ele><time>2026-05-01T10:54:58.157Z</time></trkpt><trkpt lat="45.0502933" lon="7.9540167"><ele>255.0</ele><time>2026-05-01T10:54:59.154Z</time></trkpt><trkpt lat="45.0501717" lon="7.9541217"><ele>254.8</ele><time>2026-05-01T10:55:00.152Z</time></trkpt><trkpt lat="45.0500667" lon="7.9542333"><ele>254.6</ele><time>2026-05-01T10:55:01.152Z</time></trkpt><trkpt lat="45.049985" lon="7.9543383"><ele>254.39999999999998</ele><time>2026-05-01T10:55:02.162Z</time></trkpt><trkpt lat="45.0499233" lon="7.954425"><ele>254.2</ele><time>2026-05-01T10:55:03.151Z</time></trkpt><trkpt lat="45.0498733" lon="7.9544983"><ele>254.0</ele><time>2026-05-01T10:55:04.153Z</time></trkpt><trkpt lat="45.0497917" lon="7.9546183"><ele>254.00000000000003</ele><time>2026-05-01T10:55:06.156Z</time></trkpt><trkpt lat="45.0497" lon="7.9547417"><ele>254.0</ele><time>2026-05-01T10:55:08.155Z</time></trkpt><trkpt lat="45.04965" lon="7.9547983"><ele>254.0</ele><time>2026-05-01T10:55:09.152Z</time></trkpt><trkpt lat="45.0496" lon="7.954855"><ele>254.0</ele><time>2026-05-01T10:55:10.152Z</time></trkpt><trkpt lat="45.049545" lon="7.9549017"><ele>254.00000000000003</ele><time>2026-05-01T10:55:11.156Z</time></trkpt><trkpt lat="45.0494333" lon="7.9549917"><ele>254.0</ele><time>2026-05-01T10:55:13.155Z</time></trkpt><trkpt lat="45.0493717" lon="7.95505"><ele>254.0</ele><time>2026-05-01T10:55:14.152Z</time></trkpt><trkpt lat="45.0493" lon="7.9551283"><ele>253.99999999999997</ele><time>2026-05-01T10:55:15.157Z</time></trkpt><trkpt lat="45.0492167" lon="7.9552183"><ele>253.99999999999997</ele><time>2026-05-01T10:55:16.153Z</time></trkpt><trkpt lat="45.0491217" lon="7.9553183"><ele>254.0</ele><time>2026-05-01T10:55:17.157Z</time></trkpt><trkpt lat="45.049015" lon="7.955435"><ele>254.0</ele><time>2026-05-01T10:55:18.155Z</time></trkpt><trkpt lat="45.0488917" lon="7.955555"><ele>254.0</ele><time>2026-05-01T10:55:19.156Z</time></trkpt><trkpt lat="45.048765" lon="7.9556833"><ele>254.0</ele><time>2026-05-01T10:55:20.151Z</time></trkpt><trkpt lat="45.048635" lon="7.955815"><ele>254.0</ele><time>2026-05-01T10:55:21.155Z</time></trkpt><trkpt lat="45.0485067" lon="7.9559433"><ele>254.33333333333334</ele><time>2026-05-01T10:55:22.152Z</time></trkpt><trkpt lat="45.048375" lon="7.95606"><ele>254.66666666666669</ele><time>2026-05-01T10:55:23.157Z</time></trkpt><trkpt lat="45.0482417" lon="7.95617"><ele>255.0</ele><time>2026-05-01T10:55:24.151Z</time></trkpt><trkpt lat="45.0481117" lon="7.95627"><ele>255.0</ele><time>2026-05-01T10:55:25.159Z</time></trkpt><trkpt lat="45.0479817" lon="7.9563567"><ele>255.0</ele><time>2026-05-01T10:55:26.156Z</time></trkpt><trkpt lat="45.04785" lon="7.9564283"><ele>255.0</ele><time>2026-05-01T10:55:27.153Z</time></trkpt><trkpt lat="45.0477217" lon="7.9564833"><ele>255.0</ele><time>2026-05-01T10:55:28.153Z</time></trkpt><trkpt lat="45.04759" lon="7.9565367"><ele>254.0</ele><time>2026-05-01T10:55:29.159Z</time></trkpt><trkpt lat="45.0474567" lon="7.956575"><ele>253.0</ele><time>2026-05-01T10:55:30.152Z</time></trkpt><trkpt lat="45.0473217" lon="7.9566"><ele>252.0</ele><time>2026-05-01T10:55:31.153Z</time></trkpt><trkpt lat="45.0471883" lon="7.95661"><ele>251.0</ele><time>2026-05-01T10:55:32.153Z</time></trkpt><trkpt lat="45.04705" lon="7.9566133"><ele>251.0</ele><time>2026-05-01T10:55:33.155Z</time></trkpt><trkpt lat="45.0469133" lon="7.9566233"><ele>251.0</ele><time>2026-05-01T10:55:34.158Z</time></trkpt><trkpt lat="45.0467817" lon="7.9566533"><ele>251.0</ele><time>2026-05-01T10:55:35.154Z</time></trkpt><trkpt lat="45.0466517" lon="7.9567033"><ele>251.0</ele><time>2026-05-01T10:55:36.153Z</time></trkpt><trkpt lat="45.04652" lon="7.9567917"><ele>250.33333333333334</ele><time>2026-05-01T10:55:37.157Z</time></trkpt><trkpt lat="45.046385" lon="7.956905"><ele>249.66666666666669</ele><time>2026-05-01T10:55:38.154Z</time></trkpt><trkpt lat="45.0462567" lon="7.9570383"><ele>249.0</ele><time>2026-05-01T10:55:39.15Z</time></trkpt><trkpt lat="45.0461283" lon="7.9571783"><ele>249.0</ele><time>2026-05-01T10:55:40.152Z</time></trkpt><trkpt lat="45.04599" lon="7.9573183"><ele>249.0</ele><time>2026-05-01T10:55:41.15Z</time></trkpt><trkpt lat="45.04586" lon="7.9574667"><ele>249.0</ele><time>2026-05-01T10:55:42.154Z</time></trkpt><trkpt lat="45.0457383" lon="7.9576283"><ele>248.33333333333331</ele><time>2026-05-01T10:55:43.157Z</time></trkpt><trkpt lat="45.0456167" lon="7.957785"><ele>247.66666666666666</ele><time>2026-05-01T10:55:44.157Z</time></trkpt><trkpt lat="45.0454983" lon="7.957945"><ele>247.0</ele><time>2026-05-01T10:55:45.151Z</time></trkpt><trkpt lat="45.045385" lon="7.9581033"><ele>247.0</ele><time>2026-05-01T10:55:46.153Z</time></trkpt><trkpt lat="45.045275" lon="7.9582633"><ele>247.0</ele><time>2026-05-01T10:55:47.153Z</time></trkpt><trkpt lat="45.0451717" lon="7.95843"><ele>247.0</ele><time>2026-05-01T10:55:48.154Z</time></trkpt><trkpt lat="45.0450667" lon="7.9585917"><ele>246.66666666666666</ele><time>2026-05-01T10:55:49.157Z</time></trkpt><trkpt lat="45.0449633" lon="7.9587467"><ele>246.33333333333331</ele><time>2026-05-01T10:55:50.153Z</time></trkpt><trkpt lat="45.04486" lon="7.9589133"><ele>246.0</ele><time>2026-05-01T10:55:51.153Z</time></trkpt><trkpt lat="45.044765" lon="7.9590867"><ele>244.75</ele><time>2026-05-01T10:55:52.156Z</time></trkpt><trkpt lat="45.0446717" lon="7.9592567"><ele>243.5</ele><time>2026-05-01T10:55:53.153Z</time></trkpt><trkpt lat="45.0445817" lon="7.9594183"><ele>242.25</ele><time>2026-05-01T10:55:54.155Z</time></trkpt><trkpt lat="45.0444983" lon="7.9595767"><ele>241.0</ele><time>2026-05-01T10:55:55.154Z</time></trkpt><trkpt lat="45.0444233" lon="7.9597217"><ele>240.99999999999997</ele><time>2026-05-01T10:55:56.156Z</time></trkpt><trkpt lat="45.0443583" lon="7.95985"><ele>241.0</ele><time>2026-05-01T10:55:57.16Z</time></trkpt><trkpt lat="45.0443017" lon="7.9599617"><ele>241.0</ele><time>2026-05-01T10:55:58.155Z</time></trkpt><trkpt lat="45.04425" lon="7.9600583"><ele>241.0</ele><time>2026-05-01T10:55:59.154Z</time></trkpt><trkpt lat="45.0442083" lon="7.9601417"><ele>240.99999999999997</ele><time>2026-05-01T10:56:00.154Z</time></trkpt><trkpt lat="45.0441617" lon="7.9602183"><ele>241.0</ele><time>2026-05-01T10:56:01.153Z</time></trkpt><trkpt lat="45.0441033" lon="7.9602967"><ele>241.8</ele><time>2026-05-01T10:56:02.157Z</time></trkpt><trkpt lat="45.04403" lon="7.96038"><ele>242.60000000000002</ele><time>2026-05-01T10:56:03.154Z</time></trkpt><trkpt lat="45.0439433" lon="7.96047"><ele>243.4</ele><time>2026-05-01T10:56:04.153Z</time></trkpt><trkpt lat="45.0438517" lon="7.9605717"><ele>244.2</ele><time>2026-05-01T10:56:05.156Z</time></trkpt><trkpt lat="45.0437533" lon="7.96067"><ele>245.0</ele><time>2026-05-01T10:56:06.152Z</time></trkpt><trkpt lat="45.0436517" lon="7.9607567"><ele>245.0</ele><time>2026-05-01T10:56:07.154Z</time></trkpt><trkpt lat="45.0435483" lon="7.960835"><ele>245.0</ele><time>2026-05-01T10:56:08.156Z</time></trkpt><trkpt lat="45.0434433" lon="7.9608933"><ele>245.0</ele><time>2026-05-01T10:56:09.155Z</time></trkpt><trkpt lat="45.04334" lon="7.960945"><ele>245.0</ele><time>2026-05-01T10:56:10.159Z</time></trkpt><trkpt lat="45.04323" lon="7.9609883"><ele>245.6</ele><time>2026-05-01T10:56:11.154Z</time></trkpt><trkpt lat="45.043125" lon="7.9610167"><ele>246.2</ele><time>2026-05-01T10:56:12.155Z</time></trkpt><trkpt lat="45.04302" lon="7.9610533"><ele>246.8</ele><time>2026-05-01T10:56:13.155Z</time></trkpt><trkpt lat="45.04292" lon="7.9610983"><ele>247.4</ele><time>2026-05-01T10:56:14.152Z</time></trkpt><trkpt lat="45.0428283" lon="7.961145"><ele>248.0</ele><time>2026-05-01T10:56:15.158Z</time></trkpt><trkpt lat="45.0427467" lon="7.9611833"><ele>248.0</ele><time>2026-05-01T10:56:16.157Z</time></trkpt><trkpt lat="45.042665" lon="7.9612083"><ele>248.0</ele><time>2026-05-01T10:56:17.156Z</time></trkpt><trkpt lat="45.042585" lon="7.9612283"><ele>248.0</ele><time>2026-05-01T10:56:18.159Z</time></trkpt><trkpt lat="45.04251" lon="7.9611183"><ele>248.0</ele><time>2026-05-01T10:56:19.166Z</time></trkpt><trkpt lat="45.0424383" lon="7.9610333"><ele>248.0</ele><time>2026-05-01T10:56:20.153Z</time></trkpt><trkpt lat="45.0423567" lon="7.96096"><ele>247.4</ele><time>2026-05-01T10:56:21.152Z</time></trkpt><trkpt lat="45.0422733" lon="7.960895"><ele>246.8</ele><time>2026-05-01T10:56:22.153Z</time></trkpt><trkpt lat="45.0421817" lon="7.9608583"><ele>246.2</ele><time>2026-05-01T10:56:23.154Z</time></trkpt><trkpt lat="45.0420867" lon="7.9608483"><ele>245.6</ele><time>2026-05-01T10:56:24.153Z</time></trkpt><trkpt lat="45.0419933" lon="7.960865"><ele>245.0</ele><time>2026-05-01T10:56:25.156Z</time></trkpt><trkpt lat="45.0418983" lon="7.960925"><ele>245.0</ele><time>2026-05-01T10:56:26.151Z</time></trkpt><trkpt lat="45.0418033" lon="7.9609983"><ele>245.0</ele><time>2026-05-01T10:56:27.157Z</time></trkpt><trkpt lat="45.0417083" lon="7.9610883"><ele>245.0</ele><time>2026-05-01T10:56:28.154Z</time></trkpt><trkpt lat="45.0416033" lon="7.9611783"><ele>245.0</ele><time>2026-05-01T10:56:29.158Z</time></trkpt><trkpt lat="45.041505" lon="7.9612767"><ele>244.6</ele><time>2026-05-01T10:56:30.152Z</time></trkpt><trkpt lat="45.0414067" lon="7.961365"><ele>244.2</ele><time>2026-05-01T10:56:31.153Z</time></trkpt><trkpt lat="45.041315" lon="7.9614517"><ele>243.8</ele><time>2026-05-01T10:56:32.153Z</time></trkpt><trkpt lat="45.0412433" lon="7.9615233"><ele>243.4</ele><time>2026-05-01T10:56:33.152Z</time></trkpt><trkpt lat="45.04118" lon="7.9615767"><ele>243.0</ele><time>2026-05-01T10:56:34.152Z</time></trkpt><trkpt lat="45.0411183" lon="7.9616183"><ele>243.0</ele><time>2026-05-01T10:56:35.154Z</time></trkpt><trkpt lat="45.041035" lon="7.9615483"><ele>243.0</ele><time>2026-05-01T10:56:37.154Z</time></trkpt><trkpt lat="45.04099" lon="7.9614767"><ele>243.0</ele><time>2026-05-01T10:56:38.154Z</time></trkpt><trkpt lat="45.040965" lon="7.961365"><ele>243.0</ele><time>2026-05-01T10:56:39.153Z</time></trkpt><trkpt lat="45.040925" lon="7.9612383"><ele>243.0</ele><time>2026-05-01T10:56:40.154Z</time></trkpt><trkpt lat="45.0408883" lon="7.9611017"><ele>243.0</ele><time>2026-05-01T10:56:41.156Z</time></trkpt><trkpt lat="45.0408483" lon="7.9609583"><ele>242.75</ele><time>2026-05-01T10:56:42.154Z</time></trkpt><trkpt lat="45.0408083" lon="7.9608017"><ele>242.5</ele><time>2026-05-01T10:56:43.153Z</time></trkpt><trkpt lat="45.0407683" lon="7.9606433"><ele>242.25</ele><time>2026-05-01T10:56:44.154Z</time></trkpt><trkpt lat="45.0407267" lon="7.9604917"><ele>242.0</ele><time>2026-05-01T10:56:45.15Z</time></trkpt><trkpt lat="45.0406833" lon="7.9603383"><ele>242.5</ele><time>2026-05-01T10:56:46.151Z</time></trkpt><trkpt lat="45.04064" lon="7.9601817"><ele>243.0</ele><time>2026-05-01T10:56:47.151Z</time></trkpt><trkpt lat="45.0405933" lon="7.96002"><ele>243.5</ele><time>2026-05-01T10:56:48.152Z</time></trkpt><trkpt lat="45.040545" lon="7.9598483"><ele>244.0</ele><time>2026-05-01T10:56:49.156Z</time></trkpt><trkpt lat="45.0404917" lon="7.95967"><ele>244.5</ele><time>2026-05-01T10:56:50.157Z</time></trkpt><trkpt lat="45.04044" lon="7.9594833"><ele>245.0</ele><time>2026-05-01T10:56:51.154Z</time></trkpt><trkpt lat="45.04039" lon="7.9592917"><ele>245.5</ele><time>2026-05-01T10:56:52.151Z</time></trkpt><trkpt lat="45.040335" lon="7.959105"><ele>246.0</ele><time>2026-05-01T10:56:53.156Z</time></trkpt><trkpt lat="45.0402817" lon="7.958925"><ele>246.60000000000002</ele><time>2026-05-01T10:56:54.151Z</time></trkpt><trkpt lat="45.040235" lon="7.958765"><ele>247.20000000000002</ele><time>2026-05-01T10:56:55.152Z</time></trkpt><trkpt lat="45.040195" lon="7.958635"><ele>247.79999999999998</ele><time>2026-05-01T10:56:56.152Z</time></trkpt><trkpt lat="45.0401533" lon="7.958545"><ele>248.39999999999998</ele><time>2026-05-01T10:56:57.154Z</time></trkpt><trkpt lat="45.0401117" lon="7.958475"><ele>249.0</ele><time>2026-05-01T10:56:58.155Z</time></trkpt><trkpt lat="45.03999" lon="7.9585217"><ele>250.39999999999998</ele><time>2026-05-01T10:57:00.155Z</time></trkpt><trkpt lat="45.0399267" lon="7.9586017"><ele>251.79999999999998</ele><time>2026-05-01T10:57:01.158Z</time></trkpt><trkpt lat="45.0398567" lon="7.9586917"><ele>253.20000000000002</ele><time>2026-05-01T10:57:02.157Z</time></trkpt><trkpt lat="45.03977" lon="7.9588067"><ele>254.60000000000002</ele><time>2026-05-01T10:57:03.158Z</time></trkpt><trkpt lat="45.039675" lon="7.9589267"><ele>256.0</ele><time>2026-05-01T10:57:04.16Z</time></trkpt><trkpt lat="45.0395767" lon="7.9590483"><ele>256.0</ele><time>2026-05-01T10:57:05.156Z</time></trkpt><trkpt lat="45.039475" lon="7.9591683"><ele>256.0</ele><time>2026-05-01T10:57:06.158Z</time></trkpt><trkpt lat="45.0393683" lon="7.9592883"><ele>256.0</ele><time>2026-05-01T10:57:07.161Z</time></trkpt><trkpt lat="45.0392683" lon="7.9594017"><ele>256.0</ele><time>2026-05-01T10:57:08.152Z</time></trkpt><trkpt lat="45.03917" lon="7.9595217"><ele>254.25</ele><time>2026-05-01T10:57:09.157Z</time></trkpt><trkpt lat="45.0390683" lon="7.959655"><ele>252.5</ele><time>2026-05-01T10:57:10.153Z</time></trkpt><trkpt lat="45.038975" lon="7.9597933"><ele>250.75</ele><time>2026-05-01T10:57:11.153Z</time></trkpt><trkpt lat="45.0388867" lon="7.9599467"><ele>249.0</ele><time>2026-05-01T10:57:12.153Z</time></trkpt><trkpt lat="45.0388083" lon="7.9601133"><ele>247.25</ele><time>2026-05-01T10:57:13.153Z</time></trkpt><trkpt lat="45.0387333" lon="7.9602867"><ele>245.5</ele><time>2026-05-01T10:57:14.16Z</time></trkpt><trkpt lat="45.03868" lon="7.9604767"><ele>243.75</ele><time>2026-05-01T10:57:15.153Z</time></trkpt><trkpt lat="45.0386433" lon="7.9606717"><ele>242.0</ele><time>2026-05-01T10:57:16.157Z</time></trkpt><trkpt lat="45.0386183" lon="7.960875"><ele>241.0</ele><time>2026-05-01T10:57:17.153Z</time></trkpt><trkpt lat="45.0386033" lon="7.9610817"><ele>240.0</ele><time>2026-05-01T10:57:18.151Z</time></trkpt><trkpt lat="45.0386" lon="7.9612867"><ele>239.0</ele><time>2026-05-01T10:57:19.152Z</time></trkpt><trkpt lat="45.038605" lon="7.961495"><ele>238.0</ele><time>2026-05-01T10:57:20.154Z</time></trkpt><trkpt lat="45.0386117" lon="7.9616967"><ele>237.75</ele><time>2026-05-01T10:57:21.163Z</time></trkpt><trkpt lat="45.03862" lon="7.9618983"><ele>237.5</ele><time>2026-05-01T10:57:22.157Z</time></trkpt><trkpt lat="45.0386283" lon="7.9621"><ele>237.25</ele><time>2026-05-01T10:57:23.159Z</time></trkpt><trkpt lat="45.0386417" lon="7.9622983"><ele>237.0</ele><time>2026-05-01T10:57:24.152Z</time></trkpt><trkpt lat="45.0386533" lon="7.9624983"><ele>236.75</ele><time>2026-05-01T10:57:25.149Z</time></trkpt><trkpt lat="45.0386633" lon="7.9626983"><ele>236.5</ele><time>2026-05-01T10:57:26.155Z</time></trkpt><trkpt lat="45.0386733" lon="7.9629"><ele>236.25</ele><time>2026-05-01T10:57:27.151Z</time></trkpt><trkpt lat="45.0386783" lon="7.9631017"><ele>236.0</ele><time>2026-05-01T10:57:28.152Z</time></trkpt><trkpt lat="45.038685" lon="7.9633067"><ele>235.75</ele><time>2026-05-01T10:57:29.156Z</time></trkpt><trkpt lat="45.0386917" lon="7.9635117"><ele>235.5</ele><time>2026-05-01T10:57:30.153Z</time></trkpt><trkpt lat="45.038705" lon="7.96371"><ele>235.25</ele><time>2026-05-01T10:57:31.152Z</time></trkpt><trkpt lat="45.0387333" lon="7.9639017"><ele>235.0</ele><time>2026-05-01T10:57:32.154Z</time></trkpt><trkpt lat="45.03878" lon="7.964075"><ele>235.25</ele><time>2026-05-01T10:57:33.154Z</time></trkpt><trkpt lat="45.03885" lon="7.964215"><ele>235.5</ele><time>2026-05-01T10:57:34.15Z</time></trkpt><trkpt lat="45.038935" lon="7.9643417"><ele>235.75</ele><time>2026-05-01T10:57:35.151Z</time></trkpt><trkpt lat="45.039025" lon="7.96446"><ele>236.0</ele><time>2026-05-01T10:57:36.154Z</time></trkpt><trkpt lat="45.0391317" lon="7.9645667"><ele>236.25</ele><time>2026-05-01T10:57:37.152Z</time></trkpt><trkpt lat="45.0392433" lon="7.9646733"><ele>236.5</ele><time>2026-05-01T10:57:38.153Z</time></trkpt><trkpt lat="45.0393567" lon="7.96479"><ele>236.75</ele><time>2026-05-01T10:57:39.152Z</time></trkpt><trkpt lat="45.0394633" lon="7.96491"><ele>237.0</ele><time>2026-05-01T10:57:40.155Z</time></trkpt><trkpt lat="45.0395633" lon="7.9650317"><ele>237.2</ele><time>2026-05-01T10:57:41.153Z</time></trkpt><trkpt lat="45.0396583" lon="7.9651567"><ele>237.39999999999998</ele><time>2026-05-01T10:57:42.155Z</time></trkpt><trkpt lat="45.0397533" lon="7.9652733"><ele>237.60000000000002</ele><time>2026-05-01T10:57:43.153Z</time></trkpt><trkpt lat="45.03983" lon="7.965385"><ele>237.8</ele><time>2026-05-01T10:57:44.153Z</time></trkpt><trkpt lat="45.0398883" lon="7.9654683"><ele>238.0</ele><time>2026-05-01T10:57:45.154Z</time></trkpt><trkpt lat="45.0399367" lon="7.96553"><ele>238.0</ele><time>2026-05-01T10:57:46.153Z</time></trkpt><trkpt lat="45.039985" lon="7.9656667"><ele>238.0</ele><time>2026-05-01T10:57:48.156Z</time></trkpt><trkpt lat="45.039905" lon="7.9658017"><ele>238.0</ele><time>2026-05-01T10:57:50.153Z</time></trkpt><trkpt lat="45.0398367" lon="7.9658667"><ele>238.0</ele><time>2026-05-01T10:57:51.158Z</time></trkpt><trkpt lat="45.0397517" lon="7.9659283"><ele>238.0</ele><time>2026-05-01T10:57:52.158Z</time></trkpt><trkpt lat="45.039645" lon="7.9659883"><ele>238.0</ele><time>2026-05-01T10:57:53.151Z</time></trkpt><trkpt lat="45.0395367" lon="7.9660533"><ele>238.0</ele><time>2026-05-01T10:57:54.153Z</time></trkpt><trkpt lat="45.0394283" lon="7.9661167"><ele>238.0</ele><time>2026-05-01T10:57:55.151Z</time></trkpt><trkpt lat="45.0393183" lon="7.9661833"><ele>238.0</ele><time>2026-05-01T10:57:56.152Z</time></trkpt><trkpt lat="45.0391983" lon="7.9662467"><ele>238.25</ele><time>2026-05-01T10:57:57.149Z</time></trkpt><trkpt lat="45.039075" lon="7.9663117"><ele>238.5</ele><time>2026-05-01T10:57:58.156Z</time></trkpt><trkpt lat="45.03895" lon="7.9663767"><ele>238.75</ele><time>2026-05-01T10:57:59.149Z</time></trkpt><trkpt lat="45.0388217" lon="7.9664383"><ele>239.0</ele><time>2026-05-01T10:58:00.157Z</time></trkpt><trkpt lat="45.03869" lon="7.9664983"><ele>239.0</ele><time>2026-05-01T10:58:01.155Z</time></trkpt><trkpt lat="45.0385567" lon="7.96656"><ele>239.0</ele><time>2026-05-01T10:58:02.155Z</time></trkpt><trkpt lat="45.0384217" lon="7.9666267"><ele>239.0</ele><time>2026-05-01T10:58:03.151Z</time></trkpt><trkpt lat="45.0382833" lon="7.96668"><ele>239.0</ele><time>2026-05-01T10:58:04.153Z</time></trkpt><trkpt lat="45.0381417" lon="7.966725"><ele>238.25</ele><time>2026-05-01T10:58:05.151Z</time></trkpt><trkpt lat="45.0380033" lon="7.96676"><ele>237.5</ele><time>2026-05-01T10:58:06.151Z</time></trkpt><trkpt lat="45.0378667" lon="7.966785"><ele>236.75</ele><time>2026-05-01T10:58:07.153Z</time></trkpt><trkpt lat="45.0377333" lon="7.966805"><ele>236.0</ele><time>2026-05-01T10:58:08.153Z</time></trkpt><trkpt lat="45.0376017" lon="7.96683"><ele>236.5</ele><time>2026-05-01T10:58:09.153Z</time></trkpt><trkpt lat="45.037465" lon="7.966845"><ele>237.0</ele><time>2026-05-01T10:58:10.153Z</time></trkpt><trkpt lat="45.0373383" lon="7.9668633"><ele>237.5</ele><time>2026-05-01T10:58:11.152Z</time></trkpt><trkpt lat="45.0372183" lon="7.9668767"><ele>238.0</ele><time>2026-05-01T10:58:12.155Z</time></trkpt><trkpt lat="45.037115" lon="7.9668783"><ele>237.99999999999997</ele><time>2026-05-01T10:58:13.152Z</time></trkpt><trkpt lat="45.0370367" lon="7.9668683"><ele>238.0</ele><time>2026-05-01T10:58:14.154Z</time></trkpt><trkpt lat="45.036965" lon="7.9668433"><ele>238.0</ele><time>2026-05-01T10:58:15.15Z</time></trkpt><trkpt lat="45.0368967" lon="7.966745"><ele>238.0</ele><time>2026-05-01T10:58:17.157Z</time></trkpt><trkpt lat="45.036855" lon="7.9666767"><ele>237.99999999999997</ele><time>2026-05-01T10:58:19.157Z</time></trkpt><trkpt lat="45.03685" lon="7.966555"><ele>238.0</ele><time>2026-05-01T10:58:30.151Z</time></trkpt><trkpt lat="45.0367817" lon="7.966525"><ele>237.66666666666666</ele><time>2026-05-01T10:58:34.158Z</time></trkpt><trkpt lat="45.0367033" lon="7.966495"><ele>237.33333333333331</ele><time>2026-05-01T11:01:39.156Z</time></trkpt><trkpt lat="45.0366433" lon="7.9665283"><ele>237.0</ele><time>2026-05-01T11:01:42.153Z</time></trkpt><trkpt lat="45.036615" lon="7.966625"><ele>236.66666666666669</ele><time>2026-05-01T11:01:44.155Z</time></trkpt><trkpt lat="45.036585" lon="7.9667117"><ele>236.33333333333334</ele><time>2026-05-01T11:01:46.158Z</time></trkpt><trkpt lat="45.0365483" lon="7.966795"><ele>236.0</ele><time>2026-05-01T11:01:49.157Z</time></trkpt><trkpt lat="45.0364417" lon="7.966835"><ele>237.0</ele><time>2026-05-01T11:01:53.156Z</time></trkpt><trkpt lat="45.0363633" lon="7.9668283"><ele>238.00000000000003</ele><time>2026-05-01T11:01:54.155Z</time></trkpt><trkpt lat="45.0362767" lon="7.96682"><ele>239.00000000000003</ele><time>2026-05-01T11:01:55.156Z</time></trkpt><trkpt lat="45.036175" lon="7.96682"><ele>240.0</ele><time>2026-05-01T11:01:56.152Z</time></trkpt><trkpt lat="45.036075" lon="7.96681"><ele>241.0</ele><time>2026-05-01T11:01:57.154Z</time></trkpt><trkpt lat="45.0359683" lon="7.9668"><ele>241.0</ele><time>2026-05-01T11:01:58.154Z</time></trkpt><trkpt lat="45.0358517" lon="7.9667867"><ele>241.0</ele><time>2026-05-01T11:01:59.159Z</time></trkpt><trkpt lat="45.0357283" lon="7.966775"><ele>241.0</ele><time>2026-05-01T11:02:00.154Z</time></trkpt><trkpt lat="45.0356017" lon="7.9667617"><ele>241.0</ele><time>2026-05-01T11:02:01.154Z</time></trkpt><trkpt lat="45.0354783" lon="7.9667517"><ele>242.5</ele><time>2026-05-01T11:02:02.157Z</time></trkpt><trkpt lat="45.0353583" lon="7.9667517"><ele>244.0</ele><time>2026-05-01T11:02:03.153Z</time></trkpt><trkpt lat="45.0352433" lon="7.9667617"><ele>245.5</ele><time>2026-05-01T11:02:04.157Z</time></trkpt><trkpt lat="45.03513" lon="7.96678"><ele>247.0</ele><time>2026-05-01T11:02:05.154Z</time></trkpt><trkpt lat="45.0350133" lon="7.96681"><ele>245.25</ele><time>2026-05-01T11:02:06.155Z</time></trkpt><trkpt lat="45.0348917" lon="7.9668567"><ele>243.5</ele><time>2026-05-01T11:02:07.156Z</time></trkpt><trkpt lat="45.0347717" lon="7.966915"><ele>241.75</ele><time>2026-05-01T11:02:08.158Z</time></trkpt><trkpt lat="45.03465" lon="7.9669917"><ele>240.0</ele><time>2026-05-01T11:02:09.16Z</time></trkpt><trkpt lat="45.0345317" lon="7.9670917"><ele>240.0</ele><time>2026-05-01T11:02:10.152Z</time></trkpt><trkpt lat="45.034415" lon="7.967205"><ele>240.0</ele><time>2026-05-01T11:02:11.152Z</time></trkpt><trkpt lat="45.0343067" lon="7.967315"><ele>240.0</ele><time>2026-05-01T11:02:12.153Z</time></trkpt><trkpt lat="45.0342" lon="7.96742"><ele>240.0</ele><time>2026-05-01T11:02:13.154Z</time></trkpt><trkpt lat="45.0340917" lon="7.9675217"><ele>239.5</ele><time>2026-05-01T11:02:14.152Z</time></trkpt><trkpt lat="45.0339783" lon="7.9676233"><ele>239.0</ele><time>2026-05-01T11:02:15.154Z</time></trkpt><trkpt lat="45.0338583" lon="7.967725"><ele>238.5</ele><time>2026-05-01T11:02:16.157Z</time></trkpt><trkpt lat="45.0337367" lon="7.9678317"><ele>238.0</ele><time>2026-05-01T11:02:17.153Z</time></trkpt><trkpt lat="45.03361" lon="7.9679217"><ele>238.0</ele><time>2026-05-01T11:02:18.155Z</time></trkpt><trkpt lat="45.0334767" lon="7.968005"><ele>238.0</ele><time>2026-05-01T11:02:19.153Z</time></trkpt><trkpt lat="45.0333433" lon="7.9680833"><ele>238.0</ele><time>2026-05-01T11:02:20.156Z</time></trkpt><trkpt lat="45.0332083" lon="7.9681583"><ele>238.0</ele><time>2026-05-01T11:02:21.152Z</time></trkpt><trkpt lat="45.0330767" lon="7.9682217"><ele>236.75</ele><time>2026-05-01T11:02:22.155Z</time></trkpt><trkpt lat="45.0329517" lon="7.9682667"><ele>235.5</ele><time>2026-05-01T11:02:23.154Z</time></trkpt><trkpt lat="45.0328333" lon="7.968285"><ele>234.25</ele><time>2026-05-01T11:02:24.154Z</time></trkpt><trkpt lat="45.0327217" lon="7.96827"><ele>233.0</ele><time>2026-05-01T11:02:25.151Z</time></trkpt><trkpt lat="45.03261" lon="7.9682383"><ele>233.0</ele><time>2026-05-01T11:02:26.153Z</time></trkpt><trkpt lat="45.0325" lon="7.9682267"><ele>233.0</ele><time>2026-05-01T11:02:27.151Z</time></trkpt><trkpt lat="45.032385" lon="7.9682467"><ele>233.0</ele><time>2026-05-01T11:02:28.151Z</time></trkpt><trkpt lat="45.03227" lon="7.9682733"><ele>233.0</ele><time>2026-05-01T11:02:29.155Z</time></trkpt><trkpt lat="45.03215" lon="7.9682767"><ele>232.5</ele><time>2026-05-01T11:02:30.157Z</time></trkpt><trkpt lat="45.0320267" lon="7.9682533"><ele>232.0</ele><time>2026-05-01T11:02:31.151Z</time></trkpt><trkpt lat="45.0318967" lon="7.968215"><ele>231.5</ele><time>2026-05-01T11:02:32.162Z</time></trkpt><trkpt lat="45.031765" lon="7.9681633"><ele>231.0</ele><time>2026-05-01T11:02:33.151Z</time></trkpt><trkpt lat="45.03163" lon="7.96811"><ele>231.0</ele><time>2026-05-01T11:02:34.154Z</time></trkpt><trkpt lat="45.0314933" lon="7.968055"><ele>231.0</ele><time>2026-05-01T11:02:35.151Z</time></trkpt><trkpt lat="45.0313533" lon="7.9679967"><ele>231.0</ele><time>2026-05-01T11:02:36.152Z</time></trkpt><trkpt lat="45.0312117" lon="7.9679383"><ele>231.0</ele><time>2026-05-01T11:02:37.155Z</time></trkpt><trkpt lat="45.0310683" lon="7.9678833"><ele>231.0</ele><time>2026-05-01T11:02:38.154Z</time></trkpt><trkpt lat="45.0309233" lon="7.9678233"><ele>231.0</ele><time>2026-05-01T11:02:39.155Z</time></trkpt><trkpt lat="45.0307817" lon="7.9677667"><ele>231.0</ele><time>2026-05-01T11:02:40.157Z</time></trkpt><trkpt lat="45.03064" lon="7.9677133"><ele>231.0</ele><time>2026-05-01T11:02:41.158Z</time></trkpt><trkpt lat="45.0305017" lon="7.96766"><ele>231.5</ele><time>2026-05-01T11:02:42.158Z</time></trkpt><trkpt lat="45.0303633" lon="7.9676033"><ele>232.0</ele><time>2026-05-01T11:02:43.153Z</time></trkpt><trkpt lat="45.0302233" lon="7.9675483"><ele>232.5</ele><time>2026-05-01T11:02:44.153Z</time></trkpt><trkpt lat="45.03009" lon="7.9675017"><ele>233.0</ele><time>2026-05-01T11:02:45.153Z</time></trkpt><trkpt lat="45.0299617" lon="7.9674583"><ele>233.0</ele><time>2026-05-01T11:02:46.156Z</time></trkpt><trkpt lat="45.0298367" lon="7.967425"><ele>233.0</ele><time>2026-05-01T11:02:47.153Z</time></trkpt><trkpt lat="45.029715" lon="7.9674033"><ele>233.0</ele><time>2026-05-01T11:02:48.153Z</time></trkpt><trkpt lat="45.0296033" lon="7.9673917"><ele>233.0</ele><time>2026-05-01T11:02:49.154Z</time></trkpt><trkpt lat="45.0295017" lon="7.967375"><ele>233.00000000000003</ele><time>2026-05-01T11:02:50.151Z</time></trkpt><trkpt lat="45.029415" lon="7.9673417"><ele>233.0</ele><time>2026-05-01T11:02:51.152Z</time></trkpt><trkpt lat="45.0293367" lon="7.9672917"><ele>233.0</ele><time>2026-05-01T11:02:52.154Z</time></trkpt><trkpt lat="45.0292617" lon="7.9672467"><ele>233.0</ele><time>2026-05-01T11:02:53.152Z</time></trkpt><trkpt lat="45.0291783" lon="7.9672217"><ele>233.00000000000003</ele><time>2026-05-01T11:02:54.15Z</time></trkpt><trkpt lat="45.0291017" lon="7.9672333"><ele>233.0</ele><time>2026-05-01T11:02:55.154Z</time></trkpt><trkpt lat="45.0290417" lon="7.967285"><ele>232.16666666666669</ele><time>2026-05-01T11:02:56.155Z</time></trkpt><trkpt lat="45.029005" lon="7.96737"><ele>231.33333333333334</ele><time>2026-05-01T11:02:57.152Z</time></trkpt><trkpt lat="45.02897" lon="7.9674683"><ele>230.5</ele><time>2026-05-01T11:02:58.153Z</time></trkpt><trkpt lat="45.0289333" lon="7.9675983"><ele>229.66666666666669</ele><time>2026-05-01T11:02:59.154Z</time></trkpt><trkpt lat="45.0288817" lon="7.9677117"><ele>228.83333333333334</ele><time>2026-05-01T11:03:00.157Z</time></trkpt><trkpt lat="45.02882" lon="7.9678017"><ele>228.0</ele><time>2026-05-01T11:03:01.159Z</time></trkpt><trkpt lat="45.0287417" lon="7.96787"><ele>228.0</ele><time>2026-05-01T11:03:02.15Z</time></trkpt><trkpt lat="45.0286383" lon="7.9679"><ele>228.0</ele><time>2026-05-01T11:03:03.154Z</time></trkpt><trkpt lat="45.0285317" lon="7.96794"><ele>228.0</ele><time>2026-05-01T11:03:04.152Z</time></trkpt><trkpt lat="45.028425" lon="7.9679833"><ele>228.0</ele><time>2026-05-01T11:03:05.157Z</time></trkpt><trkpt lat="45.0283083" lon="7.9680267"><ele>228.0</ele><time>2026-05-01T11:03:06.155Z</time></trkpt><trkpt lat="45.02819" lon="7.9680717"><ele>228.0</ele><time>2026-05-01T11:03:07.156Z</time></trkpt><trkpt lat="45.0280667" lon="7.9681217"><ele>228.0</ele><time>2026-05-01T11:03:08.155Z</time></trkpt><trkpt lat="45.0279367" lon="7.9681717"><ele>228.0</ele><time>2026-05-01T11:03:09.153Z</time></trkpt><trkpt lat="45.0278017" lon="7.9682233"><ele>228.0</ele><time>2026-05-01T11:03:10.153Z</time></trkpt><trkpt lat="45.0276617" lon="7.9682783"><ele>228.0</ele><time>2026-05-01T11:03:11.157Z</time></trkpt><trkpt lat="45.0275117" lon="7.9683383"><ele>228.0</ele><time>2026-05-01T11:03:12.161Z</time></trkpt><trkpt lat="45.0273583" lon="7.9684017"><ele>228.0</ele><time>2026-05-01T11:03:13.155Z</time></trkpt><trkpt lat="45.0271983" lon="7.9684683"><ele>229.66666666666669</ele><time>2026-05-01T11:03:14.154Z</time></trkpt><trkpt lat="45.0270367" lon="7.9685317"><ele>231.33333333333334</ele><time>2026-05-01T11:03:15.151Z</time></trkpt><trkpt lat="45.0268767" lon="7.968595"><ele>233.0</ele><time>2026-05-01T11:03:16.154Z</time></trkpt><trkpt lat="45.0267167" lon="7.9686533"><ele>232.66666666666669</ele><time>2026-05-01T11:03:17.152Z</time></trkpt><trkpt lat="45.0265567" lon="7.9687133"><ele>232.33333333333331</ele><time>2026-05-01T11:03:18.152Z</time></trkpt><trkpt lat="45.0263967" lon="7.968775"><ele>232.0</ele><time>2026-05-01T11:03:19.161Z</time></trkpt><trkpt lat="45.0262333" lon="7.9688417"><ele>232.0</ele><time>2026-05-01T11:03:20.157Z</time></trkpt><trkpt lat="45.0260667" lon="7.968905"><ele>232.0</ele><time>2026-05-01T11:03:21.154Z</time></trkpt><trkpt lat="45.0258967" lon="7.968965"><ele>232.0</ele><time>2026-05-01T11:03:22.155Z</time></trkpt><trkpt lat="45.0257217" lon="7.96902"><ele>229.66666666666666</ele><time>2026-05-01T11:03:23.154Z</time></trkpt><trkpt lat="45.025545" lon="7.9690733"><ele>227.33333333333331</ele><time>2026-05-01T11:03:24.153Z</time></trkpt><trkpt lat="45.0253683" lon="7.9691267"><ele>225.0</ele><time>2026-05-01T11:03:25.156Z</time></trkpt><trkpt lat="45.025195" lon="7.9691767"><ele>227.33333333333331</ele><time>2026-05-01T11:03:26.158Z</time></trkpt><trkpt lat="45.0250183" lon="7.9692183"><ele>229.66666666666666</ele><time>2026-05-01T11:03:27.154Z</time></trkpt><trkpt lat="45.02484" lon="7.96926"><ele>232.0</ele><time>2026-05-01T11:03:28.152Z</time></trkpt><trkpt lat="45.024665" lon="7.9693033"><ele>232.66666666666666</ele><time>2026-05-01T11:03:29.153Z</time></trkpt><trkpt lat="45.0244917" lon="7.96935"><ele>233.33333333333331</ele><time>2026-05-01T11:03:30.152Z</time></trkpt><trkpt lat="45.0242967" lon="7.9694133"><ele>234.0</ele><time>2026-05-01T11:03:31.153Z</time></trkpt><trkpt lat="45.0241167" lon="7.969495"><ele>231.33333333333331</ele><time>2026-05-01T11:03:32.156Z</time></trkpt><trkpt lat="45.0239367" lon="7.9696033"><ele>228.66666666666666</ele><time>2026-05-01T11:03:33.152Z</time></trkpt><trkpt lat="45.0237617" lon="7.96972"><ele>226.0</ele><time>2026-05-01T11:03:34.153Z</time></trkpt><trkpt lat="45.0236" lon="7.9698517"><ele>226.0</ele><time>2026-05-01T11:03:35.154Z</time></trkpt><trkpt lat="45.0234483" lon="7.9700083"><ele>226.0</ele><time>2026-05-01T11:03:36.154Z</time></trkpt><trkpt lat="45.0233017" lon="7.97018"><ele>226.0</ele><time>2026-05-01T11:03:37.155Z</time></trkpt><trkpt lat="45.0231683" lon="7.9703533"><ele>226.33333333333331</ele><time>2026-05-01T11:03:38.154Z</time></trkpt><trkpt lat="45.023045" lon="7.9705383"><ele>226.66666666666669</ele><time>2026-05-01T11:03:39.154Z</time></trkpt><trkpt lat="45.0229317" lon="7.97073"><ele>227.0</ele><time>2026-05-01T11:03:40.156Z</time></trkpt><trkpt lat="45.0228267" lon="7.970925"><ele>227.0</ele><time>2026-05-01T11:03:41.151Z</time></trkpt><trkpt lat="45.0227217" lon="7.9711283"><ele>227.0</ele><time>2026-05-01T11:03:42.152Z</time></trkpt><trkpt lat="45.0226117" lon="7.9713383"><ele>227.0</ele><time>2026-05-01T11:03:43.153Z</time></trkpt><trkpt lat="45.0225017" lon="7.9715533"><ele>225.66666666666669</ele><time>2026-05-01T11:03:44.158Z</time></trkpt><trkpt lat="45.0223933" lon="7.9717733"><ele>224.33333333333331</ele><time>2026-05-01T11:03:45.15Z</time></trkpt><trkpt lat="45.0222917" lon="7.9719983"><ele>223.0</ele><time>2026-05-01T11:03:46.156Z</time></trkpt><trkpt lat="45.022185" lon="7.9722217"><ele>223.0</ele><time>2026-05-01T11:03:47.153Z</time></trkpt><trkpt lat="45.022075" lon="7.972445"><ele>223.0</ele><time>2026-05-01T11:03:48.158Z</time></trkpt><trkpt lat="45.02196" lon="7.972675"><ele>223.0</ele><time>2026-05-01T11:03:49.16Z</time></trkpt><trkpt lat="45.02184" lon="7.972905"><ele>221.66666666666666</ele><time>2026-05-01T11:03:50.157Z</time></trkpt><trkpt lat="45.0217183" lon="7.973135"><ele>220.33333333333331</ele><time>2026-05-01T11:03:51.152Z</time></trkpt><trkpt lat="45.0216" lon="7.9733617"><ele>219.0</ele><time>2026-05-01T11:03:52.152Z</time></trkpt><trkpt lat="45.0214783" lon="7.9735867"><ele>219.0</ele><time>2026-05-01T11:03:53.153Z</time></trkpt><trkpt lat="45.021355" lon="7.9738133"><ele>219.0</ele><time>2026-05-01T11:03:54.156Z</time></trkpt><trkpt lat="45.02123" lon="7.9740333"><ele>219.0</ele><time>2026-05-01T11:03:55.152Z</time></trkpt><trkpt lat="45.0210983" lon="7.9742517"><ele>219.33333333333331</ele><time>2026-05-01T11:03:56.152Z</time></trkpt><trkpt lat="45.0209567" lon="7.9744533"><ele>219.66666666666666</ele><time>2026-05-01T11:03:57.155Z</time></trkpt><trkpt lat="45.020805" lon="7.97464"><ele>220.0</ele><time>2026-05-01T11:03:58.149Z</time></trkpt><trkpt lat="45.0206467" lon="7.974815"><ele>220.0</ele><time>2026-05-01T11:03:59.151Z</time></trkpt><trkpt lat="45.0204833" lon="7.9749817"><ele>220.0</ele><time>2026-05-01T11:04:00.154Z</time></trkpt><trkpt lat="45.0203183" lon="7.97514"><ele>220.0</ele><time>2026-05-01T11:04:01.151Z</time></trkpt><trkpt lat="45.0201533" lon="7.975305"><ele>220.0</ele><time>2026-05-01T11:04:02.154Z</time></trkpt><trkpt lat="45.019985" lon="7.97547"><ele>220.0</ele><time>2026-05-01T11:04:03.157Z</time></trkpt><trkpt lat="45.0198117" lon="7.9756383"><ele>220.0</ele><time>2026-05-01T11:04:04.153Z</time></trkpt><trkpt lat="45.0196333" lon="7.9758017"><ele>220.33333333333331</ele><time>2026-05-01T11:04:05.155Z</time></trkpt><trkpt lat="45.0194517" lon="7.9759667"><ele>220.66666666666669</ele><time>2026-05-01T11:04:06.154Z</time></trkpt><trkpt lat="45.0192717" lon="7.9761317"><ele>221.0</ele><time>2026-05-01T11:04:07.157Z</time></trkpt><trkpt lat="45.01909" lon="7.976295"><ele>221.0</ele><time>2026-05-01T11:04:08.152Z</time></trkpt><trkpt lat="45.0189117" lon="7.9764583"><ele>221.0</ele><time>2026-05-01T11:04:09.153Z</time></trkpt><trkpt lat="45.0187317" lon="7.9766217"><ele>221.0</ele><time>2026-05-01T11:04:10.153Z</time></trkpt><trkpt lat="45.0185583" lon="7.9767833"><ele>222.0</ele><time>2026-05-01T11:04:11.156Z</time></trkpt><trkpt lat="45.01839" lon="7.9769433"><ele>223.0</ele><time>2026-05-01T11:04:12.151Z</time></trkpt><trkpt lat="45.0182233" lon="7.9771"><ele>224.0</ele><time>2026-05-01T11:04:13.15Z</time></trkpt><trkpt lat="45.0180583" lon="7.9772567"><ele>224.0</ele><time>2026-05-01T11:04:14.152Z</time></trkpt><trkpt lat="45.0178967" lon="7.9774167"><ele>224.0</ele><time>2026-05-01T11:04:15.15Z</time></trkpt><trkpt lat="45.0177367" lon="7.977575"><ele>224.0</ele><time>2026-05-01T11:04:16.154Z</time></trkpt><trkpt lat="45.0175817" lon="7.9777367"><ele>222.66666666666669</ele><time>2026-05-01T11:04:17.153Z</time></trkpt><trkpt lat="45.0174317" lon="7.9779"><ele>221.33333333333331</ele><time>2026-05-01T11:04:18.157Z</time></trkpt><trkpt lat="45.01729" lon="7.9780717"><ele>220.0</ele><time>2026-05-01T11:04:19.153Z</time></trkpt><trkpt lat="45.0171467" lon="7.9782383"><ele>220.0</ele><time>2026-05-01T11:04:20.152Z</time></trkpt><trkpt lat="45.0170067" lon="7.9784083"><ele>220.0</ele><time>2026-05-01T11:04:21.154Z</time></trkpt><trkpt lat="45.0168667" lon="7.97858"><ele>220.0</ele><time>2026-05-01T11:04:22.152Z</time></trkpt><trkpt lat="45.0167267" lon="7.9787517"><ele>219.0</ele><time>2026-05-01T11:04:23.156Z</time></trkpt><trkpt lat="45.0165917" lon="7.97893"><ele>218.0</ele><time>2026-05-01T11:04:24.152Z</time></trkpt><trkpt lat="45.0164567" lon="7.97911"><ele>217.0</ele><time>2026-05-01T11:04:25.158Z</time></trkpt><trkpt lat="45.0163167" lon="7.9792867"><ele>217.0</ele><time>2026-05-01T11:04:26.16Z</time></trkpt><trkpt lat="45.0161783" lon="7.9794667"><ele>217.0</ele><time>2026-05-01T11:04:27.159Z</time></trkpt><trkpt lat="45.01604" lon="7.9796433"><ele>217.0</ele><time>2026-05-01T11:04:28.153Z</time></trkpt><trkpt lat="45.0159" lon="7.97982"><ele>216.66666666666666</ele><time>2026-05-01T11:04:29.154Z</time></trkpt><trkpt lat="45.0157633" lon="7.9799967"><ele>216.33333333333331</ele><time>2026-05-01T11:04:30.153Z</time></trkpt><trkpt lat="45.0156233" lon="7.9801733"><ele>216.0</ele><time>2026-05-01T11:04:31.157Z</time></trkpt><trkpt lat="45.0154833" lon="7.9803517"><ele>216.0</ele><time>2026-05-01T11:04:32.152Z</time></trkpt><trkpt lat="45.01534" lon="7.98053"><ele>216.0</ele><time>2026-05-01T11:04:33.151Z</time></trkpt><trkpt lat="45.0152017" lon="7.9807067"><ele>216.0</ele><time>2026-05-01T11:04:34.152Z</time></trkpt><trkpt lat="45.0150617" lon="7.9808817"><ele>216.0</ele><time>2026-05-01T11:04:35.152Z</time></trkpt><trkpt lat="45.0149217" lon="7.9810567"><ele>216.0</ele><time>2026-05-01T11:04:36.153Z</time></trkpt><trkpt lat="45.0147817" lon="7.98123"><ele>216.0</ele><time>2026-05-01T11:04:37.153Z</time></trkpt><trkpt lat="45.0146417" lon="7.9814"><ele>216.0</ele><time>2026-05-01T11:04:38.151Z</time></trkpt><trkpt lat="45.0145033" lon="7.981575"><ele>216.0</ele><time>2026-05-01T11:04:39.15Z</time></trkpt><trkpt lat="45.0143633" lon="7.9817467"><ele>216.0</ele><time>2026-05-01T11:04:40.153Z</time></trkpt><trkpt lat="45.01423" lon="7.981915"><ele>216.0</ele><time>2026-05-01T11:04:41.149Z</time></trkpt><trkpt lat="45.0140933" lon="7.982085"><ele>216.0</ele><time>2026-05-01T11:04:42.159Z</time></trkpt><trkpt lat="45.0139533" lon="7.9822567"><ele>216.0</ele><time>2026-05-01T11:04:43.155Z</time></trkpt><trkpt lat="45.0138183" lon="7.982425"><ele>217.33333333333331</ele><time>2026-05-01T11:04:44.151Z</time></trkpt><trkpt lat="45.0136817" lon="7.9825917"><ele>218.66666666666666</ele><time>2026-05-01T11:04:45.155Z</time></trkpt><trkpt lat="45.0135517" lon="7.9827483"><ele>220.0</ele><time>2026-05-01T11:04:46.153Z</time></trkpt><trkpt lat="45.0134283" lon="7.9828983"><ele>218.33333333333331</ele><time>2026-05-01T11:04:47.154Z</time></trkpt><trkpt lat="45.0133083" lon="7.983045"><ele>216.66666666666669</ele><time>2026-05-01T11:04:48.158Z</time></trkpt><trkpt lat="45.0131967" lon="7.9831867"><ele>215.0</ele><time>2026-05-01T11:04:49.154Z</time></trkpt><trkpt lat="45.0130883" lon="7.9833233"><ele>216.0</ele><time>2026-05-01T11:04:50.154Z</time></trkpt><trkpt lat="45.01299" lon="7.9834583"><ele>217.0</ele><time>2026-05-01T11:04:51.152Z</time></trkpt><trkpt lat="45.012895" lon="7.9835883"><ele>218.0</ele><time>2026-05-01T11:04:52.153Z</time></trkpt><trkpt lat="45.0127917" lon="7.9837167"><ele>219.0</ele><time>2026-05-01T11:04:53.155Z</time></trkpt><trkpt lat="45.0126933" lon="7.9838367"><ele>219.0</ele><time>2026-05-01T11:04:54.152Z</time></trkpt><trkpt lat="45.0126033" lon="7.983945"><ele>218.99999999999997</ele><time>2026-05-01T11:04:55.15Z</time></trkpt><trkpt lat="45.0125233" lon="7.9840467"><ele>218.99999999999997</ele><time>2026-05-01T11:04:56.154Z</time></trkpt><trkpt lat="45.0124483" lon="7.984135"><ele>219.0</ele><time>2026-05-01T11:04:57.151Z</time></trkpt><trkpt lat="45.0123767" lon="7.9842217"><ele>219.0</ele><time>2026-05-01T11:04:58.154Z</time></trkpt><trkpt lat="45.0123033" lon="7.9843117"><ele>218.2</ele><time>2026-05-01T11:04:59.152Z</time></trkpt><trkpt lat="45.01223" lon="7.9844067"><ele>217.39999999999998</ele><time>2026-05-01T11:05:00.15Z</time></trkpt><trkpt lat="45.0121583" lon="7.984505"><ele>216.6</ele><time>2026-05-01T11:05:01.152Z</time></trkpt><trkpt lat="45.0120883" lon="7.984605"><ele>215.8</ele><time>2026-05-01T11:05:02.153Z</time></trkpt><trkpt lat="45.012015" lon="7.9847083"><ele>215.0</ele><time>2026-05-01T11:05:03.151Z</time></trkpt><trkpt lat="45.0119367" lon="7.984815"><ele>215.0</ele><time>2026-05-01T11:05:04.153Z</time></trkpt><trkpt lat="45.011855" lon="7.9849317"><ele>215.0</ele><time>2026-05-01T11:05:05.158Z</time></trkpt><trkpt lat="45.0117683" lon="7.9850533"><ele>215.0</ele><time>2026-05-01T11:05:06.153Z</time></trkpt><trkpt lat="45.01168" lon="7.9851767"><ele>215.0</ele><time>2026-05-01T11:05:07.155Z</time></trkpt><trkpt lat="45.0115817" lon="7.985305"><ele>215.0</ele><time>2026-05-01T11:05:08.156Z</time></trkpt><trkpt lat="45.0114783" lon="7.98544"><ele>215.0</ele><time>2026-05-01T11:05:09.153Z</time></trkpt><trkpt lat="45.0113733" lon="7.9855817"><ele>215.0</ele><time>2026-05-01T11:05:10.153Z</time></trkpt><trkpt lat="45.0112717" lon="7.9857217"><ele>215.0</ele><time>2026-05-01T11:05:11.157Z</time></trkpt><trkpt lat="45.0111667" lon="7.9858517"><ele>215.0</ele><time>2026-05-01T11:05:12.152Z</time></trkpt><trkpt lat="45.0110533" lon="7.985975"><ele>215.0</ele><time>2026-05-01T11:05:13.155Z</time></trkpt><trkpt lat="45.01094" lon="7.9860783"><ele>215.0</ele><time>2026-05-01T11:05:14.152Z</time></trkpt><trkpt lat="45.0108267" lon="7.9861617"><ele>215.0</ele><time>2026-05-01T11:05:15.151Z</time></trkpt><trkpt lat="45.0106983" lon="7.9862317"><ele>215.0</ele><time>2026-05-01T11:05:16.153Z</time></trkpt><trkpt lat="45.0105533" lon="7.986285"><ele>215.0</ele><time>2026-05-01T11:05:17.156Z</time></trkpt><trkpt lat="45.0103983" lon="7.9863167"><ele>215.0</ele><time>2026-05-01T11:05:18.155Z</time></trkpt><trkpt lat="45.0102283" lon="7.986315"><ele>215.0</ele><time>2026-05-01T11:05:19.155Z</time></trkpt><trkpt lat="45.01005" lon="7.9862867"><ele>215.0</ele><time>2026-05-01T11:05:20.158Z</time></trkpt><trkpt lat="45.0098683" lon="7.9862333"><ele>215.0</ele><time>2026-05-01T11:05:21.151Z</time></trkpt><trkpt lat="45.00969" lon="7.9861617"><ele>218.33333333333334</ele><time>2026-05-01T11:05:22.151Z</time></trkpt><trkpt lat="45.0095133" lon="7.9860933"><ele>221.66666666666669</ele><time>2026-05-01T11:05:23.157Z</time></trkpt><trkpt lat="45.00934" lon="7.9860317"><ele>225.0</ele><time>2026-05-01T11:05:24.156Z</time></trkpt><trkpt lat="45.00916" lon="7.9859867"><ele>225.66666666666669</ele><time>2026-05-01T11:05:25.156Z</time></trkpt><trkpt lat="45.0089783" lon="7.9859733"><ele>226.33333333333334</ele><time>2026-05-01T11:05:26.154Z</time></trkpt><trkpt lat="45.0087917" lon="7.9859917"><ele>227.0</ele><time>2026-05-01T11:05:27.151Z</time></trkpt><trkpt lat="45.0086033" lon="7.986025"><ele>227.0</ele><time>2026-05-01T11:05:28.153Z</time></trkpt><trkpt lat="45.0084117" lon="7.9860667"><ele>227.0</ele><time>2026-05-01T11:05:29.158Z</time></trkpt><trkpt lat="45.00822" lon="7.986115"><ele>227.0</ele><time>2026-05-01T11:05:30.154Z</time></trkpt><trkpt lat="45.00803" lon="7.9861583"><ele>226.0</ele><time>2026-05-01T11:05:31.153Z</time></trkpt><trkpt lat="45.00784" lon="7.9861983"><ele>225.0</ele><time>2026-05-01T11:05:32.156Z</time></trkpt><trkpt lat="45.0076483" lon="7.9862333"><ele>224.0</ele><time>2026-05-01T11:05:33.152Z</time></trkpt><trkpt lat="45.0074583" lon="7.9862583"><ele>223.66666666666669</ele><time>2026-05-01T11:05:34.152Z</time></trkpt><trkpt lat="45.0072683" lon="7.9862833"><ele>223.33333333333331</ele><time>2026-05-01T11:05:35.158Z</time></trkpt><trkpt lat="45.0070767" lon="7.986305"><ele>223.0</ele><time>2026-05-01T11:05:36.156Z</time></trkpt><trkpt lat="45.0068867" lon="7.9863167"><ele>223.0</ele><time>2026-05-01T11:05:37.155Z</time></trkpt><trkpt lat="45.0066967" lon="7.9863467"><ele>223.0</ele><time>2026-05-01T11:05:38.152Z</time></trkpt><trkpt lat="45.0065067" lon="7.9863867"><ele>223.0</ele><time>2026-05-01T11:05:39.156Z</time></trkpt><trkpt lat="45.0063183" lon="7.986445"><ele>222.0</ele><time>2026-05-01T11:05:40.155Z</time></trkpt><trkpt lat="45.0061383" lon="7.9865167"><ele>221.0</ele><time>2026-05-01T11:05:41.154Z</time></trkpt><trkpt lat="45.005965" lon="7.986615"><ele>220.0</ele><time>2026-05-01T11:05:42.152Z</time></trkpt><trkpt lat="45.0057967" lon="7.986735"><ele>219.33333333333331</ele><time>2026-05-01T11:05:43.155Z</time></trkpt><trkpt lat="45.00564" lon="7.9868767"><ele>218.66666666666669</ele><time>2026-05-01T11:05:44.155Z</time></trkpt><trkpt lat="45.0054817" lon="7.98701"><ele>218.0</ele><time>2026-05-01T11:05:45.154Z</time></trkpt><trkpt lat="45.0053167" lon="7.98714"><ele>218.0</ele><time>2026-05-01T11:05:46.153Z</time></trkpt><trkpt lat="45.0051517" lon="7.987265"><ele>218.0</ele><time>2026-05-01T11:05:47.152Z</time></trkpt><trkpt lat="45.0049967" lon="7.9873917"><ele>218.0</ele><time>2026-05-01T11:05:48.151Z</time></trkpt><trkpt lat="45.00486" lon="7.9875317"><ele>215.0</ele><time>2026-05-01T11:05:49.154Z</time></trkpt><trkpt lat="45.0047433" lon="7.9876933"><ele>212.0</ele><time>2026-05-01T11:05:50.157Z</time></trkpt><trkpt lat="45.00464" lon="7.9878867"><ele>209.0</ele><time>2026-05-01T11:05:51.152Z</time></trkpt><trkpt lat="45.0045483" lon="7.9881"><ele>209.0</ele><time>2026-05-01T11:05:52.152Z</time></trkpt><trkpt lat="45.0044583" lon="7.9883233"><ele>209.0</ele><time>2026-05-01T11:05:53.152Z</time></trkpt><trkpt lat="45.004365" lon="7.9885517"><ele>209.0</ele><time>2026-05-01T11:05:54.155Z</time></trkpt><trkpt lat="45.00427" lon="7.9887817"><ele>211.0</ele><time>2026-05-01T11:05:55.16Z</time></trkpt><trkpt lat="45.0041733" lon="7.9890133"><ele>213.0</ele><time>2026-05-01T11:05:56.151Z</time></trkpt><trkpt lat="45.004075" lon="7.9892433"><ele>215.0</ele><time>2026-05-01T11:05:57.152Z</time></trkpt><trkpt lat="45.0039817" lon="7.9894717"><ele>215.0</ele><time>2026-05-01T11:05:58.153Z</time></trkpt><trkpt lat="45.0038917" lon="7.989695"><ele>215.0</ele><time>2026-05-01T11:05:59.158Z</time></trkpt><trkpt lat="45.0038083" lon="7.9899133"><ele>215.0</ele><time>2026-05-01T11:06:00.154Z</time></trkpt><trkpt lat="45.0037417" lon="7.9901317"><ele>217.0</ele><time>2026-05-01T11:06:01.16Z</time></trkpt><trkpt lat="45.0036867" lon="7.99036"><ele>219.0</ele><time>2026-05-01T11:06:02.154Z</time></trkpt><trkpt lat="45.0036583" lon="7.9906017"><ele>221.0</ele><time>2026-05-01T11:06:03.154Z</time></trkpt><trkpt lat="45.003645" lon="7.9908483"><ele>221.66666666666669</ele><time>2026-05-01T11:06:04.159Z</time></trkpt><trkpt lat="45.0036383" lon="7.9910933"><ele>222.33333333333331</ele><time>2026-05-01T11:06:05.154Z</time></trkpt><trkpt lat="45.003635" lon="7.99133"><ele>223.0</ele><time>2026-05-01T11:06:06.157Z</time></trkpt><trkpt lat="45.003635" lon="7.9915433"><ele>223.0</ele><time>2026-05-01T11:06:07.152Z</time></trkpt><trkpt lat="45.0036417" lon="7.9917267"><ele>223.0</ele><time>2026-05-01T11:06:08.152Z</time></trkpt><trkpt lat="45.0036783" lon="7.9918833"><ele>223.0</ele><time>2026-05-01T11:06:09.154Z</time></trkpt><trkpt lat="45.003745" lon="7.99201"><ele>223.0</ele><time>2026-05-01T11:06:10.151Z</time></trkpt><trkpt lat="45.0038433" lon="7.9921033"><ele>223.0</ele><time>2026-05-01T11:06:11.156Z</time></trkpt><trkpt lat="45.003955" lon="7.9921767"><ele>223.0</ele><time>2026-05-01T11:06:12.153Z</time></trkpt><trkpt lat="45.004065" lon="7.9922433"><ele>223.0</ele><time>2026-05-01T11:06:13.159Z</time></trkpt><trkpt lat="45.00415" lon="7.9923333"><ele>223.0</ele><time>2026-05-01T11:06:14.151Z</time></trkpt><trkpt lat="45.0042017" lon="7.9924583"><ele>225.4</ele><time>2026-05-01T11:06:15.152Z</time></trkpt><trkpt lat="45.0042383" lon="7.99259"><ele>227.8</ele><time>2026-05-01T11:06:16.152Z</time></trkpt><trkpt lat="45.0042233" lon="7.9927267"><ele>230.2</ele><time>2026-05-01T11:06:17.153Z</time></trkpt><trkpt lat="45.0042283" lon="7.99287"><ele>232.6</ele><time>2026-05-01T11:06:18.159Z</time></trkpt><trkpt lat="45.0042567" lon="7.9930083"><ele>235.0</ele><time>2026-05-01T11:06:19.152Z</time></trkpt><trkpt lat="45.0043117" lon="7.9931433"><ele>235.0</ele><time>2026-05-01T11:06:20.156Z</time></trkpt><trkpt lat="45.0043867" lon="7.9932783"><ele>235.0</ele><time>2026-05-01T11:06:21.153Z</time></trkpt><trkpt lat="45.0044617" lon="7.993415"><ele>235.0</ele><time>2026-05-01T11:06:22.153Z</time></trkpt><trkpt lat="45.0045233" lon="7.9935633"><ele>235.0</ele><time>2026-05-01T11:06:23.153Z</time></trkpt><trkpt lat="45.0045517" lon="7.9937283"><ele>236.25</ele><time>2026-05-01T11:06:24.158Z</time></trkpt><trkpt lat="45.00455" lon="7.9938967"><ele>237.5</ele><time>2026-05-01T11:06:25.162Z</time></trkpt><trkpt lat="45.0045233" lon="7.9940767"><ele>238.75</ele><time>2026-05-01T11:06:26.161Z</time></trkpt><trkpt lat="45.0045017" lon="7.99427"><ele>240.0</ele><time>2026-05-01T11:06:27.154Z</time></trkpt><trkpt lat="45.0044933" lon="7.9944783"><ele>241.75</ele><time>2026-05-01T11:06:28.155Z</time></trkpt><trkpt lat="45.00449" lon="7.994695"><ele>243.5</ele><time>2026-05-01T11:06:29.158Z</time></trkpt><trkpt lat="45.00449" lon="7.9949133"><ele>245.25</ele><time>2026-05-01T11:06:30.154Z</time></trkpt><trkpt lat="45.0044817" lon="7.9951133"><ele>247.0</ele><time>2026-05-01T11:06:31.155Z</time></trkpt><trkpt lat="45.004455" lon="7.995285"><ele>247.5</ele><time>2026-05-01T11:06:32.153Z</time></trkpt><trkpt lat="45.00441" lon="7.9954117"><ele>248.0</ele><time>2026-05-01T11:06:33.156Z</time></trkpt><trkpt lat="45.0043183" lon="7.9955033"><ele>248.5</ele><time>2026-05-01T11:06:34.155Z</time></trkpt><trkpt lat="45.0041967" lon="7.9955183"><ele>249.0</ele><time>2026-05-01T11:06:35.153Z</time></trkpt><trkpt lat="45.00406" lon="7.99552"><ele>249.0</ele><time>2026-05-01T11:06:36.152Z</time></trkpt><trkpt lat="45.0039183" lon="7.995535"><ele>249.0</ele><time>2026-05-01T11:06:37.155Z</time></trkpt><trkpt lat="45.0037767" lon="7.9955683"><ele>249.0</ele><time>2026-05-01T11:06:38.153Z</time></trkpt><trkpt lat="45.0036567" lon="7.9956567"><ele>249.0</ele><time>2026-05-01T11:06:39.157Z</time></trkpt><trkpt lat="45.0035533" lon="7.99579"><ele>251.25</ele><time>2026-05-01T11:06:40.154Z</time></trkpt><trkpt lat="45.0034583" lon="7.9959417"><ele>253.5</ele><time>2026-05-01T11:06:41.154Z</time></trkpt><trkpt lat="45.003365" lon="7.9961017"><ele>255.75</ele><time>2026-05-01T11:06:42.152Z</time></trkpt><trkpt lat="45.003285" lon="7.996255"><ele>258.0</ele><time>2026-05-01T11:06:43.156Z</time></trkpt><trkpt lat="45.0032133" lon="7.9963933"><ele>258.5</ele><time>2026-05-01T11:06:44.154Z</time></trkpt><trkpt lat="45.0031567" lon="7.99652"><ele>259.0</ele><time>2026-05-01T11:06:45.153Z</time></trkpt><trkpt lat="45.0031267" lon="7.9966383"><ele>259.5</ele><time>2026-05-01T11:06:46.152Z</time></trkpt><trkpt lat="45.0031133" lon="7.9967567"><ele>260.0</ele><time>2026-05-01T11:06:47.156Z</time></trkpt><trkpt lat="45.003105" lon="7.9968733"><ele>260.5</ele><time>2026-05-01T11:06:48.15Z</time></trkpt><trkpt lat="45.0031267" lon="7.996965"><ele>261.0</ele><time>2026-05-01T11:06:49.156Z</time></trkpt><trkpt lat="45.0032267" lon="7.9970017"><ele>259.25</ele><time>2026-05-01T11:06:50.156Z</time></trkpt><trkpt lat="45.0033233" lon="7.9970767"><ele>257.5</ele><time>2026-05-01T11:06:51.151Z</time></trkpt><trkpt lat="45.0034717" lon="7.9971483"><ele>255.75</ele><time>2026-05-01T11:06:52.154Z</time></trkpt><trkpt lat="45.0036017" lon="7.9972533"><ele>254.0</ele><time>2026-05-01T11:06:53.155Z</time></trkpt><trkpt lat="45.0037067" lon="7.9973683"><ele>253.2</ele><time>2026-05-01T11:06:54.153Z</time></trkpt><trkpt lat="45.003795" lon="7.9974783"><ele>252.39999999999998</ele><time>2026-05-01T11:06:55.153Z</time></trkpt><trkpt lat="45.0038767" lon="7.9975817"><ele>251.6</ele><time>2026-05-01T11:06:56.155Z</time></trkpt><trkpt lat="45.0039483" lon="7.9976833"><ele>250.8</ele><time>2026-05-01T11:06:57.15Z</time></trkpt><trkpt lat="45.0040183" lon="7.99778"><ele>250.0</ele><time>2026-05-01T11:06:58.151Z</time></trkpt><trkpt lat="45.0040733" lon="7.9978733"><ele>250.42857142857142</ele><time>2026-05-01T11:06:59.15Z</time></trkpt><trkpt lat="45.004125" lon="7.997955"><ele>250.8571428571429</ele><time>2026-05-01T11:07:00.155Z</time></trkpt><trkpt lat="45.00417" lon="7.998025"><ele>251.2857142857143</ele><time>2026-05-01T11:07:01.159Z</time></trkpt><trkpt lat="45.0042433" lon="7.998085"><ele>251.71428571428572</ele><time>2026-05-01T11:07:03.152Z</time></trkpt><trkpt lat="45.0042833" lon="7.9980017"><ele>252.14285714285717</ele><time>2026-05-01T11:07:06.154Z</time></trkpt><trkpt lat="45.0042783" lon="7.997895"><ele>252.5714285714286</ele><time>2026-05-01T11:08:44.15Z</time></trkpt><trkpt lat="45.0042517" lon="7.9978117"><ele>253.00000000000003</ele><time>2026-05-01T11:08:46.153Z</time></trkpt><trkpt lat="45.004195" lon="7.9977583"><ele>252.49999999999997</ele><time>2026-05-01T11:08:48.154Z</time></trkpt><trkpt lat="45.0041283" lon="7.9977217"><ele>252.0</ele><time>2026-05-01T11:08:50.156Z</time></trkpt><trkpt lat="45.00404" lon="7.9976517"><ele>251.5</ele><time>2026-05-01T11:08:52.154Z</time></trkpt><trkpt lat="45.003985" lon="7.997595"><ele>251.0</ele><time>2026-05-01T11:08:53.154Z</time></trkpt><trkpt lat="45.0039217" lon="7.9975133"><ele>250.49999999999997</ele><time>2026-05-01T11:08:54.154Z</time></trkpt><trkpt lat="45.003855" lon="7.9974067"><ele>250.0</ele><time>2026-05-01T11:08:55.153Z</time></trkpt><trkpt lat="45.0037867" lon="7.9972967"><ele>250.0</ele><time>2026-05-01T11:08:56.155Z</time></trkpt><trkpt lat="45.0037133" lon="7.9971867"><ele>250.0</ele><time>2026-05-01T11:08:57.158Z</time></trkpt><trkpt lat="45.0036367" lon="7.99709"><ele>250.0</ele><time>2026-05-01T11:08:58.154Z</time></trkpt><trkpt lat="45.00355" lon="7.9970083"><ele>250.0</ele><time>2026-05-01T11:08:59.152Z</time></trkpt><trkpt lat="45.003465" lon="7.9969317"><ele>250.0</ele><time>2026-05-01T11:09:00.151Z</time></trkpt><trkpt lat="45.0033817" lon="7.9968767"><ele>250.66666666666666</ele><time>2026-05-01T11:09:01.155Z</time></trkpt><trkpt lat="45.0033067" lon="7.99683"><ele>251.33333333333331</ele><time>2026-05-01T11:09:02.154Z</time></trkpt><trkpt lat="45.0032417" lon="7.9967883"><ele>252.0</ele><time>2026-05-01T11:09:03.149Z</time></trkpt><trkpt lat="45.003165" lon="7.9967283"><ele>252.66666666666669</ele><time>2026-05-01T11:09:05.155Z</time></trkpt><trkpt lat="45.0030767" lon="7.9967233"><ele>253.33333333333334</ele><time>2026-05-01T11:09:07.156Z</time></trkpt><trkpt lat="45.00297" lon="7.996745"><ele>254.0</ele><time>2026-05-01T11:09:09.151Z</time></trkpt><trkpt lat="45.0028917" lon="7.9967433"><ele>254.0</ele><time>2026-05-01T11:09:10.152Z</time></trkpt><trkpt lat="45.0028" lon="7.99674"><ele>253.99999999999997</ele><time>2026-05-01T11:09:11.158Z</time></trkpt><trkpt lat="45.0027067" lon="7.99674"><ele>253.99999999999997</ele><time>2026-05-01T11:09:12.151Z</time></trkpt><trkpt lat="45.00261" lon="7.99673"><ele>254.0</ele><time>2026-05-01T11:09:13.156Z</time></trkpt><trkpt lat="45.0025217" lon="7.996715"><ele>254.0</ele><time>2026-05-01T11:09:14.155Z</time></trkpt><trkpt lat="45.0024383" lon="7.9966917"><ele>255.16666666666669</ele><time>2026-05-01T11:09:15.151Z</time></trkpt><trkpt lat="45.0023633" lon="7.9966633"><ele>256.33333333333337</ele><time>2026-05-01T11:09:16.155Z</time></trkpt><trkpt lat="45.0022967" lon="7.9966183"><ele>257.5</ele><time>2026-05-01T11:09:17.156Z</time></trkpt><trkpt lat="45.0022383" lon="7.996455"><ele>258.6666666666667</ele><time>2026-05-01T11:09:19.152Z</time></trkpt><trkpt lat="45.0022067" lon="7.9963617"><ele>259.8333333333333</ele><time>2026-05-01T11:09:20.15Z</time></trkpt><trkpt lat="45.0021867" lon="7.9962483"><ele>261.0</ele><time>2026-05-01T11:09:21.154Z</time></trkpt><trkpt lat="45.0021517" lon="7.9961567"><ele>261.0</ele><time>2026-05-01T11:09:22.157Z</time></trkpt><trkpt lat="45.002105" lon="7.9960783"><ele>261.0</ele><time>2026-05-01T11:09:23.151Z</time></trkpt><trkpt lat="45.00205" lon="7.9960217"><ele>261.0</ele><time>2026-05-01T11:09:24.155Z</time></trkpt><trkpt lat="45.0019433" lon="7.9959317"><ele>261.0</ele><time>2026-05-01T11:09:26.152Z</time></trkpt><trkpt lat="45.0018683" lon="7.9959017"><ele>261.0</ele><time>2026-05-01T11:09:27.153Z</time></trkpt><trkpt lat="45.00178" lon="7.995875"><ele>261.0</ele><time>2026-05-01T11:09:28.154Z</time></trkpt><trkpt lat="45.0016933" lon="7.9958333"><ele>260.8</ele><time>2026-05-01T11:09:29.155Z</time></trkpt><trkpt lat="45.00161" lon="7.9957783"><ele>260.6</ele><time>2026-05-01T11:09:30.152Z</time></trkpt><trkpt lat="45.001525" lon="7.9957183"><ele>260.4</ele><time>2026-05-01T11:09:31.153Z</time></trkpt><trkpt lat="45.0014383" lon="7.99566"><ele>260.2</ele><time>2026-05-01T11:09:32.153Z</time></trkpt><trkpt lat="45.0013533" lon="7.9956133"><ele>260.0</ele><time>2026-05-01T11:09:33.153Z</time></trkpt><trkpt lat="45.001265" lon="7.9955867"><ele>260.0</ele><time>2026-05-01T11:09:34.152Z</time></trkpt><trkpt lat="45.001175" lon="7.9955717"><ele>260.0</ele><time>2026-05-01T11:09:35.154Z</time></trkpt><trkpt lat="45.00108" lon="7.995575"><ele>260.0</ele><time>2026-05-01T11:09:36.156Z</time></trkpt><trkpt lat="45.0009917" lon="7.9955733"><ele>260.0</ele><time>2026-05-01T11:09:37.153Z</time></trkpt><trkpt lat="45.00091" lon="7.99557"><ele>260.0</ele><time>2026-05-01T11:09:38.155Z</time></trkpt><trkpt lat="45.0008383" lon="7.9955633"><ele>260.0</ele><time>2026-05-01T11:09:39.155Z</time></trkpt><trkpt lat="45.000775" lon="7.995555"><ele>260.8</ele><time>2026-05-01T11:09:40.158Z</time></trkpt><trkpt lat="45.0006633" lon="7.9955267"><ele>261.6</ele><time>2026-05-01T11:09:42.153Z</time></trkpt><trkpt lat="45.0005483" lon="7.9954733"><ele>262.4</ele><time>2026-05-01T11:09:44.152Z</time></trkpt><trkpt lat="45.0004767" lon="7.9954433"><ele>263.2</ele><time>2026-05-01T11:09:45.155Z</time></trkpt><trkpt lat="45.0004" lon="7.99542"><ele>264.0</ele><time>2026-05-01T11:09:46.151Z</time></trkpt><trkpt lat="45.0003183" lon="7.9954067"><ele>264.0</ele><time>2026-05-01T11:09:47.153Z</time></trkpt><trkpt lat="45.00024" lon="7.9954067"><ele>264.0</ele><time>2026-05-01T11:09:48.153Z</time></trkpt><trkpt lat="45.0001583" lon="7.9954233"><ele>264.0</ele><time>2026-05-01T11:09:49.156Z</time></trkpt><trkpt lat="45.0000717" lon="7.9954567"><ele>264.0</ele><time>2026-05-01T11:09:50.155Z</time></trkpt><trkpt lat="44.999985" lon="7.995505"><ele>264.0</ele><time>2026-05-01T11:09:51.152Z</time></trkpt><trkpt lat="44.99991" lon="7.9955717"><ele>264.0</ele><time>2026-05-01T11:09:52.156Z</time></trkpt><trkpt lat="44.9998383" lon="7.995645"><ele>264.0</ele><time>2026-05-01T11:09:53.15Z</time></trkpt><trkpt lat="44.9997967" lon="7.9957367"><ele>264.0</ele><time>2026-05-01T11:09:54.155Z</time></trkpt><trkpt lat="44.9997633" lon="7.995835"><ele>264.0</ele><time>2026-05-01T11:09:55.154Z</time></trkpt><trkpt lat="44.9997583" lon="7.995935"><ele>264.0</ele><time>2026-05-01T11:09:56.151Z</time></trkpt><trkpt lat="44.9997633" lon="7.9960367"><ele>264.0</ele><time>2026-05-01T11:09:57.154Z</time></trkpt><trkpt lat="44.999785" lon="7.9961367"><ele>264.0</ele><time>2026-05-01T11:09:58.156Z</time></trkpt><trkpt lat="44.999775" lon="7.9962317"><ele>264.0</ele><time>2026-05-01T11:09:59.155Z</time></trkpt><trkpt lat="44.999745" lon="7.9963217"><ele>262.3333333333333</ele><time>2026-05-01T11:10:00.154Z</time></trkpt><trkpt lat="44.9997017" lon="7.9964017"><ele>260.6666666666667</ele><time>2026-05-01T11:10:01.153Z</time></trkpt><trkpt lat="44.99965" lon="7.996485"><ele>259.0</ele><time>2026-05-01T11:10:02.156Z</time></trkpt><trkpt lat="44.999595" lon="7.996575"><ele>257.33333333333337</ele><time>2026-05-01T11:10:03.155Z</time></trkpt><trkpt lat="44.99954" lon="7.9966717"><ele>255.66666666666669</ele><time>2026-05-01T11:10:04.156Z</time></trkpt><trkpt lat="44.9994833" lon="7.9967683"><ele>254.0</ele><time>2026-05-01T11:10:05.152Z</time></trkpt><trkpt lat="44.9994367" lon="7.9968767"><ele>254.6</ele><time>2026-05-01T11:10:06.157Z</time></trkpt><trkpt lat="44.9993783" lon="7.9969883"><ele>255.2</ele><time>2026-05-01T11:10:07.153Z</time></trkpt><trkpt lat="44.9993183" lon="7.9971"><ele>255.79999999999998</ele><time>2026-05-01T11:10:08.157Z</time></trkpt><trkpt lat="44.999255" lon="7.9972117"><ele>256.4</ele><time>2026-05-01T11:10:09.155Z</time></trkpt><trkpt lat="44.9991833" lon="7.9973133"><ele>257.0</ele><time>2026-05-01T11:10:10.158Z</time></trkpt><trkpt lat="44.9991067" lon="7.9974083"><ele>255.2</ele><time>2026-05-01T11:10:11.153Z</time></trkpt><trkpt lat="44.9990233" lon="7.9975033"><ele>253.39999999999998</ele><time>2026-05-01T11:10:12.159Z</time></trkpt><trkpt lat="44.9989417" lon="7.9975983"><ele>251.60000000000002</ele><time>2026-05-01T11:10:13.157Z</time></trkpt><trkpt lat="44.9988567" lon="7.9976917"><ele>249.8</ele><time>2026-05-01T11:10:14.154Z</time></trkpt><trkpt lat="44.9987717" lon="7.9977833"><ele>248.0</ele><time>2026-05-01T11:10:15.158Z</time></trkpt><trkpt lat="44.9986867" lon="7.9978767"><ele>248.0</ele><time>2026-05-01T11:10:16.155Z</time></trkpt><trkpt lat="44.9985917" lon="7.9979733"><ele>248.0</ele><time>2026-05-01T11:10:17.156Z</time></trkpt><trkpt lat="44.9985017" lon="7.9980733"><ele>248.0</ele><time>2026-05-01T11:10:18.153Z</time></trkpt><trkpt lat="44.9984167" lon="7.99817"><ele>248.0</ele><time>2026-05-01T11:10:19.157Z</time></trkpt><trkpt lat="44.998335" lon="7.9982683"><ele>248.0</ele><time>2026-05-01T11:10:20.153Z</time></trkpt><trkpt lat="44.99826" lon="7.9983717"><ele>251.8</ele><time>2026-05-01T11:10:21.153Z</time></trkpt><trkpt lat="44.9981867" lon="7.998475"><ele>255.60000000000002</ele><time>2026-05-01T11:10:22.155Z</time></trkpt><trkpt lat="44.9981183" lon="7.9985833"><ele>259.4</ele><time>2026-05-01T11:10:23.149Z</time></trkpt><trkpt lat="44.9980583" lon="7.998695"><ele>263.2</ele><time>2026-05-01T11:10:24.151Z</time></trkpt><trkpt lat="44.998005" lon="7.9988033"><ele>267.0</ele><time>2026-05-01T11:10:25.157Z</time></trkpt><trkpt lat="44.9979617" lon="7.998915"><ele>267.0</ele><time>2026-05-01T11:10:26.157Z</time></trkpt><trkpt lat="44.99793" lon="7.9990317"><ele>267.0</ele><time>2026-05-01T11:10:27.15Z</time></trkpt><trkpt lat="44.9978933" lon="7.9991483"><ele>267.0</ele><time>2026-05-01T11:10:28.15Z</time></trkpt><trkpt lat="44.9978583" lon="7.99927"><ele>267.0</ele><time>2026-05-01T11:10:29.154Z</time></trkpt><trkpt lat="44.99783" lon="7.9994"><ele>267.0</ele><time>2026-05-01T11:10:30.154Z</time></trkpt><trkpt lat="44.9977867" lon="7.9995333"><ele>267.8</ele><time>2026-05-01T11:10:31.152Z</time></trkpt><trkpt lat="44.9977417" lon="7.9996717"><ele>268.6</ele><time>2026-05-01T11:10:32.153Z</time></trkpt><trkpt lat="44.9976983" lon="7.999805"><ele>269.40000000000003</ele><time>2026-05-01T11:10:33.16Z</time></trkpt><trkpt lat="44.9976533" lon="7.9999167"><ele>270.2</ele><time>2026-05-01T11:10:34.151Z</time></trkpt><trkpt lat="44.9976067" lon="8.000015"><ele>271.0</ele><time>2026-05-01T11:10:35.151Z</time></trkpt><trkpt lat="44.997555" lon="8.0001017"><ele>269.8333333333333</ele><time>2026-05-01T11:10:36.154Z</time></trkpt><trkpt lat="44.9974983" lon="8.00017"><ele>268.66666666666663</ele><time>2026-05-01T11:10:37.157Z</time></trkpt><trkpt lat="44.99744" lon="8.000225"><ele>267.5</ele><time>2026-05-01T11:10:38.152Z</time></trkpt><trkpt lat="44.99735" lon="8.0002383"><ele>266.3333333333333</ele><time>2026-05-01T11:10:39.152Z</time></trkpt><trkpt lat="44.9972617" lon="8.0002617"><ele>265.1666666666667</ele><time>2026-05-01T11:10:40.156Z</time></trkpt><trkpt lat="44.9971583" lon="8.0002383"><ele>264.0</ele><time>2026-05-01T11:10:41.153Z</time></trkpt><trkpt lat="44.9970583" lon="8.0002233"><ele>264.0</ele><time>2026-05-01T11:10:42.151Z</time></trkpt><trkpt lat="44.9969583" lon="8.0001983"><ele>264.0</ele><time>2026-05-01T11:10:43.156Z</time></trkpt><trkpt lat="44.9968667" lon="8.0001683"><ele>264.0</ele><time>2026-05-01T11:10:44.155Z</time></trkpt><trkpt lat="44.9967767" lon="8.0001483"><ele>264.0</ele><time>2026-05-01T11:10:45.155Z</time></trkpt><trkpt lat="44.996685" lon="8.0001317"><ele>264.0</ele><time>2026-05-01T11:10:46.155Z</time></trkpt><trkpt lat="44.9965967" lon="8.0001317"><ele>263.1666666666667</ele><time>2026-05-01T11:10:47.158Z</time></trkpt><trkpt lat="44.9965133" lon="8.000145"><ele>262.3333333333333</ele><time>2026-05-01T11:10:48.155Z</time></trkpt><trkpt lat="44.996435" lon="8.0001683"><ele>261.5</ele><time>2026-05-01T11:10:49.158Z</time></trkpt><trkpt lat="44.99637" lon="8.0002217"><ele>260.66666666666663</ele><time>2026-05-01T11:10:50.151Z</time></trkpt><trkpt lat="44.99631" lon="8.0002867"><ele>259.8333333333333</ele><time>2026-05-01T11:10:51.153Z</time></trkpt><trkpt lat="44.9962917" lon="8.0003817"><ele>259.0</ele><time>2026-05-01T11:10:52.156Z</time></trkpt><trkpt lat="44.996285" lon="8.0004817"><ele>259.0</ele><time>2026-05-01T11:10:53.154Z</time></trkpt><trkpt lat="44.9962517" lon="8.0006417"><ele>259.0</ele><time>2026-05-01T11:10:55.156Z</time></trkpt><trkpt lat="44.9961883" lon="8.0007633"><ele>259.0</ele><time>2026-05-01T11:10:57.154Z</time></trkpt><trkpt lat="44.9960617" lon="8.0008267"><ele>259.0</ele><time>2026-05-01T11:10:59.159Z</time></trkpt><trkpt lat="44.9959833" lon="8.0008583"><ele>259.0</ele><time>2026-05-01T11:11:00.156Z</time></trkpt><trkpt lat="44.9958967" lon="8.0008867"><ele>257.4</ele><time>2026-05-01T11:11:01.156Z</time></trkpt><trkpt lat="44.9958017" lon="8.0009283"><ele>255.79999999999998</ele><time>2026-05-01T11:11:02.155Z</time></trkpt><trkpt lat="44.9957167" lon="8.0009783"><ele>254.20000000000002</ele><time>2026-05-01T11:11:03.155Z</time></trkpt><trkpt lat="44.995635" lon="8.0010333"><ele>252.60000000000002</ele><time>2026-05-01T11:11:04.156Z</time></trkpt><trkpt lat="44.9955617" lon="8.0010967"><ele>251.0</ele><time>2026-05-01T11:11:05.153Z</time></trkpt><trkpt lat="44.9954817" lon="8.00115"><ele>251.00000000000003</ele><time>2026-05-01T11:11:06.153Z</time></trkpt><trkpt lat="44.9953967" lon="8.0011983"><ele>251.0</ele><time>2026-05-01T11:11:07.154Z</time></trkpt><trkpt lat="44.9953117" lon="8.00124"><ele>251.0</ele><time>2026-05-01T11:11:08.155Z</time></trkpt><trkpt lat="44.995235" lon="8.0012767"><ele>251.0</ele><time>2026-05-01T11:11:09.152Z</time></trkpt><trkpt lat="44.9951667" lon="8.0013083"><ele>251.00000000000003</ele><time>2026-05-01T11:11:10.156Z</time></trkpt><trkpt lat="44.9951067" lon="8.0013517"><ele>251.0</ele><time>2026-05-01T11:11:11.156Z</time></trkpt><trkpt lat="44.9950217" lon="8.0014783"><ele>251.57142857142856</ele><time>2026-05-01T11:11:13.156Z</time></trkpt><trkpt lat="44.9950033" lon="8.00157"><ele>252.14285714285714</ele><time>2026-05-01T11:11:14.156Z</time></trkpt><trkpt lat="44.9949867" lon="8.0016717"><ele>252.71428571428572</ele><time>2026-05-01T11:11:15.153Z</time></trkpt><trkpt lat="44.9949817" lon="8.00178"><ele>253.28571428571428</ele><time>2026-05-01T11:11:16.153Z</time></trkpt><trkpt lat="44.994975" lon="8.0018867"><ele>253.8571428571429</ele><time>2026-05-01T11:11:17.154Z</time></trkpt><trkpt lat="44.9949733" lon="8.0019933"><ele>254.42857142857144</ele><time>2026-05-01T11:11:18.152Z</time></trkpt><trkpt lat="44.9949683" lon="8.002095"><ele>255.0</ele><time>2026-05-01T11:11:19.157Z</time></trkpt><trkpt lat="44.9949517" lon="8.0021917"><ele>254.83333333333334</ele><time>2026-05-01T11:11:20.15Z</time></trkpt><trkpt lat="44.994925" lon="8.00229"><ele>254.66666666666669</ele><time>2026-05-01T11:11:21.156Z</time></trkpt><trkpt lat="44.9948967" lon="8.0023867"><ele>254.5</ele><time>2026-05-01T11:11:22.156Z</time></trkpt><trkpt lat="44.9948617" lon="8.0024717"><ele>254.33333333333334</ele><time>2026-05-01T11:11:23.155Z</time></trkpt><trkpt lat="44.9947917" lon="8.0025933"><ele>254.16666666666669</ele><time>2026-05-01T11:11:25.153Z</time></trkpt><trkpt lat="44.99471" lon="8.00267"><ele>254.0</ele><time>2026-05-01T11:11:27.155Z</time></trkpt><trkpt lat="44.9946067" lon="8.0026617"><ele>254.0</ele><time>2026-05-01T11:11:29.154Z</time></trkpt><trkpt lat="44.9945033" lon="8.0025867"><ele>253.99999999999997</ele><time>2026-05-01T11:11:30.153Z</time></trkpt><trkpt lat="44.9944083" lon="8.0025383"><ele>253.99999999999997</ele><time>2026-05-01T11:11:31.157Z</time></trkpt><trkpt lat="44.9943183" lon="8.0025"><ele>254.0</ele><time>2026-05-01T11:11:32.155Z</time></trkpt><trkpt lat="44.9942217" lon="8.0024583"><ele>254.0</ele><time>2026-05-01T11:11:33.157Z</time></trkpt><trkpt lat="44.994115" lon="8.0024167"><ele>253.39999999999998</ele><time>2026-05-01T11:11:34.156Z</time></trkpt><trkpt lat="44.994005" lon="8.0023983"><ele>252.79999999999998</ele><time>2026-05-01T11:11:35.152Z</time></trkpt><trkpt lat="44.9938967" lon="8.0023917"><ele>252.20000000000002</ele><time>2026-05-01T11:11:36.156Z</time></trkpt><trkpt lat="44.993795" lon="8.002385"><ele>251.60000000000002</ele><time>2026-05-01T11:11:37.156Z</time></trkpt><trkpt lat="44.99371" lon="8.0023717"><ele>251.0</ele><time>2026-05-01T11:11:38.157Z</time></trkpt><trkpt lat="44.9936383" lon="8.0023467"><ele>251.00000000000003</ele><time>2026-05-01T11:11:39.159Z</time></trkpt><trkpt lat="44.9935717" lon="8.002315"><ele>251.0</ele><time>2026-05-01T11:11:40.16Z</time></trkpt><trkpt lat="44.9934767" lon="8.002215"><ele>251.0</ele><time>2026-05-01T11:11:42.157Z</time></trkpt><trkpt lat="44.9934333" lon="8.00215"><ele>251.0</ele><time>2026-05-01T11:11:43.156Z</time></trkpt><trkpt lat="44.9934" lon="8.00207"><ele>251.00000000000003</ele><time>2026-05-01T11:11:44.153Z</time></trkpt><trkpt lat="44.9933533" lon="8.0019933"><ele>251.0</ele><time>2026-05-01T11:11:45.153Z</time></trkpt><trkpt lat="44.9932967" lon="8.001915"><ele>251.8</ele><time>2026-05-01T11:11:46.155Z</time></trkpt><trkpt lat="44.993245" lon="8.0018433"><ele>252.60000000000002</ele><time>2026-05-01T11:11:47.156Z</time></trkpt><trkpt lat="44.9931567" lon="8.0017383"><ele>253.4</ele><time>2026-05-01T11:11:49.159Z</time></trkpt><trkpt lat="44.9930583" lon="8.0017417"><ele>254.2</ele><time>2026-05-01T11:11:51.151Z</time></trkpt><trkpt lat="44.992955" lon="8.0018167"><ele>255.0</ele><time>2026-05-01T11:11:53.156Z</time></trkpt><trkpt lat="44.9928867" lon="8.0019817"><ele>255.0</ele><time>2026-05-01T11:11:55.16Z</time></trkpt><trkpt lat="44.9928717" lon="8.0020917"><ele>255.0</ele><time>2026-05-01T11:11:56.157Z</time></trkpt><trkpt lat="44.9928617" lon="8.0022"><ele>255.0</ele><time>2026-05-01T11:11:57.16Z</time></trkpt><trkpt lat="44.9928483" lon="8.0023083"><ele>255.0</ele><time>2026-05-01T11:11:58.152Z</time></trkpt><trkpt lat="44.9928317" lon="8.002405"><ele>255.0</ele><time>2026-05-01T11:11:59.153Z</time></trkpt><trkpt lat="44.992775" lon="8.00256"><ele>255.0</ele><time>2026-05-01T11:12:01.156Z</time></trkpt><trkpt lat="44.9926767" lon="8.0026817"><ele>255.16666666666666</ele><time>2026-05-01T11:12:03.153Z</time></trkpt><trkpt lat="44.99261" lon="8.0027383"><ele>255.33333333333331</ele><time>2026-05-01T11:12:04.154Z</time></trkpt><trkpt lat="44.9925483" lon="8.0028083"><ele>255.5</ele><time>2026-05-01T11:12:05.152Z</time></trkpt><trkpt lat="44.99249" lon="8.002885"><ele>255.66666666666666</ele><time>2026-05-01T11:12:06.156Z</time></trkpt><trkpt lat="44.992435" lon="8.00296"><ele>255.83333333333331</ele><time>2026-05-01T11:12:07.156Z</time></trkpt><trkpt lat="44.9923783" lon="8.0030183"><ele>256.0</ele><time>2026-05-01T11:12:08.157Z</time></trkpt><trkpt lat="44.992315" lon="8.003065"><ele>256.0</ele><time>2026-05-01T11:12:09.154Z</time></trkpt><trkpt lat="44.992245" lon="8.0030767"><ele>255.99999999999997</ele><time>2026-05-01T11:12:10.154Z</time></trkpt><trkpt lat="44.9921817" lon="8.0030883"><ele>256.0</ele><time>2026-05-01T11:12:11.153Z</time></trkpt><trkpt lat="44.9921133" lon="8.0031067"><ele>256.0</ele><time>2026-05-01T11:12:12.156Z</time></trkpt><trkpt lat="44.9920467" lon="8.0031433"><ele>255.99999999999997</ele><time>2026-05-01T11:12:13.159Z</time></trkpt><trkpt lat="44.9919667" lon="8.0031633"><ele>256.0</ele><time>2026-05-01T11:12:14.151Z</time></trkpt><trkpt lat="44.9918867" lon="8.003205"><ele>256.0</ele><time>2026-05-01T11:12:15.154Z</time></trkpt><trkpt lat="44.991825" lon="8.003255"><ele>255.99999999999997</ele><time>2026-05-01T11:12:16.157Z</time></trkpt><trkpt lat="44.991745" lon="8.003305"><ele>256.0</ele><time>2026-05-01T11:12:17.158Z</time></trkpt><trkpt lat="44.9916783" lon="8.0033433"><ele>256.0</ele><time>2026-05-01T11:12:18.158Z</time></trkpt><trkpt lat="44.99161" lon="8.0033717"><ele>256.0</ele><time>2026-05-01T11:12:19.159Z</time></trkpt><trkpt lat="44.9914867" lon="8.00339"><ele>255.99999999999997</ele><time>2026-05-01T11:12:21.155Z</time></trkpt><trkpt lat="44.991415" lon="8.0033767"><ele>256.0</ele><time>2026-05-01T11:12:22.158Z</time></trkpt><trkpt lat="44.9913533" lon="8.0033433"><ele>256.0</ele><time>2026-05-01T11:12:23.155Z</time></trkpt><trkpt lat="44.99129" lon="8.0033033"><ele>255.99999999999997</ele><time>2026-05-01T11:12:24.161Z</time></trkpt><trkpt lat="44.99123" lon="8.0032717"><ele>256.0</ele><time>2026-05-01T11:12:25.16Z</time></trkpt><trkpt lat="44.9911633" lon="8.0032433"><ele>256.0</ele><time>2026-05-01T11:12:26.155Z</time></trkpt><trkpt lat="44.9910917" lon="8.0032233"><ele>255.99999999999997</ele><time>2026-05-01T11:12:27.158Z</time></trkpt><trkpt lat="44.9910233" lon="8.0032"><ele>256.0</ele><time>2026-05-01T11:12:28.154Z</time></trkpt><trkpt lat="44.9909433" lon="8.00318"><ele>256.0</ele><time>2026-05-01T11:12:29.163Z</time></trkpt><trkpt lat="44.99085" lon="8.0031883"><ele>254.20000000000002</ele><time>2026-05-01T11:12:30.159Z</time></trkpt><trkpt lat="44.990755" lon="8.0032067"><ele>252.40000000000003</ele><time>2026-05-01T11:12:31.158Z</time></trkpt><trkpt lat="44.99066" lon="8.003225"><ele>250.6</ele><time>2026-05-01T11:12:32.155Z</time></trkpt><trkpt lat="44.9905583" lon="8.00325"><ele>248.8</ele><time>2026-05-01T11:12:33.158Z</time></trkpt><trkpt lat="44.9904667" lon="8.0032717"><ele>247.0</ele><time>2026-05-01T11:12:34.154Z</time></trkpt><trkpt lat="44.99037" lon="8.0032917"><ele>247.0</ele><time>2026-05-01T11:12:35.16Z</time></trkpt><trkpt lat="44.9902733" lon="8.0033067"><ele>247.0</ele><time>2026-05-01T11:12:36.159Z</time></trkpt><trkpt lat="44.99017" lon="8.003315"><ele>247.0</ele><time>2026-05-01T11:12:37.162Z</time></trkpt><trkpt lat="44.9900717" lon="8.0033183"><ele>247.0</ele><time>2026-05-01T11:12:38.153Z</time></trkpt><trkpt lat="44.9899683" lon="8.0033183"><ele>247.0</ele><time>2026-05-01T11:12:39.156Z</time></trkpt><trkpt lat="44.9898733" lon="8.0033183"><ele>247.49999999999997</ele><time>2026-05-01T11:12:40.159Z</time></trkpt><trkpt lat="44.989785" lon="8.0033183"><ele>248.0</ele><time>2026-05-01T11:12:41.158Z</time></trkpt><trkpt lat="44.9896983" lon="8.0033267"><ele>248.5</ele><time>2026-05-01T11:12:42.161Z</time></trkpt><trkpt lat="44.98961" lon="8.0033533"><ele>249.0</ele><time>2026-05-01T11:12:43.154Z</time></trkpt><trkpt lat="44.9895217" lon="8.0033933"><ele>249.49999999999997</ele><time>2026-05-01T11:12:44.16Z</time></trkpt><trkpt lat="44.9894517" lon="8.0034267"><ele>250.0</ele><time>2026-05-01T11:12:45.152Z</time></trkpt><trkpt lat="44.9893883" lon="8.0034567"><ele>250.16666666666666</ele><time>2026-05-01T11:12:46.156Z</time></trkpt><trkpt lat="44.9893" lon="8.0034683"><ele>250.33333333333331</ele><time>2026-05-01T11:12:48.156Z</time></trkpt><trkpt lat="44.98923" lon="8.0034217"><ele>250.5</ele><time>2026-05-01T11:12:50.155Z</time></trkpt><trkpt lat="44.98916" lon="8.0033317"><ele>250.66666666666669</ele><time>2026-05-01T11:12:52.157Z</time></trkpt><trkpt lat="44.98912" lon="8.00326"><ele>250.83333333333334</ele><time>2026-05-01T11:12:53.156Z</time></trkpt><trkpt lat="44.989085" lon="8.0031717"><ele>251.0</ele><time>2026-05-01T11:12:54.153Z</time></trkpt><trkpt lat="44.9890517" lon="8.0030667"><ele>250.71428571428567</ele><time>2026-05-01T11:12:55.154Z</time></trkpt><trkpt lat="44.989005" lon="8.0029717"><ele>250.42857142857142</ele><time>2026-05-01T11:12:56.154Z</time></trkpt><trkpt lat="44.988955" lon="8.0028833"><ele>250.1428571428571</ele><time>2026-05-01T11:12:57.154Z</time></trkpt><trkpt lat="44.9889133" lon="8.00279"><ele>249.85714285714283</ele><time>2026-05-01T11:12:58.156Z</time></trkpt><trkpt lat="44.9888667" lon="8.0027117"><ele>249.57142857142856</ele><time>2026-05-01T11:12:59.159Z</time></trkpt><trkpt lat="44.9888317" lon="8.0026283"><ele>249.28571428571428</ele><time>2026-05-01T11:13:00.154Z</time></trkpt><trkpt lat="44.98879" lon="8.0025567"><ele>249.0</ele><time>2026-05-01T11:13:01.157Z</time></trkpt><trkpt lat="44.9887417" lon="8.0024917"><ele>248.66666666666666</ele><time>2026-05-01T11:13:02.157Z</time></trkpt><trkpt lat="44.98868" lon="8.0024383"><ele>248.33333333333331</ele><time>2026-05-01T11:13:03.159Z</time></trkpt><trkpt lat="44.98861" lon="8.0024033"><ele>248.0</ele><time>2026-05-01T11:13:04.156Z</time></trkpt><trkpt lat="44.98853" lon="8.00238"><ele>247.66666666666666</ele><time>2026-05-01T11:13:05.157Z</time></trkpt><trkpt lat="44.98844" lon="8.0023717"><ele>247.33333333333331</ele><time>2026-05-01T11:13:06.152Z</time></trkpt><trkpt lat="44.9883483" lon="8.00237"><ele>247.0</ele><time>2026-05-01T11:13:07.154Z</time></trkpt><trkpt lat="44.9882583" lon="8.0023667"><ele>246.99999999999997</ele><time>2026-05-01T11:13:08.159Z</time></trkpt><trkpt lat="44.9881717" lon="8.002375"><ele>247.0</ele><time>2026-05-01T11:13:09.154Z</time></trkpt><trkpt lat="44.9880867" lon="8.002385"><ele>247.0</ele><time>2026-05-01T11:13:10.153Z</time></trkpt><trkpt lat="44.988005" lon="8.0024083"><ele>247.0</ele><time>2026-05-01T11:13:11.156Z</time></trkpt><trkpt lat="44.9879183" lon="8.002455"><ele>246.99999999999997</ele><time>2026-05-01T11:13:12.161Z</time></trkpt><trkpt lat="44.987835" lon="8.002515"><ele>247.0</ele><time>2026-05-01T11:13:13.155Z</time></trkpt><trkpt lat="44.9877483" lon="8.00258"><ele>246.2</ele><time>2026-05-01T11:13:14.156Z</time></trkpt><trkpt lat="44.987665" lon="8.0026467"><ele>245.39999999999998</ele><time>2026-05-01T11:13:15.157Z</time></trkpt><trkpt lat="44.9875833" lon="8.002715"><ele>244.60000000000002</ele><time>2026-05-01T11:13:16.154Z</time></trkpt><trkpt lat="44.9875017" lon="8.002785"><ele>243.8</ele><time>2026-05-01T11:13:17.156Z</time></trkpt><trkpt lat="44.9874267" lon="8.0028683"><ele>243.0</ele><time>2026-05-01T11:13:18.157Z</time></trkpt><trkpt lat="44.987355" lon="8.0029617"><ele>242.60000000000002</ele><time>2026-05-01T11:13:19.159Z</time></trkpt><trkpt lat="44.9872867" lon="8.003065"><ele>242.20000000000002</ele><time>2026-05-01T11:13:20.153Z</time></trkpt><trkpt lat="44.9872167" lon="8.0031683"><ele>241.8</ele><time>2026-05-01T11:13:21.158Z</time></trkpt><trkpt lat="44.98715" lon="8.003275"><ele>241.4</ele><time>2026-05-01T11:13:22.153Z</time></trkpt><trkpt lat="44.9870817" lon="8.0033817"><ele>241.0</ele><time>2026-05-01T11:13:23.153Z</time></trkpt><trkpt lat="44.9870133" lon="8.0034917"><ele>240.66666666666666</ele><time>2026-05-01T11:13:24.152Z</time></trkpt><trkpt lat="44.9869483" lon="8.0035917"><ele>240.33333333333331</ele><time>2026-05-01T11:13:25.155Z</time></trkpt><trkpt lat="44.9868883" lon="8.003685"><ele>240.0</ele><time>2026-05-01T11:13:26.157Z</time></trkpt><trkpt lat="44.9868283" lon="8.0037767"><ele>239.66666666666669</ele><time>2026-05-01T11:13:27.154Z</time></trkpt><trkpt lat="44.9867733" lon="8.0038667"><ele>239.33333333333334</ele><time>2026-05-01T11:13:28.155Z</time></trkpt><trkpt lat="44.9867217" lon="8.003955"><ele>239.0</ele><time>2026-05-01T11:13:29.153Z</time></trkpt><trkpt lat="44.98667" lon="8.0040333"><ele>239.00000000000003</ele><time>2026-05-01T11:13:30.154Z</time></trkpt><trkpt lat="44.9866217" lon="8.0041"><ele>239.0</ele><time>2026-05-01T11:13:31.155Z</time></trkpt><trkpt lat="44.9865717" lon="8.0041667"><ele>239.0</ele><time>2026-05-01T11:13:32.153Z</time></trkpt><trkpt lat="44.986515" lon="8.0042233"><ele>239.0</ele><time>2026-05-01T11:13:33.157Z</time></trkpt><trkpt lat="44.9864533" lon="8.00427"><ele>239.00000000000003</ele><time>2026-05-01T11:13:34.157Z</time></trkpt><trkpt lat="44.98632" lon="8.0043033"><ele>239.0</ele><time>2026-05-01T11:13:36.154Z</time></trkpt><trkpt lat="44.986245" lon="8.0042983"><ele>239.33333333333334</ele><time>2026-05-01T11:13:37.156Z</time></trkpt><trkpt lat="44.9861667" lon="8.00429"><ele>239.66666666666669</ele><time>2026-05-01T11:13:38.155Z</time></trkpt><trkpt lat="44.9860767" lon="8.0042867"><ele>240.0</ele><time>2026-05-01T11:13:39.157Z</time></trkpt><trkpt lat="44.9859717" lon="8.004285"><ele>240.33333333333331</ele><time>2026-05-01T11:13:40.156Z</time></trkpt><trkpt lat="44.9858867" lon="8.0042917"><ele>240.66666666666666</ele><time>2026-05-01T11:13:41.159Z</time></trkpt><trkpt lat="44.9858033" lon="8.0042933"><ele>241.0</ele><time>2026-05-01T11:13:42.154Z</time></trkpt><trkpt lat="44.9857033" lon="8.0042483"><ele>238.49999999999997</ele><time>2026-05-01T11:13:44.155Z</time></trkpt><trkpt lat="44.9856883" lon="8.00411"><ele>236.0</ele><time>2026-05-01T11:13:46.156Z</time></trkpt><trkpt lat="44.9857117" lon="8.0040033"><ele>233.5</ele><time>2026-05-01T11:13:47.152Z</time></trkpt><trkpt lat="44.9857233" lon="8.003915"><ele>231.0</ele><time>2026-05-01T11:13:48.152Z</time></trkpt><trkpt lat="44.9856917" lon="8.0037733"><ele>228.49999999999997</ele><time>2026-05-01T11:13:50.156Z</time></trkpt><trkpt lat="44.9856133" lon="8.003745"><ele>226.0</ele><time>2026-05-01T11:13:52.151Z</time></trkpt><trkpt lat="44.9855383" lon="8.003825"><ele>225.99999999999997</ele><time>2026-05-01T11:13:54.156Z</time></trkpt><trkpt lat="44.9855367" lon="8.00393"><ele>226.0</ele><time>2026-05-01T11:13:55.154Z</time></trkpt><trkpt lat="44.9855533" lon="8.0040333"><ele>226.0</ele><time>2026-05-01T11:13:56.159Z</time></trkpt><trkpt lat="44.9855817" lon="8.0041467"><ele>226.0</ele><time>2026-05-01T11:13:57.153Z</time></trkpt><trkpt lat="44.9856167" lon="8.0042517"><ele>225.99999999999997</ele><time>2026-05-01T11:13:58.158Z</time></trkpt><trkpt lat="44.98566" lon="8.0043483"><ele>226.0</ele><time>2026-05-01T11:13:59.161Z</time></trkpt><trkpt lat="44.985705" lon="8.0044317"><ele>226.83333333333331</ele><time>2026-05-01T11:14:00.156Z</time></trkpt><trkpt lat="44.98579" lon="8.00452"><ele>227.66666666666666</ele><time>2026-05-01T11:14:02.156Z</time></trkpt><trkpt lat="44.9858233" lon="8.004605"><ele>228.5</ele><time>2026-05-01T11:14:05.159Z</time></trkpt><trkpt lat="44.9857533" lon="8.00459"><ele>229.33333333333331</ele><time>2026-05-01T11:14:10.16Z</time></trkpt><trkpt lat="44.98566" lon="8.0044683"><ele>230.16666666666666</ele><time>2026-05-01T11:14:12.157Z</time></trkpt><trkpt lat="44.9856083" lon="8.00439"><ele>231.0</ele><time>2026-05-01T11:14:13.159Z</time></trkpt><trkpt lat="44.985555" lon="8.0042783"><ele>229.75</ele><time>2026-05-01T11:14:14.157Z</time></trkpt><trkpt lat="44.98552" lon="8.0041317"><ele>228.5</ele><time>2026-05-01T11:14:15.156Z</time></trkpt><trkpt lat="44.9855067" lon="8.0039433"><ele>227.25</ele><time>2026-05-01T11:14:16.158Z</time></trkpt><trkpt lat="44.9854967" lon="8.0037517"><ele>226.0</ele><time>2026-05-01T11:14:17.154Z</time></trkpt><trkpt lat="44.9854867" lon="8.0035633"><ele>226.0</ele><time>2026-05-01T11:14:18.158Z</time></trkpt><trkpt lat="44.985495" lon="8.00337"><ele>226.0</ele><time>2026-05-01T11:14:19.155Z</time></trkpt><trkpt lat="44.98551" lon="8.0031783"><ele>226.0</ele><time>2026-05-01T11:14:20.158Z</time></trkpt><trkpt lat="44.9855033" lon="8.003"><ele>226.0</ele><time>2026-05-01T11:14:21.157Z</time></trkpt><trkpt lat="44.9854667" lon="8.00282"><ele>223.5</ele><time>2026-05-01T11:14:22.162Z</time></trkpt><trkpt lat="44.9854133" lon="8.0026533"><ele>221.0</ele><time>2026-05-01T11:14:23.159Z</time></trkpt><trkpt lat="44.9853367" lon="8.0025117"><ele>218.5</ele><time>2026-05-01T11:14:24.158Z</time></trkpt><trkpt lat="44.9852417" lon="8.002405"><ele>216.0</ele><time>2026-05-01T11:14:25.158Z</time></trkpt><trkpt lat="44.98513" lon="8.0023217"><ele>216.75</ele><time>2026-05-01T11:14:26.154Z</time></trkpt><trkpt lat="44.9850017" lon="8.0022467"><ele>217.5</ele><time>2026-05-01T11:14:27.154Z</time></trkpt><trkpt lat="44.9848717" lon="8.0021717"><ele>218.25</ele><time>2026-05-01T11:14:28.153Z</time></trkpt><trkpt lat="44.9847433" lon="8.0020933"><ele>219.0</ele><time>2026-05-01T11:14:29.156Z</time></trkpt><trkpt lat="44.98461" lon="8.0020183"><ele>219.0</ele><time>2026-05-01T11:14:30.159Z</time></trkpt><trkpt lat="44.98448" lon="8.0019433"><ele>219.0</ele><time>2026-05-01T11:14:31.159Z</time></trkpt><trkpt lat="44.9843417" lon="8.0018733"><ele>219.0</ele><time>2026-05-01T11:14:32.156Z</time></trkpt><trkpt lat="44.9842067" lon="8.0018117"><ele>219.0</ele><time>2026-05-01T11:14:33.155Z</time></trkpt><trkpt lat="44.9840667" lon="8.00176"><ele>218.5</ele><time>2026-05-01T11:14:34.157Z</time></trkpt><trkpt lat="44.983925" lon="8.0017117"><ele>218.0</ele><time>2026-05-01T11:14:35.158Z</time></trkpt><trkpt lat="44.98378" lon="8.00166"><ele>217.5</ele><time>2026-05-01T11:14:36.156Z</time></trkpt><trkpt lat="44.9836317" lon="8.00162"><ele>217.0</ele><time>2026-05-01T11:14:37.157Z</time></trkpt><trkpt lat="44.983485" lon="8.0015733"><ele>216.0</ele><time>2026-05-01T11:14:38.161Z</time></trkpt><trkpt lat="44.9833367" lon="8.0015217"><ele>215.0</ele><time>2026-05-01T11:14:39.155Z</time></trkpt><trkpt lat="44.98319" lon="8.0014683"><ele>214.0</ele><time>2026-05-01T11:14:40.158Z</time></trkpt><trkpt lat="44.9830383" lon="8.001425"><ele>214.0</ele><time>2026-05-01T11:14:41.154Z</time></trkpt><trkpt lat="44.9828817" lon="8.0013883"><ele>214.0</ele><time>2026-05-01T11:14:42.159Z</time></trkpt><trkpt lat="44.9827283" lon="8.0013417"><ele>214.0</ele><time>2026-05-01T11:14:43.157Z</time></trkpt><trkpt lat="44.982575" lon="8.00129"><ele>214.33333333333331</ele><time>2026-05-01T11:14:44.156Z</time></trkpt><trkpt lat="44.98242" lon="8.0012367"><ele>214.66666666666669</ele><time>2026-05-01T11:14:45.158Z</time></trkpt><trkpt lat="44.98226" lon="8.0011833"><ele>215.0</ele><time>2026-05-01T11:14:46.157Z</time></trkpt><trkpt lat="44.9820983" lon="8.0011333"><ele>215.0</ele><time>2026-05-01T11:14:47.159Z</time></trkpt><trkpt lat="44.9819383" lon="8.001085"><ele>215.0</ele><time>2026-05-01T11:14:48.163Z</time></trkpt><trkpt lat="44.9817783" lon="8.0010467"><ele>215.0</ele><time>2026-05-01T11:14:49.158Z</time></trkpt><trkpt lat="44.981615" lon="8.001015"><ele>213.33333333333334</ele><time>2026-05-01T11:14:50.158Z</time></trkpt><trkpt lat="44.9814517" lon="8.0009917"><ele>211.66666666666669</ele><time>2026-05-01T11:14:51.154Z</time></trkpt><trkpt lat="44.98129" lon="8.0009783"><ele>210.0</ele><time>2026-05-01T11:14:52.157Z</time></trkpt><trkpt lat="44.981125" lon="8.0009933"><ele>210.0</ele><time>2026-05-01T11:14:53.158Z</time></trkpt><trkpt lat="44.9809567" lon="8.0010133"><ele>210.0</ele><time>2026-05-01T11:14:54.154Z</time></trkpt><trkpt lat="44.9807817" lon="8.0010333"><ele>210.0</ele><time>2026-05-01T11:14:55.154Z</time></trkpt><trkpt lat="44.9806033" lon="8.00105"><ele>209.0</ele><time>2026-05-01T11:14:56.154Z</time></trkpt><trkpt lat="44.98042" lon="8.0010767"><ele>208.0</ele><time>2026-05-01T11:14:57.153Z</time></trkpt><trkpt lat="44.9802333" lon="8.0011083"><ele>207.0</ele><time>2026-05-01T11:14:58.156Z</time></trkpt><trkpt lat="44.98005" lon="8.001135"><ele>208.33333333333331</ele><time>2026-05-01T11:14:59.154Z</time></trkpt><trkpt lat="44.9798633" lon="8.001165"><ele>209.66666666666666</ele><time>2026-05-01T11:15:00.158Z</time></trkpt><trkpt lat="44.9796767" lon="8.0011933"><ele>211.0</ele><time>2026-05-01T11:15:01.153Z</time></trkpt><trkpt lat="44.979485" lon="8.00123"><ele>211.0</ele><time>2026-05-01T11:15:02.156Z</time></trkpt><trkpt lat="44.9793" lon="8.0012633"><ele>211.0</ele><time>2026-05-01T11:15:03.159Z</time></trkpt><trkpt lat="44.979115" lon="8.0013"><ele>211.0</ele><time>2026-05-01T11:15:04.158Z</time></trkpt><trkpt lat="44.9789333" lon="8.0013333"><ele>211.66666666666666</ele><time>2026-05-01T11:15:05.156Z</time></trkpt><trkpt lat="44.9787617" lon="8.001375"><ele>212.33333333333331</ele><time>2026-05-01T11:15:06.153Z</time></trkpt><trkpt lat="44.9785833" lon="8.0014"><ele>213.0</ele><time>2026-05-01T11:15:07.153Z</time></trkpt><trkpt lat="44.9784067" lon="8.001435"><ele>214.0</ele><time>2026-05-01T11:15:08.153Z</time></trkpt><trkpt lat="44.9782317" lon="8.0014667"><ele>215.0</ele><time>2026-05-01T11:15:09.154Z</time></trkpt><trkpt lat="44.9780583" lon="8.001495"><ele>216.0</ele><time>2026-05-01T11:15:10.157Z</time></trkpt><trkpt lat="44.9778817" lon="8.0015283"><ele>216.0</ele><time>2026-05-01T11:15:11.154Z</time></trkpt><trkpt lat="44.9777133" lon="8.0015517"><ele>216.0</ele><time>2026-05-01T11:15:12.153Z</time></trkpt><trkpt lat="44.9775467" lon="8.0015783"><ele>216.0</ele><time>2026-05-01T11:15:13.158Z</time></trkpt><trkpt lat="44.9773883" lon="8.0015967"><ele>214.75</ele><time>2026-05-01T11:15:14.155Z</time></trkpt><trkpt lat="44.977235" lon="8.0016083"><ele>213.5</ele><time>2026-05-01T11:15:15.156Z</time></trkpt><trkpt lat="44.9770917" lon="8.0015933"><ele>212.25</ele><time>2026-05-01T11:15:16.16Z</time></trkpt><trkpt lat="44.9769517" lon="8.00155"><ele>211.0</ele><time>2026-05-01T11:15:17.153Z</time></trkpt><trkpt lat="44.97683" lon="8.0014617"><ele>211.0</ele><time>2026-05-01T11:15:18.156Z</time></trkpt><trkpt lat="44.9767283" lon="8.0013433"><ele>211.0</ele><time>2026-05-01T11:15:19.154Z</time></trkpt><trkpt lat="44.9766483" lon="8.0012083"><ele>211.0</ele><time>2026-05-01T11:15:20.156Z</time></trkpt><trkpt lat="44.976605" lon="8.00106"><ele>211.0</ele><time>2026-05-01T11:15:21.153Z</time></trkpt><trkpt lat="44.9765933" lon="8.0008933"><ele>212.5</ele><time>2026-05-01T11:15:22.158Z</time></trkpt><trkpt lat="44.9766083" lon="8.00072"><ele>214.0</ele><time>2026-05-01T11:15:23.152Z</time></trkpt><trkpt lat="44.9766567" lon="8.0005467"><ele>215.5</ele><time>2026-05-01T11:15:24.15Z</time></trkpt><trkpt lat="44.9767333" lon="8.0003733"><ele>217.0</ele><time>2026-05-01T11:15:25.156Z</time></trkpt><trkpt lat="44.9768333" lon="8.000195"><ele>217.0</ele><time>2026-05-01T11:15:26.16Z</time></trkpt><trkpt lat="44.9769367" lon="8.0000067"><ele>217.0</ele><time>2026-05-01T11:15:27.155Z</time></trkpt><trkpt lat="44.9770483" lon="7.9998183"><ele>217.0</ele><time>2026-05-01T11:15:28.153Z</time></trkpt><trkpt lat="44.9771633" lon="7.9996383"><ele>217.0</ele><time>2026-05-01T11:15:29.151Z</time></trkpt><trkpt lat="44.9772917" lon="7.99947"><ele>217.0</ele><time>2026-05-01T11:15:30.157Z</time></trkpt><trkpt lat="44.9774383" lon="7.99932"><ele>217.0</ele><time>2026-05-01T11:15:31.154Z</time></trkpt><trkpt lat="44.9776" lon="7.9991817"><ele>217.33333333333331</ele><time>2026-05-01T11:15:32.157Z</time></trkpt><trkpt lat="44.9777717" lon="7.9990283"><ele>217.66666666666669</ele><time>2026-05-01T11:15:33.154Z</time></trkpt><trkpt lat="44.9779433" lon="7.9988867"><ele>218.0</ele><time>2026-05-01T11:15:34.153Z</time></trkpt><trkpt lat="44.9781083" lon="7.9987433"><ele>218.0</ele><time>2026-05-01T11:15:35.156Z</time></trkpt><trkpt lat="44.97827" lon="7.9986033"><ele>218.0</ele><time>2026-05-01T11:15:36.152Z</time></trkpt><trkpt lat="44.978415" lon="7.9984417"><ele>218.0</ele><time>2026-05-01T11:15:37.154Z</time></trkpt><trkpt lat="44.978555" lon="7.99826"><ele>219.0</ele><time>2026-05-01T11:15:38.153Z</time></trkpt><trkpt lat="44.978685" lon="7.99807"><ele>220.0</ele><time>2026-05-01T11:15:39.156Z</time></trkpt><trkpt lat="44.978795" lon="7.9978567"><ele>221.0</ele><time>2026-05-01T11:15:40.152Z</time></trkpt><trkpt lat="44.9788983" lon="7.99763"><ele>219.66666666666669</ele><time>2026-05-01T11:15:41.158Z</time></trkpt><trkpt lat="44.978995" lon="7.99742"><ele>218.33333333333331</ele><time>2026-05-01T11:15:42.152Z</time></trkpt><trkpt lat="44.9790967" lon="7.9972183"><ele>217.0</ele><time>2026-05-01T11:15:43.154Z</time></trkpt><trkpt lat="44.9792133" lon="7.997035"><ele>219.33333333333331</ele><time>2026-05-01T11:15:44.15Z</time></trkpt><trkpt lat="44.9793383" lon="7.9968817"><ele>221.66666666666669</ele><time>2026-05-01T11:15:45.156Z</time></trkpt><trkpt lat="44.9794517" lon="7.9967433"><ele>224.0</ele><time>2026-05-01T11:15:46.153Z</time></trkpt><trkpt lat="44.979545" lon="7.996605"><ele>224.0</ele><time>2026-05-01T11:15:47.154Z</time></trkpt><trkpt lat="44.9796133" lon="7.9964533"><ele>224.0</ele><time>2026-05-01T11:15:48.153Z</time></trkpt><trkpt lat="44.9796433" lon="7.9962867"><ele>224.0</ele><time>2026-05-01T11:15:49.16Z</time></trkpt><trkpt lat="44.9796567" lon="7.9961067"><ele>224.0</ele><time>2026-05-01T11:15:50.154Z</time></trkpt><trkpt lat="44.9796367" lon="7.995935"><ele>222.5</ele><time>2026-05-01T11:15:51.153Z</time></trkpt><trkpt lat="44.9795717" lon="7.9957833"><ele>221.0</ele><time>2026-05-01T11:15:52.157Z</time></trkpt><trkpt lat="44.9794783" lon="7.995655"><ele>219.5</ele><time>2026-05-01T11:15:53.157Z</time></trkpt><trkpt lat="44.97937" lon="7.9955517"><ele>218.0</ele><time>2026-05-01T11:15:54.153Z</time></trkpt><trkpt lat="44.9792333" lon="7.995485"><ele>218.5</ele><time>2026-05-01T11:15:55.157Z</time></trkpt><trkpt lat="44.9790983" lon="7.99542"><ele>219.0</ele><time>2026-05-01T11:15:56.158Z</time></trkpt><trkpt lat="44.97897" lon="7.9953567"><ele>219.5</ele><time>2026-05-01T11:15:57.156Z</time></trkpt><trkpt lat="44.9788617" lon="7.9952783"><ele>220.0</ele><time>2026-05-01T11:15:58.16Z</time></trkpt><trkpt lat="44.978775" lon="7.99518"><ele>220.0</ele><time>2026-05-01T11:15:59.157Z</time></trkpt><trkpt lat="44.9786883" lon="7.995075"><ele>220.0</ele><time>2026-05-01T11:16:00.159Z</time></trkpt><trkpt lat="44.9786667" lon="7.994905"><ele>220.0</ele><time>2026-05-01T11:16:01.154Z</time></trkpt><trkpt lat="44.9786783" lon="7.994685"><ele>220.0</ele><time>2026-05-01T11:16:02.154Z</time></trkpt><trkpt lat="44.9786817" lon="7.994455"><ele>224.66666666666666</ele><time>2026-05-01T11:16:03.154Z</time></trkpt><trkpt lat="44.9786783" lon="7.9942267"><ele>229.33333333333331</ele><time>2026-05-01T11:16:04.155Z</time></trkpt><trkpt lat="44.9786867" lon="7.9940017"><ele>234.0</ele><time>2026-05-01T11:16:05.153Z</time></trkpt><trkpt lat="44.97869" lon="7.993785"><ele>234.66666666666669</ele><time>2026-05-01T11:16:06.159Z</time></trkpt><trkpt lat="44.9786867" lon="7.9935667"><ele>235.33333333333334</ele><time>2026-05-01T11:16:07.155Z</time></trkpt><trkpt lat="44.9786683" lon="7.9933467"><ele>236.0</ele><time>2026-05-01T11:16:08.152Z</time></trkpt><trkpt lat="44.978645" lon="7.99313"><ele>233.33333333333334</ele><time>2026-05-01T11:16:09.153Z</time></trkpt><trkpt lat="44.9785967" lon="7.992925"><ele>230.66666666666669</ele><time>2026-05-01T11:16:10.16Z</time></trkpt><trkpt lat="44.9785383" lon="7.992725"><ele>228.0</ele><time>2026-05-01T11:16:11.154Z</time></trkpt><trkpt lat="44.9785117" lon="7.99252"><ele>226.33333333333331</ele><time>2026-05-01T11:16:12.151Z</time></trkpt><trkpt lat="44.9785033" lon="7.992305"><ele>224.66666666666666</ele><time>2026-05-01T11:16:13.156Z</time></trkpt><trkpt lat="44.9785083" lon="7.992085"><ele>223.0</ele><time>2026-05-01T11:16:14.157Z</time></trkpt><trkpt lat="44.97852" lon="7.9918567"><ele>222.0</ele><time>2026-05-01T11:16:15.155Z</time></trkpt><trkpt lat="44.9785183" lon="7.9916317"><ele>221.0</ele><time>2026-05-01T11:16:16.163Z</time></trkpt><trkpt lat="44.9785067" lon="7.99141"><ele>220.0</ele><time>2026-05-01T11:16:17.157Z</time></trkpt><trkpt lat="44.9784867" lon="7.9911917"><ele>220.0</ele><time>2026-05-01T11:16:18.159Z</time></trkpt><trkpt lat="44.9784417" lon="7.9909767"><ele>220.0</ele><time>2026-05-01T11:16:19.152Z</time></trkpt><trkpt lat="44.978375" lon="7.9907717"><ele>220.0</ele><time>2026-05-01T11:16:20.157Z</time></trkpt><trkpt lat="44.97828" lon="7.99058"><ele>218.66666666666666</ele><time>2026-05-01T11:16:21.152Z</time></trkpt><trkpt lat="44.978165" lon="7.9904017"><ele>217.33333333333331</ele><time>2026-05-01T11:16:22.151Z</time></trkpt><trkpt lat="44.97804" lon="7.99023"><ele>216.0</ele><time>2026-05-01T11:16:23.156Z</time></trkpt><trkpt lat="44.9779167" lon="7.9900567"><ele>215.0</ele><time>2026-05-01T11:16:24.153Z</time></trkpt><trkpt lat="44.9777867" lon="7.9898833"><ele>214.0</ele><time>2026-05-01T11:16:25.153Z</time></trkpt><trkpt lat="44.97765" lon="7.9897117"><ele>213.0</ele><time>2026-05-01T11:16:26.154Z</time></trkpt><trkpt lat="44.9775167" lon="7.9895317"><ele>213.0</ele><time>2026-05-01T11:16:27.152Z</time></trkpt><trkpt lat="44.9773883" lon="7.989345"><ele>213.0</ele><time>2026-05-01T11:16:28.158Z</time></trkpt><trkpt lat="44.9772533" lon="7.9891683"><ele>213.0</ele><time>2026-05-01T11:16:29.151Z</time></trkpt><trkpt lat="44.9771233" lon="7.98899"><ele>214.66666666666669</ele><time>2026-05-01T11:16:30.156Z</time></trkpt><trkpt lat="44.9769917" lon="7.988815"><ele>216.33333333333334</ele><time>2026-05-01T11:16:31.153Z</time></trkpt><trkpt lat="44.9768567" lon="7.9886417"><ele>218.0</ele><time>2026-05-01T11:16:32.157Z</time></trkpt><trkpt lat="44.97673" lon="7.9884633"><ele>215.33333333333334</ele><time>2026-05-01T11:16:33.156Z</time></trkpt><trkpt lat="44.9765967" lon="7.9882967"><ele>212.66666666666669</ele><time>2026-05-01T11:16:34.159Z</time></trkpt><trkpt lat="44.9764567" lon="7.9881417"><ele>210.0</ele><time>2026-05-01T11:16:35.159Z</time></trkpt><trkpt lat="44.9763117" lon="7.9879933"><ele>210.0</ele><time>2026-05-01T11:16:36.156Z</time></trkpt><trkpt lat="44.9761633" lon="7.9878583"><ele>210.0</ele><time>2026-05-01T11:16:37.155Z</time></trkpt><trkpt lat="44.97601" lon="7.9877333"><ele>210.0</ele><time>2026-05-01T11:16:38.158Z</time></trkpt><trkpt lat="44.9758467" lon="7.98762"><ele>208.66666666666669</ele><time>2026-05-01T11:16:39.154Z</time></trkpt><trkpt lat="44.9756733" lon="7.9875217"><ele>207.33333333333334</ele><time>2026-05-01T11:16:40.154Z</time></trkpt><trkpt lat="44.9754983" lon="7.987415"><ele>206.0</ele><time>2026-05-01T11:16:41.157Z</time></trkpt><trkpt lat="44.9753183" lon="7.987315"><ele>206.0</ele><time>2026-05-01T11:16:42.158Z</time></trkpt><trkpt lat="44.9751367" lon="7.9872183"><ele>206.0</ele><time>2026-05-01T11:16:43.159Z</time></trkpt><trkpt lat="44.9749517" lon="7.98712"><ele>206.0</ele><time>2026-05-01T11:16:44.159Z</time></trkpt><trkpt lat="44.9747717" lon="7.9870217"><ele>205.66666666666669</ele><time>2026-05-01T11:16:45.154Z</time></trkpt><trkpt lat="44.974595" lon="7.98692"><ele>205.33333333333331</ele><time>2026-05-01T11:16:46.157Z</time></trkpt><trkpt lat="44.9744117" lon="7.986825"><ele>205.0</ele><time>2026-05-01T11:16:47.158Z</time></trkpt><trkpt lat="44.97423" lon="7.9867233"><ele>205.33333333333331</ele><time>2026-05-01T11:16:48.156Z</time></trkpt><trkpt lat="44.9740517" lon="7.986625"><ele>205.66666666666669</ele><time>2026-05-01T11:16:49.16Z</time></trkpt><trkpt lat="44.9738767" lon="7.9865217"><ele>206.0</ele><time>2026-05-01T11:16:50.155Z</time></trkpt><trkpt lat="44.9737033" lon="7.9864183"><ele>206.0</ele><time>2026-05-01T11:16:51.155Z</time></trkpt><trkpt lat="44.9735333" lon="7.9863083"><ele>206.0</ele><time>2026-05-01T11:16:52.155Z</time></trkpt><trkpt lat="44.9733817" lon="7.9861833"><ele>206.0</ele><time>2026-05-01T11:16:53.165Z</time></trkpt><trkpt lat="44.9732467" lon="7.986035"><ele>205.33333333333334</ele><time>2026-05-01T11:16:54.157Z</time></trkpt><trkpt lat="44.97313" lon="7.9858583"><ele>204.66666666666669</ele><time>2026-05-01T11:16:55.158Z</time></trkpt><trkpt lat="44.9730233" lon="7.985655"><ele>204.0</ele><time>2026-05-01T11:16:56.158Z</time></trkpt><trkpt lat="44.97292" lon="7.9854383"><ele>204.0</ele><time>2026-05-01T11:16:57.157Z</time></trkpt><trkpt lat="44.9728167" lon="7.9852083"><ele>204.0</ele><time>2026-05-01T11:16:58.157Z</time></trkpt><trkpt lat="44.9727117" lon="7.98498"><ele>204.0</ele><time>2026-05-01T11:16:59.156Z</time></trkpt><trkpt lat="44.9725983" lon="7.9847483"><ele>202.33333333333331</ele><time>2026-05-01T11:17:00.161Z</time></trkpt><trkpt lat="44.9724933" lon="7.9845167"><ele>200.66666666666666</ele><time>2026-05-01T11:17:01.156Z</time></trkpt><trkpt lat="44.9723917" lon="7.9842767"><ele>199.0</ele><time>2026-05-01T11:17:02.155Z</time></trkpt><trkpt lat="44.9722883" lon="7.9840383"><ele>199.0</ele><time>2026-05-01T11:17:03.158Z</time></trkpt><trkpt lat="44.9721883" lon="7.9838017"><ele>199.0</ele><time>2026-05-01T11:17:04.156Z</time></trkpt><trkpt lat="44.972085" lon="7.98357"><ele>199.0</ele><time>2026-05-01T11:17:05.158Z</time></trkpt><trkpt lat="44.97198" lon="7.9833417"><ele>199.33333333333331</ele><time>2026-05-01T11:17:06.156Z</time></trkpt><trkpt lat="44.9718783" lon="7.9831083"><ele>199.66666666666669</ele><time>2026-05-01T11:17:07.156Z</time></trkpt><trkpt lat="44.971775" lon="7.9828817"><ele>200.0</ele><time>2026-05-01T11:17:08.157Z</time></trkpt><trkpt lat="44.97167" lon="7.982655"><ele>200.66666666666669</ele><time>2026-05-01T11:17:09.154Z</time></trkpt><trkpt lat="44.9715667" lon="7.98242"><ele>201.33333333333331</ele><time>2026-05-01T11:17:10.158Z</time></trkpt><trkpt lat="44.9714567" lon="7.9821883"><ele>202.0</ele><time>2026-05-01T11:17:11.156Z</time></trkpt><trkpt lat="44.9713533" lon="7.9819417"><ele>202.0</ele><time>2026-05-01T11:17:12.156Z</time></trkpt><trkpt lat="44.9712467" lon="7.981695"><ele>202.0</ele><time>2026-05-01T11:17:13.155Z</time></trkpt><trkpt lat="44.9711417" lon="7.981455"><ele>202.0</ele><time>2026-05-01T11:17:14.16Z</time></trkpt><trkpt lat="44.9710367" lon="7.9812183"><ele>202.33333333333331</ele><time>2026-05-01T11:17:15.155Z</time></trkpt><trkpt lat="44.9709333" lon="7.980985"><ele>202.66666666666669</ele><time>2026-05-01T11:17:16.161Z</time></trkpt><trkpt lat="44.97083" lon="7.9807533"><ele>203.0</ele><time>2026-05-01T11:17:17.157Z</time></trkpt><trkpt lat="44.97073" lon="7.980525"><ele>201.0</ele><time>2026-05-01T11:17:18.156Z</time></trkpt><trkpt lat="44.970635" lon="7.9803"><ele>199.0</ele><time>2026-05-01T11:17:19.158Z</time></trkpt><trkpt lat="44.97055" lon="7.9800733"><ele>197.0</ele><time>2026-05-01T11:17:20.152Z</time></trkpt><trkpt lat="44.9704717" lon="7.9798483"><ele>197.0</ele><time>2026-05-01T11:17:21.163Z</time></trkpt><trkpt lat="44.9704067" lon="7.97962"><ele>197.0</ele><time>2026-05-01T11:17:22.155Z</time></trkpt><trkpt lat="44.9703483" lon="7.979385"><ele>197.0</ele><time>2026-05-01T11:17:23.157Z</time></trkpt><trkpt lat="44.9702917" lon="7.9791467"><ele>197.33333333333334</ele><time>2026-05-01T11:17:24.154Z</time></trkpt><trkpt lat="44.9702383" lon="7.9789033"><ele>197.66666666666669</ele><time>2026-05-01T11:17:25.158Z</time></trkpt><trkpt lat="44.9701833" lon="7.97866"><ele>198.0</ele><time>2026-05-01T11:17:26.159Z</time></trkpt><trkpt lat="44.97012" lon="7.9784183"><ele>197.0</ele><time>2026-05-01T11:17:27.157Z</time></trkpt><trkpt lat="44.9700517" lon="7.9781783"><ele>196.0</ele><time>2026-05-01T11:17:28.153Z</time></trkpt><trkpt lat="44.9699767" lon="7.97794"><ele>195.0</ele><time>2026-05-01T11:17:29.16Z</time></trkpt><trkpt lat="44.9699" lon="7.977705"><ele>194.33333333333331</ele><time>2026-05-01T11:17:30.155Z</time></trkpt><trkpt lat="44.96982" lon="7.9774733"><ele>193.66666666666666</ele><time>2026-05-01T11:17:31.16Z</time></trkpt><trkpt lat="44.9697417" lon="7.977245"><ele>193.0</ele><time>2026-05-01T11:17:32.156Z</time></trkpt><trkpt lat="44.969665" lon="7.97702"><ele>193.0</ele><time>2026-05-01T11:17:33.156Z</time></trkpt><trkpt lat="44.9695917" lon="7.9768083"><ele>193.0</ele><time>2026-05-01T11:17:34.158Z</time></trkpt><trkpt lat="44.9695233" lon="7.9766133"><ele>193.0</ele><time>2026-05-01T11:17:35.157Z</time></trkpt><trkpt lat="44.96946" lon="7.97643"><ele>193.5</ele><time>2026-05-01T11:17:36.157Z</time></trkpt><trkpt lat="44.9693983" lon="7.9762533"><ele>194.0</ele><time>2026-05-01T11:17:37.153Z</time></trkpt><trkpt lat="44.9693433" lon="7.97608"><ele>194.5</ele><time>2026-05-01T11:17:38.152Z</time></trkpt><trkpt lat="44.9692867" lon="7.975905"><ele>195.0</ele><time>2026-05-01T11:17:39.152Z</time></trkpt><trkpt lat="44.9692267" lon="7.9757283"><ele>194.5</ele><time>2026-05-01T11:17:40.156Z</time></trkpt><trkpt lat="44.969165" lon="7.97555"><ele>194.0</ele><time>2026-05-01T11:17:41.158Z</time></trkpt><trkpt lat="44.9691067" lon="7.9753633"><ele>193.5</ele><time>2026-05-01T11:17:42.152Z</time></trkpt><trkpt lat="44.9690433" lon="7.9751833"><ele>193.0</ele><time>2026-05-01T11:17:43.156Z</time></trkpt><trkpt lat="44.9689833" lon="7.975"><ele>193.0</ele><time>2026-05-01T11:17:44.154Z</time></trkpt><trkpt lat="44.9689183" lon="7.9748133"><ele>193.0</ele><time>2026-05-01T11:17:45.152Z</time></trkpt><trkpt lat="44.9688517" lon="7.9746217"><ele>193.0</ele><time>2026-05-01T11:17:46.155Z</time></trkpt><trkpt lat="44.968785" lon="7.9744283"><ele>193.0</ele><time>2026-05-01T11:17:47.159Z</time></trkpt><trkpt lat="44.9687167" lon="7.9742333"><ele>193.0</ele><time>2026-05-01T11:17:48.155Z</time></trkpt><trkpt lat="44.9686467" lon="7.974035"><ele>193.0</ele><time>2026-05-01T11:17:49.156Z</time></trkpt><trkpt lat="44.96858" lon="7.97383"><ele>193.0</ele><time>2026-05-01T11:17:50.154Z</time></trkpt><trkpt lat="44.9685133" lon="7.9736267"><ele>193.0</ele><time>2026-05-01T11:17:51.151Z</time></trkpt><trkpt lat="44.9684483" lon="7.9734283"><ele>193.0</ele><time>2026-05-01T11:17:52.153Z</time></trkpt><trkpt lat="44.9683833" lon="7.973245"><ele>192.25</ele><time>2026-05-01T11:17:53.154Z</time></trkpt><trkpt lat="44.968325" lon="7.973075"><ele>191.5</ele><time>2026-05-01T11:17:54.153Z</time></trkpt><trkpt lat="44.9682783" lon="7.97291"><ele>190.75</ele><time>2026-05-01T11:17:55.16Z</time></trkpt><trkpt lat="44.968235" lon="7.9727567"><ele>190.0</ele><time>2026-05-01T11:17:56.156Z</time></trkpt><trkpt lat="44.968205" lon="7.9726033"><ele>191.0</ele><time>2026-05-01T11:17:57.153Z</time></trkpt><trkpt lat="44.9681933" lon="7.9724433"><ele>192.0</ele><time>2026-05-01T11:17:58.153Z</time></trkpt><trkpt lat="44.9681933" lon="7.97228"><ele>193.0</ele><time>2026-05-01T11:17:59.156Z</time></trkpt><trkpt lat="44.96821" lon="7.9721067"><ele>194.0</ele><time>2026-05-01T11:18:00.156Z</time></trkpt><trkpt lat="44.96823" lon="7.97193"><ele>194.0</ele><time>2026-05-01T11:18:01.159Z</time></trkpt><trkpt lat="44.9682517" lon="7.9717483"><ele>194.0</ele><time>2026-05-01T11:18:02.156Z</time></trkpt><trkpt lat="44.9682717" lon="7.971565"><ele>194.0</ele><time>2026-05-01T11:18:03.158Z</time></trkpt><trkpt lat="44.9683" lon="7.9713717"><ele>194.0</ele><time>2026-05-01T11:18:04.153Z</time></trkpt><trkpt lat="44.9683283" lon="7.9711767"><ele>197.25</ele><time>2026-05-01T11:18:05.155Z</time></trkpt><trkpt lat="44.9683617" lon="7.970975"><ele>200.5</ele><time>2026-05-01T11:18:06.163Z</time></trkpt><trkpt lat="44.9683917" lon="7.970775"><ele>203.75</ele><time>2026-05-01T11:18:07.152Z</time></trkpt><trkpt lat="44.9684217" lon="7.9705733"><ele>207.0</ele><time>2026-05-01T11:18:08.155Z</time></trkpt><trkpt lat="44.9684467" lon="7.9703667"><ele>208.33333333333331</ele><time>2026-05-01T11:18:09.154Z</time></trkpt><trkpt lat="44.968475" lon="7.9701567"><ele>209.66666666666666</ele><time>2026-05-01T11:18:10.156Z</time></trkpt><trkpt lat="44.96851" lon="7.96994"><ele>211.0</ele><time>2026-05-01T11:18:11.158Z</time></trkpt><trkpt lat="44.9685383" lon="7.9697217"><ele>212.33333333333331</ele><time>2026-05-01T11:18:12.152Z</time></trkpt><trkpt lat="44.9685667" lon="7.9695"><ele>213.66666666666669</ele><time>2026-05-01T11:18:13.159Z</time></trkpt><trkpt lat="44.9685967" lon="7.96928"><ele>215.0</ele><time>2026-05-01T11:18:14.152Z</time></trkpt><trkpt lat="44.9686167" lon="7.969065"><ele>215.0</ele><time>2026-05-01T11:18:15.156Z</time></trkpt><trkpt lat="44.968635" lon="7.9688533"><ele>215.0</ele><time>2026-05-01T11:18:16.155Z</time></trkpt><trkpt lat="44.968655" lon="7.9686483"><ele>215.0</ele><time>2026-05-01T11:18:17.152Z</time></trkpt><trkpt lat="44.9686917" lon="7.96845"><ele>215.0</ele><time>2026-05-01T11:18:18.155Z</time></trkpt><trkpt lat="44.96875" lon="7.9682583"><ele>215.0</ele><time>2026-05-01T11:18:19.156Z</time></trkpt><trkpt lat="44.9688283" lon="7.9680783"><ele>215.0</ele><time>2026-05-01T11:18:20.158Z</time></trkpt><trkpt lat="44.9689217" lon="7.9679083"><ele>215.0</ele><time>2026-05-01T11:18:21.155Z</time></trkpt><trkpt lat="44.9690183" lon="7.967745"><ele>215.0</ele><time>2026-05-01T11:18:22.155Z</time></trkpt><trkpt lat="44.9691" lon="7.9675867"><ele>215.0</ele><time>2026-05-01T11:18:23.152Z</time></trkpt><trkpt lat="44.96916" lon="7.9674067"><ele>215.0</ele><time>2026-05-01T11:18:24.153Z</time></trkpt><trkpt lat="44.9691933" lon="7.9672033"><ele>215.0</ele><time>2026-05-01T11:18:25.157Z</time></trkpt><trkpt lat="44.96921" lon="7.9669967"><ele>218.0</ele><time>2026-05-01T11:18:26.161Z</time></trkpt><trkpt lat="44.9692117" lon="7.966785"><ele>221.0</ele><time>2026-05-01T11:18:27.156Z</time></trkpt><trkpt lat="44.9692" lon="7.9665717"><ele>224.0</ele><time>2026-05-01T11:18:28.158Z</time></trkpt><trkpt lat="44.9691667" lon="7.966355"><ele>224.66666666666669</ele><time>2026-05-01T11:18:29.159Z</time></trkpt><trkpt lat="44.9691217" lon="7.966135"><ele>225.33333333333331</ele><time>2026-05-01T11:18:30.155Z</time></trkpt><trkpt lat="44.9690583" lon="7.9659167"><ele>226.0</ele><time>2026-05-01T11:18:31.155Z</time></trkpt><trkpt lat="44.9689983" lon="7.9656933"><ele>227.66666666666666</ele><time>2026-05-01T11:18:32.155Z</time></trkpt><trkpt lat="44.9689483" lon="7.9654633"><ele>229.33333333333331</ele><time>2026-05-01T11:18:33.156Z</time></trkpt><trkpt lat="44.968905" lon="7.9652317"><ele>231.0</ele><time>2026-05-01T11:18:34.157Z</time></trkpt><trkpt lat="44.9688617" lon="7.9649967"><ele>233.66666666666669</ele><time>2026-05-01T11:18:35.159Z</time></trkpt><trkpt lat="44.9688267" lon="7.9647633"><ele>236.33333333333334</ele><time>2026-05-01T11:18:36.155Z</time></trkpt><trkpt lat="44.9687917" lon="7.9645383"><ele>239.0</ele><time>2026-05-01T11:18:37.157Z</time></trkpt><trkpt lat="44.9687567" lon="7.9643217"><ele>241.25</ele><time>2026-05-01T11:18:38.156Z</time></trkpt><trkpt lat="44.9687217" lon="7.9641133"><ele>243.5</ele><time>2026-05-01T11:18:39.159Z</time></trkpt><trkpt lat="44.968675" lon="7.9639217"><ele>245.75</ele><time>2026-05-01T11:18:40.156Z</time></trkpt><trkpt lat="44.9685983" lon="7.9637467"><ele>248.0</ele><time>2026-05-01T11:18:41.155Z</time></trkpt><trkpt lat="44.968485" lon="7.9636"><ele>248.0</ele><time>2026-05-01T11:18:42.157Z</time></trkpt><trkpt lat="44.96836" lon="7.9634583"><ele>248.0</ele><time>2026-05-01T11:18:43.159Z</time></trkpt><trkpt lat="44.9682367" lon="7.963305"><ele>248.0</ele><time>2026-05-01T11:18:44.152Z</time></trkpt><trkpt lat="44.9681083" lon="7.963155"><ele>248.0</ele><time>2026-05-01T11:18:45.158Z</time></trkpt><trkpt lat="44.9679783" lon="7.96302"><ele>248.0</ele><time>2026-05-01T11:18:46.157Z</time></trkpt><trkpt lat="44.9678533" lon="7.96291"><ele>248.0</ele><time>2026-05-01T11:18:47.156Z</time></trkpt><trkpt lat="44.9677233" lon="7.9628483"><ele>248.0</ele><time>2026-05-01T11:18:48.156Z</time></trkpt><trkpt lat="44.9675883" lon="7.9628333"><ele>247.66666666666669</ele><time>2026-05-01T11:18:49.159Z</time></trkpt><trkpt lat="44.9674467" lon="7.9628817"><ele>247.33333333333331</ele><time>2026-05-01T11:18:50.153Z</time></trkpt><trkpt lat="44.9673033" lon="7.9629667"><ele>247.0</ele><time>2026-05-01T11:18:51.16Z</time></trkpt><trkpt lat="44.9671583" lon="7.9630583"><ele>247.0</ele><time>2026-05-01T11:18:52.156Z</time></trkpt><trkpt lat="44.9670083" lon="7.9631567"><ele>247.0</ele><time>2026-05-01T11:18:53.158Z</time></trkpt><trkpt lat="44.966865" lon="7.9632567"><ele>247.0</ele><time>2026-05-01T11:18:54.157Z</time></trkpt><trkpt lat="44.9667317" lon="7.96334"><ele>246.75</ele><time>2026-05-01T11:18:55.157Z</time></trkpt><trkpt lat="44.9665917" lon="7.9633833"><ele>246.5</ele><time>2026-05-01T11:18:56.158Z</time></trkpt><trkpt lat="44.9664433" lon="7.9633983"><ele>246.25</ele><time>2026-05-01T11:18:57.157Z</time></trkpt><trkpt lat="44.9662933" lon="7.963385"><ele>246.0</ele><time>2026-05-01T11:18:58.162Z</time></trkpt><trkpt lat="44.96614" lon="7.9633483"><ele>249.0</ele><time>2026-05-01T11:18:59.157Z</time></trkpt><trkpt lat="44.9659917" lon="7.9633"><ele>252.0</ele><time>2026-05-01T11:19:00.155Z</time></trkpt><trkpt lat="44.9658383" lon="7.9632483"><ele>255.0</ele><time>2026-05-01T11:19:01.16Z</time></trkpt><trkpt lat="44.9656833" lon="7.96321"><ele>255.75</ele><time>2026-05-01T11:19:02.153Z</time></trkpt><trkpt lat="44.965535" lon="7.9631867"><ele>256.5</ele><time>2026-05-01T11:19:03.156Z</time></trkpt><trkpt lat="44.965405" lon="7.9631917"><ele>257.25</ele><time>2026-05-01T11:19:04.159Z</time></trkpt><trkpt lat="44.9652983" lon="7.9632033"><ele>258.0</ele><time>2026-05-01T11:19:05.154Z</time></trkpt><trkpt lat="44.9652083" lon="7.9632117"><ele>258.0</ele><time>2026-05-01T11:19:06.16Z</time></trkpt><trkpt lat="44.9651267" lon="7.96321"><ele>258.0</ele><time>2026-05-01T11:19:07.157Z</time></trkpt><trkpt lat="44.9650517" lon="7.963205"><ele>258.0</ele><time>2026-05-01T11:19:08.154Z</time></trkpt><trkpt lat="44.964975" lon="7.9632067"><ele>258.0</ele><time>2026-05-01T11:19:09.153Z</time></trkpt><trkpt lat="44.96489" lon="7.963225"><ele>258.0</ele><time>2026-05-01T11:19:10.163Z</time></trkpt><trkpt lat="44.9647867" lon="7.9632733"><ele>258.0</ele><time>2026-05-01T11:19:11.154Z</time></trkpt><trkpt lat="44.9646683" lon="7.96333"><ele>258.6666666666667</ele><time>2026-05-01T11:19:12.159Z</time></trkpt><trkpt lat="44.9645317" lon="7.963395"><ele>259.33333333333337</ele><time>2026-05-01T11:19:13.154Z</time></trkpt><trkpt lat="44.9643767" lon="7.9634717"><ele>260.0</ele><time>2026-05-01T11:19:14.152Z</time></trkpt><trkpt lat="44.96421" lon="7.963565"><ele>261.0</ele><time>2026-05-01T11:19:15.156Z</time></trkpt><trkpt lat="44.9640383" lon="7.9636617"><ele>262.0</ele><time>2026-05-01T11:19:16.156Z</time></trkpt><trkpt lat="44.9638617" lon="7.96376"><ele>263.0</ele><time>2026-05-01T11:19:17.158Z</time></trkpt><trkpt lat="44.9636733" lon="7.9638617"><ele>263.0</ele><time>2026-05-01T11:19:18.155Z</time></trkpt><trkpt lat="44.9634817" lon="7.9639683"><ele>263.0</ele><time>2026-05-01T11:19:19.152Z</time></trkpt><trkpt lat="44.96329" lon="7.9640783"><ele>263.0</ele><time>2026-05-01T11:19:20.153Z</time></trkpt><trkpt lat="44.9631" lon="7.964185"><ele>262.6666666666667</ele><time>2026-05-01T11:19:21.151Z</time></trkpt><trkpt lat="44.9629183" lon="7.964285"><ele>262.3333333333333</ele><time>2026-05-01T11:19:22.15Z</time></trkpt><trkpt lat="44.96275" lon="7.9643767"><ele>262.0</ele><time>2026-05-01T11:19:23.151Z</time></trkpt><trkpt lat="44.9626083" lon="7.96445"><ele>262.0</ele><time>2026-05-01T11:19:24.155Z</time></trkpt><trkpt lat="44.9624817" lon="7.9645083"><ele>262.0</ele><time>2026-05-01T11:19:25.153Z</time></trkpt><trkpt lat="44.9623683" lon="7.9645417"><ele>262.0</ele><time>2026-05-01T11:19:26.151Z</time></trkpt><trkpt lat="44.9622583" lon="7.9645417"><ele>262.0</ele><time>2026-05-01T11:19:27.149Z</time></trkpt><trkpt lat="44.9621483" lon="7.964495"><ele>262.0</ele><time>2026-05-01T11:19:28.151Z</time></trkpt><trkpt lat="44.9620367" lon="7.9644033"><ele>262.0</ele><time>2026-05-01T11:19:29.155Z</time></trkpt><trkpt lat="44.96191" lon="7.9643067"><ele>262.0</ele><time>2026-05-01T11:19:30.151Z</time></trkpt><trkpt lat="44.961775" lon="7.9642"><ele>262.0</ele><time>2026-05-01T11:19:31.165Z</time></trkpt><trkpt lat="44.96164" lon="7.964095"><ele>261.5</ele><time>2026-05-01T11:19:32.155Z</time></trkpt><trkpt lat="44.9615067" lon="7.9639917"><ele>261.0</ele><time>2026-05-01T11:19:33.154Z</time></trkpt><trkpt lat="44.9613783" lon="7.9638933"><ele>260.5</ele><time>2026-05-01T11:19:34.155Z</time></trkpt><trkpt lat="44.9612617" lon="7.9638017"><ele>260.0</ele><time>2026-05-01T11:19:35.162Z</time></trkpt><trkpt lat="44.96115" lon="7.9637183"><ele>260.0</ele><time>2026-05-01T11:19:36.154Z</time></trkpt><trkpt lat="44.9610483" lon="7.9636483"><ele>260.0</ele><time>2026-05-01T11:19:37.158Z</time></trkpt><trkpt lat="44.9609633" lon="7.9636083"><ele>260.0</ele><time>2026-05-01T11:19:38.152Z</time></trkpt><trkpt lat="44.9608783" lon="7.96359"><ele>260.0</ele><time>2026-05-01T11:19:39.156Z</time></trkpt><trkpt lat="44.9608017" lon="7.96361"><ele>260.0</ele><time>2026-05-01T11:19:40.165Z</time></trkpt><trkpt lat="44.9607367" lon="7.9636817"><ele>260.0</ele><time>2026-05-01T11:19:41.154Z</time></trkpt><trkpt lat="44.9606983" lon="7.9638183"><ele>259.75</ele><time>2026-05-01T11:19:42.155Z</time></trkpt><trkpt lat="44.9606633" lon="7.964005"><ele>259.5</ele><time>2026-05-01T11:19:43.154Z</time></trkpt><trkpt lat="44.960615" lon="7.9641967"><ele>259.25</ele><time>2026-05-01T11:19:44.157Z</time></trkpt><trkpt lat="44.96055" lon="7.9643567"><ele>259.0</ele><time>2026-05-01T11:19:45.154Z</time></trkpt><trkpt lat="44.9604767" lon="7.9645"><ele>259.25</ele><time>2026-05-01T11:19:46.157Z</time></trkpt><trkpt lat="44.9603767" lon="7.9646083"><ele>259.5</ele><time>2026-05-01T11:19:47.153Z</time></trkpt><trkpt lat="44.9602433" lon="7.964675"><ele>259.75</ele><time>2026-05-01T11:19:48.155Z</time></trkpt><trkpt lat="44.9600917" lon="7.9647267"><ele>260.0</ele><time>2026-05-01T11:19:49.157Z</time></trkpt><trkpt lat="44.9599333" lon="7.9647683"><ele>260.0</ele><time>2026-05-01T11:19:50.157Z</time></trkpt><trkpt lat="44.9597783" lon="7.9648267"><ele>260.0</ele><time>2026-05-01T11:19:51.154Z</time></trkpt><trkpt lat="44.9596283" lon="7.9649083"><ele>260.0</ele><time>2026-05-01T11:19:52.15Z</time></trkpt><trkpt lat="44.9594867" lon="7.9650183"><ele>260.0</ele><time>2026-05-01T11:19:53.156Z</time></trkpt><trkpt lat="44.959355" lon="7.9651583"><ele>260.0</ele><time>2026-05-01T11:19:54.158Z</time></trkpt><trkpt lat="44.9592233" lon="7.9653167"><ele>260.0</ele><time>2026-05-01T11:19:55.152Z</time></trkpt><trkpt lat="44.959085" lon="7.9654717"><ele>260.0</ele><time>2026-05-01T11:19:56.154Z</time></trkpt><trkpt lat="44.9589383" lon="7.9656183"><ele>260.0</ele><time>2026-05-01T11:19:57.162Z</time></trkpt><trkpt lat="44.95878" lon="7.9657483"><ele>260.0</ele><time>2026-05-01T11:19:58.158Z</time></trkpt><trkpt lat="44.9586133" lon="7.9658667"><ele>260.0</ele><time>2026-05-01T11:19:59.155Z</time></trkpt><trkpt lat="44.9584433" lon="7.96598"><ele>260.0</ele><time>2026-05-01T11:20:00.153Z</time></trkpt><trkpt lat="44.95827" lon="7.96608"><ele>260.0</ele><time>2026-05-01T11:20:01.155Z</time></trkpt><trkpt lat="44.9581033" lon="7.9661717"><ele>260.33333333333337</ele><time>2026-05-01T11:20:02.154Z</time></trkpt><trkpt lat="44.95794" lon="7.9662517"><ele>260.6666666666667</ele><time>2026-05-01T11:20:03.153Z</time></trkpt><trkpt lat="44.9577867" lon="7.9663367"><ele>261.0</ele><time>2026-05-01T11:20:04.156Z</time></trkpt><trkpt lat="44.957645" lon="7.96644"><ele>261.0</ele><time>2026-05-01T11:20:05.154Z</time></trkpt><trkpt lat="44.957515" lon="7.96658"><ele>261.0</ele><time>2026-05-01T11:20:06.153Z</time></trkpt><trkpt lat="44.95739" lon="7.9667383"><ele>261.0</ele><time>2026-05-01T11:20:07.153Z</time></trkpt><trkpt lat="44.9572667" lon="7.9669017"><ele>260.6666666666667</ele><time>2026-05-01T11:20:08.16Z</time></trkpt><trkpt lat="44.9571417" lon="7.9670667"><ele>260.33333333333337</ele><time>2026-05-01T11:20:09.152Z</time></trkpt><trkpt lat="44.9570117" lon="7.96723"><ele>260.0</ele><time>2026-05-01T11:20:10.155Z</time></trkpt><trkpt lat="44.9568767" lon="7.9673883"><ele>261.0</ele><time>2026-05-01T11:20:11.154Z</time></trkpt><trkpt lat="44.9567383" lon="7.9675367"><ele>262.0</ele><time>2026-05-01T11:20:12.153Z</time></trkpt><trkpt lat="44.95659" lon="7.9676717"><ele>263.0</ele><time>2026-05-01T11:20:13.158Z</time></trkpt><trkpt lat="44.9564367" lon="7.9677883"><ele>263.0</ele><time>2026-05-01T11:20:14.155Z</time></trkpt><trkpt lat="44.9562767" lon="7.9678817"><ele>263.0</ele><time>2026-05-01T11:20:15.155Z</time></trkpt><trkpt lat="44.9561083" lon="7.967955"><ele>263.0</ele><time>2026-05-01T11:20:16.157Z</time></trkpt><trkpt lat="44.95594" lon="7.9680117"><ele>263.33333333333337</ele><time>2026-05-01T11:20:17.156Z</time></trkpt><trkpt lat="44.9557717" lon="7.968065"><ele>263.6666666666667</ele><time>2026-05-01T11:20:18.159Z</time></trkpt><trkpt lat="44.9556017" lon="7.9681183"><ele>264.0</ele><time>2026-05-01T11:20:19.158Z</time></trkpt><trkpt lat="44.9554333" lon="7.9681717"><ele>264.0</ele><time>2026-05-01T11:20:20.161Z</time></trkpt><trkpt lat="44.955265" lon="7.96823"><ele>264.0</ele><time>2026-05-01T11:20:21.156Z</time></trkpt><trkpt lat="44.9550967" lon="7.9682983"><ele>264.0</ele><time>2026-05-01T11:20:22.158Z</time></trkpt><trkpt lat="44.9549283" lon="7.968375"><ele>263.6666666666667</ele><time>2026-05-01T11:20:23.159Z</time></trkpt><trkpt lat="44.954765" lon="7.968465"><ele>263.33333333333337</ele><time>2026-05-01T11:20:24.161Z</time></trkpt><trkpt lat="44.9546033" lon="7.96856"><ele>263.0</ele><time>2026-05-01T11:20:25.164Z</time></trkpt><trkpt lat="44.9544567" lon="7.9686517"><ele>263.0</ele><time>2026-05-01T11:20:26.156Z</time></trkpt><trkpt lat="44.9543317" lon="7.9687333"><ele>263.0</ele><time>2026-05-01T11:20:27.153Z</time></trkpt><trkpt lat="44.9542233" lon="7.9688083"><ele>263.0</ele><time>2026-05-01T11:20:28.158Z</time></trkpt><trkpt lat="44.95412" lon="7.9688733"><ele>263.0</ele><time>2026-05-01T11:20:29.161Z</time></trkpt><trkpt lat="44.954015" lon="7.9689417"><ele>263.0</ele><time>2026-05-01T11:20:30.159Z</time></trkpt><trkpt lat="44.95391" lon="7.9690117"><ele>263.0</ele><time>2026-05-01T11:20:31.163Z</time></trkpt><trkpt lat="44.9538033" lon="7.9690867"><ele>263.0</ele><time>2026-05-01T11:20:32.159Z</time></trkpt><trkpt lat="44.95369" lon="7.9691633"><ele>263.0</ele><time>2026-05-01T11:20:33.155Z</time></trkpt><trkpt lat="44.95357" lon="7.9692383"><ele>263.0</ele><time>2026-05-01T11:20:34.159Z</time></trkpt><trkpt lat="44.9534467" lon="7.9693"><ele>263.0</ele><time>2026-05-01T11:20:35.159Z</time></trkpt><trkpt lat="44.9533167" lon="7.9693433"><ele>263.0</ele><time>2026-05-01T11:20:36.156Z</time></trkpt><trkpt lat="44.95318" lon="7.9693517"><ele>263.0</ele><time>2026-05-01T11:20:37.156Z</time></trkpt><trkpt lat="44.95304" lon="7.9693217"><ele>263.0</ele><time>2026-05-01T11:20:38.154Z</time></trkpt><trkpt lat="44.952895" lon="7.9692783"><ele>263.0</ele><time>2026-05-01T11:20:39.158Z</time></trkpt><trkpt lat="44.95275" lon="7.9692483"><ele>263.0</ele><time>2026-05-01T11:20:40.16Z</time></trkpt><trkpt lat="44.9526017" lon="7.96923"><ele>263.0</ele><time>2026-05-01T11:20:41.157Z</time></trkpt><trkpt lat="44.9524567" lon="7.9692167"><ele>263.0</ele><time>2026-05-01T11:20:42.154Z</time></trkpt><trkpt lat="44.9523117" lon="7.9692033"><ele>263.0</ele><time>2026-05-01T11:20:43.162Z</time></trkpt><trkpt lat="44.9521667" lon="7.96919"><ele>263.0</ele><time>2026-05-01T11:20:44.163Z</time></trkpt><trkpt lat="44.95203" lon="7.96918"><ele>263.0</ele><time>2026-05-01T11:20:45.153Z</time></trkpt><trkpt lat="44.95189" lon="7.969165"><ele>263.0</ele><time>2026-05-01T11:20:46.156Z</time></trkpt><trkpt lat="44.9517467" lon="7.9691567"><ele>263.0</ele><time>2026-05-01T11:20:47.161Z</time></trkpt><trkpt lat="44.9516033" lon="7.9691467"><ele>263.0</ele><time>2026-05-01T11:20:48.161Z</time></trkpt><trkpt lat="44.95147" lon="7.9691417"><ele>263.0</ele><time>2026-05-01T11:20:49.155Z</time></trkpt><trkpt lat="44.9513433" lon="7.9691367"><ele>263.0</ele><time>2026-05-01T11:20:50.157Z</time></trkpt><trkpt lat="44.95123" lon="7.969135"><ele>263.0</ele><time>2026-05-01T11:20:51.157Z</time></trkpt><trkpt lat="44.951125" lon="7.969135"><ele>263.0</ele><time>2026-05-01T11:20:52.159Z</time></trkpt><trkpt lat="44.9510317" lon="7.9691417"><ele>263.0</ele><time>2026-05-01T11:20:53.155Z</time></trkpt><trkpt lat="44.9509467" lon="7.96914"><ele>263.0</ele><time>2026-05-01T11:20:54.155Z</time></trkpt><trkpt lat="44.9508617" lon="7.9691333"><ele>262.75</ele><time>2026-05-01T11:20:55.156Z</time></trkpt><trkpt lat="44.95077" lon="7.96912"><ele>262.5</ele><time>2026-05-01T11:20:56.155Z</time></trkpt><trkpt lat="44.9506683" lon="7.9690983"><ele>262.25</ele><time>2026-05-01T11:20:57.157Z</time></trkpt><trkpt lat="44.95055" lon="7.9690683"><ele>262.0</ele><time>2026-05-01T11:20:58.16Z</time></trkpt><trkpt lat="44.9504167" lon="7.9690367"><ele>262.0</ele><time>2026-05-01T11:20:59.156Z</time></trkpt><trkpt lat="44.9502817" lon="7.9690033"><ele>262.0</ele><time>2026-05-01T11:21:00.155Z</time></trkpt><trkpt lat="44.9501467" lon="7.968965"><ele>262.0</ele><time>2026-05-01T11:21:01.154Z</time></trkpt><trkpt lat="44.9500167" lon="7.96892"><ele>262.0</ele><time>2026-05-01T11:21:02.157Z</time></trkpt><trkpt lat="44.9498817" lon="7.9688717"><ele>262.0</ele><time>2026-05-01T11:21:03.154Z</time></trkpt><trkpt lat="44.9497433" lon="7.9688383"><ele>262.0</ele><time>2026-05-01T11:21:04.158Z</time></trkpt><trkpt lat="44.9495983" lon="7.9688283"><ele>262.0</ele><time>2026-05-01T11:21:05.156Z</time></trkpt><trkpt lat="44.9494517" lon="7.9688383"><ele>262.0</ele><time>2026-05-01T11:21:06.159Z</time></trkpt><trkpt lat="44.9493033" lon="7.96886"><ele>262.0</ele><time>2026-05-01T11:21:07.163Z</time></trkpt><trkpt lat="44.9491533" lon="7.9688817"><ele>262.0</ele><time>2026-05-01T11:21:08.155Z</time></trkpt><trkpt lat="44.949" lon="7.9689083"><ele>262.0</ele><time>2026-05-01T11:21:09.162Z</time></trkpt><trkpt lat="44.9488483" lon="7.96892"><ele>262.0</ele><time>2026-05-01T11:21:10.164Z</time></trkpt><trkpt lat="44.9486967" lon="7.9689017"><ele>262.0</ele><time>2026-05-01T11:21:11.156Z</time></trkpt><trkpt lat="44.9485483" lon="7.9688567"><ele>262.0</ele><time>2026-05-01T11:21:12.157Z</time></trkpt><trkpt lat="44.948395" lon="7.9688017"><ele>261.0</ele><time>2026-05-01T11:21:13.154Z</time></trkpt><trkpt lat="44.9482417" lon="7.96875"><ele>260.0</ele><time>2026-05-01T11:21:14.162Z</time></trkpt><trkpt lat="44.9480867" lon="7.968705"><ele>259.0</ele><time>2026-05-01T11:21:15.154Z</time></trkpt><trkpt lat="44.9479433" lon="7.9686667"><ele>259.0</ele><time>2026-05-01T11:21:16.154Z</time></trkpt><trkpt lat="44.9477983" lon="7.9686233"><ele>259.0</ele><time>2026-05-01T11:21:17.153Z</time></trkpt><trkpt lat="44.94766" lon="7.96857"><ele>259.0</ele><time>2026-05-01T11:21:18.154Z</time></trkpt><trkpt lat="44.94752" lon="7.9685"><ele>259.0</ele><time>2026-05-01T11:21:19.155Z</time></trkpt><trkpt lat="44.9473767" lon="7.9684117"><ele>259.0</ele><time>2026-05-01T11:21:20.157Z</time></trkpt><trkpt lat="44.9472283" lon="7.968315"><ele>259.0</ele><time>2026-05-01T11:21:21.156Z</time></trkpt><trkpt lat="44.9470733" lon="7.9682133"><ele>259.0</ele><time>2026-05-01T11:21:22.156Z</time></trkpt><trkpt lat="44.9469067" lon="7.96811"><ele>259.0</ele><time>2026-05-01T11:21:23.159Z</time></trkpt><trkpt lat="44.94673" lon="7.9680167"><ele>259.0</ele><time>2026-05-01T11:21:24.157Z</time></trkpt><trkpt lat="44.946545" lon="7.9679367"><ele>259.0</ele><time>2026-05-01T11:21:25.159Z</time></trkpt><trkpt lat="44.9463533" lon="7.9678783"><ele>258.66666666666663</ele><time>2026-05-01T11:21:26.157Z</time></trkpt><trkpt lat="44.946155" lon="7.96784"><ele>258.3333333333333</ele><time>2026-05-01T11:21:27.159Z</time></trkpt><trkpt lat="44.9459483" lon="7.9678283"><ele>258.0</ele><time>2026-05-01T11:21:28.152Z</time></trkpt><trkpt lat="44.9457367" lon="7.967835"><ele>258.0</ele><time>2026-05-01T11:21:29.159Z</time></trkpt><trkpt lat="44.9455283" lon="7.9678433"><ele>258.0</ele><time>2026-05-01T11:21:30.154Z</time></trkpt><trkpt lat="44.9453217" lon="7.9678433"><ele>258.0</ele><time>2026-05-01T11:21:31.156Z</time></trkpt><trkpt lat="44.94512" lon="7.9678283"><ele>258.3333333333333</ele><time>2026-05-01T11:21:32.149Z</time></trkpt><trkpt lat="44.9449267" lon="7.9678"><ele>258.66666666666663</ele><time>2026-05-01T11:21:33.155Z</time></trkpt><trkpt lat="44.9447417" lon="7.967755"><ele>259.0</ele><time>2026-05-01T11:21:34.154Z</time></trkpt><trkpt lat="44.9445583" lon="7.9676983"><ele>259.0</ele><time>2026-05-01T11:21:35.154Z</time></trkpt><trkpt lat="44.94438" lon="7.96764"><ele>259.0</ele><time>2026-05-01T11:21:36.16Z</time></trkpt><trkpt lat="44.9442033" lon="7.9675833"><ele>259.0</ele><time>2026-05-01T11:21:37.152Z</time></trkpt><trkpt lat="44.9440267" lon="7.9675267"><ele>259.66666666666663</ele><time>2026-05-01T11:21:38.158Z</time></trkpt><trkpt lat="44.9438483" lon="7.9674667"><ele>260.3333333333333</ele><time>2026-05-01T11:21:39.153Z</time></trkpt><trkpt lat="44.9436733" lon="7.9674083"><ele>261.0</ele><time>2026-05-01T11:21:40.15Z</time></trkpt><trkpt lat="44.9434967" lon="7.96735"><ele>261.0</ele><time>2026-05-01T11:21:41.153Z</time></trkpt><trkpt lat="44.943325" lon="7.9672933"><ele>261.0</ele><time>2026-05-01T11:21:42.153Z</time></trkpt><trkpt lat="44.9431483" lon="7.967235"><ele>261.0</ele><time>2026-05-01T11:21:43.156Z</time></trkpt><trkpt lat="44.9429733" lon="7.9671817"><ele>261.0</ele><time>2026-05-01T11:21:44.153Z</time></trkpt><trkpt lat="44.9427983" lon="7.9671383"><ele>261.0</ele><time>2026-05-01T11:21:45.153Z</time></trkpt><trkpt lat="44.94262" lon="7.9671033"><ele>261.0</ele><time>2026-05-01T11:21:46.157Z</time></trkpt><trkpt lat="44.9424417" lon="7.9670833"><ele>260.0</ele><time>2026-05-01T11:21:47.158Z</time></trkpt><trkpt lat="44.9422617" lon="7.9670767"><ele>259.0</ele><time>2026-05-01T11:21:48.152Z</time></trkpt><trkpt lat="44.94208" lon="7.9670817"><ele>258.0</ele><time>2026-05-01T11:21:49.157Z</time></trkpt><trkpt lat="44.9418967" lon="7.9670917"><ele>258.0</ele><time>2026-05-01T11:21:50.159Z</time></trkpt><trkpt lat="44.9417117" lon="7.9671083"><ele>258.0</ele><time>2026-05-01T11:21:51.155Z</time></trkpt><trkpt lat="44.9415233" lon="7.9671333"><ele>258.0</ele><time>2026-05-01T11:21:52.154Z</time></trkpt><trkpt lat="44.9413333" lon="7.9671633"><ele>258.0</ele><time>2026-05-01T11:21:53.153Z</time></trkpt><trkpt lat="44.941145" lon="7.9671967"><ele>258.0</ele><time>2026-05-01T11:21:54.154Z</time></trkpt><trkpt lat="44.9409567" lon="7.967245"><ele>258.0</ele><time>2026-05-01T11:21:55.156Z</time></trkpt><trkpt lat="44.9407683" lon="7.9673083"><ele>258.6666666666667</ele><time>2026-05-01T11:21:56.154Z</time></trkpt><trkpt lat="44.9405817" lon="7.9673867"><ele>259.33333333333337</ele><time>2026-05-01T11:21:57.157Z</time></trkpt><trkpt lat="44.9403933" lon="7.9674733"><ele>260.0</ele><time>2026-05-01T11:21:58.154Z</time></trkpt><trkpt lat="44.940205" lon="7.9675567"><ele>258.33333333333337</ele><time>2026-05-01T11:21:59.155Z</time></trkpt><trkpt lat="44.9400133" lon="7.9676233"><ele>256.6666666666667</ele><time>2026-05-01T11:22:00.155Z</time></trkpt><trkpt lat="44.9398183" lon="7.9676767"><ele>255.0</ele><time>2026-05-01T11:22:01.154Z</time></trkpt><trkpt lat="44.9396267" lon="7.9677233"><ele>255.0</ele><time>2026-05-01T11:22:02.154Z</time></trkpt><trkpt lat="44.9394383" lon="7.9677667"><ele>255.0</ele><time>2026-05-01T11:22:03.152Z</time></trkpt><trkpt lat="44.9392567" lon="7.9678083"><ele>255.0</ele><time>2026-05-01T11:22:04.158Z</time></trkpt><trkpt lat="44.9390867" lon="7.9678467"><ele>257.3333333333333</ele><time>2026-05-01T11:22:05.153Z</time></trkpt><trkpt lat="44.938925" lon="7.9678867"><ele>259.66666666666663</ele><time>2026-05-01T11:22:06.157Z</time></trkpt><trkpt lat="44.9387717" lon="7.9679417"><ele>262.0</ele><time>2026-05-01T11:22:07.155Z</time></trkpt><trkpt lat="44.9386283" lon="7.9680183"><ele>262.0</ele><time>2026-05-01T11:22:08.16Z</time></trkpt><trkpt lat="44.9384883" lon="7.9681217"><ele>262.0</ele><time>2026-05-01T11:22:09.156Z</time></trkpt><trkpt lat="44.9383483" lon="7.96823"><ele>262.0</ele><time>2026-05-01T11:22:10.155Z</time></trkpt><trkpt lat="44.9382083" lon="7.9683433"><ele>261.66666666666663</ele><time>2026-05-01T11:22:11.159Z</time></trkpt><trkpt lat="44.9380633" lon="7.9684567"><ele>261.3333333333333</ele><time>2026-05-01T11:22:12.157Z</time></trkpt><trkpt lat="44.937915" lon="7.9685683"><ele>261.0</ele><time>2026-05-01T11:22:13.157Z</time></trkpt><trkpt lat="44.937765" lon="7.9686817"><ele>261.0</ele><time>2026-05-01T11:22:14.156Z</time></trkpt><trkpt lat="44.9376117" lon="7.9687967"><ele>261.0</ele><time>2026-05-01T11:22:15.157Z</time></trkpt><trkpt lat="44.93746" lon="7.9689183"><ele>261.0</ele><time>2026-05-01T11:22:16.154Z</time></trkpt><trkpt lat="44.93731" lon="7.9690533"><ele>260.0</ele><time>2026-05-01T11:22:17.155Z</time></trkpt><trkpt lat="44.937165" lon="7.9692067"><ele>259.0</ele><time>2026-05-01T11:22:18.16Z</time></trkpt><trkpt lat="44.9370267" lon="7.9693767"><ele>258.0</ele><time>2026-05-01T11:22:19.163Z</time></trkpt><trkpt lat="44.9368883" lon="7.9695567"><ele>258.0</ele><time>2026-05-01T11:22:20.159Z</time></trkpt><trkpt lat="44.93675" lon="7.9697417"><ele>258.0</ele><time>2026-05-01T11:22:21.156Z</time></trkpt><trkpt lat="44.9366033" lon="7.9699183"><ele>258.0</ele><time>2026-05-01T11:22:22.153Z</time></trkpt><trkpt lat="44.9364483" lon="7.970085"><ele>257.3333333333333</ele><time>2026-05-01T11:22:23.161Z</time></trkpt><trkpt lat="44.9362867" lon="7.9702417"><ele>256.66666666666663</ele><time>2026-05-01T11:22:24.155Z</time></trkpt><trkpt lat="44.93612" lon="7.97039"><ele>256.0</ele><time>2026-05-01T11:22:25.153Z</time></trkpt><trkpt lat="44.9359533" lon="7.970535"><ele>257.0</ele><time>2026-05-01T11:22:26.157Z</time></trkpt><trkpt lat="44.9357867" lon="7.9706767"><ele>258.0</ele><time>2026-05-01T11:22:27.155Z</time></trkpt><trkpt lat="44.93562" lon="7.97082"><ele>259.0</ele><time>2026-05-01T11:22:28.156Z</time></trkpt><trkpt lat="44.935455" lon="7.9709667"><ele>259.0</ele><time>2026-05-01T11:22:29.155Z</time></trkpt><trkpt lat="44.9352883" lon="7.971115"><ele>259.0</ele><time>2026-05-01T11:22:30.156Z</time></trkpt><trkpt lat="44.9351233" lon="7.9712633"><ele>259.0</ele><time>2026-05-01T11:22:31.168Z</time></trkpt><trkpt lat="44.9349583" lon="7.9714117"><ele>260.0</ele><time>2026-05-01T11:22:32.154Z</time></trkpt><trkpt lat="44.9347917" lon="7.97156"><ele>261.0</ele><time>2026-05-01T11:22:33.151Z</time></trkpt><trkpt lat="44.9346233" lon="7.971705"><ele>262.0</ele><time>2026-05-01T11:22:34.156Z</time></trkpt><trkpt lat="44.9344567" lon="7.9718417"><ele>262.0</ele><time>2026-05-01T11:22:35.155Z</time></trkpt><trkpt lat="44.9342917" lon="7.971965"><ele>262.0</ele><time>2026-05-01T11:22:36.156Z</time></trkpt><trkpt lat="44.934125" lon="7.9720667"><ele>262.0</ele><time>2026-05-01T11:22:37.156Z</time></trkpt><trkpt lat="44.9339517" lon="7.9721417"><ele>262.0</ele><time>2026-05-01T11:22:38.159Z</time></trkpt><trkpt lat="44.9337733" lon="7.9721933"><ele>262.0</ele><time>2026-05-01T11:22:39.159Z</time></trkpt><trkpt lat="44.9335917" lon="7.972235"><ele>262.0</ele><time>2026-05-01T11:22:40.158Z</time></trkpt><trkpt lat="44.93341" lon="7.9722733"><ele>261.66666666666663</ele><time>2026-05-01T11:22:41.155Z</time></trkpt><trkpt lat="44.9332283" lon="7.9723133"><ele>261.3333333333333</ele><time>2026-05-01T11:22:42.153Z</time></trkpt><trkpt lat="44.9330467" lon="7.9723483"><ele>261.0</ele><time>2026-05-01T11:22:43.16Z</time></trkpt><trkpt lat="44.932865" lon="7.9723817"><ele>261.0</ele><time>2026-05-01T11:22:44.15Z</time></trkpt><trkpt lat="44.932685" lon="7.9724133"><ele>261.0</ele><time>2026-05-01T11:22:45.153Z</time></trkpt><trkpt lat="44.9325033" lon="7.9724467"><ele>261.0</ele><time>2026-05-01T11:22:46.154Z</time></trkpt><trkpt lat="44.9323217" lon="7.97248"><ele>261.0</ele><time>2026-05-01T11:22:47.157Z</time></trkpt><trkpt lat="44.93214" lon="7.9725133"><ele>261.0</ele><time>2026-05-01T11:22:48.155Z</time></trkpt><trkpt lat="44.9319617" lon="7.9725467"><ele>261.0</ele><time>2026-05-01T11:22:49.154Z</time></trkpt><trkpt lat="44.9317833" lon="7.9725833"><ele>262.0</ele><time>2026-05-01T11:22:50.153Z</time></trkpt><trkpt lat="44.9316083" lon="7.9726183"><ele>263.0</ele><time>2026-05-01T11:22:51.155Z</time></trkpt><trkpt lat="44.931435" lon="7.97265"><ele>264.0</ele><time>2026-05-01T11:22:52.157Z</time></trkpt><trkpt lat="44.931265" lon="7.9726817"><ele>264.0</ele><time>2026-05-01T11:22:53.158Z</time></trkpt><trkpt lat="44.9310967" lon="7.9727133"><ele>264.0</ele><time>2026-05-01T11:22:54.155Z</time></trkpt><trkpt lat="44.9309333" lon="7.972745"><ele>264.0</ele><time>2026-05-01T11:22:55.155Z</time></trkpt><trkpt lat="44.93078" lon="7.97277"><ele>263.6666666666667</ele><time>2026-05-01T11:22:56.16Z</time></trkpt><trkpt lat="44.9306267" lon="7.9727867"><ele>263.33333333333337</ele><time>2026-05-01T11:22:57.161Z</time></trkpt><trkpt lat="44.930475" lon="7.9727883"><ele>263.0</ele><time>2026-05-01T11:22:58.155Z</time></trkpt><trkpt lat="44.9303267" lon="7.9727583"><ele>263.0</ele><time>2026-05-01T11:22:59.16Z</time></trkpt><trkpt lat="44.9301833" lon="7.972705"><ele>263.0</ele><time>2026-05-01T11:23:00.157Z</time></trkpt><trkpt lat="44.9300517" lon="7.972635"><ele>263.0</ele><time>2026-05-01T11:23:01.155Z</time></trkpt><trkpt lat="44.9299233" lon="7.9725583"><ele>263.0</ele><time>2026-05-01T11:23:02.152Z</time></trkpt><trkpt lat="44.9298017" lon="7.9724833"><ele>263.25</ele><time>2026-05-01T11:23:03.154Z</time></trkpt><trkpt lat="44.9296783" lon="7.972425"><ele>263.5</ele><time>2026-05-01T11:23:04.157Z</time></trkpt><trkpt lat="44.9295567" lon="7.9723833"><ele>263.75</ele><time>2026-05-01T11:23:05.155Z</time></trkpt><trkpt lat="44.9294333" lon="7.9723617"><ele>264.0</ele><time>2026-05-01T11:23:06.153Z</time></trkpt><trkpt lat="44.9293117" lon="7.9723517"><ele>264.0</ele><time>2026-05-01T11:23:07.155Z</time></trkpt><trkpt lat="44.92919" lon="7.9723483"><ele>264.0</ele><time>2026-05-01T11:23:08.154Z</time></trkpt><trkpt lat="44.92907" lon="7.9723517"><ele>264.0</ele><time>2026-05-01T11:23:09.151Z</time></trkpt><trkpt lat="44.9289517" lon="7.9723583"><ele>264.0</ele><time>2026-05-01T11:23:10.156Z</time></trkpt><trkpt lat="44.9288317" lon="7.9723683"><ele>264.0</ele><time>2026-05-01T11:23:11.153Z</time></trkpt><trkpt lat="44.9287133" lon="7.9723783"><ele>264.0</ele><time>2026-05-01T11:23:12.152Z</time></trkpt><trkpt lat="44.9285933" lon="7.97239"><ele>264.0</ele><time>2026-05-01T11:23:13.156Z</time></trkpt><trkpt lat="44.9284717" lon="7.9724083"><ele>264.0</ele><time>2026-05-01T11:23:14.155Z</time></trkpt><trkpt lat="44.92835" lon="7.9724317"><ele>264.0</ele><time>2026-05-01T11:23:15.155Z</time></trkpt><trkpt lat="44.9282267" lon="7.9724633"><ele>264.0</ele><time>2026-05-01T11:23:16.157Z</time></trkpt><trkpt lat="44.9281033" lon="7.972505"><ele>264.0</ele><time>2026-05-01T11:23:17.155Z</time></trkpt><trkpt lat="44.9279767" lon="7.972555"><ele>264.0</ele><time>2026-05-01T11:23:18.159Z</time></trkpt><trkpt lat="44.92785" lon="7.9726033"><ele>264.0</ele><time>2026-05-01T11:23:19.157Z</time></trkpt><trkpt lat="44.9277267" lon="7.9726583"><ele>264.0</ele><time>2026-05-01T11:23:20.162Z</time></trkpt><trkpt lat="44.9276033" lon="7.9727033"><ele>264.0</ele><time>2026-05-01T11:23:21.157Z</time></trkpt><trkpt lat="44.92748" lon="7.9727467"><ele>264.0</ele><time>2026-05-01T11:23:22.162Z</time></trkpt><trkpt lat="44.927355" lon="7.9727767"><ele>263.5</ele><time>2026-05-01T11:23:23.155Z</time></trkpt><trkpt lat="44.92723" lon="7.972805"><ele>263.0</ele><time>2026-05-01T11:23:24.154Z</time></trkpt><trkpt lat="44.927105" lon="7.97283"><ele>262.5</ele><time>2026-05-01T11:23:25.163Z</time></trkpt><trkpt lat="44.9269783" lon="7.9728433"><ele>262.0</ele><time>2026-05-01T11:23:26.158Z</time></trkpt><trkpt lat="44.926855" lon="7.9728583"><ele>262.0</ele><time>2026-05-01T11:23:27.157Z</time></trkpt><trkpt lat="44.9267283" lon="7.9728733"><ele>262.0</ele><time>2026-05-01T11:23:28.156Z</time></trkpt><trkpt lat="44.9266033" lon="7.9728867"><ele>262.0</ele><time>2026-05-01T11:23:29.158Z</time></trkpt><trkpt lat="44.9264733" lon="7.9729117"><ele>262.0</ele><time>2026-05-01T11:23:30.159Z</time></trkpt><trkpt lat="44.9263433" lon="7.9729417"><ele>261.75</ele><time>2026-05-01T11:23:31.159Z</time></trkpt><trkpt lat="44.92622" lon="7.9729783"><ele>261.5</ele><time>2026-05-01T11:23:32.155Z</time></trkpt><trkpt lat="44.9260933" lon="7.973015"><ele>261.25</ele><time>2026-05-01T11:23:33.156Z</time></trkpt><trkpt lat="44.92597" lon="7.9730517"><ele>261.0</ele><time>2026-05-01T11:23:34.158Z</time></trkpt><trkpt lat="44.9258533" lon="7.973095"><ele>261.5</ele><time>2026-05-01T11:23:35.156Z</time></trkpt><trkpt lat="44.9257317" lon="7.973135"><ele>262.0</ele><time>2026-05-01T11:23:36.155Z</time></trkpt><trkpt lat="44.92561" lon="7.9731767"><ele>262.5</ele><time>2026-05-01T11:23:37.154Z</time></trkpt><trkpt lat="44.9254883" lon="7.9732183"><ele>263.0</ele><time>2026-05-01T11:23:38.153Z</time></trkpt><trkpt lat="44.9253767" lon="7.9732667"><ele>263.0</ele><time>2026-05-01T11:23:39.156Z</time></trkpt><trkpt lat="44.9252767" lon="7.9733183"><ele>263.0</ele><time>2026-05-01T11:23:40.156Z</time></trkpt><trkpt lat="44.925185" lon="7.9733783"><ele>263.0</ele><time>2026-05-01T11:23:41.156Z</time></trkpt><trkpt lat="44.9251033" lon="7.9734517"><ele>263.0</ele><time>2026-05-01T11:23:42.158Z</time></trkpt><trkpt lat="44.9250233" lon="7.9735217"><ele>263.0</ele><time>2026-05-01T11:23:43.157Z</time></trkpt><trkpt lat="44.9249417" lon="7.9735917"><ele>262.0</ele><time>2026-05-01T11:23:44.159Z</time></trkpt><trkpt lat="44.92486" lon="7.9736433"><ele>261.0</ele><time>2026-05-01T11:23:45.161Z</time></trkpt><trkpt lat="44.92477" lon="7.9736883"><ele>260.0</ele><time>2026-05-01T11:23:46.154Z</time></trkpt><trkpt lat="44.924675" lon="7.9737283"><ele>259.0</ele><time>2026-05-01T11:23:47.156Z</time></trkpt><trkpt lat="44.924565" lon="7.97376"><ele>258.0</ele><time>2026-05-01T11:23:48.156Z</time></trkpt><trkpt lat="44.924445" lon="7.9737767"><ele>258.0</ele><time>2026-05-01T11:23:49.156Z</time></trkpt><trkpt lat="44.9243167" lon="7.9737833"><ele>258.0</ele><time>2026-05-01T11:23:50.154Z</time></trkpt><trkpt lat="44.924185" lon="7.9737883"><ele>258.0</ele><time>2026-05-01T11:23:51.158Z</time></trkpt><trkpt lat="44.9240483" lon="7.9737867"><ele>258.0</ele><time>2026-05-01T11:23:52.154Z</time></trkpt><trkpt lat="44.9239133" lon="7.9737783"><ele>259.75</ele><time>2026-05-01T11:23:53.153Z</time></trkpt><trkpt lat="44.9237767" lon="7.9737783"><ele>261.5</ele><time>2026-05-01T11:23:54.152Z</time></trkpt><trkpt lat="44.9236433" lon="7.9737783"><ele>263.25</ele><time>2026-05-01T11:23:55.154Z</time></trkpt><trkpt lat="44.9235217" lon="7.9737767"><ele>265.0</ele><time>2026-05-01T11:23:56.153Z</time></trkpt><trkpt lat="44.9234017" lon="7.9737717"><ele>265.2</ele><time>2026-05-01T11:23:57.157Z</time></trkpt><trkpt lat="44.9232883" lon="7.9737617"><ele>265.4</ele><time>2026-05-01T11:23:58.153Z</time></trkpt><trkpt lat="44.9231833" lon="7.9737533"><ele>265.6</ele><time>2026-05-01T11:23:59.155Z</time></trkpt><trkpt lat="44.9230933" lon="7.9737467"><ele>265.8</ele><time>2026-05-01T11:24:00.155Z</time></trkpt><trkpt lat="44.9230217" lon="7.9737483"><ele>266.0</ele><time>2026-05-01T11:24:01.157Z</time></trkpt><trkpt lat="44.9229217" lon="7.97374"><ele>266.0</ele><time>2026-05-01T11:24:03.154Z</time></trkpt><trkpt lat="44.9228367" lon="7.97369"><ele>266.0</ele><time>2026-05-01T11:24:12.157Z</time></trkpt><trkpt lat="44.9226967" lon="7.9737067"><ele>266.0</ele><time>2026-05-01T11:24:14.16Z</time></trkpt><trkpt lat="44.9226083" lon="7.97371"><ele>266.0</ele><time>2026-05-01T11:24:15.152Z</time></trkpt><trkpt lat="44.922515" lon="7.9737133"><ele>266.0</ele><time>2026-05-01T11:24:16.157Z</time></trkpt><trkpt lat="44.9223933" lon="7.973715"><ele>266.0</ele><time>2026-05-01T11:24:17.154Z</time></trkpt><trkpt lat="44.9222717" lon="7.973715"><ele>266.0</ele><time>2026-05-01T11:24:18.153Z</time></trkpt><trkpt lat="44.9221467" lon="7.9737167"><ele>266.0</ele><time>2026-05-01T11:24:19.155Z</time></trkpt><trkpt lat="44.9220217" lon="7.9737217"><ele>266.0</ele><time>2026-05-01T11:24:20.158Z</time></trkpt><trkpt lat="44.92189" lon="7.973725"><ele>266.0</ele><time>2026-05-01T11:24:21.154Z</time></trkpt><trkpt lat="44.9217467" lon="7.9737317"><ele>266.0</ele><time>2026-05-01T11:24:22.155Z</time></trkpt><trkpt lat="44.9215967" lon="7.9737367"><ele>266.0</ele><time>2026-05-01T11:24:23.153Z</time></trkpt><trkpt lat="44.9214467" lon="7.973735"><ele>266.0</ele><time>2026-05-01T11:24:24.155Z</time></trkpt><trkpt lat="44.9212933" lon="7.97374"><ele>266.0</ele><time>2026-05-01T11:24:25.153Z</time></trkpt><trkpt lat="44.92114" lon="7.973745"><ele>266.0</ele><time>2026-05-01T11:24:26.151Z</time></trkpt><trkpt lat="44.9209783" lon="7.973755"><ele>266.0</ele><time>2026-05-01T11:24:27.154Z</time></trkpt><trkpt lat="44.9208133" lon="7.97376"><ele>266.0</ele><time>2026-05-01T11:24:28.153Z</time></trkpt><trkpt lat="44.9206483" lon="7.9737633"><ele>266.0</ele><time>2026-05-01T11:24:29.156Z</time></trkpt><trkpt lat="44.9204917" lon="7.973775"><ele>266.0</ele><time>2026-05-01T11:24:30.152Z</time></trkpt><trkpt lat="44.920345" lon="7.9737817"><ele>266.0</ele><time>2026-05-01T11:24:31.156Z</time></trkpt><trkpt lat="44.920205" lon="7.9737833"><ele>266.0</ele><time>2026-05-01T11:24:32.162Z</time></trkpt><trkpt lat="44.92007" lon="7.9737733"><ele>266.0</ele><time>2026-05-01T11:24:33.157Z</time></trkpt><trkpt lat="44.91994" lon="7.97375"><ele>266.0</ele><time>2026-05-01T11:24:34.155Z</time></trkpt><trkpt lat="44.9198217" lon="7.9737167"><ele>266.0</ele><time>2026-05-01T11:24:35.154Z</time></trkpt><trkpt lat="44.91971" lon="7.9736817"><ele>266.0</ele><time>2026-05-01T11:24:36.154Z</time></trkpt><trkpt lat="44.9195933" lon="7.9736533"><ele>266.0</ele><time>2026-05-01T11:24:37.156Z</time></trkpt><trkpt lat="44.9194717" lon="7.973625"><ele>266.0</ele><time>2026-05-01T11:24:38.157Z</time></trkpt><trkpt lat="44.9193533" lon="7.97359"><ele>266.0</ele><time>2026-05-01T11:24:39.151Z</time></trkpt><trkpt lat="44.9192383" lon="7.973545"><ele>266.0</ele><time>2026-05-01T11:24:40.155Z</time></trkpt><trkpt lat="44.9191233" lon="7.9734817"><ele>266.0</ele><time>2026-05-01T11:24:41.153Z</time></trkpt><trkpt lat="44.91901" lon="7.9733983"><ele>266.0</ele><time>2026-05-01T11:24:42.152Z</time></trkpt><trkpt lat="44.9188983" lon="7.9733017"><ele>266.0</ele><time>2026-05-01T11:24:43.156Z</time></trkpt><trkpt lat="44.918785" lon="7.973195"><ele>266.0</ele><time>2026-05-01T11:24:44.154Z</time></trkpt><trkpt lat="44.918665" lon="7.9730883"><ele>266.0</ele><time>2026-05-01T11:24:45.155Z</time></trkpt><trkpt lat="44.9185383" lon="7.9729983"><ele>266.0</ele><time>2026-05-01T11:24:46.155Z</time></trkpt><trkpt lat="44.918405" lon="7.972915"><ele>265.75</ele><time>2026-05-01T11:24:47.149Z</time></trkpt><trkpt lat="44.9182667" lon="7.9728417"><ele>265.5</ele><time>2026-05-01T11:24:48.155Z</time></trkpt><trkpt lat="44.9181283" lon="7.97279"><ele>265.25</ele><time>2026-05-01T11:24:49.154Z</time></trkpt><trkpt lat="44.917985" lon="7.972755"><ele>265.0</ele><time>2026-05-01T11:24:50.159Z</time></trkpt><trkpt lat="44.9178333" lon="7.9727267"><ele>265.0</ele><time>2026-05-01T11:24:51.154Z</time></trkpt><trkpt lat="44.91769" lon="7.9726967"><ele>265.0</ele><time>2026-05-01T11:24:52.158Z</time></trkpt><trkpt lat="44.91755" lon="7.972675"><ele>265.0</ele><time>2026-05-01T11:24:53.159Z</time></trkpt><trkpt lat="44.9174133" lon="7.9726517"><ele>265.0</ele><time>2026-05-01T11:24:54.157Z</time></trkpt><trkpt lat="44.9172833" lon="7.9726333"><ele>265.25</ele><time>2026-05-01T11:24:55.157Z</time></trkpt><trkpt lat="44.9171533" lon="7.9725983"><ele>265.5</ele><time>2026-05-01T11:24:56.155Z</time></trkpt><trkpt lat="44.9170233" lon="7.9725517"><ele>265.75</ele><time>2026-05-01T11:24:57.154Z</time></trkpt><trkpt lat="44.916895" lon="7.9725"><ele>266.0</ele><time>2026-05-01T11:24:58.154Z</time></trkpt><trkpt lat="44.9167617" lon="7.97244"><ele>266.75</ele><time>2026-05-01T11:24:59.152Z</time></trkpt><trkpt lat="44.91663" lon="7.972375"><ele>267.5</ele><time>2026-05-01T11:25:00.156Z</time></trkpt><trkpt lat="44.916495" lon="7.9723117"><ele>268.25</ele><time>2026-05-01T11:25:01.156Z</time></trkpt><trkpt lat="44.916365" lon="7.9722533"><ele>269.0</ele><time>2026-05-01T11:25:02.156Z</time></trkpt><trkpt lat="44.9162483" lon="7.972205"><ele>269.0</ele><time>2026-05-01T11:25:03.153Z</time></trkpt><trkpt lat="44.916135" lon="7.9721583"><ele>269.0</ele><time>2026-05-01T11:25:04.155Z</time></trkpt><trkpt lat="44.9160183" lon="7.9721033"><ele>269.0</ele><time>2026-05-01T11:25:05.156Z</time></trkpt><trkpt lat="44.9158983" lon="7.9720417"><ele>269.0</ele><time>2026-05-01T11:25:06.15Z</time></trkpt><trkpt lat="44.9157667" lon="7.9719783"><ele>268.75</ele><time>2026-05-01T11:25:07.153Z</time></trkpt><trkpt lat="44.9156283" lon="7.9719167"><ele>268.5</ele><time>2026-05-01T11:25:08.153Z</time></trkpt><trkpt lat="44.9154833" lon="7.9718583"><ele>268.25</ele><time>2026-05-01T11:25:09.154Z</time></trkpt><trkpt lat="44.91534" lon="7.9718033"><ele>268.0</ele><time>2026-05-01T11:25:10.155Z</time></trkpt><trkpt lat="44.9151983" lon="7.9717583"><ele>268.0</ele><time>2026-05-01T11:25:11.153Z</time></trkpt><trkpt lat="44.9150617" lon="7.971705"><ele>268.0</ele><time>2026-05-01T11:25:12.157Z</time></trkpt><trkpt lat="44.9149267" lon="7.97166"><ele>268.0</ele><time>2026-05-01T11:25:13.158Z</time></trkpt><trkpt lat="44.9147867" lon="7.9716217"><ele>268.0</ele><time>2026-05-01T11:25:14.153Z</time></trkpt><trkpt lat="44.91465" lon="7.97159"><ele>268.25</ele><time>2026-05-01T11:25:15.154Z</time></trkpt><trkpt lat="44.9145133" lon="7.97157"><ele>268.5</ele><time>2026-05-01T11:25:16.153Z</time></trkpt><trkpt lat="44.9143833" lon="7.9715467"><ele>268.75</ele><time>2026-05-01T11:25:17.154Z</time></trkpt><trkpt lat="44.9142567" lon="7.9715233"><ele>269.0</ele><time>2026-05-01T11:25:18.156Z</time></trkpt><trkpt lat="44.9141383" lon="7.971495"><ele>269.5</ele><time>2026-05-01T11:25:19.154Z</time></trkpt><trkpt lat="44.9140267" lon="7.9714733"><ele>270.0</ele><time>2026-05-01T11:25:20.152Z</time></trkpt><trkpt lat="44.9139117" lon="7.9714617"><ele>270.5</ele><time>2026-05-01T11:25:21.152Z</time></trkpt><trkpt lat="44.9137883" lon="7.9714517"><ele>271.0</ele><time>2026-05-01T11:25:22.153Z</time></trkpt><trkpt lat="44.9136567" lon="7.9714367"><ele>271.0</ele><time>2026-05-01T11:25:23.157Z</time></trkpt><trkpt lat="44.9135233" lon="7.97142"><ele>271.0</ele><time>2026-05-01T11:25:24.157Z</time></trkpt><trkpt lat="44.913375" lon="7.97139"><ele>271.0</ele><time>2026-05-01T11:25:25.159Z</time></trkpt><trkpt lat="44.9132317" lon="7.97136"><ele>271.0</ele><time>2026-05-01T11:25:26.16Z</time></trkpt><trkpt lat="44.9130883" lon="7.9713267"><ele>271.25</ele><time>2026-05-01T11:25:27.153Z</time></trkpt><trkpt lat="44.9129483" lon="7.9712883"><ele>271.5</ele><time>2026-05-01T11:25:28.157Z</time></trkpt><trkpt lat="44.9128117" lon="7.971245"><ele>271.75</ele><time>2026-05-01T11:25:29.158Z</time></trkpt><trkpt lat="44.912675" lon="7.9712083"><ele>272.0</ele><time>2026-05-01T11:25:30.158Z</time></trkpt><trkpt lat="44.9125417" lon="7.97117"><ele>273.0</ele><time>2026-05-01T11:25:31.155Z</time></trkpt><trkpt lat="44.9124083" lon="7.9711267"><ele>274.0</ele><time>2026-05-01T11:25:32.152Z</time></trkpt><trkpt lat="44.9122767" lon="7.97109"><ele>275.0</ele><time>2026-05-01T11:25:33.153Z</time></trkpt><trkpt lat="44.9121433" lon="7.9710583"><ele>276.0</ele><time>2026-05-01T11:25:34.156Z</time></trkpt><trkpt lat="44.912" lon="7.971035"><ele>276.0</ele><time>2026-05-01T11:25:35.157Z</time></trkpt><trkpt lat="44.91186" lon="7.9710433"><ele>276.0</ele><time>2026-05-01T11:25:36.152Z</time></trkpt><trkpt lat="44.9117367" lon="7.9710783"><ele>276.0</ele><time>2026-05-01T11:25:37.158Z</time></trkpt><trkpt lat="44.9116333" lon="7.9711333"><ele>276.0</ele><time>2026-05-01T11:25:38.155Z</time></trkpt><trkpt lat="44.9115333" lon="7.9712133"><ele>276.0</ele><time>2026-05-01T11:25:39.156Z</time></trkpt><trkpt lat="44.9114633" lon="7.9713317"><ele>276.0</ele><time>2026-05-01T11:25:40.153Z</time></trkpt><trkpt lat="44.911405" lon="7.9714517"><ele>276.0</ele><time>2026-05-01T11:25:41.15Z</time></trkpt><trkpt lat="44.9113533" lon="7.9715733"><ele>276.0</ele><time>2026-05-01T11:25:42.156Z</time></trkpt><trkpt lat="44.911305" lon="7.9716983"><ele>276.0</ele><time>2026-05-01T11:25:43.155Z</time></trkpt><trkpt lat="44.911265" lon="7.9718117"><ele>276.2</ele><time>2026-05-01T11:25:44.152Z</time></trkpt><trkpt lat="44.91124" lon="7.9718933"><ele>276.40000000000003</ele><time>2026-05-01T11:25:45.155Z</time></trkpt><trkpt lat="44.9112133" lon="7.9719883"><ele>276.6</ele><time>2026-05-01T11:25:47.152Z</time></trkpt><trkpt lat="44.9111417" lon="7.9721883"><ele>276.8</ele><time>2026-05-01T11:26:07.154Z</time></trkpt><trkpt lat="44.9111183" lon="7.9722833"><ele>277.0</ele><time>2026-05-01T11:26:09.156Z</time></trkpt><trkpt lat="44.911075" lon="7.9723983"><ele>277.0</ele><time>2026-05-01T11:26:11.156Z</time></trkpt><trkpt lat="44.910995" lon="7.9724883"><ele>277.0</ele><time>2026-05-01T11:26:13.158Z</time></trkpt><trkpt lat="44.91093" lon="7.9725017"><ele>277.0</ele><time>2026-05-01T11:26:14.155Z</time></trkpt><trkpt lat="44.9108" lon="7.97249"><ele>277.0</ele><time>2026-05-01T11:26:16.155Z</time></trkpt><trkpt lat="44.9107167" lon="7.9724667"><ele>277.0</ele><time>2026-05-01T11:26:17.154Z</time></trkpt><trkpt lat="44.9106117" lon="7.97242"><ele>276.5</ele><time>2026-05-01T11:26:18.157Z</time></trkpt><trkpt lat="44.9105067" lon="7.9723717"><ele>276.0</ele><time>2026-05-01T11:26:19.155Z</time></trkpt><trkpt lat="44.91039" lon="7.9723183"><ele>275.5</ele><time>2026-05-01T11:26:20.159Z</time></trkpt><trkpt lat="44.910265" lon="7.9722633"><ele>275.0</ele><time>2026-05-01T11:26:21.153Z</time></trkpt><trkpt lat="44.9101417" lon="7.97221"><ele>274.5</ele><time>2026-05-01T11:26:22.156Z</time></trkpt><trkpt lat="44.91003" lon="7.9721567"><ele>274.0</ele><time>2026-05-01T11:26:23.159Z</time></trkpt><trkpt lat="44.909915" lon="7.972105"><ele>273.5</ele><time>2026-05-01T11:26:24.156Z</time></trkpt><trkpt lat="44.9097967" lon="7.9720567"><ele>273.0</ele><time>2026-05-01T11:26:25.157Z</time></trkpt><trkpt lat="44.90967" lon="7.9720067"><ele>273.0</ele><time>2026-05-01T11:26:26.154Z</time></trkpt><trkpt lat="44.9095367" lon="7.971945"><ele>273.0</ele><time>2026-05-01T11:26:27.153Z</time></trkpt><trkpt lat="44.909405" lon="7.9718867"><ele>273.0</ele><time>2026-05-01T11:26:28.156Z</time></trkpt><trkpt lat="44.9092717" lon="7.9718267"><ele>273.0</ele><time>2026-05-01T11:26:29.154Z</time></trkpt><trkpt lat="44.909135" lon="7.9717717"><ele>273.25</ele><time>2026-05-01T11:26:30.159Z</time></trkpt><trkpt lat="44.9089983" lon="7.97171"><ele>273.5</ele><time>2026-05-01T11:26:31.153Z</time></trkpt><trkpt lat="44.90886" lon="7.9716433"><ele>273.75</ele><time>2026-05-01T11:26:32.159Z</time></trkpt><trkpt lat="44.9087183" lon="7.9715733"><ele>274.0</ele><time>2026-05-01T11:26:33.161Z</time></trkpt><trkpt lat="44.9085783" lon="7.9714983"><ele>274.0</ele><time>2026-05-01T11:26:34.152Z</time></trkpt><trkpt lat="44.90844" lon="7.97142"><ele>274.0</ele><time>2026-05-01T11:26:35.156Z</time></trkpt><trkpt lat="44.9083033" lon="7.9713367"><ele>274.0</ele><time>2026-05-01T11:26:36.153Z</time></trkpt><trkpt lat="44.9081583" lon="7.971255"><ele>273.66666666666663</ele><time>2026-05-01T11:26:37.158Z</time></trkpt><trkpt lat="44.9080133" lon="7.9711683"><ele>273.3333333333333</ele><time>2026-05-01T11:26:38.156Z</time></trkpt><trkpt lat="44.9078633" lon="7.9710783"><ele>273.0</ele><time>2026-05-01T11:26:39.154Z</time></trkpt><trkpt lat="44.9077033" lon="7.970985"><ele>272.6666666666667</ele><time>2026-05-01T11:26:40.153Z</time></trkpt><trkpt lat="44.907545" lon="7.9708833"><ele>272.33333333333337</ele><time>2026-05-01T11:26:41.153Z</time></trkpt><trkpt lat="44.9073917" lon="7.9707833"><ele>272.0</ele><time>2026-05-01T11:26:42.157Z</time></trkpt><trkpt lat="44.9072533" lon="7.9706717"><ele>272.0</ele><time>2026-05-01T11:26:43.156Z</time></trkpt><trkpt lat="44.9071217" lon="7.9705467"><ele>272.0</ele><time>2026-05-01T11:26:44.153Z</time></trkpt><trkpt lat="44.906985" lon="7.970425"><ele>272.0</ele><time>2026-05-01T11:26:45.152Z</time></trkpt><trkpt lat="44.90685" lon="7.970315"><ele>271.0</ele><time>2026-05-01T11:26:46.154Z</time></trkpt><trkpt lat="44.906705" lon="7.9702183"><ele>270.0</ele><time>2026-05-01T11:26:47.153Z</time></trkpt><trkpt lat="44.9065533" lon="7.9701367"><ele>269.0</ele><time>2026-05-01T11:26:48.152Z</time></trkpt><trkpt lat="44.9064" lon="7.9700483"><ele>270.33333333333337</ele><time>2026-05-01T11:26:49.156Z</time></trkpt><trkpt lat="44.906245" lon="7.969955"><ele>271.6666666666667</ele><time>2026-05-01T11:26:50.156Z</time></trkpt><trkpt lat="44.9060867" lon="7.96986"><ele>273.0</ele><time>2026-05-01T11:26:51.156Z</time></trkpt><trkpt lat="44.9059317" lon="7.9697567"><ele>273.6666666666667</ele><time>2026-05-01T11:26:52.156Z</time></trkpt><trkpt lat="44.9057767" lon="7.96965"><ele>274.33333333333337</ele><time>2026-05-01T11:26:53.157Z</time></trkpt><trkpt lat="44.9056267" lon="7.9695467"><ele>275.0</ele><time>2026-05-01T11:26:54.151Z</time></trkpt><trkpt lat="44.9054783" lon="7.969445"><ele>275.0</ele><time>2026-05-01T11:26:55.158Z</time></trkpt><trkpt lat="44.9053317" lon="7.9693417"><ele>275.0</ele><time>2026-05-01T11:26:56.153Z</time></trkpt><trkpt lat="44.9051783" lon="7.9692467"><ele>275.0</ele><time>2026-05-01T11:26:57.153Z</time></trkpt><trkpt lat="44.905025" lon="7.969155"><ele>274.6666666666667</ele><time>2026-05-01T11:26:58.153Z</time></trkpt><trkpt lat="44.904875" lon="7.96907"><ele>274.3333333333333</ele><time>2026-05-01T11:26:59.152Z</time></trkpt><trkpt lat="44.9047383" lon="7.9689833"><ele>274.0</ele><time>2026-05-01T11:27:00.16Z</time></trkpt><trkpt lat="44.9046083" lon="7.9688883"><ele>274.0</ele><time>2026-05-01T11:27:01.155Z</time></trkpt><trkpt lat="44.9044833" lon="7.9687867"><ele>274.0</ele><time>2026-05-01T11:27:02.156Z</time></trkpt><trkpt lat="44.9043633" lon="7.9686767"><ele>274.0</ele><time>2026-05-01T11:27:03.157Z</time></trkpt><trkpt lat="44.9042483" lon="7.9685633"><ele>274.0</ele><time>2026-05-01T11:27:04.154Z</time></trkpt><trkpt lat="44.9041283" lon="7.96845"><ele>274.5</ele><time>2026-05-01T11:27:05.151Z</time></trkpt><trkpt lat="44.9040117" lon="7.9683367"><ele>275.0</ele><time>2026-05-01T11:27:06.154Z</time></trkpt><trkpt lat="44.903895" lon="7.9682217"><ele>275.5</ele><time>2026-05-01T11:27:07.151Z</time></trkpt><trkpt lat="44.903785" lon="7.96811"><ele>276.0</ele><time>2026-05-01T11:27:08.152Z</time></trkpt><trkpt lat="44.9036817" lon="7.9680083"><ele>276.0</ele><time>2026-05-01T11:27:09.15Z</time></trkpt><trkpt lat="44.90359" lon="7.967915"><ele>276.0</ele><time>2026-05-01T11:27:10.156Z</time></trkpt><trkpt lat="44.9035033" lon="7.9678267"><ele>276.0</ele><time>2026-05-01T11:27:11.155Z</time></trkpt><trkpt lat="44.90342" lon="7.9677567"><ele>276.0</ele><time>2026-05-01T11:27:12.154Z</time></trkpt><trkpt lat="44.9033533" lon="7.967685"><ele>276.0</ele><time>2026-05-01T11:27:13.154Z</time></trkpt><trkpt lat="44.90329" lon="7.96763"><ele>275.8333333333333</ele><time>2026-05-01T11:27:14.152Z</time></trkpt><trkpt lat="44.90321" lon="7.9675433"><ele>275.6666666666667</ele><time>2026-05-01T11:27:16.151Z</time></trkpt><trkpt lat="44.9031567" lon="7.9674667"><ele>275.5</ele><time>2026-05-01T11:27:20.154Z</time></trkpt><trkpt lat="44.9030933" lon="7.967415"><ele>275.33333333333337</ele><time>2026-05-01T11:27:25.158Z</time></trkpt><trkpt lat="44.90302" lon="7.96738"><ele>275.1666666666667</ele><time>2026-05-01T11:27:26.15Z</time></trkpt><trkpt lat="44.90294" lon="7.967325"><ele>275.0</ele><time>2026-05-01T11:27:27.152Z</time></trkpt><trkpt lat="44.9028617" lon="7.967275"><ele>275.25</ele><time>2026-05-01T11:27:28.151Z</time></trkpt><trkpt lat="44.9027833" lon="7.9671867"><ele>275.5</ele><time>2026-05-01T11:27:29.153Z</time></trkpt><trkpt lat="44.902685" lon="7.9670867"><ele>275.75</ele><time>2026-05-01T11:27:30.153Z</time></trkpt><trkpt lat="44.9025833" lon="7.9669767"><ele>276.0</ele><time>2026-05-01T11:27:31.152Z</time></trkpt><trkpt lat="44.90248" lon="7.96687"><ele>276.0</ele><time>2026-05-01T11:27:32.154Z</time></trkpt><trkpt lat="44.902375" lon="7.966745"><ele>276.0</ele><time>2026-05-01T11:27:33.157Z</time></trkpt><trkpt lat="44.90226" lon="7.9666117"><ele>276.0</ele><time>2026-05-01T11:27:34.153Z</time></trkpt><trkpt lat="44.90214" lon="7.96649"><ele>276.0</ele><time>2026-05-01T11:27:35.156Z</time></trkpt><trkpt lat="44.9020167" lon="7.9663733"><ele>276.25</ele><time>2026-05-01T11:27:36.152Z</time></trkpt><trkpt lat="44.9018867" lon="7.966265"><ele>276.5</ele><time>2026-05-01T11:27:37.153Z</time></trkpt><trkpt lat="44.9017583" lon="7.9661583"><ele>276.75</ele><time>2026-05-01T11:27:38.151Z</time></trkpt><trkpt lat="44.90163" lon="7.9660567"><ele>277.0</ele><time>2026-05-01T11:27:39.151Z</time></trkpt><trkpt lat="44.901505" lon="7.965955"><ele>277.0</ele><time>2026-05-01T11:27:40.156Z</time></trkpt><trkpt lat="44.9013817" lon="7.965865"><ele>277.0</ele><time>2026-05-01T11:27:41.154Z</time></trkpt><trkpt lat="44.9012517" lon="7.965785"><ele>277.0</ele><time>2026-05-01T11:27:42.153Z</time></trkpt><trkpt lat="44.9011267" lon="7.9656917"><ele>277.0</ele><time>2026-05-01T11:27:43.155Z</time></trkpt><trkpt lat="44.9010017" lon="7.9655883"><ele>276.75</ele><time>2026-05-01T11:27:44.154Z</time></trkpt><trkpt lat="44.9008783" lon="7.9654817"><ele>276.5</ele><time>2026-05-01T11:27:45.153Z</time></trkpt><trkpt lat="44.9007583" lon="7.9653733"><ele>276.25</ele><time>2026-05-01T11:27:46.157Z</time></trkpt><trkpt lat="44.9006417" lon="7.9652667"><ele>276.0</ele><time>2026-05-01T11:27:47.157Z</time></trkpt><trkpt lat="44.900525" lon="7.9651633"><ele>276.0</ele><time>2026-05-01T11:27:48.153Z</time></trkpt><trkpt lat="44.900415" lon="7.9650517"><ele>276.0</ele><time>2026-05-01T11:27:49.157Z</time></trkpt><trkpt lat="44.9003017" lon="7.964945"><ele>276.0</ele><time>2026-05-01T11:27:50.153Z</time></trkpt><trkpt lat="44.90019" lon="7.9648383"><ele>276.0</ele><time>2026-05-01T11:27:51.151Z</time></trkpt><trkpt lat="44.90007" lon="7.9647533"><ele>276.6</ele><time>2026-05-01T11:27:52.156Z</time></trkpt><trkpt lat="44.899955" lon="7.9646917"><ele>277.20000000000005</ele><time>2026-05-01T11:27:53.152Z</time></trkpt><trkpt lat="44.8998433" lon="7.964635"><ele>277.79999999999995</ele><time>2026-05-01T11:27:54.154Z</time></trkpt><trkpt lat="44.8997417" lon="7.9645817"><ele>278.4</ele><time>2026-05-01T11:27:55.156Z</time></trkpt><trkpt lat="44.8996533" lon="7.9645467"><ele>279.0</ele><time>2026-05-01T11:27:56.154Z</time></trkpt><trkpt lat="44.899545" lon="7.9645067"><ele>279.0</ele><time>2026-05-01T11:27:58.156Z</time></trkpt><trkpt lat="44.8994317" lon="7.9644533"><ele>279.0</ele><time>2026-05-01T11:28:00.155Z</time></trkpt><trkpt lat="44.8993267" lon="7.9644067"><ele>279.0</ele><time>2026-05-01T11:28:02.161Z</time></trkpt><trkpt lat="44.8992567" lon="7.96437"><ele>279.0</ele><time>2026-05-01T11:28:03.157Z</time></trkpt><trkpt lat="44.8991733" lon="7.9643283"><ele>279.0</ele><time>2026-05-01T11:28:04.149Z</time></trkpt><trkpt lat="44.8990933" lon="7.9642867"><ele>279.0</ele><time>2026-05-01T11:28:05.156Z</time></trkpt><trkpt lat="44.8990267" lon="7.9642417"><ele>279.0</ele><time>2026-05-01T11:28:06.154Z</time></trkpt><trkpt lat="44.89897" lon="7.964195"><ele>279.0</ele><time>2026-05-01T11:28:07.158Z</time></trkpt><trkpt lat="44.898855" lon="7.9641333"><ele>279.0</ele><time>2026-05-01T11:28:09.157Z</time></trkpt><trkpt lat="44.8987867" lon="7.9641"><ele>279.0</ele><time>2026-05-01T11:28:10.151Z</time></trkpt><trkpt lat="44.8987133" lon="7.964075"><ele>279.0</ele><time>2026-05-01T11:28:11.151Z</time></trkpt><trkpt lat="44.89863" lon="7.9640433"><ele>278.8</ele><time>2026-05-01T11:28:12.154Z</time></trkpt><trkpt lat="44.8985417" lon="7.9639933"><ele>278.59999999999997</ele><time>2026-05-01T11:28:13.151Z</time></trkpt><trkpt lat="44.89845" lon="7.9639433"><ele>278.4</ele><time>2026-05-01T11:28:14.152Z</time></trkpt><trkpt lat="44.89836" lon="7.9638983"><ele>278.2</ele><time>2026-05-01T11:28:15.152Z</time></trkpt><trkpt lat="44.898285" lon="7.9638367"><ele>278.0</ele><time>2026-05-01T11:28:16.153Z</time></trkpt><trkpt lat="44.898205" lon="7.9637833"><ele>278.0</ele><time>2026-05-01T11:28:17.155Z</time></trkpt><trkpt lat="44.8981267" lon="7.9637367"><ele>278.0</ele><time>2026-05-01T11:28:18.156Z</time></trkpt><trkpt lat="44.8980533" lon="7.963695"><ele>278.0</ele><time>2026-05-01T11:28:19.156Z</time></trkpt><trkpt lat="44.897995" lon="7.9636533"><ele>278.0</ele><time>2026-05-01T11:28:20.156Z</time></trkpt><trkpt lat="44.8979267" lon="7.9636233"><ele>278.0</ele><time>2026-05-01T11:28:21.156Z</time></trkpt><trkpt lat="44.89786" lon="7.9635933"><ele>278.0</ele><time>2026-05-01T11:28:22.154Z</time></trkpt><trkpt lat="44.8977417" lon="7.9635233"><ele>278.0</ele><time>2026-05-01T11:28:24.154Z</time></trkpt><trkpt lat="44.89765" lon="7.96348"><ele>278.0</ele><time>2026-05-01T11:28:26.153Z</time></trkpt><trkpt lat="44.897715" lon="7.9633983"><ele>278.0</ele><time>2026-05-01T11:28:29.156Z</time></trkpt><trkpt lat="44.8977317" lon="7.9632717"><ele>278.0</ele><time>2026-05-01T11:28:31.155Z</time></trkpt><trkpt lat="44.8976733" lon="7.96315"><ele>278.0</ele><time>2026-05-01T11:28:33.15Z</time></trkpt><trkpt lat="44.8975517" lon="7.9630967"><ele>278.0</ele><time>2026-05-01T11:28:35.151Z</time></trkpt><trkpt lat="44.8974783" lon="7.96307"><ele>278.0</ele><time>2026-05-01T11:28:36.152Z</time></trkpt><trkpt lat="44.8974083" lon="7.9630733"><ele>278.0</ele><time>2026-05-01T11:28:37.156Z</time></trkpt><trkpt lat="44.897325" lon="7.963085"><ele>278.0</ele><time>2026-05-01T11:28:38.155Z</time></trkpt><trkpt lat="44.8972433" lon="7.9630567"><ele>278.0</ele><time>2026-05-01T11:28:40.155Z</time></trkpt><trkpt lat="44.8972067" lon="7.9629"><ele>278.0</ele><time>2026-05-01T11:28:42.155Z</time></trkpt><trkpt lat="44.897185" lon="7.962795"><ele>278.0</ele><time>2026-05-01T11:28:43.154Z</time></trkpt><trkpt lat="44.8971633" lon="7.9626767"><ele>278.0</ele><time>2026-05-01T11:28:44.156Z</time></trkpt><trkpt lat="44.8971517" lon="7.962505"><ele>278.0</ele><time>2026-05-01T11:28:45.156Z</time></trkpt><trkpt lat="44.8971483" lon="7.9623367"><ele>278.0</ele><time>2026-05-01T11:28:46.159Z</time></trkpt><trkpt lat="44.8971383" lon="7.9621817"><ele>278.0</ele><time>2026-05-01T11:28:47.155Z</time></trkpt><trkpt lat="44.8971383" lon="7.962025"><ele>277.1666666666667</ele><time>2026-05-01T11:28:48.155Z</time></trkpt><trkpt lat="44.89712" lon="7.9618917"><ele>276.33333333333337</ele><time>2026-05-01T11:28:49.153Z</time></trkpt><trkpt lat="44.8971117" lon="7.96176"><ele>275.5</ele><time>2026-05-01T11:28:50.153Z</time></trkpt><trkpt lat="44.8970933" lon="7.9616367"><ele>274.6666666666667</ele><time>2026-05-01T11:28:51.155Z</time></trkpt><trkpt lat="44.8970767" lon="7.9615267"><ele>273.8333333333333</ele><time>2026-05-01T11:28:52.151Z</time></trkpt><trkpt lat="44.8970633" lon="7.961425"><ele>273.0</ele><time>2026-05-01T11:28:53.15Z</time></trkpt><trkpt lat="44.8970517" lon="7.961325"><ele>273.0</ele><time>2026-05-01T11:28:54.153Z</time></trkpt><trkpt lat="44.8970417" lon="7.9612233"><ele>273.0</ele><time>2026-05-01T11:28:55.154Z</time></trkpt><trkpt lat="44.8970333" lon="7.9611183"><ele>273.0</ele><time>2026-05-01T11:28:56.153Z</time></trkpt><trkpt lat="44.897015" lon="7.9610067"><ele>273.0</ele><time>2026-05-01T11:28:57.157Z</time></trkpt><trkpt lat="44.897005" lon="7.9608883"><ele>273.0</ele><time>2026-05-01T11:28:58.155Z</time></trkpt><trkpt lat="44.8969933" lon="7.9607667"><ele>273.0</ele><time>2026-05-01T11:28:59.156Z</time></trkpt><trkpt lat="44.8969767" lon="7.9606383"><ele>273.0</ele><time>2026-05-01T11:29:00.154Z</time></trkpt><trkpt lat="44.8969617" lon="7.9605167"><ele>273.0</ele><time>2026-05-01T11:29:01.155Z</time></trkpt><trkpt lat="44.8969533" lon="7.9604"><ele>273.0</ele><time>2026-05-01T11:29:02.153Z</time></trkpt><trkpt lat="44.8969433" lon="7.9602983"><ele>273.0</ele><time>2026-05-01T11:29:03.152Z</time></trkpt><trkpt lat="44.8969283" lon="7.9601617"><ele>273.0</ele><time>2026-05-01T11:29:05.153Z</time></trkpt><trkpt lat="44.8969117" lon="7.9600717"><ele>273.0</ele><time>2026-05-01T11:29:08.15Z</time></trkpt><trkpt lat="44.8968833" lon="7.9599833"><ele>273.6</ele><time>2026-05-01T11:29:11.156Z</time></trkpt><trkpt lat="44.8968283" lon="7.95986"><ele>274.20000000000005</ele><time>2026-05-01T11:29:13.16Z</time></trkpt><trkpt lat="44.8967683" lon="7.95975"><ele>274.8</ele><time>2026-05-01T11:29:14.151Z</time></trkpt><trkpt lat="44.8967167" lon="7.9596367"><ele>275.40000000000003</ele><time>2026-05-01T11:29:15.156Z</time></trkpt><trkpt lat="44.8966683" lon="7.9595283"><ele>276.0</ele><time>2026-05-01T11:29:16.155Z</time></trkpt><trkpt lat="44.89662" lon="7.959415"><ele>276.0</ele><time>2026-05-01T11:29:17.154Z</time></trkpt><trkpt lat="44.8965633" lon="7.95929"><ele>276.0</ele><time>2026-05-01T11:29:18.156Z</time></trkpt><trkpt lat="44.8964967" lon="7.9591483"><ele>276.0</ele><time>2026-05-01T11:29:19.156Z</time></trkpt><trkpt lat="44.896425" lon="7.9590033"><ele>276.0</ele><time>2026-05-01T11:29:20.155Z</time></trkpt><trkpt lat="44.8963483" lon="7.9588633"><ele>276.0</ele><time>2026-05-01T11:29:21.155Z</time></trkpt><trkpt lat="44.8962667" lon="7.9587333"><ele>276.0</ele><time>2026-05-01T11:29:22.153Z</time></trkpt><trkpt lat="44.8961917" lon="7.9585983"><ele>276.0</ele><time>2026-05-01T11:29:23.158Z</time></trkpt><trkpt lat="44.89612" lon="7.9584567"><ele>276.0</ele><time>2026-05-01T11:29:24.157Z</time></trkpt><trkpt lat="44.8960483" lon="7.958315"><ele>276.5</ele><time>2026-05-01T11:29:25.156Z</time></trkpt><trkpt lat="44.895965" lon="7.9581817"><ele>277.0</ele><time>2026-05-01T11:29:26.154Z</time></trkpt><trkpt lat="44.8958717" lon="7.9580583"><ele>277.5</ele><time>2026-05-01T11:29:27.157Z</time></trkpt><trkpt lat="44.89577" lon="7.957945"><ele>278.0</ele><time>2026-05-01T11:29:28.154Z</time></trkpt><trkpt lat="44.8956617" lon="7.9578367"><ele>278.0</ele><time>2026-05-01T11:29:29.155Z</time></trkpt><trkpt lat="44.8955567" lon="7.9577217"><ele>278.0</ele><time>2026-05-01T11:29:30.156Z</time></trkpt><trkpt lat="44.895455" lon="7.9575967"><ele>278.0</ele><time>2026-05-01T11:29:31.157Z</time></trkpt><trkpt lat="44.8953583" lon="7.9574583"><ele>278.0</ele><time>2026-05-01T11:29:32.158Z</time></trkpt><trkpt lat="44.8952617" lon="7.9573117"><ele>278.0</ele><time>2026-05-01T11:29:33.152Z</time></trkpt><trkpt lat="44.895165" lon="7.9571517"><ele>278.0</ele><time>2026-05-01T11:29:34.151Z</time></trkpt><trkpt lat="44.895075" lon="7.95697"><ele>278.0</ele><time>2026-05-01T11:29:35.154Z</time></trkpt><trkpt lat="44.894985" lon="7.9567667"><ele>277.6666666666667</ele><time>2026-05-01T11:29:36.152Z</time></trkpt><trkpt lat="44.894895" lon="7.9565417"><ele>277.3333333333333</ele><time>2026-05-01T11:29:37.157Z</time></trkpt><trkpt lat="44.8948" lon="7.9563067"><ele>277.0</ele><time>2026-05-01T11:29:38.156Z</time></trkpt><trkpt lat="44.8946933" lon="7.956075"><ele>277.3333333333333</ele><time>2026-05-01T11:29:39.154Z</time></trkpt><trkpt lat="44.8945767" lon="7.9558417"><ele>277.6666666666667</ele><time>2026-05-01T11:29:40.157Z</time></trkpt><trkpt lat="44.8944517" lon="7.9555983"><ele>278.0</ele><time>2026-05-01T11:29:41.152Z</time></trkpt><trkpt lat="44.8943283" lon="7.95535"><ele>277.6666666666667</ele><time>2026-05-01T11:29:42.151Z</time></trkpt><trkpt lat="44.8942033" lon="7.9551017"><ele>277.3333333333333</ele><time>2026-05-01T11:29:43.155Z</time></trkpt><trkpt lat="44.8940817" lon="7.9548483"><ele>277.0</ele><time>2026-05-01T11:29:44.154Z</time></trkpt><trkpt lat="44.8939617" lon="7.9545933"><ele>277.0</ele><time>2026-05-01T11:29:45.159Z</time></trkpt><trkpt lat="44.8938467" lon="7.9543367"><ele>277.0</ele><time>2026-05-01T11:29:46.156Z</time></trkpt><trkpt lat="44.8937333" lon="7.95408"><ele>277.0</ele><time>2026-05-01T11:29:47.155Z</time></trkpt><trkpt lat="44.8936183" lon="7.953825"><ele>276.0</ele><time>2026-05-01T11:29:48.152Z</time></trkpt><trkpt lat="44.8935033" lon="7.9535733"><ele>275.0</ele><time>2026-05-01T11:29:49.157Z</time></trkpt><trkpt lat="44.8933933" lon="7.953325"><ele>274.0</ele><time>2026-05-01T11:29:50.153Z</time></trkpt><trkpt lat="44.8932867" lon="7.9530867"><ele>273.66666666666663</ele><time>2026-05-01T11:29:51.154Z</time></trkpt><trkpt lat="44.89318" lon="7.952865"><ele>273.3333333333333</ele><time>2026-05-01T11:29:52.156Z</time></trkpt><trkpt lat="44.8930583" lon="7.9526733"><ele>273.0</ele><time>2026-05-01T11:29:53.151Z</time></trkpt><trkpt lat="44.8929183" lon="7.9524983"><ele>273.0</ele><time>2026-05-01T11:29:54.154Z</time></trkpt><trkpt lat="44.8927633" lon="7.95233"><ele>273.0</ele><time>2026-05-01T11:29:55.165Z</time></trkpt><trkpt lat="44.8926033" lon="7.9521633"><ele>273.0</ele><time>2026-05-01T11:29:56.156Z</time></trkpt><trkpt lat="44.89244" lon="7.9519967"><ele>273.0</ele><time>2026-05-01T11:29:57.153Z</time></trkpt><trkpt lat="44.8922733" lon="7.95183"><ele>273.0</ele><time>2026-05-01T11:29:58.155Z</time></trkpt><trkpt lat="44.892105" lon="7.9516633"><ele>273.0</ele><time>2026-05-01T11:29:59.158Z</time></trkpt><trkpt lat="44.891935" lon="7.9514967"><ele>274.0</ele><time>2026-05-01T11:30:00.157Z</time></trkpt><trkpt lat="44.891765" lon="7.9513267"><ele>275.0</ele><time>2026-05-01T11:30:01.154Z</time></trkpt><trkpt lat="44.8915983" lon="7.9511533"><ele>276.0</ele><time>2026-05-01T11:30:02.16Z</time></trkpt><trkpt lat="44.89143" lon="7.9509817"><ele>277.6666666666667</ele><time>2026-05-01T11:30:03.156Z</time></trkpt><trkpt lat="44.8912667" lon="7.9508033"><ele>279.33333333333337</ele><time>2026-05-01T11:30:04.155Z</time></trkpt><trkpt lat="44.8911033" lon="7.950625"><ele>281.0</ele><time>2026-05-01T11:30:05.155Z</time></trkpt><trkpt lat="44.890945" lon="7.950445"><ele>281.33333333333337</ele><time>2026-05-01T11:30:06.157Z</time></trkpt><trkpt lat="44.8907967" lon="7.9502717"><ele>281.6666666666667</ele><time>2026-05-01T11:30:07.154Z</time></trkpt><trkpt lat="44.890665" lon="7.9500983"><ele>282.0</ele><time>2026-05-01T11:30:08.159Z</time></trkpt><trkpt lat="44.89054" lon="7.94991"><ele>282.0</ele><time>2026-05-01T11:30:09.16Z</time></trkpt><trkpt lat="44.8904283" lon="7.949705"><ele>282.0</ele><time>2026-05-01T11:30:10.157Z</time></trkpt><trkpt lat="44.8903317" lon="7.949485"><ele>282.0</ele><time>2026-05-01T11:30:11.155Z</time></trkpt><trkpt lat="44.89025" lon="7.949255"><ele>282.3333333333333</ele><time>2026-05-01T11:30:12.157Z</time></trkpt><trkpt lat="44.8901817" lon="7.949025"><ele>282.66666666666663</ele><time>2026-05-01T11:30:13.155Z</time></trkpt><trkpt lat="44.8901183" lon="7.9487983"><ele>283.0</ele><time>2026-05-01T11:30:14.156Z</time></trkpt><trkpt lat="44.89005" lon="7.9485767"><ele>282.0</ele><time>2026-05-01T11:30:15.154Z</time></trkpt><trkpt lat="44.8899617" lon="7.948375"><ele>281.0</ele><time>2026-05-01T11:30:16.157Z</time></trkpt><trkpt lat="44.8898517" lon="7.9481917"><ele>280.0</ele><time>2026-05-01T11:30:17.156Z</time></trkpt><trkpt lat="44.8897233" lon="7.948035"><ele>280.0</ele><time>2026-05-01T11:30:18.153Z</time></trkpt><trkpt lat="44.8895817" lon="7.947925"><ele>280.0</ele><time>2026-05-01T11:30:19.153Z</time></trkpt><trkpt lat="44.889435" lon="7.9478683"><ele>280.0</ele><time>2026-05-01T11:30:20.154Z</time></trkpt><trkpt lat="44.8892833" lon="7.9478583"><ele>280.75</ele><time>2026-05-01T11:30:21.154Z</time></trkpt><trkpt lat="44.88914" lon="7.9478933"><ele>281.5</ele><time>2026-05-01T11:30:22.156Z</time></trkpt><trkpt lat="44.889005" lon="7.9479767"><ele>282.25</ele><time>2026-05-01T11:30:23.152Z</time></trkpt><trkpt lat="44.8888867" lon="7.948105"><ele>283.0</ele><time>2026-05-01T11:30:24.154Z</time></trkpt><trkpt lat="44.888785" lon="7.94826"><ele>283.25</ele><time>2026-05-01T11:30:25.154Z</time></trkpt><trkpt lat="44.8886983" lon="7.9484317"><ele>283.5</ele><time>2026-05-01T11:30:26.152Z</time></trkpt><trkpt lat="44.88861" lon="7.9485983"><ele>283.75</ele><time>2026-05-01T11:30:27.154Z</time></trkpt><trkpt lat="44.888515" lon="7.9487533"><ele>284.0</ele><time>2026-05-01T11:30:28.154Z</time></trkpt><trkpt lat="44.8884217" lon="7.9489033"><ele>284.25</ele><time>2026-05-01T11:30:29.157Z</time></trkpt><trkpt lat="44.88833" lon="7.949055"><ele>284.5</ele><time>2026-05-01T11:30:30.153Z</time></trkpt><trkpt lat="44.888235" lon="7.949205"><ele>284.75</ele><time>2026-05-01T11:30:31.157Z</time></trkpt><trkpt lat="44.8881367" lon="7.94934"><ele>285.0</ele><time>2026-05-01T11:30:32.159Z</time></trkpt><trkpt lat="44.88803" lon="7.949455"><ele>285.0</ele><time>2026-05-01T11:30:33.153Z</time></trkpt><trkpt lat="44.8879167" lon="7.9495567"><ele>285.0</ele><time>2026-05-01T11:30:34.154Z</time></trkpt><trkpt lat="44.8878017" lon="7.9496467"><ele>285.0</ele><time>2026-05-01T11:30:35.156Z</time></trkpt><trkpt lat="44.8876933" lon="7.9497267"><ele>285.0</ele><time>2026-05-01T11:30:36.153Z</time></trkpt><trkpt lat="44.8875933" lon="7.94979"><ele>284.5</ele><time>2026-05-01T11:30:37.153Z</time></trkpt><trkpt lat="44.8874933" lon="7.9498283"><ele>284.0</ele><time>2026-05-01T11:30:38.157Z</time></trkpt><trkpt lat="44.887385" lon="7.9498283"><ele>283.5</ele><time>2026-05-01T11:30:39.158Z</time></trkpt><trkpt lat="44.8872783" lon="7.949775"><ele>283.0</ele><time>2026-05-01T11:30:40.152Z</time></trkpt><trkpt lat="44.8871683" lon="7.9496883"><ele>283.0</ele><time>2026-05-01T11:30:41.156Z</time></trkpt><trkpt lat="44.8870433" lon="7.9495517"><ele>283.0</ele><time>2026-05-01T11:30:42.153Z</time></trkpt><trkpt lat="44.8869117" lon="7.94938"><ele>283.0</ele><time>2026-05-01T11:30:43.165Z</time></trkpt><trkpt lat="44.8867717" lon="7.9492183"><ele>280.3333333333333</ele><time>2026-05-01T11:30:44.157Z</time></trkpt><trkpt lat="44.8866283" lon="7.9490533"><ele>277.6666666666667</ele><time>2026-05-01T11:30:45.154Z</time></trkpt><trkpt lat="44.8864817" lon="7.9488883"><ele>275.0</ele><time>2026-05-01T11:30:46.155Z</time></trkpt><trkpt lat="44.886335" lon="7.94872"><ele>275.0</ele><time>2026-05-01T11:30:47.157Z</time></trkpt><trkpt lat="44.8861883" lon="7.948555"><ele>275.0</ele><time>2026-05-01T11:30:48.153Z</time></trkpt><trkpt lat="44.8860433" lon="7.9483967"><ele>275.0</ele><time>2026-05-01T11:30:49.157Z</time></trkpt><trkpt lat="44.8859033" lon="7.9482533"><ele>274.25</ele><time>2026-05-01T11:30:50.152Z</time></trkpt><trkpt lat="44.8857667" lon="7.9481383"><ele>273.5</ele><time>2026-05-01T11:30:51.155Z</time></trkpt><trkpt lat="44.88563" lon="7.94807"><ele>272.75</ele><time>2026-05-01T11:30:52.153Z</time></trkpt><trkpt lat="44.88549" lon="7.9480433"><ele>272.0</ele><time>2026-05-01T11:30:53.157Z</time></trkpt><trkpt lat="44.8853433" lon="7.9480467"><ele>272.0</ele><time>2026-05-01T11:30:54.158Z</time></trkpt><trkpt lat="44.8851933" lon="7.9480683"><ele>272.0</ele><time>2026-05-01T11:30:55.154Z</time></trkpt><trkpt lat="44.88504" lon="7.9481"><ele>272.0</ele><time>2026-05-01T11:30:56.162Z</time></trkpt><trkpt lat="44.8848767" lon="7.9481433"><ele>272.0</ele><time>2026-05-01T11:30:57.161Z</time></trkpt><trkpt lat="44.884715" lon="7.948195"><ele>272.0</ele><time>2026-05-01T11:30:58.155Z</time></trkpt><trkpt lat="44.8845617" lon="7.9482733"><ele>272.0</ele><time>2026-05-01T11:30:59.156Z</time></trkpt><trkpt lat="44.8844133" lon="7.9483933"><ele>272.0</ele><time>2026-05-01T11:31:00.154Z</time></trkpt><trkpt lat="44.88427" lon="7.9485283"><ele>272.0</ele><time>2026-05-01T11:31:01.159Z</time></trkpt><trkpt lat="44.8841317" lon="7.9486633"><ele>272.0</ele><time>2026-05-01T11:31:02.163Z</time></trkpt><trkpt lat="44.883995" lon="7.94879"><ele>272.5</ele><time>2026-05-01T11:31:03.16Z</time></trkpt><trkpt lat="44.88387" lon="7.9489017"><ele>273.0</ele><time>2026-05-01T11:31:04.152Z</time></trkpt><trkpt lat="44.88375" lon="7.9489767"><ele>273.5</ele><time>2026-05-01T11:31:05.155Z</time></trkpt><trkpt lat="44.88364" lon="7.94901"><ele>274.0</ele><time>2026-05-01T11:31:06.153Z</time></trkpt><trkpt lat="44.8835367" lon="7.9489867"><ele>274.0</ele><time>2026-05-01T11:31:07.153Z</time></trkpt><trkpt lat="44.8834467" lon="7.9489167"><ele>274.0</ele><time>2026-05-01T11:31:08.157Z</time></trkpt><trkpt lat="44.8833883" lon="7.9487883"><ele>274.0</ele><time>2026-05-01T11:31:09.157Z</time></trkpt><trkpt lat="44.883355" lon="7.9486133"><ele>274.0</ele><time>2026-05-01T11:31:10.158Z</time></trkpt><trkpt lat="44.88334" lon="7.9484233"><ele>276.66666666666663</ele><time>2026-05-01T11:31:11.156Z</time></trkpt><trkpt lat="44.8833333" lon="7.948215"><ele>279.3333333333333</ele><time>2026-05-01T11:31:12.155Z</time></trkpt><trkpt lat="44.8833283" lon="7.9479883"><ele>282.0</ele><time>2026-05-01T11:31:13.16Z</time></trkpt><trkpt lat="44.883315" lon="7.94775"><ele>282.6666666666667</ele><time>2026-05-01T11:31:14.154Z</time></trkpt><trkpt lat="44.8833" lon="7.9475117"><ele>283.33333333333337</ele><time>2026-05-01T11:31:15.155Z</time></trkpt><trkpt lat="44.883275" lon="7.9472833"><ele>284.0</ele><time>2026-05-01T11:31:16.154Z</time></trkpt><trkpt lat="44.8832367" lon="7.9470683"><ele>284.0</ele><time>2026-05-01T11:31:17.156Z</time></trkpt><trkpt lat="44.8831833" lon="7.9468667"><ele>284.0</ele><time>2026-05-01T11:31:18.154Z</time></trkpt><trkpt lat="44.883115" lon="7.9466783"><ele>284.0</ele><time>2026-05-01T11:31:19.16Z</time></trkpt><trkpt lat="44.8830117" lon="7.9465183"><ele>284.6666666666667</ele><time>2026-05-01T11:31:20.153Z</time></trkpt><trkpt lat="44.88289" lon="7.9463833"><ele>285.3333333333333</ele><time>2026-05-01T11:31:21.152Z</time></trkpt><trkpt lat="44.882745" lon="7.9462783"><ele>286.0</ele><time>2026-05-01T11:31:22.158Z</time></trkpt><trkpt lat="44.8825883" lon="7.946185"><ele>286.0</ele><time>2026-05-01T11:31:23.156Z</time></trkpt><trkpt lat="44.8824267" lon="7.9460883"><ele>286.0</ele><time>2026-05-01T11:31:24.153Z</time></trkpt><trkpt lat="44.882255" lon="7.94599"><ele>286.0</ele><time>2026-05-01T11:31:25.156Z</time></trkpt><trkpt lat="44.882085" lon="7.945895"><ele>287.3333333333333</ele><time>2026-05-01T11:31:26.155Z</time></trkpt><trkpt lat="44.8819183" lon="7.9457983"><ele>288.6666666666667</ele><time>2026-05-01T11:31:27.154Z</time></trkpt><trkpt lat="44.881755" lon="7.945705"><ele>290.0</ele><time>2026-05-01T11:31:28.155Z</time></trkpt><trkpt lat="44.8815933" lon="7.9456167"><ele>290.33333333333337</ele><time>2026-05-01T11:31:29.153Z</time></trkpt><trkpt lat="44.881435" lon="7.9455333"><ele>290.6666666666667</ele><time>2026-05-01T11:31:30.157Z</time></trkpt><trkpt lat="44.88128" lon="7.9454433"><ele>291.0</ele><time>2026-05-01T11:31:31.154Z</time></trkpt><trkpt lat="44.8811383" lon="7.9453383"><ele>291.0</ele><time>2026-05-01T11:31:32.157Z</time></trkpt><trkpt lat="44.8810117" lon="7.945205"><ele>291.0</ele><time>2026-05-01T11:31:33.156Z</time></trkpt><trkpt lat="44.880895" lon="7.9450483"><ele>291.0</ele><time>2026-05-01T11:31:34.157Z</time></trkpt><trkpt lat="44.8807783" lon="7.94488"><ele>291.6666666666667</ele><time>2026-05-01T11:31:35.157Z</time></trkpt><trkpt lat="44.8806533" lon="7.94471"><ele>292.33333333333337</ele><time>2026-05-01T11:31:36.152Z</time></trkpt><trkpt lat="44.8805217" lon="7.9445467"><ele>293.0</ele><time>2026-05-01T11:31:37.157Z</time></trkpt><trkpt lat="44.880375" lon="7.9443983"><ele>293.0</ele><time>2026-05-01T11:31:38.155Z</time></trkpt><trkpt lat="44.880215" lon="7.944285"><ele>293.0</ele><time>2026-05-01T11:31:39.154Z</time></trkpt><trkpt lat="44.8800467" lon="7.944195"><ele>293.0</ele><time>2026-05-01T11:31:40.156Z</time></trkpt><trkpt lat="44.879875" lon="7.944115"><ele>293.33333333333337</ele><time>2026-05-01T11:31:41.155Z</time></trkpt><trkpt lat="44.8796967" lon="7.9440433"><ele>293.6666666666667</ele><time>2026-05-01T11:31:42.154Z</time></trkpt><trkpt lat="44.8795217" lon="7.9439733"><ele>294.0</ele><time>2026-05-01T11:31:43.159Z</time></trkpt><trkpt lat="44.8793483" lon="7.9439183"><ele>293.6666666666667</ele><time>2026-05-01T11:31:44.159Z</time></trkpt><trkpt lat="44.879175" lon="7.9439017"><ele>293.33333333333337</ele><time>2026-05-01T11:31:45.154Z</time></trkpt><trkpt lat="44.878995" lon="7.94393"><ele>293.0</ele><time>2026-05-01T11:31:46.157Z</time></trkpt><trkpt lat="44.878815" lon="7.9439817"><ele>293.0</ele><time>2026-05-01T11:31:47.156Z</time></trkpt><trkpt lat="44.8786333" lon="7.94404"><ele>293.0</ele><time>2026-05-01T11:31:48.155Z</time></trkpt><trkpt lat="44.8784467" lon="7.9440967"><ele>293.0</ele><time>2026-05-01T11:31:49.155Z</time></trkpt><trkpt lat="44.8782517" lon="7.9441433"><ele>293.6666666666667</ele><time>2026-05-01T11:31:50.162Z</time></trkpt><trkpt lat="44.8780533" lon="7.9441733"><ele>294.3333333333333</ele><time>2026-05-01T11:31:51.163Z</time></trkpt><trkpt lat="44.8778567" lon="7.9442017"><ele>295.0</ele><time>2026-05-01T11:31:52.159Z</time></trkpt><trkpt lat="44.877655" lon="7.9442333"><ele>296.66666666666663</ele><time>2026-05-01T11:31:53.153Z</time></trkpt><trkpt lat="44.8774533" lon="7.9442633"><ele>298.3333333333333</ele><time>2026-05-01T11:31:54.154Z</time></trkpt><trkpt lat="44.8772483" lon="7.9442983"><ele>300.0</ele><time>2026-05-01T11:31:55.156Z</time></trkpt><trkpt lat="44.8770467" lon="7.9443383"><ele>300.0</ele><time>2026-05-01T11:31:56.153Z</time></trkpt><trkpt lat="44.8768467" lon="7.9443833"><ele>300.0</ele><time>2026-05-01T11:31:57.156Z</time></trkpt><trkpt lat="44.87665" lon="7.94443"><ele>300.0</ele><time>2026-05-01T11:31:58.154Z</time></trkpt><trkpt lat="44.8764567" lon="7.9444817"><ele>300.3333333333333</ele><time>2026-05-01T11:31:59.155Z</time></trkpt><trkpt lat="44.8762683" lon="7.9445383"><ele>300.66666666666663</ele><time>2026-05-01T11:32:00.158Z</time></trkpt><trkpt lat="44.8760833" lon="7.9446017"><ele>301.0</ele><time>2026-05-01T11:32:01.151Z</time></trkpt><trkpt lat="44.8759067" lon="7.9446767"><ele>301.3333333333333</ele><time>2026-05-01T11:32:02.162Z</time></trkpt><trkpt lat="44.8757317" lon="7.9447717"><ele>301.6666666666667</ele><time>2026-05-01T11:32:03.152Z</time></trkpt><trkpt lat="44.87556" lon="7.9448633"><ele>302.0</ele><time>2026-05-01T11:32:04.158Z</time></trkpt><trkpt lat="44.8753867" lon="7.9449367"><ele>302.0</ele><time>2026-05-01T11:32:05.157Z</time></trkpt><trkpt lat="44.8752133" lon="7.9449833"><ele>302.0</ele><time>2026-05-01T11:32:06.158Z</time></trkpt><trkpt lat="44.8750383" lon="7.945005"><ele>302.0</ele><time>2026-05-01T11:32:07.156Z</time></trkpt><trkpt lat="44.87486" lon="7.94501"><ele>302.6666666666667</ele><time>2026-05-01T11:32:08.159Z</time></trkpt><trkpt lat="44.8746767" lon="7.9450033"><ele>303.3333333333333</ele><time>2026-05-01T11:32:09.153Z</time></trkpt><trkpt lat="44.8744933" lon="7.9449883"><ele>304.0</ele><time>2026-05-01T11:32:10.157Z</time></trkpt><trkpt lat="44.87431" lon="7.9449633"><ele>304.3333333333333</ele><time>2026-05-01T11:32:11.158Z</time></trkpt><trkpt lat="44.87413" lon="7.9449267"><ele>304.6666666666667</ele><time>2026-05-01T11:32:12.157Z</time></trkpt><trkpt lat="44.8739533" lon="7.9448717"><ele>305.0</ele><time>2026-05-01T11:32:13.155Z</time></trkpt><trkpt lat="44.8737833" lon="7.94481"><ele>305.0</ele><time>2026-05-01T11:32:14.155Z</time></trkpt><trkpt lat="44.873615" lon="7.9447567"><ele>305.0</ele><time>2026-05-01T11:32:15.153Z</time></trkpt><trkpt lat="44.873465" lon="7.9447117"><ele>305.0</ele><time>2026-05-01T11:32:16.157Z</time></trkpt><trkpt lat="44.8733467" lon="7.9446783"><ele>305.0</ele><time>2026-05-01T11:32:17.155Z</time></trkpt><trkpt lat="44.8732533" lon="7.9446467"><ele>305.2</ele><time>2026-05-01T11:32:18.154Z</time></trkpt><trkpt lat="44.87316" lon="7.9446233"><ele>305.4</ele><time>2026-05-01T11:32:19.157Z</time></trkpt><trkpt lat="44.87306" lon="7.9446083"><ele>305.6</ele><time>2026-05-01T11:32:20.159Z</time></trkpt><trkpt lat="44.8729533" lon="7.9445917"><ele>305.8</ele><time>2026-05-01T11:32:21.16Z</time></trkpt><trkpt lat="44.872835" lon="7.9445867"><ele>306.0</ele><time>2026-05-01T11:32:22.156Z</time></trkpt><trkpt lat="44.8727133" lon="7.9446083"><ele>305.75</ele><time>2026-05-01T11:32:23.157Z</time></trkpt><trkpt lat="44.8725917" lon="7.9446467"><ele>305.5</ele><time>2026-05-01T11:32:24.154Z</time></trkpt><trkpt lat="44.872465" lon="7.9447033"><ele>305.25</ele><time>2026-05-01T11:32:25.157Z</time></trkpt><trkpt lat="44.8723317" lon="7.944765"><ele>305.0</ele><time>2026-05-01T11:32:26.153Z</time></trkpt><trkpt lat="44.8722" lon="7.9448267"><ele>305.0</ele><time>2026-05-01T11:32:27.154Z</time></trkpt><trkpt lat="44.8720733" lon="7.9448867"><ele>305.0</ele><time>2026-05-01T11:32:28.154Z</time></trkpt><trkpt lat="44.8719617" lon="7.94494"><ele>305.0</ele><time>2026-05-01T11:32:29.156Z</time></trkpt><trkpt lat="44.871865" lon="7.94499"><ele>305.0</ele><time>2026-05-01T11:32:30.154Z</time></trkpt><trkpt lat="44.8717733" lon="7.9450317"><ele>305.2</ele><time>2026-05-01T11:32:31.158Z</time></trkpt><trkpt lat="44.8716833" lon="7.9450717"><ele>305.4</ele><time>2026-05-01T11:32:32.157Z</time></trkpt><trkpt lat="44.8715917" lon="7.9451167"><ele>305.6</ele><time>2026-05-01T11:32:33.156Z</time></trkpt><trkpt lat="44.8714967" lon="7.945165"><ele>305.8</ele><time>2026-05-01T11:32:34.156Z</time></trkpt><trkpt lat="44.8713933" lon="7.945205"><ele>306.0</ele><time>2026-05-01T11:32:35.158Z</time></trkpt><trkpt lat="44.8712867" lon="7.9452383"><ele>306.0</ele><time>2026-05-01T11:32:36.153Z</time></trkpt><trkpt lat="44.87118" lon="7.945255"><ele>306.0</ele><time>2026-05-01T11:32:37.156Z</time></trkpt><trkpt lat="44.8710683" lon="7.9452517"><ele>306.0</ele><time>2026-05-01T11:32:38.154Z</time></trkpt><trkpt lat="44.870955" lon="7.9452167"><ele>306.0</ele><time>2026-05-01T11:32:39.153Z</time></trkpt><trkpt lat="44.8708417" lon="7.9451667"><ele>306.75</ele><time>2026-05-01T11:32:40.153Z</time></trkpt><trkpt lat="44.8707267" lon="7.9450983"><ele>307.5</ele><time>2026-05-01T11:32:41.153Z</time></trkpt><trkpt lat="44.8706133" lon="7.945025"><ele>308.25</ele><time>2026-05-01T11:32:42.158Z</time></trkpt><trkpt lat="44.8704967" lon="7.9449483"><ele>309.0</ele><time>2026-05-01T11:32:43.154Z</time></trkpt><trkpt lat="44.8703917" lon="7.9448783"><ele>309.0</ele><time>2026-05-01T11:32:44.157Z</time></trkpt><trkpt lat="44.8703" lon="7.944815"><ele>309.0</ele><time>2026-05-01T11:32:45.156Z</time></trkpt><trkpt lat="44.8702267" lon="7.9447367"><ele>309.0</ele><time>2026-05-01T11:32:46.153Z</time></trkpt><trkpt lat="44.87017" lon="7.9446433"><ele>309.0</ele><time>2026-05-01T11:32:47.16Z</time></trkpt><trkpt lat="44.8701233" lon="7.9445433"><ele>309.0</ele><time>2026-05-01T11:32:48.154Z</time></trkpt><trkpt lat="44.870085" lon="7.9444333"><ele>309.1666666666667</ele><time>2026-05-01T11:32:49.159Z</time></trkpt><trkpt lat="44.87005" lon="7.9443367"><ele>309.3333333333333</ele><time>2026-05-01T11:32:50.156Z</time></trkpt><trkpt lat="44.8700183" lon="7.94425"><ele>309.5</ele><time>2026-05-01T11:32:51.161Z</time></trkpt><trkpt lat="44.869985" lon="7.94417"><ele>309.66666666666663</ele><time>2026-05-01T11:32:52.164Z</time></trkpt><trkpt lat="44.8699317" lon="7.9440383"><ele>309.8333333333333</ele><time>2026-05-01T11:32:54.157Z</time></trkpt><trkpt lat="44.869885" lon="7.9439"><ele>310.0</ele><time>2026-05-01T11:32:56.153Z</time></trkpt><trkpt lat="44.8698267" lon="7.9437317"><ele>310.0</ele><time>2026-05-01T11:32:58.159Z</time></trkpt><trkpt lat="44.8697867" lon="7.9436317"><ele>310.0</ele><time>2026-05-01T11:32:59.156Z</time></trkpt><trkpt lat="44.8697417" lon="7.94354"><ele>310.0</ele><time>2026-05-01T11:33:00.159Z</time></trkpt><trkpt lat="44.8696967" lon="7.9434633"><ele>310.0</ele><time>2026-05-01T11:33:01.156Z</time></trkpt><trkpt lat="44.86963" lon="7.943365"><ele>310.0</ele><time>2026-05-01T11:33:03.151Z</time></trkpt><trkpt lat="44.869565" lon="7.9434217"><ele>310.0</ele><time>2026-05-01T11:33:08.155Z</time></trkpt><trkpt lat="44.8694983" lon="7.943545"><ele>310.0</ele><time>2026-05-01T11:33:10.157Z</time></trkpt><trkpt lat="44.869455" lon="7.9436317"><ele>310.0</ele><time>2026-05-01T11:33:11.156Z</time></trkpt><trkpt lat="44.8694017" lon="7.9437333"><ele>310.0</ele><time>2026-05-01T11:33:12.157Z</time></trkpt><trkpt lat="44.8693433" lon="7.9438417"><ele>310.0</ele><time>2026-05-01T11:33:13.156Z</time></trkpt><trkpt lat="44.8692717" lon="7.9439533"><ele>310.0</ele><time>2026-05-01T11:33:14.152Z</time></trkpt><trkpt lat="44.869185" lon="7.944065"><ele>309.75</ele><time>2026-05-01T11:33:15.154Z</time></trkpt><trkpt lat="44.8690933" lon="7.9441683"><ele>309.5</ele><time>2026-05-01T11:33:16.152Z</time></trkpt><trkpt lat="44.8689917" lon="7.944265"><ele>309.25</ele><time>2026-05-01T11:33:17.154Z</time></trkpt><trkpt lat="44.8688817" lon="7.94434"><ele>309.0</ele><time>2026-05-01T11:33:18.16Z</time></trkpt><trkpt lat="44.8687667" lon="7.9444"><ele>309.0</ele><time>2026-05-01T11:33:19.153Z</time></trkpt><trkpt lat="44.8686517" lon="7.94446"><ele>309.0</ele><time>2026-05-01T11:33:20.156Z</time></trkpt><trkpt lat="44.868535" lon="7.9445167"><ele>309.0</ele><time>2026-05-01T11:33:21.153Z</time></trkpt><trkpt lat="44.8684133" lon="7.9445633"><ele>309.0</ele><time>2026-05-01T11:33:22.156Z</time></trkpt><trkpt lat="44.868295" lon="7.9446067"><ele>310.25</ele><time>2026-05-01T11:33:23.154Z</time></trkpt><trkpt lat="44.868175" lon="7.9446383"><ele>311.5</ele><time>2026-05-01T11:33:24.153Z</time></trkpt><trkpt lat="44.8680633" lon="7.94466"><ele>312.75</ele><time>2026-05-01T11:33:25.158Z</time></trkpt><trkpt lat="44.8679483" lon="7.9446867"><ele>314.0</ele><time>2026-05-01T11:33:26.159Z</time></trkpt><trkpt lat="44.8678317" lon="7.9447067"><ele>314.0</ele><time>2026-05-01T11:33:27.158Z</time></trkpt><trkpt lat="44.8677217" lon="7.944725"><ele>314.0</ele><time>2026-05-01T11:33:28.154Z</time></trkpt><trkpt lat="44.867615" lon="7.94474"><ele>314.0</ele><time>2026-05-01T11:33:29.158Z</time></trkpt><trkpt lat="44.86751" lon="7.94475"><ele>314.0</ele><time>2026-05-01T11:33:30.151Z</time></trkpt><trkpt lat="44.8674117" lon="7.94476"><ele>314.0</ele><time>2026-05-01T11:33:31.166Z</time></trkpt><trkpt lat="44.867315" lon="7.9447717"><ele>314.33333333333337</ele><time>2026-05-01T11:33:32.153Z</time></trkpt><trkpt lat="44.8672217" lon="7.9447767"><ele>314.6666666666667</ele><time>2026-05-01T11:33:33.153Z</time></trkpt><trkpt lat="44.8671367" lon="7.9447767"><ele>315.0</ele><time>2026-05-01T11:33:34.154Z</time></trkpt><trkpt lat="44.867055" lon="7.9447733"><ele>315.3333333333333</ele><time>2026-05-01T11:33:35.154Z</time></trkpt><trkpt lat="44.8669867" lon="7.944765"><ele>315.66666666666663</ele><time>2026-05-01T11:33:36.155Z</time></trkpt><trkpt lat="44.8668717" lon="7.9447617"><ele>316.0</ele><time>2026-05-01T11:33:38.155Z</time></trkpt><trkpt lat="44.8667883" lon="7.9447267"><ele>316.5</ele><time>2026-05-01T11:33:40.155Z</time></trkpt><trkpt lat="44.8667417" lon="7.94462"><ele>317.0</ele><time>2026-05-01T11:33:42.153Z</time></trkpt><trkpt lat="44.8667267" lon="7.9445267"><ele>317.5</ele><time>2026-05-01T11:33:43.158Z</time></trkpt><trkpt lat="44.8666967" lon="7.9444267"><ele>318.0</ele><time>2026-05-01T11:33:44.155Z</time></trkpt><trkpt lat="44.866675" lon="7.9443033"><ele>318.5</ele><time>2026-05-01T11:33:45.156Z</time></trkpt><trkpt lat="44.86665" lon="7.9441683"><ele>319.0</ele><time>2026-05-01T11:33:46.157Z</time></trkpt><trkpt lat="44.8666167" lon="7.9440383"><ele>319.0</ele><time>2026-05-01T11:33:47.151Z</time></trkpt><trkpt lat="44.8665833" lon="7.94391"><ele>319.0</ele><time>2026-05-01T11:33:48.156Z</time></trkpt><trkpt lat="44.8665483" lon="7.9437833"><ele>319.0</ele><time>2026-05-01T11:33:49.154Z</time></trkpt><trkpt lat="44.866505" lon="7.9436533"><ele>319.0</ele><time>2026-05-01T11:33:50.156Z</time></trkpt><trkpt lat="44.8664633" lon="7.9435133"><ele>319.0</ele><time>2026-05-01T11:33:51.153Z</time></trkpt><trkpt lat="44.86642" lon="7.9433683"><ele>318.8</ele><time>2026-05-01T11:33:52.153Z</time></trkpt><trkpt lat="44.8663767" lon="7.9432167"><ele>318.59999999999997</ele><time>2026-05-01T11:33:53.151Z</time></trkpt><trkpt lat="44.866335" lon="7.943065"><ele>318.4</ele><time>2026-05-01T11:33:54.158Z</time></trkpt><trkpt lat="44.8662933" lon="7.942925"><ele>318.2</ele><time>2026-05-01T11:33:55.154Z</time></trkpt><trkpt lat="44.8662433" lon="7.9427917"><ele>318.0</ele><time>2026-05-01T11:33:56.155Z</time></trkpt><trkpt lat="44.8662133" lon="7.9426433"><ele>317.0</ele><time>2026-05-01T11:33:57.153Z</time></trkpt><trkpt lat="44.8661967" lon="7.9424833"><ele>316.0</ele><time>2026-05-01T11:33:58.152Z</time></trkpt><trkpt lat="44.866185" lon="7.9423133"><ele>315.0</ele><time>2026-05-01T11:33:59.162Z</time></trkpt><trkpt lat="44.86617" lon="7.942135"><ele>314.0</ele><time>2026-05-01T11:34:00.155Z</time></trkpt><trkpt lat="44.866135" lon="7.9419583"><ele>314.0</ele><time>2026-05-01T11:34:01.155Z</time></trkpt><trkpt lat="44.86607" lon="7.941785"><ele>314.0</ele><time>2026-05-01T11:34:02.161Z</time></trkpt><trkpt lat="44.865985" lon="7.941615"><ele>314.0</ele><time>2026-05-01T11:34:03.154Z</time></trkpt><trkpt lat="44.8658833" lon="7.9414433"><ele>314.0</ele><time>2026-05-01T11:34:04.157Z</time></trkpt><trkpt lat="44.865775" lon="7.941275"><ele>311.6666666666667</ele><time>2026-05-01T11:34:05.155Z</time></trkpt><trkpt lat="44.8656567" lon="7.9411167"><ele>309.3333333333333</ele><time>2026-05-01T11:34:06.158Z</time></trkpt><trkpt lat="44.8655333" lon="7.9409767"><ele>307.0</ele><time>2026-05-01T11:34:07.155Z</time></trkpt><trkpt lat="44.8654233" lon="7.940825"><ele>307.0</ele><time>2026-05-01T11:34:08.151Z</time></trkpt><trkpt lat="44.8653367" lon="7.9406517"><ele>307.0</ele><time>2026-05-01T11:34:09.159Z</time></trkpt><trkpt lat="44.865255" lon="7.9404583"><ele>307.0</ele><time>2026-05-01T11:34:10.158Z</time></trkpt><trkpt lat="44.8651883" lon="7.940245"><ele>305.5</ele><time>2026-05-01T11:34:11.153Z</time></trkpt><trkpt lat="44.865125" lon="7.94003"><ele>304.0</ele><time>2026-05-01T11:34:12.153Z</time></trkpt><trkpt lat="44.8650633" lon="7.9398367"><ele>302.5</ele><time>2026-05-01T11:34:13.157Z</time></trkpt><trkpt lat="44.8649967" lon="7.9396783"><ele>301.0</ele><time>2026-05-01T11:34:14.157Z</time></trkpt><trkpt lat="44.86492" lon="7.9395583"><ele>300.25</ele><time>2026-05-01T11:34:15.157Z</time></trkpt><trkpt lat="44.8648167" lon="7.9394867"><ele>299.5</ele><time>2026-05-01T11:34:16.151Z</time></trkpt><trkpt lat="44.8646867" lon="7.9394533"><ele>298.75</ele><time>2026-05-01T11:34:17.156Z</time></trkpt><trkpt lat="44.8645517" lon="7.9394517"><ele>298.0</ele><time>2026-05-01T11:34:18.154Z</time></trkpt><trkpt lat="44.864405" lon="7.9394567"><ele>298.66666666666663</ele><time>2026-05-01T11:34:19.156Z</time></trkpt><trkpt lat="44.86425" lon="7.9394567"><ele>299.3333333333333</ele><time>2026-05-01T11:34:20.151Z</time></trkpt><trkpt lat="44.8640883" lon="7.9394567"><ele>300.0</ele><time>2026-05-01T11:34:21.152Z</time></trkpt><trkpt lat="44.8639283" lon="7.9394483"><ele>300.0</ele><time>2026-05-01T11:34:22.157Z</time></trkpt><trkpt lat="44.8637683" lon="7.93943"><ele>300.0</ele><time>2026-05-01T11:34:23.155Z</time></trkpt><trkpt lat="44.8636133" lon="7.939405"><ele>300.0</ele><time>2026-05-01T11:34:24.153Z</time></trkpt><trkpt lat="44.8634717" lon="7.9393717"><ele>299.75</ele><time>2026-05-01T11:34:25.158Z</time></trkpt><trkpt lat="44.86334" lon="7.9393233"><ele>299.5</ele><time>2026-05-01T11:34:26.158Z</time></trkpt><trkpt lat="44.8632183" lon="7.9392533"><ele>299.25</ele><time>2026-05-01T11:34:27.156Z</time></trkpt><trkpt lat="44.8631167" lon="7.9391417"><ele>299.0</ele><time>2026-05-01T11:34:28.154Z</time></trkpt><trkpt lat="44.863035" lon="7.93899"><ele>300.33333333333337</ele><time>2026-05-01T11:34:29.153Z</time></trkpt><trkpt lat="44.8629667" lon="7.93881"><ele>301.6666666666667</ele><time>2026-05-01T11:34:30.152Z</time></trkpt><trkpt lat="44.8628983" lon="7.9386017"><ele>303.0</ele><time>2026-05-01T11:34:31.156Z</time></trkpt><trkpt lat="44.8628317" lon="7.938375"><ele>304.0</ele><time>2026-05-01T11:34:32.156Z</time></trkpt><trkpt lat="44.86275" lon="7.9381383"><ele>305.0</ele><time>2026-05-01T11:34:33.153Z</time></trkpt><trkpt lat="44.8626733" lon="7.9378733"><ele>306.0</ele><time>2026-05-01T11:34:34.15Z</time></trkpt><trkpt lat="44.8625917" lon="7.93759"><ele>302.0</ele><time>2026-05-01T11:34:35.154Z</time></trkpt><trkpt lat="44.8624917" lon="7.9373033"><ele>298.0</ele><time>2026-05-01T11:34:36.155Z</time></trkpt><trkpt lat="44.86239" lon="7.9370133"><ele>298.0</ele><time>2026-05-01T11:34:37.156Z</time></trkpt><trkpt lat="44.8622867" lon="7.9367233"><ele>298.0</ele><time>2026-05-01T11:34:38.149Z</time></trkpt><trkpt lat="44.86218" lon="7.9364383"><ele>297.3333333333333</ele><time>2026-05-01T11:34:39.153Z</time></trkpt><trkpt lat="44.862075" lon="7.93616"><ele>296.6666666666667</ele><time>2026-05-01T11:34:40.152Z</time></trkpt><trkpt lat="44.8619667" lon="7.9358967"><ele>296.0</ele><time>2026-05-01T11:34:41.157Z</time></trkpt><trkpt lat="44.8618517" lon="7.9356533"><ele>297.6666666666667</ele><time>2026-05-01T11:34:42.154Z</time></trkpt><trkpt lat="44.861745" lon="7.93542"><ele>299.3333333333333</ele><time>2026-05-01T11:34:43.154Z</time></trkpt><trkpt lat="44.8616517" lon="7.9352017"><ele>301.0</ele><time>2026-05-01T11:34:44.158Z</time></trkpt><trkpt lat="44.8615767" lon="7.934995"><ele>301.66666666666663</ele><time>2026-05-01T11:34:45.156Z</time></trkpt><trkpt lat="44.8615133" lon="7.9347933"><ele>302.3333333333333</ele><time>2026-05-01T11:34:46.154Z</time></trkpt><trkpt lat="44.8614567" lon="7.934595"><ele>303.0</ele><time>2026-05-01T11:34:47.157Z</time></trkpt><trkpt lat="44.86139" lon="7.934415"><ele>303.0</ele><time>2026-05-01T11:34:48.159Z</time></trkpt><trkpt lat="44.861305" lon="7.9342633"><ele>303.0</ele><time>2026-05-01T11:34:49.151Z</time></trkpt><trkpt lat="44.8612083" lon="7.9341417"><ele>303.0</ele><time>2026-05-01T11:34:50.155Z</time></trkpt><trkpt lat="44.861105" lon="7.9340533"><ele>303.0</ele><time>2026-05-01T11:34:51.156Z</time></trkpt><trkpt lat="44.861005" lon="7.934005"><ele>303.2</ele><time>2026-05-01T11:34:52.154Z</time></trkpt><trkpt lat="44.8609017" lon="7.9340117"><ele>303.4</ele><time>2026-05-01T11:34:53.158Z</time></trkpt><trkpt lat="44.8607967" lon="7.9340567"><ele>303.59999999999997</ele><time>2026-05-01T11:34:54.157Z</time></trkpt><trkpt lat="44.8606917" lon="7.9341483"><ele>303.8</ele><time>2026-05-01T11:34:55.156Z</time></trkpt><trkpt lat="44.8606133" lon="7.9342567"><ele>304.0</ele><time>2026-05-01T11:34:56.155Z</time></trkpt><trkpt lat="44.8605233" lon="7.9343433"><ele>304.0</ele><time>2026-05-01T11:34:57.158Z</time></trkpt><trkpt lat="44.860435" lon="7.934425"><ele>304.0</ele><time>2026-05-01T11:34:58.158Z</time></trkpt><trkpt lat="44.8603433" lon="7.93444"><ele>304.0</ele><time>2026-05-01T11:34:59.153Z</time></trkpt><trkpt lat="44.8602817" lon="7.9342767"><ele>304.0</ele><time>2026-05-01T11:35:00.155Z</time></trkpt><trkpt lat="44.8602333" lon="7.9341417"><ele>304.0</ele><time>2026-05-01T11:35:01.158Z</time></trkpt><trkpt lat="44.860175" lon="7.93399"><ele>307.25</ele><time>2026-05-01T11:35:02.157Z</time></trkpt><trkpt lat="44.8600933" lon="7.933855"><ele>310.5</ele><time>2026-05-01T11:35:03.156Z</time></trkpt><trkpt lat="44.859985" lon="7.9337467"><ele>313.75</ele><time>2026-05-01T11:35:04.151Z</time></trkpt><trkpt lat="44.859855" lon="7.933675"><ele>317.0</ele><time>2026-05-01T11:35:05.154Z</time></trkpt><trkpt lat="44.8597167" lon="7.9336317"><ele>317.0</ele><time>2026-05-01T11:35:06.154Z</time></trkpt><trkpt lat="44.8595817" lon="7.93359"><ele>317.0</ele><time>2026-05-01T11:35:07.151Z</time></trkpt><trkpt lat="44.8594467" lon="7.933545"><ele>317.0</ele><time>2026-05-01T11:35:08.151Z</time></trkpt><trkpt lat="44.85931" lon="7.9334967"><ele>317.0</ele><time>2026-05-01T11:35:09.155Z</time></trkpt><trkpt lat="44.859165" lon="7.9334433"><ele>318.25</ele><time>2026-05-01T11:35:10.158Z</time></trkpt><trkpt lat="44.8590217" lon="7.9333883"><ele>319.5</ele><time>2026-05-01T11:35:11.156Z</time></trkpt><trkpt lat="44.8588833" lon="7.933335"><ele>320.75</ele><time>2026-05-01T11:35:12.155Z</time></trkpt><trkpt lat="44.8587483" lon="7.933275"><ele>322.0</ele><time>2026-05-01T11:35:13.152Z</time></trkpt><trkpt lat="44.8586133" lon="7.9331933"><ele>322.0</ele><time>2026-05-01T11:35:14.152Z</time></trkpt><trkpt lat="44.8584883" lon="7.9330867"><ele>322.0</ele><time>2026-05-01T11:35:15.155Z</time></trkpt><trkpt lat="44.858375" lon="7.9329667"><ele>322.0</ele><time>2026-05-01T11:35:16.156Z</time></trkpt><trkpt lat="44.8582633" lon="7.9328583"><ele>322.0</ele><time>2026-05-01T11:35:17.155Z</time></trkpt><trkpt lat="44.8581483" lon="7.932775"><ele>322.0</ele><time>2026-05-01T11:35:18.155Z</time></trkpt><trkpt lat="44.8580283" lon="7.9327133"><ele>322.0</ele><time>2026-05-01T11:35:19.156Z</time></trkpt><trkpt lat="44.8578983" lon="7.9326583"><ele>322.0</ele><time>2026-05-01T11:35:20.152Z</time></trkpt><trkpt lat="44.857765" lon="7.9326"><ele>322.0</ele><time>2026-05-01T11:35:21.154Z</time></trkpt><trkpt lat="44.8576233" lon="7.9325383"><ele>324.0</ele><time>2026-05-01T11:35:22.157Z</time></trkpt><trkpt lat="44.8574767" lon="7.9324817"><ele>326.0</ele><time>2026-05-01T11:35:23.159Z</time></trkpt><trkpt lat="44.8573267" lon="7.9324217"><ele>328.0</ele><time>2026-05-01T11:35:24.155Z</time></trkpt><trkpt lat="44.85717" lon="7.932355"><ele>328.0</ele><time>2026-05-01T11:35:25.152Z</time></trkpt><trkpt lat="44.8570033" lon="7.9322917"><ele>328.0</ele><time>2026-05-01T11:35:26.16Z</time></trkpt><trkpt lat="44.8568367" lon="7.9322283"><ele>328.0</ele><time>2026-05-01T11:35:27.155Z</time></trkpt><trkpt lat="44.8566683" lon="7.9321683"><ele>326.3333333333333</ele><time>2026-05-01T11:35:28.156Z</time></trkpt><trkpt lat="44.8565017" lon="7.9321083"><ele>324.6666666666667</ele><time>2026-05-01T11:35:29.152Z</time></trkpt><trkpt lat="44.8563367" lon="7.9320433"><ele>323.0</ele><time>2026-05-01T11:35:30.156Z</time></trkpt><trkpt lat="44.8561767" lon="7.93196"><ele>323.0</ele><time>2026-05-01T11:35:31.156Z</time></trkpt><trkpt lat="44.8560183" lon="7.9318467"><ele>323.0</ele><time>2026-05-01T11:35:32.156Z</time></trkpt><trkpt lat="44.8558583" lon="7.9317183"><ele>323.0</ele><time>2026-05-01T11:35:33.149Z</time></trkpt><trkpt lat="44.8557" lon="7.9315867"><ele>325.33333333333337</ele><time>2026-05-01T11:35:34.151Z</time></trkpt><trkpt lat="44.8555483" lon="7.931455"><ele>327.6666666666667</ele><time>2026-05-01T11:35:35.152Z</time></trkpt><trkpt lat="44.8554" lon="7.9313283"><ele>330.0</ele><time>2026-05-01T11:35:36.151Z</time></trkpt><trkpt lat="44.8552533" lon="7.9312033"><ele>329.6666666666667</ele><time>2026-05-01T11:35:37.153Z</time></trkpt><trkpt lat="44.8551117" lon="7.9310767"><ele>329.33333333333337</ele><time>2026-05-01T11:35:38.158Z</time></trkpt><trkpt lat="44.85497" lon="7.9309533"><ele>329.0</ele><time>2026-05-01T11:35:39.153Z</time></trkpt><trkpt lat="44.85483" lon="7.930835"><ele>329.0</ele><time>2026-05-01T11:35:40.158Z</time></trkpt><trkpt lat="44.85469" lon="7.9307167"><ele>329.0</ele><time>2026-05-01T11:35:41.154Z</time></trkpt><trkpt lat="44.8545483" lon="7.9305983"><ele>329.0</ele><time>2026-05-01T11:35:42.155Z</time></trkpt><trkpt lat="44.8544067" lon="7.9304783"><ele>328.6666666666667</ele><time>2026-05-01T11:35:43.157Z</time></trkpt><trkpt lat="44.8542633" lon="7.9303533"><ele>328.3333333333333</ele><time>2026-05-01T11:35:44.153Z</time></trkpt><trkpt lat="44.8541167" lon="7.9302283"><ele>328.0</ele><time>2026-05-01T11:35:45.157Z</time></trkpt><trkpt lat="44.853965" lon="7.9301017"><ele>329.0</ele><time>2026-05-01T11:35:46.16Z</time></trkpt><trkpt lat="44.85381" lon="7.9299733"><ele>330.0</ele><time>2026-05-01T11:35:47.155Z</time></trkpt><trkpt lat="44.8536567" lon="7.929845"><ele>331.0</ele><time>2026-05-01T11:35:48.162Z</time></trkpt><trkpt lat="44.8535183" lon="7.929725"><ele>331.25</ele><time>2026-05-01T11:35:49.154Z</time></trkpt><trkpt lat="44.8533967" lon="7.92961"><ele>331.5</ele><time>2026-05-01T11:35:50.154Z</time></trkpt><trkpt lat="44.8532967" lon="7.9294767"><ele>331.75</ele><time>2026-05-01T11:35:51.155Z</time></trkpt><trkpt lat="44.85323" lon="7.92932"><ele>332.0</ele><time>2026-05-01T11:35:52.153Z</time></trkpt><trkpt lat="44.8531867" lon="7.92915"><ele>332.0</ele><time>2026-05-01T11:35:53.153Z</time></trkpt><trkpt lat="44.85318" lon="7.9289483"><ele>332.0</ele><time>2026-05-01T11:35:54.156Z</time></trkpt><trkpt lat="44.8531867" lon="7.928735"><ele>332.0</ele><time>2026-05-01T11:35:55.153Z</time></trkpt><trkpt lat="44.8531967" lon="7.92851"><ele>331.25</ele><time>2026-05-01T11:35:56.155Z</time></trkpt><trkpt lat="44.85321" lon="7.9282867"><ele>330.5</ele><time>2026-05-01T11:35:57.151Z</time></trkpt><trkpt lat="44.85322" lon="7.92808"><ele>329.75</ele><time>2026-05-01T11:35:58.154Z</time></trkpt><trkpt lat="44.8532467" lon="7.927885"><ele>329.0</ele><time>2026-05-01T11:35:59.154Z</time></trkpt><trkpt lat="44.8533033" lon="7.927705"><ele>329.0</ele><time>2026-05-01T11:36:00.154Z</time></trkpt><trkpt lat="44.8533933" lon="7.92755"><ele>329.0</ele><time>2026-05-01T11:36:01.16Z</time></trkpt><trkpt lat="44.8535167" lon="7.9274167"><ele>329.0</ele><time>2026-05-01T11:36:02.154Z</time></trkpt><trkpt lat="44.85364" lon="7.9272933"><ele>329.0</ele><time>2026-05-01T11:36:03.156Z</time></trkpt><trkpt lat="44.85374" lon="7.9271583"><ele>328.25</ele><time>2026-05-01T11:36:04.157Z</time></trkpt><trkpt lat="44.8538183" lon="7.9270017"><ele>327.5</ele><time>2026-05-01T11:36:05.154Z</time></trkpt><trkpt lat="44.8538667" lon="7.9268133"><ele>326.75</ele><time>2026-05-01T11:36:06.154Z</time></trkpt><trkpt lat="44.8538967" lon="7.9266133"><ele>326.0</ele><time>2026-05-01T11:36:07.158Z</time></trkpt><trkpt lat="44.8539333" lon="7.9264133"><ele>325.6666666666667</ele><time>2026-05-01T11:36:08.155Z</time></trkpt><trkpt lat="44.8539867" lon="7.92622"><ele>325.3333333333333</ele><time>2026-05-01T11:36:09.154Z</time></trkpt><trkpt lat="44.854055" lon="7.926025"><ele>325.0</ele><time>2026-05-01T11:36:10.153Z</time></trkpt><trkpt lat="44.8541467" lon="7.925835"><ele>324.66666666666663</ele><time>2026-05-01T11:36:11.154Z</time></trkpt><trkpt lat="44.85425" lon="7.9256433"><ele>324.3333333333333</ele><time>2026-05-01T11:36:12.156Z</time></trkpt><trkpt lat="44.8543717" lon="7.9254633"><ele>324.0</ele><time>2026-05-01T11:36:13.156Z</time></trkpt><trkpt lat="44.8545167" lon="7.925305"><ele>324.0</ele><time>2026-05-01T11:36:14.155Z</time></trkpt><trkpt lat="44.8546683" lon="7.925165"><ele>324.0</ele><time>2026-05-01T11:36:15.152Z</time></trkpt><trkpt lat="44.8548167" lon="7.9250233"><ele>324.0</ele><time>2026-05-01T11:36:16.154Z</time></trkpt><trkpt lat="44.8549533" lon="7.92487"><ele>325.0</ele><time>2026-05-01T11:36:17.153Z</time></trkpt><trkpt lat="44.8550733" lon="7.9246917"><ele>326.0</ele><time>2026-05-01T11:36:18.153Z</time></trkpt><trkpt lat="44.8551817" lon="7.9244883"><ele>327.0</ele><time>2026-05-01T11:36:19.152Z</time></trkpt><trkpt lat="44.85529" lon="7.9242683"><ele>326.6666666666667</ele><time>2026-05-01T11:36:20.151Z</time></trkpt><trkpt lat="44.8554017" lon="7.9240467"><ele>326.33333333333337</ele><time>2026-05-01T11:36:21.157Z</time></trkpt><trkpt lat="44.8555233" lon="7.9238433"><ele>326.0</ele><time>2026-05-01T11:36:22.155Z</time></trkpt><trkpt lat="44.85565" lon="7.92365"><ele>326.0</ele><time>2026-05-01T11:36:23.159Z</time></trkpt><trkpt lat="44.8557767" lon="7.92346"><ele>326.0</ele><time>2026-05-01T11:36:24.156Z</time></trkpt><trkpt lat="44.8558883" lon="7.9232617"><ele>326.0</ele><time>2026-05-01T11:36:25.158Z</time></trkpt><trkpt lat="44.85598" lon="7.9230683"><ele>325.5</ele><time>2026-05-01T11:36:26.154Z</time></trkpt><trkpt lat="44.8560483" lon="7.9228833"><ele>325.0</ele><time>2026-05-01T11:36:27.159Z</time></trkpt><trkpt lat="44.8560883" lon="7.9226867"><ele>324.5</ele><time>2026-05-01T11:36:28.154Z</time></trkpt><trkpt lat="44.8560933" lon="7.9224817"><ele>324.0</ele><time>2026-05-01T11:36:29.159Z</time></trkpt><trkpt lat="44.8560683" lon="7.922265"><ele>324.0</ele><time>2026-05-01T11:36:30.152Z</time></trkpt><trkpt lat="44.85603" lon="7.9220383"><ele>324.0</ele><time>2026-05-01T11:36:31.157Z</time></trkpt><trkpt lat="44.8559883" lon="7.921795"><ele>324.0</ele><time>2026-05-01T11:36:32.155Z</time></trkpt><trkpt lat="44.855945" lon="7.9215383"><ele>325.0</ele><time>2026-05-01T11:36:33.159Z</time></trkpt><trkpt lat="44.8559" lon="7.92127"><ele>326.0</ele><time>2026-05-01T11:36:34.161Z</time></trkpt><trkpt lat="44.8558517" lon="7.920995"><ele>327.0</ele><time>2026-05-01T11:36:35.153Z</time></trkpt><trkpt lat="44.855805" lon="7.9207217"><ele>327.0</ele><time>2026-05-01T11:36:36.155Z</time></trkpt><trkpt lat="44.8557583" lon="7.920445"><ele>327.0</ele><time>2026-05-01T11:36:37.158Z</time></trkpt><trkpt lat="44.8557117" lon="7.9201667"><ele>327.0</ele><time>2026-05-01T11:36:38.157Z</time></trkpt><trkpt lat="44.8556683" lon="7.919885"><ele>326.3333333333333</ele><time>2026-05-01T11:36:39.154Z</time></trkpt><trkpt lat="44.8556267" lon="7.9196083"><ele>325.66666666666663</ele><time>2026-05-01T11:36:40.159Z</time></trkpt><trkpt lat="44.855585" lon="7.9193517"><ele>325.0</ele><time>2026-05-01T11:36:41.155Z</time></trkpt><trkpt lat="44.8555533" lon="7.9191133"><ele>323.66666666666663</ele><time>2026-05-01T11:36:42.153Z</time></trkpt><trkpt lat="44.8555383" lon="7.91888"><ele>322.3333333333333</ele><time>2026-05-01T11:36:43.155Z</time></trkpt><trkpt lat="44.8555483" lon="7.91865"><ele>321.0</ele><time>2026-05-01T11:36:44.153Z</time></trkpt><trkpt lat="44.8555817" lon="7.9184217"><ele>321.6666666666667</ele><time>2026-05-01T11:36:45.157Z</time></trkpt><trkpt lat="44.8556283" lon="7.9181867"><ele>322.33333333333337</ele><time>2026-05-01T11:36:46.153Z</time></trkpt><trkpt lat="44.85569" lon="7.9179533"><ele>323.0</ele><time>2026-05-01T11:36:47.154Z</time></trkpt><trkpt lat="44.855765" lon="7.9177267"><ele>322.6666666666667</ele><time>2026-05-01T11:36:48.153Z</time></trkpt><trkpt lat="44.8558483" lon="7.9175017"><ele>322.3333333333333</ele><time>2026-05-01T11:36:49.154Z</time></trkpt><trkpt lat="44.855945" lon="7.917285"><ele>322.0</ele><time>2026-05-01T11:36:50.154Z</time></trkpt><trkpt lat="44.8560517" lon="7.917075"><ele>320.3333333333333</ele><time>2026-05-01T11:36:51.157Z</time></trkpt><trkpt lat="44.856175" lon="7.916875"><ele>318.6666666666667</ele><time>2026-05-01T11:36:52.155Z</time></trkpt><trkpt lat="44.856315" lon="7.916685"><ele>317.0</ele><time>2026-05-01T11:36:53.157Z</time></trkpt><trkpt lat="44.8564617" lon="7.9165017"><ele>317.0</ele><time>2026-05-01T11:36:54.156Z</time></trkpt><trkpt lat="44.8566117" lon="7.9163117"><ele>317.0</ele><time>2026-05-01T11:36:55.155Z</time></trkpt><trkpt lat="44.85677" lon="7.91613"><ele>317.0</ele><time>2026-05-01T11:36:56.157Z</time></trkpt><trkpt lat="44.8569267" lon="7.9159633"><ele>317.6666666666667</ele><time>2026-05-01T11:36:57.153Z</time></trkpt><trkpt lat="44.8570783" lon="7.9158067"><ele>318.3333333333333</ele><time>2026-05-01T11:36:58.154Z</time></trkpt><trkpt lat="44.8572217" lon="7.91567"><ele>319.0</ele><time>2026-05-01T11:36:59.156Z</time></trkpt><trkpt lat="44.8573517" lon="7.9155533"><ele>319.0</ele><time>2026-05-01T11:37:00.157Z</time></trkpt><trkpt lat="44.8574633" lon="7.9154483"><ele>319.0</ele><time>2026-05-01T11:37:01.156Z</time></trkpt><trkpt lat="44.8575533" lon="7.9153233"><ele>319.0</ele><time>2026-05-01T11:37:02.155Z</time></trkpt><trkpt lat="44.8576133" lon="7.91516"><ele>319.0</ele><time>2026-05-01T11:37:03.151Z</time></trkpt><trkpt lat="44.857655" lon="7.9149683"><ele>316.66666666666663</ele><time>2026-05-01T11:37:04.155Z</time></trkpt><trkpt lat="44.8576767" lon="7.91475"><ele>314.3333333333333</ele><time>2026-05-01T11:37:05.156Z</time></trkpt><trkpt lat="44.8576817" lon="7.9145117"><ele>312.0</ele><time>2026-05-01T11:37:06.154Z</time></trkpt><trkpt lat="44.8576917" lon="7.9142717"><ele>313.3333333333333</ele><time>2026-05-01T11:37:07.157Z</time></trkpt><trkpt lat="44.85771" lon="7.914035"><ele>314.66666666666663</ele><time>2026-05-01T11:37:08.151Z</time></trkpt><trkpt lat="44.8577317" lon="7.9137983"><ele>316.0</ele><time>2026-05-01T11:37:09.156Z</time></trkpt><trkpt lat="44.8577517" lon="7.9135667"><ele>316.66666666666663</ele><time>2026-05-01T11:37:10.155Z</time></trkpt><trkpt lat="44.8577717" lon="7.9133367"><ele>317.3333333333333</ele><time>2026-05-01T11:37:11.157Z</time></trkpt><trkpt lat="44.8577917" lon="7.9131083"><ele>318.0</ele><time>2026-05-01T11:37:12.152Z</time></trkpt><trkpt lat="44.8578117" lon="7.912875"><ele>318.0</ele><time>2026-05-01T11:37:13.157Z</time></trkpt><trkpt lat="44.8578317" lon="7.9126367"><ele>318.0</ele><time>2026-05-01T11:37:14.155Z</time></trkpt><trkpt lat="44.85785" lon="7.9123917"><ele>318.0</ele><time>2026-05-01T11:37:15.151Z</time></trkpt><trkpt lat="44.8578717" lon="7.912145"><ele>317.3333333333333</ele><time>2026-05-01T11:37:16.154Z</time></trkpt><trkpt lat="44.857895" lon="7.9118983"><ele>316.66666666666663</ele><time>2026-05-01T11:37:17.155Z</time></trkpt><trkpt lat="44.857915" lon="7.91165"><ele>316.0</ele><time>2026-05-01T11:37:18.158Z</time></trkpt><trkpt lat="44.8579367" lon="7.9114"><ele>315.3333333333333</ele><time>2026-05-01T11:37:19.153Z</time></trkpt><trkpt lat="44.8579583" lon="7.91115"><ele>314.6666666666667</ele><time>2026-05-01T11:37:20.153Z</time></trkpt><trkpt lat="44.85798" lon="7.9109033"><ele>314.0</ele><time>2026-05-01T11:37:21.152Z</time></trkpt><trkpt lat="44.8580083" lon="7.9106717"><ele>313.75</ele><time>2026-05-01T11:37:22.155Z</time></trkpt><trkpt lat="44.8580433" lon="7.91047"><ele>313.5</ele><time>2026-05-01T11:37:23.156Z</time></trkpt><trkpt lat="44.858095" lon="7.91028"><ele>313.25</ele><time>2026-05-01T11:37:24.153Z</time></trkpt><trkpt lat="44.8581783" lon="7.9101117"><ele>313.0</ele><time>2026-05-01T11:37:25.152Z</time></trkpt><trkpt lat="44.8583067" lon="7.9099567"><ele>313.0</ele><time>2026-05-01T11:37:26.153Z</time></trkpt><trkpt lat="44.8584433" lon="7.9097983"><ele>313.0</ele><time>2026-05-01T11:37:27.155Z</time></trkpt><trkpt lat="44.8585817" lon="7.9096317"><ele>313.0</ele><time>2026-05-01T11:37:28.155Z</time></trkpt><trkpt lat="44.8587283" lon="7.9094617"><ele>312.0</ele><time>2026-05-01T11:37:29.153Z</time></trkpt><trkpt lat="44.8588867" lon="7.9092817"><ele>311.0</ele><time>2026-05-01T11:37:30.156Z</time></trkpt><trkpt lat="44.859045" lon="7.909095"><ele>310.0</ele><time>2026-05-01T11:37:31.158Z</time></trkpt><trkpt lat="44.859205" lon="7.9089117"><ele>309.66666666666663</ele><time>2026-05-01T11:37:32.16Z</time></trkpt><trkpt lat="44.8593633" lon="7.9087283"><ele>309.3333333333333</ele><time>2026-05-01T11:37:33.156Z</time></trkpt><trkpt lat="44.8595167" lon="7.9085517"><ele>309.0</ele><time>2026-05-01T11:37:34.155Z</time></trkpt><trkpt lat="44.85966" lon="7.90839"><ele>309.75</ele><time>2026-05-01T11:37:35.151Z</time></trkpt><trkpt lat="44.859785" lon="7.9082467"><ele>310.5</ele><time>2026-05-01T11:37:36.151Z</time></trkpt><trkpt lat="44.8598867" lon="7.9081383"><ele>311.25</ele><time>2026-05-01T11:37:37.156Z</time></trkpt><trkpt lat="44.859975" lon="7.908045"><ele>312.0</ele><time>2026-05-01T11:37:38.15Z</time></trkpt><trkpt lat="44.8600467" lon="7.90795"><ele>312.0</ele><time>2026-05-01T11:37:39.155Z</time></trkpt><trkpt lat="44.8601033" lon="7.907845"><ele>312.0</ele><time>2026-05-01T11:37:40.157Z</time></trkpt><trkpt lat="44.860145" lon="7.9077317"><ele>312.0</ele><time>2026-05-01T11:37:41.154Z</time></trkpt><trkpt lat="44.86017" lon="7.90761"><ele>312.0</ele><time>2026-05-01T11:37:42.154Z</time></trkpt><trkpt lat="44.86018" lon="7.9074817"><ele>312.0</ele><time>2026-05-01T11:37:43.156Z</time></trkpt><trkpt lat="44.860175" lon="7.9073467"><ele>312.0</ele><time>2026-05-01T11:37:44.153Z</time></trkpt><trkpt lat="44.8601533" lon="7.9072067"><ele>312.0</ele><time>2026-05-01T11:37:45.155Z</time></trkpt><trkpt lat="44.860115" lon="7.9070717"><ele>312.0</ele><time>2026-05-01T11:37:46.152Z</time></trkpt><trkpt lat="44.8600717" lon="7.90694"><ele>312.0</ele><time>2026-05-01T11:37:47.158Z</time></trkpt><trkpt lat="44.860025" lon="7.9068083"><ele>312.0</ele><time>2026-05-01T11:37:48.154Z</time></trkpt><trkpt lat="44.8599733" lon="7.9066833"><ele>311.6</ele><time>2026-05-01T11:37:49.152Z</time></trkpt><trkpt lat="44.8599217" lon="7.906555"><ele>311.2</ele><time>2026-05-01T11:37:50.157Z</time></trkpt><trkpt lat="44.85987" lon="7.9064267"><ele>310.8</ele><time>2026-05-01T11:37:51.155Z</time></trkpt><trkpt lat="44.859815" lon="7.9063033"><ele>310.4</ele><time>2026-05-01T11:37:52.155Z</time></trkpt><trkpt lat="44.85976" lon="7.906185"><ele>310.0</ele><time>2026-05-01T11:37:53.154Z</time></trkpt><trkpt lat="44.85971" lon="7.906065"><ele>310.0</ele><time>2026-05-01T11:37:54.151Z</time></trkpt><trkpt lat="44.859665" lon="7.90595"><ele>310.0</ele><time>2026-05-01T11:37:55.154Z</time></trkpt><trkpt lat="44.859625" lon="7.905835"><ele>310.0</ele><time>2026-05-01T11:37:56.152Z</time></trkpt><trkpt lat="44.85959" lon="7.90572"><ele>310.0</ele><time>2026-05-01T11:37:57.155Z</time></trkpt><trkpt lat="44.8595633" lon="7.9056033"><ele>310.0</ele><time>2026-05-01T11:37:58.151Z</time></trkpt><trkpt lat="44.859545" lon="7.90548"><ele>310.0</ele><time>2026-05-01T11:37:59.162Z</time></trkpt><trkpt lat="44.8595383" lon="7.90536"><ele>309.3333333333333</ele><time>2026-05-01T11:38:00.152Z</time></trkpt><trkpt lat="44.8595383" lon="7.9052433"><ele>308.66666666666663</ele><time>2026-05-01T11:38:01.154Z</time></trkpt><trkpt lat="44.8595483" lon="7.9051333"><ele>308.0</ele><time>2026-05-01T11:38:02.159Z</time></trkpt><trkpt lat="44.8595617" lon="7.9050217"><ele>307.3333333333333</ele><time>2026-05-01T11:38:03.154Z</time></trkpt><trkpt lat="44.859575" lon="7.90491"><ele>306.6666666666667</ele><time>2026-05-01T11:38:04.155Z</time></trkpt><trkpt lat="44.8595917" lon="7.904795"><ele>306.0</ele><time>2026-05-01T11:38:05.154Z</time></trkpt><trkpt lat="44.8596167" lon="7.90468"><ele>306.0</ele><time>2026-05-01T11:38:06.158Z</time></trkpt><trkpt lat="44.8596417" lon="7.904565"><ele>306.0</ele><time>2026-05-01T11:38:07.154Z</time></trkpt><trkpt lat="44.859665" lon="7.90445"><ele>306.0</ele><time>2026-05-01T11:38:08.154Z</time></trkpt><trkpt lat="44.85969" lon="7.90433"><ele>306.0</ele><time>2026-05-01T11:38:09.154Z</time></trkpt><trkpt lat="44.8597083" lon="7.904205"><ele>306.0</ele><time>2026-05-01T11:38:10.155Z</time></trkpt><trkpt lat="44.85973" lon="7.9040783"><ele>306.0</ele><time>2026-05-01T11:38:11.156Z</time></trkpt><trkpt lat="44.859745" lon="7.9039533"><ele>305.8</ele><time>2026-05-01T11:38:12.157Z</time></trkpt><trkpt lat="44.85976" lon="7.903825"><ele>305.6</ele><time>2026-05-01T11:38:13.16Z</time></trkpt><trkpt lat="44.8597767" lon="7.903695"><ele>305.4</ele><time>2026-05-01T11:38:14.155Z</time></trkpt><trkpt lat="44.8598" lon="7.9035633"><ele>305.2</ele><time>2026-05-01T11:38:15.155Z</time></trkpt><trkpt lat="44.8598133" lon="7.9034217"><ele>305.0</ele><time>2026-05-01T11:38:16.156Z</time></trkpt><trkpt lat="44.8598283" lon="7.9032833"><ele>305.0</ele><time>2026-05-01T11:38:17.163Z</time></trkpt><trkpt lat="44.85985" lon="7.9031467"><ele>305.0</ele><time>2026-05-01T11:38:18.158Z</time></trkpt><trkpt lat="44.8598883" lon="7.9030067"><ele>305.0</ele><time>2026-05-01T11:38:19.16Z</time></trkpt><trkpt lat="44.8599217" lon="7.902865"><ele>305.0</ele><time>2026-05-01T11:38:20.156Z</time></trkpt><trkpt lat="44.85995" lon="7.9027283"><ele>305.0</ele><time>2026-05-01T11:38:21.152Z</time></trkpt><trkpt lat="44.8599833" lon="7.9026133"><ele>304.1666666666667</ele><time>2026-05-01T11:38:22.155Z</time></trkpt><trkpt lat="44.8600167" lon="7.90252"><ele>303.33333333333337</ele><time>2026-05-01T11:38:23.152Z</time></trkpt><trkpt lat="44.8600633" lon="7.9023667"><ele>302.5</ele><time>2026-05-01T11:38:25.154Z</time></trkpt><trkpt lat="44.860095" lon="7.9022267"><ele>301.6666666666667</ele><time>2026-05-01T11:38:27.154Z</time></trkpt><trkpt lat="44.8601033" lon="7.9021183"><ele>300.8333333333333</ele><time>2026-05-01T11:38:29.157Z</time></trkpt><trkpt lat="44.860035" lon="7.902105"><ele>300.0</ele><time>2026-05-01T11:38:33.154Z</time></trkpt><trkpt lat="44.859995" lon="7.902225"><ele>300.0</ele><time>2026-05-01T11:38:34.157Z</time></trkpt><trkpt lat="44.8599417" lon="7.9023333"><ele>300.0</ele><time>2026-05-01T11:38:35.16Z</time></trkpt><trkpt lat="44.8598717" lon="7.9024467"><ele>300.0</ele><time>2026-05-01T11:38:36.158Z</time></trkpt><trkpt lat="44.8598" lon="7.9025283"><ele>300.0</ele><time>2026-05-01T11:38:37.156Z</time></trkpt><trkpt lat="44.8597233" lon="7.9025883"><ele>300.0</ele><time>2026-05-01T11:38:38.154Z</time></trkpt><trkpt lat="44.8596617" lon="7.9026317"><ele>300.0</ele><time>2026-05-01T11:38:39.153Z</time></trkpt><trkpt lat="44.8595683" lon="7.9026483"><ele>300.0</ele><time>2026-05-01T11:38:41.155Z</time></trkpt><trkpt lat="44.8595017" lon="7.9027033"><ele>300.0</ele><time>2026-05-01T11:38:44.157Z</time></trkpt><trkpt lat="44.8595683" lon="7.9027167"><ele>300.0</ele><time>2026-05-01T11:38:48.155Z</time></trkpt><trkpt lat="44.8596467" lon="7.9026667"><ele>300.0</ele><time>2026-05-01T11:38:50.154Z</time></trkpt><trkpt lat="44.859745" lon="7.9025733"><ele>300.0</ele><time>2026-05-01T11:38:52.156Z</time></trkpt><trkpt lat="44.8597867" lon="7.9025033"><ele>300.0</ele><time>2026-05-01T11:38:53.157Z</time></trkpt><trkpt lat="44.8598217" lon="7.902415"><ele>300.0</ele><time>2026-05-01T11:38:54.154Z</time></trkpt><trkpt lat="44.8598317" lon="7.9023033"><ele>300.0</ele><time>2026-05-01T11:38:55.161Z</time></trkpt><trkpt lat="44.8598333" lon="7.9022033"><ele>300.0</ele><time>2026-05-01T11:38:56.155Z</time></trkpt><trkpt lat="44.859835" lon="7.9021117"><ele>300.0</ele><time>2026-05-01T11:38:57.152Z</time></trkpt><trkpt lat="44.85981" lon="7.9020117"><ele>300.0</ele><time>2026-05-01T11:38:58.153Z</time></trkpt><trkpt lat="44.8597533" lon="7.9019067"><ele>300.0</ele><time>2026-05-01T11:38:59.153Z</time></trkpt><trkpt lat="44.8596917" lon="7.90181"><ele>300.3333333333333</ele><time>2026-05-01T11:39:00.161Z</time></trkpt><trkpt lat="44.8596367" lon="7.9017183"><ele>300.6666666666667</ele><time>2026-05-01T11:39:01.153Z</time></trkpt><trkpt lat="44.8596067" lon="7.9016083"><ele>301.0</ele><time>2026-05-01T11:39:02.151Z</time></trkpt><trkpt lat="44.8595767" lon="7.901505"><ele>301.33333333333337</ele><time>2026-05-01T11:39:03.15Z</time></trkpt><trkpt lat="44.859565" lon="7.90141"><ele>301.6666666666667</ele><time>2026-05-01T11:39:04.151Z</time></trkpt><trkpt lat="44.8595617" lon="7.9013083"><ele>302.0</ele><time>2026-05-01T11:39:05.151Z</time></trkpt><trkpt lat="44.8595717" lon="7.9012"><ele>302.0</ele><time>2026-05-01T11:39:06.15Z</time></trkpt><trkpt lat="44.8595917" lon="7.9010783"><ele>302.0</ele><time>2026-05-01T11:39:07.152Z</time></trkpt><trkpt lat="44.8596" lon="7.9009467"><ele>302.0</ele><time>2026-05-01T11:39:08.152Z</time></trkpt><trkpt lat="44.859605" lon="7.9008133"><ele>302.0</ele><time>2026-05-01T11:39:09.152Z</time></trkpt><trkpt lat="44.85961" lon="7.900675"><ele>302.0</ele><time>2026-05-01T11:39:10.153Z</time></trkpt><trkpt lat="44.8596217" lon="7.9005383"><ele>300.33333333333337</ele><time>2026-05-01T11:39:11.15Z</time></trkpt><trkpt lat="44.8596267" lon="7.9004117"><ele>298.6666666666667</ele><time>2026-05-01T11:39:12.157Z</time></trkpt><trkpt lat="44.8596317" lon="7.900305"><ele>297.0</ele><time>2026-05-01T11:39:13.152Z</time></trkpt><trkpt lat="44.85964" lon="7.9002083"><ele>295.3333333333333</ele><time>2026-05-01T11:39:14.152Z</time></trkpt><trkpt lat="44.8596617" lon="7.9000833"><ele>293.66666666666663</ele><time>2026-05-01T11:39:16.155Z</time></trkpt><trkpt lat="44.85961" lon="7.8999583"><ele>292.0</ele><time>2026-05-01T11:39:19.158Z</time></trkpt><trkpt lat="44.859565" lon="7.8998567"><ele>287.75</ele><time>2026-05-01T11:39:21.153Z</time></trkpt><trkpt lat="44.8594417" lon="7.89983"><ele>283.5</ele><time>2026-05-01T11:39:28.16Z</time></trkpt><trkpt lat="44.8593483" lon="7.899965"><ele>279.25</ele><time>2026-05-01T11:39:30.156Z</time></trkpt><trkpt lat="44.8592867" lon="7.90006"><ele>275.0</ele><time>2026-05-01T11:39:31.153Z</time></trkpt><trkpt lat="44.8592033" lon="7.9001933"><ele>274.5</ele><time>2026-05-01T11:39:32.156Z</time></trkpt><trkpt lat="44.8591183" lon="7.9003417"><ele>274.0</ele><time>2026-05-01T11:39:33.158Z</time></trkpt><trkpt lat="44.859035" lon="7.9005033"><ele>273.5</ele><time>2026-05-01T11:39:34.152Z</time></trkpt><trkpt lat="44.858955" lon="7.90067"><ele>273.0</ele><time>2026-05-01T11:39:35.154Z</time></trkpt><trkpt lat="44.8588767" lon="7.900845"><ele>275.0</ele><time>2026-05-01T11:39:36.154Z</time></trkpt><trkpt lat="44.8587933" lon="7.9010467"><ele>277.0</ele><time>2026-05-01T11:39:37.157Z</time></trkpt><trkpt lat="44.8587067" lon="7.9012683"><ele>279.0</ele><time>2026-05-01T11:39:38.157Z</time></trkpt><trkpt lat="44.8586217" lon="7.901495"><ele>279.0</ele><time>2026-05-01T11:39:39.156Z</time></trkpt><trkpt lat="44.85853" lon="7.9017217"><ele>279.0</ele><time>2026-05-01T11:39:40.156Z</time></trkpt><trkpt lat="44.8584417" lon="7.9019517"><ele>279.0</ele><time>2026-05-01T11:39:41.162Z</time></trkpt><trkpt lat="44.85835" lon="7.90219"><ele>279.0</ele><time>2026-05-01T11:39:42.16Z</time></trkpt><trkpt lat="44.85826" lon="7.9024367"><ele>279.0</ele><time>2026-05-01T11:39:43.158Z</time></trkpt><trkpt lat="44.8581667" lon="7.9026833"><ele>279.0</ele><time>2026-05-01T11:39:44.157Z</time></trkpt><trkpt lat="44.8580733" lon="7.90293"><ele>279.0</ele><time>2026-05-01T11:39:45.156Z</time></trkpt><trkpt lat="44.8579767" lon="7.90318"><ele>279.0</ele><time>2026-05-01T11:39:46.157Z</time></trkpt><trkpt lat="44.8578817" lon="7.9034267"><ele>279.0</ele><time>2026-05-01T11:39:47.154Z</time></trkpt><trkpt lat="44.8577933" lon="7.9036617"><ele>278.3333333333333</ele><time>2026-05-01T11:39:48.154Z</time></trkpt><trkpt lat="44.85771" lon="7.9038833"><ele>277.66666666666663</ele><time>2026-05-01T11:39:49.157Z</time></trkpt><trkpt lat="44.8576317" lon="7.9040967"><ele>277.0</ele><time>2026-05-01T11:39:50.153Z</time></trkpt><trkpt lat="44.857555" lon="7.9043017"><ele>277.0</ele><time>2026-05-01T11:39:51.168Z</time></trkpt><trkpt lat="44.8574717" lon="7.9045017"><ele>277.0</ele><time>2026-05-01T11:39:52.154Z</time></trkpt><trkpt lat="44.85738" lon="7.9046983"><ele>277.0</ele><time>2026-05-01T11:39:53.155Z</time></trkpt><trkpt lat="44.8572767" lon="7.9048867"><ele>277.0</ele><time>2026-05-01T11:39:54.157Z</time></trkpt><trkpt lat="44.857165" lon="7.90506"><ele>277.0</ele><time>2026-05-01T11:39:55.157Z</time></trkpt><trkpt lat="44.8570433" lon="7.9052183"><ele>277.0</ele><time>2026-05-01T11:39:56.152Z</time></trkpt><trkpt lat="44.8569117" lon="7.9053617"><ele>277.3333333333333</ele><time>2026-05-01T11:39:57.16Z</time></trkpt><trkpt lat="44.856775" lon="7.9054967"><ele>277.6666666666667</ele><time>2026-05-01T11:39:58.155Z</time></trkpt><trkpt lat="44.85664" lon="7.9056283"><ele>278.0</ele><time>2026-05-01T11:39:59.156Z</time></trkpt><trkpt lat="44.8564967" lon="7.9057517"><ele>278.0</ele><time>2026-05-01T11:40:00.155Z</time></trkpt><trkpt lat="44.8563567" lon="7.9058817"><ele>278.0</ele><time>2026-05-01T11:40:01.155Z</time></trkpt><trkpt lat="44.8562133" lon="7.9060083"><ele>278.0</ele><time>2026-05-01T11:40:02.154Z</time></trkpt><trkpt lat="44.8560683" lon="7.906135"><ele>278.6666666666667</ele><time>2026-05-01T11:40:03.153Z</time></trkpt><trkpt lat="44.85592" lon="7.9062533"><ele>279.3333333333333</ele><time>2026-05-01T11:40:04.154Z</time></trkpt><trkpt lat="44.8557817" lon="7.90637"><ele>280.0</ele><time>2026-05-01T11:40:05.156Z</time></trkpt><trkpt lat="44.8556517" lon="7.90648"><ele>280.0</ele><time>2026-05-01T11:40:06.156Z</time></trkpt><trkpt lat="44.8555283" lon="7.906585"><ele>280.0</ele><time>2026-05-01T11:40:07.151Z</time></trkpt><trkpt lat="44.85541" lon="7.9066817"><ele>280.0</ele><time>2026-05-01T11:40:08.154Z</time></trkpt><trkpt lat="44.8552967" lon="7.9067717"><ele>280.0</ele><time>2026-05-01T11:40:09.154Z</time></trkpt><trkpt lat="44.8551867" lon="7.9068567"><ele>279.25</ele><time>2026-05-01T11:40:10.153Z</time></trkpt><trkpt lat="44.8550767" lon="7.9069417"><ele>278.5</ele><time>2026-05-01T11:40:11.156Z</time></trkpt><trkpt lat="44.8549667" lon="7.9070233"><ele>277.75</ele><time>2026-05-01T11:40:12.156Z</time></trkpt><trkpt lat="44.8548533" lon="7.907105"><ele>277.0</ele><time>2026-05-01T11:40:13.157Z</time></trkpt><trkpt lat="44.854735" lon="7.90718"><ele>277.0</ele><time>2026-05-01T11:40:14.15Z</time></trkpt><trkpt lat="44.85461" lon="7.9072617"><ele>277.0</ele><time>2026-05-01T11:40:15.155Z</time></trkpt><trkpt lat="44.8544783" lon="7.9073417"><ele>277.0</ele><time>2026-05-01T11:40:16.151Z</time></trkpt><trkpt lat="44.8543433" lon="7.907425"><ele>277.0</ele><time>2026-05-01T11:40:17.155Z</time></trkpt><trkpt lat="44.8542" lon="7.9075067"><ele>278.66666666666663</ele><time>2026-05-01T11:40:18.152Z</time></trkpt><trkpt lat="44.8540567" lon="7.9075983"><ele>280.3333333333333</ele><time>2026-05-01T11:40:19.153Z</time></trkpt><trkpt lat="44.85391" lon="7.9076917"><ele>282.0</ele><time>2026-05-01T11:40:20.155Z</time></trkpt><trkpt lat="44.85376" lon="7.9077867"><ele>282.0</ele><time>2026-05-01T11:40:21.154Z</time></trkpt><trkpt lat="44.8536133" lon="7.9078883"><ele>282.0</ele><time>2026-05-01T11:40:22.154Z</time></trkpt><trkpt lat="44.8534583" lon="7.907985"><ele>282.0</ele><time>2026-05-01T11:40:23.158Z</time></trkpt><trkpt lat="44.8533" lon="7.908085"><ele>281.0</ele><time>2026-05-01T11:40:24.152Z</time></trkpt><trkpt lat="44.8531383" lon="7.9081817"><ele>280.0</ele><time>2026-05-01T11:40:25.156Z</time></trkpt><trkpt lat="44.8529783" lon="7.9082717"><ele>279.0</ele><time>2026-05-01T11:40:26.157Z</time></trkpt><trkpt lat="44.8528133" lon="7.9083433"><ele>279.0</ele><time>2026-05-01T11:40:27.152Z</time></trkpt><trkpt lat="44.852635" lon="7.908395"><ele>279.0</ele><time>2026-05-01T11:40:28.152Z</time></trkpt><trkpt lat="44.8524583" lon="7.9084317"><ele>279.0</ele><time>2026-05-01T11:40:29.152Z</time></trkpt><trkpt lat="44.8522817" lon="7.9084683"><ele>278.0</ele><time>2026-05-01T11:40:30.155Z</time></trkpt><trkpt lat="44.852095" lon="7.9085"><ele>277.0</ele><time>2026-05-01T11:40:31.156Z</time></trkpt><trkpt lat="44.85191" lon="7.9085283"><ele>276.0</ele><time>2026-05-01T11:40:32.157Z</time></trkpt><trkpt lat="44.8517217" lon="7.9085567"><ele>275.0</ele><time>2026-05-01T11:40:33.154Z</time></trkpt><trkpt lat="44.8515317" lon="7.9085917"><ele>274.0</ele><time>2026-05-01T11:40:34.156Z</time></trkpt><trkpt lat="44.851345" lon="7.9086167"><ele>273.0</ele><time>2026-05-01T11:40:35.155Z</time></trkpt><trkpt lat="44.8511567" lon="7.9086317"><ele>273.0</ele><time>2026-05-01T11:40:36.157Z</time></trkpt><trkpt lat="44.85096" lon="7.908635"><ele>273.0</ele><time>2026-05-01T11:40:37.157Z</time></trkpt><trkpt lat="44.850755" lon="7.9086333"><ele>273.0</ele><time>2026-05-01T11:40:38.156Z</time></trkpt><trkpt lat="44.8505317" lon="7.9086333"><ele>272.5</ele><time>2026-05-01T11:40:39.153Z</time></trkpt><trkpt lat="44.8503033" lon="7.90863"><ele>272.0</ele><time>2026-05-01T11:40:40.156Z</time></trkpt><trkpt lat="44.8500767" lon="7.908625"><ele>272.0</ele><time>2026-05-01T11:40:41.154Z</time></trkpt><trkpt lat="44.8498533" lon="7.9086217"><ele>272.0</ele><time>2026-05-01T11:40:42.157Z</time></trkpt><trkpt lat="44.8496217" lon="7.9086217"><ele>272.0</ele><time>2026-05-01T11:40:43.155Z</time></trkpt><trkpt lat="44.8493833" lon="7.90862"><ele>272.0</ele><time>2026-05-01T11:40:44.156Z</time></trkpt><trkpt lat="44.8491417" lon="7.908615"><ele>273.0</ele><time>2026-05-01T11:40:45.156Z</time></trkpt><trkpt lat="44.8489083" lon="7.90861"><ele>274.0</ele><time>2026-05-01T11:40:46.156Z</time></trkpt><trkpt lat="44.84868" lon="7.9086067"><ele>274.0</ele><time>2026-05-01T11:40:47.158Z</time></trkpt><trkpt lat="44.8484567" lon="7.9086067"><ele>274.0</ele><time>2026-05-01T11:40:48.153Z</time></trkpt><trkpt lat="44.848235" lon="7.9086183"><ele>274.0</ele><time>2026-05-01T11:40:49.154Z</time></trkpt><trkpt lat="44.848015" lon="7.908645"><ele>274.0</ele><time>2026-05-01T11:40:50.157Z</time></trkpt><trkpt lat="44.847795" lon="7.9086833"><ele>274.0</ele><time>2026-05-01T11:40:51.156Z</time></trkpt><trkpt lat="44.8475783" lon="7.908735"><ele>274.0</ele><time>2026-05-01T11:40:52.153Z</time></trkpt><trkpt lat="44.8473617" lon="7.908795"><ele>274.0</ele><time>2026-05-01T11:40:53.155Z</time></trkpt><trkpt lat="44.847135" lon="7.9088683"><ele>274.0</ele><time>2026-05-01T11:40:54.152Z</time></trkpt><trkpt lat="44.8468933" lon="7.9089667"><ele>275.0</ele><time>2026-05-01T11:40:55.154Z</time></trkpt><trkpt lat="44.8466333" lon="7.90908"><ele>276.0</ele><time>2026-05-01T11:40:56.155Z</time></trkpt><trkpt lat="44.8463733" lon="7.9091967"><ele>277.5</ele><time>2026-05-01T11:40:57.153Z</time></trkpt><trkpt lat="44.846125" lon="7.909305"><ele>279.0</ele><time>2026-05-01T11:40:58.154Z</time></trkpt><trkpt lat="44.84589" lon="7.9094083"><ele>279.0</ele><time>2026-05-01T11:40:59.157Z</time></trkpt><trkpt lat="44.845665" lon="7.909505"><ele>279.0</ele><time>2026-05-01T11:41:00.153Z</time></trkpt><trkpt lat="44.845445" lon="7.9096033"><ele>279.0</ele><time>2026-05-01T11:41:01.155Z</time></trkpt><trkpt lat="44.8452267" lon="7.9096967"><ele>279.0</ele><time>2026-05-01T11:41:02.149Z</time></trkpt><trkpt lat="44.8450017" lon="7.9097967"><ele>278.5</ele><time>2026-05-01T11:41:03.151Z</time></trkpt><trkpt lat="44.8447733" lon="7.9098967"><ele>278.0</ele><time>2026-05-01T11:41:04.153Z</time></trkpt><trkpt lat="44.8445383" lon="7.91"><ele>279.0</ele><time>2026-05-01T11:41:05.152Z</time></trkpt><trkpt lat="44.8442983" lon="7.9101033"><ele>280.0</ele><time>2026-05-01T11:41:06.155Z</time></trkpt><trkpt lat="44.8440567" lon="7.9102083"><ele>280.0</ele><time>2026-05-01T11:41:07.152Z</time></trkpt><trkpt lat="44.84382" lon="7.9103117"><ele>280.0</ele><time>2026-05-01T11:41:08.15Z</time></trkpt><trkpt lat="44.8435917" lon="7.9104117"><ele>278.5</ele><time>2026-05-01T11:41:09.155Z</time></trkpt><trkpt lat="44.843375" lon="7.9105117"><ele>277.0</ele><time>2026-05-01T11:41:10.152Z</time></trkpt><trkpt lat="44.8431667" lon="7.91062"><ele>277.0</ele><time>2026-05-01T11:41:11.151Z</time></trkpt><trkpt lat="44.842965" lon="7.910745"><ele>277.0</ele><time>2026-05-01T11:41:12.153Z</time></trkpt><trkpt lat="44.8427667" lon="7.9108917"><ele>277.0</ele><time>2026-05-01T11:41:13.151Z</time></trkpt><trkpt lat="44.8425683" lon="7.91106"><ele>276.5</ele><time>2026-05-01T11:41:14.157Z</time></trkpt><trkpt lat="44.84237" lon="7.9112367"><ele>276.0</ele><time>2026-05-01T11:41:15.152Z</time></trkpt><trkpt lat="44.8421683" lon="7.91142"><ele>276.0</ele><time>2026-05-01T11:41:16.153Z</time></trkpt><trkpt lat="44.841965" lon="7.911605"><ele>276.0</ele><time>2026-05-01T11:41:17.153Z</time></trkpt><trkpt lat="44.84176" lon="7.91179"><ele>274.5</ele><time>2026-05-01T11:41:18.152Z</time></trkpt><trkpt lat="44.8415517" lon="7.9119767"><ele>273.0</ele><time>2026-05-01T11:41:19.152Z</time></trkpt><trkpt lat="44.84134" lon="7.9121583"><ele>273.0</ele><time>2026-05-01T11:41:20.152Z</time></trkpt><trkpt lat="44.8411283" lon="7.912345"><ele>273.0</ele><time>2026-05-01T11:41:21.155Z</time></trkpt><trkpt lat="44.840915" lon="7.9125317"><ele>273.0</ele><time>2026-05-01T11:41:22.156Z</time></trkpt><trkpt lat="44.8407017" lon="7.9127183"><ele>273.0</ele><time>2026-05-01T11:41:23.15Z</time></trkpt><trkpt lat="44.8404867" lon="7.9129067"><ele>273.0</ele><time>2026-05-01T11:41:24.156Z</time></trkpt><trkpt lat="44.840275" lon="7.913095"><ele>273.0</ele><time>2026-05-01T11:41:25.153Z</time></trkpt><trkpt lat="44.8400617" lon="7.913285"><ele>274.0</ele><time>2026-05-01T11:41:26.157Z</time></trkpt><trkpt lat="44.8398517" lon="7.913475"><ele>275.0</ele><time>2026-05-01T11:41:27.155Z</time></trkpt><trkpt lat="44.83964" lon="7.9136633"><ele>275.0</ele><time>2026-05-01T11:41:28.156Z</time></trkpt><trkpt lat="44.8394283" lon="7.9138483"><ele>275.0</ele><time>2026-05-01T11:41:29.156Z</time></trkpt><trkpt lat="44.8392183" lon="7.9140367"><ele>274.5</ele><time>2026-05-01T11:41:30.154Z</time></trkpt><trkpt lat="44.83901" lon="7.9142233"><ele>274.0</ele><time>2026-05-01T11:41:31.157Z</time></trkpt><trkpt lat="44.8388033" lon="7.9144117"><ele>277.0</ele><time>2026-05-01T11:41:32.154Z</time></trkpt><trkpt lat="44.8385983" lon="7.914595"><ele>280.0</ele><time>2026-05-01T11:41:33.154Z</time></trkpt><trkpt lat="44.838395" lon="7.9147783"><ele>280.0</ele><time>2026-05-01T11:41:34.152Z</time></trkpt><trkpt lat="44.8381917" lon="7.9149567"><ele>280.0</ele><time>2026-05-01T11:41:35.153Z</time></trkpt><trkpt lat="44.8379917" lon="7.9151317"><ele>280.5</ele><time>2026-05-01T11:41:36.154Z</time></trkpt><trkpt lat="44.837795" lon="7.9153067"><ele>281.0</ele><time>2026-05-01T11:41:37.158Z</time></trkpt><trkpt lat="44.8376033" lon="7.9154717"><ele>281.0</ele><time>2026-05-01T11:41:38.156Z</time></trkpt><trkpt lat="44.8374233" lon="7.915625"><ele>281.0</ele><time>2026-05-01T11:41:39.155Z</time></trkpt><trkpt lat="44.8372667" lon="7.9157667"><ele>281.0</ele><time>2026-05-01T11:41:40.156Z</time></trkpt><trkpt lat="44.83714" lon="7.9158967"><ele>281.8</ele><time>2026-05-01T11:41:41.154Z</time></trkpt><trkpt lat="44.83704" lon="7.916015"><ele>282.6</ele><time>2026-05-01T11:41:42.158Z</time></trkpt><trkpt lat="44.836965" lon="7.9161133"><ele>283.4</ele><time>2026-05-01T11:41:43.155Z</time></trkpt><trkpt lat="44.8369083" lon="7.9161717"><ele>284.2</ele><time>2026-05-01T11:41:44.156Z</time></trkpt><trkpt lat="44.8368233" lon="7.9162167"><ele>285.0</ele><time>2026-05-01T11:41:46.156Z</time></trkpt><trkpt lat="44.83676" lon="7.9161667"><ele>283.0</ele><time>2026-05-01T11:41:48.152Z</time></trkpt><trkpt lat="44.8367117" lon="7.9159433"><ele>281.0</ele><time>2026-05-01T11:41:50.154Z</time></trkpt><trkpt lat="44.8366733" lon="7.9158117"><ele>279.0</ele><time>2026-05-01T11:41:51.156Z</time></trkpt><trkpt lat="44.83663" lon="7.915665"><ele>277.0</ele><time>2026-05-01T11:41:52.156Z</time></trkpt><trkpt lat="44.83658" lon="7.9155083"><ele>276.5</ele><time>2026-05-01T11:41:53.155Z</time></trkpt><trkpt lat="44.8365283" lon="7.91534"><ele>276.0</ele><time>2026-05-01T11:41:54.157Z</time></trkpt><trkpt lat="44.8364717" lon="7.9151633"><ele>275.5</ele><time>2026-05-01T11:41:55.155Z</time></trkpt><trkpt lat="44.8364167" lon="7.91499"><ele>275.0</ele><time>2026-05-01T11:41:56.154Z</time></trkpt><trkpt lat="44.8363583" lon="7.9148133"><ele>275.0</ele><time>2026-05-01T11:41:57.155Z</time></trkpt><trkpt lat="44.8362933" lon="7.9146383"><ele>275.0</ele><time>2026-05-01T11:41:58.157Z</time></trkpt><trkpt lat="44.8362317" lon="7.914465"><ele>275.0</ele><time>2026-05-01T11:41:59.154Z</time></trkpt><trkpt lat="44.8361667" lon="7.91429"><ele>275.0</ele><time>2026-05-01T11:42:00.154Z</time></trkpt><trkpt lat="44.8361017" lon="7.914115"><ele>275.0</ele><time>2026-05-01T11:42:01.154Z</time></trkpt><trkpt lat="44.83604" lon="7.9139383"><ele>275.0</ele><time>2026-05-01T11:42:02.156Z</time></trkpt><trkpt lat="44.8359733" lon="7.91376"><ele>275.0</ele><time>2026-05-01T11:42:03.151Z</time></trkpt><trkpt lat="44.8359033" lon="7.9135817"><ele>275.0</ele><time>2026-05-01T11:42:04.155Z</time></trkpt><trkpt lat="44.8358267" lon="7.913405"><ele>275.25</ele><time>2026-05-01T11:42:05.152Z</time></trkpt><trkpt lat="44.8357583" lon="7.9132333"><ele>275.5</ele><time>2026-05-01T11:42:06.151Z</time></trkpt><trkpt lat="44.8356917" lon="7.913065"><ele>275.75</ele><time>2026-05-01T11:42:07.154Z</time></trkpt><trkpt lat="44.83563" lon="7.9129033"><ele>276.0</ele><time>2026-05-01T11:42:08.156Z</time></trkpt><trkpt lat="44.8355733" lon="7.9127583"><ele>276.0</ele><time>2026-05-01T11:42:09.154Z</time></trkpt><trkpt lat="44.8355317" lon="7.9126317"><ele>276.0</ele><time>2026-05-01T11:42:10.153Z</time></trkpt><trkpt lat="44.8355217" lon="7.9125083"><ele>276.0</ele><time>2026-05-01T11:42:11.158Z</time></trkpt><trkpt lat="44.835535" lon="7.912385"><ele>276.0</ele><time>2026-05-01T11:42:12.162Z</time></trkpt><trkpt lat="44.8355733" lon="7.9122583"><ele>276.0</ele><time>2026-05-01T11:42:13.153Z</time></trkpt><trkpt lat="44.8356233" lon="7.9121183"><ele>276.5</ele><time>2026-05-01T11:42:14.154Z</time></trkpt><trkpt lat="44.8356817" lon="7.9119617"><ele>277.0</ele><time>2026-05-01T11:42:15.158Z</time></trkpt><trkpt lat="44.8357433" lon="7.9117967"><ele>277.5</ele><time>2026-05-01T11:42:16.154Z</time></trkpt><trkpt lat="44.835805" lon="7.911625"><ele>278.0</ele><time>2026-05-01T11:42:17.153Z</time></trkpt><trkpt lat="44.8358667" lon="7.911445"><ele>278.25</ele><time>2026-05-01T11:42:18.153Z</time></trkpt><trkpt lat="44.83593" lon="7.9112583"><ele>278.5</ele><time>2026-05-01T11:42:19.158Z</time></trkpt><trkpt lat="44.835995" lon="7.9110733"><ele>278.75</ele><time>2026-05-01T11:42:20.154Z</time></trkpt><trkpt lat="44.8360567" lon="7.91089"><ele>279.0</ele><time>2026-05-01T11:42:21.154Z</time></trkpt><trkpt lat="44.83612" lon="7.9107083"><ele>279.25</ele><time>2026-05-01T11:42:22.154Z</time></trkpt><trkpt lat="44.8361817" lon="7.9105267"><ele>279.5</ele><time>2026-05-01T11:42:23.157Z</time></trkpt><trkpt lat="44.8362433" lon="7.9103467"><ele>279.75</ele><time>2026-05-01T11:42:24.154Z</time></trkpt><trkpt lat="44.8363067" lon="7.91017"><ele>280.0</ele><time>2026-05-01T11:42:25.155Z</time></trkpt><trkpt lat="44.8363717" lon="7.9099933"><ele>280.0</ele><time>2026-05-01T11:42:26.155Z</time></trkpt><trkpt lat="44.836435" lon="7.9098167"><ele>280.0</ele><time>2026-05-01T11:42:27.155Z</time></trkpt><trkpt lat="44.836495" lon="7.9096367"><ele>280.0</ele><time>2026-05-01T11:42:28.157Z</time></trkpt><trkpt lat="44.836555" lon="7.9094567"><ele>280.0</ele><time>2026-05-01T11:42:29.154Z</time></trkpt><trkpt lat="44.8366167" lon="7.909275"><ele>280.25</ele><time>2026-05-01T11:42:30.154Z</time></trkpt><trkpt lat="44.8366783" lon="7.9090917"><ele>280.5</ele><time>2026-05-01T11:42:31.156Z</time></trkpt><trkpt lat="44.8367417" lon="7.908915"><ele>280.75</ele><time>2026-05-01T11:42:32.154Z</time></trkpt><trkpt lat="44.8368033" lon="7.908735"><ele>281.0</ele><time>2026-05-01T11:42:33.154Z</time></trkpt><trkpt lat="44.8368667" lon="7.9085533"><ele>280.5</ele><time>2026-05-01T11:42:34.152Z</time></trkpt><trkpt lat="44.8369317" lon="7.908375"><ele>280.0</ele><time>2026-05-01T11:42:35.155Z</time></trkpt><trkpt lat="44.836995" lon="7.9081917"><ele>279.5</ele><time>2026-05-01T11:42:36.152Z</time></trkpt><trkpt lat="44.83706" lon="7.9080083"><ele>279.0</ele><time>2026-05-01T11:42:37.155Z</time></trkpt><trkpt lat="44.8371267" lon="7.9078267"><ele>279.0</ele><time>2026-05-01T11:42:38.151Z</time></trkpt><trkpt lat="44.8371883" lon="7.9076467"><ele>279.0</ele><time>2026-05-01T11:42:39.153Z</time></trkpt><trkpt lat="44.83725" lon="7.9074683"><ele>279.0</ele><time>2026-05-01T11:42:40.157Z</time></trkpt><trkpt lat="44.8373117" lon="7.9072883"><ele>279.0</ele><time>2026-05-01T11:42:41.156Z</time></trkpt><trkpt lat="44.8373733" lon="7.9071067"><ele>279.25</ele><time>2026-05-01T11:42:42.153Z</time></trkpt><trkpt lat="44.837435" lon="7.9069267"><ele>279.5</ele><time>2026-05-01T11:42:43.155Z</time></trkpt><trkpt lat="44.8374967" lon="7.906745"><ele>279.75</ele><time>2026-05-01T11:42:44.154Z</time></trkpt><trkpt lat="44.8375617" lon="7.9065633"><ele>280.0</ele><time>2026-05-01T11:42:45.151Z</time></trkpt><trkpt lat="44.8376267" lon="7.9063783"><ele>279.5</ele><time>2026-05-01T11:42:46.152Z</time></trkpt><trkpt lat="44.8376933" lon="7.9061867"><ele>279.0</ele><time>2026-05-01T11:42:47.153Z</time></trkpt><trkpt lat="44.8377583" lon="7.905995"><ele>278.5</ele><time>2026-05-01T11:42:48.153Z</time></trkpt><trkpt lat="44.8378217" lon="7.9058083"><ele>278.0</ele><time>2026-05-01T11:42:49.153Z</time></trkpt><trkpt lat="44.8378817" lon="7.9056333"><ele>277.4</ele><time>2026-05-01T11:42:50.151Z</time></trkpt><trkpt lat="44.8379333" lon="7.9054867"><ele>276.8</ele><time>2026-05-01T11:42:51.149Z</time></trkpt><trkpt lat="44.8379833" lon="7.905375"><ele>276.2</ele><time>2026-05-01T11:42:52.15Z</time></trkpt><trkpt lat="44.83803" lon="7.9052867"><ele>275.6</ele><time>2026-05-01T11:42:53.152Z</time></trkpt><trkpt lat="44.8381367" lon="7.90523"><ele>275.0</ele><time>2026-05-01T11:42:55.153Z</time></trkpt><trkpt lat="44.8381983" lon="7.9053083"><ele>275.0</ele><time>2026-05-01T11:42:56.151Z</time></trkpt><trkpt lat="44.8382617" lon="7.9053483"><ele>275.0</ele><time>2026-05-01T11:42:57.154Z</time></trkpt><trkpt lat="44.8383267" lon="7.9053633"><ele>275.0</ele><time>2026-05-01T11:42:58.151Z</time></trkpt><trkpt lat="44.83839" lon="7.9053517"><ele>275.0</ele><time>2026-05-01T11:42:59.155Z</time></trkpt><trkpt lat="44.8384483" lon="7.9053117"><ele>275.0</ele><time>2026-05-01T11:43:00.153Z</time></trkpt><trkpt lat="44.8384967" lon="7.905235"><ele>275.0</ele><time>2026-05-01T11:43:01.16Z</time></trkpt><trkpt lat="44.8385283" lon="7.905105"><ele>275.0</ele><time>2026-05-01T11:43:02.159Z</time></trkpt><trkpt lat="44.8385583" lon="7.904945"><ele>276.25</ele><time>2026-05-01T11:43:03.155Z</time></trkpt><trkpt lat="44.8386017" lon="7.9047867"><ele>277.5</ele><time>2026-05-01T11:43:04.16Z</time></trkpt><trkpt lat="44.8386483" lon="7.9046317"><ele>278.75</ele><time>2026-05-01T11:43:05.157Z</time></trkpt><trkpt lat="44.8387" lon="7.9044667"><ele>280.0</ele><time>2026-05-01T11:43:06.156Z</time></trkpt><trkpt lat="44.838755" lon="7.9043017"><ele>279.75</ele><time>2026-05-01T11:43:07.156Z</time></trkpt><trkpt lat="44.838815" lon="7.9041267"><ele>279.5</ele><time>2026-05-01T11:43:08.152Z</time></trkpt><trkpt lat="44.8388783" lon="7.9039567"><ele>279.25</ele><time>2026-05-01T11:43:09.153Z</time></trkpt><trkpt lat="44.838945" lon="7.9038"><ele>279.0</ele><time>2026-05-01T11:43:10.154Z</time></trkpt><trkpt lat="44.839015" lon="7.9036517"><ele>279.0</ele><time>2026-05-01T11:43:11.155Z</time></trkpt><trkpt lat="44.8390883" lon="7.90351"><ele>279.0</ele><time>2026-05-01T11:43:12.154Z</time></trkpt><trkpt lat="44.839165" lon="7.9033717"><ele>279.0</ele><time>2026-05-01T11:43:13.156Z</time></trkpt><trkpt lat="44.8392483" lon="7.9032433"><ele>279.0</ele><time>2026-05-01T11:43:14.153Z</time></trkpt><trkpt lat="44.83934" lon="7.9031267"><ele>279.0</ele><time>2026-05-01T11:43:15.152Z</time></trkpt><trkpt lat="44.8394367" lon="7.903015"><ele>279.0</ele><time>2026-05-01T11:43:16.155Z</time></trkpt><trkpt lat="44.8395317" lon="7.9029067"><ele>279.0</ele><time>2026-05-01T11:43:17.152Z</time></trkpt><trkpt lat="44.839625" lon="7.9028033"><ele>279.0</ele><time>2026-05-01T11:43:18.155Z</time></trkpt><trkpt lat="44.8397183" lon="7.9027"><ele>279.0</ele><time>2026-05-01T11:43:19.157Z</time></trkpt><trkpt lat="44.83981" lon="7.9025967"><ele>279.0</ele><time>2026-05-01T11:43:20.157Z</time></trkpt><trkpt lat="44.8399" lon="7.90249"><ele>279.0</ele><time>2026-05-01T11:43:21.154Z</time></trkpt><trkpt lat="44.839985" lon="7.9023817"><ele>279.0</ele><time>2026-05-01T11:43:22.155Z</time></trkpt><trkpt lat="44.8400533" lon="7.9022667"><ele>279.2</ele><time>2026-05-01T11:43:23.162Z</time></trkpt><trkpt lat="44.8400967" lon="7.9021417"><ele>279.4</ele><time>2026-05-01T11:43:24.16Z</time></trkpt><trkpt lat="44.8401117" lon="7.90201"><ele>279.6</ele><time>2026-05-01T11:43:25.158Z</time></trkpt><trkpt lat="44.8401033" lon="7.90188"><ele>279.8</ele><time>2026-05-01T11:43:26.155Z</time></trkpt><trkpt lat="44.84007" lon="7.9017467"><ele>280.0</ele><time>2026-05-01T11:43:27.155Z</time></trkpt><trkpt lat="44.840025" lon="7.9016167"><ele>280.0</ele><time>2026-05-01T11:43:28.152Z</time></trkpt><trkpt lat="44.8399733" lon="7.90149"><ele>280.0</ele><time>2026-05-01T11:43:29.156Z</time></trkpt><trkpt lat="44.8399183" lon="7.9013683"><ele>280.0</ele><time>2026-05-01T11:43:30.154Z</time></trkpt><trkpt lat="44.83986" lon="7.90126"><ele>280.0</ele><time>2026-05-01T11:43:31.154Z</time></trkpt><trkpt lat="44.839805" lon="7.90117"><ele>280.0</ele><time>2026-05-01T11:43:32.153Z</time></trkpt><trkpt lat="44.839765" lon="7.901095"><ele>280.0</ele><time>2026-05-01T11:43:33.153Z</time></trkpt><trkpt lat="44.83972" lon="7.9009933"><ele>280.0</ele><time>2026-05-01T11:43:35.152Z</time></trkpt><trkpt lat="44.8396667" lon="7.90093"><ele>280.0</ele><time>2026-05-01T11:43:37.161Z</time></trkpt><trkpt lat="44.839575" lon="7.9009067"><ele>280.0</ele><time>2026-05-01T11:43:39.152Z</time></trkpt><trkpt lat="44.8395" lon="7.9009367"><ele>280.0</ele><time>2026-05-01T11:43:40.16Z</time></trkpt><trkpt lat="44.8394017" lon="7.9009933"><ele>280.0</ele><time>2026-05-01T11:43:41.152Z</time></trkpt><trkpt lat="44.839295" lon="7.901035"><ele>280.2</ele><time>2026-05-01T11:43:42.159Z</time></trkpt><trkpt lat="44.839185" lon="7.9010583"><ele>280.4</ele><time>2026-05-01T11:43:43.158Z</time></trkpt><trkpt lat="44.8390817" lon="7.90107"><ele>280.6</ele><time>2026-05-01T11:43:44.156Z</time></trkpt><trkpt lat="44.83899" lon="7.901075"><ele>280.8</ele><time>2026-05-01T11:43:45.153Z</time></trkpt><trkpt lat="44.8389033" lon="7.9010833"><ele>281.0</ele><time>2026-05-01T11:43:46.153Z</time></trkpt><trkpt lat="44.8388267" lon="7.9010883"><ele>281.0</ele><time>2026-05-01T11:43:47.158Z</time></trkpt><trkpt lat="44.8387583" lon="7.9010917"><ele>281.0</ele><time>2026-05-01T11:43:48.156Z</time></trkpt><trkpt lat="44.838635" lon="7.9010967"><ele>281.0</ele><time>2026-05-01T11:43:50.15Z</time></trkpt><trkpt lat="44.8385717" lon="7.9011"><ele>281.0</ele><time>2026-05-01T11:43:51.151Z</time></trkpt><trkpt lat="44.8385083" lon="7.9011"><ele>281.0</ele><time>2026-05-01T11:43:52.16Z</time></trkpt><trkpt lat="44.8383867" lon="7.9010867"><ele>281.0</ele><time>2026-05-01T11:43:54.155Z</time></trkpt><trkpt lat="44.8382667" lon="7.9010667"><ele>281.6</ele><time>2026-05-01T11:43:56.157Z</time></trkpt><trkpt lat="44.8381883" lon="7.9010467"><ele>282.20000000000005</ele><time>2026-05-01T11:43:57.154Z</time></trkpt><trkpt lat="44.8381017" lon="7.9010167"><ele>282.79999999999995</ele><time>2026-05-01T11:43:58.155Z</time></trkpt><trkpt lat="44.8380017" lon="7.9009767"><ele>283.4</ele><time>2026-05-01T11:43:59.154Z</time></trkpt><trkpt lat="44.8378917" lon="7.900925"><ele>284.0</ele><time>2026-05-01T11:44:00.153Z</time></trkpt><trkpt lat="44.8377783" lon="7.9008583"><ele>284.25</ele><time>2026-05-01T11:44:01.158Z</time></trkpt><trkpt lat="44.8376583" lon="7.90078"><ele>284.5</ele><time>2026-05-01T11:44:02.156Z</time></trkpt><trkpt lat="44.8375333" lon="7.9006833"><ele>284.75</ele><time>2026-05-01T11:44:03.153Z</time></trkpt><trkpt lat="44.8374017" lon="7.9005733"><ele>285.0</ele><time>2026-05-01T11:44:04.152Z</time></trkpt><trkpt lat="44.8372617" lon="7.9004517"><ele>285.0</ele><time>2026-05-01T11:44:05.153Z</time></trkpt><trkpt lat="44.8371167" lon="7.9003283"><ele>285.0</ele><time>2026-05-01T11:44:06.154Z</time></trkpt><trkpt lat="44.8369683" lon="7.9002033"><ele>285.0</ele><time>2026-05-01T11:44:07.155Z</time></trkpt><trkpt lat="44.8368133" lon="7.9000767"><ele>285.6666666666667</ele><time>2026-05-01T11:44:08.152Z</time></trkpt><trkpt lat="44.83666" lon="7.8999483"><ele>286.33333333333337</ele><time>2026-05-01T11:44:09.153Z</time></trkpt><trkpt lat="44.8365" lon="7.8998183"><ele>287.0</ele><time>2026-05-01T11:44:10.153Z</time></trkpt><trkpt lat="44.8363367" lon="7.8996883"><ele>287.0</ele><time>2026-05-01T11:44:11.152Z</time></trkpt><trkpt lat="44.8361683" lon="7.8995667"><ele>287.0</ele><time>2026-05-01T11:44:12.157Z</time></trkpt><trkpt lat="44.836005" lon="7.899445"><ele>287.0</ele><time>2026-05-01T11:44:13.153Z</time></trkpt><trkpt lat="44.835835" lon="7.8993367"><ele>289.6666666666667</ele><time>2026-05-01T11:44:14.153Z</time></trkpt><trkpt lat="44.835655" lon="7.8992483"><ele>292.3333333333333</ele><time>2026-05-01T11:44:15.151Z</time></trkpt><trkpt lat="44.8354683" lon="7.8991733"><ele>295.0</ele><time>2026-05-01T11:44:16.153Z</time></trkpt><trkpt lat="44.8352767" lon="7.8990967"><ele>295.66666666666663</ele><time>2026-05-01T11:44:17.154Z</time></trkpt><trkpt lat="44.8350883" lon="7.899025"><ele>296.3333333333333</ele><time>2026-05-01T11:44:18.152Z</time></trkpt><trkpt lat="44.8348933" lon="7.8989567"><ele>297.0</ele><time>2026-05-01T11:44:19.154Z</time></trkpt><trkpt lat="44.8347" lon="7.8988933"><ele>297.0</ele><time>2026-05-01T11:44:20.151Z</time></trkpt><trkpt lat="44.83451" lon="7.8988267"><ele>297.0</ele><time>2026-05-01T11:44:21.155Z</time></trkpt><trkpt lat="44.8343167" lon="7.8987667"><ele>297.0</ele><time>2026-05-01T11:44:22.153Z</time></trkpt><trkpt lat="44.83412" lon="7.8987167"><ele>297.6666666666667</ele><time>2026-05-01T11:44:23.151Z</time></trkpt><trkpt lat="44.83392" lon="7.8986717"><ele>298.33333333333337</ele><time>2026-05-01T11:44:24.152Z</time></trkpt><trkpt lat="44.8337183" lon="7.8986333"><ele>299.0</ele><time>2026-05-01T11:44:25.158Z</time></trkpt><trkpt lat="44.8335117" lon="7.8985933"><ele>299.0</ele><time>2026-05-01T11:44:26.152Z</time></trkpt><trkpt lat="44.8332967" lon="7.8985567"><ele>299.0</ele><time>2026-05-01T11:44:27.153Z</time></trkpt><trkpt lat="44.83308" lon="7.89852"><ele>299.0</ele><time>2026-05-01T11:44:28.154Z</time></trkpt><trkpt lat="44.8328567" lon="7.898485"><ele>300.5</ele><time>2026-05-01T11:44:29.157Z</time></trkpt><trkpt lat="44.83263" lon="7.8984483"><ele>302.0</ele><time>2026-05-01T11:44:30.153Z</time></trkpt><trkpt lat="44.8324" lon="7.898415"><ele>302.0</ele><time>2026-05-01T11:44:31.154Z</time></trkpt><trkpt lat="44.8321733" lon="7.8983817"><ele>302.0</ele><time>2026-05-01T11:44:32.157Z</time></trkpt><trkpt lat="44.8319567" lon="7.8983417"><ele>302.0</ele><time>2026-05-01T11:44:33.154Z</time></trkpt><trkpt lat="44.8317533" lon="7.8983133"><ele>302.0</ele><time>2026-05-01T11:44:34.151Z</time></trkpt><trkpt lat="44.8315583" lon="7.8982817"><ele>302.0</ele><time>2026-05-01T11:44:35.155Z</time></trkpt><trkpt lat="44.8313683" lon="7.89825"><ele>302.0</ele><time>2026-05-01T11:44:36.154Z</time></trkpt><trkpt lat="44.8311817" lon="7.8982183"><ele>302.0</ele><time>2026-05-01T11:44:37.151Z</time></trkpt><trkpt lat="44.830985" lon="7.8981883"><ele>302.0</ele><time>2026-05-01T11:44:38.152Z</time></trkpt><trkpt lat="44.8307833" lon="7.898155"><ele>302.0</ele><time>2026-05-01T11:44:39.153Z</time></trkpt><trkpt lat="44.8305783" lon="7.8981183"><ele>302.33333333333337</ele><time>2026-05-01T11:44:40.155Z</time></trkpt><trkpt lat="44.83037" lon="7.89808"><ele>302.6666666666667</ele><time>2026-05-01T11:44:41.152Z</time></trkpt><trkpt lat="44.830155" lon="7.898045"><ele>303.0</ele><time>2026-05-01T11:44:42.153Z</time></trkpt><trkpt lat="44.8299467" lon="7.89801"><ele>304.0</ele><time>2026-05-01T11:44:43.155Z</time></trkpt><trkpt lat="44.8297433" lon="7.897975"><ele>305.0</ele><time>2026-05-01T11:44:44.159Z</time></trkpt><trkpt lat="44.8295433" lon="7.8979333"><ele>306.0</ele><time>2026-05-01T11:44:45.152Z</time></trkpt><trkpt lat="44.8293483" lon="7.8978883"><ele>307.0</ele><time>2026-05-01T11:44:46.154Z</time></trkpt><trkpt lat="44.829155" lon="7.8978367"><ele>308.0</ele><time>2026-05-01T11:44:47.152Z</time></trkpt><trkpt lat="44.82896" lon="7.8977767"><ele>309.0</ele><time>2026-05-01T11:44:48.154Z</time></trkpt><trkpt lat="44.82876" lon="7.89771"><ele>309.0</ele><time>2026-05-01T11:44:49.156Z</time></trkpt><trkpt lat="44.8285483" lon="7.8976383"><ele>309.0</ele><time>2026-05-01T11:44:50.151Z</time></trkpt><trkpt lat="44.828335" lon="7.89756"><ele>309.0</ele><time>2026-05-01T11:44:51.154Z</time></trkpt><trkpt lat="44.8281233" lon="7.8974867"><ele>310.3333333333333</ele><time>2026-05-01T11:44:52.153Z</time></trkpt><trkpt lat="44.8279267" lon="7.8974183"><ele>311.66666666666663</ele><time>2026-05-01T11:44:53.155Z</time></trkpt><trkpt lat="44.8277417" lon="7.8973533"><ele>313.0</ele><time>2026-05-01T11:44:54.154Z</time></trkpt><trkpt lat="44.8275667" lon="7.89729"><ele>315.0</ele><time>2026-05-01T11:44:55.155Z</time></trkpt><trkpt lat="44.8273933" lon="7.8972283"><ele>317.0</ele><time>2026-05-01T11:44:56.154Z</time></trkpt><trkpt lat="44.8272217" lon="7.897165"><ele>319.0</ele><time>2026-05-01T11:44:57.155Z</time></trkpt><trkpt lat="44.8270517" lon="7.8970983"><ele>319.0</ele><time>2026-05-01T11:44:58.154Z</time></trkpt><trkpt lat="44.8268833" lon="7.8970333"><ele>319.0</ele><time>2026-05-01T11:44:59.153Z</time></trkpt><trkpt lat="44.8267117" lon="7.8969767"><ele>319.0</ele><time>2026-05-01T11:45:00.153Z</time></trkpt><trkpt lat="44.8265367" lon="7.8969283"><ele>319.0</ele><time>2026-05-01T11:45:01.154Z</time></trkpt><trkpt lat="44.82636" lon="7.8968933"><ele>319.0</ele><time>2026-05-01T11:45:02.154Z</time></trkpt><trkpt lat="44.8261767" lon="7.8968683"><ele>319.0</ele><time>2026-05-01T11:45:03.15Z</time></trkpt><trkpt lat="44.8259883" lon="7.8968583"><ele>320.3333333333333</ele><time>2026-05-01T11:45:04.153Z</time></trkpt><trkpt lat="44.8257983" lon="7.8968617"><ele>321.6666666666667</ele><time>2026-05-01T11:45:05.154Z</time></trkpt><trkpt lat="44.8256083" lon="7.8968783"><ele>323.0</ele><time>2026-05-01T11:45:06.154Z</time></trkpt><trkpt lat="44.8254133" lon="7.8968983"><ele>323.0</ele><time>2026-05-01T11:45:07.154Z</time></trkpt><trkpt lat="44.825215" lon="7.8969217"><ele>323.0</ele><time>2026-05-01T11:45:08.153Z</time></trkpt><trkpt lat="44.8250167" lon="7.8969467"><ele>323.0</ele><time>2026-05-01T11:45:09.156Z</time></trkpt><trkpt lat="44.82482" lon="7.8969783"><ele>324.33333333333337</ele><time>2026-05-01T11:45:10.152Z</time></trkpt><trkpt lat="44.8246183" lon="7.89701"><ele>325.6666666666667</ele><time>2026-05-01T11:45:11.156Z</time></trkpt><trkpt lat="44.8244167" lon="7.8970383"><ele>327.0</ele><time>2026-05-01T11:45:12.161Z</time></trkpt><trkpt lat="44.824215" lon="7.897065"><ele>329.6666666666667</ele><time>2026-05-01T11:45:13.152Z</time></trkpt><trkpt lat="44.8240183" lon="7.89709"><ele>332.33333333333337</ele><time>2026-05-01T11:45:14.158Z</time></trkpt><trkpt lat="44.8238333" lon="7.8971167"><ele>335.0</ele><time>2026-05-01T11:45:15.153Z</time></trkpt><trkpt lat="44.8236617" lon="7.8971417"><ele>335.0</ele><time>2026-05-01T11:45:16.155Z</time></trkpt><trkpt lat="44.82351" lon="7.8971583"><ele>335.0</ele><time>2026-05-01T11:45:17.153Z</time></trkpt><trkpt lat="44.8233767" lon="7.89717"><ele>335.0</ele><time>2026-05-01T11:45:18.154Z</time></trkpt><trkpt lat="44.8232567" lon="7.8971683"><ele>335.0</ele><time>2026-05-01T11:45:19.155Z</time></trkpt><trkpt lat="44.8231567" lon="7.8971417"><ele>336.75</ele><time>2026-05-01T11:45:20.152Z</time></trkpt><trkpt lat="44.8230633" lon="7.897065"><ele>338.5</ele><time>2026-05-01T11:45:21.158Z</time></trkpt><trkpt lat="44.8229833" lon="7.8969633"><ele>340.25</ele><time>2026-05-01T11:45:22.153Z</time></trkpt><trkpt lat="44.82291" lon="7.8968383"><ele>342.0</ele><time>2026-05-01T11:45:23.153Z</time></trkpt><trkpt lat="44.8228317" lon="7.8967"><ele>342.25</ele><time>2026-05-01T11:45:24.155Z</time></trkpt><trkpt lat="44.8227633" lon="7.8965383"><ele>342.5</ele><time>2026-05-01T11:45:25.157Z</time></trkpt><trkpt lat="44.8226967" lon="7.8963667"><ele>342.75</ele><time>2026-05-01T11:45:26.157Z</time></trkpt><trkpt lat="44.8226383" lon="7.8961883"><ele>343.0</ele><time>2026-05-01T11:45:27.148Z</time></trkpt><trkpt lat="44.8225883" lon="7.89602"><ele>342.3333333333333</ele><time>2026-05-01T11:45:28.155Z</time></trkpt><trkpt lat="44.8225617" lon="7.8958817"><ele>341.66666666666663</ele><time>2026-05-01T11:45:29.158Z</time></trkpt><trkpt lat="44.82256" lon="7.895755"><ele>341.0</ele><time>2026-05-01T11:45:30.153Z</time></trkpt><trkpt lat="44.8225717" lon="7.8956383"><ele>340.3333333333333</ele><time>2026-05-01T11:45:31.155Z</time></trkpt><trkpt lat="44.8226017" lon="7.8955317"><ele>339.6666666666667</ele><time>2026-05-01T11:45:32.152Z</time></trkpt><trkpt lat="44.8226583" lon="7.89544"><ele>339.0</ele><time>2026-05-01T11:45:33.154Z</time></trkpt><trkpt lat="44.8227967" lon="7.8953933"><ele>339.0</ele><time>2026-05-01T11:45:34.16Z</time></trkpt><trkpt lat="44.8229317" lon="7.895335"><ele>339.0</ele><time>2026-05-01T11:45:35.151Z</time></trkpt><trkpt lat="44.8230183" lon="7.8952283"><ele>339.0</ele><time>2026-05-01T11:45:36.154Z</time></trkpt><trkpt lat="44.8230883" lon="7.8951"><ele>339.0</ele><time>2026-05-01T11:45:37.156Z</time></trkpt><trkpt lat="44.823135" lon="7.8949383"><ele>337.75</ele><time>2026-05-01T11:45:38.157Z</time></trkpt><trkpt lat="44.82317" lon="7.8947617"><ele>336.5</ele><time>2026-05-01T11:45:39.153Z</time></trkpt><trkpt lat="44.823185" lon="7.8945617"><ele>335.25</ele><time>2026-05-01T11:45:40.153Z</time></trkpt><trkpt lat="44.82319" lon="7.8943467"><ele>334.0</ele><time>2026-05-01T11:45:41.157Z</time></trkpt><trkpt lat="44.8231767" lon="7.8941167"><ele>332.3333333333333</ele><time>2026-05-01T11:45:42.153Z</time></trkpt><trkpt lat="44.823165" lon="7.89388"><ele>330.6666666666667</ele><time>2026-05-01T11:45:43.157Z</time></trkpt><trkpt lat="44.8231567" lon="7.8936433"><ele>329.0</ele><time>2026-05-01T11:45:44.159Z</time></trkpt><trkpt lat="44.82315" lon="7.8934133"><ele>328.0</ele><time>2026-05-01T11:45:45.151Z</time></trkpt><trkpt lat="44.8231467" lon="7.8931917"><ele>327.0</ele><time>2026-05-01T11:45:46.154Z</time></trkpt><trkpt lat="44.823145" lon="7.8929867"><ele>326.0</ele><time>2026-05-01T11:45:47.158Z</time></trkpt><trkpt lat="44.82315" lon="7.892815"><ele>325.0</ele><time>2026-05-01T11:45:48.16Z</time></trkpt><trkpt lat="44.8231583" lon="7.8926783"><ele>325.0</ele><time>2026-05-01T11:45:49.156Z</time></trkpt><trkpt lat="44.823145" lon="7.8925717"><ele>325.0</ele><time>2026-05-01T11:45:50.159Z</time></trkpt><trkpt lat="44.8230917" lon="7.8925217"><ele>325.0</ele><time>2026-05-01T11:45:51.152Z</time></trkpt><trkpt lat="44.82297" lon="7.8925583"><ele>325.0</ele><time>2026-05-01T11:45:53.158Z</time></trkpt><trkpt lat="44.8229383" lon="7.892685"><ele>325.0</ele><time>2026-05-01T11:45:54.154Z</time></trkpt><trkpt lat="44.82291" lon="7.892815"><ele>325.0</ele><time>2026-05-01T11:45:55.157Z</time></trkpt><trkpt lat="44.82291" lon="7.8929767"><ele>325.0</ele><time>2026-05-01T11:45:56.157Z</time></trkpt><trkpt lat="44.8229317" lon="7.89315"><ele>325.0</ele><time>2026-05-01T11:45:57.157Z</time></trkpt><trkpt lat="44.82295" lon="7.8933417"><ele>325.0</ele><time>2026-05-01T11:45:58.152Z</time></trkpt><trkpt lat="44.82297" lon="7.8935267"><ele>325.8</ele><time>2026-05-01T11:45:59.154Z</time></trkpt><trkpt lat="44.8229783" lon="7.8936783"><ele>326.6</ele><time>2026-05-01T11:46:00.16Z</time></trkpt><trkpt lat="44.8229717" lon="7.8937967"><ele>327.4</ele><time>2026-05-01T11:46:01.155Z</time></trkpt><trkpt lat="44.8228783" lon="7.8938667"><ele>328.2</ele><time>2026-05-01T11:46:03.157Z</time></trkpt><trkpt lat="44.8227933" lon="7.893775"><ele>329.0</ele><time>2026-05-01T11:46:05.157Z</time></trkpt><trkpt lat="44.822765" lon="7.8936883"><ele>329.0</ele><time>2026-05-01T11:46:06.158Z</time></trkpt><trkpt lat="44.822785" lon="7.8935367"><ele>329.0</ele><time>2026-05-01T11:46:07.153Z</time></trkpt><trkpt lat="44.8227817" lon="7.8933633"><ele>329.0</ele><time>2026-05-01T11:46:08.15Z</time></trkpt><trkpt lat="44.822755" lon="7.8931783"><ele>329.0</ele><time>2026-05-01T11:46:09.152Z</time></trkpt><trkpt lat="44.8227117" lon="7.8930067"><ele>326.75</ele><time>2026-05-01T11:46:10.156Z</time></trkpt><trkpt lat="44.82263" lon="7.892845"><ele>324.5</ele><time>2026-05-01T11:46:11.151Z</time></trkpt><trkpt lat="44.8225117" lon="7.8927217"><ele>322.25</ele><time>2026-05-01T11:46:12.152Z</time></trkpt><trkpt lat="44.822375" lon="7.892615"><ele>320.0</ele><time>2026-05-01T11:46:13.154Z</time></trkpt><trkpt lat="44.8222183" lon="7.89251"><ele>317.33333333333337</ele><time>2026-05-01T11:46:14.153Z</time></trkpt><trkpt lat="44.822055" lon="7.8924033"><ele>314.6666666666667</ele><time>2026-05-01T11:46:15.157Z</time></trkpt><trkpt lat="44.8219017" lon="7.8922917"><ele>312.0</ele><time>2026-05-01T11:46:16.157Z</time></trkpt><trkpt lat="44.821745" lon="7.892185"><ele>310.6666666666667</ele><time>2026-05-01T11:46:17.154Z</time></trkpt><trkpt lat="44.8215983" lon="7.8920817"><ele>309.33333333333337</ele><time>2026-05-01T11:46:18.149Z</time></trkpt><trkpt lat="44.8214483" lon="7.8919817"><ele>308.0</ele><time>2026-05-01T11:46:19.157Z</time></trkpt><trkpt lat="44.82131" lon="7.8918867"><ele>308.0</ele><time>2026-05-01T11:46:20.152Z</time></trkpt><trkpt lat="44.8211767" lon="7.8917883"><ele>308.0</ele><time>2026-05-01T11:46:21.154Z</time></trkpt><trkpt lat="44.821065" lon="7.8917067"><ele>308.0</ele><time>2026-05-01T11:46:22.153Z</time></trkpt><trkpt lat="44.8209783" lon="7.8916433"><ele>308.0</ele><time>2026-05-01T11:46:23.161Z</time></trkpt><trkpt lat="44.8209067" lon="7.8915967"><ele>306.0</ele><time>2026-05-01T11:46:24.156Z</time></trkpt><trkpt lat="44.82083" lon="7.891535"><ele>304.0</ele><time>2026-05-01T11:46:26.156Z</time></trkpt><trkpt lat="44.8207383" lon="7.8914567"><ele>302.0</ele><time>2026-05-01T11:46:33.16Z</time></trkpt><trkpt lat="44.8206783" lon="7.8914083"><ele>300.0</ele><time>2026-05-01T11:46:34.156Z</time></trkpt><trkpt lat="44.8206083" lon="7.8913467"><ele>298.0</ele><time>2026-05-01T11:46:35.16Z</time></trkpt><trkpt lat="44.8205133" lon="7.8912683"><ele>298.0</ele><time>2026-05-01T11:46:36.158Z</time></trkpt><trkpt lat="44.8203983" lon="7.8911783"><ele>298.0</ele><time>2026-05-01T11:46:37.162Z</time></trkpt><trkpt lat="44.8202667" lon="7.891085"><ele>298.0</ele><time>2026-05-01T11:46:38.157Z</time></trkpt><trkpt lat="44.820135" lon="7.8910017"><ele>298.0</ele><time>2026-05-01T11:46:39.152Z</time></trkpt><trkpt lat="44.8199883" lon="7.8909267"><ele>296.3333333333333</ele><time>2026-05-01T11:46:40.156Z</time></trkpt><trkpt lat="44.8198283" lon="7.8908567"><ele>294.6666666666667</ele><time>2026-05-01T11:46:41.155Z</time></trkpt><trkpt lat="44.8196617" lon="7.8907783"><ele>293.0</ele><time>2026-05-01T11:46:42.156Z</time></trkpt><trkpt lat="44.819495" lon="7.890695"><ele>293.0</ele><time>2026-05-01T11:46:43.155Z</time></trkpt><trkpt lat="44.81933" lon="7.8906133"><ele>293.0</ele><time>2026-05-01T11:46:44.159Z</time></trkpt><trkpt lat="44.8191733" lon="7.8905333"><ele>293.0</ele><time>2026-05-01T11:46:45.15Z</time></trkpt><trkpt lat="44.8190233" lon="7.890455"><ele>293.5</ele><time>2026-05-01T11:46:46.153Z</time></trkpt><trkpt lat="44.8188833" lon="7.8903917"><ele>294.0</ele><time>2026-05-01T11:46:47.157Z</time></trkpt><trkpt lat="44.8187683" lon="7.890355"><ele>294.5</ele><time>2026-05-01T11:46:48.164Z</time></trkpt><trkpt lat="44.8186733" lon="7.8903683"><ele>295.0</ele><time>2026-05-01T11:46:49.152Z</time></trkpt><trkpt lat="44.8185917" lon="7.89043"><ele>295.0</ele><time>2026-05-01T11:46:50.154Z</time></trkpt><trkpt lat="44.81852" lon="7.8905233"><ele>295.0</ele><time>2026-05-01T11:46:51.156Z</time></trkpt><trkpt lat="44.8184417" lon="7.890635"><ele>295.0</ele><time>2026-05-01T11:46:52.155Z</time></trkpt><trkpt lat="44.8183567" lon="7.8907583"><ele>295.0</ele><time>2026-05-01T11:46:53.154Z</time></trkpt><trkpt lat="44.8182683" lon="7.8908767"><ele>296.0</ele><time>2026-05-01T11:46:54.156Z</time></trkpt><trkpt lat="44.81818" lon="7.8909817"><ele>297.0</ele><time>2026-05-01T11:46:55.155Z</time></trkpt><trkpt lat="44.8180883" lon="7.891065"><ele>298.0</ele><time>2026-05-01T11:46:56.153Z</time></trkpt><trkpt lat="44.8179883" lon="7.891145"><ele>299.0</ele><time>2026-05-01T11:46:57.155Z</time></trkpt><trkpt lat="44.8178867" lon="7.8912267"><ele>299.0</ele><time>2026-05-01T11:46:58.153Z</time></trkpt><trkpt lat="44.8177817" lon="7.891305"><ele>299.0</ele><time>2026-05-01T11:46:59.157Z</time></trkpt><trkpt lat="44.8176733" lon="7.8913817"><ele>299.0</ele><time>2026-05-01T11:47:00.157Z</time></trkpt><trkpt lat="44.8175683" lon="7.89146"><ele>299.0</ele><time>2026-05-01T11:47:01.155Z</time></trkpt><trkpt lat="44.81747" lon="7.89154"><ele>301.1666666666667</ele><time>2026-05-01T11:47:02.157Z</time></trkpt><trkpt lat="44.8173883" lon="7.8916117"><ele>303.33333333333337</ele><time>2026-05-01T11:47:03.155Z</time></trkpt><trkpt lat="44.817325" lon="7.8916733"><ele>305.5</ele><time>2026-05-01T11:47:04.158Z</time></trkpt><trkpt lat="44.8172683" lon="7.8917233"><ele>307.6666666666667</ele><time>2026-05-01T11:47:05.151Z</time></trkpt><trkpt lat="44.81718" lon="7.8917117"><ele>309.8333333333333</ele><time>2026-05-01T11:47:07.157Z</time></trkpt><trkpt lat="44.8171883" lon="7.8916067"><ele>312.0</ele><time>2026-05-01T11:47:08.155Z</time></trkpt><trkpt lat="44.81721" lon="7.8915183"><ele>312.0</ele><time>2026-05-01T11:47:09.152Z</time></trkpt><trkpt lat="44.817255" lon="7.891425"><ele>312.0</ele><time>2026-05-01T11:47:10.156Z</time></trkpt><trkpt lat="44.8173083" lon="7.891345"><ele>312.0</ele><time>2026-05-01T11:47:11.157Z</time></trkpt><trkpt lat="44.81737" lon="7.8912767"><ele>312.0</ele><time>2026-05-01T11:47:12.154Z</time></trkpt><trkpt lat="44.817415" lon="7.891205"><ele>312.0</ele><time>2026-05-01T11:47:13.154Z</time></trkpt><trkpt lat="44.8174533" lon="7.8911217"><ele>312.0</ele><time>2026-05-01T11:47:14.157Z</time></trkpt><trkpt lat="44.8174817" lon="7.8910317"><ele>312.0</ele><time>2026-05-01T11:47:15.154Z</time></trkpt><trkpt lat="44.8173933" lon="7.89094"><ele>312.0</ele><time>2026-05-01T11:47:17.157Z</time></trkpt><trkpt lat="44.8173" lon="7.891025"><ele>312.0</ele><time>2026-05-01T11:47:19.155Z</time></trkpt><trkpt lat="44.8172483" lon="7.8910833"><ele>312.0</ele><time>2026-05-01T11:47:20.158Z</time></trkpt><trkpt lat="44.8171867" lon="7.89114"><ele>312.0</ele><time>2026-05-01T11:47:21.16Z</time></trkpt><trkpt lat="44.8171217" lon="7.8911717"><ele>312.0</ele><time>2026-05-01T11:47:22.152Z</time></trkpt><trkpt lat="44.817055" lon="7.8911817"><ele>312.0</ele><time>2026-05-01T11:47:23.154Z</time></trkpt><trkpt lat="44.8169917" lon="7.8911933"><ele>312.0</ele><time>2026-05-01T11:47:24.154Z</time></trkpt><trkpt lat="44.8168833" lon="7.89119"><ele>312.0</ele><time>2026-05-01T11:47:26.158Z</time></trkpt><trkpt lat="44.816785" lon="7.8911183"><ele>312.0</ele><time>2026-05-01T11:47:28.158Z</time></trkpt><trkpt lat="44.8166833" lon="7.89107"><ele>312.0</ele><time>2026-05-01T11:47:30.157Z</time></trkpt><trkpt lat="44.8165583" lon="7.891075"><ele>313.3333333333333</ele><time>2026-05-01T11:47:32.154Z</time></trkpt><trkpt lat="44.8164867" lon="7.8910717"><ele>314.6666666666667</ele><time>2026-05-01T11:47:33.159Z</time></trkpt><trkpt lat="44.816415" lon="7.8910683"><ele>316.0</ele><time>2026-05-01T11:47:34.151Z</time></trkpt><trkpt lat="44.8163433" lon="7.8910633"><ele>317.33333333333337</ele><time>2026-05-01T11:47:35.157Z</time></trkpt><trkpt lat="44.8162733" lon="7.891045"><ele>318.6666666666667</ele><time>2026-05-01T11:47:36.156Z</time></trkpt><trkpt lat="44.816145" lon="7.89102"><ele>320.0</ele><time>2026-05-01T11:47:38.16Z</time></trkpt><trkpt lat="44.8160783" lon="7.891015"><ele>320.0</ele><time>2026-05-01T11:47:39.159Z</time></trkpt><trkpt lat="44.81601" lon="7.89101"><ele>320.0</ele><time>2026-05-01T11:47:40.155Z</time></trkpt><trkpt lat="44.81594" lon="7.891005"><ele>320.0</ele><time>2026-05-01T11:47:41.156Z</time></trkpt><trkpt lat="44.81583" lon="7.89098"><ele>320.0</ele><time>2026-05-01T11:47:43.156Z</time></trkpt><trkpt lat="44.81574" lon="7.89089"><ele>320.0</ele><time>2026-05-01T11:47:45.156Z</time></trkpt><trkpt lat="44.8156283" lon="7.8908233"><ele>320.83333333333337</ele><time>2026-05-01T11:47:47.158Z</time></trkpt><trkpt lat="44.8155633" lon="7.8907933"><ele>321.6666666666667</ele><time>2026-05-01T11:47:48.156Z</time></trkpt><trkpt lat="44.815495" lon="7.890755"><ele>322.5</ele><time>2026-05-01T11:47:49.157Z</time></trkpt><trkpt lat="44.8154233" lon="7.890715"><ele>323.3333333333333</ele><time>2026-05-01T11:47:50.154Z</time></trkpt><trkpt lat="44.81536" lon="7.8906783"><ele>324.16666666666663</ele><time>2026-05-01T11:47:51.153Z</time></trkpt><trkpt lat="44.815285" lon="7.8906283"><ele>325.0</ele><time>2026-05-01T11:47:52.156Z</time></trkpt><trkpt lat="44.8152033" lon="7.89059"><ele>325.2857142857143</ele><time>2026-05-01T11:47:53.155Z</time></trkpt><trkpt lat="44.81513" lon="7.8905517"><ele>325.5714285714286</ele><time>2026-05-01T11:47:54.155Z</time></trkpt><trkpt lat="44.8150617" lon="7.89051"><ele>325.8571428571429</ele><time>2026-05-01T11:47:55.153Z</time></trkpt><trkpt lat="44.8149817" lon="7.8904767"><ele>326.1428571428571</ele><time>2026-05-01T11:47:56.159Z</time></trkpt><trkpt lat="44.814915" lon="7.8904333"><ele>326.42857142857144</ele><time>2026-05-01T11:47:57.159Z</time></trkpt><trkpt lat="44.8148583" lon="7.89038"><ele>326.7142857142857</ele><time>2026-05-01T11:47:58.156Z</time></trkpt><trkpt lat="44.8148217" lon="7.8902983"><ele>327.0</ele><time>2026-05-01T11:47:59.154Z</time></trkpt><trkpt lat="44.814795" lon="7.8902067"><ele>327.0</ele><time>2026-05-01T11:48:00.157Z</time></trkpt><trkpt lat="44.81476" lon="7.8901217"><ele>327.0</ele><time>2026-05-01T11:48:01.154Z</time></trkpt><trkpt lat="44.8147133" lon="7.8900433"><ele>327.0</ele><time>2026-05-01T11:48:02.155Z</time></trkpt><trkpt lat="44.8146517" lon="7.8899917"><ele>327.0</ele><time>2026-05-01T11:48:03.158Z</time></trkpt><trkpt lat="44.8145883" lon="7.8899583"><ele>327.0</ele><time>2026-05-01T11:48:04.154Z</time></trkpt><trkpt lat="44.8145117" lon="7.8899467"><ele>327.0</ele><time>2026-05-01T11:48:05.157Z</time></trkpt><trkpt lat="44.8144233" lon="7.8899467"><ele>327.0</ele><time>2026-05-01T11:48:06.152Z</time></trkpt><trkpt lat="44.8143333" lon="7.889945"><ele>328.6</ele><time>2026-05-01T11:48:07.159Z</time></trkpt><trkpt lat="44.814245" lon="7.8899167"><ele>330.20000000000005</ele><time>2026-05-01T11:48:08.157Z</time></trkpt><trkpt lat="44.8141633" lon="7.889855"><ele>331.8</ele><time>2026-05-01T11:48:09.153Z</time></trkpt><trkpt lat="44.8140917" lon="7.889765"><ele>333.4</ele><time>2026-05-01T11:48:10.155Z</time></trkpt><trkpt lat="44.81403" lon="7.8896467"><ele>335.0</ele><time>2026-05-01T11:48:11.156Z</time></trkpt><trkpt lat="44.8139683" lon="7.889515"><ele>335.0</ele><time>2026-05-01T11:48:12.157Z</time></trkpt><trkpt lat="44.8139133" lon="7.8893767"><ele>335.0</ele><time>2026-05-01T11:48:13.155Z</time></trkpt><trkpt lat="44.8138583" lon="7.8892433"><ele>335.0</ele><time>2026-05-01T11:48:14.154Z</time></trkpt><trkpt lat="44.8138217" lon="7.889115"><ele>335.0</ele><time>2026-05-01T11:48:15.154Z</time></trkpt><trkpt lat="44.8138133" lon="7.888985"><ele>335.0</ele><time>2026-05-01T11:48:16.154Z</time></trkpt><trkpt lat="44.8138217" lon="7.8888533"><ele>335.8</ele><time>2026-05-01T11:48:17.158Z</time></trkpt><trkpt lat="44.813875" lon="7.8887233"><ele>336.6</ele><time>2026-05-01T11:48:18.155Z</time></trkpt><trkpt lat="44.813915" lon="7.8886"><ele>337.4</ele><time>2026-05-01T11:48:19.157Z</time></trkpt><trkpt lat="44.813935" lon="7.8884667"><ele>338.2</ele><time>2026-05-01T11:48:20.156Z</time></trkpt><trkpt lat="44.813935" lon="7.8883317"><ele>339.0</ele><time>2026-05-01T11:48:21.153Z</time></trkpt><trkpt lat="44.8139167" lon="7.8882017"><ele>339.79999999999995</ele><time>2026-05-01T11:48:22.158Z</time></trkpt><trkpt lat="44.8138783" lon="7.8880767"><ele>340.59999999999997</ele><time>2026-05-01T11:48:23.162Z</time></trkpt><trkpt lat="44.8138217" lon="7.8879683"><ele>341.4</ele><time>2026-05-01T11:48:24.156Z</time></trkpt><trkpt lat="44.8137483" lon="7.8878783"><ele>342.2</ele><time>2026-05-01T11:48:25.155Z</time></trkpt><trkpt lat="44.8136483" lon="7.8878117"><ele>343.0</ele><time>2026-05-01T11:48:26.158Z</time></trkpt><trkpt lat="44.813525" lon="7.8877467"><ele>345.0</ele><time>2026-05-01T11:48:27.161Z</time></trkpt><trkpt lat="44.8133733" lon="7.887675"><ele>347.0</ele><time>2026-05-01T11:48:28.158Z</time></trkpt><trkpt lat="44.813205" lon="7.8875983"><ele>349.0</ele><time>2026-05-01T11:48:29.154Z</time></trkpt><trkpt lat="44.813035" lon="7.887525"><ele>349.0</ele><time>2026-05-01T11:48:30.155Z</time></trkpt><trkpt lat="44.81287" lon="7.8874617"><ele>349.0</ele><time>2026-05-01T11:48:31.157Z</time></trkpt><trkpt lat="44.8127267" lon="7.8874133"><ele>349.0</ele><time>2026-05-01T11:48:32.159Z</time></trkpt><trkpt lat="44.8126117" lon="7.8873917"><ele>349.0</ele><time>2026-05-01T11:48:33.158Z</time></trkpt><trkpt lat="44.81252" lon="7.8874183"><ele>349.3333333333333</ele><time>2026-05-01T11:48:34.158Z</time></trkpt><trkpt lat="44.812445" lon="7.88748"><ele>349.66666666666663</ele><time>2026-05-01T11:48:35.156Z</time></trkpt><trkpt lat="44.8123883" lon="7.8875617"><ele>350.0</ele><time>2026-05-01T11:48:36.157Z</time></trkpt><trkpt lat="44.8123467" lon="7.8876517"><ele>350.3333333333333</ele><time>2026-05-01T11:48:37.158Z</time></trkpt><trkpt lat="44.81235" lon="7.8877733"><ele>350.6666666666667</ele><time>2026-05-01T11:48:38.154Z</time></trkpt><trkpt lat="44.81235" lon="7.8879033"><ele>351.0</ele><time>2026-05-01T11:48:39.155Z</time></trkpt><trkpt lat="44.8123517" lon="7.888045"><ele>351.20000000000005</ele><time>2026-05-01T11:48:40.155Z</time></trkpt><trkpt lat="44.812345" lon="7.88818"><ele>351.40000000000003</ele><time>2026-05-01T11:48:41.158Z</time></trkpt><trkpt lat="44.8123233" lon="7.888305"><ele>351.6</ele><time>2026-05-01T11:48:42.155Z</time></trkpt><trkpt lat="44.8122817" lon="7.8884183"><ele>351.8</ele><time>2026-05-01T11:48:43.154Z</time></trkpt><trkpt lat="44.8122183" lon="7.888515"><ele>352.0</ele><time>2026-05-01T11:48:44.152Z</time></trkpt><trkpt lat="44.8121367" lon="7.8885983"><ele>352.0</ele><time>2026-05-01T11:48:45.151Z</time></trkpt><trkpt lat="44.81203" lon="7.8886767"><ele>352.0</ele><time>2026-05-01T11:48:46.156Z</time></trkpt><trkpt lat="44.811915" lon="7.8887583"><ele>352.0</ele><time>2026-05-01T11:48:47.161Z</time></trkpt><trkpt lat="44.8117817" lon="7.888835"><ele>352.0</ele><time>2026-05-01T11:48:48.155Z</time></trkpt><trkpt lat="44.811635" lon="7.8889067"><ele>352.0</ele><time>2026-05-01T11:48:49.156Z</time></trkpt><trkpt lat="44.8114883" lon="7.888975"><ele>352.0</ele><time>2026-05-01T11:48:50.154Z</time></trkpt><trkpt lat="44.8113367" lon="7.889035"><ele>352.0</ele><time>2026-05-01T11:48:51.156Z</time></trkpt><trkpt lat="44.811185" lon="7.8890933"><ele>352.0</ele><time>2026-05-01T11:48:52.155Z</time></trkpt><trkpt lat="44.8110317" lon="7.8891533"><ele>352.0</ele><time>2026-05-01T11:48:53.156Z</time></trkpt><trkpt lat="44.81088" lon="7.8892167"><ele>352.0</ele><time>2026-05-01T11:48:54.162Z</time></trkpt><trkpt lat="44.8107233" lon="7.8892833"><ele>352.0</ele><time>2026-05-01T11:48:55.159Z</time></trkpt><trkpt lat="44.8105683" lon="7.889355"><ele>352.0</ele><time>2026-05-01T11:48:56.154Z</time></trkpt><trkpt lat="44.8104167" lon="7.8894333"><ele>352.0</ele><time>2026-05-01T11:48:57.158Z</time></trkpt><trkpt lat="44.8102683" lon="7.8895183"><ele>353.66666666666663</ele><time>2026-05-01T11:48:58.151Z</time></trkpt><trkpt lat="44.810125" lon="7.88961"><ele>355.3333333333333</ele><time>2026-05-01T11:48:59.156Z</time></trkpt><trkpt lat="44.8099883" lon="7.8897167"><ele>357.0</ele><time>2026-05-01T11:49:00.152Z</time></trkpt><trkpt lat="44.8098583" lon="7.889835"><ele>357.0</ele><time>2026-05-01T11:49:01.153Z</time></trkpt><trkpt lat="44.8097367" lon="7.889965"><ele>357.0</ele><time>2026-05-01T11:49:02.155Z</time></trkpt><trkpt lat="44.80962" lon="7.8900983"><ele>357.0</ele><time>2026-05-01T11:49:03.153Z</time></trkpt><trkpt lat="44.8095083" lon="7.8902217"><ele>357.0</ele><time>2026-05-01T11:49:04.154Z</time></trkpt><trkpt lat="44.8093933" lon="7.89033"><ele>358.5</ele><time>2026-05-01T11:49:05.155Z</time></trkpt><trkpt lat="44.8092683" lon="7.8904167"><ele>360.0</ele><time>2026-05-01T11:49:06.157Z</time></trkpt><trkpt lat="44.80913" lon="7.8904717"><ele>361.5</ele><time>2026-05-01T11:49:07.159Z</time></trkpt><trkpt lat="44.8089817" lon="7.8905117"><ele>363.0</ele><time>2026-05-01T11:49:08.159Z</time></trkpt><trkpt lat="44.8088217" lon="7.8905367"><ele>363.0</ele><time>2026-05-01T11:49:09.154Z</time></trkpt><trkpt lat="44.8086583" lon="7.8905667"><ele>363.0</ele><time>2026-05-01T11:49:10.16Z</time></trkpt><trkpt lat="44.8084917" lon="7.8905933"><ele>363.0</ele><time>2026-05-01T11:49:11.154Z</time></trkpt><trkpt lat="44.8083233" lon="7.8906133"><ele>362.6666666666667</ele><time>2026-05-01T11:49:12.155Z</time></trkpt><trkpt lat="44.8081517" lon="7.890625"><ele>362.33333333333337</ele><time>2026-05-01T11:49:13.155Z</time></trkpt><trkpt lat="44.807975" lon="7.8906183"><ele>362.0</ele><time>2026-05-01T11:49:14.154Z</time></trkpt><trkpt lat="44.8078033" lon="7.8905917"><ele>362.0</ele><time>2026-05-01T11:49:15.155Z</time></trkpt><trkpt lat="44.8076417" lon="7.8905583"><ele>362.0</ele><time>2026-05-01T11:49:16.158Z</time></trkpt><trkpt lat="44.80749" lon="7.890535"><ele>362.0</ele><time>2026-05-01T11:49:17.157Z</time></trkpt><trkpt lat="44.807335" lon="7.890545"><ele>362.0</ele><time>2026-05-01T11:49:18.155Z</time></trkpt><trkpt lat="44.8071783" lon="7.890575"><ele>362.0</ele><time>2026-05-01T11:49:19.156Z</time></trkpt><trkpt lat="44.80702" lon="7.89063"><ele>362.0</ele><time>2026-05-01T11:49:20.157Z</time></trkpt><trkpt lat="44.8068567" lon="7.8906967"><ele>363.0</ele><time>2026-05-01T11:49:21.156Z</time></trkpt><trkpt lat="44.806695" lon="7.8907683"><ele>364.0</ele><time>2026-05-01T11:49:22.159Z</time></trkpt><trkpt lat="44.806535" lon="7.8908417"><ele>365.0</ele><time>2026-05-01T11:49:23.155Z</time></trkpt><trkpt lat="44.8063817" lon="7.89091"><ele>362.6666666666667</ele><time>2026-05-01T11:49:24.156Z</time></trkpt><trkpt lat="44.80623" lon="7.89096"><ele>360.3333333333333</ele><time>2026-05-01T11:49:25.154Z</time></trkpt><trkpt lat="44.806075" lon="7.89099"><ele>358.0</ele><time>2026-05-01T11:49:26.161Z</time></trkpt><trkpt lat="44.8059183" lon="7.8910017"><ele>358.0</ele><time>2026-05-01T11:49:27.157Z</time></trkpt><trkpt lat="44.8057533" lon="7.8910033"><ele>358.0</ele><time>2026-05-01T11:49:28.157Z</time></trkpt><trkpt lat="44.80559" lon="7.8910033"><ele>358.0</ele><time>2026-05-01T11:49:29.161Z</time></trkpt><trkpt lat="44.8054183" lon="7.8910033"><ele>358.0</ele><time>2026-05-01T11:49:30.158Z</time></trkpt><trkpt lat="44.8052483" lon="7.8910067"><ele>358.0</ele><time>2026-05-01T11:49:31.156Z</time></trkpt><trkpt lat="44.805075" lon="7.8910117"><ele>358.0</ele><time>2026-05-01T11:49:32.156Z</time></trkpt><trkpt lat="44.8049033" lon="7.8910217"><ele>358.66666666666663</ele><time>2026-05-01T11:49:33.16Z</time></trkpt><trkpt lat="44.8047333" lon="7.891035"><ele>359.3333333333333</ele><time>2026-05-01T11:49:34.153Z</time></trkpt><trkpt lat="44.8045567" lon="7.8910483"><ele>360.0</ele><time>2026-05-01T11:49:35.155Z</time></trkpt><trkpt lat="44.80439" lon="7.89106"><ele>362.6666666666667</ele><time>2026-05-01T11:49:36.154Z</time></trkpt><trkpt lat="44.8042217" lon="7.8910733"><ele>365.33333333333337</ele><time>2026-05-01T11:49:37.155Z</time></trkpt><trkpt lat="44.8040517" lon="7.891085"><ele>368.0</ele><time>2026-05-01T11:49:38.157Z</time></trkpt><trkpt lat="44.803885" lon="7.8911"><ele>368.0</ele><time>2026-05-01T11:49:39.15Z</time></trkpt><trkpt lat="44.8037233" lon="7.8910983"><ele>368.0</ele><time>2026-05-01T11:49:40.152Z</time></trkpt><trkpt lat="44.80356" lon="7.8911067"><ele>368.0</ele><time>2026-05-01T11:49:41.158Z</time></trkpt><trkpt lat="44.8034017" lon="7.8911133"><ele>369.0</ele><time>2026-05-01T11:49:42.153Z</time></trkpt><trkpt lat="44.8032383" lon="7.8911117"><ele>370.0</ele><time>2026-05-01T11:49:43.154Z</time></trkpt><trkpt lat="44.8030867" lon="7.8911117"><ele>371.0</ele><time>2026-05-01T11:49:44.159Z</time></trkpt><trkpt lat="44.802935" lon="7.8911117"><ele>371.0</ele><time>2026-05-01T11:49:45.155Z</time></trkpt><trkpt lat="44.8027867" lon="7.8911233"><ele>371.0</ele><time>2026-05-01T11:49:46.156Z</time></trkpt><trkpt lat="44.802645" lon="7.8911267"><ele>371.0</ele><time>2026-05-01T11:49:47.154Z</time></trkpt><trkpt lat="44.8024983" lon="7.8911317"><ele>371.0</ele><time>2026-05-01T11:49:48.158Z</time></trkpt><trkpt lat="44.8023533" lon="7.8911333"><ele>370.75</ele><time>2026-05-01T11:49:49.154Z</time></trkpt><trkpt lat="44.8022133" lon="7.89115"><ele>370.5</ele><time>2026-05-01T11:49:50.157Z</time></trkpt><trkpt lat="44.8020667" lon="7.8911767"><ele>370.25</ele><time>2026-05-01T11:49:51.155Z</time></trkpt><trkpt lat="44.8019183" lon="7.8912083"><ele>370.0</ele><time>2026-05-01T11:49:52.157Z</time></trkpt><trkpt lat="44.8017717" lon="7.89125"><ele>370.66666666666663</ele><time>2026-05-01T11:49:53.161Z</time></trkpt><trkpt lat="44.801625" lon="7.8912883"><ele>371.3333333333333</ele><time>2026-05-01T11:49:54.154Z</time></trkpt><trkpt lat="44.8014783" lon="7.89133"><ele>372.0</ele><time>2026-05-01T11:49:55.157Z</time></trkpt><trkpt lat="44.80133" lon="7.89137"><ele>372.0</ele><time>2026-05-01T11:49:56.159Z</time></trkpt><trkpt lat="44.8011833" lon="7.8914017"><ele>372.0</ele><time>2026-05-01T11:49:57.156Z</time></trkpt><trkpt lat="44.801035" lon="7.8914183"><ele>372.0</ele><time>2026-05-01T11:49:58.155Z</time></trkpt><trkpt lat="44.8008917" lon="7.8914233"><ele>372.0</ele><time>2026-05-01T11:49:59.154Z</time></trkpt><trkpt lat="44.800755" lon="7.8914217"><ele>372.5</ele><time>2026-05-01T11:50:00.154Z</time></trkpt><trkpt lat="44.800625" lon="7.8914217"><ele>373.0</ele><time>2026-05-01T11:50:01.159Z</time></trkpt><trkpt lat="44.8005" lon="7.8914383"><ele>373.5</ele><time>2026-05-01T11:50:02.156Z</time></trkpt><trkpt lat="44.800375" lon="7.8914683"><ele>374.0</ele><time>2026-05-01T11:50:03.153Z</time></trkpt><trkpt lat="44.800255" lon="7.891505"><ele>373.5</ele><time>2026-05-01T11:50:04.155Z</time></trkpt><trkpt lat="44.800135" lon="7.8915433"><ele>373.0</ele><time>2026-05-01T11:50:05.163Z</time></trkpt><trkpt lat="44.8000183" lon="7.8915633"><ele>372.5</ele><time>2026-05-01T11:50:06.152Z</time></trkpt><trkpt lat="44.7998933" lon="7.891555"><ele>372.0</ele><time>2026-05-01T11:50:07.161Z</time></trkpt><trkpt lat="44.7997683" lon="7.891525"><ele>372.0</ele><time>2026-05-01T11:50:08.16Z</time></trkpt><trkpt lat="44.799645" lon="7.891485"><ele>372.0</ele><time>2026-05-01T11:50:09.154Z</time></trkpt><trkpt lat="44.799515" lon="7.8914317"><ele>372.0</ele><time>2026-05-01T11:50:10.16Z</time></trkpt><trkpt lat="44.7993817" lon="7.8913917"><ele>372.0</ele><time>2026-05-01T11:50:11.157Z</time></trkpt><trkpt lat="44.7992417" lon="7.89136"><ele>370.25</ele><time>2026-05-01T11:50:12.155Z</time></trkpt><trkpt lat="44.7990983" lon="7.8913483"><ele>368.5</ele><time>2026-05-01T11:50:13.158Z</time></trkpt><trkpt lat="44.79896" lon="7.8913517"><ele>366.75</ele><time>2026-05-01T11:50:14.158Z</time></trkpt><trkpt lat="44.7988283" lon="7.8913783"><ele>365.0</ele><time>2026-05-01T11:50:15.153Z</time></trkpt><trkpt lat="44.7987067" lon="7.8914367"><ele>365.0</ele><time>2026-05-01T11:50:16.158Z</time></trkpt><trkpt lat="44.79859" lon="7.89151"><ele>365.0</ele><time>2026-05-01T11:50:17.155Z</time></trkpt><trkpt lat="44.79849" lon="7.89161"><ele>365.0</ele><time>2026-05-01T11:50:18.151Z</time></trkpt><trkpt lat="44.7984083" lon="7.8917383"><ele>365.0</ele><time>2026-05-01T11:50:19.162Z</time></trkpt><trkpt lat="44.798335" lon="7.89188"><ele>365.5</ele><time>2026-05-01T11:50:20.158Z</time></trkpt><trkpt lat="44.7982667" lon="7.892035"><ele>366.0</ele><time>2026-05-01T11:50:21.156Z</time></trkpt><trkpt lat="44.7982067" lon="7.89219"><ele>366.5</ele><time>2026-05-01T11:50:22.154Z</time></trkpt><trkpt lat="44.7981467" lon="7.8923483"><ele>367.0</ele><time>2026-05-01T11:50:23.155Z</time></trkpt><trkpt lat="44.7980933" lon="7.892515"><ele>366.25</ele><time>2026-05-01T11:50:24.153Z</time></trkpt><trkpt lat="44.7980433" lon="7.892685"><ele>365.5</ele><time>2026-05-01T11:50:25.157Z</time></trkpt><trkpt lat="44.7980033" lon="7.8928617"><ele>364.75</ele><time>2026-05-01T11:50:26.156Z</time></trkpt><trkpt lat="44.7979667" lon="7.8930383"><ele>364.0</ele><time>2026-05-01T11:50:27.151Z</time></trkpt><trkpt lat="44.7979283" lon="7.8932067"><ele>364.0</ele><time>2026-05-01T11:50:28.156Z</time></trkpt><trkpt lat="44.7978817" lon="7.8933567"><ele>364.0</ele><time>2026-05-01T11:50:29.152Z</time></trkpt><trkpt lat="44.79781" lon="7.8934817"><ele>364.0</ele><time>2026-05-01T11:50:30.161Z</time></trkpt><trkpt lat="44.7977117" lon="7.8935867"><ele>364.0</ele><time>2026-05-01T11:50:31.153Z</time></trkpt><trkpt lat="44.797585" lon="7.8936833"><ele>366.3333333333333</ele><time>2026-05-01T11:50:32.155Z</time></trkpt><trkpt lat="44.79744" lon="7.8937783"><ele>368.6666666666667</ele><time>2026-05-01T11:50:33.16Z</time></trkpt><trkpt lat="44.79728" lon="7.89388"><ele>371.0</ele><time>2026-05-01T11:50:34.153Z</time></trkpt><trkpt lat="44.7971267" lon="7.8939817"><ele>371.0</ele><time>2026-05-01T11:50:35.155Z</time></trkpt><trkpt lat="44.7969883" lon="7.8940717"><ele>371.0</ele><time>2026-05-01T11:50:36.154Z</time></trkpt><trkpt lat="44.7968533" lon="7.8941467"><ele>371.0</ele><time>2026-05-01T11:50:37.156Z</time></trkpt><trkpt lat="44.7967217" lon="7.8942117"><ele>371.0</ele><time>2026-05-01T11:50:38.159Z</time></trkpt><trkpt lat="44.7965867" lon="7.894255"><ele>371.75</ele><time>2026-05-01T11:50:39.153Z</time></trkpt><trkpt lat="44.7964467" lon="7.8942867"><ele>372.5</ele><time>2026-05-01T11:50:40.158Z</time></trkpt><trkpt lat="44.7962983" lon="7.8943"><ele>373.25</ele><time>2026-05-01T11:50:41.155Z</time></trkpt><trkpt lat="44.79615" lon="7.894295"><ele>374.0</ele><time>2026-05-01T11:50:42.151Z</time></trkpt><trkpt lat="44.7959983" lon="7.89428"><ele>374.0</ele><time>2026-05-01T11:50:43.152Z</time></trkpt><trkpt lat="44.795855" lon="7.89427"><ele>374.0</ele><time>2026-05-01T11:50:44.152Z</time></trkpt><trkpt lat="44.795715" lon="7.89427"><ele>374.0</ele><time>2026-05-01T11:50:45.153Z</time></trkpt><trkpt lat="44.7955817" lon="7.8942817"><ele>374.0</ele><time>2026-05-01T11:50:46.152Z</time></trkpt><trkpt lat="44.7954483" lon="7.8943167"><ele>374.0</ele><time>2026-05-01T11:50:47.153Z</time></trkpt><trkpt lat="44.7953233" lon="7.8943767"><ele>374.0</ele><time>2026-05-01T11:50:48.153Z</time></trkpt><trkpt lat="44.7951967" lon="7.8944483"><ele>374.0</ele><time>2026-05-01T11:50:49.154Z</time></trkpt><trkpt lat="44.795065" lon="7.8945233"><ele>374.0</ele><time>2026-05-01T11:50:50.156Z</time></trkpt><trkpt lat="44.7949283" lon="7.89459"><ele>375.5</ele><time>2026-05-01T11:50:51.15Z</time></trkpt><trkpt lat="44.7948017" lon="7.89466"><ele>377.0</ele><time>2026-05-01T11:50:52.158Z</time></trkpt><trkpt lat="44.7946783" lon="7.8947383"><ele>378.5</ele><time>2026-05-01T11:50:53.15Z</time></trkpt><trkpt lat="44.7945667" lon="7.8948283"><ele>380.0</ele><time>2026-05-01T11:50:54.154Z</time></trkpt><trkpt lat="44.79447" lon="7.89493"><ele>380.0</ele><time>2026-05-01T11:50:55.152Z</time></trkpt><trkpt lat="44.7943917" lon="7.8950367"><ele>380.0</ele><time>2026-05-01T11:50:56.161Z</time></trkpt><trkpt lat="44.794335" lon="7.89514"><ele>380.0</ele><time>2026-05-01T11:50:57.153Z</time></trkpt><trkpt lat="44.7942883" lon="7.89524"><ele>380.0</ele><time>2026-05-01T11:50:58.156Z</time></trkpt><trkpt lat="44.794245" lon="7.8953483"><ele>380.0</ele><time>2026-05-01T11:50:59.154Z</time></trkpt><trkpt lat="44.7942017" lon="7.8954717"><ele>381.0</ele><time>2026-05-01T11:51:00.154Z</time></trkpt><trkpt lat="44.7941567" lon="7.8956033"><ele>382.0</ele><time>2026-05-01T11:51:01.154Z</time></trkpt><trkpt lat="44.79411" lon="7.8957433"><ele>383.0</ele><time>2026-05-01T11:51:02.156Z</time></trkpt><trkpt lat="44.7940583" lon="7.89589"><ele>384.0</ele><time>2026-05-01T11:51:03.155Z</time></trkpt><trkpt lat="44.7940067" lon="7.8960417"><ele>385.0</ele><time>2026-05-01T11:51:04.158Z</time></trkpt><trkpt lat="44.7939583" lon="7.8962117"><ele>385.0</ele><time>2026-05-01T11:51:05.155Z</time></trkpt><trkpt lat="44.7939183" lon="7.8963983"><ele>385.0</ele><time>2026-05-01T11:51:06.156Z</time></trkpt><trkpt lat="44.7938817" lon="7.8965917"><ele>385.0</ele><time>2026-05-01T11:51:07.156Z</time></trkpt><trkpt lat="44.7938467" lon="7.896785"><ele>385.0</ele><time>2026-05-01T11:51:08.153Z</time></trkpt><trkpt lat="44.7938083" lon="7.8969717"><ele>385.0</ele><time>2026-05-01T11:51:09.153Z</time></trkpt><trkpt lat="44.79376" lon="7.89716"><ele>385.0</ele><time>2026-05-01T11:51:10.154Z</time></trkpt><trkpt lat="44.7937067" lon="7.8973467"><ele>385.0</ele><time>2026-05-01T11:51:11.153Z</time></trkpt><trkpt lat="44.793655" lon="7.8975317"><ele>385.0</ele><time>2026-05-01T11:51:12.151Z</time></trkpt><trkpt lat="44.7936133" lon="7.8977283"><ele>385.25</ele><time>2026-05-01T11:51:13.158Z</time></trkpt><trkpt lat="44.7935733" lon="7.8979233"><ele>385.5</ele><time>2026-05-01T11:51:14.152Z</time></trkpt><trkpt lat="44.7935283" lon="7.8981083"><ele>385.75</ele><time>2026-05-01T11:51:15.153Z</time></trkpt><trkpt lat="44.7934817" lon="7.8982783"><ele>386.0</ele><time>2026-05-01T11:51:16.154Z</time></trkpt><trkpt lat="44.7934167" lon="7.8984233"><ele>387.0</ele><time>2026-05-01T11:51:17.153Z</time></trkpt><trkpt lat="44.793325" lon="7.8985333"><ele>388.0</ele><time>2026-05-01T11:51:18.156Z</time></trkpt><trkpt lat="44.793215" lon="7.89862"><ele>389.0</ele><time>2026-05-01T11:51:19.158Z</time></trkpt><trkpt lat="44.7931017" lon="7.8986967"><ele>390.0</ele><time>2026-05-01T11:51:20.156Z</time></trkpt><trkpt lat="44.7929833" lon="7.898775"><ele>390.0</ele><time>2026-05-01T11:51:21.155Z</time></trkpt><trkpt lat="44.792865" lon="7.898855"><ele>390.0</ele><time>2026-05-01T11:51:22.154Z</time></trkpt><trkpt lat="44.7927533" lon="7.8989417"><ele>390.0</ele><time>2026-05-01T11:51:23.157Z</time></trkpt><trkpt lat="44.7926517" lon="7.8990433"><ele>390.0</ele><time>2026-05-01T11:51:24.16Z</time></trkpt><trkpt lat="44.7925517" lon="7.89914"><ele>390.0</ele><time>2026-05-01T11:51:25.154Z</time></trkpt><trkpt lat="44.7924567" lon="7.8992333"><ele>390.0</ele><time>2026-05-01T11:51:26.156Z</time></trkpt><trkpt lat="44.7923583" lon="7.899325"><ele>390.0</ele><time>2026-05-01T11:51:27.156Z</time></trkpt><trkpt lat="44.792255" lon="7.8994083"><ele>390.0</ele><time>2026-05-01T11:51:28.157Z</time></trkpt><trkpt lat="44.7921467" lon="7.89951"><ele>390.0</ele><time>2026-05-01T11:51:29.153Z</time></trkpt><trkpt lat="44.7920317" lon="7.8996183"><ele>390.0</ele><time>2026-05-01T11:51:30.155Z</time></trkpt><trkpt lat="44.791915" lon="7.8997233"><ele>390.0</ele><time>2026-05-01T11:51:31.153Z</time></trkpt><trkpt lat="44.7917917" lon="7.8998183"><ele>390.0</ele><time>2026-05-01T11:51:32.155Z</time></trkpt><trkpt lat="44.7916733" lon="7.89991"><ele>389.5</ele><time>2026-05-01T11:51:33.153Z</time></trkpt><trkpt lat="44.7915583" lon="7.8999933"><ele>389.0</ele><time>2026-05-01T11:51:34.153Z</time></trkpt><trkpt lat="44.7914517" lon="7.9000967"><ele>388.5</ele><time>2026-05-01T11:51:35.154Z</time></trkpt><trkpt lat="44.79134" lon="7.9002117"><ele>388.0</ele><time>2026-05-01T11:51:36.154Z</time></trkpt><trkpt lat="44.7912467" lon="7.9003283"><ele>387.5</ele><time>2026-05-01T11:51:37.157Z</time></trkpt><trkpt lat="44.79117" lon="7.900445"><ele>387.0</ele><time>2026-05-01T11:51:38.156Z</time></trkpt><trkpt lat="44.7910933" lon="7.9005683"><ele>386.5</ele><time>2026-05-01T11:51:39.155Z</time></trkpt><trkpt lat="44.7910217" lon="7.9006967"><ele>386.0</ele><time>2026-05-01T11:51:40.156Z</time></trkpt><trkpt lat="44.790945" lon="7.9008367"><ele>384.25</ele><time>2026-05-01T11:51:41.157Z</time></trkpt><trkpt lat="44.790865" lon="7.9009817"><ele>382.5</ele><time>2026-05-01T11:51:42.155Z</time></trkpt><trkpt lat="44.790785" lon="7.9011267"><ele>380.75</ele><time>2026-05-01T11:51:43.159Z</time></trkpt><trkpt lat="44.79071" lon="7.9012683"><ele>379.0</ele><time>2026-05-01T11:51:44.152Z</time></trkpt><trkpt lat="44.7906433" lon="7.9014117"><ele>379.0</ele><time>2026-05-01T11:51:45.152Z</time></trkpt><trkpt lat="44.79058" lon="7.9015617"><ele>379.0</ele><time>2026-05-01T11:51:46.157Z</time></trkpt><trkpt lat="44.7905067" lon="7.9017183"><ele>379.0</ele><time>2026-05-01T11:51:47.154Z</time></trkpt><trkpt lat="44.7904383" lon="7.9018783"><ele>379.0</ele><time>2026-05-01T11:51:48.156Z</time></trkpt><trkpt lat="44.7903767" lon="7.90204"><ele>378.0</ele><time>2026-05-01T11:51:49.157Z</time></trkpt><trkpt lat="44.790325" lon="7.9022"><ele>377.0</ele><time>2026-05-01T11:51:50.154Z</time></trkpt><trkpt lat="44.79028" lon="7.9023683"><ele>376.0</ele><time>2026-05-01T11:51:51.153Z</time></trkpt><trkpt lat="44.7902417" lon="7.902545"><ele>375.0</ele><time>2026-05-01T11:51:52.154Z</time></trkpt><trkpt lat="44.7902067" lon="7.9027333"><ele>375.25</ele><time>2026-05-01T11:51:53.156Z</time></trkpt><trkpt lat="44.79017" lon="7.902925"><ele>375.5</ele><time>2026-05-01T11:51:54.154Z</time></trkpt><trkpt lat="44.7901417" lon="7.9031183"><ele>375.75</ele><time>2026-05-01T11:51:55.155Z</time></trkpt><trkpt lat="44.7901183" lon="7.9033167"><ele>376.0</ele><time>2026-05-01T11:51:56.153Z</time></trkpt><trkpt lat="44.7901033" lon="7.903515"><ele>376.5</ele><time>2026-05-01T11:51:57.159Z</time></trkpt><trkpt lat="44.7900983" lon="7.9037183"><ele>377.0</ele><time>2026-05-01T11:51:58.157Z</time></trkpt><trkpt lat="44.7900967" lon="7.90392"><ele>377.5</ele><time>2026-05-01T11:51:59.154Z</time></trkpt><trkpt lat="44.7900883" lon="7.9041183"><ele>378.0</ele><time>2026-05-01T11:52:00.154Z</time></trkpt><trkpt lat="44.790065" lon="7.904305"><ele>379.0</ele><time>2026-05-01T11:52:01.155Z</time></trkpt><trkpt lat="44.7900267" lon="7.9044817"><ele>380.0</ele><time>2026-05-01T11:52:02.157Z</time></trkpt><trkpt lat="44.7899783" lon="7.90464"><ele>381.0</ele><time>2026-05-01T11:52:03.156Z</time></trkpt><trkpt lat="44.78991" lon="7.90478"><ele>382.0</ele><time>2026-05-01T11:52:04.155Z</time></trkpt><trkpt lat="44.7898333" lon="7.9049033"><ele>382.0</ele><time>2026-05-01T11:52:05.156Z</time></trkpt><trkpt lat="44.7897533" lon="7.905"><ele>382.0</ele><time>2026-05-01T11:52:06.161Z</time></trkpt><trkpt lat="44.7896483" lon="7.905065"><ele>382.0</ele><time>2026-05-01T11:52:07.156Z</time></trkpt><trkpt lat="44.7895417" lon="7.9051117"><ele>382.0</ele><time>2026-05-01T11:52:08.156Z</time></trkpt><trkpt lat="44.7894317" lon="7.90515"><ele>382.0</ele><time>2026-05-01T11:52:09.154Z</time></trkpt><trkpt lat="44.78932" lon="7.9051783"><ele>380.5</ele><time>2026-05-01T11:52:10.155Z</time></trkpt><trkpt lat="44.7892" lon="7.9052083"><ele>379.0</ele><time>2026-05-01T11:52:11.155Z</time></trkpt><trkpt lat="44.7890783" lon="7.905235"><ele>377.5</ele><time>2026-05-01T11:52:12.151Z</time></trkpt><trkpt lat="44.7889583" lon="7.9052517"><ele>376.0</ele><time>2026-05-01T11:52:13.157Z</time></trkpt><trkpt lat="44.7888383" lon="7.905245"><ele>376.0</ele><time>2026-05-01T11:52:14.158Z</time></trkpt><trkpt lat="44.7887117" lon="7.9052333"><ele>376.0</ele><time>2026-05-01T11:52:15.157Z</time></trkpt><trkpt lat="44.7885817" lon="7.905225"><ele>376.0</ele><time>2026-05-01T11:52:16.156Z</time></trkpt><trkpt lat="44.78845" lon="7.9052183"><ele>376.0</ele><time>2026-05-01T11:52:17.155Z</time></trkpt><trkpt lat="44.7883183" lon="7.9052117"><ele>377.0</ele><time>2026-05-01T11:52:18.157Z</time></trkpt><trkpt lat="44.7881933" lon="7.905205"><ele>378.0</ele><time>2026-05-01T11:52:19.156Z</time></trkpt><trkpt lat="44.78809" lon="7.9051967"><ele>379.0</ele><time>2026-05-01T11:52:20.153Z</time></trkpt><trkpt lat="44.7880117" lon="7.9051783"><ele>380.0</ele><time>2026-05-01T11:52:21.15Z</time></trkpt><trkpt lat="44.7879433" lon="7.90515"><ele>381.0</ele><time>2026-05-01T11:52:22.154Z</time></trkpt><trkpt lat="44.78791" lon="7.90506"><ele>378.8</ele><time>2026-05-01T11:52:24.156Z</time></trkpt><trkpt lat="44.7880033" lon="7.90498"><ele>376.6</ele><time>2026-05-01T11:52:25.157Z</time></trkpt><trkpt lat="44.7880667" lon="7.904915"><ele>374.4</ele><time>2026-05-01T11:52:26.155Z</time></trkpt><trkpt lat="44.7881567" lon="7.9048317"><ele>372.2</ele><time>2026-05-01T11:52:27.156Z</time></trkpt><trkpt lat="44.7882767" lon="7.90474"><ele>370.0</ele><time>2026-05-01T11:52:28.156Z</time></trkpt><trkpt lat="44.7883867" lon="7.904655"><ele>370.0</ele><time>2026-05-01T11:52:29.156Z</time></trkpt><trkpt lat="44.7884917" lon="7.90458"><ele>370.0</ele><time>2026-05-01T11:52:30.152Z</time></trkpt><trkpt lat="44.78859" lon="7.9045217"><ele>370.0</ele><time>2026-05-01T11:52:31.156Z</time></trkpt><trkpt lat="44.7886617" lon="7.9044767"><ele>370.0</ele><time>2026-05-01T11:52:32.163Z</time></trkpt><trkpt lat="44.7887333" lon="7.904375"><ele>370.0</ele><time>2026-05-01T11:52:34.154Z</time></trkpt><trkpt lat="44.7886583" lon="7.90429"><ele>370.0</ele><time>2026-05-01T11:52:36.155Z</time></trkpt><trkpt lat="44.788585" lon="7.9042617"><ele>370.0</ele><time>2026-05-01T11:52:37.156Z</time></trkpt><trkpt lat="44.78849" lon="7.90425"><ele>370.0</ele><time>2026-05-01T11:52:38.154Z</time></trkpt><trkpt lat="44.7883817" lon="7.9042633"><ele>370.0</ele><time>2026-05-01T11:52:39.161Z</time></trkpt><trkpt lat="44.78828" lon="7.9043067"><ele>370.0</ele><time>2026-05-01T11:52:40.154Z</time></trkpt><trkpt lat="44.788195" lon="7.90434"><ele>369.99999999999994</ele><time>2026-05-01T11:52:41.161Z</time></trkpt><trkpt lat="44.788125" lon="7.904365"><ele>370.0</ele><time>2026-05-01T11:52:42.151Z</time></trkpt><trkpt lat="44.7880767" lon="7.9043"><ele>370.0</ele><time>2026-05-01T11:52:44.154Z</time></trkpt><trkpt lat="44.7881067" lon="7.9042033"><ele>370.0</ele><time>2026-05-01T11:52:46.159Z</time></trkpt><trkpt lat="44.7881667" lon="7.90417"><ele>370.0</ele><time>2026-05-01T11:52:47.154Z</time></trkpt><trkpt lat="44.78825" lon="7.904145"><ele>369.99999999999994</ele><time>2026-05-01T11:52:48.155Z</time></trkpt><trkpt lat="44.78831" lon="7.904115"><ele>370.0</ele><time>2026-05-01T11:52:49.158Z</time></trkpt><trkpt lat="44.7883633" lon="7.9040017"><ele>366.4</ele><time>2026-05-01T11:52:51.153Z</time></trkpt><trkpt lat="44.7883267" lon="7.9039117"><ele>362.8</ele><time>2026-05-01T11:52:53.155Z</time></trkpt><trkpt lat="44.7881967" lon="7.9039033"><ele>359.20000000000005</ele><time>2026-05-01T11:52:55.153Z</time></trkpt><trkpt lat="44.788105" lon="7.9038933"><ele>355.6</ele><time>2026-05-01T11:52:56.152Z</time></trkpt><trkpt lat="44.7880017" lon="7.903865"><ele>352.0</ele><time>2026-05-01T11:52:57.151Z</time></trkpt><trkpt lat="44.78789" lon="7.9038233"><ele>352.0</ele><time>2026-05-01T11:52:58.152Z</time></trkpt><trkpt lat="44.7877817" lon="7.9037767"><ele>352.0</ele><time>2026-05-01T11:52:59.154Z</time></trkpt><trkpt lat="44.7876733" lon="7.9037417"><ele>352.0</ele><time>2026-05-01T11:53:00.153Z</time></trkpt><trkpt lat="44.7875717" lon="7.9037067"><ele>352.0</ele><time>2026-05-01T11:53:01.154Z</time></trkpt><trkpt lat="44.7874833" lon="7.9036683"><ele>352.0</ele><time>2026-05-01T11:53:02.15Z</time></trkpt><trkpt lat="44.787405" lon="7.90363"><ele>351.5</ele><time>2026-05-01T11:53:03.154Z</time></trkpt><trkpt lat="44.7873417" lon="7.9035783"><ele>351.0</ele><time>2026-05-01T11:53:04.15Z</time></trkpt><trkpt lat="44.7873283" lon="7.9034867"><ele>350.5</ele><time>2026-05-01T11:53:05.16Z</time></trkpt><trkpt lat="44.7873333" lon="7.9032983"><ele>350.0</ele><time>2026-05-01T11:53:07.152Z</time></trkpt><trkpt lat="44.78732" lon="7.9031967"><ele>349.5</ele><time>2026-05-01T11:53:08.151Z</time></trkpt><trkpt lat="44.787295" lon="7.9031017"><ele>349.0</ele><time>2026-05-01T11:53:09.151Z</time></trkpt><trkpt lat="44.7872517" lon="7.903015"><ele>346.6</ele><time>2026-05-01T11:53:10.153Z</time></trkpt><trkpt lat="44.7871683" lon="7.9029567"><ele>344.2</ele><time>2026-05-01T11:53:11.154Z</time></trkpt><trkpt lat="44.787085" lon="7.9029"><ele>341.8</ele><time>2026-05-01T11:53:12.152Z</time></trkpt><trkpt lat="44.7869783" lon="7.9028633"><ele>339.40000000000003</ele><time>2026-05-01T11:53:13.155Z</time></trkpt><trkpt lat="44.78686" lon="7.90283"><ele>337.0</ele><time>2026-05-01T11:53:14.156Z</time></trkpt><trkpt lat="44.7867333" lon="7.9027967"><ele>336.0</ele><time>2026-05-01T11:53:15.155Z</time></trkpt><trkpt lat="44.7866033" lon="7.9027617"><ele>335.0</ele><time>2026-05-01T11:53:16.157Z</time></trkpt><trkpt lat="44.7864683" lon="7.9027217"><ele>334.0</ele><time>2026-05-01T11:53:17.153Z</time></trkpt><trkpt lat="44.7863333" lon="7.9026767"><ele>333.0</ele><time>2026-05-01T11:53:18.156Z</time></trkpt><trkpt lat="44.7862033" lon="7.9026317"><ele>333.0</ele><time>2026-05-01T11:53:19.157Z</time></trkpt><trkpt lat="44.78609" lon="7.9025883"><ele>333.0</ele><time>2026-05-01T11:53:20.156Z</time></trkpt><trkpt lat="44.785995" lon="7.9025517"><ele>333.0</ele><time>2026-05-01T11:53:21.156Z</time></trkpt><trkpt lat="44.7859267" lon="7.90252"><ele>333.0</ele><time>2026-05-01T11:53:22.153Z</time></trkpt><trkpt lat="44.7858533" lon="7.9024933"><ele>333.0</ele><time>2026-05-01T11:53:24.153Z</time></trkpt><trkpt lat="44.7857917" lon="7.9025883"><ele>332.2</ele><time>2026-05-01T11:53:32.156Z</time></trkpt><trkpt lat="44.785775" lon="7.902685"><ele>331.4</ele><time>2026-05-01T11:53:33.153Z</time></trkpt><trkpt lat="44.7857617" lon="7.9028133"><ele>330.59999999999997</ele><time>2026-05-01T11:53:34.153Z</time></trkpt><trkpt lat="44.7857433" lon="7.9029617"><ele>329.79999999999995</ele><time>2026-05-01T11:53:35.153Z</time></trkpt><trkpt lat="44.7857233" lon="7.9031183"><ele>329.0</ele><time>2026-05-01T11:53:36.152Z</time></trkpt><trkpt lat="44.7857" lon="7.9032967"><ele>329.25</ele><time>2026-05-01T11:53:37.155Z</time></trkpt><trkpt lat="44.785675" lon="7.9034833"><ele>329.5</ele><time>2026-05-01T11:53:38.153Z</time></trkpt><trkpt lat="44.7856467" lon="7.90367"><ele>329.75</ele><time>2026-05-01T11:53:39.155Z</time></trkpt><trkpt lat="44.7856183" lon="7.9038717"><ele>330.0</ele><time>2026-05-01T11:53:40.153Z</time></trkpt><trkpt lat="44.78559" lon="7.9040833"><ele>330.5</ele><time>2026-05-01T11:53:41.153Z</time></trkpt><trkpt lat="44.78556" lon="7.9042933"><ele>331.0</ele><time>2026-05-01T11:53:42.155Z</time></trkpt><trkpt lat="44.7855333" lon="7.904495"><ele>331.5</ele><time>2026-05-01T11:53:43.153Z</time></trkpt><trkpt lat="44.7855083" lon="7.9046883"><ele>332.0</ele><time>2026-05-01T11:53:44.154Z</time></trkpt><trkpt lat="44.7854833" lon="7.9048633"><ele>332.0</ele><time>2026-05-01T11:53:45.154Z</time></trkpt><trkpt lat="44.7854583" lon="7.9050283"><ele>332.0</ele><time>2026-05-01T11:53:46.152Z</time></trkpt><trkpt lat="44.785435" lon="7.9051883"><ele>332.0</ele><time>2026-05-01T11:53:47.154Z</time></trkpt><trkpt lat="44.78541" lon="7.9053467"><ele>332.0</ele><time>2026-05-01T11:53:48.154Z</time></trkpt><trkpt lat="44.785385" lon="7.9055017"><ele>333.25</ele><time>2026-05-01T11:53:49.15Z</time></trkpt><trkpt lat="44.78536" lon="7.9056617"><ele>334.5</ele><time>2026-05-01T11:53:50.153Z</time></trkpt><trkpt lat="44.785335" lon="7.9058283"><ele>335.75</ele><time>2026-05-01T11:53:51.15Z</time></trkpt><trkpt lat="44.7853117" lon="7.9059983"><ele>337.0</ele><time>2026-05-01T11:53:52.15Z</time></trkpt><trkpt lat="44.7852867" lon="7.9061767"><ele>339.0</ele><time>2026-05-01T11:53:53.154Z</time></trkpt><trkpt lat="44.7852583" lon="7.90636"><ele>341.0</ele><time>2026-05-01T11:53:54.152Z</time></trkpt><trkpt lat="44.78523" lon="7.9065467"><ele>343.0</ele><time>2026-05-01T11:53:55.156Z</time></trkpt><trkpt lat="44.785205" lon="7.9067333"><ele>345.0</ele><time>2026-05-01T11:53:56.158Z</time></trkpt><trkpt lat="44.78518" lon="7.9069217"><ele>343.5</ele><time>2026-05-01T11:53:57.154Z</time></trkpt><trkpt lat="44.785155" lon="7.9071083"><ele>342.0</ele><time>2026-05-01T11:53:58.157Z</time></trkpt><trkpt lat="44.78513" lon="7.9072917"><ele>340.5</ele><time>2026-05-01T11:53:59.154Z</time></trkpt><trkpt lat="44.7851067" lon="7.9074717"><ele>339.0</ele><time>2026-05-01T11:54:00.153Z</time></trkpt><trkpt lat="44.7850817" lon="7.9076483"><ele>339.0</ele><time>2026-05-01T11:54:01.156Z</time></trkpt><trkpt lat="44.785055" lon="7.9078217"><ele>339.0</ele><time>2026-05-01T11:54:02.151Z</time></trkpt><trkpt lat="44.7850333" lon="7.9079917"><ele>339.0</ele><time>2026-05-01T11:54:03.155Z</time></trkpt><trkpt lat="44.785015" lon="7.9081533"><ele>339.0</ele><time>2026-05-01T11:54:04.162Z</time></trkpt><trkpt lat="44.7849917" lon="7.9083133"><ele>339.0</ele><time>2026-05-01T11:54:05.155Z</time></trkpt><trkpt lat="44.7849633" lon="7.9084733"><ele>339.0</ele><time>2026-05-01T11:54:06.152Z</time></trkpt><trkpt lat="44.78493" lon="7.9086417"><ele>339.0</ele><time>2026-05-01T11:54:07.158Z</time></trkpt><trkpt lat="44.7849" lon="7.9088267"><ele>339.0</ele><time>2026-05-01T11:54:08.156Z</time></trkpt><trkpt lat="44.784875" lon="7.909025"><ele>340.0</ele><time>2026-05-01T11:54:09.154Z</time></trkpt><trkpt lat="44.7848483" lon="7.9092483"><ele>341.0</ele><time>2026-05-01T11:54:10.15Z</time></trkpt><trkpt lat="44.7848117" lon="7.9094883"><ele>342.0</ele><time>2026-05-01T11:54:11.153Z</time></trkpt><trkpt lat="44.7847783" lon="7.90975"><ele>342.0</ele><time>2026-05-01T11:54:12.154Z</time></trkpt><trkpt lat="44.7847383" lon="7.9100233"><ele>342.0</ele><time>2026-05-01T11:54:13.161Z</time></trkpt><trkpt lat="44.7846933" lon="7.9102967"><ele>342.0</ele><time>2026-05-01T11:54:14.153Z</time></trkpt><trkpt lat="44.7846517" lon="7.9105667"><ele>342.0</ele><time>2026-05-01T11:54:15.16Z</time></trkpt><trkpt lat="44.7846067" lon="7.9108483"><ele>342.0</ele><time>2026-05-01T11:54:16.152Z</time></trkpt><trkpt lat="44.784565" lon="7.9111367"><ele>342.0</ele><time>2026-05-01T11:54:17.153Z</time></trkpt><trkpt lat="44.7845233" lon="7.9114233"><ele>343.0</ele><time>2026-05-01T11:54:18.158Z</time></trkpt><trkpt lat="44.78448" lon="7.9117083"><ele>344.0</ele><time>2026-05-01T11:54:19.157Z</time></trkpt><trkpt lat="44.7844367" lon="7.9119917"><ele>345.0</ele><time>2026-05-01T11:54:20.157Z</time></trkpt><trkpt lat="44.784395" lon="7.9122733"><ele>345.3333333333333</ele><time>2026-05-01T11:54:21.152Z</time></trkpt><trkpt lat="44.7843567" lon="7.9125617"><ele>345.66666666666663</ele><time>2026-05-01T11:54:22.153Z</time></trkpt><trkpt lat="44.7843217" lon="7.91286"><ele>346.0</ele><time>2026-05-01T11:54:23.153Z</time></trkpt><trkpt lat="44.7842833" lon="7.9131733"><ele>345.5</ele><time>2026-05-01T11:54:24.153Z</time></trkpt><trkpt lat="44.78424" lon="7.9134917"><ele>345.0</ele><time>2026-05-01T11:54:25.158Z</time></trkpt><trkpt lat="44.7841883" lon="7.9138233"><ele>345.0</ele><time>2026-05-01T11:54:26.152Z</time></trkpt><trkpt lat="44.7841333" lon="7.9141567"><ele>345.0</ele><time>2026-05-01T11:54:27.156Z</time></trkpt><trkpt lat="44.7840767" lon="7.9144683"><ele>347.0</ele><time>2026-05-01T11:54:28.153Z</time></trkpt><trkpt lat="44.78402" lon="7.9147583"><ele>349.0</ele><time>2026-05-01T11:54:29.152Z</time></trkpt><trkpt lat="44.7839533" lon="7.9150283"><ele>351.0</ele><time>2026-05-01T11:54:30.153Z</time></trkpt><trkpt lat="44.7838733" lon="7.9152733"><ele>353.0</ele><time>2026-05-01T11:54:31.154Z</time></trkpt><trkpt lat="44.7837883" lon="7.915495"><ele>355.0</ele><time>2026-05-01T11:54:32.155Z</time></trkpt><trkpt lat="44.7837017" lon="7.9157083"><ele>357.0</ele><time>2026-05-01T11:54:33.15Z</time></trkpt><trkpt lat="44.7836167" lon="7.915925"><ele>359.3333333333333</ele><time>2026-05-01T11:54:34.153Z</time></trkpt><trkpt lat="44.7835233" lon="7.916145"><ele>361.66666666666663</ele><time>2026-05-01T11:54:35.157Z</time></trkpt><trkpt lat="44.7834317" lon="7.9163683"><ele>364.0</ele><time>2026-05-01T11:54:36.156Z</time></trkpt><trkpt lat="44.78334" lon="7.916595"><ele>359.0</ele><time>2026-05-01T11:54:37.151Z</time></trkpt><trkpt lat="44.783245" lon="7.9168167"><ele>354.0</ele><time>2026-05-01T11:54:38.152Z</time></trkpt><trkpt lat="44.78315" lon="7.9170383"><ele>349.0</ele><time>2026-05-01T11:54:39.153Z</time></trkpt><trkpt lat="44.7830533" lon="7.917265"><ele>349.0</ele><time>2026-05-01T11:54:40.155Z</time></trkpt><trkpt lat="44.7829567" lon="7.9174967"><ele>349.0</ele><time>2026-05-01T11:54:41.152Z</time></trkpt><trkpt lat="44.78286" lon="7.9177267"><ele>349.0</ele><time>2026-05-01T11:54:42.156Z</time></trkpt><trkpt lat="44.782765" lon="7.91796"><ele>349.66666666666663</ele><time>2026-05-01T11:54:43.156Z</time></trkpt><trkpt lat="44.7826733" lon="7.91819"><ele>350.3333333333333</ele><time>2026-05-01T11:54:44.155Z</time></trkpt><trkpt lat="44.78258" lon="7.91842"><ele>351.0</ele><time>2026-05-01T11:54:45.156Z</time></trkpt><trkpt lat="44.7824817" lon="7.9186517"><ele>351.3333333333333</ele><time>2026-05-01T11:54:46.156Z</time></trkpt><trkpt lat="44.7823817" lon="7.91888"><ele>351.66666666666663</ele><time>2026-05-01T11:54:47.151Z</time></trkpt><trkpt lat="44.7822817" lon="7.9191117"><ele>352.0</ele><time>2026-05-01T11:54:48.155Z</time></trkpt><trkpt lat="44.7821817" lon="7.9193433"><ele>355.3333333333333</ele><time>2026-05-01T11:54:49.157Z</time></trkpt><trkpt lat="44.7820817" lon="7.9195733"><ele>358.6666666666667</ele><time>2026-05-01T11:54:50.153Z</time></trkpt><trkpt lat="44.7819783" lon="7.9198083"><ele>362.0</ele><time>2026-05-01T11:54:51.153Z</time></trkpt><trkpt lat="44.7818733" lon="7.9200383"><ele>361.33333333333337</ele><time>2026-05-01T11:54:52.154Z</time></trkpt><trkpt lat="44.7817767" lon="7.920265"><ele>360.6666666666667</ele><time>2026-05-01T11:54:53.157Z</time></trkpt><trkpt lat="44.7816817" lon="7.92049"><ele>360.0</ele><time>2026-05-01T11:54:54.155Z</time></trkpt><trkpt lat="44.781585" lon="7.9207133"><ele>362.3333333333333</ele><time>2026-05-01T11:54:55.158Z</time></trkpt><trkpt lat="44.7815" lon="7.920925"><ele>364.66666666666663</ele><time>2026-05-01T11:54:56.158Z</time></trkpt><trkpt lat="44.7814383" lon="7.92114"><ele>367.0</ele><time>2026-05-01T11:54:57.153Z</time></trkpt><trkpt lat="44.7814" lon="7.9213633"><ele>367.0</ele><time>2026-05-01T11:54:58.152Z</time></trkpt><trkpt lat="44.78138" lon="7.9216017"><ele>367.0</ele><time>2026-05-01T11:54:59.157Z</time></trkpt><trkpt lat="44.7813583" lon="7.921845"><ele>367.0</ele><time>2026-05-01T11:55:00.152Z</time></trkpt><trkpt lat="44.78134" lon="7.9221033"><ele>367.3333333333333</ele><time>2026-05-01T11:55:01.157Z</time></trkpt><trkpt lat="44.7813233" lon="7.9223717"><ele>367.6666666666667</ele><time>2026-05-01T11:55:02.162Z</time></trkpt><trkpt lat="44.781305" lon="7.9226383"><ele>368.0</ele><time>2026-05-01T11:55:03.154Z</time></trkpt><trkpt lat="44.781285" lon="7.9229167"><ele>369.33333333333337</ele><time>2026-05-01T11:55:04.161Z</time></trkpt><trkpt lat="44.78127" lon="7.9231967"><ele>370.6666666666667</ele><time>2026-05-01T11:55:05.156Z</time></trkpt><trkpt lat="44.7812567" lon="7.92348"><ele>372.0</ele><time>2026-05-01T11:55:06.158Z</time></trkpt><trkpt lat="44.78124" lon="7.92376"><ele>375.0</ele><time>2026-05-01T11:55:07.155Z</time></trkpt><trkpt lat="44.7812217" lon="7.9240317"><ele>378.0</ele><time>2026-05-01T11:55:08.152Z</time></trkpt><trkpt lat="44.7812" lon="7.924295"><ele>381.0</ele><time>2026-05-01T11:55:09.156Z</time></trkpt><trkpt lat="44.7811833" lon="7.92454"><ele>383.0</ele><time>2026-05-01T11:55:10.155Z</time></trkpt><trkpt lat="44.7811767" lon="7.9247733"><ele>385.0</ele><time>2026-05-01T11:55:11.154Z</time></trkpt><trkpt lat="44.7811617" lon="7.9249933"><ele>387.0</ele><time>2026-05-01T11:55:12.154Z</time></trkpt><trkpt lat="44.7811317" lon="7.9251917"><ele>387.0</ele><time>2026-05-01T11:55:13.156Z</time></trkpt><trkpt lat="44.7811083" lon="7.9253733"><ele>387.0</ele><time>2026-05-01T11:55:14.157Z</time></trkpt><trkpt lat="44.781045" lon="7.9255417"><ele>387.0</ele><time>2026-05-01T11:55:15.151Z</time></trkpt><trkpt lat="44.7809783" lon="7.92571"><ele>387.0</ele><time>2026-05-01T11:55:16.155Z</time></trkpt><trkpt lat="44.7808617" lon="7.92586"><ele>380.3333333333333</ele><time>2026-05-01T11:55:17.153Z</time></trkpt><trkpt lat="44.780705" lon="7.9260017"><ele>373.66666666666663</ele><time>2026-05-01T11:55:18.155Z</time></trkpt><trkpt lat="44.7806483" lon="7.9261883"><ele>367.0</ele><time>2026-05-01T11:55:19.153Z</time></trkpt><trkpt lat="44.7805717" lon="7.926355"><ele>367.0</ele><time>2026-05-01T11:55:20.149Z</time></trkpt><trkpt lat="44.7805067" lon="7.9265433"><ele>367.0</ele><time>2026-05-01T11:55:21.153Z</time></trkpt><trkpt lat="44.7804567" lon="7.9267467"><ele>367.0</ele><time>2026-05-01T11:55:22.151Z</time></trkpt><trkpt lat="44.7804" lon="7.92696"><ele>362.0</ele><time>2026-05-01T11:55:23.152Z</time></trkpt><trkpt lat="44.7803717" lon="7.9271717"><ele>357.0</ele><time>2026-05-01T11:55:24.152Z</time></trkpt><trkpt lat="44.78037" lon="7.9273883"><ele>352.0</ele><time>2026-05-01T11:55:25.161Z</time></trkpt><trkpt lat="44.7803967" lon="7.9276017"><ele>350.3333333333333</ele><time>2026-05-01T11:55:26.158Z</time></trkpt><trkpt lat="44.780445" lon="7.927805"><ele>348.6666666666667</ele><time>2026-05-01T11:55:27.152Z</time></trkpt><trkpt lat="44.7805067" lon="7.9279983"><ele>347.0</ele><time>2026-05-01T11:55:28.154Z</time></trkpt><trkpt lat="44.780575" lon="7.9281883"><ele>347.0</ele><time>2026-05-01T11:55:29.155Z</time></trkpt><trkpt lat="44.7806433" lon="7.9283767"><ele>347.0</ele><time>2026-05-01T11:55:30.153Z</time></trkpt><trkpt lat="44.7807" lon="7.92858"><ele>347.0</ele><time>2026-05-01T11:55:31.156Z</time></trkpt><trkpt lat="44.7807483" lon="7.92878"><ele>349.0</ele><time>2026-05-01T11:55:32.153Z</time></trkpt><trkpt lat="44.7807817" lon="7.9289683"><ele>351.0</ele><time>2026-05-01T11:55:33.154Z</time></trkpt><trkpt lat="44.7808133" lon="7.9291417"><ele>353.0</ele><time>2026-05-01T11:55:34.155Z</time></trkpt><trkpt lat="44.780825" lon="7.92931"><ele>355.0</ele><time>2026-05-01T11:55:35.154Z</time></trkpt><trkpt lat="44.780825" lon="7.929465"><ele>355.5</ele><time>2026-05-01T11:55:36.156Z</time></trkpt><trkpt lat="44.7808183" lon="7.9296017"><ele>356.0</ele><time>2026-05-01T11:55:37.153Z</time></trkpt><trkpt lat="44.7808217" lon="7.9297267"><ele>356.5</ele><time>2026-05-01T11:55:38.156Z</time></trkpt><trkpt lat="44.7808167" lon="7.9298467"><ele>357.0</ele><time>2026-05-01T11:55:39.154Z</time></trkpt><trkpt lat="44.7808217" lon="7.929965"><ele>357.5</ele><time>2026-05-01T11:55:40.153Z</time></trkpt><trkpt lat="44.7808167" lon="7.9300817"><ele>358.0</ele><time>2026-05-01T11:55:41.153Z</time></trkpt><trkpt lat="44.7808233" lon="7.9301817"><ele>358.2</ele><time>2026-05-01T11:55:42.153Z</time></trkpt><trkpt lat="44.780835" lon="7.930275"><ele>358.4</ele><time>2026-05-01T11:55:43.151Z</time></trkpt><trkpt lat="44.7808567" lon="7.9303633"><ele>358.59999999999997</ele><time>2026-05-01T11:55:44.156Z</time></trkpt><trkpt lat="44.7808683" lon="7.9305183"><ele>358.79999999999995</ele><time>2026-05-01T11:55:46.151Z</time></trkpt><trkpt lat="44.7808483" lon="7.9306583"><ele>359.0</ele><time>2026-05-01T11:55:48.156Z</time></trkpt><trkpt lat="44.7808233" lon="7.9308017"><ele>359.2</ele><time>2026-05-01T11:55:50.154Z</time></trkpt><trkpt lat="44.7808233" lon="7.93095"><ele>359.4</ele><time>2026-05-01T11:55:52.154Z</time></trkpt><trkpt lat="44.78081" lon="7.9311017"><ele>359.6</ele><time>2026-05-01T11:55:54.151Z</time></trkpt><trkpt lat="44.7808" lon="7.9312633"><ele>359.8</ele><time>2026-05-01T11:55:56.152Z</time></trkpt><trkpt lat="44.780805" lon="7.9314317"><ele>360.0</ele><time>2026-05-01T11:55:58.152Z</time></trkpt><trkpt lat="44.7808233" lon="7.931605"><ele>360.0</ele><time>2026-05-01T11:56:00.155Z</time></trkpt><trkpt lat="44.7808383" lon="7.9316917"><ele>360.0</ele><time>2026-05-01T11:56:01.154Z</time></trkpt><trkpt lat="44.780865" lon="7.9318667"><ele>360.0</ele><time>2026-05-01T11:56:03.153Z</time></trkpt><trkpt lat="44.7808817" lon="7.9319533"><ele>360.0</ele><time>2026-05-01T11:56:04.156Z</time></trkpt><trkpt lat="44.78092" lon="7.9321217"><ele>360.0</ele><time>2026-05-01T11:56:06.156Z</time></trkpt><trkpt lat="44.7809383" lon="7.9322067"><ele>360.0</ele><time>2026-05-01T11:56:07.153Z</time></trkpt><trkpt lat="44.7809817" lon="7.9323733"><ele>359.8333333333333</ele><time>2026-05-01T11:56:09.16Z</time></trkpt><trkpt lat="44.7809967" lon="7.93246"><ele>359.6666666666667</ele><time>2026-05-01T11:56:10.151Z</time></trkpt><trkpt lat="44.78101" lon="7.932635"><ele>359.5</ele><time>2026-05-01T11:56:12.157Z</time></trkpt><trkpt lat="44.7810033" lon="7.9327283"><ele>359.33333333333337</ele><time>2026-05-01T11:56:13.155Z</time></trkpt><trkpt lat="44.7809967" lon="7.9328233"><ele>359.1666666666667</ele><time>2026-05-01T11:56:14.154Z</time></trkpt><trkpt lat="44.7809833" lon="7.932915"><ele>359.0</ele><time>2026-05-01T11:56:15.155Z</time></trkpt><trkpt lat="44.7809633" lon="7.9330017"><ele>359.5</ele><time>2026-05-01T11:56:16.155Z</time></trkpt><trkpt lat="44.7809283" lon="7.93315"><ele>360.0</ele><time>2026-05-01T11:56:18.156Z</time></trkpt><trkpt lat="44.780895" lon="7.93327"><ele>360.5</ele><time>2026-05-01T11:56:20.152Z</time></trkpt><trkpt lat="44.7808467" lon="7.9333367"><ele>361.0</ele><time>2026-05-01T11:56:22.151Z</time></trkpt><trkpt lat="44.7807883" lon="7.933405"><ele>361.5</ele><time>2026-05-01T11:56:24.154Z</time></trkpt><trkpt lat="44.7807717" lon="7.9335333"><ele>362.0</ele><time>2026-05-01T11:56:26.16Z</time></trkpt><trkpt lat="44.7807717" lon="7.9336867"><ele>362.1666666666667</ele><time>2026-05-01T11:56:28.156Z</time></trkpt><trkpt lat="44.7807817" lon="7.9338617"><ele>362.33333333333337</ele><time>2026-05-01T11:56:30.152Z</time></trkpt><trkpt lat="44.7807933" lon="7.9339517"><ele>362.5</ele><time>2026-05-01T11:56:31.154Z</time></trkpt><trkpt lat="44.7807933" lon="7.9340433"><ele>362.6666666666667</ele><time>2026-05-01T11:56:32.153Z</time></trkpt><trkpt lat="44.7807833" lon="7.93414"><ele>362.8333333333333</ele><time>2026-05-01T11:56:33.155Z</time></trkpt><trkpt lat="44.7807533" lon="7.934235"><ele>363.0</ele><time>2026-05-01T11:56:34.151Z</time></trkpt><trkpt lat="44.7807517" lon="7.9343333"><ele>361.1666666666667</ele><time>2026-05-01T11:56:35.156Z</time></trkpt><trkpt lat="44.7807433" lon="7.93443"><ele>359.3333333333333</ele><time>2026-05-01T11:56:36.152Z</time></trkpt><trkpt lat="44.7807317" lon="7.93453"><ele>357.5</ele><time>2026-05-01T11:56:37.154Z</time></trkpt><trkpt lat="44.78072" lon="7.9346267"><ele>355.66666666666663</ele><time>2026-05-01T11:56:38.153Z</time></trkpt><trkpt lat="44.78071" lon="7.934715"><ele>353.8333333333333</ele><time>2026-05-01T11:56:39.152Z</time></trkpt><trkpt lat="44.7806917" lon="7.9348033"><ele>352.0</ele><time>2026-05-01T11:56:40.151Z</time></trkpt><trkpt lat="44.7806783" lon="7.9349667"><ele>345.75</ele><time>2026-05-01T11:56:42.153Z</time></trkpt><trkpt lat="44.7806917" lon="7.9351233"><ele>339.5</ele><time>2026-05-01T11:56:44.154Z</time></trkpt><trkpt lat="44.7807433" lon="7.93526"><ele>333.25</ele><time>2026-05-01T11:56:46.153Z</time></trkpt><trkpt lat="44.780845" lon="7.9353517"><ele>327.0</ele><time>2026-05-01T11:56:48.153Z</time></trkpt><trkpt lat="44.780965" lon="7.9353367"><ele>324.3333333333333</ele><time>2026-05-01T11:56:50.15Z</time></trkpt><trkpt lat="44.7810383" lon="7.9352833"><ele>321.6666666666667</ele><time>2026-05-01T11:56:51.154Z</time></trkpt><trkpt lat="44.781105" lon="7.9352383"><ele>319.0</ele><time>2026-05-01T11:56:52.156Z</time></trkpt><trkpt lat="44.7811667" lon="7.935205"><ele>316.33333333333337</ele><time>2026-05-01T11:56:53.155Z</time></trkpt><trkpt lat="44.7812217" lon="7.9351617"><ele>313.6666666666667</ele><time>2026-05-01T11:56:54.152Z</time></trkpt><trkpt lat="44.781315" lon="7.9350983"><ele>311.0</ele><time>2026-05-01T11:56:56.154Z</time></trkpt><trkpt lat="44.781405" lon="7.9350383"><ele>311.0</ele><time>2026-05-01T11:56:58.154Z</time></trkpt><trkpt lat="44.7814917" lon="7.9350283"><ele>311.0</ele><time>2026-05-01T11:57:00.155Z</time></trkpt><trkpt lat="44.7815517" lon="7.935085"><ele>311.0</ele><time>2026-05-01T11:57:03.154Z</time></trkpt><trkpt lat="44.781465" lon="7.9350733"><ele>311.0</ele><time>2026-05-01T11:58:04.156Z</time></trkpt><trkpt lat="44.781355" lon="7.9351217"><ele>311.0</ele><time>2026-05-01T11:58:06.158Z</time></trkpt><trkpt lat="44.7812817" lon="7.9351417"><ele>311.0</ele><time>2026-05-01T11:58:07.156Z</time></trkpt><trkpt lat="44.7812017" lon="7.9351683"><ele>311.0</ele><time>2026-05-01T11:58:08.156Z</time></trkpt><trkpt lat="44.781125" lon="7.9352217"><ele>311.0</ele><time>2026-05-01T11:58:09.151Z</time></trkpt><trkpt lat="44.7810483" lon="7.935295"><ele>311.0</ele><time>2026-05-01T11:58:10.154Z</time></trkpt><trkpt lat="44.7809733" lon="7.9353867"><ele>311.0</ele><time>2026-05-01T11:58:11.153Z</time></trkpt><trkpt lat="44.7808967" lon="7.9354783"><ele>311.0</ele><time>2026-05-01T11:58:12.154Z</time></trkpt><trkpt lat="44.7808167" lon="7.9355683"><ele>313.0</ele><time>2026-05-01T11:58:13.156Z</time></trkpt><trkpt lat="44.7807333" lon="7.9356517"><ele>315.0</ele><time>2026-05-01T11:58:14.154Z</time></trkpt><trkpt lat="44.780645" lon="7.9357317"><ele>317.0</ele><time>2026-05-01T11:58:15.153Z</time></trkpt><trkpt lat="44.7805567" lon="7.935815"><ele>319.0</ele><time>2026-05-01T11:58:16.164Z</time></trkpt><trkpt lat="44.7804733" lon="7.9359133"><ele>321.0</ele><time>2026-05-01T11:58:17.154Z</time></trkpt><trkpt lat="44.7804067" lon="7.9360333"><ele>321.0</ele><time>2026-05-01T11:58:18.154Z</time></trkpt><trkpt lat="44.78035" lon="7.93617"><ele>321.0</ele><time>2026-05-01T11:58:19.153Z</time></trkpt><trkpt lat="44.78029" lon="7.9363017"><ele>321.0</ele><time>2026-05-01T11:58:20.153Z</time></trkpt><trkpt lat="44.7802333" lon="7.936435"><ele>321.0</ele><time>2026-05-01T11:58:21.154Z</time></trkpt><trkpt lat="44.7801767" lon="7.9365717"><ele>321.0</ele><time>2026-05-01T11:58:22.158Z</time></trkpt><trkpt lat="44.7801133" lon="7.9367033"><ele>324.25</ele><time>2026-05-01T11:58:23.152Z</time></trkpt><trkpt lat="44.7800367" lon="7.9368283"><ele>327.5</ele><time>2026-05-01T11:58:24.157Z</time></trkpt><trkpt lat="44.7799517" lon="7.9369433"><ele>330.75</ele><time>2026-05-01T11:58:25.155Z</time></trkpt><trkpt lat="44.7798583" lon="7.9370583"><ele>334.0</ele><time>2026-05-01T11:58:26.159Z</time></trkpt><trkpt lat="44.7797633" lon="7.9371767"><ele>334.0</ele><time>2026-05-01T11:58:27.152Z</time></trkpt><trkpt lat="44.7796783" lon="7.9373133"><ele>334.0</ele><time>2026-05-01T11:58:28.154Z</time></trkpt><trkpt lat="44.7795933" lon="7.93746"><ele>334.0</ele><time>2026-05-01T11:58:29.156Z</time></trkpt><trkpt lat="44.7795233" lon="7.9376233"><ele>334.0</ele><time>2026-05-01T11:58:30.154Z</time></trkpt><trkpt lat="44.7794667" lon="7.9378017"><ele>336.25</ele><time>2026-05-01T11:58:31.152Z</time></trkpt><trkpt lat="44.7794117" lon="7.9379867"><ele>338.5</ele><time>2026-05-01T11:58:32.156Z</time></trkpt><trkpt lat="44.7793467" lon="7.9381717"><ele>340.75</ele><time>2026-05-01T11:58:33.157Z</time></trkpt><trkpt lat="44.779265" lon="7.938345"><ele>343.0</ele><time>2026-05-01T11:58:34.154Z</time></trkpt><trkpt lat="44.779165" lon="7.9385067"><ele>334.66666666666663</ele><time>2026-05-01T11:58:35.16Z</time></trkpt><trkpt lat="44.7790517" lon="7.9386567"><ele>326.3333333333333</ele><time>2026-05-01T11:58:36.153Z</time></trkpt><trkpt lat="44.7789383" lon="7.9388067"><ele>318.0</ele><time>2026-05-01T11:58:37.153Z</time></trkpt><trkpt lat="44.7788267" lon="7.9389567"><ele>318.0</ele><time>2026-05-01T11:58:38.152Z</time></trkpt><trkpt lat="44.7787183" lon="7.9391033"><ele>318.0</ele><time>2026-05-01T11:58:39.151Z</time></trkpt><trkpt lat="44.77862" lon="7.9392433"><ele>318.0</ele><time>2026-05-01T11:58:40.154Z</time></trkpt><trkpt lat="44.7785183" lon="7.9393633"><ele>318.0</ele><time>2026-05-01T11:58:41.154Z</time></trkpt><trkpt lat="44.7784033" lon="7.9394533"><ele>313.8</ele><time>2026-05-01T11:58:42.152Z</time></trkpt><trkpt lat="44.7782867" lon="7.939505"><ele>309.6</ele><time>2026-05-01T11:58:43.155Z</time></trkpt><trkpt lat="44.778165" lon="7.9395217"><ele>305.4</ele><time>2026-05-01T11:58:44.156Z</time></trkpt><trkpt lat="44.7780567" lon="7.9395183"><ele>301.2</ele><time>2026-05-01T11:58:45.155Z</time></trkpt><trkpt lat="44.7779633" lon="7.9395083"><ele>297.0</ele><time>2026-05-01T11:58:46.155Z</time></trkpt><trkpt lat="44.777885" lon="7.939515"><ele>297.0</ele><time>2026-05-01T11:58:47.155Z</time></trkpt><trkpt lat="44.77781" lon="7.939645"><ele>297.0</ele><time>2026-05-01T11:58:49.155Z</time></trkpt><trkpt lat="44.777845" lon="7.9397367"><ele>297.0</ele><time>2026-05-01T11:58:50.16Z</time></trkpt><trkpt lat="44.7779117" lon="7.9398117"><ele>297.0</ele><time>2026-05-01T11:58:51.155Z</time></trkpt><trkpt lat="44.77798" lon="7.9398733"><ele>297.0</ele><time>2026-05-01T11:58:52.154Z</time></trkpt><trkpt lat="44.778075" lon="7.93993"><ele>297.0</ele><time>2026-05-01T11:58:53.155Z</time></trkpt><trkpt lat="44.7781733" lon="7.9400033"><ele>297.0</ele><time>2026-05-01T11:58:54.153Z</time></trkpt><trkpt lat="44.7782633" lon="7.9401067"><ele>297.0</ele><time>2026-05-01T11:58:55.157Z</time></trkpt><trkpt lat="44.7783283" lon="7.9402317"><ele>297.0</ele><time>2026-05-01T11:58:56.153Z</time></trkpt><trkpt lat="44.778375" lon="7.9403767"><ele>295.2</ele><time>2026-05-01T11:58:57.153Z</time></trkpt><trkpt lat="44.7783917" lon="7.94053"><ele>293.4</ele><time>2026-05-01T11:58:58.153Z</time></trkpt><trkpt lat="44.7783817" lon="7.94068"><ele>291.6</ele><time>2026-05-01T11:58:59.156Z</time></trkpt><trkpt lat="44.7783517" lon="7.94083"><ele>289.8</ele><time>2026-05-01T11:59:00.16Z</time></trkpt><trkpt lat="44.7783117" lon="7.9409767"><ele>288.0</ele><time>2026-05-01T11:59:01.153Z</time></trkpt><trkpt lat="44.7782667" lon="7.9411283"><ele>286.5</ele><time>2026-05-01T11:59:02.157Z</time></trkpt><trkpt lat="44.7782333" lon="7.9412783"><ele>285.0</ele><time>2026-05-01T11:59:03.153Z</time></trkpt><trkpt lat="44.7782167" lon="7.94144"><ele>283.5</ele><time>2026-05-01T11:59:04.153Z</time></trkpt><trkpt lat="44.7782233" lon="7.9415967"><ele>282.0</ele><time>2026-05-01T11:59:05.157Z</time></trkpt><trkpt lat="44.778255" lon="7.941755"><ele>279.75</ele><time>2026-05-01T11:59:06.154Z</time></trkpt><trkpt lat="44.778305" lon="7.9419167"><ele>277.5</ele><time>2026-05-01T11:59:07.154Z</time></trkpt><trkpt lat="44.7783683" lon="7.9420817"><ele>275.25</ele><time>2026-05-01T11:59:08.155Z</time></trkpt><trkpt lat="44.7784367" lon="7.9422433"><ele>273.0</ele><time>2026-05-01T11:59:09.15Z</time></trkpt><trkpt lat="44.7785" lon="7.942405"><ele>272.25</ele><time>2026-05-01T11:59:10.156Z</time></trkpt><trkpt lat="44.7785533" lon="7.94257"><ele>271.5</ele><time>2026-05-01T11:59:11.157Z</time></trkpt><trkpt lat="44.7785717" lon="7.942745"><ele>270.75</ele><time>2026-05-01T11:59:12.159Z</time></trkpt><trkpt lat="44.778555" lon="7.9429167"><ele>270.0</ele><time>2026-05-01T11:59:13.16Z</time></trkpt><trkpt lat="44.77851" lon="7.9430867"><ele>270.0</ele><time>2026-05-01T11:59:14.153Z</time></trkpt><trkpt lat="44.7784583" lon="7.9432533"><ele>270.0</ele><time>2026-05-01T11:59:15.156Z</time></trkpt><trkpt lat="44.7784017" lon="7.943425"><ele>270.0</ele><time>2026-05-01T11:59:16.155Z</time></trkpt><trkpt lat="44.778345" lon="7.9436083"><ele>270.0</ele><time>2026-05-01T11:59:17.156Z</time></trkpt><trkpt lat="44.7782867" lon="7.9438"><ele>270.25</ele><time>2026-05-01T11:59:18.152Z</time></trkpt><trkpt lat="44.778225" lon="7.94399"><ele>270.5</ele><time>2026-05-01T11:59:19.155Z</time></trkpt><trkpt lat="44.7781617" lon="7.944175"><ele>270.75</ele><time>2026-05-01T11:59:20.154Z</time></trkpt><trkpt lat="44.7780933" lon="7.9443517"><ele>271.0</ele><time>2026-05-01T11:59:21.152Z</time></trkpt><trkpt lat="44.7780133" lon="7.9445133"><ele>270.25</ele><time>2026-05-01T11:59:22.156Z</time></trkpt><trkpt lat="44.777935" lon="7.9446733"><ele>269.5</ele><time>2026-05-01T11:59:23.158Z</time></trkpt><trkpt lat="44.7778683" lon="7.9448417"><ele>268.75</ele><time>2026-05-01T11:59:24.152Z</time></trkpt><trkpt lat="44.7778183" lon="7.94502"><ele>268.0</ele><time>2026-05-01T11:59:25.152Z</time></trkpt><trkpt lat="44.77777" lon="7.945215"><ele>264.66666666666663</ele><time>2026-05-01T11:59:26.158Z</time></trkpt><trkpt lat="44.7777233" lon="7.94542"><ele>261.3333333333333</ele><time>2026-05-01T11:59:27.154Z</time></trkpt><trkpt lat="44.7776733" lon="7.9456283"><ele>258.0</ele><time>2026-05-01T11:59:28.155Z</time></trkpt><trkpt lat="44.77762" lon="7.94584"><ele>256.3333333333333</ele><time>2026-05-01T11:59:29.156Z</time></trkpt><trkpt lat="44.7775533" lon="7.946045"><ele>254.66666666666666</ele><time>2026-05-01T11:59:30.154Z</time></trkpt><trkpt lat="44.7774717" lon="7.9462367"><ele>253.0</ele><time>2026-05-01T11:59:31.156Z</time></trkpt><trkpt lat="44.7773733" lon="7.946405"><ele>253.0</ele><time>2026-05-01T11:59:32.159Z</time></trkpt><trkpt lat="44.777265" lon="7.94655"><ele>253.0</ele><time>2026-05-01T11:59:33.159Z</time></trkpt><trkpt lat="44.7771383" lon="7.9466667"><ele>253.0</ele><time>2026-05-01T11:59:34.158Z</time></trkpt><trkpt lat="44.777" lon="7.946765"><ele>252.66666666666666</ele><time>2026-05-01T11:59:35.159Z</time></trkpt><trkpt lat="44.7768667" lon="7.946865"><ele>252.33333333333331</ele><time>2026-05-01T11:59:36.159Z</time></trkpt><trkpt lat="44.7767417" lon="7.9469817"><ele>252.0</ele><time>2026-05-01T11:59:37.158Z</time></trkpt><trkpt lat="44.7766283" lon="7.9471233"><ele>252.0</ele><time>2026-05-01T11:59:38.154Z</time></trkpt><trkpt lat="44.7765333" lon="7.9472933"><ele>252.0</ele><time>2026-05-01T11:59:39.156Z</time></trkpt><trkpt lat="44.77645" lon="7.9474767"><ele>252.0</ele><time>2026-05-01T11:59:40.152Z</time></trkpt><trkpt lat="44.77639" lon="7.94768"><ele>254.0</ele><time>2026-05-01T11:59:41.153Z</time></trkpt><trkpt lat="44.776345" lon="7.9478983"><ele>256.0</ele><time>2026-05-01T11:59:42.152Z</time></trkpt><trkpt lat="44.7763083" lon="7.948125"><ele>258.0</ele><time>2026-05-01T11:59:43.152Z</time></trkpt><trkpt lat="44.7762767" lon="7.9483533"><ele>257.0</ele><time>2026-05-01T11:59:44.152Z</time></trkpt><trkpt lat="44.77625" lon="7.94859"><ele>256.0</ele><time>2026-05-01T11:59:45.15Z</time></trkpt><trkpt lat="44.77622" lon="7.948835"><ele>255.0</ele><time>2026-05-01T11:59:46.155Z</time></trkpt><trkpt lat="44.7761883" lon="7.94908"><ele>254.33333333333331</ele><time>2026-05-01T11:59:47.154Z</time></trkpt><trkpt lat="44.7761567" lon="7.949325"><ele>253.66666666666666</ele><time>2026-05-01T11:59:48.152Z</time></trkpt><trkpt lat="44.7761233" lon="7.949575"><ele>253.0</ele><time>2026-05-01T11:59:49.156Z</time></trkpt><trkpt lat="44.7760867" lon="7.9498233"><ele>252.66666666666666</ele><time>2026-05-01T11:59:50.15Z</time></trkpt><trkpt lat="44.7760517" lon="7.95007"><ele>252.33333333333331</ele><time>2026-05-01T11:59:51.152Z</time></trkpt><trkpt lat="44.7760167" lon="7.9503183"><ele>252.0</ele><time>2026-05-01T11:59:52.151Z</time></trkpt><trkpt lat="44.77598" lon="7.950565"><ele>244.66666666666669</ele><time>2026-05-01T11:59:53.154Z</time></trkpt><trkpt lat="44.7759483" lon="7.9508083"><ele>237.33333333333334</ele><time>2026-05-01T11:59:54.151Z</time></trkpt><trkpt lat="44.7759183" lon="7.9510433"><ele>230.0</ele><time>2026-05-01T11:59:55.152Z</time></trkpt><trkpt lat="44.7758867" lon="7.9512683"><ele>230.0</ele><time>2026-05-01T11:59:56.155Z</time></trkpt><trkpt lat="44.775865" lon="7.9514783"><ele>230.0</ele><time>2026-05-01T11:59:57.158Z</time></trkpt><trkpt lat="44.7758467" lon="7.95167"><ele>230.0</ele><time>2026-05-01T11:59:58.155Z</time></trkpt><trkpt lat="44.7758283" lon="7.9518367"><ele>230.0</ele><time>2026-05-01T11:59:59.153Z</time></trkpt><trkpt lat="44.7758117" lon="7.95197"><ele>229.66666666666669</ele><time>2026-05-01T12:00:00.151Z</time></trkpt><trkpt lat="44.77579" lon="7.9520717"><ele>229.33333333333334</ele><time>2026-05-01T12:00:01.154Z</time></trkpt><trkpt lat="44.775765" lon="7.9521567"><ele>229.0</ele><time>2026-05-01T12:00:02.155Z</time></trkpt><trkpt lat="44.7756783" lon="7.952265"><ele>228.66666666666669</ele><time>2026-05-01T12:00:04.154Z</time></trkpt><trkpt lat="44.7756033" lon="7.9522483"><ele>228.33333333333334</ele><time>2026-05-01T12:00:05.153Z</time></trkpt><trkpt lat="44.77553" lon="7.9522167"><ele>228.0</ele><time>2026-05-01T12:00:06.158Z</time></trkpt><trkpt lat="44.7754517" lon="7.952155"><ele>228.0</ele><time>2026-05-01T12:00:07.154Z</time></trkpt><trkpt lat="44.7753617" lon="7.952065"><ele>228.0</ele><time>2026-05-01T12:00:08.155Z</time></trkpt><trkpt lat="44.775235" lon="7.9519283"><ele>228.0</ele><time>2026-05-01T12:00:09.153Z</time></trkpt><trkpt lat="44.7751133" lon="7.9517933"><ele>228.0</ele><time>2026-05-01T12:00:10.151Z</time></trkpt><trkpt lat="44.7749783" lon="7.9516533"><ele>226.66666666666669</ele><time>2026-05-01T12:00:11.154Z</time></trkpt><trkpt lat="44.77483" lon="7.9515067"><ele>225.33333333333334</ele><time>2026-05-01T12:00:12.151Z</time></trkpt><trkpt lat="44.7746733" lon="7.951345"><ele>224.0</ele><time>2026-05-01T12:00:13.158Z</time></trkpt><trkpt lat="44.774515" lon="7.9511767"><ele>224.33333333333334</ele><time>2026-05-01T12:00:14.151Z</time></trkpt><trkpt lat="44.7743483" lon="7.9510017"><ele>224.66666666666669</ele><time>2026-05-01T12:00:15.157Z</time></trkpt><trkpt lat="44.7741683" lon="7.95082"><ele>225.0</ele><time>2026-05-01T12:00:16.155Z</time></trkpt><trkpt lat="44.7739817" lon="7.95063"><ele>225.0</ele><time>2026-05-01T12:00:17.158Z</time></trkpt><trkpt lat="44.7737967" lon="7.9504333"><ele>225.0</ele><time>2026-05-01T12:00:18.159Z</time></trkpt><trkpt lat="44.7736067" lon="7.9502383"><ele>226.0</ele><time>2026-05-01T12:00:19.155Z</time></trkpt><trkpt lat="44.7734133" lon="7.95004"><ele>227.0</ele><time>2026-05-01T12:00:20.154Z</time></trkpt><trkpt lat="44.7732283" lon="7.94984"><ele>227.0</ele><time>2026-05-01T12:00:21.154Z</time></trkpt><trkpt lat="44.77304" lon="7.9496467"><ele>227.0</ele><time>2026-05-01T12:00:22.152Z</time></trkpt><trkpt lat="44.7728483" lon="7.9494483"><ele>227.0</ele><time>2026-05-01T12:00:23.156Z</time></trkpt><trkpt lat="44.7726583" lon="7.949245"><ele>227.0</ele><time>2026-05-01T12:00:24.152Z</time></trkpt><trkpt lat="44.77247" lon="7.9490417"><ele>227.0</ele><time>2026-05-01T12:00:25.155Z</time></trkpt><trkpt lat="44.7722833" lon="7.9488383"><ele>227.0</ele><time>2026-05-01T12:00:26.152Z</time></trkpt><trkpt lat="44.7720967" lon="7.9486367"><ele>227.0</ele><time>2026-05-01T12:00:27.154Z</time></trkpt><trkpt lat="44.77191" lon="7.948445"><ele>227.0</ele><time>2026-05-01T12:00:28.154Z</time></trkpt><trkpt lat="44.7717167" lon="7.94827"><ele>228.33333333333334</ele><time>2026-05-01T12:00:29.153Z</time></trkpt><trkpt lat="44.7715217" lon="7.948135"><ele>229.66666666666669</ele><time>2026-05-01T12:00:30.153Z</time></trkpt><trkpt lat="44.77132" lon="7.94803"><ele>231.0</ele><time>2026-05-01T12:00:31.151Z</time></trkpt><trkpt lat="44.771115" lon="7.9479383"><ele>230.0</ele><time>2026-05-01T12:00:32.154Z</time></trkpt><trkpt lat="44.7709067" lon="7.9478483"><ele>229.0</ele><time>2026-05-01T12:00:33.153Z</time></trkpt><trkpt lat="44.7706983" lon="7.9477583"><ele>228.0</ele><time>2026-05-01T12:00:34.158Z</time></trkpt><trkpt lat="44.7705" lon="7.947675"><ele>228.0</ele><time>2026-05-01T12:00:35.154Z</time></trkpt><trkpt lat="44.77032" lon="7.9475883"><ele>228.0</ele><time>2026-05-01T12:00:36.154Z</time></trkpt><trkpt lat="44.7701567" lon="7.9474967"><ele>228.0</ele><time>2026-05-01T12:00:37.161Z</time></trkpt><trkpt lat="44.7700133" lon="7.9473883"><ele>229.33333333333331</ele><time>2026-05-01T12:00:38.15Z</time></trkpt><trkpt lat="44.7698767" lon="7.9472783"><ele>230.66666666666666</ele><time>2026-05-01T12:00:39.155Z</time></trkpt><trkpt lat="44.769735" lon="7.9471783"><ele>232.0</ele><time>2026-05-01T12:00:40.157Z</time></trkpt><trkpt lat="44.7695883" lon="7.9471083"><ele>232.0</ele><time>2026-05-01T12:00:41.153Z</time></trkpt><trkpt lat="44.769435" lon="7.94708"><ele>232.0</ele><time>2026-05-01T12:00:42.155Z</time></trkpt><trkpt lat="44.7692817" lon="7.9470917"><ele>232.0</ele><time>2026-05-01T12:00:43.154Z</time></trkpt><trkpt lat="44.7691283" lon="7.947135"><ele>232.0</ele><time>2026-05-01T12:00:44.154Z</time></trkpt><trkpt lat="44.7689667" lon="7.9471817"><ele>232.0</ele><time>2026-05-01T12:00:45.152Z</time></trkpt><trkpt lat="44.768805" lon="7.9472117"><ele>232.0</ele><time>2026-05-01T12:00:46.156Z</time></trkpt><trkpt lat="44.7686467" lon="7.94722"><ele>232.0</ele><time>2026-05-01T12:00:47.157Z</time></trkpt><trkpt lat="44.768495" lon="7.9471883"><ele>232.0</ele><time>2026-05-01T12:00:48.153Z</time></trkpt><trkpt lat="44.7683567" lon="7.9471167"><ele>232.0</ele><time>2026-05-01T12:00:49.151Z</time></trkpt><trkpt lat="44.7682267" lon="7.94702"><ele>232.0</ele><time>2026-05-01T12:00:50.158Z</time></trkpt><trkpt lat="44.7681067" lon="7.9468917"><ele>232.0</ele><time>2026-05-01T12:00:51.151Z</time></trkpt><trkpt lat="44.768005" lon="7.94672"><ele>232.0</ele><time>2026-05-01T12:00:52.152Z</time></trkpt><trkpt lat="44.7679033" lon="7.9465267"><ele>232.0</ele><time>2026-05-01T12:00:53.152Z</time></trkpt><trkpt lat="44.7677883" lon="7.9463183"><ele>232.66666666666666</ele><time>2026-05-01T12:00:54.158Z</time></trkpt><trkpt lat="44.7676833" lon="7.9460767"><ele>233.33333333333331</ele><time>2026-05-01T12:00:55.152Z</time></trkpt><trkpt lat="44.7675717" lon="7.9458317"><ele>234.0</ele><time>2026-05-01T12:00:56.153Z</time></trkpt><trkpt lat="44.7674617" lon="7.94559"><ele>235.0</ele><time>2026-05-01T12:00:57.153Z</time></trkpt><trkpt lat="44.7673467" lon="7.9453433"><ele>236.0</ele><time>2026-05-01T12:00:58.153Z</time></trkpt><trkpt lat="44.7672333" lon="7.9450933"><ele>237.0</ele><time>2026-05-01T12:00:59.152Z</time></trkpt><trkpt lat="44.7671283" lon="7.9448367"><ele>239.33333333333331</ele><time>2026-05-01T12:01:00.167Z</time></trkpt><trkpt lat="44.7670367" lon="7.9445767"><ele>241.66666666666666</ele><time>2026-05-01T12:01:01.158Z</time></trkpt><trkpt lat="44.7669633" lon="7.944295"><ele>244.0</ele><time>2026-05-01T12:01:02.156Z</time></trkpt><trkpt lat="44.7668917" lon="7.9440133"><ele>243.0</ele><time>2026-05-01T12:01:03.154Z</time></trkpt><trkpt lat="44.766825" lon="7.9437217"><ele>242.0</ele><time>2026-05-01T12:01:04.156Z</time></trkpt><trkpt lat="44.76676" lon="7.94344"><ele>241.0</ele><time>2026-05-01T12:01:05.152Z</time></trkpt><trkpt lat="44.7667067" lon="7.9431767"><ele>241.0</ele><time>2026-05-01T12:01:06.154Z</time></trkpt><trkpt lat="44.76667" lon="7.9429283"><ele>241.0</ele><time>2026-05-01T12:01:07.154Z</time></trkpt><trkpt lat="44.766645" lon="7.9426683"><ele>241.0</ele><time>2026-05-01T12:01:08.158Z</time></trkpt><trkpt lat="44.7666317" lon="7.942405"><ele>241.0</ele><time>2026-05-01T12:01:09.158Z</time></trkpt><trkpt lat="44.7666233" lon="7.9421383"><ele>241.0</ele><time>2026-05-01T12:01:10.153Z</time></trkpt><trkpt lat="44.7666117" lon="7.94189"><ele>241.0</ele><time>2026-05-01T12:01:11.156Z</time></trkpt><trkpt lat="44.7666" lon="7.941665"><ele>241.0</ele><time>2026-05-01T12:01:12.155Z</time></trkpt><trkpt lat="44.7665667" lon="7.9414733"><ele>241.0</ele><time>2026-05-01T12:01:13.153Z</time></trkpt><trkpt lat="44.7665117" lon="7.9413117"><ele>241.0</ele><time>2026-05-01T12:01:14.153Z</time></trkpt><trkpt lat="44.7664383" lon="7.94116"><ele>241.0</ele><time>2026-05-01T12:01:15.152Z</time></trkpt><trkpt lat="44.76632" lon="7.941015"><ele>241.33333333333331</ele><time>2026-05-01T12:01:16.152Z</time></trkpt><trkpt lat="44.766185" lon="7.9408567"><ele>241.66666666666669</ele><time>2026-05-01T12:01:17.152Z</time></trkpt><trkpt lat="44.7660283" lon="7.9406817"><ele>242.0</ele><time>2026-05-01T12:01:18.156Z</time></trkpt><trkpt lat="44.7658617" lon="7.94049"><ele>242.66666666666669</ele><time>2026-05-01T12:01:19.153Z</time></trkpt><trkpt lat="44.7656867" lon="7.9402883"><ele>243.33333333333331</ele><time>2026-05-01T12:01:20.153Z</time></trkpt><trkpt lat="44.7655233" lon="7.9400867"><ele>244.0</ele><time>2026-05-01T12:01:21.149Z</time></trkpt><trkpt lat="44.7653583" lon="7.9398867"><ele>244.33333333333331</ele><time>2026-05-01T12:01:22.158Z</time></trkpt><trkpt lat="44.7651967" lon="7.939695"><ele>244.66666666666669</ele><time>2026-05-01T12:01:23.156Z</time></trkpt><trkpt lat="44.7650367" lon="7.9394983"><ele>245.0</ele><time>2026-05-01T12:01:24.153Z</time></trkpt><trkpt lat="44.764875" lon="7.9393017"><ele>247.33333333333334</ele><time>2026-05-01T12:01:25.153Z</time></trkpt><trkpt lat="44.7647133" lon="7.9391033"><ele>249.66666666666669</ele><time>2026-05-01T12:01:26.16Z</time></trkpt><trkpt lat="44.76456" lon="7.9388983"><ele>252.0</ele><time>2026-05-01T12:01:27.156Z</time></trkpt><trkpt lat="44.7644117" lon="7.9386883"><ele>252.0</ele><time>2026-05-01T12:01:28.154Z</time></trkpt><trkpt lat="44.7642617" lon="7.9384767"><ele>252.0</ele><time>2026-05-01T12:01:29.152Z</time></trkpt><trkpt lat="44.764115" lon="7.93827"><ele>252.0</ele><time>2026-05-01T12:01:30.154Z</time></trkpt><trkpt lat="44.7639883" lon="7.93808"><ele>252.0</ele><time>2026-05-01T12:01:31.164Z</time></trkpt><trkpt lat="44.7638883" lon="7.9379033"><ele>252.0</ele><time>2026-05-01T12:01:32.156Z</time></trkpt><trkpt lat="44.7638083" lon="7.9377283"><ele>252.0</ele><time>2026-05-01T12:01:33.155Z</time></trkpt><trkpt lat="44.76375" lon="7.9375417"><ele>252.0</ele><time>2026-05-01T12:01:34.156Z</time></trkpt><trkpt lat="44.7636917" lon="7.9373617"><ele>252.0</ele><time>2026-05-01T12:01:35.153Z</time></trkpt><trkpt lat="44.7636217" lon="7.9372033"><ele>252.0</ele><time>2026-05-01T12:01:36.152Z</time></trkpt><trkpt lat="44.7635333" lon="7.9370733"><ele>252.0</ele><time>2026-05-01T12:01:37.157Z</time></trkpt><trkpt lat="44.7634317" lon="7.9369567"><ele>252.0</ele><time>2026-05-01T12:01:38.157Z</time></trkpt><trkpt lat="44.7633183" lon="7.9368517"><ele>252.0</ele><time>2026-05-01T12:01:39.152Z</time></trkpt><trkpt lat="44.7632033" lon="7.93676"><ele>252.0</ele><time>2026-05-01T12:01:40.152Z</time></trkpt><trkpt lat="44.7630867" lon="7.9366883"><ele>252.0</ele><time>2026-05-01T12:01:41.153Z</time></trkpt><trkpt lat="44.7629733" lon="7.9366567"><ele>253.0</ele><time>2026-05-01T12:01:42.154Z</time></trkpt><trkpt lat="44.762865" lon="7.9366633"><ele>254.0</ele><time>2026-05-01T12:01:43.155Z</time></trkpt><trkpt lat="44.7627617" lon="7.9367133"><ele>255.0</ele><time>2026-05-01T12:01:44.15Z</time></trkpt><trkpt lat="44.7626617" lon="7.9367783"><ele>256.0</ele><time>2026-05-01T12:01:45.159Z</time></trkpt><trkpt lat="44.762565" lon="7.936825"><ele>257.0</ele><time>2026-05-01T12:01:46.151Z</time></trkpt><trkpt lat="44.7624733" lon="7.9368617"><ele>257.0</ele><time>2026-05-01T12:01:47.159Z</time></trkpt><trkpt lat="44.7623867" lon="7.936915"><ele>257.0</ele><time>2026-05-01T12:01:48.155Z</time></trkpt><trkpt lat="44.7623067" lon="7.9369933"><ele>257.0</ele><time>2026-05-01T12:01:49.16Z</time></trkpt><trkpt lat="44.7622317" lon="7.93709"><ele>257.0</ele><time>2026-05-01T12:01:50.153Z</time></trkpt><trkpt lat="44.7621433" lon="7.9371633"><ele>257.0</ele><time>2026-05-01T12:01:51.157Z</time></trkpt><trkpt lat="44.762045" lon="7.93721"><ele>257.0</ele><time>2026-05-01T12:01:52.155Z</time></trkpt><trkpt lat="44.7619317" lon="7.937235"><ele>257.0</ele><time>2026-05-01T12:01:53.155Z</time></trkpt><trkpt lat="44.7618033" lon="7.9372483"><ele>257.0</ele><time>2026-05-01T12:01:54.155Z</time></trkpt><trkpt lat="44.7616733" lon="7.93726"><ele>257.0</ele><time>2026-05-01T12:01:55.155Z</time></trkpt><trkpt lat="44.7615367" lon="7.937295"><ele>257.6666666666667</ele><time>2026-05-01T12:01:56.155Z</time></trkpt><trkpt lat="44.7613983" lon="7.9373683"><ele>258.3333333333333</ele><time>2026-05-01T12:01:57.151Z</time></trkpt><trkpt lat="44.761255" lon="7.937475"><ele>259.0</ele><time>2026-05-01T12:01:58.155Z</time></trkpt><trkpt lat="44.7611117" lon="7.9376017"><ele>260.66666666666663</ele><time>2026-05-01T12:01:59.162Z</time></trkpt><trkpt lat="44.7609733" lon="7.937735"><ele>262.3333333333333</ele><time>2026-05-01T12:02:00.153Z</time></trkpt><trkpt lat="44.7608217" lon="7.9378683"><ele>264.0</ele><time>2026-05-01T12:02:01.156Z</time></trkpt><trkpt lat="44.7606683" lon="7.937995"><ele>264.0</ele><time>2026-05-01T12:02:02.153Z</time></trkpt><trkpt lat="44.760505" lon="7.9381133"><ele>264.0</ele><time>2026-05-01T12:02:03.152Z</time></trkpt><trkpt lat="44.7603383" lon="7.93822"><ele>264.0</ele><time>2026-05-01T12:02:04.157Z</time></trkpt><trkpt lat="44.76017" lon="7.93833"><ele>266.0</ele><time>2026-05-01T12:02:05.155Z</time></trkpt><trkpt lat="44.7600133" lon="7.9384217"><ele>268.0</ele><time>2026-05-01T12:02:06.154Z</time></trkpt><trkpt lat="44.7598667" lon="7.9384883"><ele>270.0</ele><time>2026-05-01T12:02:07.151Z</time></trkpt><trkpt lat="44.759715" lon="7.9385167"><ele>270.0</ele><time>2026-05-01T12:02:08.156Z</time></trkpt><trkpt lat="44.75956" lon="7.9385317"><ele>270.0</ele><time>2026-05-01T12:02:09.152Z</time></trkpt><trkpt lat="44.7593883" lon="7.93852"><ele>270.0</ele><time>2026-05-01T12:02:10.155Z</time></trkpt><trkpt lat="44.7592117" lon="7.9384983"><ele>271.3333333333333</ele><time>2026-05-01T12:02:11.151Z</time></trkpt><trkpt lat="44.7590367" lon="7.9384567"><ele>272.66666666666663</ele><time>2026-05-01T12:02:12.16Z</time></trkpt><trkpt lat="44.7588833" lon="7.938405"><ele>274.0</ele><time>2026-05-01T12:02:13.158Z</time></trkpt><trkpt lat="44.7587383" lon="7.9383183"><ele>274.0</ele><time>2026-05-01T12:02:14.154Z</time></trkpt><trkpt lat="44.758595" lon="7.9382183"><ele>274.0</ele><time>2026-05-01T12:02:15.15Z</time></trkpt><trkpt lat="44.7584583" lon="7.9380867"><ele>274.0</ele><time>2026-05-01T12:02:16.155Z</time></trkpt><trkpt lat="44.758335" lon="7.937915"><ele>272.66666666666663</ele><time>2026-05-01T12:02:17.154Z</time></trkpt><trkpt lat="44.7582117" lon="7.9377283"><ele>271.3333333333333</ele><time>2026-05-01T12:02:18.153Z</time></trkpt><trkpt lat="44.75809" lon="7.937525"><ele>270.0</ele><time>2026-05-01T12:02:19.158Z</time></trkpt><trkpt lat="44.7579667" lon="7.937315"><ele>268.3333333333333</ele><time>2026-05-01T12:02:20.154Z</time></trkpt><trkpt lat="44.7578417" lon="7.9371033"><ele>266.66666666666663</ele><time>2026-05-01T12:02:21.157Z</time></trkpt><trkpt lat="44.757725" lon="7.9369"><ele>265.0</ele><time>2026-05-01T12:02:22.161Z</time></trkpt><trkpt lat="44.7576117" lon="7.9367083"><ele>263.3333333333333</ele><time>2026-05-01T12:02:23.151Z</time></trkpt><trkpt lat="44.7575" lon="7.9365283"><ele>261.6666666666667</ele><time>2026-05-01T12:02:24.157Z</time></trkpt><trkpt lat="44.7573817" lon="7.9363667"><ele>260.0</ele><time>2026-05-01T12:02:25.152Z</time></trkpt><trkpt lat="44.75725" lon="7.9362433"><ele>260.0</ele><time>2026-05-01T12:02:26.155Z</time></trkpt><trkpt lat="44.7571083" lon="7.9361717"><ele>260.0</ele><time>2026-05-01T12:02:27.153Z</time></trkpt><trkpt lat="44.7569567" lon="7.9361433"><ele>260.0</ele><time>2026-05-01T12:02:28.152Z</time></trkpt><trkpt lat="44.7568083" lon="7.936145"><ele>260.33333333333337</ele><time>2026-05-01T12:02:29.16Z</time></trkpt><trkpt lat="44.7566567" lon="7.936155"><ele>260.6666666666667</ele><time>2026-05-01T12:02:30.151Z</time></trkpt><trkpt lat="44.7564983" lon="7.9361583"><ele>261.0</ele><time>2026-05-01T12:02:31.156Z</time></trkpt><trkpt lat="44.756335" lon="7.9361483"><ele>261.0</ele><time>2026-05-01T12:02:32.154Z</time></trkpt><trkpt lat="44.7561683" lon="7.9361267"><ele>261.0</ele><time>2026-05-01T12:02:33.154Z</time></trkpt><trkpt lat="44.755995" lon="7.936095"><ele>261.0</ele><time>2026-05-01T12:02:34.151Z</time></trkpt><trkpt lat="44.7558133" lon="7.9360733"><ele>260.3333333333333</ele><time>2026-05-01T12:02:35.158Z</time></trkpt><trkpt lat="44.7556217" lon="7.936075"><ele>259.66666666666663</ele><time>2026-05-01T12:02:36.159Z</time></trkpt><trkpt lat="44.7554233" lon="7.93611"><ele>259.0</ele><time>2026-05-01T12:02:37.161Z</time></trkpt><trkpt lat="44.755225" lon="7.936165"><ele>256.66666666666663</ele><time>2026-05-01T12:02:38.154Z</time></trkpt><trkpt lat="44.7550283" lon="7.9362283"><ele>254.33333333333331</ele><time>2026-05-01T12:02:39.155Z</time></trkpt><trkpt lat="44.754835" lon="7.9362983"><ele>252.0</ele><time>2026-05-01T12:02:40.157Z</time></trkpt><trkpt lat="44.7546417" lon="7.93636"><ele>252.0</ele><time>2026-05-01T12:02:41.153Z</time></trkpt><trkpt lat="44.7544533" lon="7.93641"><ele>252.0</ele><time>2026-05-01T12:02:42.156Z</time></trkpt><trkpt lat="44.7542633" lon="7.9364367"><ele>252.0</ele><time>2026-05-01T12:02:43.155Z</time></trkpt><trkpt lat="44.7540717" lon="7.936435"><ele>252.0</ele><time>2026-05-01T12:02:44.148Z</time></trkpt><trkpt lat="44.7538867" lon="7.9364133"><ele>252.0</ele><time>2026-05-01T12:02:45.151Z</time></trkpt><trkpt lat="44.7537083" lon="7.9363883"><ele>252.0</ele><time>2026-05-01T12:02:46.152Z</time></trkpt><trkpt lat="44.7535367" lon="7.9363617"><ele>252.33333333333331</ele><time>2026-05-01T12:02:47.153Z</time></trkpt><trkpt lat="44.75337" lon="7.9363433"><ele>252.66666666666666</ele><time>2026-05-01T12:02:48.152Z</time></trkpt><trkpt lat="44.7532017" lon="7.9363383"><ele>253.0</ele><time>2026-05-01T12:02:49.156Z</time></trkpt><trkpt lat="44.7530333" lon="7.9363483"><ele>253.0</ele><time>2026-05-01T12:02:50.153Z</time></trkpt><trkpt lat="44.75286" lon="7.9363667"><ele>253.0</ele><time>2026-05-01T12:02:51.159Z</time></trkpt><trkpt lat="44.7526833" lon="7.9363917"><ele>253.0</ele><time>2026-05-01T12:02:52.153Z</time></trkpt><trkpt lat="44.7525167" lon="7.936415"><ele>251.75</ele><time>2026-05-01T12:02:53.151Z</time></trkpt><trkpt lat="44.7523617" lon="7.93645"><ele>250.5</ele><time>2026-05-01T12:02:54.156Z</time></trkpt><trkpt lat="44.752225" lon="7.9365117"><ele>249.25</ele><time>2026-05-01T12:02:55.16Z</time></trkpt><trkpt lat="44.7521067" lon="7.9366133"><ele>248.0</ele><time>2026-05-01T12:02:56.153Z</time></trkpt><trkpt lat="44.752005" lon="7.936755"><ele>247.66666666666669</ele><time>2026-05-01T12:02:57.151Z</time></trkpt><trkpt lat="44.751915" lon="7.9369333"><ele>247.33333333333331</ele><time>2026-05-01T12:02:58.152Z</time></trkpt><trkpt lat="44.7518283" lon="7.93714"><ele>247.0</ele><time>2026-05-01T12:02:59.155Z</time></trkpt><trkpt lat="44.7517533" lon="7.9373683"><ele>245.66666666666666</ele><time>2026-05-01T12:03:00.155Z</time></trkpt><trkpt lat="44.7516833" lon="7.93761"><ele>244.33333333333331</ele><time>2026-05-01T12:03:01.155Z</time></trkpt><trkpt lat="44.7516133" lon="7.9378417"><ele>243.0</ele><time>2026-05-01T12:03:02.157Z</time></trkpt><trkpt lat="44.7515417" lon="7.93806"><ele>243.0</ele><time>2026-05-01T12:03:03.151Z</time></trkpt><trkpt lat="44.7514683" lon="7.9382683"><ele>243.0</ele><time>2026-05-01T12:03:04.154Z</time></trkpt><trkpt lat="44.7513817" lon="7.9384717"><ele>243.0</ele><time>2026-05-01T12:03:05.153Z</time></trkpt><trkpt lat="44.75128" lon="7.9386517"><ele>242.66666666666669</ele><time>2026-05-01T12:03:06.152Z</time></trkpt><trkpt lat="44.7511667" lon="7.9388117"><ele>242.33333333333334</ele><time>2026-05-01T12:03:07.154Z</time></trkpt><trkpt lat="44.7510383" lon="7.93895"><ele>242.0</ele><time>2026-05-01T12:03:08.152Z</time></trkpt><trkpt lat="44.7509067" lon="7.9390717"><ele>242.0</ele><time>2026-05-01T12:03:09.151Z</time></trkpt><trkpt lat="44.7507717" lon="7.9391783"><ele>242.0</ele><time>2026-05-01T12:03:10.155Z</time></trkpt><trkpt lat="44.7506333" lon="7.93928"><ele>242.0</ele><time>2026-05-01T12:03:11.158Z</time></trkpt><trkpt lat="44.7504883" lon="7.9393683"><ele>242.33333333333334</ele><time>2026-05-01T12:03:12.149Z</time></trkpt><trkpt lat="44.7503367" lon="7.9394383"><ele>242.66666666666669</ele><time>2026-05-01T12:03:13.154Z</time></trkpt><trkpt lat="44.750175" lon="7.9394683"><ele>243.0</ele><time>2026-05-01T12:03:14.153Z</time></trkpt><trkpt lat="44.7500067" lon="7.9394583"><ele>243.0</ele><time>2026-05-01T12:03:15.155Z</time></trkpt><trkpt lat="44.7498383" lon="7.9394133"><ele>243.0</ele><time>2026-05-01T12:03:16.152Z</time></trkpt><trkpt lat="44.7496717" lon="7.939335"><ele>243.0</ele><time>2026-05-01T12:03:17.153Z</time></trkpt><trkpt lat="44.7495083" lon="7.93923"><ele>243.33333333333331</ele><time>2026-05-01T12:03:18.155Z</time></trkpt><trkpt lat="44.7493533" lon="7.9391033"><ele>243.66666666666666</ele><time>2026-05-01T12:03:19.153Z</time></trkpt><trkpt lat="44.7492" lon="7.9389767"><ele>244.0</ele><time>2026-05-01T12:03:20.155Z</time></trkpt><trkpt lat="44.74905" lon="7.9388583"><ele>244.0</ele><time>2026-05-01T12:03:21.151Z</time></trkpt><trkpt lat="44.7488983" lon="7.93877"><ele>244.0</ele><time>2026-05-01T12:03:22.152Z</time></trkpt><trkpt lat="44.748735" lon="7.9387183"><ele>244.0</ele><time>2026-05-01T12:03:23.153Z</time></trkpt><trkpt lat="44.7485867" lon="7.9386867"><ele>244.0</ele><time>2026-05-01T12:03:24.152Z</time></trkpt><trkpt lat="44.74843" lon="7.938685"><ele>244.0</ele><time>2026-05-01T12:03:25.155Z</time></trkpt><trkpt lat="44.748265" lon="7.938705"><ele>244.0</ele><time>2026-05-01T12:03:26.151Z</time></trkpt><trkpt lat="44.7480967" lon="7.9387433"><ele>244.0</ele><time>2026-05-01T12:03:27.151Z</time></trkpt><trkpt lat="44.7479233" lon="7.9387883"><ele>244.0</ele><time>2026-05-01T12:03:28.155Z</time></trkpt><trkpt lat="44.7477483" lon="7.9388367"><ele>244.0</ele><time>2026-05-01T12:03:29.155Z</time></trkpt><trkpt lat="44.7475783" lon="7.938885"><ele>241.33333333333331</ele><time>2026-05-01T12:03:30.156Z</time></trkpt><trkpt lat="44.7474133" lon="7.93893"><ele>238.66666666666669</ele><time>2026-05-01T12:03:31.151Z</time></trkpt><trkpt lat="44.7472533" lon="7.9389733"><ele>236.0</ele><time>2026-05-01T12:03:32.152Z</time></trkpt><trkpt lat="44.7470983" lon="7.939035"><ele>236.0</ele><time>2026-05-01T12:03:33.151Z</time></trkpt><trkpt lat="44.746945" lon="7.93911"><ele>236.0</ele><time>2026-05-01T12:03:34.156Z</time></trkpt><trkpt lat="44.7467883" lon="7.9392083"><ele>236.0</ele><time>2026-05-01T12:03:35.153Z</time></trkpt><trkpt lat="44.7466317" lon="7.9393117"><ele>239.0</ele><time>2026-05-01T12:03:36.151Z</time></trkpt><trkpt lat="44.746475" lon="7.9394267"><ele>242.0</ele><time>2026-05-01T12:03:37.155Z</time></trkpt><trkpt lat="44.7463117" lon="7.9395483"><ele>245.0</ele><time>2026-05-01T12:03:38.154Z</time></trkpt><trkpt lat="44.746145" lon="7.9396733"><ele>242.33333333333334</ele><time>2026-05-01T12:03:39.152Z</time></trkpt><trkpt lat="44.745975" lon="7.9398"><ele>239.66666666666669</ele><time>2026-05-01T12:03:40.151Z</time></trkpt><trkpt lat="44.74581" lon="7.9399233"><ele>237.0</ele><time>2026-05-01T12:03:41.157Z</time></trkpt><trkpt lat="44.7456433" lon="7.9400467"><ele>237.33333333333331</ele><time>2026-05-01T12:03:42.151Z</time></trkpt><trkpt lat="44.7454733" lon="7.9401717"><ele>237.66666666666666</ele><time>2026-05-01T12:03:43.154Z</time></trkpt><trkpt lat="44.7453017" lon="7.9402967"><ele>238.0</ele><time>2026-05-01T12:03:44.154Z</time></trkpt><trkpt lat="44.7451367" lon="7.940425"><ele>238.0</ele><time>2026-05-01T12:03:45.148Z</time></trkpt><trkpt lat="44.74496" lon="7.940535"><ele>238.0</ele><time>2026-05-01T12:03:46.155Z</time></trkpt><trkpt lat="44.7447767" lon="7.9406267"><ele>238.0</ele><time>2026-05-01T12:03:47.153Z</time></trkpt><trkpt lat="44.744595" lon="7.940715"><ele>238.0</ele><time>2026-05-01T12:03:48.155Z</time></trkpt><trkpt lat="44.7444117" lon="7.9407933"><ele>238.0</ele><time>2026-05-01T12:03:49.158Z</time></trkpt><trkpt lat="44.7442267" lon="7.9408667"><ele>238.0</ele><time>2026-05-01T12:03:50.154Z</time></trkpt><trkpt lat="44.7440433" lon="7.940935"><ele>239.0</ele><time>2026-05-01T12:03:51.156Z</time></trkpt><trkpt lat="44.74386" lon="7.9410067"><ele>240.0</ele><time>2026-05-01T12:03:52.153Z</time></trkpt><trkpt lat="44.743675" lon="7.941075"><ele>241.0</ele><time>2026-05-01T12:03:53.157Z</time></trkpt><trkpt lat="44.7434967" lon="7.9411483"><ele>237.66666666666666</ele><time>2026-05-01T12:03:54.156Z</time></trkpt><trkpt lat="44.7433217" lon="7.9412367"><ele>234.33333333333331</ele><time>2026-05-01T12:03:55.154Z</time></trkpt><trkpt lat="44.74315" lon="7.9413317"><ele>231.0</ele><time>2026-05-01T12:03:56.152Z</time></trkpt><trkpt lat="44.7429733" lon="7.94143"><ele>231.0</ele><time>2026-05-01T12:03:57.154Z</time></trkpt><trkpt lat="44.7427933" lon="7.94153"><ele>231.0</ele><time>2026-05-01T12:03:58.155Z</time></trkpt><trkpt lat="44.742615" lon="7.941635"><ele>231.0</ele><time>2026-05-01T12:03:59.151Z</time></trkpt><trkpt lat="44.7424283" lon="7.941735"><ele>230.33333333333331</ele><time>2026-05-01T12:04:00.155Z</time></trkpt><trkpt lat="44.7422467" lon="7.9418383"><ele>229.66666666666666</ele><time>2026-05-01T12:04:01.154Z</time></trkpt><trkpt lat="44.7420633" lon="7.9419483"><ele>229.0</ele><time>2026-05-01T12:04:02.151Z</time></trkpt><trkpt lat="44.7418783" lon="7.94206"><ele>227.0</ele><time>2026-05-01T12:04:03.151Z</time></trkpt><trkpt lat="44.741695" lon="7.942175"><ele>225.0</ele><time>2026-05-01T12:04:04.155Z</time></trkpt><trkpt lat="44.7415083" lon="7.9422917"><ele>223.0</ele><time>2026-05-01T12:04:05.153Z</time></trkpt><trkpt lat="44.7413233" lon="7.9424083"><ele>223.0</ele><time>2026-05-01T12:04:06.151Z</time></trkpt><trkpt lat="44.7411383" lon="7.94253"><ele>223.0</ele><time>2026-05-01T12:04:07.157Z</time></trkpt><trkpt lat="44.7409533" lon="7.9426517"><ele>223.0</ele><time>2026-05-01T12:04:08.153Z</time></trkpt><trkpt lat="44.7407683" lon="7.9427817"><ele>223.0</ele><time>2026-05-01T12:04:09.151Z</time></trkpt><trkpt lat="44.7405867" lon="7.9429233"><ele>223.0</ele><time>2026-05-01T12:04:10.155Z</time></trkpt><trkpt lat="44.7404067" lon="7.9430717"><ele>223.0</ele><time>2026-05-01T12:04:11.152Z</time></trkpt><trkpt lat="44.7402283" lon="7.9432283"><ele>222.33333333333331</ele><time>2026-05-01T12:04:12.159Z</time></trkpt><trkpt lat="44.740055" lon="7.9433833"><ele>221.66666666666669</ele><time>2026-05-01T12:04:13.154Z</time></trkpt><trkpt lat="44.739885" lon="7.94353"><ele>221.0</ele><time>2026-05-01T12:04:14.153Z</time></trkpt><trkpt lat="44.7397283" lon="7.943655"><ele>221.0</ele><time>2026-05-01T12:04:15.157Z</time></trkpt><trkpt lat="44.7395833" lon="7.943755"><ele>221.0</ele><time>2026-05-01T12:04:16.153Z</time></trkpt><trkpt lat="44.73944" lon="7.9438283"><ele>221.0</ele><time>2026-05-01T12:04:17.155Z</time></trkpt><trkpt lat="44.7392967" lon="7.9438733"><ele>221.0</ele><time>2026-05-01T12:04:18.155Z</time></trkpt><trkpt lat="44.7391533" lon="7.9439"><ele>221.0</ele><time>2026-05-01T12:04:19.152Z</time></trkpt><trkpt lat="44.739015" lon="7.94392"><ele>221.0</ele><time>2026-05-01T12:04:20.152Z</time></trkpt><trkpt lat="44.7388733" lon="7.9439283"><ele>221.0</ele><time>2026-05-01T12:04:21.155Z</time></trkpt><trkpt lat="44.7387267" lon="7.943935"><ele>221.0</ele><time>2026-05-01T12:04:22.155Z</time></trkpt><trkpt lat="44.738575" lon="7.9439483"><ele>221.0</ele><time>2026-05-01T12:04:23.154Z</time></trkpt><trkpt lat="44.73842" lon="7.94398"><ele>221.0</ele><time>2026-05-01T12:04:24.153Z</time></trkpt><trkpt lat="44.7382617" lon="7.9440467"><ele>220.0</ele><time>2026-05-01T12:04:25.153Z</time></trkpt><trkpt lat="44.7381017" lon="7.94415"><ele>219.0</ele><time>2026-05-01T12:04:26.152Z</time></trkpt><trkpt lat="44.7379383" lon="7.9442783"><ele>218.0</ele><time>2026-05-01T12:04:27.155Z</time></trkpt><trkpt lat="44.7377683" lon="7.9444233"><ele>220.0</ele><time>2026-05-01T12:04:28.155Z</time></trkpt><trkpt lat="44.7375917" lon="7.9445717"><ele>222.0</ele><time>2026-05-01T12:04:29.155Z</time></trkpt><trkpt lat="44.7374133" lon="7.944725"><ele>224.0</ele><time>2026-05-01T12:04:30.155Z</time></trkpt><trkpt lat="44.7372417" lon="7.9448767"><ele>224.0</ele><time>2026-05-01T12:04:31.157Z</time></trkpt><trkpt lat="44.73708" lon="7.94504"><ele>224.0</ele><time>2026-05-01T12:04:32.155Z</time></trkpt><trkpt lat="44.7369283" lon="7.9452117"><ele>224.0</ele><time>2026-05-01T12:04:33.157Z</time></trkpt><trkpt lat="44.7367833" lon="7.9453983"><ele>223.66666666666669</ele><time>2026-05-01T12:04:34.154Z</time></trkpt><trkpt lat="44.7366417" lon="7.9455833"><ele>223.33333333333331</ele><time>2026-05-01T12:04:35.155Z</time></trkpt><trkpt lat="44.7365" lon="7.9457667"><ele>223.0</ele><time>2026-05-01T12:04:36.152Z</time></trkpt><trkpt lat="44.73636" lon="7.9459483"><ele>224.66666666666666</ele><time>2026-05-01T12:04:37.154Z</time></trkpt><trkpt lat="44.7362233" lon="7.9461367"><ele>226.33333333333331</ele><time>2026-05-01T12:04:38.156Z</time></trkpt><trkpt lat="44.736095" lon="7.94633"><ele>228.0</ele><time>2026-05-01T12:04:39.154Z</time></trkpt><trkpt lat="44.7359733" lon="7.9465317"><ele>223.33333333333331</ele><time>2026-05-01T12:04:40.152Z</time></trkpt><trkpt lat="44.7358633" lon="7.946745"><ele>218.66666666666666</ele><time>2026-05-01T12:04:41.152Z</time></trkpt><trkpt lat="44.735765" lon="7.946965"><ele>214.0</ele><time>2026-05-01T12:04:42.153Z</time></trkpt><trkpt lat="44.7356633" lon="7.947185"><ele>214.0</ele><time>2026-05-01T12:04:43.154Z</time></trkpt><trkpt lat="44.7355633" lon="7.9474033"><ele>214.0</ele><time>2026-05-01T12:04:44.155Z</time></trkpt><trkpt lat="44.7354683" lon="7.947625"><ele>214.0</ele><time>2026-05-01T12:04:45.15Z</time></trkpt><trkpt lat="44.735375" lon="7.947835"><ele>213.66666666666666</ele><time>2026-05-01T12:04:46.154Z</time></trkpt><trkpt lat="44.7352883" lon="7.948035"><ele>213.33333333333331</ele><time>2026-05-01T12:04:47.156Z</time></trkpt><trkpt lat="44.73521" lon="7.9482183"><ele>213.0</ele><time>2026-05-01T12:04:48.158Z</time></trkpt><trkpt lat="44.7351333" lon="7.9483767"><ele>213.0</ele><time>2026-05-01T12:04:49.153Z</time></trkpt><trkpt lat="44.7350683" lon="7.948515"><ele>213.0</ele><time>2026-05-01T12:04:50.154Z</time></trkpt><trkpt lat="44.735015" lon="7.9486183"><ele>213.0</ele><time>2026-05-01T12:04:51.154Z</time></trkpt><trkpt lat="44.734965" lon="7.9487033"><ele>213.0</ele><time>2026-05-01T12:04:52.155Z</time></trkpt><trkpt lat="44.7348983" lon="7.9487167"><ele>213.0</ele><time>2026-05-01T12:04:53.155Z</time></trkpt><trkpt lat="44.7348383" lon="7.9486783"><ele>213.0</ele><time>2026-05-01T12:04:54.152Z</time></trkpt><trkpt lat="44.7347417" lon="7.9485717"><ele>213.0</ele><time>2026-05-01T12:04:56.152Z</time></trkpt><trkpt lat="44.734715" lon="7.9484517"><ele>213.0</ele><time>2026-05-01T12:04:57.153Z</time></trkpt><trkpt lat="44.7347167" lon="7.94824"><ele>213.0</ele><time>2026-05-01T12:04:58.153Z</time></trkpt><trkpt lat="44.734695" lon="7.9480167"><ele>213.0</ele><time>2026-05-01T12:04:59.155Z</time></trkpt><trkpt lat="44.7346717" lon="7.9477717"><ele>212.66666666666669</ele><time>2026-05-01T12:05:00.151Z</time></trkpt><trkpt lat="44.734645" lon="7.9475233"><ele>212.33333333333334</ele><time>2026-05-01T12:05:01.158Z</time></trkpt><trkpt lat="44.7346233" lon="7.9472517"><ele>212.0</ele><time>2026-05-01T12:05:02.153Z</time></trkpt><trkpt lat="44.7345967" lon="7.94696"><ele>211.5</ele><time>2026-05-01T12:05:03.154Z</time></trkpt><trkpt lat="44.7345683" lon="7.94664"><ele>211.0</ele><time>2026-05-01T12:05:04.151Z</time></trkpt><trkpt lat="44.7345417" lon="7.9463"><ele>211.0</ele><time>2026-05-01T12:05:05.155Z</time></trkpt><trkpt lat="44.7345083" lon="7.9459467"><ele>211.0</ele><time>2026-05-01T12:05:06.152Z</time></trkpt><trkpt lat="44.7344717" lon="7.9455967"><ele>210.5</ele><time>2026-05-01T12:05:07.157Z</time></trkpt><trkpt lat="44.7344333" lon="7.94525"><ele>210.0</ele><time>2026-05-01T12:05:08.151Z</time></trkpt><trkpt lat="44.7343933" lon="7.9449117"><ele>211.5</ele><time>2026-05-01T12:05:09.155Z</time></trkpt><trkpt lat="44.73436" lon="7.944585"><ele>213.0</ele><time>2026-05-01T12:05:10.156Z</time></trkpt><trkpt lat="44.734325" lon="7.9442683"><ele>215.0</ele><time>2026-05-01T12:05:11.159Z</time></trkpt><trkpt lat="44.734285" lon="7.94396"><ele>217.0</ele><time>2026-05-01T12:05:12.157Z</time></trkpt><trkpt lat="44.73425" lon="7.94366"><ele>219.0</ele><time>2026-05-01T12:05:13.16Z</time></trkpt><trkpt lat="44.734225" lon="7.9433683"><ele>219.33333333333331</ele><time>2026-05-01T12:05:14.153Z</time></trkpt><trkpt lat="44.7341967" lon="7.9430783"><ele>219.66666666666666</ele><time>2026-05-01T12:05:15.153Z</time></trkpt><trkpt lat="44.7341867" lon="7.9427883"><ele>220.0</ele><time>2026-05-01T12:05:16.154Z</time></trkpt><trkpt lat="44.7341867" lon="7.9424983"><ele>220.0</ele><time>2026-05-01T12:05:17.158Z</time></trkpt><trkpt lat="44.7342" lon="7.94221"><ele>220.0</ele><time>2026-05-01T12:05:18.158Z</time></trkpt><trkpt lat="44.7342233" lon="7.9419233"><ele>220.0</ele><time>2026-05-01T12:05:19.151Z</time></trkpt><trkpt lat="44.7342533" lon="7.94164"><ele>219.66666666666666</ele><time>2026-05-01T12:05:20.151Z</time></trkpt><trkpt lat="44.7342917" lon="7.9413617"><ele>219.33333333333331</ele><time>2026-05-01T12:05:21.153Z</time></trkpt><trkpt lat="44.734345" lon="7.94109"><ele>219.0</ele><time>2026-05-01T12:05:22.155Z</time></trkpt><trkpt lat="44.7344167" lon="7.9408233"><ele>219.66666666666669</ele><time>2026-05-01T12:05:23.154Z</time></trkpt><trkpt lat="44.7344983" lon="7.9405633"><ele>220.33333333333334</ele><time>2026-05-01T12:05:24.155Z</time></trkpt><trkpt lat="44.7345883" lon="7.9403033"><ele>221.0</ele><time>2026-05-01T12:05:25.153Z</time></trkpt><trkpt lat="44.7346817" lon="7.9400417"><ele>221.0</ele><time>2026-05-01T12:05:26.156Z</time></trkpt><trkpt lat="44.73478" lon="7.9397767"><ele>221.0</ele><time>2026-05-01T12:05:27.153Z</time></trkpt><trkpt lat="44.734875" lon="7.9395167"><ele>221.0</ele><time>2026-05-01T12:05:28.152Z</time></trkpt><trkpt lat="44.7349733" lon="7.9392483"><ele>220.0</ele><time>2026-05-01T12:05:29.155Z</time></trkpt><trkpt lat="44.7350733" lon="7.9389767"><ele>219.0</ele><time>2026-05-01T12:05:30.153Z</time></trkpt><trkpt lat="44.735175" lon="7.938705"><ele>218.0</ele><time>2026-05-01T12:05:31.151Z</time></trkpt><trkpt lat="44.7352717" lon="7.9384283"><ele>221.33333333333334</ele><time>2026-05-01T12:05:32.154Z</time></trkpt><trkpt lat="44.7353717" lon="7.93815"><ele>224.66666666666669</ele><time>2026-05-01T12:05:33.15Z</time></trkpt><trkpt lat="44.7354733" lon="7.93787"><ele>228.0</ele><time>2026-05-01T12:05:34.154Z</time></trkpt><trkpt lat="44.7355733" lon="7.9375867"><ele>226.0</ele><time>2026-05-01T12:05:35.152Z</time></trkpt><trkpt lat="44.7356733" lon="7.9373017"><ele>224.0</ele><time>2026-05-01T12:05:36.156Z</time></trkpt><trkpt lat="44.7357733" lon="7.9370117"><ele>224.0</ele><time>2026-05-01T12:05:37.157Z</time></trkpt><trkpt lat="44.735875" lon="7.936725"><ele>224.0</ele><time>2026-05-01T12:05:38.152Z</time></trkpt><trkpt lat="44.7359783" lon="7.93644"><ele>223.5</ele><time>2026-05-01T12:05:39.154Z</time></trkpt><trkpt lat="44.7360817" lon="7.93615"><ele>223.0</ele><time>2026-05-01T12:05:40.152Z</time></trkpt><trkpt lat="44.7361867" lon="7.9358567"><ele>223.0</ele><time>2026-05-01T12:05:41.157Z</time></trkpt><trkpt lat="44.7362917" lon="7.9355683"><ele>223.0</ele><time>2026-05-01T12:05:42.156Z</time></trkpt><trkpt lat="44.7363967" lon="7.935275"><ele>222.0</ele><time>2026-05-01T12:05:43.155Z</time></trkpt><trkpt lat="44.7364983" lon="7.9349833"><ele>221.0</ele><time>2026-05-01T12:05:44.155Z</time></trkpt><trkpt lat="44.7366017" lon="7.934695"><ele>221.0</ele><time>2026-05-01T12:05:45.15Z</time></trkpt><trkpt lat="44.7367067" lon="7.9344017"><ele>221.0</ele><time>2026-05-01T12:05:46.154Z</time></trkpt><trkpt lat="44.7368117" lon="7.9341083"><ele>223.5</ele><time>2026-05-01T12:05:47.153Z</time></trkpt><trkpt lat="44.73692" lon="7.9338083"><ele>226.0</ele><time>2026-05-01T12:05:48.152Z</time></trkpt><trkpt lat="44.7370317" lon="7.9335033"><ele>227.0</ele><time>2026-05-01T12:05:49.153Z</time></trkpt><trkpt lat="44.73714" lon="7.9331967"><ele>228.0</ele><time>2026-05-01T12:05:50.153Z</time></trkpt><trkpt lat="44.73725" lon="7.9328867"><ele>228.0</ele><time>2026-05-01T12:05:51.153Z</time></trkpt><trkpt lat="44.7373667" lon="7.9325833"><ele>228.0</ele><time>2026-05-01T12:05:52.153Z</time></trkpt><trkpt lat="44.7374767" lon="7.9322833"><ele>228.0</ele><time>2026-05-01T12:05:53.153Z</time></trkpt><trkpt lat="44.7375817" lon="7.9319883"><ele>228.0</ele><time>2026-05-01T12:05:54.153Z</time></trkpt><trkpt lat="44.7376767" lon="7.93171"><ele>232.0</ele><time>2026-05-01T12:05:55.155Z</time></trkpt><trkpt lat="44.737755" lon="7.9314433"><ele>236.0</ele><time>2026-05-01T12:05:56.154Z</time></trkpt><trkpt lat="44.737805" lon="7.9311883"><ele>240.0</ele><time>2026-05-01T12:05:57.157Z</time></trkpt><trkpt lat="44.7378233" lon="7.930935"><ele>244.0</ele><time>2026-05-01T12:05:58.154Z</time></trkpt><trkpt lat="44.737815" lon="7.930675"><ele>248.0</ele><time>2026-05-01T12:05:59.155Z</time></trkpt><trkpt lat="44.7377833" lon="7.9304117"><ele>252.0</ele><time>2026-05-01T12:06:00.154Z</time></trkpt><trkpt lat="44.7377333" lon="7.930145"><ele>246.0</ele><time>2026-05-01T12:06:01.152Z</time></trkpt><trkpt lat="44.7376867" lon="7.9298617"><ele>240.0</ele><time>2026-05-01T12:06:02.163Z</time></trkpt><trkpt lat="44.7376367" lon="7.9295683"><ele>234.0</ele><time>2026-05-01T12:06:03.154Z</time></trkpt><trkpt lat="44.7375867" lon="7.92927"><ele>234.33333333333331</ele><time>2026-05-01T12:06:04.155Z</time></trkpt><trkpt lat="44.7375367" lon="7.9289683"><ele>234.66666666666666</ele><time>2026-05-01T12:06:05.153Z</time></trkpt><trkpt lat="44.7374933" lon="7.928665"><ele>235.0</ele><time>2026-05-01T12:06:06.159Z</time></trkpt><trkpt lat="44.7374517" lon="7.9283617"><ele>235.33333333333331</ele><time>2026-05-01T12:06:07.153Z</time></trkpt><trkpt lat="44.7374133" lon="7.92807"><ele>235.66666666666669</ele><time>2026-05-01T12:06:08.156Z</time></trkpt><trkpt lat="44.73738" lon="7.927785"><ele>236.0</ele><time>2026-05-01T12:06:09.156Z</time></trkpt><trkpt lat="44.7373633" lon="7.9275"><ele>236.66666666666669</ele><time>2026-05-01T12:06:10.152Z</time></trkpt><trkpt lat="44.7373767" lon="7.92722"><ele>237.33333333333331</ele><time>2026-05-01T12:06:11.157Z</time></trkpt><trkpt lat="44.7374167" lon="7.9269483"><ele>238.0</ele><time>2026-05-01T12:06:12.153Z</time></trkpt><trkpt lat="44.73747" lon="7.9267033"><ele>238.66666666666666</ele><time>2026-05-01T12:06:13.155Z</time></trkpt><trkpt lat="44.737535" lon="7.9264717"><ele>239.33333333333331</ele><time>2026-05-01T12:06:14.153Z</time></trkpt><trkpt lat="44.7376167" lon="7.926255"><ele>240.0</ele><time>2026-05-01T12:06:15.155Z</time></trkpt><trkpt lat="44.7377167" lon="7.9260533"><ele>244.0</ele><time>2026-05-01T12:06:16.157Z</time></trkpt><trkpt lat="44.7378367" lon="7.925865"><ele>248.0</ele><time>2026-05-01T12:06:17.158Z</time></trkpt><trkpt lat="44.737965" lon="7.92567"><ele>252.0</ele><time>2026-05-01T12:06:18.16Z</time></trkpt><trkpt lat="44.7380917" lon="7.9254783"><ele>252.0</ele><time>2026-05-01T12:06:19.159Z</time></trkpt><trkpt lat="44.7382217" lon="7.9252767"><ele>252.0</ele><time>2026-05-01T12:06:20.155Z</time></trkpt><trkpt lat="44.7383567" lon="7.9250783"><ele>252.0</ele><time>2026-05-01T12:06:21.16Z</time></trkpt><trkpt lat="44.7384917" lon="7.9248783"><ele>256.0</ele><time>2026-05-01T12:06:22.16Z</time></trkpt><trkpt lat="44.738635" lon="7.9246933"><ele>260.0</ele><time>2026-05-01T12:06:23.154Z</time></trkpt><trkpt lat="44.73878" lon="7.9245183"><ele>264.0</ele><time>2026-05-01T12:06:24.159Z</time></trkpt><trkpt lat="44.73892" lon="7.9243517"><ele>261.3333333333333</ele><time>2026-05-01T12:06:25.158Z</time></trkpt><trkpt lat="44.739045" lon="7.92419"><ele>258.66666666666663</ele><time>2026-05-01T12:06:26.161Z</time></trkpt><trkpt lat="44.739145" lon="7.9240283"><ele>256.0</ele><time>2026-05-01T12:06:27.155Z</time></trkpt><trkpt lat="44.7392067" lon="7.9238683"><ele>256.0</ele><time>2026-05-01T12:06:28.159Z</time></trkpt><trkpt lat="44.7392283" lon="7.92369"><ele>256.0</ele><time>2026-05-01T12:06:29.155Z</time></trkpt><trkpt lat="44.7392133" lon="7.9234983"><ele>256.0</ele><time>2026-05-01T12:06:30.158Z</time></trkpt><trkpt lat="44.7391817" lon="7.9233117"><ele>256.0</ele><time>2026-05-01T12:06:31.157Z</time></trkpt><trkpt lat="44.739155" lon="7.92313"><ele>256.0</ele><time>2026-05-01T12:06:32.157Z</time></trkpt><trkpt lat="44.7391483" lon="7.9229633"><ele>256.0</ele><time>2026-05-01T12:06:33.154Z</time></trkpt><trkpt lat="44.73918" lon="7.922815"><ele>256.0</ele><time>2026-05-01T12:06:34.155Z</time></trkpt><trkpt lat="44.7392267" lon="7.9226783"><ele>256.0</ele><time>2026-05-01T12:06:35.154Z</time></trkpt><trkpt lat="44.7393217" lon="7.92258"><ele>260.25</ele><time>2026-05-01T12:06:36.162Z</time></trkpt><trkpt lat="44.73943" lon="7.9224967"><ele>264.5</ele><time>2026-05-01T12:06:37.153Z</time></trkpt><trkpt lat="44.7395467" lon="7.92242"><ele>268.75</ele><time>2026-05-01T12:06:38.158Z</time></trkpt><trkpt lat="44.7396433" lon="7.922295"><ele>273.0</ele><time>2026-05-01T12:06:39.155Z</time></trkpt><trkpt lat="44.73972" lon="7.9221333"><ele>273.0</ele><time>2026-05-01T12:06:40.155Z</time></trkpt><trkpt lat="44.73978" lon="7.92195"><ele>273.0</ele><time>2026-05-01T12:06:41.155Z</time></trkpt><trkpt lat="44.7398517" lon="7.921765"><ele>273.0</ele><time>2026-05-01T12:06:42.153Z</time></trkpt><trkpt lat="44.7399433" lon="7.9215933"><ele>273.0</ele><time>2026-05-01T12:06:43.156Z</time></trkpt><trkpt lat="44.740065" lon="7.9214417"><ele>274.3333333333333</ele><time>2026-05-01T12:06:44.155Z</time></trkpt><trkpt lat="44.7401917" lon="7.9212917"><ele>275.66666666666663</ele><time>2026-05-01T12:06:45.159Z</time></trkpt><trkpt lat="44.7403183" lon="7.9211317"><ele>277.0</ele><time>2026-05-01T12:06:46.16Z</time></trkpt><trkpt lat="44.7404333" lon="7.9209467"><ele>277.66666666666663</ele><time>2026-05-01T12:06:47.157Z</time></trkpt><trkpt lat="44.740535" lon="7.9207383"><ele>278.3333333333333</ele><time>2026-05-01T12:06:48.155Z</time></trkpt><trkpt lat="44.7406283" lon="7.920515"><ele>279.0</ele><time>2026-05-01T12:06:49.164Z</time></trkpt><trkpt lat="44.74072" lon="7.920295"><ele>279.0</ele><time>2026-05-01T12:06:50.157Z</time></trkpt><trkpt lat="44.7408133" lon="7.9200883"><ele>279.0</ele><time>2026-05-01T12:06:51.157Z</time></trkpt><trkpt lat="44.7409033" lon="7.9198917"><ele>279.0</ele><time>2026-05-01T12:06:52.155Z</time></trkpt><trkpt lat="44.7409917" lon="7.919705"><ele>278.5</ele><time>2026-05-01T12:06:53.153Z</time></trkpt><trkpt lat="44.741075" lon="7.9195283"><ele>278.0</ele><time>2026-05-01T12:06:54.155Z</time></trkpt><trkpt lat="44.7411517" lon="7.9193683"><ele>277.5</ele><time>2026-05-01T12:06:55.161Z</time></trkpt><trkpt lat="44.7412233" lon="7.919215"><ele>277.0</ele><time>2026-05-01T12:06:56.157Z</time></trkpt><trkpt lat="44.741285" lon="7.9190583"><ele>276.75</ele><time>2026-05-01T12:06:57.154Z</time></trkpt><trkpt lat="44.7413283" lon="7.9189"><ele>276.5</ele><time>2026-05-01T12:06:58.154Z</time></trkpt><trkpt lat="44.7413433" lon="7.9187217"><ele>276.25</ele><time>2026-05-01T12:06:59.155Z</time></trkpt><trkpt lat="44.7413517" lon="7.9185533"><ele>276.0</ele><time>2026-05-01T12:07:00.158Z</time></trkpt><trkpt lat="44.7413567" lon="7.9183983"><ele>276.0</ele><time>2026-05-01T12:07:01.155Z</time></trkpt><trkpt lat="44.741355" lon="7.91824"><ele>276.0</ele><time>2026-05-01T12:07:02.154Z</time></trkpt><trkpt lat="44.7413533" lon="7.9180733"><ele>276.0</ele><time>2026-05-01T12:07:03.151Z</time></trkpt><trkpt lat="44.7413483" lon="7.9178967"><ele>276.0</ele><time>2026-05-01T12:07:04.153Z</time></trkpt><trkpt lat="44.741355" lon="7.9177133"><ele>277.25</ele><time>2026-05-01T12:07:05.155Z</time></trkpt><trkpt lat="44.7413583" lon="7.91753"><ele>278.5</ele><time>2026-05-01T12:07:06.154Z</time></trkpt><trkpt lat="44.7413617" lon="7.9173533"><ele>279.75</ele><time>2026-05-01T12:07:07.157Z</time></trkpt><trkpt lat="44.7413633" lon="7.9171883"><ele>281.0</ele><time>2026-05-01T12:07:08.154Z</time></trkpt><trkpt lat="44.7413583" lon="7.9170267"><ele>281.0</ele><time>2026-05-01T12:07:09.156Z</time></trkpt><trkpt lat="44.7413483" lon="7.916865"><ele>281.0</ele><time>2026-05-01T12:07:10.152Z</time></trkpt><trkpt lat="44.7413217" lon="7.91671"><ele>281.0</ele><time>2026-05-01T12:07:11.155Z</time></trkpt><trkpt lat="44.7412717" lon="7.9165633"><ele>281.0</ele><time>2026-05-01T12:07:12.154Z</time></trkpt><trkpt lat="44.7412033" lon="7.91643"><ele>281.5</ele><time>2026-05-01T12:07:13.152Z</time></trkpt><trkpt lat="44.7411217" lon="7.9163117"><ele>282.0</ele><time>2026-05-01T12:07:14.156Z</time></trkpt><trkpt lat="44.74103" lon="7.9162083"><ele>282.5</ele><time>2026-05-01T12:07:15.156Z</time></trkpt><trkpt lat="44.7409317" lon="7.9161167"><ele>283.0</ele><time>2026-05-01T12:07:16.153Z</time></trkpt><trkpt lat="44.740835" lon="7.9160267"><ele>285.25</ele><time>2026-05-01T12:07:17.156Z</time></trkpt><trkpt lat="44.7407317" lon="7.9159417"><ele>287.5</ele><time>2026-05-01T12:07:18.154Z</time></trkpt><trkpt lat="44.740625" lon="7.91586"><ele>289.75</ele><time>2026-05-01T12:07:19.154Z</time></trkpt><trkpt lat="44.7405217" lon="7.9157667"><ele>292.0</ele><time>2026-05-01T12:07:20.157Z</time></trkpt><trkpt lat="44.7404167" lon="7.915675"><ele>292.0</ele><time>2026-05-01T12:07:21.153Z</time></trkpt><trkpt lat="44.7403117" lon="7.915595"><ele>292.0</ele><time>2026-05-01T12:07:22.161Z</time></trkpt><trkpt lat="44.7402267" lon="7.91552"><ele>292.0</ele><time>2026-05-01T12:07:23.156Z</time></trkpt><trkpt lat="44.7401567" lon="7.9154483"><ele>292.0</ele><time>2026-05-01T12:07:24.154Z</time></trkpt><trkpt lat="44.7400967" lon="7.9153733"><ele>292.0</ele><time>2026-05-01T12:07:25.158Z</time></trkpt><trkpt lat="44.7400483" lon="7.9152967"><ele>291.8</ele><time>2026-05-01T12:07:26.156Z</time></trkpt><trkpt lat="44.740015" lon="7.9151983"><ele>291.6</ele><time>2026-05-01T12:07:27.153Z</time></trkpt><trkpt lat="44.7399983" lon="7.9150783"><ele>291.40000000000003</ele><time>2026-05-01T12:07:28.154Z</time></trkpt><trkpt lat="44.7399883" lon="7.9149383"><ele>291.2</ele><time>2026-05-01T12:07:29.154Z</time></trkpt><trkpt lat="44.7399883" lon="7.914775"><ele>291.0</ele><time>2026-05-01T12:07:30.153Z</time></trkpt><trkpt lat="44.7399767" lon="7.914605"><ele>292.25</ele><time>2026-05-01T12:07:31.155Z</time></trkpt><trkpt lat="44.73995" lon="7.914435"><ele>293.5</ele><time>2026-05-01T12:07:32.156Z</time></trkpt><trkpt lat="44.7399017" lon="7.9142667"><ele>294.75</ele><time>2026-05-01T12:07:33.152Z</time></trkpt><trkpt lat="44.739835" lon="7.9141117"><ele>296.0</ele><time>2026-05-01T12:07:34.155Z</time></trkpt><trkpt lat="44.739755" lon="7.9139617"><ele>297.25</ele><time>2026-05-01T12:07:35.156Z</time></trkpt><trkpt lat="44.739665" lon="7.91383"><ele>298.5</ele><time>2026-05-01T12:07:36.153Z</time></trkpt><trkpt lat="44.7395733" lon="7.9137"><ele>299.75</ele><time>2026-05-01T12:07:37.154Z</time></trkpt><trkpt lat="44.73948" lon="7.913585"><ele>301.0</ele><time>2026-05-01T12:07:38.153Z</time></trkpt><trkpt lat="44.7393933" lon="7.913475"><ele>301.0</ele><time>2026-05-01T12:07:39.155Z</time></trkpt><trkpt lat="44.7393083" lon="7.9133617"><ele>301.0</ele><time>2026-05-01T12:07:40.152Z</time></trkpt><trkpt lat="44.73923" lon="7.91325"><ele>301.0</ele><time>2026-05-01T12:07:41.156Z</time></trkpt><trkpt lat="44.73917" lon="7.9131283"><ele>301.0</ele><time>2026-05-01T12:07:42.154Z</time></trkpt><trkpt lat="44.739145" lon="7.9129933"><ele>301.0</ele><time>2026-05-01T12:07:43.154Z</time></trkpt><trkpt lat="44.7391433" lon="7.9128533"><ele>301.0</ele><time>2026-05-01T12:07:44.156Z</time></trkpt><trkpt lat="44.7391717" lon="7.912715"><ele>301.0</ele><time>2026-05-01T12:07:45.155Z</time></trkpt><trkpt lat="44.7392267" lon="7.9125933"><ele>301.0</ele><time>2026-05-01T12:07:46.155Z</time></trkpt><trkpt lat="44.7393" lon="7.9124833"><ele>301.0</ele><time>2026-05-01T12:07:47.161Z</time></trkpt><trkpt lat="44.73939" lon="7.912375"><ele>301.0</ele><time>2026-05-01T12:07:48.153Z</time></trkpt><trkpt lat="44.7395033" lon="7.9122517"><ele>302.0</ele><time>2026-05-01T12:07:49.154Z</time></trkpt><trkpt lat="44.7396483" lon="7.91212"><ele>303.0</ele><time>2026-05-01T12:07:50.155Z</time></trkpt><trkpt lat="44.7398067" lon="7.9119967"><ele>304.0</ele><time>2026-05-01T12:07:51.159Z</time></trkpt><trkpt lat="44.7399483" lon="7.9118733"><ele>304.0</ele><time>2026-05-01T12:07:52.156Z</time></trkpt><trkpt lat="44.740065" lon="7.9117583"><ele>304.0</ele><time>2026-05-01T12:07:53.156Z</time></trkpt><trkpt lat="44.7401417" lon="7.91163"><ele>304.0</ele><time>2026-05-01T12:07:54.158Z</time></trkpt><trkpt lat="44.740185" lon="7.911485"><ele>304.0</ele><time>2026-05-01T12:07:55.161Z</time></trkpt><trkpt lat="44.7401967" lon="7.9113317"><ele>307.25</ele><time>2026-05-01T12:07:56.154Z</time></trkpt><trkpt lat="44.7401767" lon="7.9111733"><ele>310.5</ele><time>2026-05-01T12:07:57.154Z</time></trkpt><trkpt lat="44.7401567" lon="7.911"><ele>313.75</ele><time>2026-05-01T12:07:58.156Z</time></trkpt><trkpt lat="44.7401467" lon="7.9108233"><ele>317.0</ele><time>2026-05-01T12:07:59.157Z</time></trkpt><trkpt lat="44.7401467" lon="7.910645"><ele>318.4</ele><time>2026-05-01T12:08:00.154Z</time></trkpt><trkpt lat="44.74015" lon="7.9104733"><ele>319.79999999999995</ele><time>2026-05-01T12:08:01.157Z</time></trkpt><trkpt lat="44.7401417" lon="7.910315"><ele>321.2</ele><time>2026-05-01T12:08:02.154Z</time></trkpt><trkpt lat="44.7401017" lon="7.9102117"><ele>322.59999999999997</ele><time>2026-05-01T12:08:03.156Z</time></trkpt><trkpt lat="44.7400617" lon="7.91013"><ele>324.0</ele><time>2026-05-01T12:08:04.154Z</time></trkpt><trkpt lat="44.740015" lon="7.910055"><ele>324.79999999999995</ele><time>2026-05-01T12:08:05.154Z</time></trkpt><trkpt lat="44.7399583" lon="7.9099883"><ele>325.59999999999997</ele><time>2026-05-01T12:08:06.155Z</time></trkpt><trkpt lat="44.739885" lon="7.9099283"><ele>326.4</ele><time>2026-05-01T12:08:07.158Z</time></trkpt><trkpt lat="44.739815" lon="7.9098383"><ele>327.2</ele><time>2026-05-01T12:08:08.154Z</time></trkpt><trkpt lat="44.7397533" lon="7.9096883"><ele>328.0</ele><time>2026-05-01T12:08:09.152Z</time></trkpt><trkpt lat="44.7396933" lon="7.9095233"><ele>328.0</ele><time>2026-05-01T12:08:10.154Z</time></trkpt><trkpt lat="44.7396533" lon="7.9093367"><ele>328.0</ele><time>2026-05-01T12:08:11.156Z</time></trkpt><trkpt lat="44.73962" lon="7.90915"><ele>328.0</ele><time>2026-05-01T12:08:12.155Z</time></trkpt><trkpt lat="44.7395867" lon="7.9089633"><ele>328.0</ele><time>2026-05-01T12:08:13.157Z</time></trkpt><trkpt lat="44.7395333" lon="7.90878"><ele>328.5</ele><time>2026-05-01T12:08:14.154Z</time></trkpt><trkpt lat="44.7394533" lon="7.9086217"><ele>329.0</ele><time>2026-05-01T12:08:15.154Z</time></trkpt><trkpt lat="44.7393483" lon="7.9084783"><ele>329.5</ele><time>2026-05-01T12:08:16.156Z</time></trkpt><trkpt lat="44.7392333" lon="7.9083333"><ele>330.0</ele><time>2026-05-01T12:08:17.157Z</time></trkpt><trkpt lat="44.7391267" lon="7.9081667"><ele>327.3333333333333</ele><time>2026-05-01T12:08:18.157Z</time></trkpt><trkpt lat="44.7390433" lon="7.9079733"><ele>324.66666666666663</ele><time>2026-05-01T12:08:19.151Z</time></trkpt><trkpt lat="44.73897" lon="7.90777"><ele>322.0</ele><time>2026-05-01T12:08:20.154Z</time></trkpt><trkpt lat="44.7389083" lon="7.9075717"><ele>322.0</ele><time>2026-05-01T12:08:21.151Z</time></trkpt><trkpt lat="44.73887" lon="7.9073967"><ele>322.0</ele><time>2026-05-01T12:08:22.153Z</time></trkpt><trkpt lat="44.738865" lon="7.9072267"><ele>322.0</ele><time>2026-05-01T12:08:23.154Z</time></trkpt><trkpt lat="44.7389" lon="7.9070633"><ele>322.0</ele><time>2026-05-01T12:08:24.151Z</time></trkpt><trkpt lat="44.738945" lon="7.9069"><ele>320.5</ele><time>2026-05-01T12:08:25.155Z</time></trkpt><trkpt lat="44.738985" lon="7.9067283"><ele>319.0</ele><time>2026-05-01T12:08:26.155Z</time></trkpt><trkpt lat="44.7389983" lon="7.9065483"><ele>317.5</ele><time>2026-05-01T12:08:27.153Z</time></trkpt><trkpt lat="44.73899" lon="7.90637"><ele>316.0</ele><time>2026-05-01T12:08:28.155Z</time></trkpt><trkpt lat="44.7389517" lon="7.9062017"><ele>316.0</ele><time>2026-05-01T12:08:29.155Z</time></trkpt><trkpt lat="44.7388817" lon="7.90606"><ele>316.0</ele><time>2026-05-01T12:08:30.156Z</time></trkpt><trkpt lat="44.73878" lon="7.905935"><ele>316.0</ele><time>2026-05-01T12:08:31.158Z</time></trkpt><trkpt lat="44.7386583" lon="7.9058167"><ele>316.0</ele><time>2026-05-01T12:08:32.151Z</time></trkpt><trkpt lat="44.73852" lon="7.905695"><ele>313.0</ele><time>2026-05-01T12:08:33.156Z</time></trkpt><trkpt lat="44.7383733" lon="7.9055667"><ele>310.0</ele><time>2026-05-01T12:08:34.159Z</time></trkpt><trkpt lat="44.7382167" lon="7.9054417"><ele>307.0</ele><time>2026-05-01T12:08:35.159Z</time></trkpt><trkpt lat="44.7380617" lon="7.90532"><ele>307.0</ele><time>2026-05-01T12:08:36.157Z</time></trkpt><trkpt lat="44.7379067" lon="7.9052"><ele>307.0</ele><time>2026-05-01T12:08:37.154Z</time></trkpt><trkpt lat="44.7377533" lon="7.905075"><ele>307.0</ele><time>2026-05-01T12:08:38.156Z</time></trkpt><trkpt lat="44.7376" lon="7.904955"><ele>305.0</ele><time>2026-05-01T12:08:39.154Z</time></trkpt><trkpt lat="44.737455" lon="7.904835"><ele>303.0</ele><time>2026-05-01T12:08:40.155Z</time></trkpt><trkpt lat="44.73731" lon="7.90472"><ele>301.0</ele><time>2026-05-01T12:08:41.154Z</time></trkpt><trkpt lat="44.73717" lon="7.9046117"><ele>301.0</ele><time>2026-05-01T12:08:42.154Z</time></trkpt><trkpt lat="44.737055" lon="7.9044933"><ele>301.0</ele><time>2026-05-01T12:08:43.155Z</time></trkpt><trkpt lat="44.736965" lon="7.9043633"><ele>301.0</ele><time>2026-05-01T12:08:44.153Z</time></trkpt><trkpt lat="44.7369067" lon="7.90422"><ele>301.0</ele><time>2026-05-01T12:08:45.156Z</time></trkpt><trkpt lat="44.7368867" lon="7.90405"><ele>301.5</ele><time>2026-05-01T12:08:46.158Z</time></trkpt><trkpt lat="44.736885" lon="7.9038617"><ele>302.0</ele><time>2026-05-01T12:08:47.154Z</time></trkpt><trkpt lat="44.7368967" lon="7.903665"><ele>302.5</ele><time>2026-05-01T12:08:48.155Z</time></trkpt><trkpt lat="44.7369067" lon="7.903455"><ele>303.0</ele><time>2026-05-01T12:08:49.155Z</time></trkpt><trkpt lat="44.736895" lon="7.9032467"><ele>301.0</ele><time>2026-05-01T12:08:50.156Z</time></trkpt><trkpt lat="44.73687" lon="7.9030567"><ele>299.0</ele><time>2026-05-01T12:08:51.153Z</time></trkpt><trkpt lat="44.7368183" lon="7.9028667"><ele>297.0</ele><time>2026-05-01T12:08:52.156Z</time></trkpt><trkpt lat="44.73675" lon="7.9026733"><ele>295.0</ele><time>2026-05-01T12:08:53.155Z</time></trkpt><trkpt lat="44.736675" lon="7.9024817"><ele>294.0</ele><time>2026-05-01T12:08:54.153Z</time></trkpt><trkpt lat="44.73659" lon="7.902285"><ele>293.0</ele><time>2026-05-01T12:08:55.152Z</time></trkpt><trkpt lat="44.736495" lon="7.9020967"><ele>292.0</ele><time>2026-05-01T12:08:56.153Z</time></trkpt><trkpt lat="44.7363917" lon="7.9019267"><ele>292.0</ele><time>2026-05-01T12:08:57.154Z</time></trkpt><trkpt lat="44.7362767" lon="7.901785"><ele>292.0</ele><time>2026-05-01T12:08:58.156Z</time></trkpt><trkpt lat="44.73616" lon="7.90167"><ele>292.0</ele><time>2026-05-01T12:08:59.165Z</time></trkpt><trkpt lat="44.73603" lon="7.9015783"><ele>292.0</ele><time>2026-05-01T12:09:00.154Z</time></trkpt><trkpt lat="44.73588" lon="7.9015083"><ele>291.3333333333333</ele><time>2026-05-01T12:09:01.155Z</time></trkpt><trkpt lat="44.7357167" lon="7.9014633"><ele>290.6666666666667</ele><time>2026-05-01T12:09:02.156Z</time></trkpt><trkpt lat="44.7355417" lon="7.9014467"><ele>290.0</ele><time>2026-05-01T12:09:03.16Z</time></trkpt><trkpt lat="44.7353567" lon="7.90146"><ele>289.0</ele><time>2026-05-01T12:09:04.158Z</time></trkpt><trkpt lat="44.7351667" lon="7.9014867"><ele>288.0</ele><time>2026-05-01T12:09:05.153Z</time></trkpt><trkpt lat="44.7349733" lon="7.9015183"><ele>287.0</ele><time>2026-05-01T12:09:06.154Z</time></trkpt><trkpt lat="44.7347867" lon="7.90155"><ele>287.0</ele><time>2026-05-01T12:09:07.154Z</time></trkpt><trkpt lat="44.7346" lon="7.90158"><ele>287.0</ele><time>2026-05-01T12:09:08.152Z</time></trkpt><trkpt lat="44.7344117" lon="7.9016067"><ele>287.0</ele><time>2026-05-01T12:09:09.153Z</time></trkpt><trkpt lat="44.7342183" lon="7.9016383"><ele>285.6666666666667</ele><time>2026-05-01T12:09:10.156Z</time></trkpt><trkpt lat="44.7340267" lon="7.9016667"><ele>284.3333333333333</ele><time>2026-05-01T12:09:11.159Z</time></trkpt><trkpt lat="44.7338283" lon="7.901695"><ele>283.0</ele><time>2026-05-01T12:09:12.153Z</time></trkpt><trkpt lat="44.7336317" lon="7.9017233"><ele>284.3333333333333</ele><time>2026-05-01T12:09:13.154Z</time></trkpt><trkpt lat="44.733435" lon="7.9017583"><ele>285.6666666666667</ele><time>2026-05-01T12:09:14.154Z</time></trkpt><trkpt lat="44.7332383" lon="7.9017917"><ele>287.0</ele><time>2026-05-01T12:09:15.156Z</time></trkpt><trkpt lat="44.7330467" lon="7.9018233"><ele>287.0</ele><time>2026-05-01T12:09:16.153Z</time></trkpt><trkpt lat="44.7328567" lon="7.9018533"><ele>287.0</ele><time>2026-05-01T12:09:17.156Z</time></trkpt><trkpt lat="44.7326683" lon="7.9018817"><ele>287.0</ele><time>2026-05-01T12:09:18.156Z</time></trkpt><trkpt lat="44.7324783" lon="7.9019133"><ele>286.33333333333337</ele><time>2026-05-01T12:09:19.162Z</time></trkpt><trkpt lat="44.73229" lon="7.9019433"><ele>285.6666666666667</ele><time>2026-05-01T12:09:20.16Z</time></trkpt><trkpt lat="44.7321067" lon="7.9019517"><ele>285.0</ele><time>2026-05-01T12:09:21.156Z</time></trkpt><trkpt lat="44.7319217" lon="7.9019267"><ele>284.0</ele><time>2026-05-01T12:09:22.156Z</time></trkpt><trkpt lat="44.7317433" lon="7.9018633"><ele>283.0</ele><time>2026-05-01T12:09:23.158Z</time></trkpt><trkpt lat="44.7315667" lon="7.9017733"><ele>282.0</ele><time>2026-05-01T12:09:24.16Z</time></trkpt><trkpt lat="44.7313867" lon="7.901685"><ele>281.3333333333333</ele><time>2026-05-01T12:09:25.159Z</time></trkpt><trkpt lat="44.7312083" lon="7.90159"><ele>280.66666666666663</ele><time>2026-05-01T12:09:26.157Z</time></trkpt><trkpt lat="44.7310233" lon="7.90152"><ele>280.0</ele><time>2026-05-01T12:09:27.154Z</time></trkpt><trkpt lat="44.7308417" lon="7.9014817"><ele>280.0</ele><time>2026-05-01T12:09:28.155Z</time></trkpt><trkpt lat="44.7306583" lon="7.90148"><ele>280.0</ele><time>2026-05-01T12:09:29.162Z</time></trkpt><trkpt lat="44.7304667" lon="7.9015"><ele>280.0</ele><time>2026-05-01T12:09:30.157Z</time></trkpt><trkpt lat="44.7302733" lon="7.9015433"><ele>278.66666666666663</ele><time>2026-05-01T12:09:31.153Z</time></trkpt><trkpt lat="44.7300733" lon="7.90159"><ele>277.3333333333333</ele><time>2026-05-01T12:09:32.153Z</time></trkpt><trkpt lat="44.729875" lon="7.9016283"><ele>276.0</ele><time>2026-05-01T12:09:33.162Z</time></trkpt><trkpt lat="44.72968" lon="7.9016517"><ele>276.0</ele><time>2026-05-01T12:09:34.153Z</time></trkpt><trkpt lat="44.7294967" lon="7.9016417"><ele>276.0</ele><time>2026-05-01T12:09:35.158Z</time></trkpt><trkpt lat="44.7293117" lon="7.90159"><ele>276.0</ele><time>2026-05-01T12:09:36.154Z</time></trkpt><trkpt lat="44.729135" lon="7.9015017"><ele>274.6666666666667</ele><time>2026-05-01T12:09:37.154Z</time></trkpt><trkpt lat="44.7289667" lon="7.9013883"><ele>273.33333333333337</ele><time>2026-05-01T12:09:38.155Z</time></trkpt><trkpt lat="44.7288117" lon="7.90126"><ele>272.0</ele><time>2026-05-01T12:09:39.155Z</time></trkpt><trkpt lat="44.7286583" lon="7.9011583"><ele>271.0</ele><time>2026-05-01T12:09:40.153Z</time></trkpt><trkpt lat="44.7284967" lon="7.901095"><ele>270.0</ele><time>2026-05-01T12:09:41.154Z</time></trkpt><trkpt lat="44.728335" lon="7.9010633"><ele>269.0</ele><time>2026-05-01T12:09:42.153Z</time></trkpt><trkpt lat="44.7281683" lon="7.9010733"><ele>269.0</ele><time>2026-05-01T12:09:43.152Z</time></trkpt><trkpt lat="44.7280033" lon="7.90113"><ele>269.0</ele><time>2026-05-01T12:09:44.155Z</time></trkpt><trkpt lat="44.727845" lon="7.9012233"><ele>269.0</ele><time>2026-05-01T12:09:45.154Z</time></trkpt><trkpt lat="44.7276883" lon="7.90133"><ele>270.33333333333337</ele><time>2026-05-01T12:09:46.153Z</time></trkpt><trkpt lat="44.7275367" lon="7.901455"><ele>271.6666666666667</ele><time>2026-05-01T12:09:47.159Z</time></trkpt><trkpt lat="44.727375" lon="7.9015467"><ele>273.0</ele><time>2026-05-01T12:09:48.152Z</time></trkpt><trkpt lat="44.727205" lon="7.9016267"><ele>273.0</ele><time>2026-05-01T12:09:49.157Z</time></trkpt><trkpt lat="44.7270267" lon="7.9016867"><ele>273.0</ele><time>2026-05-01T12:09:50.151Z</time></trkpt><trkpt lat="44.72684" lon="7.9017567"><ele>273.0</ele><time>2026-05-01T12:09:51.152Z</time></trkpt><trkpt lat="44.7266417" lon="7.9018117"><ele>272.0</ele><time>2026-05-01T12:09:52.154Z</time></trkpt><trkpt lat="44.726445" lon="7.90186"><ele>271.0</ele><time>2026-05-01T12:09:53.155Z</time></trkpt><trkpt lat="44.7262467" lon="7.9019067"><ele>270.0</ele><time>2026-05-01T12:09:54.157Z</time></trkpt><trkpt lat="44.7260467" lon="7.9019633"><ele>269.0</ele><time>2026-05-01T12:09:55.153Z</time></trkpt><trkpt lat="44.7258467" lon="7.9020117"><ele>268.0</ele><time>2026-05-01T12:09:56.151Z</time></trkpt><trkpt lat="44.725645" lon="7.9020583"><ele>267.0</ele><time>2026-05-01T12:09:57.151Z</time></trkpt><trkpt lat="44.7254467" lon="7.9021117"><ele>267.0</ele><time>2026-05-01T12:09:58.156Z</time></trkpt><trkpt lat="44.725245" lon="7.902165"><ele>267.0</ele><time>2026-05-01T12:09:59.156Z</time></trkpt><trkpt lat="44.72504" lon="7.90222"><ele>267.0</ele><time>2026-05-01T12:10:00.154Z</time></trkpt><trkpt lat="44.72483" lon="7.9022733"><ele>264.6666666666667</ele><time>2026-05-01T12:10:01.156Z</time></trkpt><trkpt lat="44.7246217" lon="7.9023233"><ele>262.33333333333337</ele><time>2026-05-01T12:10:02.152Z</time></trkpt><trkpt lat="44.724415" lon="7.9023717"><ele>260.0</ele><time>2026-05-01T12:10:03.155Z</time></trkpt><trkpt lat="44.7242067" lon="7.9024167"><ele>260.0</ele><time>2026-05-01T12:10:04.152Z</time></trkpt><trkpt lat="44.724" lon="7.9024617"><ele>260.0</ele><time>2026-05-01T12:10:05.152Z</time></trkpt><trkpt lat="44.7237967" lon="7.9025067"><ele>260.0</ele><time>2026-05-01T12:10:06.151Z</time></trkpt><trkpt lat="44.723605" lon="7.90255"><ele>258.25</ele><time>2026-05-01T12:10:07.157Z</time></trkpt><trkpt lat="44.7234333" lon="7.9025933"><ele>256.5</ele><time>2026-05-01T12:10:08.155Z</time></trkpt><trkpt lat="44.723285" lon="7.9026217"><ele>254.75</ele><time>2026-05-01T12:10:09.15Z</time></trkpt><trkpt lat="44.7231617" lon="7.9026517"><ele>253.0</ele><time>2026-05-01T12:10:10.165Z</time></trkpt><trkpt lat="44.7230533" lon="7.9026717"><ele>252.99999999999997</ele><time>2026-05-01T12:10:11.158Z</time></trkpt><trkpt lat="44.7229717" lon="7.9026817"><ele>253.0</ele><time>2026-05-01T12:10:12.155Z</time></trkpt><trkpt lat="44.7228983" lon="7.902695"><ele>253.0</ele><time>2026-05-01T12:10:13.156Z</time></trkpt><trkpt lat="44.7228367" lon="7.9027133"><ele>253.0</ele><time>2026-05-01T12:10:14.155Z</time></trkpt><trkpt lat="44.72276" lon="7.9028517"><ele>252.99999999999997</ele><time>2026-05-01T12:10:16.155Z</time></trkpt><trkpt lat="44.72275" lon="7.90295"><ele>253.0</ele><time>2026-05-01T12:10:17.157Z</time></trkpt><trkpt lat="44.7227783" lon="7.9030883"><ele>253.0</ele><time>2026-05-01T12:10:18.158Z</time></trkpt><trkpt lat="44.7228067" lon="7.903245"><ele>253.0</ele><time>2026-05-01T12:10:19.155Z</time></trkpt><trkpt lat="44.7228317" lon="7.903415"><ele>253.0</ele><time>2026-05-01T12:10:20.156Z</time></trkpt><trkpt lat="44.72284" lon="7.9036017"><ele>253.0</ele><time>2026-05-01T12:10:21.152Z</time></trkpt><trkpt lat="44.7228133" lon="7.9037983"><ele>252.0</ele><time>2026-05-01T12:10:22.155Z</time></trkpt><trkpt lat="44.7227633" lon="7.904"><ele>251.0</ele><time>2026-05-01T12:10:23.153Z</time></trkpt><trkpt lat="44.7226967" lon="7.9041933"><ele>250.0</ele><time>2026-05-01T12:10:24.153Z</time></trkpt><trkpt lat="44.7226183" lon="7.9043767"><ele>250.0</ele><time>2026-05-01T12:10:25.151Z</time></trkpt><trkpt lat="44.7225433" lon="7.90455"><ele>250.0</ele><time>2026-05-01T12:10:26.154Z</time></trkpt><trkpt lat="44.7224667" lon="7.90472"><ele>250.0</ele><time>2026-05-01T12:10:27.154Z</time></trkpt><trkpt lat="44.722395" lon="7.9048833"><ele>250.0</ele><time>2026-05-01T12:10:28.151Z</time></trkpt><trkpt lat="44.7223217" lon="7.9050383"><ele>250.0</ele><time>2026-05-01T12:10:29.156Z</time></trkpt><trkpt lat="44.7222517" lon="7.9051917"><ele>250.0</ele><time>2026-05-01T12:10:30.156Z</time></trkpt><trkpt lat="44.722185" lon="7.9053367"><ele>250.0</ele><time>2026-05-01T12:10:31.157Z</time></trkpt><trkpt lat="44.7221183" lon="7.9054783"><ele>250.0</ele><time>2026-05-01T12:10:32.153Z</time></trkpt><trkpt lat="44.7220517" lon="7.9056117"><ele>250.0</ele><time>2026-05-01T12:10:33.158Z</time></trkpt><trkpt lat="44.7219883" lon="7.90574"><ele>250.0</ele><time>2026-05-01T12:10:34.153Z</time></trkpt><trkpt lat="44.7219183" lon="7.9058583"><ele>250.0</ele><time>2026-05-01T12:10:35.155Z</time></trkpt><trkpt lat="44.7218417" lon="7.9059667"><ele>250.0</ele><time>2026-05-01T12:10:36.152Z</time></trkpt><trkpt lat="44.7217583" lon="7.906065"><ele>250.0</ele><time>2026-05-01T12:10:37.157Z</time></trkpt><trkpt lat="44.72167" lon="7.90616"><ele>249.75</ele><time>2026-05-01T12:10:38.16Z</time></trkpt><trkpt lat="44.721575" lon="7.9062433"><ele>249.5</ele><time>2026-05-01T12:10:39.152Z</time></trkpt><trkpt lat="44.72147" lon="7.906315"><ele>249.25</ele><time>2026-05-01T12:10:40.156Z</time></trkpt><trkpt lat="44.7213617" lon="7.90638"><ele>249.0</ele><time>2026-05-01T12:10:41.154Z</time></trkpt><trkpt lat="44.7212417" lon="7.906435"><ele>249.0</ele><time>2026-05-01T12:10:42.153Z</time></trkpt><trkpt lat="44.7211233" lon="7.9064933"><ele>249.0</ele><time>2026-05-01T12:10:43.153Z</time></trkpt><trkpt lat="44.7209983" lon="7.90656"><ele>249.0</ele><time>2026-05-01T12:10:44.155Z</time></trkpt><trkpt lat="44.7208717" lon="7.9066233"><ele>249.0</ele><time>2026-05-01T12:10:45.157Z</time></trkpt><trkpt lat="44.7207467" lon="7.9066933"><ele>248.25</ele><time>2026-05-01T12:10:46.153Z</time></trkpt><trkpt lat="44.7206233" lon="7.9067683"><ele>247.5</ele><time>2026-05-01T12:10:47.155Z</time></trkpt><trkpt lat="44.720505" lon="7.90685"><ele>246.75</ele><time>2026-05-01T12:10:48.155Z</time></trkpt><trkpt lat="44.7203883" lon="7.9069467"><ele>246.0</ele><time>2026-05-01T12:10:49.16Z</time></trkpt><trkpt lat="44.7202733" lon="7.9070517"><ele>245.75</ele><time>2026-05-01T12:10:50.156Z</time></trkpt><trkpt lat="44.7201567" lon="7.9071583"><ele>245.5</ele><time>2026-05-01T12:10:51.15Z</time></trkpt><trkpt lat="44.7200383" lon="7.9072633"><ele>245.25</ele><time>2026-05-01T12:10:52.154Z</time></trkpt><trkpt lat="44.719915" lon="7.9073633"><ele>245.0</ele><time>2026-05-01T12:10:53.157Z</time></trkpt><trkpt lat="44.71979" lon="7.9074717"><ele>244.66666666666669</ele><time>2026-05-01T12:10:54.155Z</time></trkpt><trkpt lat="44.7196667" lon="7.907585"><ele>244.33333333333331</ele><time>2026-05-01T12:10:55.155Z</time></trkpt><trkpt lat="44.71954" lon="7.907705"><ele>244.0</ele><time>2026-05-01T12:10:56.154Z</time></trkpt><trkpt lat="44.71941" lon="7.907825"><ele>243.66666666666666</ele><time>2026-05-01T12:10:57.157Z</time></trkpt><trkpt lat="44.719285" lon="7.907955"><ele>243.33333333333331</ele><time>2026-05-01T12:10:58.158Z</time></trkpt><trkpt lat="44.7191617" lon="7.90809"><ele>243.0</ele><time>2026-05-01T12:10:59.156Z</time></trkpt><trkpt lat="44.7190467" lon="7.90823"><ele>243.0</ele><time>2026-05-01T12:11:00.156Z</time></trkpt><trkpt lat="44.718945" lon="7.9083733"><ele>243.0</ele><time>2026-05-01T12:11:01.157Z</time></trkpt><trkpt lat="44.7188567" lon="7.9085167"><ele>243.0</ele><time>2026-05-01T12:11:02.154Z</time></trkpt><trkpt lat="44.7187733" lon="7.9086517"><ele>243.0</ele><time>2026-05-01T12:11:03.155Z</time></trkpt><trkpt lat="44.7187" lon="7.908775"><ele>242.8</ele><time>2026-05-01T12:11:04.157Z</time></trkpt><trkpt lat="44.718635" lon="7.908895"><ele>242.60000000000002</ele><time>2026-05-01T12:11:05.154Z</time></trkpt><trkpt lat="44.7185733" lon="7.90901"><ele>242.39999999999998</ele><time>2026-05-01T12:11:06.155Z</time></trkpt><trkpt lat="44.71851" lon="7.90912"><ele>242.2</ele><time>2026-05-01T12:11:07.155Z</time></trkpt><trkpt lat="44.7184467" lon="7.909235"><ele>242.0</ele><time>2026-05-01T12:11:08.156Z</time></trkpt><trkpt lat="44.7183833" lon="7.9093567"><ele>242.0</ele><time>2026-05-01T12:11:09.156Z</time></trkpt><trkpt lat="44.7183217" lon="7.9094817"><ele>242.0</ele><time>2026-05-01T12:11:10.156Z</time></trkpt><trkpt lat="44.718255" lon="7.90961"><ele>242.0</ele><time>2026-05-01T12:11:11.155Z</time></trkpt><trkpt lat="44.71819" lon="7.90974"><ele>242.0</ele><time>2026-05-01T12:11:12.15Z</time></trkpt><trkpt lat="44.71813" lon="7.909875"><ele>242.0</ele><time>2026-05-01T12:11:13.152Z</time></trkpt><trkpt lat="44.7180733" lon="7.9100167"><ele>241.8</ele><time>2026-05-01T12:11:14.152Z</time></trkpt><trkpt lat="44.7180217" lon="7.91016"><ele>241.6</ele><time>2026-05-01T12:11:15.152Z</time></trkpt><trkpt lat="44.7179817" lon="7.9102917"><ele>241.40000000000003</ele><time>2026-05-01T12:11:16.155Z</time></trkpt><trkpt lat="44.7179467" lon="7.91039"><ele>241.20000000000002</ele><time>2026-05-01T12:11:17.159Z</time></trkpt><trkpt lat="44.7178783" lon="7.9105067"><ele>241.0</ele><time>2026-05-01T12:11:19.156Z</time></trkpt><trkpt lat="44.7177733" lon="7.91046"><ele>240.99999999999997</ele><time>2026-05-01T12:11:21.156Z</time></trkpt><trkpt lat="44.71772" lon="7.9104"><ele>241.0</ele><time>2026-05-01T12:11:22.157Z</time></trkpt><trkpt lat="44.7176617" lon="7.910325"><ele>241.0</ele><time>2026-05-01T12:11:23.156Z</time></trkpt><trkpt lat="44.7176017" lon="7.91025"><ele>241.0</ele><time>2026-05-01T12:11:24.158Z</time></trkpt><trkpt lat="44.71754" lon="7.9101733"><ele>240.99999999999997</ele><time>2026-05-01T12:11:25.154Z</time></trkpt><trkpt lat="44.7174817" lon="7.910095"><ele>241.0</ele><time>2026-05-01T12:11:26.154Z</time></trkpt><trkpt lat="44.7174233" lon="7.9100283"><ele>241.0</ele><time>2026-05-01T12:11:27.149Z</time></trkpt><trkpt lat="44.7173583" lon="7.909975"><ele>241.00000000000003</ele><time>2026-05-01T12:11:28.157Z</time></trkpt><trkpt lat="44.7172917" lon="7.909945"><ele>241.0</ele><time>2026-05-01T12:11:29.153Z</time></trkpt><trkpt lat="44.7172233" lon="7.9099367"><ele>241.0</ele><time>2026-05-01T12:11:30.155Z</time></trkpt><trkpt lat="44.7171583" lon="7.90995"><ele>241.00000000000003</ele><time>2026-05-01T12:11:31.153Z</time></trkpt><trkpt lat="44.71709" lon="7.9099767"><ele>241.0</ele><time>2026-05-01T12:11:32.153Z</time></trkpt><trkpt lat="44.717025" lon="7.909975"><ele>241.0</ele><time>2026-05-01T12:11:33.149Z</time></trkpt><trkpt lat="44.7169183" lon="7.90989"><ele>240.8</ele><time>2026-05-01T12:11:35.155Z</time></trkpt><trkpt lat="44.716865" lon="7.9098183"><ele>240.60000000000002</ele><time>2026-05-01T12:11:36.153Z</time></trkpt><trkpt lat="44.716805" lon="7.90973"><ele>240.4</ele><time>2026-05-01T12:11:37.153Z</time></trkpt><trkpt lat="44.7167317" lon="7.909615"><ele>240.2</ele><time>2026-05-01T12:11:38.153Z</time></trkpt><trkpt lat="44.71665" lon="7.9094833"><ele>240.0</ele><time>2026-05-01T12:11:39.155Z</time></trkpt><trkpt lat="44.71657" lon="7.909365"><ele>240.0</ele><time>2026-05-01T12:11:40.156Z</time></trkpt><trkpt lat="44.7164967" lon="7.9092533"><ele>240.0</ele><time>2026-05-01T12:11:41.157Z</time></trkpt><trkpt lat="44.716425" lon="7.9091433"><ele>240.0</ele><time>2026-05-01T12:11:42.155Z</time></trkpt><trkpt lat="44.7163517" lon="7.9090317"><ele>240.0</ele><time>2026-05-01T12:11:43.156Z</time></trkpt><trkpt lat="44.716275" lon="7.9089183"><ele>240.0</ele><time>2026-05-01T12:11:44.151Z</time></trkpt><trkpt lat="44.716195" lon="7.9088083"><ele>240.5</ele><time>2026-05-01T12:11:45.154Z</time></trkpt><trkpt lat="44.71612" lon="7.9087083"><ele>241.0</ele><time>2026-05-01T12:11:46.153Z</time></trkpt><trkpt lat="44.7160567" lon="7.9086033"><ele>241.5</ele><time>2026-05-01T12:11:47.155Z</time></trkpt><trkpt lat="44.7160067" lon="7.90852"><ele>242.0</ele><time>2026-05-01T12:11:48.158Z</time></trkpt><trkpt lat="44.71596" lon="7.9084483"><ele>242.5</ele><time>2026-05-01T12:11:49.153Z</time></trkpt><trkpt lat="44.7159117" lon="7.9083683"><ele>243.0</ele><time>2026-05-01T12:11:50.154Z</time></trkpt><trkpt lat="44.7158533" lon="7.9082933"><ele>243.0</ele><time>2026-05-01T12:11:51.153Z</time></trkpt><trkpt lat="44.7157883" lon="7.9082"><ele>243.0</ele><time>2026-05-01T12:11:52.157Z</time></trkpt><trkpt lat="44.7157067" lon="7.9080867"><ele>243.0</ele><time>2026-05-01T12:11:53.153Z</time></trkpt><trkpt lat="44.7156183" lon="7.90796"><ele>243.0</ele><time>2026-05-01T12:11:54.154Z</time></trkpt><trkpt lat="44.7155333" lon="7.9078267"><ele>243.0</ele><time>2026-05-01T12:11:55.156Z</time></trkpt><trkpt lat="44.7154533" lon="7.9076983"><ele>243.0</ele><time>2026-05-01T12:11:56.156Z</time></trkpt><trkpt lat="44.7153783" lon="7.9075517"><ele>243.0</ele><time>2026-05-01T12:11:57.154Z</time></trkpt><trkpt lat="44.7153067" lon="7.9074083"><ele>243.0</ele><time>2026-05-01T12:11:58.154Z</time></trkpt><trkpt lat="44.7152383" lon="7.9072667"><ele>244.25</ele><time>2026-05-01T12:11:59.155Z</time></trkpt><trkpt lat="44.7151817" lon="7.90712"><ele>245.5</ele><time>2026-05-01T12:12:00.153Z</time></trkpt><trkpt lat="44.715125" lon="7.906965"><ele>246.75</ele><time>2026-05-01T12:12:01.153Z</time></trkpt><trkpt lat="44.7150817" lon="7.9067933"><ele>248.0</ele><time>2026-05-01T12:12:02.152Z</time></trkpt><trkpt lat="44.7150183" lon="7.9066333"><ele>248.0</ele><time>2026-05-01T12:12:03.154Z</time></trkpt><trkpt lat="44.7149467" lon="7.906475"><ele>248.0</ele><time>2026-05-01T12:12:04.158Z</time></trkpt><trkpt lat="44.7148733" lon="7.906315"><ele>248.0</ele><time>2026-05-01T12:12:05.153Z</time></trkpt><trkpt lat="44.7148083" lon="7.9061583"><ele>248.0</ele><time>2026-05-01T12:12:06.156Z</time></trkpt><trkpt lat="44.7147467" lon="7.90601"><ele>249.25</ele><time>2026-05-01T12:12:07.153Z</time></trkpt><trkpt lat="44.7146933" lon="7.9058617"><ele>250.5</ele><time>2026-05-01T12:12:08.155Z</time></trkpt><trkpt lat="44.71466" lon="7.90571"><ele>251.75</ele><time>2026-05-01T12:12:09.154Z</time></trkpt><trkpt lat="44.714645" lon="7.90555"><ele>253.0</ele><time>2026-05-01T12:12:10.157Z</time></trkpt><trkpt lat="44.7146317" lon="7.90539"><ele>253.0</ele><time>2026-05-01T12:12:11.158Z</time></trkpt><trkpt lat="44.71461" lon="7.905225"><ele>253.0</ele><time>2026-05-01T12:12:12.153Z</time></trkpt><trkpt lat="44.7145833" lon="7.9050583"><ele>253.0</ele><time>2026-05-01T12:12:13.153Z</time></trkpt><trkpt lat="44.7145467" lon="7.9048933"><ele>253.0</ele><time>2026-05-01T12:12:14.151Z</time></trkpt><trkpt lat="44.7145017" lon="7.904725"><ele>253.0</ele><time>2026-05-01T12:12:15.155Z</time></trkpt><trkpt lat="44.7144517" lon="7.9045517"><ele>253.0</ele><time>2026-05-01T12:12:16.155Z</time></trkpt><trkpt lat="44.714395" lon="7.9043867"><ele>253.0</ele><time>2026-05-01T12:12:17.151Z</time></trkpt><trkpt lat="44.7143183" lon="7.9042383"><ele>253.0</ele><time>2026-05-01T12:12:18.156Z</time></trkpt><trkpt lat="44.7142383" lon="7.904095"><ele>253.25</ele><time>2026-05-01T12:12:19.151Z</time></trkpt><trkpt lat="44.714155" lon="7.9039617"><ele>253.5</ele><time>2026-05-01T12:12:20.155Z</time></trkpt><trkpt lat="44.7140767" lon="7.903815"><ele>253.75</ele><time>2026-05-01T12:12:21.161Z</time></trkpt><trkpt lat="44.7140167" lon="7.90365"><ele>254.0</ele><time>2026-05-01T12:12:22.154Z</time></trkpt><trkpt lat="44.7139633" lon="7.903475"><ele>256.5</ele><time>2026-05-01T12:12:23.162Z</time></trkpt><trkpt lat="44.7139267" lon="7.9033033"><ele>259.0</ele><time>2026-05-01T12:12:24.155Z</time></trkpt><trkpt lat="44.7139033" lon="7.9031367"><ele>261.5</ele><time>2026-05-01T12:12:25.156Z</time></trkpt><trkpt lat="44.713915" lon="7.90295"><ele>264.0</ele><time>2026-05-01T12:12:26.155Z</time></trkpt><trkpt lat="44.7139367" lon="7.90276"><ele>264.3333333333333</ele><time>2026-05-01T12:12:27.154Z</time></trkpt><trkpt lat="44.7139617" lon="7.9025567"><ele>264.66666666666663</ele><time>2026-05-01T12:12:28.151Z</time></trkpt><trkpt lat="44.7139833" lon="7.9023317"><ele>265.0</ele><time>2026-05-01T12:12:29.156Z</time></trkpt><trkpt lat="44.7139967" lon="7.9020967"><ele>265.0</ele><time>2026-05-01T12:12:30.155Z</time></trkpt><trkpt lat="44.7140083" lon="7.9018667"><ele>265.0</ele><time>2026-05-01T12:12:31.157Z</time></trkpt><trkpt lat="44.7140133" lon="7.901655"><ele>265.0</ele><time>2026-05-01T12:12:32.152Z</time></trkpt><trkpt lat="44.7140217" lon="7.9014567"><ele>265.0</ele><time>2026-05-01T12:12:33.154Z</time></trkpt><trkpt lat="44.7140283" lon="7.9012683"><ele>265.0</ele><time>2026-05-01T12:12:34.16Z</time></trkpt><trkpt lat="44.714045" lon="7.9010817"><ele>265.0</ele><time>2026-05-01T12:12:35.154Z</time></trkpt><trkpt lat="44.714075" lon="7.900895"><ele>265.0</ele><time>2026-05-01T12:12:36.151Z</time></trkpt><trkpt lat="44.714115" lon="7.9007067"><ele>264.5</ele><time>2026-05-01T12:12:37.158Z</time></trkpt><trkpt lat="44.7141567" lon="7.9005167"><ele>264.0</ele><time>2026-05-01T12:12:38.156Z</time></trkpt><trkpt lat="44.7142017" lon="7.9003267"><ele>263.5</ele><time>2026-05-01T12:12:39.154Z</time></trkpt><trkpt lat="44.714255" lon="7.90014"><ele>263.0</ele><time>2026-05-01T12:12:40.154Z</time></trkpt><trkpt lat="44.7143183" lon="7.8999683"><ele>263.0</ele><time>2026-05-01T12:12:41.155Z</time></trkpt><trkpt lat="44.7143983" lon="7.8998133"><ele>263.0</ele><time>2026-05-01T12:12:42.156Z</time></trkpt><trkpt lat="44.7144883" lon="7.8996733"><ele>263.0</ele><time>2026-05-01T12:12:43.155Z</time></trkpt><trkpt lat="44.7145833" lon="7.8995333"><ele>263.0</ele><time>2026-05-01T12:12:44.152Z</time></trkpt><trkpt lat="44.7146733" lon="7.8993817"><ele>264.75</ele><time>2026-05-01T12:12:45.16Z</time></trkpt><trkpt lat="44.7147567" lon="7.8992167"><ele>266.5</ele><time>2026-05-01T12:12:46.157Z</time></trkpt><trkpt lat="44.7148333" lon="7.8990333"><ele>268.25</ele><time>2026-05-01T12:12:47.156Z</time></trkpt><trkpt lat="44.7149033" lon="7.8988617"><ele>270.0</ele><time>2026-05-01T12:12:48.155Z</time></trkpt><trkpt lat="44.7149733" lon="7.8987333"><ele>270.0</ele><time>2026-05-01T12:12:49.157Z</time></trkpt><trkpt lat="44.7150517" lon="7.8986483"><ele>270.0</ele><time>2026-05-01T12:12:50.154Z</time></trkpt><trkpt lat="44.71513" lon="7.89858"><ele>270.0</ele><time>2026-05-01T12:12:51.154Z</time></trkpt><trkpt lat="44.7151867" lon="7.8984983"><ele>270.0</ele><time>2026-05-01T12:12:52.159Z</time></trkpt><trkpt lat="44.71524" lon="7.8984133"><ele>270.0</ele><time>2026-05-01T12:12:53.159Z</time></trkpt><trkpt lat="44.7152783" lon="7.89832"><ele>270.0</ele><time>2026-05-01T12:12:54.153Z</time></trkpt><trkpt lat="44.7153033" lon="7.8982183"><ele>271.0</ele><time>2026-05-01T12:12:55.157Z</time></trkpt><trkpt lat="44.715305" lon="7.8981117"><ele>272.0</ele><time>2026-05-01T12:12:56.154Z</time></trkpt><trkpt lat="44.7151933" lon="7.8980117"><ele>273.0</ele><time>2026-05-01T12:12:57.151Z</time></trkpt><trkpt lat="44.7151317" lon="7.8978983"><ele>274.0</ele><time>2026-05-01T12:12:58.152Z</time></trkpt><trkpt lat="44.7150667" lon="7.8978017"><ele>275.0</ele><time>2026-05-01T12:12:59.156Z</time></trkpt><trkpt lat="44.7150067" lon="7.8977117"><ele>275.0</ele><time>2026-05-01T12:13:00.156Z</time></trkpt><trkpt lat="44.7149233" lon="7.8976583"><ele>275.0</ele><time>2026-05-01T12:13:01.152Z</time></trkpt><trkpt lat="44.7148083" lon="7.8976433"><ele>275.0</ele><time>2026-05-01T12:13:02.156Z</time></trkpt><trkpt lat="44.7147067" lon="7.8976467"><ele>275.0</ele><time>2026-05-01T12:13:03.156Z</time></trkpt><trkpt lat="44.71461" lon="7.8976983"><ele>275.0</ele><time>2026-05-01T12:13:04.157Z</time></trkpt><trkpt lat="44.7145217" lon="7.8978383"><ele>275.0</ele><time>2026-05-01T12:13:05.152Z</time></trkpt><trkpt lat="44.7144433" lon="7.89801"><ele>275.0</ele><time>2026-05-01T12:13:06.151Z</time></trkpt><trkpt lat="44.71442" lon="7.8982633"><ele>275.0</ele><time>2026-05-01T12:13:07.152Z</time></trkpt><trkpt lat="44.714365" lon="7.8984433"><ele>274.8</ele><time>2026-05-01T12:13:08.156Z</time></trkpt><trkpt lat="44.7143167" lon="7.898615"><ele>274.6</ele><time>2026-05-01T12:13:09.154Z</time></trkpt><trkpt lat="44.714275" lon="7.89876"><ele>274.4</ele><time>2026-05-01T12:13:10.154Z</time></trkpt><trkpt lat="44.7142233" lon="7.898875"><ele>274.2</ele><time>2026-05-01T12:13:11.152Z</time></trkpt><trkpt lat="44.7141733" lon="7.8989717"><ele>274.0</ele><time>2026-05-01T12:13:12.154Z</time></trkpt><trkpt lat="44.7141133" lon="7.8990467"><ele>274.0</ele><time>2026-05-01T12:13:13.151Z</time></trkpt><trkpt lat="44.71404" lon="7.8990917"><ele>274.0</ele><time>2026-05-01T12:13:14.157Z</time></trkpt><trkpt lat="44.7139533" lon="7.8991017"><ele>274.0</ele><time>2026-05-01T12:13:15.152Z</time></trkpt><trkpt lat="44.7138717" lon="7.8990817"><ele>274.0</ele><time>2026-05-01T12:13:16.155Z</time></trkpt><trkpt lat="44.71377" lon="7.899"><ele>274.0</ele><time>2026-05-01T12:13:17.156Z</time></trkpt><trkpt lat="44.7136717" lon="7.8989217"><ele>273.75</ele><time>2026-05-01T12:13:18.16Z</time></trkpt><trkpt lat="44.71357" lon="7.89883"><ele>273.5</ele><time>2026-05-01T12:13:19.154Z</time></trkpt><trkpt lat="44.7134683" lon="7.898735"><ele>273.25</ele><time>2026-05-01T12:13:20.154Z</time></trkpt><trkpt lat="44.71336" lon="7.8986383"><ele>273.0</ele><time>2026-05-01T12:13:21.153Z</time></trkpt><trkpt lat="44.7132517" lon="7.8985283"><ele>276.25</ele><time>2026-05-01T12:13:22.155Z</time></trkpt><trkpt lat="44.713145" lon="7.8984117"><ele>279.5</ele><time>2026-05-01T12:13:23.155Z</time></trkpt><trkpt lat="44.7130333" lon="7.8982917"><ele>282.75</ele><time>2026-05-01T12:13:24.155Z</time></trkpt><trkpt lat="44.712905" lon="7.898195"><ele>286.0</ele><time>2026-05-01T12:13:25.154Z</time></trkpt><trkpt lat="44.7127733" lon="7.8981083"><ele>285.0</ele><time>2026-05-01T12:13:26.152Z</time></trkpt><trkpt lat="44.7126383" lon="7.8980267"><ele>284.0</ele><time>2026-05-01T12:13:27.151Z</time></trkpt><trkpt lat="44.712505" lon="7.8979433"><ele>283.0</ele><time>2026-05-01T12:13:28.153Z</time></trkpt><trkpt lat="44.7123733" lon="7.8978583"><ele>282.0</ele><time>2026-05-01T12:13:29.154Z</time></trkpt><trkpt lat="44.712245" lon="7.8977783"><ele>282.0</ele><time>2026-05-01T12:13:30.153Z</time></trkpt><trkpt lat="44.7121267" lon="7.8976883"><ele>282.0</ele><time>2026-05-01T12:13:31.154Z</time></trkpt><trkpt lat="44.7120117" lon="7.8975867"><ele>282.0</ele><time>2026-05-01T12:13:32.152Z</time></trkpt><trkpt lat="44.7119117" lon="7.8974767"><ele>282.0</ele><time>2026-05-01T12:13:33.155Z</time></trkpt><trkpt lat="44.71182" lon="7.897375"><ele>285.0</ele><time>2026-05-01T12:13:34.155Z</time></trkpt><trkpt lat="44.711735" lon="7.8972967"><ele>288.0</ele><time>2026-05-01T12:13:35.156Z</time></trkpt><trkpt lat="44.7116583" lon="7.89724"><ele>291.0</ele><time>2026-05-01T12:13:36.153Z</time></trkpt><trkpt lat="44.7115783" lon="7.8972067"><ele>294.0</ele><time>2026-05-01T12:13:37.157Z</time></trkpt><trkpt lat="44.711495" lon="7.8972033"><ele>297.0</ele><time>2026-05-01T12:13:38.155Z</time></trkpt><trkpt lat="44.7114217" lon="7.897255"><ele>300.0</ele><time>2026-05-01T12:13:39.159Z</time></trkpt><trkpt lat="44.7113567" lon="7.8973317"><ele>300.0</ele><time>2026-05-01T12:13:40.155Z</time></trkpt><trkpt lat="44.7113067" lon="7.89743"><ele>300.0</ele><time>2026-05-01T12:13:41.155Z</time></trkpt><trkpt lat="44.71127" lon="7.8975417"><ele>300.0</ele><time>2026-05-01T12:13:42.153Z</time></trkpt><trkpt lat="44.71123" lon="7.8976533"><ele>300.0</ele><time>2026-05-01T12:13:43.158Z</time></trkpt><trkpt lat="44.7111867" lon="7.8977617"><ele>300.0</ele><time>2026-05-01T12:13:44.159Z</time></trkpt><trkpt lat="44.7111383" lon="7.8978533"><ele>300.0</ele><time>2026-05-01T12:13:45.155Z</time></trkpt><trkpt lat="44.7110967" lon="7.897925"><ele>300.6</ele><time>2026-05-01T12:13:46.154Z</time></trkpt><trkpt lat="44.7110383" lon="7.89801"><ele>301.2</ele><time>2026-05-01T12:13:48.152Z</time></trkpt><trkpt lat="44.7109817" lon="7.898105"><ele>301.8</ele><time>2026-05-01T12:13:51.152Z</time></trkpt><trkpt lat="44.7109183" lon="7.8982267"><ele>302.4</ele><time>2026-05-01T12:13:53.155Z</time></trkpt><trkpt lat="44.7108683" lon="7.89833"><ele>303.0</ele><time>2026-05-01T12:13:54.153Z</time></trkpt><trkpt lat="44.7108033" lon="7.8984667"><ele>304.75</ele><time>2026-05-01T12:13:55.158Z</time></trkpt><trkpt lat="44.7107383" lon="7.8986117"><ele>306.5</ele><time>2026-05-01T12:13:56.157Z</time></trkpt><trkpt lat="44.7106783" lon="7.8987467"><ele>308.25</ele><time>2026-05-01T12:13:57.153Z</time></trkpt><trkpt lat="44.71061" lon="7.898875"><ele>310.0</ele><time>2026-05-01T12:13:58.153Z</time></trkpt><trkpt lat="44.7105333" lon="7.8989967"><ele>310.0</ele><time>2026-05-01T12:13:59.153Z</time></trkpt><trkpt lat="44.7104533" lon="7.8991133"><ele>310.0</ele><time>2026-05-01T12:14:00.157Z</time></trkpt><trkpt lat="44.7103783" lon="7.8992267"><ele>310.0</ele><time>2026-05-01T12:14:01.153Z</time></trkpt><trkpt lat="44.7103017" lon="7.8993383"><ele>310.0</ele><time>2026-05-01T12:14:02.157Z</time></trkpt><trkpt lat="44.7102467" lon="7.8994667"><ele>310.0</ele><time>2026-05-01T12:14:03.153Z</time></trkpt><trkpt lat="44.710185" lon="7.89959"><ele>311.0</ele><time>2026-05-01T12:14:04.156Z</time></trkpt><trkpt lat="44.710125" lon="7.8996917"><ele>312.0</ele><time>2026-05-01T12:14:05.154Z</time></trkpt><trkpt lat="44.7100567" lon="7.899765"><ele>313.0</ele><time>2026-05-01T12:14:06.155Z</time></trkpt><trkpt lat="44.709985" lon="7.8998233"><ele>314.0</ele><time>2026-05-01T12:14:07.155Z</time></trkpt><trkpt lat="44.7099" lon="7.8998583"><ele>315.0</ele><time>2026-05-01T12:14:08.157Z</time></trkpt><trkpt lat="44.709815" lon="7.8998517"><ele>316.0</ele><time>2026-05-01T12:14:09.153Z</time></trkpt><trkpt lat="44.7097167" lon="7.8998283"><ele>316.0</ele><time>2026-05-01T12:14:10.156Z</time></trkpt><trkpt lat="44.70962" lon="7.899835"><ele>316.0</ele><time>2026-05-01T12:14:11.154Z</time></trkpt><trkpt lat="44.7095183" lon="7.8998617"><ele>316.0</ele><time>2026-05-01T12:14:12.153Z</time></trkpt><trkpt lat="44.7094267" lon="7.8998983"><ele>316.0</ele><time>2026-05-01T12:14:13.151Z</time></trkpt><trkpt lat="44.70935" lon="7.899935"><ele>316.0</ele><time>2026-05-01T12:14:14.151Z</time></trkpt><trkpt lat="44.7092383" lon="7.8999783"><ele>315.66666666666663</ele><time>2026-05-01T12:14:16.151Z</time></trkpt><trkpt lat="44.7091083" lon="7.90002"><ele>315.3333333333333</ele><time>2026-05-01T12:14:18.151Z</time></trkpt><trkpt lat="44.7090383" lon="7.9000633"><ele>315.0</ele><time>2026-05-01T12:14:19.163Z</time></trkpt><trkpt lat="44.7089733" lon="7.90013"><ele>314.6666666666667</ele><time>2026-05-01T12:14:20.157Z</time></trkpt><trkpt lat="44.7089133" lon="7.9001817"><ele>314.33333333333337</ele><time>2026-05-01T12:14:21.153Z</time></trkpt><trkpt lat="44.7088517" lon="7.9002217"><ele>314.0</ele><time>2026-05-01T12:14:22.155Z</time></trkpt><trkpt lat="44.708785" lon="7.9002367"><ele>314.0</ele><time>2026-05-01T12:14:23.157Z</time></trkpt><trkpt lat="44.708715" lon="7.9002167"><ele>314.0</ele><time>2026-05-01T12:14:24.153Z</time></trkpt><trkpt lat="44.70863" lon="7.9001283"><ele>314.0</ele><time>2026-05-01T12:14:25.162Z</time></trkpt><trkpt lat="44.70856" lon="7.9000283"><ele>314.0</ele><time>2026-05-01T12:14:26.152Z</time></trkpt><trkpt lat="44.70848" lon="7.89994"><ele>314.0</ele><time>2026-05-01T12:14:27.154Z</time></trkpt><trkpt lat="44.7083967" lon="7.8998567"><ele>312.0</ele><time>2026-05-01T12:14:28.152Z</time></trkpt><trkpt lat="44.70831" lon="7.89978"><ele>310.0</ele><time>2026-05-01T12:14:29.157Z</time></trkpt><trkpt lat="44.70822" lon="7.8997067"><ele>308.0</ele><time>2026-05-01T12:14:30.154Z</time></trkpt><trkpt lat="44.7081333" lon="7.8996417"><ele>306.0</ele><time>2026-05-01T12:14:31.158Z</time></trkpt><trkpt lat="44.7080483" lon="7.8995883"><ele>304.0</ele><time>2026-05-01T12:14:32.153Z</time></trkpt><trkpt lat="44.7079683" lon="7.8995583"><ele>304.0</ele><time>2026-05-01T12:14:33.157Z</time></trkpt><trkpt lat="44.7078783" lon="7.89955"><ele>304.0</ele><time>2026-05-01T12:14:34.158Z</time></trkpt><trkpt lat="44.707785" lon="7.8995433"><ele>304.0</ele><time>2026-05-01T12:14:35.157Z</time></trkpt><trkpt lat="44.7076883" lon="7.899535"><ele>304.0</ele><time>2026-05-01T12:14:36.152Z</time></trkpt><trkpt lat="44.7075917" lon="7.8995167"><ele>304.0</ele><time>2026-05-01T12:14:37.157Z</time></trkpt><trkpt lat="44.707495" lon="7.8994817"><ele>305.0</ele><time>2026-05-01T12:14:38.153Z</time></trkpt><trkpt lat="44.7074" lon="7.8994483"><ele>306.0</ele><time>2026-05-01T12:14:39.15Z</time></trkpt><trkpt lat="44.7073083" lon="7.8993983"><ele>307.0</ele><time>2026-05-01T12:14:40.154Z</time></trkpt><trkpt lat="44.7072167" lon="7.8993467"><ele>308.0</ele><time>2026-05-01T12:14:41.153Z</time></trkpt><trkpt lat="44.7071217" lon="7.8992967"><ele>309.0</ele><time>2026-05-01T12:14:42.156Z</time></trkpt><trkpt lat="44.70703" lon="7.8992533"><ele>305.2</ele><time>2026-05-01T12:14:43.156Z</time></trkpt><trkpt lat="44.7069417" lon="7.899205"><ele>301.4</ele><time>2026-05-01T12:14:44.154Z</time></trkpt><trkpt lat="44.7068483" lon="7.89916"><ele>297.6</ele><time>2026-05-01T12:14:45.154Z</time></trkpt><trkpt lat="44.7067567" lon="7.8991183"><ele>293.8</ele><time>2026-05-01T12:14:46.151Z</time></trkpt><trkpt lat="44.7066717" lon="7.8990633"><ele>290.0</ele><time>2026-05-01T12:14:47.153Z</time></trkpt><trkpt lat="44.7065883" lon="7.899005"><ele>289.4</ele><time>2026-05-01T12:14:48.152Z</time></trkpt><trkpt lat="44.7065217" lon="7.8989317"><ele>288.8</ele><time>2026-05-01T12:14:49.153Z</time></trkpt><trkpt lat="44.7064617" lon="7.8988417"><ele>288.2</ele><time>2026-05-01T12:14:50.151Z</time></trkpt><trkpt lat="44.706415" lon="7.8987383"><ele>287.6</ele><time>2026-05-01T12:14:51.157Z</time></trkpt><trkpt lat="44.7063817" lon="7.8986183"><ele>287.0</ele><time>2026-05-01T12:14:52.152Z</time></trkpt><trkpt lat="44.706375" lon="7.898475"><ele>286.0</ele><time>2026-05-01T12:14:53.157Z</time></trkpt><trkpt lat="44.7063683" lon="7.898325"><ele>285.0</ele><time>2026-05-01T12:14:54.154Z</time></trkpt><trkpt lat="44.70636" lon="7.8981733"><ele>284.0</ele><time>2026-05-01T12:14:55.155Z</time></trkpt><trkpt lat="44.7063517" lon="7.8980267"><ele>283.0</ele><time>2026-05-01T12:14:56.151Z</time></trkpt><trkpt lat="44.7063333" lon="7.8978867"><ele>282.0</ele><time>2026-05-01T12:14:57.153Z</time></trkpt><trkpt lat="44.7062933" lon="7.897765"><ele>282.0</ele><time>2026-05-01T12:14:58.153Z</time></trkpt><trkpt lat="44.706235" lon="7.8976517"><ele>282.0</ele><time>2026-05-01T12:14:59.152Z</time></trkpt><trkpt lat="44.706165" lon="7.897555"><ele>282.0</ele><time>2026-05-01T12:15:00.156Z</time></trkpt><trkpt lat="44.706095" lon="7.8974567"><ele>282.0</ele><time>2026-05-01T12:15:01.155Z</time></trkpt><trkpt lat="44.706025" lon="7.8973667"><ele>282.0</ele><time>2026-05-01T12:15:02.151Z</time></trkpt><trkpt lat="44.7059567" lon="7.897265"><ele>280.2</ele><time>2026-05-01T12:15:03.154Z</time></trkpt><trkpt lat="44.7058967" lon="7.897155"><ele>278.4</ele><time>2026-05-01T12:15:04.152Z</time></trkpt><trkpt lat="44.7058417" lon="7.8970383"><ele>276.6</ele><time>2026-05-01T12:15:05.154Z</time></trkpt><trkpt lat="44.7057933" lon="7.8969117"><ele>274.8</ele><time>2026-05-01T12:15:06.156Z</time></trkpt><trkpt lat="44.7057467" lon="7.8967833"><ele>273.0</ele><time>2026-05-01T12:15:07.154Z</time></trkpt><trkpt lat="44.70569" lon="7.89665"><ele>273.0</ele><time>2026-05-01T12:15:08.155Z</time></trkpt><trkpt lat="44.7056317" lon="7.8965183"><ele>273.0</ele><time>2026-05-01T12:15:09.151Z</time></trkpt><trkpt lat="44.7055733" lon="7.896395"><ele>273.0</ele><time>2026-05-01T12:15:10.15Z</time></trkpt><trkpt lat="44.7055217" lon="7.8962783"><ele>273.0</ele><time>2026-05-01T12:15:11.155Z</time></trkpt><trkpt lat="44.705465" lon="7.8961817"><ele>273.0</ele><time>2026-05-01T12:15:12.162Z</time></trkpt><trkpt lat="44.70541" lon="7.896135"><ele>273.0</ele><time>2026-05-01T12:15:13.167Z</time></trkpt><trkpt lat="44.7053183" lon="7.89618"><ele>273.0</ele><time>2026-05-01T12:15:15.153Z</time></trkpt><trkpt lat="44.7052917" lon="7.8963367"><ele>273.0</ele><time>2026-05-01T12:15:17.152Z</time></trkpt><trkpt lat="44.705315" lon="7.8964283"><ele>273.0</ele><time>2026-05-01T12:15:18.153Z</time></trkpt><trkpt lat="44.705345" lon="7.8965167"><ele>273.0</ele><time>2026-05-01T12:15:19.153Z</time></trkpt><trkpt lat="44.7053983" lon="7.8966217"><ele>273.0</ele><time>2026-05-01T12:15:20.157Z</time></trkpt><trkpt lat="44.7054683" lon="7.8967433"><ele>272.2</ele><time>2026-05-01T12:15:21.155Z</time></trkpt><trkpt lat="44.705515" lon="7.8968683"><ele>271.4</ele><time>2026-05-01T12:15:22.156Z</time></trkpt><trkpt lat="44.7055433" lon="7.8969983"><ele>270.59999999999997</ele><time>2026-05-01T12:15:23.154Z</time></trkpt><trkpt lat="44.7055517" lon="7.8971333"><ele>269.8</ele><time>2026-05-01T12:15:24.154Z</time></trkpt><trkpt lat="44.70554" lon="7.8972617"><ele>269.0</ele><time>2026-05-01T12:15:25.156Z</time></trkpt><trkpt lat="44.705515" lon="7.8973817"><ele>269.0</ele><time>2026-05-01T12:15:26.156Z</time></trkpt><trkpt lat="44.70548" lon="7.89749"><ele>269.0</ele><time>2026-05-01T12:15:27.152Z</time></trkpt><trkpt lat="44.7054383" lon="7.89759"><ele>269.0</ele><time>2026-05-01T12:15:28.157Z</time></trkpt><trkpt lat="44.7053983" lon="7.89769"><ele>269.0</ele><time>2026-05-01T12:15:29.153Z</time></trkpt><trkpt lat="44.7053583" lon="7.8977917"><ele>269.0</ele><time>2026-05-01T12:15:30.151Z</time></trkpt><trkpt lat="44.70533" lon="7.8978983"><ele>269.0</ele><time>2026-05-01T12:15:31.156Z</time></trkpt><trkpt lat="44.7052967" lon="7.8979917"><ele>266.5</ele><time>2026-05-01T12:15:32.153Z</time></trkpt><trkpt lat="44.7052317" lon="7.8981233"><ele>264.0</ele><time>2026-05-01T12:15:34.151Z</time></trkpt><trkpt lat="44.7051383" lon="7.8981683"><ele>261.5</ele><time>2026-05-01T12:15:36.151Z</time></trkpt><trkpt lat="44.7050267" lon="7.8980233"><ele>259.0</ele><time>2026-05-01T12:15:38.154Z</time></trkpt><trkpt lat="44.7050517" lon="7.8978"><ele>259.0</ele><time>2026-05-01T12:15:40.153Z</time></trkpt><trkpt lat="44.7050867" lon="7.89769"><ele>259.0</ele><time>2026-05-01T12:15:41.156Z</time></trkpt><trkpt lat="44.705105" lon="7.89757"><ele>259.0</ele><time>2026-05-01T12:15:42.157Z</time></trkpt><trkpt lat="44.7051117" lon="7.8974483"><ele>259.0</ele><time>2026-05-01T12:15:43.158Z</time></trkpt><trkpt lat="44.7051" lon="7.8973183"><ele>259.0</ele><time>2026-05-01T12:15:44.157Z</time></trkpt><trkpt lat="44.70508" lon="7.89719"><ele>259.0</ele><time>2026-05-01T12:15:45.155Z</time></trkpt><trkpt lat="44.70504" lon="7.8970583"><ele>257.75</ele><time>2026-05-01T12:15:46.16Z</time></trkpt><trkpt lat="44.70495" lon="7.8969367"><ele>256.5</ele><time>2026-05-01T12:15:47.155Z</time></trkpt><trkpt lat="44.7048583" lon="7.89682"><ele>255.25</ele><time>2026-05-01T12:15:48.154Z</time></trkpt><trkpt lat="44.7047567" lon="7.8967217"><ele>254.0</ele><time>2026-05-01T12:15:49.152Z</time></trkpt><trkpt lat="44.7046383" lon="7.8966417"><ele>254.0</ele><time>2026-05-01T12:15:50.154Z</time></trkpt><trkpt lat="44.70452" lon="7.8965733"><ele>254.0</ele><time>2026-05-01T12:15:51.158Z</time></trkpt><trkpt lat="44.7044" lon="7.89651"><ele>254.0</ele><time>2026-05-01T12:15:52.153Z</time></trkpt><trkpt lat="44.7042883" lon="7.8964433"><ele>254.0</ele><time>2026-05-01T12:15:53.157Z</time></trkpt><trkpt lat="44.7041783" lon="7.8963717"><ele>251.79999999999998</ele><time>2026-05-01T12:15:54.153Z</time></trkpt><trkpt lat="44.7040667" lon="7.8962983"><ele>249.59999999999997</ele><time>2026-05-01T12:15:55.155Z</time></trkpt><trkpt lat="44.7039717" lon="7.89621"><ele>247.4</ele><time>2026-05-01T12:15:56.155Z</time></trkpt><trkpt lat="44.7038933" lon="7.896125"><ele>245.2</ele><time>2026-05-01T12:15:57.154Z</time></trkpt><trkpt lat="44.7038317" lon="7.8960233"><ele>243.0</ele><time>2026-05-01T12:15:58.155Z</time></trkpt><trkpt lat="44.70379" lon="7.895895"><ele>243.0</ele><time>2026-05-01T12:15:59.155Z</time></trkpt><trkpt lat="44.7037617" lon="7.8957467"><ele>243.0</ele><time>2026-05-01T12:16:00.156Z</time></trkpt><trkpt lat="44.703745" lon="7.89558"><ele>243.0</ele><time>2026-05-01T12:16:01.159Z</time></trkpt><trkpt lat="44.7037217" lon="7.8953983"><ele>243.0</ele><time>2026-05-01T12:16:02.155Z</time></trkpt><trkpt lat="44.7037017" lon="7.8952167"><ele>242.25</ele><time>2026-05-01T12:16:03.156Z</time></trkpt><trkpt lat="44.70368" lon="7.8950367"><ele>241.5</ele><time>2026-05-01T12:16:04.15Z</time></trkpt><trkpt lat="44.703655" lon="7.8948567"><ele>240.75</ele><time>2026-05-01T12:16:05.161Z</time></trkpt><trkpt lat="44.7036317" lon="7.894685"><ele>240.0</ele><time>2026-05-01T12:16:06.16Z</time></trkpt><trkpt lat="44.7036117" lon="7.8945183"><ele>240.0</ele><time>2026-05-01T12:16:07.156Z</time></trkpt><trkpt lat="44.7036" lon="7.894375"><ele>240.0</ele><time>2026-05-01T12:16:08.153Z</time></trkpt><trkpt lat="44.70359" lon="7.894245"><ele>240.0</ele><time>2026-05-01T12:16:09.158Z</time></trkpt><trkpt lat="44.7035683" lon="7.8941267"><ele>240.0</ele><time>2026-05-01T12:16:10.152Z</time></trkpt><trkpt lat="44.7035367" lon="7.894015"><ele>240.0</ele><time>2026-05-01T12:16:11.154Z</time></trkpt><trkpt lat="44.703505" lon="7.8939083"><ele>238.0</ele><time>2026-05-01T12:16:12.155Z</time></trkpt><trkpt lat="44.7034667" lon="7.8938067"><ele>236.0</ele><time>2026-05-01T12:16:13.156Z</time></trkpt><trkpt lat="44.70343" lon="7.8937083"><ele>234.0</ele><time>2026-05-01T12:16:14.152Z</time></trkpt><trkpt lat="44.7033917" lon="7.89362"><ele>232.0</ele><time>2026-05-01T12:16:15.156Z</time></trkpt><trkpt lat="44.70336" lon="7.8935417"><ele>230.0</ele><time>2026-05-01T12:16:16.156Z</time></trkpt><trkpt lat="44.7033167" lon="7.893435"><ele>228.0</ele><time>2026-05-01T12:16:18.154Z</time></trkpt><trkpt lat="44.70325" lon="7.893385"><ele>227.83333333333334</ele><time>2026-05-01T12:16:20.153Z</time></trkpt><trkpt lat="44.7031717" lon="7.8933383"><ele>227.66666666666669</ele><time>2026-05-01T12:16:22.154Z</time></trkpt><trkpt lat="44.7031017" lon="7.8932933"><ele>227.5</ele><time>2026-05-01T12:16:24.155Z</time></trkpt><trkpt lat="44.7030333" lon="7.8932067"><ele>227.33333333333334</ele><time>2026-05-01T12:16:26.156Z</time></trkpt><trkpt lat="44.702985" lon="7.89313"><ele>227.16666666666669</ele><time>2026-05-01T12:16:27.154Z</time></trkpt><trkpt lat="44.7029433" lon="7.89305"><ele>227.0</ele><time>2026-05-01T12:16:28.153Z</time></trkpt><trkpt lat="44.70291" lon="7.8929467"><ele>227.0</ele><time>2026-05-01T12:16:29.151Z</time></trkpt><trkpt lat="44.7028767" lon="7.8928167"><ele>227.0</ele><time>2026-05-01T12:16:30.153Z</time></trkpt><trkpt lat="44.7028617" lon="7.89268"><ele>227.0</ele><time>2026-05-01T12:16:31.153Z</time></trkpt><trkpt lat="44.7028567" lon="7.892525"><ele>227.0</ele><time>2026-05-01T12:16:32.154Z</time></trkpt><trkpt lat="44.7028783" lon="7.8923583"><ele>227.0</ele><time>2026-05-01T12:16:33.154Z</time></trkpt><trkpt lat="44.702895" lon="7.8921983"><ele>227.39999999999998</ele><time>2026-05-01T12:16:34.156Z</time></trkpt><trkpt lat="44.7029067" lon="7.89205"><ele>227.79999999999998</ele><time>2026-05-01T12:16:35.154Z</time></trkpt><trkpt lat="44.7029067" lon="7.89191"><ele>228.2</ele><time>2026-05-01T12:16:36.154Z</time></trkpt><trkpt lat="44.7028867" lon="7.8917767"><ele>228.6</ele><time>2026-05-01T12:16:37.153Z</time></trkpt><trkpt lat="44.7028633" lon="7.89164"><ele>229.0</ele><time>2026-05-01T12:16:38.155Z</time></trkpt><trkpt lat="44.7028333" lon="7.89151"><ele>230.0</ele><time>2026-05-01T12:16:39.152Z</time></trkpt><trkpt lat="44.7028067" lon="7.8913533"><ele>231.0</ele><time>2026-05-01T12:16:40.156Z</time></trkpt><trkpt lat="44.70278" lon="7.8912"><ele>232.0</ele><time>2026-05-01T12:16:41.152Z</time></trkpt><trkpt lat="44.7027533" lon="7.8910483"><ele>233.0</ele><time>2026-05-01T12:16:42.155Z</time></trkpt><trkpt lat="44.7027233" lon="7.8908883"><ele>230.5</ele><time>2026-05-01T12:16:43.153Z</time></trkpt><trkpt lat="44.7026883" lon="7.890725"><ele>228.0</ele><time>2026-05-01T12:16:44.153Z</time></trkpt><trkpt lat="44.70265" lon="7.890565"><ele>225.5</ele><time>2026-05-01T12:16:45.152Z</time></trkpt><trkpt lat="44.7026183" lon="7.8904067"><ele>223.0</ele><time>2026-05-01T12:16:46.151Z</time></trkpt><trkpt lat="44.7025817" lon="7.89025"><ele>222.99999999999997</ele><time>2026-05-01T12:16:47.151Z</time></trkpt><trkpt lat="44.7025433" lon="7.890105"><ele>223.0</ele><time>2026-05-01T12:16:48.156Z</time></trkpt><trkpt lat="44.702505" lon="7.889975"><ele>223.0</ele><time>2026-05-01T12:16:49.158Z</time></trkpt><trkpt lat="44.7024833" lon="7.8898667"><ele>223.0</ele><time>2026-05-01T12:16:50.156Z</time></trkpt><trkpt lat="44.70247" lon="7.88978"><ele>222.99999999999997</ele><time>2026-05-01T12:16:51.157Z</time></trkpt><trkpt lat="44.702465" lon="7.8896717"><ele>223.0</ele><time>2026-05-01T12:16:53.156Z</time></trkpt><trkpt lat="44.7024133" lon="7.889555"><ele>223.2</ele><time>2026-05-01T12:16:55.155Z</time></trkpt><trkpt lat="44.7023683" lon="7.8894783"><ele>223.4</ele><time>2026-05-01T12:16:56.151Z</time></trkpt><trkpt lat="44.702315" lon="7.88938"><ele>223.59999999999997</ele><time>2026-05-01T12:16:57.155Z</time></trkpt><trkpt lat="44.7022617" lon="7.88926"><ele>223.79999999999998</ele><time>2026-05-01T12:16:58.161Z</time></trkpt><trkpt lat="44.7022117" lon="7.8891317"><ele>224.0</ele><time>2026-05-01T12:16:59.157Z</time></trkpt><trkpt lat="44.702165" lon="7.8889967"><ele>224.25</ele><time>2026-05-01T12:17:00.15Z</time></trkpt><trkpt lat="44.7021183" lon="7.888845"><ele>224.5</ele><time>2026-05-01T12:17:01.151Z</time></trkpt><trkpt lat="44.7020683" lon="7.88869"><ele>224.75</ele><time>2026-05-01T12:17:02.159Z</time></trkpt><trkpt lat="44.702015" lon="7.8885267"><ele>225.0</ele><time>2026-05-01T12:17:03.153Z</time></trkpt><trkpt lat="44.70197" lon="7.888355"><ele>224.0</ele><time>2026-05-01T12:17:04.154Z</time></trkpt><trkpt lat="44.70191" lon="7.888185"><ele>223.0</ele><time>2026-05-01T12:17:05.155Z</time></trkpt><trkpt lat="44.7018533" lon="7.88802"><ele>222.0</ele><time>2026-05-01T12:17:06.151Z</time></trkpt><trkpt lat="44.701795" lon="7.8878517"><ele>221.0</ele><time>2026-05-01T12:17:07.152Z</time></trkpt><trkpt lat="44.70173" lon="7.8876867"><ele>221.5</ele><time>2026-05-01T12:17:08.152Z</time></trkpt><trkpt lat="44.7016533" lon="7.8875283"><ele>222.0</ele><time>2026-05-01T12:17:09.15Z</time></trkpt><trkpt lat="44.7015767" lon="7.8873733"><ele>222.5</ele><time>2026-05-01T12:17:10.157Z</time></trkpt><trkpt lat="44.7014933" lon="7.8872183"><ele>223.0</ele><time>2026-05-01T12:17:11.153Z</time></trkpt><trkpt lat="44.7014067" lon="7.8870667"><ele>223.0</ele><time>2026-05-01T12:17:12.152Z</time></trkpt><trkpt lat="44.70132" lon="7.8869167"><ele>223.0</ele><time>2026-05-01T12:17:13.155Z</time></trkpt><trkpt lat="44.7012283" lon="7.8867733"><ele>223.0</ele><time>2026-05-01T12:17:14.157Z</time></trkpt><trkpt lat="44.701145" lon="7.8866283"><ele>223.0</ele><time>2026-05-01T12:17:15.16Z</time></trkpt><trkpt lat="44.7010633" lon="7.8864867"><ele>222.75</ele><time>2026-05-01T12:17:16.151Z</time></trkpt><trkpt lat="44.7009767" lon="7.8863567"><ele>222.5</ele><time>2026-05-01T12:17:17.158Z</time></trkpt><trkpt lat="44.7008967" lon="7.8862267"><ele>222.25</ele><time>2026-05-01T12:17:18.153Z</time></trkpt><trkpt lat="44.7008167" lon="7.8861"><ele>222.0</ele><time>2026-05-01T12:17:19.155Z</time></trkpt><trkpt lat="44.7007383" lon="7.885985"><ele>222.16666666666666</ele><time>2026-05-01T12:17:20.154Z</time></trkpt><trkpt lat="44.7006717" lon="7.8858833"><ele>222.33333333333331</ele><time>2026-05-01T12:17:21.155Z</time></trkpt><trkpt lat="44.7006167" lon="7.8858033"><ele>222.5</ele><time>2026-05-01T12:17:22.155Z</time></trkpt><trkpt lat="44.7005717" lon="7.8857317"><ele>222.66666666666666</ele><time>2026-05-01T12:17:23.155Z</time></trkpt><trkpt lat="44.7005233" lon="7.8856717"><ele>222.83333333333331</ele><time>2026-05-01T12:17:24.152Z</time></trkpt><trkpt lat="44.7004133" lon="7.885625"><ele>223.0</ele><time>2026-05-01T12:17:26.156Z</time></trkpt><trkpt lat="44.7003483" lon="7.885675"><ele>223.0</ele><time>2026-05-01T12:17:27.152Z</time></trkpt><trkpt lat="44.7002817" lon="7.88571"><ele>223.0</ele><time>2026-05-01T12:17:28.153Z</time></trkpt><trkpt lat="44.7001967" lon="7.8857383"><ele>223.0</ele><time>2026-05-01T12:17:29.153Z</time></trkpt><trkpt lat="44.7000983" lon="7.8857667"><ele>223.0</ele><time>2026-05-01T12:17:30.156Z</time></trkpt><trkpt lat="44.6999867" lon="7.88581"><ele>223.0</ele><time>2026-05-01T12:17:31.156Z</time></trkpt><trkpt lat="44.6998667" lon="7.885865"><ele>222.5</ele><time>2026-05-01T12:17:32.15Z</time></trkpt><trkpt lat="44.699735" lon="7.8859367"><ele>222.0</ele><time>2026-05-01T12:17:33.152Z</time></trkpt><trkpt lat="44.6996083" lon="7.88601"><ele>221.5</ele><time>2026-05-01T12:17:34.153Z</time></trkpt><trkpt lat="44.69948" lon="7.886085"><ele>221.0</ele><time>2026-05-01T12:17:35.158Z</time></trkpt><trkpt lat="44.699345" lon="7.88616"><ele>220.75</ele><time>2026-05-01T12:17:36.149Z</time></trkpt><trkpt lat="44.6992117" lon="7.8862467"><ele>220.5</ele><time>2026-05-01T12:17:37.15Z</time></trkpt><trkpt lat="44.6990733" lon="7.8863333"><ele>220.25</ele><time>2026-05-01T12:17:38.151Z</time></trkpt><trkpt lat="44.6989383" lon="7.88642"><ele>220.0</ele><time>2026-05-01T12:17:39.153Z</time></trkpt><trkpt lat="44.69881" lon="7.8865083"><ele>220.0</ele><time>2026-05-01T12:17:40.152Z</time></trkpt><trkpt lat="44.6986883" lon="7.886605"><ele>220.0</ele><time>2026-05-01T12:17:41.152Z</time></trkpt><trkpt lat="44.6985683" lon="7.88669"><ele>220.0</ele><time>2026-05-01T12:17:42.152Z</time></trkpt><trkpt lat="44.6984483" lon="7.8867717"><ele>220.0</ele><time>2026-05-01T12:17:43.158Z</time></trkpt><trkpt lat="44.6983317" lon="7.8868367"><ele>219.5</ele><time>2026-05-01T12:17:44.156Z</time></trkpt><trkpt lat="44.6982183" lon="7.8868983"><ele>219.0</ele><time>2026-05-01T12:17:45.152Z</time></trkpt><trkpt lat="44.6981033" lon="7.8869483"><ele>218.5</ele><time>2026-05-01T12:17:46.153Z</time></trkpt><trkpt lat="44.6979933" lon="7.886995"><ele>218.0</ele><time>2026-05-01T12:17:47.152Z</time></trkpt><trkpt lat="44.69789" lon="7.8870367"><ele>218.0</ele><time>2026-05-01T12:17:48.155Z</time></trkpt><trkpt lat="44.6977883" lon="7.8870717"><ele>218.0</ele><time>2026-05-01T12:17:49.155Z</time></trkpt><trkpt lat="44.6976917" lon="7.8871033"><ele>218.0</ele><time>2026-05-01T12:17:50.156Z</time></trkpt><trkpt lat="44.6976067" lon="7.8871317"><ele>218.0</ele><time>2026-05-01T12:17:51.152Z</time></trkpt><trkpt lat="44.69753" lon="7.8871533"><ele>218.0</ele><time>2026-05-01T12:17:52.149Z</time></trkpt><trkpt lat="44.6974117" lon="7.8871767"><ele>218.2</ele><time>2026-05-01T12:17:54.158Z</time></trkpt><trkpt lat="44.6973433" lon="7.8871883"><ele>218.4</ele><time>2026-05-01T12:17:56.153Z</time></trkpt><trkpt lat="44.6972267" lon="7.887165"><ele>218.59999999999997</ele><time>2026-05-01T12:18:16.152Z</time></trkpt><trkpt lat="44.697145" lon="7.8872083"><ele>218.79999999999998</ele><time>2026-05-01T12:18:17.158Z</time></trkpt><trkpt lat="44.697055" lon="7.8872617"><ele>219.0</ele><time>2026-05-01T12:18:18.15Z</time></trkpt><trkpt lat="44.696945" lon="7.887325"><ele>218.33333333333331</ele><time>2026-05-01T12:18:19.156Z</time></trkpt><trkpt lat="44.6968017" lon="7.88746"><ele>217.66666666666666</ele><time>2026-05-01T12:18:20.152Z</time></trkpt><trkpt lat="44.69667" lon="7.887565"><ele>217.0</ele><time>2026-05-01T12:18:21.154Z</time></trkpt><trkpt lat="44.69654" lon="7.88768"><ele>217.0</ele><time>2026-05-01T12:18:22.155Z</time></trkpt><trkpt lat="44.6964033" lon="7.887795"><ele>217.0</ele><time>2026-05-01T12:18:23.15Z</time></trkpt><trkpt lat="44.6962767" lon="7.8879033"><ele>217.0</ele><time>2026-05-01T12:18:24.152Z</time></trkpt><trkpt lat="44.6961467" lon="7.888"><ele>216.75</ele><time>2026-05-01T12:18:25.153Z</time></trkpt><trkpt lat="44.6960167" lon="7.8881017"><ele>216.5</ele><time>2026-05-01T12:18:26.153Z</time></trkpt><trkpt lat="44.6958917" lon="7.888205"><ele>216.25</ele><time>2026-05-01T12:18:27.155Z</time></trkpt><trkpt lat="44.6957683" lon="7.8883117"><ele>216.0</ele><time>2026-05-01T12:18:28.157Z</time></trkpt><trkpt lat="44.69564" lon="7.8884133"><ele>216.0</ele><time>2026-05-01T12:18:29.155Z</time></trkpt><trkpt lat="44.6955117" lon="7.88852"><ele>216.0</ele><time>2026-05-01T12:18:30.156Z</time></trkpt><trkpt lat="44.6953917" lon="7.8886283"><ele>216.0</ele><time>2026-05-01T12:18:31.152Z</time></trkpt><trkpt lat="44.695275" lon="7.8887333"><ele>216.0</ele><time>2026-05-01T12:18:32.153Z</time></trkpt><trkpt lat="44.6951633" lon="7.88883"><ele>215.0</ele><time>2026-05-01T12:18:33.156Z</time></trkpt><trkpt lat="44.6950567" lon="7.88892"><ele>214.0</ele><time>2026-05-01T12:18:34.154Z</time></trkpt><trkpt lat="44.6949533" lon="7.8890117"><ele>213.0</ele><time>2026-05-01T12:18:35.157Z</time></trkpt><trkpt lat="44.6948517" lon="7.8891017"><ele>212.0</ele><time>2026-05-01T12:18:36.153Z</time></trkpt><trkpt lat="44.6947483" lon="7.8891933"><ele>211.75</ele><time>2026-05-01T12:18:37.155Z</time></trkpt><trkpt lat="44.6946467" lon="7.8892833"><ele>211.5</ele><time>2026-05-01T12:18:38.155Z</time></trkpt><trkpt lat="44.6945433" lon="7.8893783"><ele>211.25</ele><time>2026-05-01T12:18:39.156Z</time></trkpt><trkpt lat="44.69444" lon="7.8894717"><ele>211.0</ele><time>2026-05-01T12:18:40.155Z</time></trkpt><trkpt lat="44.6943317" lon="7.88956"><ele>211.5</ele><time>2026-05-01T12:18:41.158Z</time></trkpt><trkpt lat="44.69422" lon="7.8896517"><ele>212.0</ele><time>2026-05-01T12:18:42.154Z</time></trkpt><trkpt lat="44.6941067" lon="7.88975"><ele>212.5</ele><time>2026-05-01T12:18:43.15Z</time></trkpt><trkpt lat="44.6939933" lon="7.8898483"><ele>213.0</ele><time>2026-05-01T12:18:44.157Z</time></trkpt><trkpt lat="44.693875" lon="7.8899517"><ele>213.0</ele><time>2026-05-01T12:18:45.155Z</time></trkpt><trkpt lat="44.6937567" lon="7.89005"><ele>213.0</ele><time>2026-05-01T12:18:46.155Z</time></trkpt><trkpt lat="44.693635" lon="7.89015"><ele>213.0</ele><time>2026-05-01T12:18:47.151Z</time></trkpt><trkpt lat="44.693515" lon="7.8902517"><ele>213.0</ele><time>2026-05-01T12:18:48.16Z</time></trkpt><trkpt lat="44.693395" lon="7.89035"><ele>212.0</ele><time>2026-05-01T12:18:49.153Z</time></trkpt><trkpt lat="44.6932817" lon="7.8904467"><ele>211.0</ele><time>2026-05-01T12:18:50.153Z</time></trkpt><trkpt lat="44.693175" lon="7.8905417"><ele>210.0</ele><time>2026-05-01T12:18:51.154Z</time></trkpt><trkpt lat="44.6930633" lon="7.89064"><ele>209.0</ele><time>2026-05-01T12:18:52.153Z</time></trkpt><trkpt lat="44.6929467" lon="7.8907417"><ele>209.0</ele><time>2026-05-01T12:18:53.158Z</time></trkpt><trkpt lat="44.6928217" lon="7.8908483"><ele>209.0</ele><time>2026-05-01T12:18:54.154Z</time></trkpt><trkpt lat="44.69269" lon="7.8909533"><ele>209.0</ele><time>2026-05-01T12:18:55.155Z</time></trkpt><trkpt lat="44.692565" lon="7.8910617"><ele>209.0</ele><time>2026-05-01T12:18:56.153Z</time></trkpt><trkpt lat="44.6924433" lon="7.8911667"><ele>208.5</ele><time>2026-05-01T12:18:57.155Z</time></trkpt><trkpt lat="44.692325" lon="7.8912683"><ele>208.0</ele><time>2026-05-01T12:18:58.154Z</time></trkpt><trkpt lat="44.692205" lon="7.891365"><ele>207.5</ele><time>2026-05-01T12:18:59.157Z</time></trkpt><trkpt lat="44.6920883" lon="7.8914583"><ele>207.0</ele><time>2026-05-01T12:19:00.152Z</time></trkpt><trkpt lat="44.6919733" lon="7.8915533"><ele>206.75</ele><time>2026-05-01T12:19:01.161Z</time></trkpt><trkpt lat="44.6918617" lon="7.8916483"><ele>206.5</ele><time>2026-05-01T12:19:02.156Z</time></trkpt><trkpt lat="44.69175" lon="7.8917417"><ele>206.25</ele><time>2026-05-01T12:19:03.151Z</time></trkpt><trkpt lat="44.6916433" lon="7.891835"><ele>206.0</ele><time>2026-05-01T12:19:04.156Z</time></trkpt><trkpt lat="44.6915383" lon="7.8919233"><ele>206.0</ele><time>2026-05-01T12:19:05.152Z</time></trkpt><trkpt lat="44.6914317" lon="7.8920117"><ele>206.0</ele><time>2026-05-01T12:19:06.157Z</time></trkpt><trkpt lat="44.6913267" lon="7.8921033"><ele>206.0</ele><time>2026-05-01T12:19:07.155Z</time></trkpt><trkpt lat="44.69122" lon="7.8921883"><ele>206.0</ele><time>2026-05-01T12:19:08.152Z</time></trkpt><trkpt lat="44.6911117" lon="7.8922733"><ele>206.25</ele><time>2026-05-01T12:19:09.154Z</time></trkpt><trkpt lat="44.691005" lon="7.892365"><ele>206.5</ele><time>2026-05-01T12:19:10.153Z</time></trkpt><trkpt lat="44.6909" lon="7.8924567"><ele>206.75</ele><time>2026-05-01T12:19:11.155Z</time></trkpt><trkpt lat="44.6907933" lon="7.8925517"><ele>207.0</ele><time>2026-05-01T12:19:12.152Z</time></trkpt><trkpt lat="44.6906817" lon="7.892645"><ele>207.0</ele><time>2026-05-01T12:19:13.158Z</time></trkpt><trkpt lat="44.6905667" lon="7.8927383"><ele>207.0</ele><time>2026-05-01T12:19:14.153Z</time></trkpt><trkpt lat="44.690455" lon="7.89283"><ele>207.0</ele><time>2026-05-01T12:19:15.154Z</time></trkpt><trkpt lat="44.6903467" lon="7.892925"><ele>207.0</ele><time>2026-05-01T12:19:16.151Z</time></trkpt><trkpt lat="44.6902383" lon="7.8930167"><ele>206.5</ele><time>2026-05-01T12:19:17.151Z</time></trkpt><trkpt lat="44.690125" lon="7.89311"><ele>206.0</ele><time>2026-05-01T12:19:18.151Z</time></trkpt><trkpt lat="44.69001" lon="7.893205"><ele>205.5</ele><time>2026-05-01T12:19:19.154Z</time></trkpt><trkpt lat="44.6899" lon="7.8932967"><ele>205.0</ele><time>2026-05-01T12:19:20.156Z</time></trkpt><trkpt lat="44.6897867" lon="7.89339"><ele>205.0</ele><time>2026-05-01T12:19:21.154Z</time></trkpt><trkpt lat="44.6896767" lon="7.8934767"><ele>205.0</ele><time>2026-05-01T12:19:22.151Z</time></trkpt><trkpt lat="44.689575" lon="7.8935583"><ele>205.0</ele><time>2026-05-01T12:19:23.155Z</time></trkpt><trkpt lat="44.68947" lon="7.89364"><ele>205.0</ele><time>2026-05-01T12:19:24.156Z</time></trkpt><trkpt lat="44.6893633" lon="7.8937233"><ele>205.0</ele><time>2026-05-01T12:19:25.158Z</time></trkpt><trkpt lat="44.68926" lon="7.8938117"><ele>205.0</ele><time>2026-05-01T12:19:26.149Z</time></trkpt><trkpt lat="44.689155" lon="7.8939"><ele>205.0</ele><time>2026-05-01T12:19:27.151Z</time></trkpt><trkpt lat="44.6890467" lon="7.893995"><ele>205.0</ele><time>2026-05-01T12:19:28.155Z</time></trkpt><trkpt lat="44.6889333" lon="7.8940833"><ele>205.0</ele><time>2026-05-01T12:19:29.152Z</time></trkpt><trkpt lat="44.68882" lon="7.894185"><ele>205.0</ele><time>2026-05-01T12:19:30.155Z</time></trkpt><trkpt lat="44.6887" lon="7.8942783"><ele>205.0</ele><time>2026-05-01T12:19:31.156Z</time></trkpt><trkpt lat="44.6885817" lon="7.8943733"><ele>205.0</ele><time>2026-05-01T12:19:32.159Z</time></trkpt><trkpt lat="44.688465" lon="7.8944683"><ele>204.5</ele><time>2026-05-01T12:19:33.155Z</time></trkpt><trkpt lat="44.6883467" lon="7.8945667"><ele>204.0</ele><time>2026-05-01T12:19:34.158Z</time></trkpt><trkpt lat="44.6882317" lon="7.8946717"><ele>203.5</ele><time>2026-05-01T12:19:35.154Z</time></trkpt><trkpt lat="44.6881117" lon="7.8947783"><ele>203.0</ele><time>2026-05-01T12:19:36.154Z</time></trkpt><trkpt lat="44.6879883" lon="7.8948817"><ele>203.0</ele><time>2026-05-01T12:19:37.15Z</time></trkpt><trkpt lat="44.687865" lon="7.8949867"><ele>203.0</ele><time>2026-05-01T12:19:38.154Z</time></trkpt><trkpt lat="44.6877417" lon="7.89509"><ele>203.0</ele><time>2026-05-01T12:19:39.159Z</time></trkpt><trkpt lat="44.6876233" lon="7.8951917"><ele>203.0</ele><time>2026-05-01T12:19:40.162Z</time></trkpt><trkpt lat="44.68751" lon="7.8952867"><ele>202.60000000000002</ele><time>2026-05-01T12:19:41.154Z</time></trkpt><trkpt lat="44.6874017" lon="7.8953817"><ele>202.20000000000002</ele><time>2026-05-01T12:19:42.157Z</time></trkpt><trkpt lat="44.6873" lon="7.89547"><ele>201.8</ele><time>2026-05-01T12:19:43.16Z</time></trkpt><trkpt lat="44.6872083" lon="7.89555"><ele>201.4</ele><time>2026-05-01T12:19:44.151Z</time></trkpt><trkpt lat="44.6871317" lon="7.8956133"><ele>201.0</ele><time>2026-05-01T12:19:45.153Z</time></trkpt><trkpt lat="44.6870717" lon="7.8956667"><ele>201.0</ele><time>2026-05-01T12:19:46.154Z</time></trkpt><trkpt lat="44.6870017" lon="7.895725"><ele>201.0</ele><time>2026-05-01T12:19:48.157Z</time></trkpt><trkpt lat="44.6868983" lon="7.8958033"><ele>201.0</ele><time>2026-05-01T12:19:54.152Z</time></trkpt><trkpt lat="44.68684" lon="7.8958433"><ele>201.0</ele><time>2026-05-01T12:19:55.156Z</time></trkpt><trkpt lat="44.6867667" lon="7.8958967"><ele>201.0</ele><time>2026-05-01T12:19:56.151Z</time></trkpt><trkpt lat="44.686695" lon="7.8959617"><ele>201.0</ele><time>2026-05-01T12:19:57.155Z</time></trkpt><trkpt lat="44.68662" lon="7.8960383"><ele>201.20000000000002</ele><time>2026-05-01T12:19:58.155Z</time></trkpt><trkpt lat="44.6865367" lon="7.896115"><ele>201.4</ele><time>2026-05-01T12:19:59.154Z</time></trkpt><trkpt lat="44.6864483" lon="7.8961933"><ele>201.6</ele><time>2026-05-01T12:20:00.156Z</time></trkpt><trkpt lat="44.6863483" lon="7.8962533"><ele>201.8</ele><time>2026-05-01T12:20:01.161Z</time></trkpt><trkpt lat="44.686255" lon="7.8963367"><ele>202.0</ele><time>2026-05-01T12:20:02.155Z</time></trkpt><trkpt lat="44.6861617" lon="7.8964217"><ele>202.0</ele><time>2026-05-01T12:20:03.149Z</time></trkpt><trkpt lat="44.686065" lon="7.896505"><ele>202.0</ele><time>2026-05-01T12:20:04.156Z</time></trkpt><trkpt lat="44.68597" lon="7.896585"><ele>202.0</ele><time>2026-05-01T12:20:05.153Z</time></trkpt><trkpt lat="44.6858717" lon="7.8966633"><ele>202.0</ele><time>2026-05-01T12:20:06.156Z</time></trkpt><trkpt lat="44.6857733" lon="7.896745"><ele>202.25</ele><time>2026-05-01T12:20:07.154Z</time></trkpt><trkpt lat="44.6856733" lon="7.89683"><ele>202.5</ele><time>2026-05-01T12:20:08.153Z</time></trkpt><trkpt lat="44.6855717" lon="7.8969167"><ele>202.75</ele><time>2026-05-01T12:20:09.153Z</time></trkpt><trkpt lat="44.68547" lon="7.8970067"><ele>203.0</ele><time>2026-05-01T12:20:10.156Z</time></trkpt><trkpt lat="44.685365" lon="7.8970967"><ele>203.0</ele><time>2026-05-01T12:20:11.152Z</time></trkpt><trkpt lat="44.685265" lon="7.8971883"><ele>203.0</ele><time>2026-05-01T12:20:12.152Z</time></trkpt><trkpt lat="44.6851667" lon="7.897285"><ele>203.0</ele><time>2026-05-01T12:20:13.155Z</time></trkpt><trkpt lat="44.68507" lon="7.8973967"><ele>203.0</ele><time>2026-05-01T12:20:14.148Z</time></trkpt><trkpt lat="44.6849767" lon="7.8975217"><ele>202.0</ele><time>2026-05-01T12:20:15.153Z</time></trkpt><trkpt lat="44.6848817" lon="7.89766"><ele>201.0</ele><time>2026-05-01T12:20:16.151Z</time></trkpt><trkpt lat="44.6847833" lon="7.8978083"><ele>200.0</ele><time>2026-05-01T12:20:17.154Z</time></trkpt><trkpt lat="44.6846883" lon="7.8979683"><ele>199.0</ele><time>2026-05-01T12:20:18.153Z</time></trkpt><trkpt lat="44.6845933" lon="7.898145"><ele>199.0</ele><time>2026-05-01T12:20:19.155Z</time></trkpt><trkpt lat="44.684505" lon="7.8983633"><ele>199.0</ele><time>2026-05-01T12:20:20.152Z</time></trkpt><trkpt lat="44.684425" lon="7.8985783"><ele>199.0</ele><time>2026-05-01T12:20:21.15Z</time></trkpt><trkpt lat="44.68435" lon="7.8988033"><ele>198.66666666666666</ele><time>2026-05-01T12:20:22.162Z</time></trkpt><trkpt lat="44.68427" lon="7.89904"><ele>198.33333333333331</ele><time>2026-05-01T12:20:23.155Z</time></trkpt><trkpt lat="44.6841983" lon="7.899305"><ele>198.0</ele><time>2026-05-01T12:20:24.156Z</time></trkpt><trkpt lat="44.6841367" lon="7.89959"><ele>197.33333333333331</ele><time>2026-05-01T12:20:25.159Z</time></trkpt><trkpt lat="44.6840833" lon="7.8998633"><ele>196.66666666666666</ele><time>2026-05-01T12:20:26.153Z</time></trkpt><trkpt lat="44.6840367" lon="7.900145"><ele>196.0</ele><time>2026-05-01T12:20:27.154Z</time></trkpt><trkpt lat="44.6839983" lon="7.9004467"><ele>195.66666666666666</ele><time>2026-05-01T12:20:28.152Z</time></trkpt><trkpt lat="44.6839667" lon="7.9007467"><ele>195.33333333333331</ele><time>2026-05-01T12:20:29.157Z</time></trkpt><trkpt lat="44.6839383" lon="7.901045"><ele>195.0</ele><time>2026-05-01T12:20:30.152Z</time></trkpt><trkpt lat="44.68391" lon="7.9013433"><ele>195.0</ele><time>2026-05-01T12:20:31.154Z</time></trkpt><trkpt lat="44.6838867" lon="7.9016367"><ele>195.0</ele><time>2026-05-01T12:20:32.163Z</time></trkpt><trkpt lat="44.683865" lon="7.901925"><ele>195.0</ele><time>2026-05-01T12:20:33.154Z</time></trkpt><trkpt lat="44.683845" lon="7.9022067"><ele>195.0</ele><time>2026-05-01T12:20:34.156Z</time></trkpt><trkpt lat="44.683825" lon="7.90248"><ele>195.0</ele><time>2026-05-01T12:20:35.158Z</time></trkpt><trkpt lat="44.6838" lon="7.9027533"><ele>195.0</ele><time>2026-05-01T12:20:36.156Z</time></trkpt><trkpt lat="44.6837767" lon="7.9030283"><ele>195.0</ele><time>2026-05-01T12:20:37.154Z</time></trkpt><trkpt lat="44.683755" lon="7.9033017"><ele>195.0</ele><time>2026-05-01T12:20:38.155Z</time></trkpt><trkpt lat="44.6837317" lon="7.9035767"><ele>195.0</ele><time>2026-05-01T12:20:39.158Z</time></trkpt><trkpt lat="44.6837083" lon="7.9038533"><ele>195.0</ele><time>2026-05-01T12:20:40.154Z</time></trkpt><trkpt lat="44.6836883" lon="7.90413"><ele>195.0</ele><time>2026-05-01T12:20:41.159Z</time></trkpt><trkpt lat="44.6836683" lon="7.9044"><ele>195.0</ele><time>2026-05-01T12:20:42.154Z</time></trkpt><trkpt lat="44.6836433" lon="7.904675"><ele>194.66666666666669</ele><time>2026-05-01T12:20:43.159Z</time></trkpt><trkpt lat="44.68361" lon="7.9049483"><ele>194.33333333333334</ele><time>2026-05-01T12:20:44.158Z</time></trkpt><trkpt lat="44.6835833" lon="7.9052267"><ele>194.0</ele><time>2026-05-01T12:20:45.151Z</time></trkpt><trkpt lat="44.6835617" lon="7.90551"><ele>194.0</ele><time>2026-05-01T12:20:46.154Z</time></trkpt><trkpt lat="44.6835417" lon="7.905795"><ele>194.0</ele><time>2026-05-01T12:20:47.157Z</time></trkpt><trkpt lat="44.683525" lon="7.9060767"><ele>194.0</ele><time>2026-05-01T12:20:48.151Z</time></trkpt><trkpt lat="44.6835317" lon="7.9063517"><ele>193.66666666666669</ele><time>2026-05-01T12:20:49.154Z</time></trkpt><trkpt lat="44.6835617" lon="7.9066217"><ele>193.33333333333331</ele><time>2026-05-01T12:20:50.152Z</time></trkpt><trkpt lat="44.68362" lon="7.906895"><ele>193.0</ele><time>2026-05-01T12:20:51.152Z</time></trkpt><trkpt lat="44.683705" lon="7.907165"><ele>193.0</ele><time>2026-05-01T12:20:52.154Z</time></trkpt><trkpt lat="44.683805" lon="7.9074283"><ele>193.0</ele><time>2026-05-01T12:20:53.152Z</time></trkpt><trkpt lat="44.68391" lon="7.9076883"><ele>193.0</ele><time>2026-05-01T12:20:54.15Z</time></trkpt><trkpt lat="44.6840183" lon="7.9079467"><ele>192.66666666666666</ele><time>2026-05-01T12:20:55.151Z</time></trkpt><trkpt lat="44.684125" lon="7.908205"><ele>192.33333333333331</ele><time>2026-05-01T12:20:56.153Z</time></trkpt><trkpt lat="44.6842267" lon="7.9084617"><ele>192.0</ele><time>2026-05-01T12:20:57.154Z</time></trkpt><trkpt lat="44.6843383" lon="7.908725"><ele>192.0</ele><time>2026-05-01T12:20:58.15Z</time></trkpt><trkpt lat="44.6844417" lon="7.9089783"><ele>192.0</ele><time>2026-05-01T12:20:59.155Z</time></trkpt><trkpt lat="44.684555" lon="7.9092433"><ele>192.0</ele><time>2026-05-01T12:21:00.158Z</time></trkpt><trkpt lat="44.6846617" lon="7.9095"><ele>192.66666666666669</ele><time>2026-05-01T12:21:01.157Z</time></trkpt><trkpt lat="44.6847717" lon="7.9097583"><ele>193.33333333333334</ele><time>2026-05-01T12:21:02.153Z</time></trkpt><trkpt lat="44.68488" lon="7.91002"><ele>194.0</ele><time>2026-05-01T12:21:03.157Z</time></trkpt><trkpt lat="44.6849883" lon="7.9102783"><ele>194.33333333333334</ele><time>2026-05-01T12:21:04.155Z</time></trkpt><trkpt lat="44.6850933" lon="7.91053"><ele>194.66666666666669</ele><time>2026-05-01T12:21:05.155Z</time></trkpt><trkpt lat="44.68519" lon="7.91077"><ele>195.0</ele><time>2026-05-01T12:21:06.157Z</time></trkpt><trkpt lat="44.685285" lon="7.9110033"><ele>194.0</ele><time>2026-05-01T12:21:07.155Z</time></trkpt><trkpt lat="44.685375" lon="7.9112317"><ele>193.0</ele><time>2026-05-01T12:21:08.154Z</time></trkpt><trkpt lat="44.6854617" lon="7.9114533"><ele>192.0</ele><time>2026-05-01T12:21:09.152Z</time></trkpt><trkpt lat="44.6855317" lon="7.911645"><ele>191.5</ele><time>2026-05-01T12:21:10.151Z</time></trkpt><trkpt lat="44.6855817" lon="7.9118167"><ele>191.0</ele><time>2026-05-01T12:21:11.151Z</time></trkpt><trkpt lat="44.6855983" lon="7.9119817"><ele>190.5</ele><time>2026-05-01T12:21:12.151Z</time></trkpt><trkpt lat="44.68559" lon="7.91215"><ele>190.0</ele><time>2026-05-01T12:21:13.159Z</time></trkpt><trkpt lat="44.6855467" lon="7.912305"><ele>190.0</ele><time>2026-05-01T12:21:14.156Z</time></trkpt><trkpt lat="44.685475" lon="7.91244"><ele>190.0</ele><time>2026-05-01T12:21:15.154Z</time></trkpt><trkpt lat="44.6853767" lon="7.9125533"><ele>190.0</ele><time>2026-05-01T12:21:16.152Z</time></trkpt><trkpt lat="44.685265" lon="7.9126567"><ele>190.0</ele><time>2026-05-01T12:21:17.158Z</time></trkpt><trkpt lat="44.6851417" lon="7.9127467"><ele>189.0</ele><time>2026-05-01T12:21:18.156Z</time></trkpt><trkpt lat="44.6850133" lon="7.9128417"><ele>188.0</ele><time>2026-05-01T12:21:19.153Z</time></trkpt><trkpt lat="44.68488" lon="7.9129383"><ele>187.0</ele><time>2026-05-01T12:21:20.157Z</time></trkpt><trkpt lat="44.6847417" lon="7.913035"><ele>186.0</ele><time>2026-05-01T12:21:21.154Z</time></trkpt><trkpt lat="44.6846017" lon="7.9131433"><ele>186.0</ele><time>2026-05-01T12:21:22.154Z</time></trkpt><trkpt lat="44.68446" lon="7.9132517"><ele>186.0</ele><time>2026-05-01T12:21:23.152Z</time></trkpt><trkpt lat="44.6843133" lon="7.9133617"><ele>186.0</ele><time>2026-05-01T12:21:24.153Z</time></trkpt><trkpt lat="44.6841633" lon="7.9134767"><ele>185.66666666666666</ele><time>2026-05-01T12:21:25.157Z</time></trkpt><trkpt lat="44.6840133" lon="7.91359"><ele>185.33333333333331</ele><time>2026-05-01T12:21:26.157Z</time></trkpt><trkpt lat="44.683865" lon="7.9137017"><ele>185.0</ele><time>2026-05-01T12:21:27.155Z</time></trkpt><trkpt lat="44.68371" lon="7.913815"><ele>185.0</ele><time>2026-05-01T12:21:28.153Z</time></trkpt><trkpt lat="44.6835567" lon="7.913935"><ele>185.0</ele><time>2026-05-01T12:21:29.154Z</time></trkpt><trkpt lat="44.683395" lon="7.91406"><ele>185.0</ele><time>2026-05-01T12:21:30.156Z</time></trkpt><trkpt lat="44.6832333" lon="7.9141967"><ele>185.0</ele><time>2026-05-01T12:21:31.155Z</time></trkpt><trkpt lat="44.6830717" lon="7.9143467"><ele>185.0</ele><time>2026-05-01T12:21:32.157Z</time></trkpt><trkpt lat="44.68291" lon="7.91451"><ele>185.0</ele><time>2026-05-01T12:21:33.153Z</time></trkpt><trkpt lat="44.6827533" lon="7.9146867"><ele>185.0</ele><time>2026-05-01T12:21:34.152Z</time></trkpt><trkpt lat="44.6825983" lon="7.91487"><ele>185.0</ele><time>2026-05-01T12:21:35.155Z</time></trkpt><trkpt lat="44.6824367" lon="7.91506"><ele>185.0</ele><time>2026-05-01T12:21:36.155Z</time></trkpt><trkpt lat="44.6822683" lon="7.9152617"><ele>185.0</ele><time>2026-05-01T12:21:37.154Z</time></trkpt><trkpt lat="44.6820917" lon="7.9154717"><ele>185.0</ele><time>2026-05-01T12:21:38.157Z</time></trkpt><trkpt lat="44.6819133" lon="7.9156817"><ele>185.0</ele><time>2026-05-01T12:21:39.155Z</time></trkpt><trkpt lat="44.681745" lon="7.9158833"><ele>185.0</ele><time>2026-05-01T12:21:40.152Z</time></trkpt><trkpt lat="44.681585" lon="7.9160767"><ele>185.0</ele><time>2026-05-01T12:21:41.153Z</time></trkpt><trkpt lat="44.6814333" lon="7.9162633"><ele>184.66666666666666</ele><time>2026-05-01T12:21:42.154Z</time></trkpt><trkpt lat="44.6812817" lon="7.9164417"><ele>184.33333333333334</ele><time>2026-05-01T12:21:43.155Z</time></trkpt><trkpt lat="44.68113" lon="7.916615"><ele>184.0</ele><time>2026-05-01T12:21:44.157Z</time></trkpt><trkpt lat="44.6809883" lon="7.9167883"><ele>184.0</ele><time>2026-05-01T12:21:45.153Z</time></trkpt><trkpt lat="44.6808467" lon="7.9169583"><ele>184.0</ele><time>2026-05-01T12:21:46.15Z</time></trkpt><trkpt lat="44.6807067" lon="7.9171267"><ele>184.0</ele><time>2026-05-01T12:21:47.153Z</time></trkpt><trkpt lat="44.680565" lon="7.9172917"><ele>184.0</ele><time>2026-05-01T12:21:48.153Z</time></trkpt><trkpt lat="44.6804233" lon="7.917455"><ele>184.0</ele><time>2026-05-01T12:21:49.156Z</time></trkpt><trkpt lat="44.680285" lon="7.91762"><ele>184.0</ele><time>2026-05-01T12:21:50.152Z</time></trkpt><trkpt lat="44.6801483" lon="7.91778"><ele>185.0</ele><time>2026-05-01T12:21:51.152Z</time></trkpt><trkpt lat="44.680015" lon="7.917935"><ele>186.0</ele><time>2026-05-01T12:21:52.152Z</time></trkpt><trkpt lat="44.679885" lon="7.9180767"><ele>187.0</ele><time>2026-05-01T12:21:53.154Z</time></trkpt><trkpt lat="44.6797517" lon="7.9182"><ele>187.0</ele><time>2026-05-01T12:21:54.153Z</time></trkpt><trkpt lat="44.6796233" lon="7.9183017"><ele>187.0</ele><time>2026-05-01T12:21:55.155Z</time></trkpt><trkpt lat="44.6795017" lon="7.9183833"><ele>187.0</ele><time>2026-05-01T12:21:56.156Z</time></trkpt><trkpt lat="44.6793733" lon="7.9184433"><ele>187.0</ele><time>2026-05-01T12:21:57.159Z</time></trkpt><trkpt lat="44.679245" lon="7.9184817"><ele>187.39999999999998</ele><time>2026-05-01T12:21:58.151Z</time></trkpt><trkpt lat="44.6791267" lon="7.9185083"><ele>187.79999999999998</ele><time>2026-05-01T12:21:59.156Z</time></trkpt><trkpt lat="44.6790117" lon="7.9185283"><ele>188.2</ele><time>2026-05-01T12:22:00.154Z</time></trkpt><trkpt lat="44.6789083" lon="7.9185383"><ele>188.6</ele><time>2026-05-01T12:22:01.156Z</time></trkpt><trkpt lat="44.6788033" lon="7.9185467"><ele>189.0</ele><time>2026-05-01T12:22:02.153Z</time></trkpt><trkpt lat="44.6786917" lon="7.918565"><ele>190.25</ele><time>2026-05-01T12:22:03.151Z</time></trkpt><trkpt lat="44.67857" lon="7.91858"><ele>191.5</ele><time>2026-05-01T12:22:04.156Z</time></trkpt><trkpt lat="44.6784367" lon="7.9185917"><ele>192.75</ele><time>2026-05-01T12:22:05.154Z</time></trkpt><trkpt lat="44.678285" lon="7.9186033"><ele>194.0</ele><time>2026-05-01T12:22:06.157Z</time></trkpt><trkpt lat="44.6781117" lon="7.91862"><ele>194.0</ele><time>2026-05-01T12:22:07.152Z</time></trkpt><trkpt lat="44.677935" lon="7.918645"><ele>194.0</ele><time>2026-05-01T12:22:08.155Z</time></trkpt><trkpt lat="44.6777617" lon="7.918665"><ele>194.0</ele><time>2026-05-01T12:22:09.151Z</time></trkpt><trkpt lat="44.67759" lon="7.9186867"><ele>196.66666666666669</ele><time>2026-05-01T12:22:10.156Z</time></trkpt><trkpt lat="44.6774283" lon="7.9187083"><ele>199.33333333333331</ele><time>2026-05-01T12:22:11.153Z</time></trkpt><trkpt lat="44.6772717" lon="7.9187183"><ele>202.0</ele><time>2026-05-01T12:22:12.156Z</time></trkpt><trkpt lat="44.6771283" lon="7.9187033"><ele>202.0</ele><time>2026-05-01T12:22:13.151Z</time></trkpt><trkpt lat="44.6769983" lon="7.9186583"><ele>202.0</ele><time>2026-05-01T12:22:14.154Z</time></trkpt><trkpt lat="44.6768767" lon="7.9185717"><ele>202.0</ele><time>2026-05-01T12:22:15.152Z</time></trkpt><trkpt lat="44.6767533" lon="7.9184483"><ele>202.0</ele><time>2026-05-01T12:22:16.155Z</time></trkpt><trkpt lat="44.6766133" lon="7.9183133"><ele>204.33333333333331</ele><time>2026-05-01T12:22:17.157Z</time></trkpt><trkpt lat="44.6764683" lon="7.9181567"><ele>206.66666666666669</ele><time>2026-05-01T12:22:18.158Z</time></trkpt><trkpt lat="44.676325" lon="7.9179933"><ele>209.0</ele><time>2026-05-01T12:22:19.154Z</time></trkpt><trkpt lat="44.6761817" lon="7.9178333"><ele>211.66666666666669</ele><time>2026-05-01T12:22:20.156Z</time></trkpt><trkpt lat="44.67603" lon="7.9176617"><ele>214.33333333333331</ele><time>2026-05-01T12:22:21.156Z</time></trkpt><trkpt lat="44.675885" lon="7.9174883"><ele>217.0</ele><time>2026-05-01T12:22:22.152Z</time></trkpt><trkpt lat="44.6757383" lon="7.9173167"><ele>217.0</ele><time>2026-05-01T12:22:23.155Z</time></trkpt><trkpt lat="44.6755917" lon="7.9171467"><ele>217.0</ele><time>2026-05-01T12:22:24.153Z</time></trkpt><trkpt lat="44.675445" lon="7.9169717"><ele>217.0</ele><time>2026-05-01T12:22:25.155Z</time></trkpt><trkpt lat="44.6753033" lon="7.9168"><ele>219.0</ele><time>2026-05-01T12:22:26.15Z</time></trkpt><trkpt lat="44.67516" lon="7.9166317"><ele>221.0</ele><time>2026-05-01T12:22:27.154Z</time></trkpt><trkpt lat="44.675015" lon="7.9164633"><ele>223.0</ele><time>2026-05-01T12:22:28.153Z</time></trkpt><trkpt lat="44.67487" lon="7.916295"><ele>223.0</ele><time>2026-05-01T12:22:29.153Z</time></trkpt><trkpt lat="44.6747217" lon="7.91613"><ele>223.0</ele><time>2026-05-01T12:22:30.151Z</time></trkpt><trkpt lat="44.6745817" lon="7.91596"><ele>223.0</ele><time>2026-05-01T12:22:31.152Z</time></trkpt><trkpt lat="44.674455" lon="7.9157733"><ele>225.0</ele><time>2026-05-01T12:22:32.152Z</time></trkpt><trkpt lat="44.6743467" lon="7.9155683"><ele>227.0</ele><time>2026-05-01T12:22:33.155Z</time></trkpt><trkpt lat="44.6742533" lon="7.915345"><ele>229.0</ele><time>2026-05-01T12:22:34.156Z</time></trkpt><trkpt lat="44.6741683" lon="7.9151117"><ele>229.0</ele><time>2026-05-01T12:22:35.153Z</time></trkpt><trkpt lat="44.6740933" lon="7.9148717"><ele>229.0</ele><time>2026-05-01T12:22:36.155Z</time></trkpt><trkpt lat="44.6740233" lon="7.9146283"><ele>229.0</ele><time>2026-05-01T12:22:37.154Z</time></trkpt><trkpt lat="44.6739483" lon="7.9144"><ele>229.33333333333331</ele><time>2026-05-01T12:22:38.156Z</time></trkpt><trkpt lat="44.6738633" lon="7.9141917"><ele>229.66666666666669</ele><time>2026-05-01T12:22:39.152Z</time></trkpt><trkpt lat="44.6737683" lon="7.9139983"><ele>230.0</ele><time>2026-05-01T12:22:40.15Z</time></trkpt><trkpt lat="44.6736617" lon="7.9138167"><ele>231.33333333333334</ele><time>2026-05-01T12:22:41.154Z</time></trkpt><trkpt lat="44.6735483" lon="7.9136417"><ele>232.66666666666669</ele><time>2026-05-01T12:22:42.15Z</time></trkpt><trkpt lat="44.6734317" lon="7.9134667"><ele>234.0</ele><time>2026-05-01T12:22:43.153Z</time></trkpt><trkpt lat="44.6733167" lon="7.913285"><ele>234.0</ele><time>2026-05-01T12:22:44.152Z</time></trkpt><trkpt lat="44.6732033" lon="7.91309"><ele>234.0</ele><time>2026-05-01T12:22:45.152Z</time></trkpt><trkpt lat="44.6731017" lon="7.9128833"><ele>234.0</ele><time>2026-05-01T12:22:46.154Z</time></trkpt><trkpt lat="44.6730067" lon="7.9126683"><ele>233.33333333333331</ele><time>2026-05-01T12:22:47.153Z</time></trkpt><trkpt lat="44.6729217" lon="7.9124517"><ele>232.66666666666666</ele><time>2026-05-01T12:22:48.153Z</time></trkpt><trkpt lat="44.6728367" lon="7.9122533"><ele>232.0</ele><time>2026-05-01T12:22:49.152Z</time></trkpt><trkpt lat="44.6727467" lon="7.91206"><ele>234.33333333333331</ele><time>2026-05-01T12:22:50.151Z</time></trkpt><trkpt lat="44.6726417" lon="7.91188"><ele>236.66666666666669</ele><time>2026-05-01T12:22:51.153Z</time></trkpt><trkpt lat="44.672525" lon="7.9117117"><ele>239.0</ele><time>2026-05-01T12:22:52.15Z</time></trkpt><trkpt lat="44.6724033" lon="7.911545"><ele>239.0</ele><time>2026-05-01T12:22:53.156Z</time></trkpt><trkpt lat="44.6722867" lon="7.911375"><ele>239.0</ele><time>2026-05-01T12:22:54.156Z</time></trkpt><trkpt lat="44.6721817" lon="7.911215"><ele>239.0</ele><time>2026-05-01T12:22:55.16Z</time></trkpt><trkpt lat="44.6720817" lon="7.911075"><ele>239.0</ele><time>2026-05-01T12:22:56.153Z</time></trkpt><trkpt lat="44.671975" lon="7.9109633"><ele>239.0</ele><time>2026-05-01T12:22:57.155Z</time></trkpt><trkpt lat="44.6718617" lon="7.910875"><ele>239.0</ele><time>2026-05-01T12:22:58.154Z</time></trkpt><trkpt lat="44.6717233" lon="7.9108317"><ele>239.0</ele><time>2026-05-01T12:22:59.153Z</time></trkpt><trkpt lat="44.671565" lon="7.91082"><ele>239.66666666666669</ele><time>2026-05-01T12:23:00.155Z</time></trkpt><trkpt lat="44.6713867" lon="7.9108183"><ele>240.33333333333331</ele><time>2026-05-01T12:23:01.152Z</time></trkpt><trkpt lat="44.6711917" lon="7.9108133"><ele>241.0</ele><time>2026-05-01T12:23:02.158Z</time></trkpt><trkpt lat="44.6709783" lon="7.91081"><ele>241.66666666666666</ele><time>2026-05-01T12:23:03.152Z</time></trkpt><trkpt lat="44.67076" lon="7.9108067"><ele>242.33333333333331</ele><time>2026-05-01T12:23:04.154Z</time></trkpt><trkpt lat="44.6705417" lon="7.910805"><ele>243.0</ele><time>2026-05-01T12:23:05.155Z</time></trkpt><trkpt lat="44.6703333" lon="7.910795"><ele>245.0</ele><time>2026-05-01T12:23:06.149Z</time></trkpt><trkpt lat="44.670135" lon="7.9107783"><ele>247.0</ele><time>2026-05-01T12:23:07.155Z</time></trkpt><trkpt lat="44.66995" lon="7.910755"><ele>249.0</ele><time>2026-05-01T12:23:08.152Z</time></trkpt><trkpt lat="44.6697767" lon="7.910715"><ele>249.0</ele><time>2026-05-01T12:23:09.152Z</time></trkpt><trkpt lat="44.6696067" lon="7.9106583"><ele>249.0</ele><time>2026-05-01T12:23:10.154Z</time></trkpt><trkpt lat="44.6694367" lon="7.9105817"><ele>249.0</ele><time>2026-05-01T12:23:11.154Z</time></trkpt><trkpt lat="44.6692667" lon="7.9105"><ele>250.0</ele><time>2026-05-01T12:23:12.153Z</time></trkpt><trkpt lat="44.6690967" lon="7.9104117"><ele>251.0</ele><time>2026-05-01T12:23:13.15Z</time></trkpt><trkpt lat="44.6689217" lon="7.9103267"><ele>252.0</ele><time>2026-05-01T12:23:14.155Z</time></trkpt><trkpt lat="44.66875" lon="7.9102417"><ele>253.0</ele><time>2026-05-01T12:23:15.153Z</time></trkpt><trkpt lat="44.6685767" lon="7.910155"><ele>254.0</ele><time>2026-05-01T12:23:16.155Z</time></trkpt><trkpt lat="44.668405" lon="7.91007"><ele>255.0</ele><time>2026-05-01T12:23:17.151Z</time></trkpt><trkpt lat="44.6682383" lon="7.9099833"><ele>256.3333333333333</ele><time>2026-05-01T12:23:18.155Z</time></trkpt><trkpt lat="44.66807" lon="7.9099"><ele>257.66666666666663</ele><time>2026-05-01T12:23:19.152Z</time></trkpt><trkpt lat="44.667905" lon="7.9098133"><ele>259.0</ele><time>2026-05-01T12:23:20.158Z</time></trkpt><trkpt lat="44.6677383" lon="7.9097267"><ele>260.0</ele><time>2026-05-01T12:23:21.155Z</time></trkpt><trkpt lat="44.66758" lon="7.9096433"><ele>261.0</ele><time>2026-05-01T12:23:22.157Z</time></trkpt><trkpt lat="44.6674367" lon="7.9095717"><ele>262.0</ele><time>2026-05-01T12:23:23.157Z</time></trkpt><trkpt lat="44.6673067" lon="7.9095317"><ele>262.0</ele><time>2026-05-01T12:23:24.151Z</time></trkpt><trkpt lat="44.66719" lon="7.90953"><ele>262.0</ele><time>2026-05-01T12:23:25.159Z</time></trkpt><trkpt lat="44.66708" lon="7.9095617"><ele>262.0</ele><time>2026-05-01T12:23:26.152Z</time></trkpt><trkpt lat="44.66697" lon="7.9096433"><ele>262.0</ele><time>2026-05-01T12:23:27.155Z</time></trkpt><trkpt lat="44.6668583" lon="7.909755"><ele>263.3333333333333</ele><time>2026-05-01T12:23:28.162Z</time></trkpt><trkpt lat="44.666745" lon="7.909885"><ele>264.6666666666667</ele><time>2026-05-01T12:23:29.157Z</time></trkpt><trkpt lat="44.6666233" lon="7.9100267"><ele>266.0</ele><time>2026-05-01T12:23:30.154Z</time></trkpt><trkpt lat="44.6664933" lon="7.9101733"><ele>266.0</ele><time>2026-05-01T12:23:31.152Z</time></trkpt><trkpt lat="44.6663667" lon="7.9103233"><ele>266.0</ele><time>2026-05-01T12:23:32.156Z</time></trkpt><trkpt lat="44.6662433" lon="7.9104783"><ele>266.0</ele><time>2026-05-01T12:23:33.152Z</time></trkpt><trkpt lat="44.6661317" lon="7.91065"><ele>269.0</ele><time>2026-05-01T12:23:34.156Z</time></trkpt><trkpt lat="44.6660333" lon="7.9108417"><ele>272.0</ele><time>2026-05-01T12:23:35.155Z</time></trkpt><trkpt lat="44.6659433" lon="7.9110483"><ele>275.0</ele><time>2026-05-01T12:23:36.152Z</time></trkpt><trkpt lat="44.66586" lon="7.9112633"><ele>276.6666666666667</ele><time>2026-05-01T12:23:37.156Z</time></trkpt><trkpt lat="44.66578" lon="7.91148"><ele>278.3333333333333</ele><time>2026-05-01T12:23:38.156Z</time></trkpt><trkpt lat="44.6657017" lon="7.9116983"><ele>280.0</ele><time>2026-05-01T12:23:39.157Z</time></trkpt><trkpt lat="44.66563" lon="7.91192"><ele>281.66666666666663</ele><time>2026-05-01T12:23:40.151Z</time></trkpt><trkpt lat="44.665565" lon="7.9121367"><ele>283.3333333333333</ele><time>2026-05-01T12:23:41.156Z</time></trkpt><trkpt lat="44.6654967" lon="7.9123433"><ele>285.0</ele><time>2026-05-01T12:23:42.158Z</time></trkpt><trkpt lat="44.6654367" lon="7.9125283"><ele>286.0</ele><time>2026-05-01T12:23:43.157Z</time></trkpt><trkpt lat="44.6653783" lon="7.91269"><ele>287.0</ele><time>2026-05-01T12:23:44.155Z</time></trkpt><trkpt lat="44.6653117" lon="7.9128317"><ele>288.0</ele><time>2026-05-01T12:23:45.153Z</time></trkpt><trkpt lat="44.6652217" lon="7.91295"><ele>289.0</ele><time>2026-05-01T12:23:46.151Z</time></trkpt><trkpt lat="44.6651167" lon="7.9130567"><ele>290.25</ele><time>2026-05-01T12:23:47.15Z</time></trkpt><trkpt lat="44.6650033" lon="7.9131583"><ele>291.5</ele><time>2026-05-01T12:23:48.155Z</time></trkpt><trkpt lat="44.664895" lon="7.9132483"><ele>292.75</ele><time>2026-05-01T12:23:49.16Z</time></trkpt><trkpt lat="44.6647833" lon="7.9133117"><ele>294.0</ele><time>2026-05-01T12:23:50.154Z</time></trkpt><trkpt lat="44.6646667" lon="7.913345"><ele>294.0</ele><time>2026-05-01T12:23:51.154Z</time></trkpt><trkpt lat="44.6645517" lon="7.9133783"><ele>294.0</ele><time>2026-05-01T12:23:52.151Z</time></trkpt><trkpt lat="44.66445" lon="7.9134533"><ele>294.0</ele><time>2026-05-01T12:23:53.155Z</time></trkpt><trkpt lat="44.6643517" lon="7.9135517"><ele>294.0</ele><time>2026-05-01T12:23:54.156Z</time></trkpt><trkpt lat="44.6642533" lon="7.9136767"><ele>296.25</ele><time>2026-05-01T12:23:55.154Z</time></trkpt><trkpt lat="44.6641667" lon="7.9138367"><ele>298.5</ele><time>2026-05-01T12:23:56.154Z</time></trkpt><trkpt lat="44.664085" lon="7.9140117"><ele>300.75</ele><time>2026-05-01T12:23:57.155Z</time></trkpt><trkpt lat="44.6640017" lon="7.91419"><ele>303.0</ele><time>2026-05-01T12:23:58.157Z</time></trkpt><trkpt lat="44.6639183" lon="7.9143617"><ele>304.25</ele><time>2026-05-01T12:23:59.156Z</time></trkpt><trkpt lat="44.6638283" lon="7.9145183"><ele>305.5</ele><time>2026-05-01T12:24:00.153Z</time></trkpt><trkpt lat="44.6637333" lon="7.9146617"><ele>306.75</ele><time>2026-05-01T12:24:01.158Z</time></trkpt><trkpt lat="44.6636317" lon="7.9148"><ele>308.0</ele><time>2026-05-01T12:24:02.152Z</time></trkpt><trkpt lat="44.6635183" lon="7.9149317"><ele>308.0</ele><time>2026-05-01T12:24:03.151Z</time></trkpt><trkpt lat="44.6634" lon="7.9150683"><ele>308.0</ele><time>2026-05-01T12:24:04.154Z</time></trkpt><trkpt lat="44.6632767" lon="7.915205"><ele>308.0</ele><time>2026-05-01T12:24:05.16Z</time></trkpt><trkpt lat="44.663155" lon="7.9153467"><ele>311.33333333333337</ele><time>2026-05-01T12:24:06.156Z</time></trkpt><trkpt lat="44.6630333" lon="7.915495"><ele>314.6666666666667</ele><time>2026-05-01T12:24:07.154Z</time></trkpt><trkpt lat="44.662915" lon="7.91565"><ele>318.0</ele><time>2026-05-01T12:24:08.162Z</time></trkpt><trkpt lat="44.6628033" lon="7.9158117"><ele>319.3333333333333</ele><time>2026-05-01T12:24:09.155Z</time></trkpt><trkpt lat="44.6627" lon="7.9159817"><ele>320.66666666666663</ele><time>2026-05-01T12:24:10.154Z</time></trkpt><trkpt lat="44.6626183" lon="7.9161583"><ele>322.0</ele><time>2026-05-01T12:24:11.155Z</time></trkpt><trkpt lat="44.6625517" lon="7.9163433"><ele>322.0</ele><time>2026-05-01T12:24:12.152Z</time></trkpt><trkpt lat="44.6624983" lon="7.9165367"><ele>322.0</ele><time>2026-05-01T12:24:13.163Z</time></trkpt><trkpt lat="44.662445" lon="7.9167267"><ele>322.0</ele><time>2026-05-01T12:24:14.159Z</time></trkpt><trkpt lat="44.662395" lon="7.91691"><ele>322.0</ele><time>2026-05-01T12:24:15.152Z</time></trkpt><trkpt lat="44.66235" lon="7.917095"><ele>323.75</ele><time>2026-05-01T12:24:16.159Z</time></trkpt><trkpt lat="44.662305" lon="7.9172733"><ele>325.5</ele><time>2026-05-01T12:24:17.156Z</time></trkpt><trkpt lat="44.66226" lon="7.91743"><ele>327.25</ele><time>2026-05-01T12:24:18.154Z</time></trkpt><trkpt lat="44.6622167" lon="7.91757"><ele>329.0</ele><time>2026-05-01T12:24:19.152Z</time></trkpt><trkpt lat="44.662175" lon="7.9177033"><ele>328.25</ele><time>2026-05-01T12:24:20.153Z</time></trkpt><trkpt lat="44.6621117" lon="7.9178317"><ele>327.5</ele><time>2026-05-01T12:24:21.153Z</time></trkpt><trkpt lat="44.6620417" lon="7.917965"><ele>326.75</ele><time>2026-05-01T12:24:22.154Z</time></trkpt><trkpt lat="44.6619683" lon="7.9181067"><ele>326.0</ele><time>2026-05-01T12:24:23.151Z</time></trkpt><trkpt lat="44.6618917" lon="7.9182567"><ele>326.75</ele><time>2026-05-01T12:24:24.157Z</time></trkpt><trkpt lat="44.6618067" lon="7.91841"><ele>327.5</ele><time>2026-05-01T12:24:25.151Z</time></trkpt><trkpt lat="44.66172" lon="7.91857"><ele>328.25</ele><time>2026-05-01T12:24:26.157Z</time></trkpt><trkpt lat="44.66163" lon="7.9187283"><ele>329.0</ele><time>2026-05-01T12:24:27.16Z</time></trkpt><trkpt lat="44.6615333" lon="7.9188833"><ele>329.0</ele><time>2026-05-01T12:24:28.153Z</time></trkpt><trkpt lat="44.6614267" lon="7.9190317"><ele>329.0</ele><time>2026-05-01T12:24:29.152Z</time></trkpt><trkpt lat="44.661315" lon="7.9191733"><ele>329.0</ele><time>2026-05-01T12:24:30.151Z</time></trkpt><trkpt lat="44.6612033" lon="7.91931"><ele>329.0</ele><time>2026-05-01T12:24:31.155Z</time></trkpt><trkpt lat="44.661105" lon="7.9194417"><ele>329.4</ele><time>2026-05-01T12:24:32.151Z</time></trkpt><trkpt lat="44.661035" lon="7.9195683"><ele>329.79999999999995</ele><time>2026-05-01T12:24:33.153Z</time></trkpt><trkpt lat="44.661" lon="7.919695"><ele>330.20000000000005</ele><time>2026-05-01T12:24:34.154Z</time></trkpt><trkpt lat="44.661" lon="7.919845"><ele>330.6</ele><time>2026-05-01T12:24:35.154Z</time></trkpt><trkpt lat="44.6610317" lon="7.9199983"><ele>331.0</ele><time>2026-05-01T12:24:36.157Z</time></trkpt><trkpt lat="44.6610833" lon="7.92016"><ele>332.5</ele><time>2026-05-01T12:24:37.156Z</time></trkpt><trkpt lat="44.661155" lon="7.9203217"><ele>334.0</ele><time>2026-05-01T12:24:38.158Z</time></trkpt><trkpt lat="44.6612517" lon="7.9204667"><ele>335.5</ele><time>2026-05-01T12:24:39.154Z</time></trkpt><trkpt lat="44.6613717" lon="7.9205767"><ele>337.0</ele><time>2026-05-01T12:24:40.151Z</time></trkpt><trkpt lat="44.661505" lon="7.9206567"><ele>337.0</ele><time>2026-05-01T12:24:41.154Z</time></trkpt><trkpt lat="44.66164" lon="7.9207167"><ele>337.0</ele><time>2026-05-01T12:24:42.155Z</time></trkpt><trkpt lat="44.6617533" lon="7.920765"><ele>337.0</ele><time>2026-05-01T12:24:43.154Z</time></trkpt><trkpt lat="44.6618317" lon="7.9208167"><ele>337.0</ele><time>2026-05-01T12:24:44.152Z</time></trkpt><trkpt lat="44.6618933" lon="7.9208867"><ele>337.0</ele><time>2026-05-01T12:24:45.154Z</time></trkpt><trkpt lat="44.6618967" lon="7.9209767"><ele>340.0</ele><time>2026-05-01T12:24:46.151Z</time></trkpt><trkpt lat="44.66187" lon="7.9211367"><ele>343.0</ele><time>2026-05-01T12:24:48.154Z</time></trkpt><trkpt lat="44.6617117" lon="7.9211233"><ele>346.0</ele><time>2026-05-01T12:24:49.155Z</time></trkpt><trkpt lat="44.6616017" lon="7.9211317"><ele>349.0</ele><time>2026-05-01T12:24:50.154Z</time></trkpt><trkpt lat="44.6614717" lon="7.92113"><ele>349.0</ele><time>2026-05-01T12:24:51.153Z</time></trkpt><trkpt lat="44.6613383" lon="7.9211367"><ele>349.0</ele><time>2026-05-01T12:24:52.156Z</time></trkpt><trkpt lat="44.6611983" lon="7.9211467"><ele>349.0</ele><time>2026-05-01T12:24:53.153Z</time></trkpt><trkpt lat="44.6610533" lon="7.9211567"><ele>349.0</ele><time>2026-05-01T12:24:54.154Z</time></trkpt><trkpt lat="44.660915" lon="7.9211767"><ele>349.25</ele><time>2026-05-01T12:24:55.153Z</time></trkpt><trkpt lat="44.6607783" lon="7.9212183"><ele>349.5</ele><time>2026-05-01T12:24:56.159Z</time></trkpt><trkpt lat="44.660645" lon="7.9212917"><ele>349.75</ele><time>2026-05-01T12:24:57.155Z</time></trkpt><trkpt lat="44.6605117" lon="7.9213933"><ele>350.0</ele><time>2026-05-01T12:24:58.154Z</time></trkpt><trkpt lat="44.6603733" lon="7.921515"><ele>349.33333333333337</ele><time>2026-05-01T12:24:59.156Z</time></trkpt><trkpt lat="44.6602333" lon="7.9216417"><ele>348.6666666666667</ele><time>2026-05-01T12:25:00.153Z</time></trkpt><trkpt lat="44.6600967" lon="7.92177"><ele>348.0</ele><time>2026-05-01T12:25:01.155Z</time></trkpt><trkpt lat="44.6599567" lon="7.9219"><ele>352.0</ele><time>2026-05-01T12:25:02.153Z</time></trkpt><trkpt lat="44.6598217" lon="7.9220283"><ele>356.0</ele><time>2026-05-01T12:25:03.152Z</time></trkpt><trkpt lat="44.6597" lon="7.922165"><ele>360.0</ele><time>2026-05-01T12:25:04.153Z</time></trkpt><trkpt lat="44.6595933" lon="7.9223183"><ele>360.0</ele><time>2026-05-01T12:25:05.156Z</time></trkpt><trkpt lat="44.659505" lon="7.922485"><ele>360.0</ele><time>2026-05-01T12:25:06.156Z</time></trkpt><trkpt lat="44.6594267" lon="7.9226483"><ele>360.0</ele><time>2026-05-01T12:25:07.157Z</time></trkpt><trkpt lat="44.6593433" lon="7.9227983"><ele>360.0</ele><time>2026-05-01T12:25:08.157Z</time></trkpt><trkpt lat="44.6592483" lon="7.9229183"><ele>360.25</ele><time>2026-05-01T12:25:09.153Z</time></trkpt><trkpt lat="44.6591333" lon="7.923005"><ele>360.5</ele><time>2026-05-01T12:25:10.154Z</time></trkpt><trkpt lat="44.6590033" lon="7.92306"><ele>360.75</ele><time>2026-05-01T12:25:11.155Z</time></trkpt><trkpt lat="44.6588617" lon="7.92311"><ele>361.0</ele><time>2026-05-01T12:25:12.152Z</time></trkpt><trkpt lat="44.6587133" lon="7.9231583"><ele>361.66666666666663</ele><time>2026-05-01T12:25:13.156Z</time></trkpt><trkpt lat="44.6585617" lon="7.9231933"><ele>362.3333333333333</ele><time>2026-05-01T12:25:14.151Z</time></trkpt><trkpt lat="44.65841" lon="7.923205"><ele>363.0</ele><time>2026-05-01T12:25:15.153Z</time></trkpt><trkpt lat="44.6582583" lon="7.9231883"><ele>363.0</ele><time>2026-05-01T12:25:16.152Z</time></trkpt><trkpt lat="44.6581217" lon="7.9231533"><ele>363.0</ele><time>2026-05-01T12:25:17.153Z</time></trkpt><trkpt lat="44.6579967" lon="7.9231183"><ele>363.0</ele><time>2026-05-01T12:25:18.152Z</time></trkpt><trkpt lat="44.65789" lon="7.9231117"><ele>363.0</ele><time>2026-05-01T12:25:19.152Z</time></trkpt><trkpt lat="44.6577917" lon="7.92314"><ele>363.79999999999995</ele><time>2026-05-01T12:25:20.155Z</time></trkpt><trkpt lat="44.6576967" lon="7.9231867"><ele>364.6</ele><time>2026-05-01T12:25:21.15Z</time></trkpt><trkpt lat="44.6575967" lon="7.92323"><ele>365.4</ele><time>2026-05-01T12:25:22.152Z</time></trkpt><trkpt lat="44.6574917" lon="7.92323"><ele>366.20000000000005</ele><time>2026-05-01T12:25:23.152Z</time></trkpt><trkpt lat="44.6573833" lon="7.9231733"><ele>367.0</ele><time>2026-05-01T12:25:24.152Z</time></trkpt><trkpt lat="44.657285" lon="7.9230817"><ele>367.0</ele><time>2026-05-01T12:25:25.156Z</time></trkpt><trkpt lat="44.6571917" lon="7.92295"><ele>367.0</ele><time>2026-05-01T12:25:26.154Z</time></trkpt><trkpt lat="44.6570817" lon="7.9228"><ele>367.0</ele><time>2026-05-01T12:25:27.152Z</time></trkpt><trkpt lat="44.6569783" lon="7.922655"><ele>367.0</ele><time>2026-05-01T12:25:28.161Z</time></trkpt><trkpt lat="44.656875" lon="7.9225383"><ele>368.5</ele><time>2026-05-01T12:25:29.156Z</time></trkpt><trkpt lat="44.6567567" lon="7.9224683"><ele>370.0</ele><time>2026-05-01T12:25:30.149Z</time></trkpt><trkpt lat="44.6566233" lon="7.922445"><ele>371.5</ele><time>2026-05-01T12:25:31.155Z</time></trkpt><trkpt lat="44.6564767" lon="7.92245"><ele>373.0</ele><time>2026-05-01T12:25:32.151Z</time></trkpt><trkpt lat="44.6563167" lon="7.922455"><ele>373.0</ele><time>2026-05-01T12:25:33.151Z</time></trkpt><trkpt lat="44.65614" lon="7.922435"><ele>373.0</ele><time>2026-05-01T12:25:34.152Z</time></trkpt><trkpt lat="44.6559517" lon="7.9223967"><ele>373.0</ele><time>2026-05-01T12:25:35.152Z</time></trkpt><trkpt lat="44.6557533" lon="7.9223517"><ele>374.0</ele><time>2026-05-01T12:25:36.154Z</time></trkpt><trkpt lat="44.65555" lon="7.922305"><ele>375.0</ele><time>2026-05-01T12:25:37.155Z</time></trkpt><trkpt lat="44.6553467" lon="7.9222567"><ele>376.0</ele><time>2026-05-01T12:25:38.153Z</time></trkpt><trkpt lat="44.65514" lon="7.922205"><ele>378.3333333333333</ele><time>2026-05-01T12:25:39.156Z</time></trkpt><trkpt lat="44.654935" lon="7.922155"><ele>380.6666666666667</ele><time>2026-05-01T12:25:40.157Z</time></trkpt><trkpt lat="44.6547417" lon="7.9221067"><ele>383.0</ele><time>2026-05-01T12:25:41.155Z</time></trkpt><trkpt lat="44.654565" lon="7.9220667"><ele>384.5</ele><time>2026-05-01T12:25:42.154Z</time></trkpt><trkpt lat="44.65442" lon="7.9220417"><ele>386.0</ele><time>2026-05-01T12:25:43.157Z</time></trkpt><trkpt lat="44.6542933" lon="7.9220433"><ele>387.5</ele><time>2026-05-01T12:25:44.159Z</time></trkpt><trkpt lat="44.6541667" lon="7.9220817"><ele>389.0</ele><time>2026-05-01T12:25:45.153Z</time></trkpt><trkpt lat="44.6540433" lon="7.92216"><ele>389.0</ele><time>2026-05-01T12:25:46.156Z</time></trkpt><trkpt lat="44.6539267" lon="7.9222517"><ele>389.0</ele><time>2026-05-01T12:25:47.156Z</time></trkpt><trkpt lat="44.6538183" lon="7.922315"><ele>389.0</ele><time>2026-05-01T12:25:48.154Z</time></trkpt><trkpt lat="44.653715" lon="7.9223217"><ele>389.0</ele><time>2026-05-01T12:25:49.16Z</time></trkpt><trkpt lat="44.6536267" lon="7.9222717"><ele>389.5</ele><time>2026-05-01T12:25:50.159Z</time></trkpt><trkpt lat="44.65354" lon="7.9221683"><ele>390.0</ele><time>2026-05-01T12:25:51.153Z</time></trkpt><trkpt lat="44.6534567" lon="7.9220317"><ele>390.5</ele><time>2026-05-01T12:25:52.153Z</time></trkpt><trkpt lat="44.6533717" lon="7.9218783"><ele>391.0</ele><time>2026-05-01T12:25:53.155Z</time></trkpt><trkpt lat="44.6532833" lon="7.9217233"><ele>391.0</ele><time>2026-05-01T12:25:54.154Z</time></trkpt><trkpt lat="44.6531867" lon="7.9215783"><ele>391.0</ele><time>2026-05-01T12:25:55.16Z</time></trkpt><trkpt lat="44.6530783" lon="7.92147"><ele>391.0</ele><time>2026-05-01T12:25:56.153Z</time></trkpt><trkpt lat="44.6529583" lon="7.9213967"><ele>391.0</ele><time>2026-05-01T12:25:57.162Z</time></trkpt><trkpt lat="44.6528317" lon="7.92136"><ele>393.0</ele><time>2026-05-01T12:25:58.153Z</time></trkpt><trkpt lat="44.6526967" lon="7.9213617"><ele>395.0</ele><time>2026-05-01T12:25:59.151Z</time></trkpt><trkpt lat="44.65255" lon="7.9214"><ele>397.0</ele><time>2026-05-01T12:26:00.158Z</time></trkpt><trkpt lat="44.6523917" lon="7.9214683"><ele>397.0</ele><time>2026-05-01T12:26:01.156Z</time></trkpt><trkpt lat="44.6522217" lon="7.9215533"><ele>397.0</ele><time>2026-05-01T12:26:02.155Z</time></trkpt><trkpt lat="44.652045" lon="7.9216433"><ele>397.0</ele><time>2026-05-01T12:26:03.153Z</time></trkpt><trkpt lat="44.65187" lon="7.92173"><ele>400.0</ele><time>2026-05-01T12:26:04.155Z</time></trkpt><trkpt lat="44.6517017" lon="7.9218083"><ele>403.0</ele><time>2026-05-01T12:26:05.155Z</time></trkpt><trkpt lat="44.6515383" lon="7.921885"><ele>406.0</ele><time>2026-05-01T12:26:06.158Z</time></trkpt><trkpt lat="44.6513817" lon="7.92196"><ele>406.0</ele><time>2026-05-01T12:26:07.155Z</time></trkpt><trkpt lat="44.6512283" lon="7.92204"><ele>406.0</ele><time>2026-05-01T12:26:08.159Z</time></trkpt><trkpt lat="44.6510817" lon="7.9221267"><ele>406.0</ele><time>2026-05-01T12:26:09.152Z</time></trkpt><trkpt lat="44.6509317" lon="7.9222217"><ele>405.33333333333337</ele><time>2026-05-01T12:26:10.157Z</time></trkpt><trkpt lat="44.6507817" lon="7.9223183"><ele>404.66666666666663</ele><time>2026-05-01T12:26:11.154Z</time></trkpt><trkpt lat="44.650635" lon="7.922415"><ele>404.0</ele><time>2026-05-01T12:26:12.157Z</time></trkpt><trkpt lat="44.65049" lon="7.9225067"><ele>405.5</ele><time>2026-05-01T12:26:13.158Z</time></trkpt><trkpt lat="44.6503583" lon="7.92259"><ele>407.0</ele><time>2026-05-01T12:26:14.156Z</time></trkpt><trkpt lat="44.65025" lon="7.9226767"><ele>408.5</ele><time>2026-05-01T12:26:15.155Z</time></trkpt><trkpt lat="44.6501767" lon="7.9227817"><ele>410.0</ele><time>2026-05-01T12:26:16.16Z</time></trkpt><trkpt lat="44.6501417" lon="7.922895"><ele>410.0</ele><time>2026-05-01T12:26:17.153Z</time></trkpt><trkpt lat="44.6501233" lon="7.9230167"><ele>410.0</ele><time>2026-05-01T12:26:18.157Z</time></trkpt><trkpt lat="44.65016" lon="7.92314"><ele>410.0</ele><time>2026-05-01T12:26:19.154Z</time></trkpt><trkpt lat="44.650205" lon="7.92325"><ele>410.0</ele><time>2026-05-01T12:26:20.156Z</time></trkpt><trkpt lat="44.6503133" lon="7.9232983"><ele>410.0</ele><time>2026-05-01T12:26:21.159Z</time></trkpt><trkpt lat="44.6504317" lon="7.9233133"><ele>410.25</ele><time>2026-05-01T12:26:22.153Z</time></trkpt><trkpt lat="44.650555" lon="7.9232933"><ele>410.5</ele><time>2026-05-01T12:26:23.155Z</time></trkpt><trkpt lat="44.650675" lon="7.9232433"><ele>410.75</ele><time>2026-05-01T12:26:24.154Z</time></trkpt><trkpt lat="44.6507933" lon="7.9231867"><ele>411.0</ele><time>2026-05-01T12:26:25.155Z</time></trkpt><trkpt lat="44.650905" lon="7.923155"><ele>411.0</ele><time>2026-05-01T12:26:26.153Z</time></trkpt><trkpt lat="44.6510083" lon="7.9231633"><ele>411.0</ele><time>2026-05-01T12:26:27.154Z</time></trkpt><trkpt lat="44.65111" lon="7.9232067"><ele>411.0</ele><time>2026-05-01T12:26:28.153Z</time></trkpt><trkpt lat="44.6512017" lon="7.9232833"><ele>411.0</ele><time>2026-05-01T12:26:29.158Z</time></trkpt><trkpt lat="44.65129" lon="7.9233967"><ele>411.0</ele><time>2026-05-01T12:26:30.156Z</time></trkpt><trkpt lat="44.651385" lon="7.9235233"><ele>413.0</ele><time>2026-05-01T12:26:31.157Z</time></trkpt><trkpt lat="44.651485" lon="7.9236667"><ele>415.0</ele><time>2026-05-01T12:26:32.153Z</time></trkpt><trkpt lat="44.6515917" lon="7.92382"><ele>417.0</ele><time>2026-05-01T12:26:33.154Z</time></trkpt><trkpt lat="44.6517017" lon="7.9239783"><ele>417.0</ele><time>2026-05-01T12:26:34.152Z</time></trkpt><trkpt lat="44.6518167" lon="7.9241467"><ele>417.0</ele><time>2026-05-01T12:26:35.159Z</time></trkpt><trkpt lat="44.6519333" lon="7.9243183"><ele>417.0</ele><time>2026-05-01T12:26:36.153Z</time></trkpt><trkpt lat="44.6520483" lon="7.9244933"><ele>416.66666666666663</ele><time>2026-05-01T12:26:37.156Z</time></trkpt><trkpt lat="44.65216" lon="7.9246617"><ele>416.3333333333333</ele><time>2026-05-01T12:26:38.159Z</time></trkpt><trkpt lat="44.652265" lon="7.924825"><ele>416.0</ele><time>2026-05-01T12:26:39.155Z</time></trkpt><trkpt lat="44.65236" lon="7.9249783"><ele>417.8</ele><time>2026-05-01T12:26:40.157Z</time></trkpt><trkpt lat="44.652435" lon="7.9251167"><ele>419.6</ele><time>2026-05-01T12:26:41.162Z</time></trkpt><trkpt lat="44.6524883" lon="7.9252433"><ele>421.4</ele><time>2026-05-01T12:26:42.157Z</time></trkpt><trkpt lat="44.6525017" lon="7.92538"><ele>423.2</ele><time>2026-05-01T12:26:43.154Z</time></trkpt><trkpt lat="44.6524783" lon="7.9254983"><ele>425.0</ele><time>2026-05-01T12:26:44.158Z</time></trkpt><trkpt lat="44.6524433" lon="7.9255983"><ele>425.0</ele><time>2026-05-01T12:26:45.154Z</time></trkpt><trkpt lat="44.6523867" lon="7.9256667"><ele>425.0</ele><time>2026-05-01T12:26:46.159Z</time></trkpt><trkpt lat="44.6523067" lon="7.925695"><ele>425.0</ele><time>2026-05-01T12:26:47.156Z</time></trkpt><trkpt lat="44.6521567" lon="7.925635"><ele>425.0</ele><time>2026-05-01T12:26:48.155Z</time></trkpt><trkpt lat="44.6520083" lon="7.9256033"><ele>426.66666666666663</ele><time>2026-05-01T12:26:49.157Z</time></trkpt><trkpt lat="44.6518467" lon="7.925555"><ele>428.33333333333337</ele><time>2026-05-01T12:26:50.156Z</time></trkpt><trkpt lat="44.65167" lon="7.9255133"><ele>430.0</ele><time>2026-05-01T12:26:51.156Z</time></trkpt><trkpt lat="44.6514833" lon="7.9254783"><ele>430.0</ele><time>2026-05-01T12:26:52.157Z</time></trkpt><trkpt lat="44.6513" lon="7.925445"><ele>430.0</ele><time>2026-05-01T12:26:53.157Z</time></trkpt><trkpt lat="44.6511133" lon="7.9254083"><ele>430.0</ele><time>2026-05-01T12:26:54.152Z</time></trkpt><trkpt lat="44.650925" lon="7.9253683"><ele>432.33333333333337</ele><time>2026-05-01T12:26:55.158Z</time></trkpt><trkpt lat="44.6507417" lon="7.9253267"><ele>434.66666666666663</ele><time>2026-05-01T12:26:56.157Z</time></trkpt><trkpt lat="44.6505667" lon="7.92528"><ele>437.0</ele><time>2026-05-01T12:26:57.154Z</time></trkpt><trkpt lat="44.6504033" lon="7.92524"><ele>438.66666666666663</ele><time>2026-05-01T12:26:58.159Z</time></trkpt><trkpt lat="44.650245" lon="7.925215"><ele>440.33333333333337</ele><time>2026-05-01T12:26:59.157Z</time></trkpt><trkpt lat="44.650095" lon="7.9252183"><ele>442.0</ele><time>2026-05-01T12:27:00.16Z</time></trkpt><trkpt lat="44.6499433" lon="7.9252517"><ele>442.0</ele><time>2026-05-01T12:27:01.153Z</time></trkpt><trkpt lat="44.6497917" lon="7.9253117"><ele>442.0</ele><time>2026-05-01T12:27:02.156Z</time></trkpt><trkpt lat="44.6496367" lon="7.9253767"><ele>442.0</ele><time>2026-05-01T12:27:03.152Z</time></trkpt><trkpt lat="44.649475" lon="7.9254467"><ele>441.6666666666667</ele><time>2026-05-01T12:27:04.155Z</time></trkpt><trkpt lat="44.64931" lon="7.9255183"><ele>441.33333333333337</ele><time>2026-05-01T12:27:05.153Z</time></trkpt><trkpt lat="44.649145" lon="7.9255933"><ele>441.0</ele><time>2026-05-01T12:27:06.154Z</time></trkpt><trkpt lat="44.6489783" lon="7.9256717"><ele>441.0</ele><time>2026-05-01T12:27:07.156Z</time></trkpt><trkpt lat="44.64881" lon="7.9257483"><ele>441.0</ele><time>2026-05-01T12:27:08.156Z</time></trkpt><trkpt lat="44.6486383" lon="7.9258333"><ele>441.0</ele><time>2026-05-01T12:27:09.16Z</time></trkpt><trkpt lat="44.64847" lon="7.9259217"><ele>443.0</ele><time>2026-05-01T12:27:10.153Z</time></trkpt><trkpt lat="44.6482983" lon="7.9260067"><ele>445.0</ele><time>2026-05-01T12:27:11.156Z</time></trkpt><trkpt lat="44.6481283" lon="7.9260933"><ele>447.0</ele><time>2026-05-01T12:27:12.151Z</time></trkpt><trkpt lat="44.6479583" lon="7.92618"><ele>447.0</ele><time>2026-05-01T12:27:13.158Z</time></trkpt><trkpt lat="44.64779" lon="7.9262617"><ele>447.0</ele><time>2026-05-01T12:27:14.164Z</time></trkpt><trkpt lat="44.6476233" lon="7.9263483"><ele>447.0</ele><time>2026-05-01T12:27:15.151Z</time></trkpt><trkpt lat="44.64746" lon="7.926435"><ele>447.0</ele><time>2026-05-01T12:27:16.157Z</time></trkpt><trkpt lat="44.6473017" lon="7.92652"><ele>447.0</ele><time>2026-05-01T12:27:17.16Z</time></trkpt><trkpt lat="44.6471583" lon="7.9265983"><ele>447.0</ele><time>2026-05-01T12:27:18.16Z</time></trkpt><trkpt lat="44.6470383" lon="7.9266733"><ele>449.1666666666667</ele><time>2026-05-01T12:27:19.153Z</time></trkpt><trkpt lat="44.6469483" lon="7.926735"><ele>451.33333333333337</ele><time>2026-05-01T12:27:20.155Z</time></trkpt><trkpt lat="44.6468783" lon="7.9267817"><ele>453.5</ele><time>2026-05-01T12:27:21.153Z</time></trkpt><trkpt lat="44.6468167" lon="7.926815"><ele>455.6666666666667</ele><time>2026-05-01T12:27:22.154Z</time></trkpt><trkpt lat="44.6467367" lon="7.9268433"><ele>457.83333333333337</ele><time>2026-05-01T12:27:24.156Z</time></trkpt><trkpt lat="44.6466683" lon="7.9268583"><ele>460.0</ele><time>2026-05-01T12:27:35.154Z</time></trkpt><trkpt lat="44.64659" lon="7.9269333"><ele>460.0</ele><time>2026-05-01T12:27:37.16Z</time></trkpt><trkpt lat="44.6465283" lon="7.9270067"><ele>460.0</ele><time>2026-05-01T12:27:38.159Z</time></trkpt><trkpt lat="44.64644" lon="7.9271217"><ele>460.0</ele><time>2026-05-01T12:27:39.161Z</time></trkpt><trkpt lat="44.6463433" lon="7.9272483"><ele>460.0</ele><time>2026-05-01T12:27:40.154Z</time></trkpt><trkpt lat="44.6462217" lon="7.9273967"><ele>460.33333333333337</ele><time>2026-05-01T12:27:41.153Z</time></trkpt><trkpt lat="44.6461133" lon="7.9275433"><ele>460.66666666666663</ele><time>2026-05-01T12:27:42.154Z</time></trkpt><trkpt lat="44.6460033" lon="7.9276967"><ele>461.0</ele><time>2026-05-01T12:27:43.156Z</time></trkpt><trkpt lat="44.6458833" lon="7.9278567"><ele>462.3333333333333</ele><time>2026-05-01T12:27:44.152Z</time></trkpt><trkpt lat="44.6457667" lon="7.9280183"><ele>463.66666666666663</ele><time>2026-05-01T12:27:45.15Z</time></trkpt><trkpt lat="44.64565" lon="7.9281783"><ele>465.0</ele><time>2026-05-01T12:27:46.156Z</time></trkpt><trkpt lat="44.6455367" lon="7.9283267"><ele>465.0</ele><time>2026-05-01T12:27:47.153Z</time></trkpt><trkpt lat="44.6454283" lon="7.9284767"><ele>465.0</ele><time>2026-05-01T12:27:48.154Z</time></trkpt><trkpt lat="44.6453283" lon="7.9286217"><ele>465.0</ele><time>2026-05-01T12:27:49.154Z</time></trkpt><trkpt lat="44.64522" lon="7.9287583"><ele>465.0</ele><time>2026-05-01T12:27:50.152Z</time></trkpt><trkpt lat="44.64512" lon="7.928885"><ele>465.8</ele><time>2026-05-01T12:27:51.151Z</time></trkpt><trkpt lat="44.64503" lon="7.9289917"><ele>466.6</ele><time>2026-05-01T12:27:52.154Z</time></trkpt><trkpt lat="44.6449517" lon="7.9290917"><ele>467.4</ele><time>2026-05-01T12:27:53.154Z</time></trkpt><trkpt lat="44.6448717" lon="7.9291933"><ele>468.2</ele><time>2026-05-01T12:27:54.152Z</time></trkpt><trkpt lat="44.64479" lon="7.9293067"><ele>469.0</ele><time>2026-05-01T12:27:55.152Z</time></trkpt><trkpt lat="44.6447033" lon="7.9294217"><ele>469.0</ele><time>2026-05-01T12:27:56.154Z</time></trkpt><trkpt lat="44.6446117" lon="7.9295433"><ele>469.0</ele><time>2026-05-01T12:27:57.155Z</time></trkpt><trkpt lat="44.6445267" lon="7.9296683"><ele>469.0</ele><time>2026-05-01T12:27:58.152Z</time></trkpt><trkpt lat="44.6444483" lon="7.9297717"><ele>469.0</ele><time>2026-05-01T12:27:59.154Z</time></trkpt><trkpt lat="44.6443783" lon="7.929865"><ele>469.57142857142856</ele><time>2026-05-01T12:28:00.153Z</time></trkpt><trkpt lat="44.64431" lon="7.9299433"><ele>470.1428571428571</ele><time>2026-05-01T12:28:01.157Z</time></trkpt><trkpt lat="44.6442417" lon="7.930005"><ele>470.7142857142857</ele><time>2026-05-01T12:28:02.154Z</time></trkpt><trkpt lat="44.6441733" lon="7.9300433"><ele>471.2857142857143</ele><time>2026-05-01T12:28:03.153Z</time></trkpt><trkpt lat="44.644115" lon="7.9300783"><ele>471.85714285714283</ele><time>2026-05-01T12:28:04.156Z</time></trkpt><trkpt lat="44.6440583" lon="7.9301267"><ele>472.42857142857144</ele><time>2026-05-01T12:28:05.156Z</time></trkpt><trkpt lat="44.6440083" lon="7.9301933"><ele>473.0</ele><time>2026-05-01T12:28:06.154Z</time></trkpt><trkpt lat="44.6439683" lon="7.93027"><ele>474.49999999999994</ele><time>2026-05-01T12:28:07.151Z</time></trkpt><trkpt lat="44.6439433" lon="7.930365"><ele>476.0</ele><time>2026-05-01T12:28:08.154Z</time></trkpt><trkpt lat="44.64391" lon="7.9304617"><ele>477.5</ele><time>2026-05-01T12:28:09.153Z</time></trkpt><trkpt lat="44.6438617" lon="7.93055"><ele>479.0</ele><time>2026-05-01T12:28:10.156Z</time></trkpt><trkpt lat="44.643805" lon="7.9306367"><ele>480.49999999999994</ele><time>2026-05-01T12:28:11.151Z</time></trkpt><trkpt lat="44.6437417" lon="7.9307333"><ele>482.0</ele><time>2026-05-01T12:28:12.159Z</time></trkpt><trkpt lat="44.64367" lon="7.9308283"><ele>483.40000000000003</ele><time>2026-05-01T12:28:13.154Z</time></trkpt><trkpt lat="44.6436" lon="7.93094"><ele>484.80000000000007</ele><time>2026-05-01T12:28:14.151Z</time></trkpt><trkpt lat="44.6435233" lon="7.9310417"><ele>486.2</ele><time>2026-05-01T12:28:15.156Z</time></trkpt><trkpt lat="44.64345" lon="7.9311417"><ele>487.6</ele><time>2026-05-01T12:28:16.153Z</time></trkpt><trkpt lat="44.6433767" lon="7.93125"><ele>489.0</ele><time>2026-05-01T12:28:17.152Z</time></trkpt><trkpt lat="44.6433033" lon="7.9313533"><ele>489.0</ele><time>2026-05-01T12:28:18.154Z</time></trkpt><trkpt lat="44.643225" lon="7.9314583"><ele>489.0</ele><time>2026-05-01T12:28:19.154Z</time></trkpt><trkpt lat="44.6431467" lon="7.9315667"><ele>489.0</ele><time>2026-05-01T12:28:20.153Z</time></trkpt><trkpt lat="44.643065" lon="7.93167"><ele>489.0</ele><time>2026-05-01T12:28:21.156Z</time></trkpt><trkpt lat="44.6429817" lon="7.9317767"><ele>489.0</ele><time>2026-05-01T12:28:22.154Z</time></trkpt><trkpt lat="44.6429017" lon="7.9318867"><ele>488.6</ele><time>2026-05-01T12:28:23.156Z</time></trkpt><trkpt lat="44.6428283" lon="7.932"><ele>488.2</ele><time>2026-05-01T12:28:24.155Z</time></trkpt><trkpt lat="44.6427633" lon="7.93211"><ele>487.80000000000007</ele><time>2026-05-01T12:28:25.153Z</time></trkpt><trkpt lat="44.6426883" lon="7.932205"><ele>487.40000000000003</ele><time>2026-05-01T12:28:26.153Z</time></trkpt><trkpt lat="44.6426117" lon="7.93229"><ele>487.0</ele><time>2026-05-01T12:28:27.154Z</time></trkpt><trkpt lat="44.6425367" lon="7.9323633"><ele>487.1666666666667</ele><time>2026-05-01T12:28:28.151Z</time></trkpt><trkpt lat="44.6424583" lon="7.9324267"><ele>487.33333333333337</ele><time>2026-05-01T12:28:29.154Z</time></trkpt><trkpt lat="44.6423733" lon="7.93248"><ele>487.5</ele><time>2026-05-01T12:28:30.153Z</time></trkpt><trkpt lat="44.6422917" lon="7.9325217"><ele>487.66666666666663</ele><time>2026-05-01T12:28:31.156Z</time></trkpt><trkpt lat="44.6422117" lon="7.9325633"><ele>487.8333333333333</ele><time>2026-05-01T12:28:32.156Z</time></trkpt><trkpt lat="44.6421333" lon="7.9326017"><ele>488.0</ele><time>2026-05-01T12:28:33.156Z</time></trkpt><trkpt lat="44.64206" lon="7.9326367"><ele>487.99999999999994</ele><time>2026-05-01T12:28:34.155Z</time></trkpt><trkpt lat="44.6419867" lon="7.9326583"><ele>488.0</ele><time>2026-05-01T12:28:35.151Z</time></trkpt><trkpt lat="44.6419183" lon="7.9326817"><ele>488.0</ele><time>2026-05-01T12:28:36.155Z</time></trkpt><trkpt lat="44.6418517" lon="7.9327033"><ele>488.0</ele><time>2026-05-01T12:28:37.161Z</time></trkpt><trkpt lat="44.6417417" lon="7.932755"><ele>487.99999999999994</ele><time>2026-05-01T12:28:39.157Z</time></trkpt><trkpt lat="44.6416317" lon="7.9328017"><ele>488.0</ele><time>2026-05-01T12:28:41.164Z</time></trkpt><trkpt lat="44.64152" lon="7.9328517"><ele>489.1428571428571</ele><time>2026-05-01T12:28:43.158Z</time></trkpt><trkpt lat="44.6414533" lon="7.9328733"><ele>490.2857142857143</ele><time>2026-05-01T12:28:44.158Z</time></trkpt><trkpt lat="44.641385" lon="7.9329"><ele>491.42857142857144</ele><time>2026-05-01T12:28:45.154Z</time></trkpt><trkpt lat="44.641315" lon="7.9329267"><ele>492.57142857142856</ele><time>2026-05-01T12:28:46.156Z</time></trkpt><trkpt lat="44.6412483" lon="7.93296"><ele>493.7142857142858</ele><time>2026-05-01T12:28:47.152Z</time></trkpt><trkpt lat="44.64118" lon="7.9329967"><ele>494.8571428571429</ele><time>2026-05-01T12:28:48.152Z</time></trkpt><trkpt lat="44.6411083" lon="7.933025"><ele>496.0</ele><time>2026-05-01T12:28:49.154Z</time></trkpt><trkpt lat="44.6410333" lon="7.9330483"><ele>496.50000000000006</ele><time>2026-05-01T12:28:50.153Z</time></trkpt><trkpt lat="44.6409583" lon="7.9330783"><ele>497.0</ele><time>2026-05-01T12:28:51.151Z</time></trkpt><trkpt lat="44.64089" lon="7.9331167"><ele>497.5</ele><time>2026-05-01T12:28:52.151Z</time></trkpt><trkpt lat="44.6408217" lon="7.9331567"><ele>498.0</ele><time>2026-05-01T12:28:53.154Z</time></trkpt><trkpt lat="44.64075" lon="7.9331967"><ele>498.50000000000006</ele><time>2026-05-01T12:28:54.15Z</time></trkpt><trkpt lat="44.64068" lon="7.93324"><ele>499.0</ele><time>2026-05-01T12:28:55.153Z</time></trkpt><trkpt lat="44.640605" lon="7.9332817"><ele>499.00000000000006</ele><time>2026-05-01T12:28:56.154Z</time></trkpt><trkpt lat="44.640535" lon="7.93333"><ele>499.0</ele><time>2026-05-01T12:28:57.154Z</time></trkpt><trkpt lat="44.64047" lon="7.9333783"><ele>499.0</ele><time>2026-05-01T12:28:58.156Z</time></trkpt><trkpt lat="44.6403983" lon="7.933415"><ele>499.0</ele><time>2026-05-01T12:28:59.158Z</time></trkpt><trkpt lat="44.6403367" lon="7.9334617"><ele>499.00000000000006</ele><time>2026-05-01T12:29:00.155Z</time></trkpt><trkpt lat="44.6402633" lon="7.9335033"><ele>499.0</ele><time>2026-05-01T12:29:01.156Z</time></trkpt><trkpt lat="44.6401917" lon="7.9335417"><ele>498.33333333333337</ele><time>2026-05-01T12:29:02.155Z</time></trkpt><trkpt lat="44.64012" lon="7.933585"><ele>497.6666666666667</ele><time>2026-05-01T12:29:03.158Z</time></trkpt><trkpt lat="44.6400483" lon="7.9336183"><ele>497.0</ele><time>2026-05-01T12:29:04.156Z</time></trkpt><trkpt lat="44.639975" lon="7.933645"><ele>496.33333333333337</ele><time>2026-05-01T12:29:05.154Z</time></trkpt><trkpt lat="44.6399067" lon="7.9336867"><ele>495.6666666666667</ele><time>2026-05-01T12:29:06.155Z</time></trkpt><trkpt lat="44.63984" lon="7.9337333"><ele>495.0</ele><time>2026-05-01T12:29:07.155Z</time></trkpt><trkpt lat="44.6397683" lon="7.9337667"><ele>494.99999999999994</ele><time>2026-05-01T12:29:08.157Z</time></trkpt><trkpt lat="44.639705" lon="7.9337917"><ele>495.0</ele><time>2026-05-01T12:29:09.161Z</time></trkpt><trkpt lat="44.63964" lon="7.933815"><ele>494.99999999999994</ele><time>2026-05-01T12:29:10.154Z</time></trkpt><trkpt lat="44.6395667" lon="7.93384"><ele>494.99999999999994</ele><time>2026-05-01T12:29:11.161Z</time></trkpt><trkpt lat="44.6395" lon="7.9338767"><ele>495.0</ele><time>2026-05-01T12:29:12.154Z</time></trkpt><trkpt lat="44.6394383" lon="7.9339167"><ele>494.99999999999994</ele><time>2026-05-01T12:29:13.153Z</time></trkpt><trkpt lat="44.63938" lon="7.9339533"><ele>494.99999999999994</ele><time>2026-05-01T12:29:14.152Z</time></trkpt><trkpt lat="44.6392783" lon="7.9340133"><ele>495.71428571428567</ele><time>2026-05-01T12:29:16.155Z</time></trkpt><trkpt lat="44.6392217" lon="7.9340583"><ele>496.42857142857144</ele><time>2026-05-01T12:29:18.153Z</time></trkpt><trkpt lat="44.639155" lon="7.93408"><ele>497.1428571428571</ele><time>2026-05-01T12:29:22.153Z</time></trkpt><trkpt lat="44.6391033" lon="7.9340267"><ele>497.85714285714283</ele><time>2026-05-01T12:29:24.157Z</time></trkpt><trkpt lat="44.6390583" lon="7.9339417"><ele>498.57142857142856</ele><time>2026-05-01T12:29:26.154Z</time></trkpt><trkpt lat="44.6390033" lon="7.9338067"><ele>499.2857142857143</ele><time>2026-05-01T12:29:28.159Z</time></trkpt><trkpt lat="44.63898" lon="7.9337233"><ele>500.0</ele><time>2026-05-01T12:29:29.157Z</time></trkpt><trkpt lat="44.638945" lon="7.9336317"><ele>499.99999999999994</ele><time>2026-05-01T12:29:30.156Z</time></trkpt><trkpt lat="44.6389" lon="7.9335483"><ele>500.0</ele><time>2026-05-01T12:29:31.156Z</time></trkpt><trkpt lat="44.63886" lon="7.933455"><ele>500.0</ele><time>2026-05-01T12:29:32.159Z</time></trkpt><trkpt lat="44.6388133" lon="7.9333633"><ele>500.0</ele><time>2026-05-01T12:29:33.157Z</time></trkpt><trkpt lat="44.6387483" lon="7.9332817"><ele>499.99999999999994</ele><time>2026-05-01T12:29:34.16Z</time></trkpt><trkpt lat="44.638685" lon="7.9331917"><ele>500.0</ele><time>2026-05-01T12:29:35.153Z</time></trkpt><trkpt lat="44.6386217" lon="7.9331017"><ele>499.99999999999994</ele><time>2026-05-01T12:29:36.154Z</time></trkpt><trkpt lat="44.6385633" lon="7.9330133"><ele>500.0</ele><time>2026-05-01T12:29:37.153Z</time></trkpt><trkpt lat="44.6385067" lon="7.9329317"><ele>500.0</ele><time>2026-05-01T12:29:38.153Z</time></trkpt><trkpt lat="44.6384533" lon="7.932855"><ele>500.0</ele><time>2026-05-01T12:29:39.154Z</time></trkpt><trkpt lat="44.6384033" lon="7.93278"><ele>499.99999999999994</ele><time>2026-05-01T12:29:40.156Z</time></trkpt><trkpt lat="44.6383467" lon="7.9327167"><ele>500.0</ele><time>2026-05-01T12:29:41.161Z</time></trkpt><trkpt lat="44.6382933" lon="7.932655"><ele>499.99999999999994</ele><time>2026-05-01T12:29:42.151Z</time></trkpt><trkpt lat="44.6382467" lon="7.93259"><ele>500.0</ele><time>2026-05-01T12:29:43.154Z</time></trkpt><trkpt lat="44.638165" lon="7.9324933"><ele>500.0</ele><time>2026-05-01T12:29:45.161Z</time></trkpt><trkpt lat="44.6381183" lon="7.9324267"><ele>500.0</ele><time>2026-05-01T12:29:47.154Z</time></trkpt><trkpt lat="44.6380467" lon="7.9323883"><ele>499.99999999999994</ele><time>2026-05-01T12:29:49.161Z</time></trkpt><trkpt lat="44.6379983" lon="7.9323017"><ele>500.0</ele><time>2026-05-01T12:29:51.153Z</time></trkpt><trkpt lat="44.63796" lon="7.9321917"><ele>499.8</ele><time>2026-05-01T12:29:53.156Z</time></trkpt><trkpt lat="44.6379133" lon="7.932125"><ele>499.6</ele><time>2026-05-01T12:29:55.155Z</time></trkpt><trkpt lat="44.6378567" lon="7.9320517"><ele>499.4</ele><time>2026-05-01T12:29:57.159Z</time></trkpt><trkpt lat="44.6377767" lon="7.93198"><ele>499.2</ele><time>2026-05-01T12:29:59.155Z</time></trkpt><trkpt lat="44.6376817" lon="7.9319"><ele>499.0</ele><time>2026-05-01T12:30:01.159Z</time></trkpt><trkpt lat="44.6375817" lon="7.9318033"><ele>499.00000000000006</ele><time>2026-05-01T12:30:03.157Z</time></trkpt><trkpt lat="44.637515" lon="7.931785"><ele>499.0</ele><time>2026-05-01T12:30:04.158Z</time></trkpt><trkpt lat="44.637455" lon="7.93175"><ele>499.00000000000006</ele><time>2026-05-01T12:30:05.158Z</time></trkpt><trkpt lat="44.6373883" lon="7.9317317"><ele>499.00000000000006</ele><time>2026-05-01T12:30:06.152Z</time></trkpt><trkpt lat="44.6373217" lon="7.9317317"><ele>499.0</ele><time>2026-05-01T12:30:07.155Z</time></trkpt><trkpt lat="44.6372383" lon="7.9317417"><ele>499.00000000000006</ele><time>2026-05-01T12:30:08.152Z</time></trkpt><trkpt lat="44.63716" lon="7.9317467"><ele>499.00000000000006</ele><time>2026-05-01T12:30:09.159Z</time></trkpt><trkpt lat="44.63709" lon="7.9317683"><ele>499.0</ele><time>2026-05-01T12:30:10.153Z</time></trkpt><trkpt lat="44.6369783" lon="7.93181"><ele>499.0</ele><time>2026-05-01T12:30:12.155Z</time></trkpt><trkpt lat="44.6368783" lon="7.9318233"><ele>499.0</ele><time>2026-05-01T12:30:14.152Z</time></trkpt><trkpt lat="44.63677" lon="7.9318233"><ele>499.0</ele><time>2026-05-01T12:30:16.155Z</time></trkpt><trkpt lat="44.6366967" lon="7.93182"><ele>499.0</ele><time>2026-05-01T12:30:17.157Z</time></trkpt><trkpt lat="44.63661" lon="7.9317967"><ele>496.79999999999995</ele><time>2026-05-01T12:30:18.156Z</time></trkpt><trkpt lat="44.63652" lon="7.9317617"><ele>494.59999999999997</ele><time>2026-05-01T12:30:19.154Z</time></trkpt><trkpt lat="44.6364283" lon="7.9317317"><ele>492.4</ele><time>2026-05-01T12:30:20.157Z</time></trkpt><trkpt lat="44.6363433" lon="7.9317"><ele>490.2</ele><time>2026-05-01T12:30:21.154Z</time></trkpt><trkpt lat="44.6362517" lon="7.9316767"><ele>488.0</ele><time>2026-05-01T12:30:22.153Z</time></trkpt><trkpt lat="44.636165" lon="7.9316533"><ele>485.0</ele><time>2026-05-01T12:30:23.156Z</time></trkpt><trkpt lat="44.636075" lon="7.9316283"><ele>481.99999999999994</ele><time>2026-05-01T12:30:24.153Z</time></trkpt><trkpt lat="44.635985" lon="7.9316067"><ele>478.99999999999994</ele><time>2026-05-01T12:30:25.16Z</time></trkpt><trkpt lat="44.635895" lon="7.9315783"><ele>476.0</ele><time>2026-05-01T12:30:26.155Z</time></trkpt><trkpt lat="44.6358083" lon="7.93156"><ele>473.0</ele><time>2026-05-01T12:30:27.154Z</time></trkpt><trkpt lat="44.6357167" lon="7.9315233"><ele>473.0</ele><time>2026-05-01T12:30:28.153Z</time></trkpt><trkpt lat="44.6356283" lon="7.931475"><ele>472.99999999999994</ele><time>2026-05-01T12:30:29.156Z</time></trkpt><trkpt lat="44.6355433" lon="7.9314133"><ele>472.99999999999994</ele><time>2026-05-01T12:30:30.154Z</time></trkpt><trkpt lat="44.6354583" lon="7.93137"><ele>473.0</ele><time>2026-05-01T12:30:31.153Z</time></trkpt><trkpt lat="44.6353683" lon="7.9313483"><ele>473.0</ele><time>2026-05-01T12:30:32.157Z</time></trkpt><trkpt lat="44.63528" lon="7.9313633"><ele>472.2</ele><time>2026-05-01T12:30:33.151Z</time></trkpt><trkpt lat="44.6351867" lon="7.9313917"><ele>471.4</ele><time>2026-05-01T12:30:34.152Z</time></trkpt><trkpt lat="44.6350917" lon="7.9314483"><ele>470.59999999999997</ele><time>2026-05-01T12:30:35.156Z</time></trkpt><trkpt lat="44.6349983" lon="7.9315367"><ele>469.79999999999995</ele><time>2026-05-01T12:30:36.153Z</time></trkpt><trkpt lat="44.6348967" lon="7.931625"><ele>469.0</ele><time>2026-05-01T12:30:37.157Z</time></trkpt><trkpt lat="44.6347883" lon="7.9316933"><ele>467.0</ele><time>2026-05-01T12:30:38.16Z</time></trkpt><trkpt lat="44.6346817" lon="7.9317467"><ele>465.0</ele><time>2026-05-01T12:30:39.153Z</time></trkpt><trkpt lat="44.63457" lon="7.9317867"><ele>463.0</ele><time>2026-05-01T12:30:40.154Z</time></trkpt><trkpt lat="44.634445" lon="7.9318167"><ele>461.0</ele><time>2026-05-01T12:30:41.155Z</time></trkpt><trkpt lat="44.6343017" lon="7.93186"><ele>459.0</ele><time>2026-05-01T12:30:42.156Z</time></trkpt><trkpt lat="44.63415" lon="7.9319033"><ele>457.0</ele><time>2026-05-01T12:30:43.156Z</time></trkpt><trkpt lat="44.633995" lon="7.93195"><ele>455.0</ele><time>2026-05-01T12:30:44.158Z</time></trkpt><trkpt lat="44.63384" lon="7.9319933"><ele>455.0</ele><time>2026-05-01T12:30:45.155Z</time></trkpt><trkpt lat="44.6337" lon="7.9320433"><ele>455.0</ele><time>2026-05-01T12:30:46.155Z</time></trkpt><trkpt lat="44.6335617" lon="7.9320933"><ele>455.0</ele><time>2026-05-01T12:30:47.159Z</time></trkpt><trkpt lat="44.6334283" lon="7.9321583"><ele>455.0</ele><time>2026-05-01T12:30:48.156Z</time></trkpt><trkpt lat="44.6332833" lon="7.9322133"><ele>456.5</ele><time>2026-05-01T12:30:49.161Z</time></trkpt><trkpt lat="44.6331383" lon="7.932265"><ele>458.0</ele><time>2026-05-01T12:30:50.159Z</time></trkpt><trkpt lat="44.6329933" lon="7.932315"><ele>459.5</ele><time>2026-05-01T12:30:51.156Z</time></trkpt><trkpt lat="44.6328567" lon="7.93237"><ele>461.0</ele><time>2026-05-01T12:30:52.156Z</time></trkpt><trkpt lat="44.6327083" lon="7.9323917"><ele>462.0</ele><time>2026-05-01T12:30:53.16Z</time></trkpt><trkpt lat="44.6325567" lon="7.9324133"><ele>463.0</ele><time>2026-05-01T12:30:54.159Z</time></trkpt><trkpt lat="44.6324017" lon="7.9324483"><ele>464.0</ele><time>2026-05-01T12:30:55.157Z</time></trkpt><trkpt lat="44.63224" lon="7.9325"><ele>464.0</ele><time>2026-05-01T12:30:56.156Z</time></trkpt><trkpt lat="44.6320733" lon="7.9325533"><ele>464.0</ele><time>2026-05-01T12:30:57.16Z</time></trkpt><trkpt lat="44.6319017" lon="7.9325983"><ele>464.0</ele><time>2026-05-01T12:30:58.156Z</time></trkpt><trkpt lat="44.63173" lon="7.9326517"><ele>459.0</ele><time>2026-05-01T12:30:59.154Z</time></trkpt><trkpt lat="44.6315633" lon="7.9327267"><ele>454.0</ele><time>2026-05-01T12:31:00.156Z</time></trkpt><trkpt lat="44.6313933" lon="7.9327883"><ele>449.0</ele><time>2026-05-01T12:31:01.162Z</time></trkpt><trkpt lat="44.6312167" lon="7.9328483"><ele>450.0</ele><time>2026-05-01T12:31:02.157Z</time></trkpt><trkpt lat="44.6310417" lon="7.9329117"><ele>451.0</ele><time>2026-05-01T12:31:03.156Z</time></trkpt><trkpt lat="44.6308717" lon="7.9329733"><ele>452.0</ele><time>2026-05-01T12:31:04.157Z</time></trkpt><trkpt lat="44.630705" lon="7.9330367"><ele>452.0</ele><time>2026-05-01T12:31:05.154Z</time></trkpt><trkpt lat="44.63055" lon="7.933095"><ele>452.0</ele><time>2026-05-01T12:31:06.158Z</time></trkpt><trkpt lat="44.630395" lon="7.9331467"><ele>452.0</ele><time>2026-05-01T12:31:07.153Z</time></trkpt><trkpt lat="44.6302517" lon="7.9332183"><ele>455.3333333333333</ele><time>2026-05-01T12:31:08.152Z</time></trkpt><trkpt lat="44.63011" lon="7.9333083"><ele>458.66666666666663</ele><time>2026-05-01T12:31:09.15Z</time></trkpt><trkpt lat="44.629965" lon="7.9334133"><ele>462.0</ele><time>2026-05-01T12:31:10.153Z</time></trkpt><trkpt lat="44.6298233" lon="7.9335317"><ele>461.66666666666663</ele><time>2026-05-01T12:31:11.158Z</time></trkpt><trkpt lat="44.629685" lon="7.9336533"><ele>461.3333333333333</ele><time>2026-05-01T12:31:12.154Z</time></trkpt><trkpt lat="44.6295633" lon="7.9337933"><ele>461.0</ele><time>2026-05-01T12:31:13.156Z</time></trkpt><trkpt lat="44.6294683" lon="7.93394"><ele>461.0</ele><time>2026-05-01T12:31:14.158Z</time></trkpt><trkpt lat="44.6293817" lon="7.9340717"><ele>461.0</ele><time>2026-05-01T12:31:15.155Z</time></trkpt><trkpt lat="44.6293083" lon="7.934185"><ele>461.0</ele><time>2026-05-01T12:31:16.156Z</time></trkpt><trkpt lat="44.6292417" lon="7.9342783"><ele>461.0</ele><time>2026-05-01T12:31:17.156Z</time></trkpt><trkpt lat="44.62918" lon="7.934355"><ele>461.0</ele><time>2026-05-01T12:31:18.155Z</time></trkpt><trkpt lat="44.6291117" lon="7.934425"><ele>458.16666666666663</ele><time>2026-05-01T12:31:19.157Z</time></trkpt><trkpt lat="44.6290367" lon="7.934485"><ele>455.3333333333333</ele><time>2026-05-01T12:31:20.154Z</time></trkpt><trkpt lat="44.6289533" lon="7.934525"><ele>452.5</ele><time>2026-05-01T12:31:21.153Z</time></trkpt><trkpt lat="44.6288633" lon="7.9345483"><ele>449.66666666666663</ele><time>2026-05-01T12:31:22.154Z</time></trkpt><trkpt lat="44.6287833" lon="7.934555"><ele>446.8333333333333</ele><time>2026-05-01T12:31:23.156Z</time></trkpt><trkpt lat="44.6287033" lon="7.9345483"><ele>444.0</ele><time>2026-05-01T12:31:24.155Z</time></trkpt><trkpt lat="44.6286317" lon="7.9345217"><ele>443.0</ele><time>2026-05-01T12:31:25.152Z</time></trkpt><trkpt lat="44.6285667" lon="7.9344783"><ele>442.0</ele><time>2026-05-01T12:31:26.157Z</time></trkpt><trkpt lat="44.62851" lon="7.9344167"><ele>441.0</ele><time>2026-05-01T12:31:27.158Z</time></trkpt><trkpt lat="44.628455" lon="7.9343417"><ele>440.0</ele><time>2026-05-01T12:31:28.155Z</time></trkpt><trkpt lat="44.628405" lon="7.9342467"><ele>439.0</ele><time>2026-05-01T12:31:29.153Z</time></trkpt><trkpt lat="44.6283533" lon="7.9341133"><ele>438.0</ele><time>2026-05-01T12:31:30.151Z</time></trkpt><trkpt lat="44.6283017" lon="7.9339467"><ele>441.0</ele><time>2026-05-01T12:31:31.156Z</time></trkpt><trkpt lat="44.6282483" lon="7.9337633"><ele>444.0</ele><time>2026-05-01T12:31:32.154Z</time></trkpt><trkpt lat="44.6282" lon="7.93358"><ele>447.0</ele><time>2026-05-01T12:31:33.15Z</time></trkpt><trkpt lat="44.6281517" lon="7.9333983"><ele>450.0</ele><time>2026-05-01T12:31:34.156Z</time></trkpt><trkpt lat="44.6281083" lon="7.9332"><ele>452.66666666666663</ele><time>2026-05-01T12:31:35.15Z</time></trkpt><trkpt lat="44.6280683" lon="7.932995"><ele>455.3333333333333</ele><time>2026-05-01T12:31:36.156Z</time></trkpt><trkpt lat="44.6280233" lon="7.9327817"><ele>458.0</ele><time>2026-05-01T12:31:37.156Z</time></trkpt><trkpt lat="44.6279783" lon="7.9325767"><ele>459.66666666666663</ele><time>2026-05-01T12:31:38.154Z</time></trkpt><trkpt lat="44.6279233" lon="7.9323783"><ele>461.33333333333337</ele><time>2026-05-01T12:31:39.152Z</time></trkpt><trkpt lat="44.6278467" lon="7.9321917"><ele>463.0</ele><time>2026-05-01T12:31:40.155Z</time></trkpt><trkpt lat="44.6277533" lon="7.9320267"><ele>458.33333333333337</ele><time>2026-05-01T12:31:41.151Z</time></trkpt><trkpt lat="44.6276467" lon="7.9318717"><ele>453.66666666666663</ele><time>2026-05-01T12:31:42.156Z</time></trkpt><trkpt lat="44.6275233" lon="7.931735"><ele>449.0</ele><time>2026-05-01T12:31:43.155Z</time></trkpt><trkpt lat="44.6273883" lon="7.9316133"><ele>449.0</ele><time>2026-05-01T12:31:44.159Z</time></trkpt><trkpt lat="44.6272383" lon="7.9314983"><ele>449.0</ele><time>2026-05-01T12:31:45.15Z</time></trkpt><trkpt lat="44.627085" lon="7.9313867"><ele>449.0</ele><time>2026-05-01T12:31:46.152Z</time></trkpt><trkpt lat="44.62693" lon="7.9312617"><ele>444.0</ele><time>2026-05-01T12:31:47.158Z</time></trkpt><trkpt lat="44.626775" lon="7.9311433"><ele>439.0</ele><time>2026-05-01T12:31:48.157Z</time></trkpt><trkpt lat="44.6266217" lon="7.93102"><ele>434.0</ele><time>2026-05-01T12:31:49.157Z</time></trkpt><trkpt lat="44.6264633" lon="7.93091"><ele>433.0</ele><time>2026-05-01T12:31:50.151Z</time></trkpt><trkpt lat="44.6262983" lon="7.9308083"><ele>432.0</ele><time>2026-05-01T12:31:51.152Z</time></trkpt><trkpt lat="44.626135" lon="7.9307"><ele>431.0</ele><time>2026-05-01T12:31:52.154Z</time></trkpt><trkpt lat="44.62597" lon="7.9305933"><ele>431.0</ele><time>2026-05-01T12:31:53.152Z</time></trkpt><trkpt lat="44.625805" lon="7.9304867"><ele>431.0</ele><time>2026-05-01T12:31:54.153Z</time></trkpt><trkpt lat="44.625645" lon="7.9303817"><ele>431.0</ele><time>2026-05-01T12:31:55.152Z</time></trkpt><trkpt lat="44.6254867" lon="7.9302733"><ele>431.0</ele><time>2026-05-01T12:31:56.157Z</time></trkpt><trkpt lat="44.6253417" lon="7.93015"><ele>431.0</ele><time>2026-05-01T12:31:57.158Z</time></trkpt><trkpt lat="44.6252067" lon="7.9300133"><ele>431.0</ele><time>2026-05-01T12:31:58.157Z</time></trkpt><trkpt lat="44.62508" lon="7.92987"><ele>431.3333333333333</ele><time>2026-05-01T12:31:59.153Z</time></trkpt><trkpt lat="44.6249533" lon="7.92973"><ele>431.66666666666663</ele><time>2026-05-01T12:32:00.157Z</time></trkpt><trkpt lat="44.62482" lon="7.9295983"><ele>432.0</ele><time>2026-05-01T12:32:01.155Z</time></trkpt><trkpt lat="44.624685" lon="7.929475"><ele>432.0</ele><time>2026-05-01T12:32:02.155Z</time></trkpt><trkpt lat="44.6245367" lon="7.9293667"><ele>432.0</ele><time>2026-05-01T12:32:03.153Z</time></trkpt><trkpt lat="44.6243767" lon="7.9292683"><ele>432.0</ele><time>2026-05-01T12:32:04.151Z</time></trkpt><trkpt lat="44.62421" lon="7.92918"><ele>434.0</ele><time>2026-05-01T12:32:05.156Z</time></trkpt><trkpt lat="44.6240367" lon="7.9290983"><ele>436.0</ele><time>2026-05-01T12:32:06.158Z</time></trkpt><trkpt lat="44.6238567" lon="7.92902"><ele>438.0</ele><time>2026-05-01T12:32:07.154Z</time></trkpt><trkpt lat="44.6236733" lon="7.928945"><ele>434.33333333333337</ele><time>2026-05-01T12:32:08.152Z</time></trkpt><trkpt lat="44.62349" lon="7.9288717"><ele>430.6666666666667</ele><time>2026-05-01T12:32:09.153Z</time></trkpt><trkpt lat="44.6233033" lon="7.92879"><ele>427.0</ele><time>2026-05-01T12:32:10.15Z</time></trkpt><trkpt lat="44.6231133" lon="7.9287067"><ele>427.0</ele><time>2026-05-01T12:32:11.153Z</time></trkpt><trkpt lat="44.622925" lon="7.9286183"><ele>427.0</ele><time>2026-05-01T12:32:12.158Z</time></trkpt><trkpt lat="44.6227367" lon="7.9285283"><ele>427.0</ele><time>2026-05-01T12:32:13.154Z</time></trkpt><trkpt lat="44.6225467" lon="7.9284483"><ele>427.0</ele><time>2026-05-01T12:32:14.151Z</time></trkpt><trkpt lat="44.6223483" lon="7.9283817"><ele>427.0</ele><time>2026-05-01T12:32:15.152Z</time></trkpt><trkpt lat="44.6221567" lon="7.9282967"><ele>427.0</ele><time>2026-05-01T12:32:16.154Z</time></trkpt><trkpt lat="44.6219483" lon="7.9282533"><ele>427.0</ele><time>2026-05-01T12:32:17.158Z</time></trkpt><trkpt lat="44.6217433" lon="7.9282267"><ele>427.0</ele><time>2026-05-01T12:32:18.156Z</time></trkpt><trkpt lat="44.6215517" lon="7.928185"><ele>427.0</ele><time>2026-05-01T12:32:19.153Z</time></trkpt><trkpt lat="44.621355" lon="7.9281417"><ele>427.0</ele><time>2026-05-01T12:32:20.152Z</time></trkpt><trkpt lat="44.62116" lon="7.9281117"><ele>427.0</ele><time>2026-05-01T12:32:21.157Z</time></trkpt><trkpt lat="44.6209667" lon="7.92809"><ele>427.0</ele><time>2026-05-01T12:32:22.153Z</time></trkpt><trkpt lat="44.6207733" lon="7.92808"><ele>426.33333333333337</ele><time>2026-05-01T12:32:23.154Z</time></trkpt><trkpt lat="44.62058" lon="7.9280833"><ele>425.66666666666663</ele><time>2026-05-01T12:32:24.156Z</time></trkpt><trkpt lat="44.6203883" lon="7.9280867"><ele>425.0</ele><time>2026-05-01T12:32:25.152Z</time></trkpt><trkpt lat="44.6202" lon="7.9280917"><ele>425.0</ele><time>2026-05-01T12:32:26.157Z</time></trkpt><trkpt lat="44.620015" lon="7.9280983"><ele>425.0</ele><time>2026-05-01T12:32:27.162Z</time></trkpt><trkpt lat="44.6198317" lon="7.9281083"><ele>425.0</ele><time>2026-05-01T12:32:28.154Z</time></trkpt><trkpt lat="44.6196533" lon="7.92813"><ele>427.0</ele><time>2026-05-01T12:32:29.157Z</time></trkpt><trkpt lat="44.6194783" lon="7.9281717"><ele>429.0</ele><time>2026-05-01T12:32:30.154Z</time></trkpt><trkpt lat="44.6193083" lon="7.9282283"><ele>431.0</ele><time>2026-05-01T12:32:31.154Z</time></trkpt><trkpt lat="44.6191433" lon="7.9283017"><ele>431.0</ele><time>2026-05-01T12:32:32.153Z</time></trkpt><trkpt lat="44.618985" lon="7.928385"><ele>431.0</ele><time>2026-05-01T12:32:33.163Z</time></trkpt><trkpt lat="44.6188267" lon="7.9284617"><ele>431.0</ele><time>2026-05-01T12:32:34.153Z</time></trkpt><trkpt lat="44.61867" lon="7.9285367"><ele>428.0</ele><time>2026-05-01T12:32:35.161Z</time></trkpt><trkpt lat="44.618515" lon="7.9286083"><ele>425.0</ele><time>2026-05-01T12:32:36.154Z</time></trkpt><trkpt lat="44.6183667" lon="7.9286717"><ele>422.0</ele><time>2026-05-01T12:32:37.156Z</time></trkpt><trkpt lat="44.6182283" lon="7.9287317"><ele>422.0</ele><time>2026-05-01T12:32:38.155Z</time></trkpt><trkpt lat="44.6180983" lon="7.9287617"><ele>422.0</ele><time>2026-05-01T12:32:39.154Z</time></trkpt><trkpt lat="44.617955" lon="7.9287617"><ele>422.0</ele><time>2026-05-01T12:32:40.161Z</time></trkpt><trkpt lat="44.6178017" lon="7.9287483"><ele>422.0</ele><time>2026-05-01T12:32:41.156Z</time></trkpt><trkpt lat="44.617635" lon="7.9287083"><ele>422.66666666666663</ele><time>2026-05-01T12:32:42.155Z</time></trkpt><trkpt lat="44.6174533" lon="7.9286667"><ele>423.33333333333337</ele><time>2026-05-01T12:32:43.157Z</time></trkpt><trkpt lat="44.6172733" lon="7.928625"><ele>424.0</ele><time>2026-05-01T12:32:44.154Z</time></trkpt><trkpt lat="44.617095" lon="7.928585"><ele>422.6666666666667</ele><time>2026-05-01T12:32:45.154Z</time></trkpt><trkpt lat="44.61692" lon="7.9285433"><ele>421.33333333333337</ele><time>2026-05-01T12:32:46.149Z</time></trkpt><trkpt lat="44.616745" lon="7.9285"><ele>420.0</ele><time>2026-05-01T12:32:47.157Z</time></trkpt><trkpt lat="44.61658" lon="7.92846"><ele>420.0</ele><time>2026-05-01T12:32:48.155Z</time></trkpt><trkpt lat="44.6164217" lon="7.928425"><ele>420.0</ele><time>2026-05-01T12:32:49.154Z</time></trkpt><trkpt lat="44.6162717" lon="7.9283883"><ele>420.0</ele><time>2026-05-01T12:32:50.152Z</time></trkpt><trkpt lat="44.616135" lon="7.9283467"><ele>421.2</ele><time>2026-05-01T12:32:51.158Z</time></trkpt><trkpt lat="44.6160133" lon="7.9282983"><ele>422.4</ele><time>2026-05-01T12:32:52.156Z</time></trkpt><trkpt lat="44.6159067" lon="7.9282317"><ele>423.6</ele><time>2026-05-01T12:32:53.155Z</time></trkpt><trkpt lat="44.6158183" lon="7.9281467"><ele>424.8</ele><time>2026-05-01T12:32:54.155Z</time></trkpt><trkpt lat="44.6157517" lon="7.9280483"><ele>426.0</ele><time>2026-05-01T12:32:55.159Z</time></trkpt><trkpt lat="44.615705" lon="7.92795"><ele>425.99999999999994</ele><time>2026-05-01T12:32:56.153Z</time></trkpt><trkpt lat="44.6156717" lon="7.92786"><ele>426.0</ele><time>2026-05-01T12:32:57.157Z</time></trkpt><trkpt lat="44.6156467" lon="7.92777"><ele>426.0</ele><time>2026-05-01T12:32:58.152Z</time></trkpt><trkpt lat="44.61562" lon="7.9276867"><ele>426.0</ele><time>2026-05-01T12:32:59.155Z</time></trkpt><trkpt lat="44.6155367" lon="7.927635"><ele>426.0</ele><time>2026-05-01T12:33:01.155Z</time></trkpt><trkpt lat="44.6154867" lon="7.9276967"><ele>425.99999999999994</ele><time>2026-05-01T12:33:03.153Z</time></trkpt><trkpt lat="44.6154967" lon="7.9278017"><ele>426.0</ele><time>2026-05-01T12:33:05.161Z</time></trkpt><trkpt lat="44.6155067" lon="7.92789"><ele>426.0</ele><time>2026-05-01T12:33:06.155Z</time></trkpt><trkpt lat="44.61553" lon="7.928"><ele>426.0</ele><time>2026-05-01T12:33:07.152Z</time></trkpt><trkpt lat="44.6155667" lon="7.92813"><ele>426.0</ele><time>2026-05-01T12:33:08.155Z</time></trkpt><trkpt lat="44.61561" lon="7.92827"><ele>426.0</ele><time>2026-05-01T12:33:09.157Z</time></trkpt><trkpt lat="44.6156583" lon="7.9284183"><ele>426.0</ele><time>2026-05-01T12:33:10.162Z</time></trkpt><trkpt lat="44.61572" lon="7.9285833"><ele>423.75</ele><time>2026-05-01T12:33:11.156Z</time></trkpt><trkpt lat="44.6157867" lon="7.9287517"><ele>421.5</ele><time>2026-05-01T12:33:12.155Z</time></trkpt><trkpt lat="44.6158567" lon="7.928925"><ele>419.25</ele><time>2026-05-01T12:33:13.156Z</time></trkpt><trkpt lat="44.615935" lon="7.9291"><ele>417.0</ele><time>2026-05-01T12:33:14.153Z</time></trkpt><trkpt lat="44.61601" lon="7.9292767"><ele>415.0</ele><time>2026-05-01T12:33:15.152Z</time></trkpt><trkpt lat="44.616085" lon="7.9294633"><ele>413.0</ele><time>2026-05-01T12:33:16.156Z</time></trkpt><trkpt lat="44.6161583" lon="7.92966"><ele>411.0</ele><time>2026-05-01T12:33:17.154Z</time></trkpt><trkpt lat="44.6162383" lon="7.929855"><ele>411.0</ele><time>2026-05-01T12:33:18.151Z</time></trkpt><trkpt lat="44.6163217" lon="7.930045"><ele>411.0</ele><time>2026-05-01T12:33:19.157Z</time></trkpt><trkpt lat="44.6164033" lon="7.93024"><ele>411.0</ele><time>2026-05-01T12:33:20.151Z</time></trkpt><trkpt lat="44.6164833" lon="7.93043"><ele>411.0</ele><time>2026-05-01T12:33:21.155Z</time></trkpt><trkpt lat="44.61655" lon="7.9306083"><ele>411.0</ele><time>2026-05-01T12:33:22.153Z</time></trkpt><trkpt lat="44.6166" lon="7.930765"><ele>411.0</ele><time>2026-05-01T12:33:23.152Z</time></trkpt><trkpt lat="44.6166267" lon="7.930925"><ele>411.0</ele><time>2026-05-01T12:33:24.155Z</time></trkpt><trkpt lat="44.6166183" lon="7.9310783"><ele>410.5</ele><time>2026-05-01T12:33:25.153Z</time></trkpt><trkpt lat="44.6165833" lon="7.9312317"><ele>410.0</ele><time>2026-05-01T12:33:26.155Z</time></trkpt><trkpt lat="44.6165183" lon="7.93138"><ele>409.5</ele><time>2026-05-01T12:33:27.154Z</time></trkpt><trkpt lat="44.6164267" lon="7.9315267"><ele>409.0</ele><time>2026-05-01T12:33:28.151Z</time></trkpt><trkpt lat="44.6163117" lon="7.9316717"><ele>408.0</ele><time>2026-05-01T12:33:29.156Z</time></trkpt><trkpt lat="44.61619" lon="7.9318283"><ele>407.0</ele><time>2026-05-01T12:33:30.156Z</time></trkpt><trkpt lat="44.6160583" lon="7.93201"><ele>406.0</ele><time>2026-05-01T12:33:31.156Z</time></trkpt><trkpt lat="44.6159233" lon="7.932195"><ele>406.0</ele><time>2026-05-01T12:33:32.154Z</time></trkpt><trkpt lat="44.615795" lon="7.9323767"><ele>406.0</ele><time>2026-05-01T12:33:33.153Z</time></trkpt><trkpt lat="44.615665" lon="7.9325583"><ele>406.0</ele><time>2026-05-01T12:33:34.156Z</time></trkpt><trkpt lat="44.6155383" lon="7.93273"><ele>404.33333333333337</ele><time>2026-05-01T12:33:35.154Z</time></trkpt><trkpt lat="44.6154167" lon="7.9328983"><ele>402.66666666666663</ele><time>2026-05-01T12:33:36.159Z</time></trkpt><trkpt lat="44.6152983" lon="7.9330617"><ele>401.0</ele><time>2026-05-01T12:33:37.159Z</time></trkpt><trkpt lat="44.6151817" lon="7.9332167"><ele>401.0</ele><time>2026-05-01T12:33:38.156Z</time></trkpt><trkpt lat="44.61507" lon="7.9333633"><ele>401.0</ele><time>2026-05-01T12:33:39.156Z</time></trkpt><trkpt lat="44.6149583" lon="7.933505"><ele>401.0</ele><time>2026-05-01T12:33:40.158Z</time></trkpt><trkpt lat="44.6148567" lon="7.933645"><ele>401.0</ele><time>2026-05-01T12:33:41.155Z</time></trkpt><trkpt lat="44.61476" lon="7.9337783"><ele>400.0</ele><time>2026-05-01T12:33:42.157Z</time></trkpt><trkpt lat="44.61468" lon="7.9339167"><ele>399.0</ele><time>2026-05-01T12:33:43.153Z</time></trkpt><trkpt lat="44.61461" lon="7.934085"><ele>398.0</ele><time>2026-05-01T12:33:44.156Z</time></trkpt><trkpt lat="44.6145517" lon="7.9342817"><ele>397.0</ele><time>2026-05-01T12:33:45.154Z</time></trkpt><trkpt lat="44.6145067" lon="7.9345"><ele>400.0</ele><time>2026-05-01T12:33:46.153Z</time></trkpt><trkpt lat="44.6144733" lon="7.9347417"><ele>403.0</ele><time>2026-05-01T12:33:47.156Z</time></trkpt><trkpt lat="44.6144533" lon="7.9349883"><ele>406.0</ele><time>2026-05-01T12:33:48.155Z</time></trkpt><trkpt lat="44.6144383" lon="7.93522"><ele>406.5</ele><time>2026-05-01T12:33:49.16Z</time></trkpt><trkpt lat="44.6144217" lon="7.93543"><ele>407.0</ele><time>2026-05-01T12:33:50.154Z</time></trkpt><trkpt lat="44.61441" lon="7.935615"><ele>407.5</ele><time>2026-05-01T12:33:51.151Z</time></trkpt><trkpt lat="44.6143817" lon="7.9357817"><ele>408.0</ele><time>2026-05-01T12:33:52.153Z</time></trkpt><trkpt lat="44.614345" lon="7.9359267"><ele>404.59999999999997</ele><time>2026-05-01T12:33:53.154Z</time></trkpt><trkpt lat="44.61429" lon="7.9360517"><ele>401.2</ele><time>2026-05-01T12:33:54.155Z</time></trkpt><trkpt lat="44.6142233" lon="7.9361483"><ele>397.8</ele><time>2026-05-01T12:33:55.151Z</time></trkpt><trkpt lat="44.6141583" lon="7.93623"><ele>394.4</ele><time>2026-05-01T12:33:56.155Z</time></trkpt><trkpt lat="44.61408" lon="7.9363083"><ele>391.0</ele><time>2026-05-01T12:33:57.152Z</time></trkpt><trkpt lat="44.613985" lon="7.9363817"><ele>391.0</ele><time>2026-05-01T12:33:58.153Z</time></trkpt><trkpt lat="44.6138617" lon="7.9364683"><ele>391.0</ele><time>2026-05-01T12:33:59.157Z</time></trkpt><trkpt lat="44.6137267" lon="7.93654"><ele>391.0</ele><time>2026-05-01T12:34:00.157Z</time></trkpt><trkpt lat="44.6135833" lon="7.9365867"><ele>391.0</ele><time>2026-05-01T12:34:01.158Z</time></trkpt><trkpt lat="44.613445" lon="7.9365917"><ele>391.75</ele><time>2026-05-01T12:34:02.156Z</time></trkpt><trkpt lat="44.6133117" lon="7.93656"><ele>392.5</ele><time>2026-05-01T12:34:03.159Z</time></trkpt><trkpt lat="44.6131783" lon="7.9365067"><ele>393.25</ele><time>2026-05-01T12:34:04.154Z</time></trkpt><trkpt lat="44.6130467" lon="7.9364383"><ele>394.0</ele><time>2026-05-01T12:34:05.15Z</time></trkpt><trkpt lat="44.6129117" lon="7.9363533"><ele>391.0</ele><time>2026-05-01T12:34:06.155Z</time></trkpt><trkpt lat="44.61278" lon="7.9362683"><ele>388.0</ele><time>2026-05-01T12:34:07.154Z</time></trkpt><trkpt lat="44.61265" lon="7.9361867"><ele>385.0</ele><time>2026-05-01T12:34:08.151Z</time></trkpt><trkpt lat="44.6125367" lon="7.93611"><ele>382.0</ele><time>2026-05-01T12:34:09.152Z</time></trkpt><trkpt lat="44.61245" lon="7.9360517"><ele>382.0</ele><time>2026-05-01T12:34:10.157Z</time></trkpt><trkpt lat="44.6123833" lon="7.9360217"><ele>382.0</ele><time>2026-05-01T12:34:11.15Z</time></trkpt><trkpt lat="44.6122933" lon="7.93606"><ele>382.0</ele><time>2026-05-01T12:34:13.153Z</time></trkpt><trkpt lat="44.6122783" lon="7.9361783"><ele>382.0</ele><time>2026-05-01T12:34:16.152Z</time></trkpt><trkpt lat="44.61238" lon="7.936295"><ele>382.0</ele><time>2026-05-01T12:34:18.153Z</time></trkpt><trkpt lat="44.6124467" lon="7.9363567"><ele>382.0</ele><time>2026-05-01T12:34:19.154Z</time></trkpt><trkpt lat="44.61253" lon="7.9364283"><ele>382.0</ele><time>2026-05-01T12:34:20.152Z</time></trkpt><trkpt lat="44.61263" lon="7.9365017"><ele>382.0</ele><time>2026-05-01T12:34:21.15Z</time></trkpt><trkpt lat="44.6127283" lon="7.9365667"><ele>382.0</ele><time>2026-05-01T12:34:22.151Z</time></trkpt><trkpt lat="44.6128283" lon="7.9366417"><ele>382.0</ele><time>2026-05-01T12:34:23.154Z</time></trkpt><trkpt lat="44.61292" lon="7.9367383"><ele>381.25</ele><time>2026-05-01T12:34:24.157Z</time></trkpt><trkpt lat="44.6129983" lon="7.9368583"><ele>380.5</ele><time>2026-05-01T12:34:25.153Z</time></trkpt><trkpt lat="44.6130583" lon="7.937005"><ele>379.75</ele><time>2026-05-01T12:34:26.152Z</time></trkpt><trkpt lat="44.6131017" lon="7.937165"><ele>379.0</ele><time>2026-05-01T12:34:27.154Z</time></trkpt><trkpt lat="44.613125" lon="7.937335"><ele>379.0</ele><time>2026-05-01T12:34:28.152Z</time></trkpt><trkpt lat="44.613135" lon="7.9374933"><ele>379.0</ele><time>2026-05-01T12:34:29.152Z</time></trkpt><trkpt lat="44.613145" lon="7.937625"><ele>379.0</ele><time>2026-05-01T12:34:30.151Z</time></trkpt><trkpt lat="44.6131633" lon="7.9377417"><ele>379.0</ele><time>2026-05-01T12:34:31.152Z</time></trkpt><trkpt lat="44.6131983" lon="7.93783"><ele>379.0</ele><time>2026-05-01T12:34:32.155Z</time></trkpt><trkpt lat="44.6132717" lon="7.9378667"><ele>379.0</ele><time>2026-05-01T12:34:34.153Z</time></trkpt><trkpt lat="44.613365" lon="7.9378417"><ele>376.79999999999995</ele><time>2026-05-01T12:34:35.152Z</time></trkpt><trkpt lat="44.6134583" lon="7.9378133"><ele>374.59999999999997</ele><time>2026-05-01T12:34:36.158Z</time></trkpt><trkpt lat="44.6135517" lon="7.9377617"><ele>372.4</ele><time>2026-05-01T12:34:37.152Z</time></trkpt><trkpt lat="44.6136633" lon="7.9376967"><ele>370.2</ele><time>2026-05-01T12:34:38.155Z</time></trkpt><trkpt lat="44.6137767" lon="7.937625"><ele>368.0</ele><time>2026-05-01T12:34:39.158Z</time></trkpt><trkpt lat="44.6139017" lon="7.93755"><ele>368.0</ele><time>2026-05-01T12:34:40.153Z</time></trkpt><trkpt lat="44.614035" lon="7.9374717"><ele>368.0</ele><time>2026-05-01T12:34:41.158Z</time></trkpt><trkpt lat="44.6141783" lon="7.937395"><ele>368.0</ele><time>2026-05-01T12:34:42.153Z</time></trkpt><trkpt lat="44.6143233" lon="7.9373167"><ele>368.0</ele><time>2026-05-01T12:34:43.155Z</time></trkpt><trkpt lat="44.6144683" lon="7.9372367"><ele>368.0</ele><time>2026-05-01T12:34:44.157Z</time></trkpt><trkpt lat="44.614615" lon="7.937155"><ele>368.0</ele><time>2026-05-01T12:34:45.153Z</time></trkpt><trkpt lat="44.6147583" lon="7.93708"><ele>364.75</ele><time>2026-05-01T12:34:46.154Z</time></trkpt><trkpt lat="44.6149" lon="7.9370133"><ele>361.5</ele><time>2026-05-01T12:34:47.155Z</time></trkpt><trkpt lat="44.6150367" lon="7.9369683"><ele>358.25</ele><time>2026-05-01T12:34:48.159Z</time></trkpt><trkpt lat="44.6151667" lon="7.93693"><ele>355.0</ele><time>2026-05-01T12:34:49.155Z</time></trkpt><trkpt lat="44.6152867" lon="7.936885"><ele>355.4</ele><time>2026-05-01T12:34:50.153Z</time></trkpt><trkpt lat="44.6153933" lon="7.9368283"><ele>355.8</ele><time>2026-05-01T12:34:51.157Z</time></trkpt><trkpt lat="44.6154833" lon="7.9367567"><ele>356.20000000000005</ele><time>2026-05-01T12:34:52.154Z</time></trkpt><trkpt lat="44.61555" lon="7.9366583"><ele>356.6</ele><time>2026-05-01T12:34:53.152Z</time></trkpt><trkpt lat="44.615595" lon="7.9365233"><ele>357.0</ele><time>2026-05-01T12:34:54.154Z</time></trkpt><trkpt lat="44.6156217" lon="7.9363967"><ele>357.0</ele><time>2026-05-01T12:34:55.154Z</time></trkpt><trkpt lat="44.615645" lon="7.9362783"><ele>357.0</ele><time>2026-05-01T12:34:56.156Z</time></trkpt><trkpt lat="44.6157333" lon="7.9362283"><ele>357.0</ele><time>2026-05-01T12:34:58.154Z</time></trkpt><trkpt lat="44.61577" lon="7.9363117"><ele>357.0</ele><time>2026-05-01T12:34:59.153Z</time></trkpt><trkpt lat="44.6157767" lon="7.9364883"><ele>357.0</ele><time>2026-05-01T12:35:01.159Z</time></trkpt><trkpt lat="44.6157633" lon="7.936585"><ele>357.0</ele><time>2026-05-01T12:35:02.154Z</time></trkpt><trkpt lat="44.6157133" lon="7.9367083"><ele>356.6</ele><time>2026-05-01T12:35:03.155Z</time></trkpt><trkpt lat="44.6156383" lon="7.93682"><ele>356.20000000000005</ele><time>2026-05-01T12:35:04.156Z</time></trkpt><trkpt lat="44.6155483" lon="7.93691"><ele>355.8</ele><time>2026-05-01T12:35:05.154Z</time></trkpt><trkpt lat="44.6154617" lon="7.9369983"><ele>355.4</ele><time>2026-05-01T12:35:06.152Z</time></trkpt><trkpt lat="44.615365" lon="7.9370933"><ele>355.0</ele><time>2026-05-01T12:35:07.15Z</time></trkpt><trkpt lat="44.6152567" lon="7.9371817"><ele>355.0</ele><time>2026-05-01T12:35:08.153Z</time></trkpt><trkpt lat="44.6151883" lon="7.9372783"><ele>355.0</ele><time>2026-05-01T12:35:09.153Z</time></trkpt><trkpt lat="44.6151367" lon="7.9373667"><ele>355.0</ele><time>2026-05-01T12:35:10.151Z</time></trkpt><trkpt lat="44.6151483" lon="7.937465"><ele>355.0</ele><time>2026-05-01T12:35:11.156Z</time></trkpt><trkpt lat="44.61523" lon="7.9375867"><ele>355.0</ele><time>2026-05-01T12:35:13.156Z</time></trkpt><trkpt lat="44.6153167" lon="7.937585"><ele>352.25</ele><time>2026-05-01T12:35:14.158Z</time></trkpt><trkpt lat="44.6154017" lon="7.9375633"><ele>349.5</ele><time>2026-05-01T12:35:15.151Z</time></trkpt><trkpt lat="44.6155033" lon="7.9374933"><ele>346.75</ele><time>2026-05-01T12:35:16.153Z</time></trkpt><trkpt lat="44.6156183" lon="7.9373783"><ele>344.0</ele><time>2026-05-01T12:35:17.153Z</time></trkpt><trkpt lat="44.6157317" lon="7.9372733"><ele>344.0</ele><time>2026-05-01T12:35:18.156Z</time></trkpt><trkpt lat="44.6158383" lon="7.9371583"><ele>344.0</ele><time>2026-05-01T12:35:19.158Z</time></trkpt><trkpt lat="44.6159217" lon="7.93703"><ele>344.0</ele><time>2026-05-01T12:35:20.154Z</time></trkpt><trkpt lat="44.61598" lon="7.9368833"><ele>344.0</ele><time>2026-05-01T12:35:21.155Z</time></trkpt><trkpt lat="44.6160167" lon="7.9367183"><ele>346.6</ele><time>2026-05-01T12:35:22.154Z</time></trkpt><trkpt lat="44.6160433" lon="7.9365733"><ele>349.2</ele><time>2026-05-01T12:35:23.156Z</time></trkpt><trkpt lat="44.6160717" lon="7.9364733"><ele>351.8</ele><time>2026-05-01T12:35:24.159Z</time></trkpt><trkpt lat="44.6161333" lon="7.9364167"><ele>354.40000000000003</ele><time>2026-05-01T12:35:26.15Z</time></trkpt><trkpt lat="44.6161917" lon="7.9365383"><ele>357.0</ele><time>2026-05-01T12:35:28.162Z</time></trkpt><trkpt lat="44.6161817" lon="7.9366633"><ele>354.40000000000003</ele><time>2026-05-01T12:35:29.152Z</time></trkpt><trkpt lat="44.6161683" lon="7.9368"><ele>351.8</ele><time>2026-05-01T12:35:30.15Z</time></trkpt><trkpt lat="44.6161567" lon="7.9369467"><ele>349.2</ele><time>2026-05-01T12:35:31.154Z</time></trkpt><trkpt lat="44.6161367" lon="7.9370967"><ele>346.6</ele><time>2026-05-01T12:35:32.157Z</time></trkpt><trkpt lat="44.61611" lon="7.937255"><ele>344.0</ele><time>2026-05-01T12:35:33.15Z</time></trkpt><trkpt lat="44.6160667" lon="7.93742"><ele>339.25</ele><time>2026-05-01T12:35:34.159Z</time></trkpt><trkpt lat="44.6160017" lon="7.9375817"><ele>334.5</ele><time>2026-05-01T12:35:35.154Z</time></trkpt><trkpt lat="44.615925" lon="7.9377433"><ele>329.75</ele><time>2026-05-01T12:35:36.151Z</time></trkpt><trkpt lat="44.6158383" lon="7.9379083"><ele>325.0</ele><time>2026-05-01T12:35:37.156Z</time></trkpt><trkpt lat="44.6157417" lon="7.9380783"><ele>325.0</ele><time>2026-05-01T12:35:38.156Z</time></trkpt><trkpt lat="44.61564" lon="7.938255"><ele>325.0</ele><time>2026-05-01T12:35:39.154Z</time></trkpt><trkpt lat="44.6155267" lon="7.938435"><ele>325.0</ele><time>2026-05-01T12:35:40.156Z</time></trkpt><trkpt lat="44.6154167" lon="7.9386133"><ele>325.0</ele><time>2026-05-01T12:35:41.151Z</time></trkpt><trkpt lat="44.615305" lon="7.938795"><ele>325.0</ele><time>2026-05-01T12:35:42.152Z</time></trkpt><trkpt lat="44.6151917" lon="7.9389833"><ele>325.0</ele><time>2026-05-01T12:35:43.151Z</time></trkpt><trkpt lat="44.61508" lon="7.9391617"><ele>322.66666666666663</ele><time>2026-05-01T12:35:44.155Z</time></trkpt><trkpt lat="44.6149783" lon="7.939335"><ele>320.3333333333333</ele><time>2026-05-01T12:35:45.152Z</time></trkpt><trkpt lat="44.6148983" lon="7.9395217"><ele>318.0</ele><time>2026-05-01T12:35:46.153Z</time></trkpt><trkpt lat="44.614835" lon="7.939725"><ele>318.0</ele><time>2026-05-01T12:35:47.151Z</time></trkpt><trkpt lat="44.6147833" lon="7.9399283"><ele>318.0</ele><time>2026-05-01T12:35:48.154Z</time></trkpt><trkpt lat="44.61473" lon="7.9401283"><ele>318.0</ele><time>2026-05-01T12:35:49.155Z</time></trkpt><trkpt lat="44.614675" lon="7.940315"><ele>317.8</ele><time>2026-05-01T12:35:50.153Z</time></trkpt><trkpt lat="44.6146183" lon="7.940485"><ele>317.6</ele><time>2026-05-01T12:35:51.155Z</time></trkpt><trkpt lat="44.6145617" lon="7.9406317"><ele>317.4</ele><time>2026-05-01T12:35:52.159Z</time></trkpt><trkpt lat="44.6145133" lon="7.9407433"><ele>317.2</ele><time>2026-05-01T12:35:53.155Z</time></trkpt><trkpt lat="44.61447" lon="7.9408283"><ele>317.0</ele><time>2026-05-01T12:35:54.152Z</time></trkpt><trkpt lat="44.61437" lon="7.94094"><ele>316.83333333333337</ele><time>2026-05-01T12:35:56.156Z</time></trkpt><trkpt lat="44.61431" lon="7.9409783"><ele>316.6666666666667</ele><time>2026-05-01T12:35:57.152Z</time></trkpt><trkpt lat="44.614235" lon="7.9409983"><ele>316.5</ele><time>2026-05-01T12:35:58.152Z</time></trkpt><trkpt lat="44.6141583" lon="7.9409967"><ele>316.3333333333333</ele><time>2026-05-01T12:35:59.152Z</time></trkpt><trkpt lat="44.6140583" lon="7.940985"><ele>316.16666666666663</ele><time>2026-05-01T12:36:00.153Z</time></trkpt><trkpt lat="44.613965" lon="7.940975"><ele>316.0</ele><time>2026-05-01T12:36:01.154Z</time></trkpt><trkpt lat="44.61387" lon="7.9409667"><ele>316.0</ele><time>2026-05-01T12:36:02.151Z</time></trkpt><trkpt lat="44.613775" lon="7.9409533"><ele>316.0</ele><time>2026-05-01T12:36:03.154Z</time></trkpt><trkpt lat="44.6136783" lon="7.9409417"><ele>316.0</ele><time>2026-05-01T12:36:04.155Z</time></trkpt><trkpt lat="44.6135767" lon="7.9409283"><ele>316.0</ele><time>2026-05-01T12:36:05.151Z</time></trkpt><trkpt lat="44.6134733" lon="7.9409183"><ele>316.0</ele><time>2026-05-01T12:36:06.153Z</time></trkpt><trkpt lat="44.6133683" lon="7.9409133"><ele>315.8</ele><time>2026-05-01T12:36:07.154Z</time></trkpt><trkpt lat="44.61326" lon="7.94091"><ele>315.6</ele><time>2026-05-01T12:36:08.156Z</time></trkpt><trkpt lat="44.6131483" lon="7.9409067"><ele>315.4</ele><time>2026-05-01T12:36:09.153Z</time></trkpt><trkpt lat="44.613035" lon="7.9408967"><ele>315.2</ele><time>2026-05-01T12:36:10.154Z</time></trkpt><trkpt lat="44.6129217" lon="7.9408767"><ele>315.0</ele><time>2026-05-01T12:36:11.152Z</time></trkpt><trkpt lat="44.6128067" lon="7.9408533"><ele>313.25</ele><time>2026-05-01T12:36:12.155Z</time></trkpt><trkpt lat="44.61269" lon="7.9408233"><ele>311.5</ele><time>2026-05-01T12:36:13.155Z</time></trkpt><trkpt lat="44.6125733" lon="7.94079"><ele>309.75</ele><time>2026-05-01T12:36:14.153Z</time></trkpt><trkpt lat="44.6124567" lon="7.94075"><ele>308.0</ele><time>2026-05-01T12:36:15.154Z</time></trkpt><trkpt lat="44.6123417" lon="7.9407067"><ele>308.0</ele><time>2026-05-01T12:36:16.154Z</time></trkpt><trkpt lat="44.6122333" lon="7.94066"><ele>308.0</ele><time>2026-05-01T12:36:17.151Z</time></trkpt><trkpt lat="44.612125" lon="7.9406067"><ele>308.0</ele><time>2026-05-01T12:36:18.151Z</time></trkpt><trkpt lat="44.6120217" lon="7.9405533"><ele>308.0</ele><time>2026-05-01T12:36:19.155Z</time></trkpt><trkpt lat="44.61192" lon="7.9405017"><ele>308.0</ele><time>2026-05-01T12:36:20.153Z</time></trkpt><trkpt lat="44.6118217" lon="7.9404567"><ele>308.0</ele><time>2026-05-01T12:36:21.153Z</time></trkpt><trkpt lat="44.6117283" lon="7.9404117"><ele>308.0</ele><time>2026-05-01T12:36:22.151Z</time></trkpt><trkpt lat="44.6116383" lon="7.940365"><ele>308.0</ele><time>2026-05-01T12:36:23.154Z</time></trkpt><trkpt lat="44.61155" lon="7.94032"><ele>308.0</ele><time>2026-05-01T12:36:24.151Z</time></trkpt><trkpt lat="44.6114583" lon="7.94027"><ele>308.0</ele><time>2026-05-01T12:36:25.151Z</time></trkpt><trkpt lat="44.6113667" lon="7.9402283"><ele>308.0</ele><time>2026-05-01T12:36:26.158Z</time></trkpt><trkpt lat="44.61127" lon="7.9402033"><ele>308.0</ele><time>2026-05-01T12:36:27.152Z</time></trkpt><trkpt lat="44.6111667" lon="7.940195"><ele>308.0</ele><time>2026-05-01T12:36:28.156Z</time></trkpt><trkpt lat="44.6110567" lon="7.9402033"><ele>308.0</ele><time>2026-05-01T12:36:29.15Z</time></trkpt><trkpt lat="44.6109433" lon="7.94022"><ele>308.0</ele><time>2026-05-01T12:36:30.154Z</time></trkpt><trkpt lat="44.6108267" lon="7.9402333"><ele>307.6</ele><time>2026-05-01T12:36:31.151Z</time></trkpt><trkpt lat="44.6107117" lon="7.940245"><ele>307.20000000000005</ele><time>2026-05-01T12:36:32.151Z</time></trkpt><trkpt lat="44.610595" lon="7.9402517"><ele>306.8</ele><time>2026-05-01T12:36:33.152Z</time></trkpt><trkpt lat="44.6104867" lon="7.9402633"><ele>306.40000000000003</ele><time>2026-05-01T12:36:34.153Z</time></trkpt><trkpt lat="44.6103817" lon="7.9402733"><ele>306.0</ele><time>2026-05-01T12:36:35.154Z</time></trkpt><trkpt lat="44.6102733" lon="7.9402733"><ele>306.0</ele><time>2026-05-01T12:36:36.153Z</time></trkpt><trkpt lat="44.6101683" lon="7.9402733"><ele>306.0</ele><time>2026-05-01T12:36:37.155Z</time></trkpt><trkpt lat="44.6100633" lon="7.9402683"><ele>306.0</ele><time>2026-05-01T12:36:38.156Z</time></trkpt><trkpt lat="44.6099583" lon="7.9402733"><ele>306.0</ele><time>2026-05-01T12:36:39.157Z</time></trkpt><trkpt lat="44.6098517" lon="7.9402767"><ele>306.0</ele><time>2026-05-01T12:36:40.154Z</time></trkpt><trkpt lat="44.6097433" lon="7.9402783"><ele>306.0</ele><time>2026-05-01T12:36:41.152Z</time></trkpt><trkpt lat="44.6096333" lon="7.940275"><ele>306.0</ele><time>2026-05-01T12:36:42.151Z</time></trkpt><trkpt lat="44.6095267" lon="7.9402633"><ele>306.0</ele><time>2026-05-01T12:36:43.156Z</time></trkpt><trkpt lat="44.6094217" lon="7.940255"><ele>306.0</ele><time>2026-05-01T12:36:44.157Z</time></trkpt><trkpt lat="44.60931" lon="7.9402367"><ele>306.0</ele><time>2026-05-01T12:36:45.151Z</time></trkpt><trkpt lat="44.6091967" lon="7.9402217"><ele>305.40000000000003</ele><time>2026-05-01T12:36:46.15Z</time></trkpt><trkpt lat="44.609085" lon="7.9402083"><ele>304.8</ele><time>2026-05-01T12:36:47.159Z</time></trkpt><trkpt lat="44.6089717" lon="7.9402067"><ele>304.20000000000005</ele><time>2026-05-01T12:36:48.153Z</time></trkpt><trkpt lat="44.6088617" lon="7.9402233"><ele>303.6</ele><time>2026-05-01T12:36:49.152Z</time></trkpt><trkpt lat="44.608755" lon="7.9402683"><ele>303.0</ele><time>2026-05-01T12:36:50.153Z</time></trkpt><trkpt lat="44.60866" lon="7.9403583"><ele>304.5</ele><time>2026-05-01T12:36:51.158Z</time></trkpt><trkpt lat="44.608575" lon="7.9404767"><ele>306.0</ele><time>2026-05-01T12:36:52.154Z</time></trkpt><trkpt lat="44.6085083" lon="7.940615"><ele>307.5</ele><time>2026-05-01T12:36:53.154Z</time></trkpt><trkpt lat="44.6084633" lon="7.94077"><ele>309.0</ele><time>2026-05-01T12:36:54.154Z</time></trkpt><trkpt lat="44.6084167" lon="7.9409267"><ele>309.0</ele><time>2026-05-01T12:36:55.155Z</time></trkpt><trkpt lat="44.6083683" lon="7.94108"><ele>309.0</ele><time>2026-05-01T12:36:56.154Z</time></trkpt><trkpt lat="44.608315" lon="7.9412033"><ele>309.0</ele><time>2026-05-01T12:36:57.154Z</time></trkpt><trkpt lat="44.6082467" lon="7.94128"><ele>309.0</ele><time>2026-05-01T12:36:58.153Z</time></trkpt><trkpt lat="44.60818" lon="7.9413383"><ele>309.0</ele><time>2026-05-01T12:36:59.152Z</time></trkpt><trkpt lat="44.608115" lon="7.9413917"><ele>309.0</ele><time>2026-05-01T12:37:00.158Z</time></trkpt><trkpt lat="44.608005" lon="7.94123"><ele>309.0</ele><time>2026-05-01T12:37:02.154Z</time></trkpt><trkpt lat="44.6079317" lon="7.9410317"><ele>309.0</ele><time>2026-05-01T12:37:03.154Z</time></trkpt><trkpt lat="44.60787" lon="7.94085"><ele>308.75</ele><time>2026-05-01T12:37:04.158Z</time></trkpt><trkpt lat="44.60781" lon="7.9406683"><ele>308.5</ele><time>2026-05-01T12:37:05.152Z</time></trkpt><trkpt lat="44.60776" lon="7.940485"><ele>308.25</ele><time>2026-05-01T12:37:06.156Z</time></trkpt><trkpt lat="44.607715" lon="7.9403133"><ele>308.0</ele><time>2026-05-01T12:37:07.153Z</time></trkpt><trkpt lat="44.6076717" lon="7.9401383"><ele>311.0</ele><time>2026-05-01T12:37:08.157Z</time></trkpt><trkpt lat="44.60763" lon="7.9399667"><ele>314.0</ele><time>2026-05-01T12:37:09.154Z</time></trkpt><trkpt lat="44.6075733" lon="7.9397983"><ele>317.0</ele><time>2026-05-01T12:37:10.152Z</time></trkpt><trkpt lat="44.60752" lon="7.93963"><ele>320.0</ele><time>2026-05-01T12:37:11.153Z</time></trkpt><trkpt lat="44.6074483" lon="7.9394967"><ele>320.0</ele><time>2026-05-01T12:37:12.154Z</time></trkpt><trkpt lat="44.60735" lon="7.9394067"><ele>320.0</ele><time>2026-05-01T12:37:13.152Z</time></trkpt><trkpt lat="44.6072417" lon="7.93932"><ele>320.0</ele><time>2026-05-01T12:37:14.154Z</time></trkpt><trkpt lat="44.6071167" lon="7.939255"><ele>320.0</ele><time>2026-05-01T12:37:15.151Z</time></trkpt><trkpt lat="44.606985" lon="7.9391867"><ele>320.75</ele><time>2026-05-01T12:37:16.158Z</time></trkpt><trkpt lat="44.606845" lon="7.9391283"><ele>321.5</ele><time>2026-05-01T12:37:17.152Z</time></trkpt><trkpt lat="44.6066983" lon="7.9390867"><ele>322.25</ele><time>2026-05-01T12:37:18.154Z</time></trkpt><trkpt lat="44.6065467" lon="7.9390683"><ele>323.0</ele><time>2026-05-01T12:37:19.153Z</time></trkpt><trkpt lat="44.6063933" lon="7.93908"><ele>323.0</ele><time>2026-05-01T12:37:20.156Z</time></trkpt><trkpt lat="44.6062417" lon="7.9391033"><ele>323.0</ele><time>2026-05-01T12:37:21.16Z</time></trkpt><trkpt lat="44.6060883" lon="7.9391317"><ele>323.0</ele><time>2026-05-01T12:37:22.156Z</time></trkpt><trkpt lat="44.605935" lon="7.9391683"><ele>320.0</ele><time>2026-05-01T12:37:23.155Z</time></trkpt><trkpt lat="44.6057933" lon="7.939235"><ele>317.0</ele><time>2026-05-01T12:37:24.153Z</time></trkpt><trkpt lat="44.605655" lon="7.939335"><ele>314.0</ele><time>2026-05-01T12:37:25.155Z</time></trkpt><trkpt lat="44.60552" lon="7.9394633"><ele>314.0</ele><time>2026-05-01T12:37:26.155Z</time></trkpt><trkpt lat="44.6053917" lon="7.9396083"><ele>314.0</ele><time>2026-05-01T12:37:27.154Z</time></trkpt><trkpt lat="44.6052683" lon="7.9397583"><ele>314.0</ele><time>2026-05-01T12:37:28.157Z</time></trkpt><trkpt lat="44.6051417" lon="7.9399017"><ele>315.75</ele><time>2026-05-01T12:37:29.153Z</time></trkpt><trkpt lat="44.60502" lon="7.9400433"><ele>317.5</ele><time>2026-05-01T12:37:30.152Z</time></trkpt><trkpt lat="44.6049067" lon="7.9401733"><ele>319.25</ele><time>2026-05-01T12:37:31.155Z</time></trkpt><trkpt lat="44.6048017" lon="7.9402917"><ele>321.0</ele><time>2026-05-01T12:37:32.152Z</time></trkpt><trkpt lat="44.604705" lon="7.9403983"><ele>321.0</ele><time>2026-05-01T12:37:33.153Z</time></trkpt><trkpt lat="44.60461" lon="7.9405033"><ele>321.0</ele><time>2026-05-01T12:37:34.156Z</time></trkpt><trkpt lat="44.60452" lon="7.9406017"><ele>321.0</ele><time>2026-05-01T12:37:35.154Z</time></trkpt><trkpt lat="44.6044333" lon="7.9406967"><ele>321.0</ele><time>2026-05-01T12:37:36.158Z</time></trkpt><trkpt lat="44.6043467" lon="7.940795"><ele>320.75</ele><time>2026-05-01T12:37:37.156Z</time></trkpt><trkpt lat="44.6042533" lon="7.9408867"><ele>320.5</ele><time>2026-05-01T12:37:38.156Z</time></trkpt><trkpt lat="44.6041533" lon="7.9409667"><ele>320.25</ele><time>2026-05-01T12:37:39.154Z</time></trkpt><trkpt lat="44.60404" lon="7.9410233"><ele>320.0</ele><time>2026-05-01T12:37:40.16Z</time></trkpt><trkpt lat="44.6039183" lon="7.94106"><ele>320.0</ele><time>2026-05-01T12:37:41.154Z</time></trkpt><trkpt lat="44.603785" lon="7.9410683"><ele>320.0</ele><time>2026-05-01T12:37:42.152Z</time></trkpt><trkpt lat="44.6036467" lon="7.9410567"><ele>320.0</ele><time>2026-05-01T12:37:43.154Z</time></trkpt><trkpt lat="44.6034967" lon="7.9410317"><ele>320.0</ele><time>2026-05-01T12:37:44.154Z</time></trkpt><trkpt lat="44.6033383" lon="7.9410067"><ele>321.0</ele><time>2026-05-01T12:37:45.153Z</time></trkpt><trkpt lat="44.60317" lon="7.9409783"><ele>322.0</ele><time>2026-05-01T12:37:46.155Z</time></trkpt><trkpt lat="44.602995" lon="7.9409467"><ele>323.0</ele><time>2026-05-01T12:37:47.152Z</time></trkpt><trkpt lat="44.6028233" lon="7.9409167"><ele>324.0</ele><time>2026-05-01T12:37:48.153Z</time></trkpt><trkpt lat="44.6026567" lon="7.940885"><ele>325.0</ele><time>2026-05-01T12:37:49.153Z</time></trkpt><trkpt lat="44.6024967" lon="7.9408433"><ele>326.0</ele><time>2026-05-01T12:37:50.153Z</time></trkpt><trkpt lat="44.602345" lon="7.9407783"><ele>328.6666666666667</ele><time>2026-05-01T12:37:51.152Z</time></trkpt><trkpt lat="44.602205" lon="7.940685"><ele>331.3333333333333</ele><time>2026-05-01T12:37:52.155Z</time></trkpt><trkpt lat="44.6020717" lon="7.9405667"><ele>334.0</ele><time>2026-05-01T12:37:53.154Z</time></trkpt><trkpt lat="44.6019417" lon="7.94044"><ele>334.0</ele><time>2026-05-01T12:37:54.153Z</time></trkpt><trkpt lat="44.6018133" lon="7.94031"><ele>334.0</ele><time>2026-05-01T12:37:55.156Z</time></trkpt><trkpt lat="44.6016833" lon="7.940185"><ele>334.0</ele><time>2026-05-01T12:37:56.153Z</time></trkpt><trkpt lat="44.6015517" lon="7.9400533"><ele>334.66666666666663</ele><time>2026-05-01T12:37:57.155Z</time></trkpt><trkpt lat="44.6014183" lon="7.9399167"><ele>335.3333333333333</ele><time>2026-05-01T12:37:58.152Z</time></trkpt><trkpt lat="44.60129" lon="7.9397783"><ele>336.0</ele><time>2026-05-01T12:37:59.156Z</time></trkpt><trkpt lat="44.6011617" lon="7.9396433"><ele>336.0</ele><time>2026-05-01T12:38:00.156Z</time></trkpt><trkpt lat="44.6010317" lon="7.9395083"><ele>336.0</ele><time>2026-05-01T12:38:01.161Z</time></trkpt><trkpt lat="44.6008983" lon="7.9393767"><ele>336.0</ele><time>2026-05-01T12:38:02.152Z</time></trkpt><trkpt lat="44.6007683" lon="7.939245"><ele>341.3333333333333</ele><time>2026-05-01T12:38:03.156Z</time></trkpt><trkpt lat="44.600635" lon="7.9391217"><ele>346.66666666666663</ele><time>2026-05-01T12:38:04.153Z</time></trkpt><trkpt lat="44.6005017" lon="7.9390117"><ele>352.0</ele><time>2026-05-01T12:38:05.157Z</time></trkpt><trkpt lat="44.600365" lon="7.9389283"><ele>351.25</ele><time>2026-05-01T12:38:06.155Z</time></trkpt><trkpt lat="44.6002267" lon="7.9388767"><ele>350.5</ele><time>2026-05-01T12:38:07.151Z</time></trkpt><trkpt lat="44.6000867" lon="7.9388617"><ele>349.75</ele><time>2026-05-01T12:38:08.151Z</time></trkpt><trkpt lat="44.5999517" lon="7.9388917"><ele>349.0</ele><time>2026-05-01T12:38:09.151Z</time></trkpt><trkpt lat="44.5998267" lon="7.9389617"><ele>349.0</ele><time>2026-05-01T12:38:10.155Z</time></trkpt><trkpt lat="44.5997083" lon="7.939065"><ele>349.0</ele><time>2026-05-01T12:38:11.154Z</time></trkpt><trkpt lat="44.5996033" lon="7.9392067"><ele>349.0</ele><time>2026-05-01T12:38:12.153Z</time></trkpt><trkpt lat="44.59951" lon="7.93938"><ele>349.0</ele><time>2026-05-01T12:38:13.154Z</time></trkpt><trkpt lat="44.5994317" lon="7.93958"><ele>351.66666666666663</ele><time>2026-05-01T12:38:14.152Z</time></trkpt><trkpt lat="44.5993567" lon="7.9397967"><ele>354.3333333333333</ele><time>2026-05-01T12:38:15.153Z</time></trkpt><trkpt lat="44.5992817" lon="7.9400217"><ele>357.0</ele><time>2026-05-01T12:38:16.155Z</time></trkpt><trkpt lat="44.5992067" lon="7.9402583"><ele>357.0</ele><time>2026-05-01T12:38:17.153Z</time></trkpt><trkpt lat="44.5991383" lon="7.9405017"><ele>357.0</ele><time>2026-05-01T12:38:18.155Z</time></trkpt><trkpt lat="44.5990733" lon="7.9407417"><ele>357.0</ele><time>2026-05-01T12:38:19.152Z</time></trkpt><trkpt lat="44.5990233" lon="7.9409833"><ele>357.0</ele><time>2026-05-01T12:38:20.151Z</time></trkpt><trkpt lat="44.598995" lon="7.9412317"><ele>357.0</ele><time>2026-05-01T12:38:21.152Z</time></trkpt><trkpt lat="44.5989833" lon="7.9414883"><ele>357.0</ele><time>2026-05-01T12:38:22.16Z</time></trkpt><trkpt lat="44.5989867" lon="7.9417433"><ele>357.0</ele><time>2026-05-01T12:38:23.158Z</time></trkpt><trkpt lat="44.5990017" lon="7.941995"><ele>357.0</ele><time>2026-05-01T12:38:24.16Z</time></trkpt><trkpt lat="44.59902" lon="7.9422433"><ele>357.0</ele><time>2026-05-01T12:38:25.157Z</time></trkpt><trkpt lat="44.59904" lon="7.94248"><ele>359.25</ele><time>2026-05-01T12:38:26.153Z</time></trkpt><trkpt lat="44.5990617" lon="7.942705"><ele>361.5</ele><time>2026-05-01T12:38:27.153Z</time></trkpt><trkpt lat="44.5990817" lon="7.94291"><ele>363.75</ele><time>2026-05-01T12:38:28.156Z</time></trkpt><trkpt lat="44.5990983" lon="7.943095"><ele>366.0</ele><time>2026-05-01T12:38:29.154Z</time></trkpt><trkpt lat="44.5991083" lon="7.9432683"><ele>364.8</ele><time>2026-05-01T12:38:30.157Z</time></trkpt><trkpt lat="44.599085" lon="7.9434183"><ele>363.6</ele><time>2026-05-01T12:38:31.152Z</time></trkpt><trkpt lat="44.5990283" lon="7.9435467"><ele>362.4</ele><time>2026-05-01T12:38:32.159Z</time></trkpt><trkpt lat="44.5989533" lon="7.9436583"><ele>361.2</ele><time>2026-05-01T12:38:33.154Z</time></trkpt><trkpt lat="44.5988633" lon="7.94373"><ele>360.0</ele><time>2026-05-01T12:38:34.156Z</time></trkpt><trkpt lat="44.5987467" lon="7.9437633"><ele>360.5</ele><time>2026-05-01T12:38:35.155Z</time></trkpt><trkpt lat="44.59861" lon="7.94377"><ele>361.0</ele><time>2026-05-01T12:38:36.152Z</time></trkpt><trkpt lat="44.59847" lon="7.9437867"><ele>361.5</ele><time>2026-05-01T12:38:37.156Z</time></trkpt><trkpt lat="44.5983267" lon="7.9438183"><ele>362.0</ele><time>2026-05-01T12:38:38.152Z</time></trkpt><trkpt lat="44.5981867" lon="7.9438783"><ele>362.0</ele><time>2026-05-01T12:38:39.149Z</time></trkpt><trkpt lat="44.59806" lon="7.9439817"><ele>362.0</ele><time>2026-05-01T12:38:40.154Z</time></trkpt><trkpt lat="44.5979533" lon="7.9441283"><ele>362.0</ele><time>2026-05-01T12:38:41.155Z</time></trkpt><trkpt lat="44.59787" lon="7.9443"><ele>362.0</ele><time>2026-05-01T12:38:42.157Z</time></trkpt><trkpt lat="44.5978" lon="7.9444817"><ele>364.25</ele><time>2026-05-01T12:38:43.153Z</time></trkpt><trkpt lat="44.5977367" lon="7.9446667"><ele>366.5</ele><time>2026-05-01T12:38:44.162Z</time></trkpt><trkpt lat="44.5976717" lon="7.9448467"><ele>368.75</ele><time>2026-05-01T12:38:45.157Z</time></trkpt><trkpt lat="44.5975967" lon="7.9450133"><ele>371.0</ele><time>2026-05-01T12:38:46.155Z</time></trkpt><trkpt lat="44.5974933" lon="7.945155"><ele>365.0</ele><time>2026-05-01T12:38:47.152Z</time></trkpt><trkpt lat="44.59737" lon="7.9452583"><ele>359.0</ele><time>2026-05-01T12:38:48.157Z</time></trkpt><trkpt lat="44.597225" lon="7.9453383"><ele>353.0</ele><time>2026-05-01T12:38:49.157Z</time></trkpt><trkpt lat="44.5970767" lon="7.945415"><ele>357.33333333333337</ele><time>2026-05-01T12:38:50.161Z</time></trkpt><trkpt lat="44.5969217" lon="7.9454917"><ele>361.6666666666667</ele><time>2026-05-01T12:38:51.154Z</time></trkpt><trkpt lat="44.59677" lon="7.945565"><ele>366.0</ele><time>2026-05-01T12:38:52.156Z</time></trkpt><trkpt lat="44.59662" lon="7.94564"><ele>366.0</ele><time>2026-05-01T12:38:53.152Z</time></trkpt><trkpt lat="44.5964783" lon="7.9457067"><ele>366.0</ele><time>2026-05-01T12:38:54.153Z</time></trkpt><trkpt lat="44.5963383" lon="7.945775"><ele>366.0</ele><time>2026-05-01T12:38:55.155Z</time></trkpt><trkpt lat="44.5961983" lon="7.9458433"><ele>366.0</ele><time>2026-05-01T12:38:56.156Z</time></trkpt><trkpt lat="44.59606" lon="7.9459067"><ele>364.5</ele><time>2026-05-01T12:38:57.154Z</time></trkpt><trkpt lat="44.5959233" lon="7.9459717"><ele>363.0</ele><time>2026-05-01T12:38:58.153Z</time></trkpt><trkpt lat="44.5957933" lon="7.9460383"><ele>361.5</ele><time>2026-05-01T12:38:59.157Z</time></trkpt><trkpt lat="44.5956583" lon="7.9461117"><ele>360.0</ele><time>2026-05-01T12:39:00.155Z</time></trkpt><trkpt lat="44.595525" lon="7.9461783"><ele>360.0</ele><time>2026-05-01T12:39:01.153Z</time></trkpt><trkpt lat="44.5953917" lon="7.9462417"><ele>360.0</ele><time>2026-05-01T12:39:02.156Z</time></trkpt><trkpt lat="44.5952617" lon="7.94631"><ele>360.0</ele><time>2026-05-01T12:39:03.154Z</time></trkpt><trkpt lat="44.59514" lon="7.946395"><ele>360.0</ele><time>2026-05-01T12:39:04.154Z</time></trkpt><trkpt lat="44.595025" lon="7.9465017"><ele>359.25</ele><time>2026-05-01T12:39:05.153Z</time></trkpt><trkpt lat="44.5949183" lon="7.94662"><ele>358.5</ele><time>2026-05-01T12:39:06.156Z</time></trkpt><trkpt lat="44.5948183" lon="7.9467517"><ele>357.75</ele><time>2026-05-01T12:39:07.152Z</time></trkpt><trkpt lat="44.5947217" lon="7.9468833"><ele>357.0</ele><time>2026-05-01T12:39:08.156Z</time></trkpt><trkpt lat="44.5946183" lon="7.9469967"><ele>359.75</ele><time>2026-05-01T12:39:09.154Z</time></trkpt><trkpt lat="44.5944967" lon="7.94708"><ele>362.5</ele><time>2026-05-01T12:39:10.155Z</time></trkpt><trkpt lat="44.5943617" lon="7.9471367"><ele>365.25</ele><time>2026-05-01T12:39:11.154Z</time></trkpt><trkpt lat="44.59422" lon="7.9471583"><ele>368.0</ele><time>2026-05-01T12:39:12.154Z</time></trkpt><trkpt lat="44.5940717" lon="7.9471567"><ele>368.0</ele><time>2026-05-01T12:39:13.154Z</time></trkpt><trkpt lat="44.59392" lon="7.9471517"><ele>368.0</ele><time>2026-05-01T12:39:14.155Z</time></trkpt><trkpt lat="44.5937717" lon="7.9471783"><ele>368.0</ele><time>2026-05-01T12:39:15.155Z</time></trkpt><trkpt lat="44.59363" lon="7.9472367"><ele>368.0</ele><time>2026-05-01T12:39:16.155Z</time></trkpt><trkpt lat="44.5934983" lon="7.9473383"><ele>369.25</ele><time>2026-05-01T12:39:17.154Z</time></trkpt><trkpt lat="44.59339" lon="7.947475"><ele>370.5</ele><time>2026-05-01T12:39:18.16Z</time></trkpt><trkpt lat="44.5932983" lon="7.947635"><ele>371.75</ele><time>2026-05-01T12:39:19.153Z</time></trkpt><trkpt lat="44.593215" lon="7.947815"><ele>373.0</ele><time>2026-05-01T12:39:20.153Z</time></trkpt><trkpt lat="44.59314" lon="7.9480067"><ele>373.0</ele><time>2026-05-01T12:39:21.155Z</time></trkpt><trkpt lat="44.5930683" lon="7.9482"><ele>373.0</ele><time>2026-05-01T12:39:22.154Z</time></trkpt><trkpt lat="44.592995" lon="7.94839"><ele>373.0</ele><time>2026-05-01T12:39:23.152Z</time></trkpt><trkpt lat="44.59292" lon="7.94858"><ele>375.66666666666663</ele><time>2026-05-01T12:39:24.153Z</time></trkpt><trkpt lat="44.5928483" lon="7.9487683"><ele>378.3333333333333</ele><time>2026-05-01T12:39:25.153Z</time></trkpt><trkpt lat="44.592775" lon="7.9489533"><ele>381.0</ele><time>2026-05-01T12:39:26.154Z</time></trkpt><trkpt lat="44.592705" lon="7.949135"><ele>379.5</ele><time>2026-05-01T12:39:27.153Z</time></trkpt><trkpt lat="44.59264" lon="7.9493117"><ele>378.0</ele><time>2026-05-01T12:39:28.155Z</time></trkpt><trkpt lat="44.5925817" lon="7.9494833"><ele>376.5</ele><time>2026-05-01T12:39:29.165Z</time></trkpt><trkpt lat="44.59252" lon="7.94965"><ele>375.0</ele><time>2026-05-01T12:39:30.156Z</time></trkpt><trkpt lat="44.5924533" lon="7.949815"><ele>375.0</ele><time>2026-05-01T12:39:31.15Z</time></trkpt><trkpt lat="44.5923867" lon="7.9499767"><ele>375.0</ele><time>2026-05-01T12:39:32.155Z</time></trkpt><trkpt lat="44.5923167" lon="7.9501433"><ele>375.0</ele><time>2026-05-01T12:39:33.157Z</time></trkpt><trkpt lat="44.5922483" lon="7.95031"><ele>375.0</ele><time>2026-05-01T12:39:34.153Z</time></trkpt><trkpt lat="44.5921817" lon="7.95048"><ele>374.5</ele><time>2026-05-01T12:39:35.151Z</time></trkpt><trkpt lat="44.59211" lon="7.9506483"><ele>374.0</ele><time>2026-05-01T12:39:36.154Z</time></trkpt><trkpt lat="44.5920367" lon="7.9508167"><ele>373.5</ele><time>2026-05-01T12:39:37.156Z</time></trkpt><trkpt lat="44.591965" lon="7.9509833"><ele>373.0</ele><time>2026-05-01T12:39:38.152Z</time></trkpt><trkpt lat="44.5918883" lon="7.9511467"><ele>375.25</ele><time>2026-05-01T12:39:39.154Z</time></trkpt><trkpt lat="44.5918067" lon="7.9513"><ele>377.5</ele><time>2026-05-01T12:39:40.151Z</time></trkpt><trkpt lat="44.5917217" lon="7.9514517"><ele>379.75</ele><time>2026-05-01T12:39:41.155Z</time></trkpt><trkpt lat="44.5916383" lon="7.9515967"><ele>382.0</ele><time>2026-05-01T12:39:42.163Z</time></trkpt><trkpt lat="44.591555" lon="7.9517417"><ele>384.25</ele><time>2026-05-01T12:39:43.157Z</time></trkpt><trkpt lat="44.5914717" lon="7.951875"><ele>386.5</ele><time>2026-05-01T12:39:44.153Z</time></trkpt><trkpt lat="44.59139" lon="7.9520083"><ele>388.75</ele><time>2026-05-01T12:39:45.156Z</time></trkpt><trkpt lat="44.5913083" lon="7.9521267"><ele>391.0</ele><time>2026-05-01T12:39:46.15Z</time></trkpt><trkpt lat="44.591225" lon="7.95222"><ele>391.0</ele><time>2026-05-01T12:39:47.157Z</time></trkpt><trkpt lat="44.5911367" lon="7.9522783"><ele>391.0</ele><time>2026-05-01T12:39:48.152Z</time></trkpt><trkpt lat="44.5910433" lon="7.95231"><ele>391.0</ele><time>2026-05-01T12:39:49.153Z</time></trkpt><trkpt lat="44.59095" lon="7.952305"><ele>391.0</ele><time>2026-05-01T12:39:50.153Z</time></trkpt><trkpt lat="44.5908567" lon="7.952255"><ele>391.0</ele><time>2026-05-01T12:39:51.153Z</time></trkpt><trkpt lat="44.590765" lon="7.95217"><ele>391.0</ele><time>2026-05-01T12:39:52.156Z</time></trkpt><trkpt lat="44.5906733" lon="7.9520617"><ele>391.0</ele><time>2026-05-01T12:39:53.155Z</time></trkpt><trkpt lat="44.5905767" lon="7.951955"><ele>391.0</ele><time>2026-05-01T12:39:54.153Z</time></trkpt><trkpt lat="44.5904717" lon="7.9518567"><ele>391.0</ele><time>2026-05-01T12:39:55.154Z</time></trkpt><trkpt lat="44.59035" lon="7.95177"><ele>387.75</ele><time>2026-05-01T12:39:56.152Z</time></trkpt><trkpt lat="44.5902217" lon="7.9516967"><ele>384.5</ele><time>2026-05-01T12:39:57.15Z</time></trkpt><trkpt lat="44.5900883" lon="7.9516383"><ele>381.25</ele><time>2026-05-01T12:39:58.156Z</time></trkpt><trkpt lat="44.5899517" lon="7.9515883"><ele>378.0</ele><time>2026-05-01T12:39:59.158Z</time></trkpt><trkpt lat="44.5898167" lon="7.9515467"><ele>378.0</ele><time>2026-05-01T12:40:00.159Z</time></trkpt><trkpt lat="44.58968" lon="7.9515167"><ele>378.0</ele><time>2026-05-01T12:40:01.151Z</time></trkpt><trkpt lat="44.5895467" lon="7.951515"><ele>378.0</ele><time>2026-05-01T12:40:02.153Z</time></trkpt><trkpt lat="44.5894133" lon="7.9515433"><ele>378.0</ele><time>2026-05-01T12:40:03.149Z</time></trkpt><trkpt lat="44.5892817" lon="7.95159"><ele>378.0</ele><time>2026-05-01T12:40:04.156Z</time></trkpt><trkpt lat="44.5891483" lon="7.9516483"><ele>378.0</ele><time>2026-05-01T12:40:05.153Z</time></trkpt><trkpt lat="44.5890117" lon="7.9517067"><ele>378.0</ele><time>2026-05-01T12:40:06.151Z</time></trkpt><trkpt lat="44.58888" lon="7.9517633"><ele>378.0</ele><time>2026-05-01T12:40:07.152Z</time></trkpt><trkpt lat="44.5887567" lon="7.95181"><ele>378.4</ele><time>2026-05-01T12:40:08.155Z</time></trkpt><trkpt lat="44.5886417" lon="7.9518233"><ele>378.79999999999995</ele><time>2026-05-01T12:40:09.152Z</time></trkpt><trkpt lat="44.5885383" lon="7.9517833"><ele>379.2</ele><time>2026-05-01T12:40:10.15Z</time></trkpt><trkpt lat="44.5884467" lon="7.9517"><ele>379.6</ele><time>2026-05-01T12:40:11.153Z</time></trkpt><trkpt lat="44.58837" lon="7.95159"><ele>380.0</ele><time>2026-05-01T12:40:12.155Z</time></trkpt><trkpt lat="44.5882883" lon="7.95147"><ele>380.0</ele><time>2026-05-01T12:40:13.156Z</time></trkpt><trkpt lat="44.588205" lon="7.9513367"><ele>380.0</ele><time>2026-05-01T12:40:14.159Z</time></trkpt><trkpt lat="44.5881217" lon="7.9511933"><ele>380.0</ele><time>2026-05-01T12:40:15.157Z</time></trkpt><trkpt lat="44.58803" lon="7.9510483"><ele>380.0</ele><time>2026-05-01T12:40:16.15Z</time></trkpt><trkpt lat="44.5879367" lon="7.9509083"><ele>380.0</ele><time>2026-05-01T12:40:17.152Z</time></trkpt><trkpt lat="44.5878417" lon="7.9507667"><ele>380.0</ele><time>2026-05-01T12:40:18.153Z</time></trkpt><trkpt lat="44.5877433" lon="7.9506233"><ele>380.0</ele><time>2026-05-01T12:40:19.155Z</time></trkpt><trkpt lat="44.58765" lon="7.9504817"><ele>380.0</ele><time>2026-05-01T12:40:20.151Z</time></trkpt><trkpt lat="44.587555" lon="7.95034"><ele>380.0</ele><time>2026-05-01T12:40:21.15Z</time></trkpt><trkpt lat="44.5874633" lon="7.9502"><ele>380.0</ele><time>2026-05-01T12:40:22.154Z</time></trkpt><trkpt lat="44.5873767" lon="7.95006"><ele>380.0</ele><time>2026-05-01T12:40:23.154Z</time></trkpt><trkpt lat="44.5872933" lon="7.9499267"><ele>380.0</ele><time>2026-05-01T12:40:24.156Z</time></trkpt><trkpt lat="44.5872083" lon="7.9497983"><ele>380.4</ele><time>2026-05-01T12:40:25.153Z</time></trkpt><trkpt lat="44.587125" lon="7.9496767"><ele>380.8</ele><time>2026-05-01T12:40:26.157Z</time></trkpt><trkpt lat="44.5870417" lon="7.9495583"><ele>381.20000000000005</ele><time>2026-05-01T12:40:27.152Z</time></trkpt><trkpt lat="44.58697" lon="7.9494583"><ele>381.6</ele><time>2026-05-01T12:40:28.157Z</time></trkpt><trkpt lat="44.5868983" lon="7.949375"><ele>382.0</ele><time>2026-05-01T12:40:29.154Z</time></trkpt><trkpt lat="44.5868283" lon="7.9493083"><ele>382.0</ele><time>2026-05-01T12:40:30.152Z</time></trkpt><trkpt lat="44.586755" lon="7.9492617"><ele>382.0</ele><time>2026-05-01T12:40:31.154Z</time></trkpt><trkpt lat="44.5866733" lon="7.9492517"><ele>382.0</ele><time>2026-05-01T12:40:32.154Z</time></trkpt><trkpt lat="44.5865833" lon="7.9492733"><ele>382.0</ele><time>2026-05-01T12:40:33.153Z</time></trkpt><trkpt lat="44.58649" lon="7.9493317"><ele>382.0</ele><time>2026-05-01T12:40:34.153Z</time></trkpt><trkpt lat="44.586385" lon="7.9494217"><ele>382.0</ele><time>2026-05-01T12:40:35.151Z</time></trkpt><trkpt lat="44.5862733" lon="7.9495167"><ele>382.0</ele><time>2026-05-01T12:40:36.155Z</time></trkpt><trkpt lat="44.5861667" lon="7.9496"><ele>382.0</ele><time>2026-05-01T12:40:37.152Z</time></trkpt><trkpt lat="44.5860633" lon="7.9496733"><ele>382.0</ele><time>2026-05-01T12:40:38.152Z</time></trkpt><trkpt lat="44.5859633" lon="7.9497267"><ele>379.6</ele><time>2026-05-01T12:40:39.151Z</time></trkpt><trkpt lat="44.58586" lon="7.9497517"><ele>377.20000000000005</ele><time>2026-05-01T12:40:40.152Z</time></trkpt><trkpt lat="44.5857483" lon="7.9497617"><ele>374.8</ele><time>2026-05-01T12:40:41.154Z</time></trkpt><trkpt lat="44.5856383" lon="7.94976"><ele>372.4</ele><time>2026-05-01T12:40:42.152Z</time></trkpt><trkpt lat="44.585535" lon="7.94976"><ele>370.0</ele><time>2026-05-01T12:40:43.156Z</time></trkpt><trkpt lat="44.5854383" lon="7.9497583"><ele>370.0</ele><time>2026-05-01T12:40:44.155Z</time></trkpt><trkpt lat="44.5853583" lon="7.949745"><ele>370.0</ele><time>2026-05-01T12:40:45.154Z</time></trkpt><trkpt lat="44.5852883" lon="7.9497217"><ele>370.0</ele><time>2026-05-01T12:40:46.156Z</time></trkpt><trkpt lat="44.5852283" lon="7.9496933"><ele>370.0</ele><time>2026-05-01T12:40:47.155Z</time></trkpt><trkpt lat="44.58513" lon="7.949665"><ele>370.0</ele><time>2026-05-01T12:40:49.157Z</time></trkpt><trkpt lat="44.5850567" lon="7.9497617"><ele>370.0</ele><time>2026-05-01T12:40:51.152Z</time></trkpt><trkpt lat="44.585075" lon="7.9498633"><ele>367.75</ele><time>2026-05-01T12:40:52.155Z</time></trkpt><trkpt lat="44.5851" lon="7.9499817"><ele>365.5</ele><time>2026-05-01T12:40:53.157Z</time></trkpt><trkpt lat="44.5851283" lon="7.9501617"><ele>363.25</ele><time>2026-05-01T12:40:54.154Z</time></trkpt><trkpt lat="44.5851717" lon="7.95037"><ele>361.0</ele><time>2026-05-01T12:40:55.155Z</time></trkpt><trkpt lat="44.5852367" lon="7.9506"><ele>361.0</ele><time>2026-05-01T12:40:56.151Z</time></trkpt><trkpt lat="44.585315" lon="7.9508517"><ele>361.0</ele><time>2026-05-01T12:40:57.159Z</time></trkpt><trkpt lat="44.58539" lon="7.9511033"><ele>361.0</ele><time>2026-05-01T12:40:58.148Z</time></trkpt><trkpt lat="44.58544" lon="7.9513433"><ele>371.66666666666663</ele><time>2026-05-01T12:40:59.155Z</time></trkpt><trkpt lat="44.5854567" lon="7.9515767"><ele>382.3333333333333</ele><time>2026-05-01T12:41:00.152Z</time></trkpt><trkpt lat="44.5854417" lon="7.9518117"><ele>393.0</ele><time>2026-05-01T12:41:01.154Z</time></trkpt><trkpt lat="44.5854033" lon="7.9520633"><ele>393.66666666666663</ele><time>2026-05-01T12:41:02.158Z</time></trkpt><trkpt lat="44.5853467" lon="7.95232"><ele>394.3333333333333</ele><time>2026-05-01T12:41:03.152Z</time></trkpt><trkpt lat="44.585285" lon="7.9525667"><ele>395.0</ele><time>2026-05-01T12:41:04.152Z</time></trkpt><trkpt lat="44.58522" lon="7.952795"><ele>395.0</ele><time>2026-05-01T12:41:05.153Z</time></trkpt><trkpt lat="44.585155" lon="7.9530133"><ele>395.0</ele><time>2026-05-01T12:41:06.15Z</time></trkpt><trkpt lat="44.5850683" lon="7.95319"><ele>395.0</ele><time>2026-05-01T12:41:07.154Z</time></trkpt><trkpt lat="44.58496" lon="7.95333"><ele>398.3333333333333</ele><time>2026-05-01T12:41:08.154Z</time></trkpt><trkpt lat="44.5848267" lon="7.953445"><ele>401.66666666666663</ele><time>2026-05-01T12:41:09.156Z</time></trkpt><trkpt lat="44.5846667" lon="7.9535317"><ele>405.0</ele><time>2026-05-01T12:41:10.153Z</time></trkpt><trkpt lat="44.584495" lon="7.9536267"><ele>405.0</ele><time>2026-05-01T12:41:11.156Z</time></trkpt><trkpt lat="44.5843183" lon="7.9537417"><ele>405.0</ele><time>2026-05-01T12:41:12.152Z</time></trkpt><trkpt lat="44.5841367" lon="7.953875"><ele>405.0</ele><time>2026-05-01T12:41:13.155Z</time></trkpt><trkpt lat="44.5839633" lon="7.9540317"><ele>405.0</ele><time>2026-05-01T12:41:14.153Z</time></trkpt><trkpt lat="44.5837867" lon="7.954175"><ele>405.0</ele><time>2026-05-01T12:41:15.153Z</time></trkpt><trkpt lat="44.5836067" lon="7.9543017"><ele>405.0</ele><time>2026-05-01T12:41:16.154Z</time></trkpt><trkpt lat="44.58343" lon="7.9544083"><ele>408.0</ele><time>2026-05-01T12:41:17.153Z</time></trkpt><trkpt lat="44.5832583" lon="7.9544883"><ele>411.0</ele><time>2026-05-01T12:41:18.157Z</time></trkpt><trkpt lat="44.5831" lon="7.9545483"><ele>414.0</ele><time>2026-05-01T12:41:19.152Z</time></trkpt><trkpt lat="44.58296" lon="7.9545967"><ele>413.4</ele><time>2026-05-01T12:41:20.155Z</time></trkpt><trkpt lat="44.582845" lon="7.954655"><ele>412.79999999999995</ele><time>2026-05-01T12:41:21.151Z</time></trkpt><trkpt lat="44.5827633" lon="7.9547483"><ele>412.20000000000005</ele><time>2026-05-01T12:41:22.151Z</time></trkpt><trkpt lat="44.5827133" lon="7.954865"><ele>411.6</ele><time>2026-05-01T12:41:23.154Z</time></trkpt><trkpt lat="44.5826917" lon="7.9550067"><ele>411.0</ele><time>2026-05-01T12:41:24.15Z</time></trkpt><trkpt lat="44.582705" lon="7.955175"><ele>411.0</ele><time>2026-05-01T12:41:25.157Z</time></trkpt><trkpt lat="44.5827233" lon="7.955355"><ele>411.0</ele><time>2026-05-01T12:41:26.158Z</time></trkpt><trkpt lat="44.582745" lon="7.9555383"><ele>411.0</ele><time>2026-05-01T12:41:27.153Z</time></trkpt><trkpt lat="44.5827683" lon="7.9557183"><ele>411.0</ele><time>2026-05-01T12:41:28.159Z</time></trkpt><trkpt lat="44.5827883" lon="7.9558817"><ele>410.4</ele><time>2026-05-01T12:41:29.154Z</time></trkpt><trkpt lat="44.5828067" lon="7.956025"><ele>409.8</ele><time>2026-05-01T12:41:30.154Z</time></trkpt><trkpt lat="44.5828233" lon="7.9561533"><ele>409.2</ele><time>2026-05-01T12:41:31.155Z</time></trkpt><trkpt lat="44.5828367" lon="7.95627"><ele>408.59999999999997</ele><time>2026-05-01T12:41:32.153Z</time></trkpt><trkpt lat="44.5828517" lon="7.95639"><ele>408.0</ele><time>2026-05-01T12:41:33.151Z</time></trkpt><trkpt lat="44.5828667" lon="7.9565083"><ele>409.6666666666667</ele><time>2026-05-01T12:41:34.151Z</time></trkpt><trkpt lat="44.5828867" lon="7.956625"><ele>411.33333333333337</ele><time>2026-05-01T12:41:35.156Z</time></trkpt><trkpt lat="44.5829033" lon="7.9567433"><ele>413.0</ele><time>2026-05-01T12:41:36.152Z</time></trkpt><trkpt lat="44.5829283" lon="7.95686"><ele>414.6666666666667</ele><time>2026-05-01T12:41:37.155Z</time></trkpt><trkpt lat="44.5829617" lon="7.95697"><ele>416.33333333333337</ele><time>2026-05-01T12:41:38.151Z</time></trkpt><trkpt lat="44.5830067" lon="7.9570717"><ele>418.0</ele><time>2026-05-01T12:41:39.154Z</time></trkpt><trkpt lat="44.5830667" lon="7.95716"><ele>418.0</ele><time>2026-05-01T12:41:40.155Z</time></trkpt><trkpt lat="44.583135" lon="7.9572383"><ele>418.0</ele><time>2026-05-01T12:41:41.153Z</time></trkpt><trkpt lat="44.5832183" lon="7.9573017"><ele>418.0</ele><time>2026-05-01T12:41:42.152Z</time></trkpt><trkpt lat="44.58331" lon="7.9573433"><ele>418.0</ele><time>2026-05-01T12:41:43.158Z</time></trkpt><trkpt lat="44.5834017" lon="7.95738"><ele>418.0</ele><time>2026-05-01T12:41:44.151Z</time></trkpt><trkpt lat="44.5834967" lon="7.9574033"><ele>418.0</ele><time>2026-05-01T12:41:45.15Z</time></trkpt><trkpt lat="44.5835983" lon="7.95741"><ele>418.0</ele><time>2026-05-01T12:41:46.155Z</time></trkpt><trkpt lat="44.5837017" lon="7.9574033"><ele>418.0</ele><time>2026-05-01T12:41:47.153Z</time></trkpt><trkpt lat="44.5838033" lon="7.9573817"><ele>418.0</ele><time>2026-05-01T12:41:48.155Z</time></trkpt><trkpt lat="44.5839" lon="7.9573567"><ele>418.0</ele><time>2026-05-01T12:41:49.154Z</time></trkpt><trkpt lat="44.583995" lon="7.9573367"><ele>420.0</ele><time>2026-05-01T12:41:50.155Z</time></trkpt><trkpt lat="44.58409" lon="7.9573367"><ele>422.0</ele><time>2026-05-01T12:41:51.153Z</time></trkpt><trkpt lat="44.5841833" lon="7.9573483"><ele>423.99999999999994</ele><time>2026-05-01T12:41:52.155Z</time></trkpt><trkpt lat="44.5842783" lon="7.9573683"><ele>426.0</ele><time>2026-05-01T12:41:53.152Z</time></trkpt><trkpt lat="44.58437" lon="7.9573967"><ele>428.0</ele><time>2026-05-01T12:41:54.153Z</time></trkpt><trkpt lat="44.5844617" lon="7.9574417"><ele>428.2</ele><time>2026-05-01T12:41:55.154Z</time></trkpt><trkpt lat="44.5845483" lon="7.9575083"><ele>428.4</ele><time>2026-05-01T12:41:56.151Z</time></trkpt><trkpt lat="44.5846333" lon="7.9575817"><ele>428.59999999999997</ele><time>2026-05-01T12:41:57.154Z</time></trkpt><trkpt lat="44.5847167" lon="7.9576633"><ele>428.79999999999995</ele><time>2026-05-01T12:41:58.158Z</time></trkpt><trkpt lat="44.58479" lon="7.95775"><ele>429.0</ele><time>2026-05-01T12:41:59.157Z</time></trkpt><trkpt lat="44.5848567" lon="7.9578367"><ele>429.0</ele><time>2026-05-01T12:42:00.154Z</time></trkpt><trkpt lat="44.58492" lon="7.957925"><ele>429.0</ele><time>2026-05-01T12:42:01.157Z</time></trkpt><trkpt lat="44.584975" lon="7.95801"><ele>429.0</ele><time>2026-05-01T12:42:02.153Z</time></trkpt><trkpt lat="44.5850233" lon="7.9581067"><ele>429.0</ele><time>2026-05-01T12:42:03.154Z</time></trkpt><trkpt lat="44.5850683" lon="7.9582233"><ele>429.0</ele><time>2026-05-01T12:42:04.16Z</time></trkpt><trkpt lat="44.585105" lon="7.9583567"><ele>429.79999999999995</ele><time>2026-05-01T12:42:05.154Z</time></trkpt><trkpt lat="44.58513" lon="7.9584983"><ele>430.59999999999997</ele><time>2026-05-01T12:42:06.156Z</time></trkpt><trkpt lat="44.5851367" lon="7.9586533"><ele>431.4</ele><time>2026-05-01T12:42:07.155Z</time></trkpt><trkpt lat="44.5851333" lon="7.95881"><ele>432.2</ele><time>2026-05-01T12:42:08.156Z</time></trkpt><trkpt lat="44.5851133" lon="7.95896"><ele>433.0</ele><time>2026-05-01T12:42:09.151Z</time></trkpt><trkpt lat="44.5850867" lon="7.9591033"><ele>433.59999999999997</ele><time>2026-05-01T12:42:10.152Z</time></trkpt><trkpt lat="44.5850617" lon="7.9592417"><ele>434.19999999999993</ele><time>2026-05-01T12:42:11.154Z</time></trkpt><trkpt lat="44.5850317" lon="7.9593683"><ele>434.8</ele><time>2026-05-01T12:42:12.153Z</time></trkpt><trkpt lat="44.5850033" lon="7.9594933"><ele>435.4</ele><time>2026-05-01T12:42:13.157Z</time></trkpt><trkpt lat="44.58498" lon="7.95962"><ele>436.0</ele><time>2026-05-01T12:42:14.155Z</time></trkpt><trkpt lat="44.584955" lon="7.9597467"><ele>436.00000000000006</ele><time>2026-05-01T12:42:15.149Z</time></trkpt><trkpt lat="44.5849367" lon="7.9598683"><ele>436.0</ele><time>2026-05-01T12:42:16.157Z</time></trkpt><trkpt lat="44.5849317" lon="7.9599917"><ele>436.0</ele><time>2026-05-01T12:42:17.153Z</time></trkpt><trkpt lat="44.58494" lon="7.9601133"><ele>436.0</ele><time>2026-05-01T12:42:18.155Z</time></trkpt><trkpt lat="44.5849617" lon="7.9602317"><ele>436.00000000000006</ele><time>2026-05-01T12:42:19.155Z</time></trkpt><trkpt lat="44.5849917" lon="7.96035"><ele>436.0</ele><time>2026-05-01T12:42:20.156Z</time></trkpt><trkpt lat="44.58503" lon="7.9604633"><ele>435.00000000000006</ele><time>2026-05-01T12:42:21.152Z</time></trkpt><trkpt lat="44.58507" lon="7.9605767"><ele>434.0</ele><time>2026-05-01T12:42:22.152Z</time></trkpt><trkpt lat="44.5851117" lon="7.9606867"><ele>433.0</ele><time>2026-05-01T12:42:23.156Z</time></trkpt><trkpt lat="44.5851567" lon="7.960795"><ele>432.0</ele><time>2026-05-01T12:42:24.151Z</time></trkpt><trkpt lat="44.5852033" lon="7.9609017"><ele>431.00000000000006</ele><time>2026-05-01T12:42:25.156Z</time></trkpt><trkpt lat="44.585255" lon="7.9610083"><ele>430.0</ele><time>2026-05-01T12:42:26.152Z</time></trkpt><trkpt lat="44.58531" lon="7.9611117"><ele>431.6</ele><time>2026-05-01T12:42:27.154Z</time></trkpt><trkpt lat="44.5853683" lon="7.961215"><ele>433.2</ele><time>2026-05-01T12:42:28.152Z</time></trkpt><trkpt lat="44.5854317" lon="7.9613167"><ele>434.79999999999995</ele><time>2026-05-01T12:42:29.15Z</time></trkpt><trkpt lat="44.585495" lon="7.9614133"><ele>436.4</ele><time>2026-05-01T12:42:30.154Z</time></trkpt><trkpt lat="44.5855583" lon="7.961505"><ele>438.0</ele><time>2026-05-01T12:42:31.154Z</time></trkpt><trkpt lat="44.5856233" lon="7.9615917"><ele>438.0</ele><time>2026-05-01T12:42:32.154Z</time></trkpt><trkpt lat="44.5856867" lon="7.96167"><ele>438.0</ele><time>2026-05-01T12:42:33.154Z</time></trkpt><trkpt lat="44.5857517" lon="7.9617483"><ele>438.0</ele><time>2026-05-01T12:42:34.153Z</time></trkpt><trkpt lat="44.5858183" lon="7.96182"><ele>438.0</ele><time>2026-05-01T12:42:35.152Z</time></trkpt><trkpt lat="44.5858817" lon="7.9618933"><ele>438.0</ele><time>2026-05-01T12:42:36.154Z</time></trkpt><trkpt lat="44.5859433" lon="7.9619717"><ele>438.0</ele><time>2026-05-01T12:42:37.152Z</time></trkpt><trkpt lat="44.586" lon="7.9620567"><ele>437.1666666666667</ele><time>2026-05-01T12:42:38.153Z</time></trkpt><trkpt lat="44.58605" lon="7.962155"><ele>436.33333333333337</ele><time>2026-05-01T12:42:39.154Z</time></trkpt><trkpt lat="44.5860917" lon="7.9622583"><ele>435.5</ele><time>2026-05-01T12:42:40.155Z</time></trkpt><trkpt lat="44.5861233" lon="7.9623733"><ele>434.6666666666667</ele><time>2026-05-01T12:42:41.156Z</time></trkpt><trkpt lat="44.586145" lon="7.96249"><ele>433.83333333333337</ele><time>2026-05-01T12:42:42.15Z</time></trkpt><trkpt lat="44.5861517" lon="7.962615"><ele>433.0</ele><time>2026-05-01T12:42:43.154Z</time></trkpt><trkpt lat="44.5861517" lon="7.9627417"><ele>433.00000000000006</ele><time>2026-05-01T12:42:44.152Z</time></trkpt><trkpt lat="44.5861467" lon="7.9628633"><ele>433.0</ele><time>2026-05-01T12:42:45.154Z</time></trkpt><trkpt lat="44.5861517" lon="7.96298"><ele>433.0</ele><time>2026-05-01T12:42:46.157Z</time></trkpt><trkpt lat="44.586135" lon="7.9631"><ele>433.0</ele><time>2026-05-01T12:42:47.157Z</time></trkpt><trkpt lat="44.5861133" lon="7.9632233"><ele>433.00000000000006</ele><time>2026-05-01T12:42:48.153Z</time></trkpt><trkpt lat="44.5860783" lon="7.9633417"><ele>433.0</ele><time>2026-05-01T12:42:49.156Z</time></trkpt><trkpt lat="44.586035" lon="7.963455"><ele>434.50000000000006</ele><time>2026-05-01T12:42:50.154Z</time></trkpt><trkpt lat="44.5859883" lon="7.963565"><ele>436.0</ele><time>2026-05-01T12:42:51.156Z</time></trkpt><trkpt lat="44.5859433" lon="7.963675"><ele>437.5</ele><time>2026-05-01T12:42:52.152Z</time></trkpt><trkpt lat="44.5858983" lon="7.96378"><ele>439.0</ele><time>2026-05-01T12:42:53.151Z</time></trkpt><trkpt lat="44.58586" lon="7.9638817"><ele>440.50000000000006</ele><time>2026-05-01T12:42:54.156Z</time></trkpt><trkpt lat="44.585825" lon="7.9639817"><ele>442.0</ele><time>2026-05-01T12:42:55.153Z</time></trkpt><trkpt lat="44.58579" lon="7.9640767"><ele>442.00000000000006</ele><time>2026-05-01T12:42:56.156Z</time></trkpt><trkpt lat="44.5857617" lon="7.9641683"><ele>442.0</ele><time>2026-05-01T12:42:57.154Z</time></trkpt><trkpt lat="44.5857367" lon="7.96425"><ele>442.0</ele><time>2026-05-01T12:42:58.151Z</time></trkpt><trkpt lat="44.5856817" lon="7.9644067"><ele>442.0</ele><time>2026-05-01T12:43:00.156Z</time></trkpt><trkpt lat="44.585655" lon="7.9644933"><ele>442.00000000000006</ele><time>2026-05-01T12:43:01.157Z</time></trkpt><trkpt lat="44.5856267" lon="7.9645817"><ele>442.0</ele><time>2026-05-01T12:43:02.154Z</time></trkpt><trkpt lat="44.585595" lon="7.9646733"><ele>444.33333333333337</ele><time>2026-05-01T12:43:03.159Z</time></trkpt><trkpt lat="44.5855633" lon="7.9647767"><ele>446.6666666666667</ele><time>2026-05-01T12:43:04.153Z</time></trkpt><trkpt lat="44.5855317" lon="7.9648867"><ele>449.0</ele><time>2026-05-01T12:43:05.153Z</time></trkpt><trkpt lat="44.5854983" lon="7.9649933"><ele>451.33333333333337</ele><time>2026-05-01T12:43:06.155Z</time></trkpt><trkpt lat="44.585465" lon="7.9650933"><ele>453.6666666666667</ele><time>2026-05-01T12:43:07.153Z</time></trkpt><trkpt lat="44.5854283" lon="7.9651933"><ele>456.0</ele><time>2026-05-01T12:43:08.154Z</time></trkpt><trkpt lat="44.5853933" lon="7.96529"><ele>456.8333333333333</ele><time>2026-05-01T12:43:09.151Z</time></trkpt><trkpt lat="44.5853483" lon="7.9653867"><ele>457.66666666666663</ele><time>2026-05-01T12:43:10.153Z</time></trkpt><trkpt lat="44.5852967" lon="7.9654767"><ele>458.5</ele><time>2026-05-01T12:43:11.152Z</time></trkpt><trkpt lat="44.5852383" lon="7.965565"><ele>459.3333333333333</ele><time>2026-05-01T12:43:12.155Z</time></trkpt><trkpt lat="44.5851783" lon="7.965645"><ele>460.16666666666663</ele><time>2026-05-01T12:43:13.153Z</time></trkpt><trkpt lat="44.5851033" lon="7.9657133"><ele>461.0</ele><time>2026-05-01T12:43:14.15Z</time></trkpt><trkpt lat="44.5850267" lon="7.965775"><ele>460.99999999999994</ele><time>2026-05-01T12:43:15.151Z</time></trkpt><trkpt lat="44.58495" lon="7.9658283"><ele>461.0</ele><time>2026-05-01T12:43:16.154Z</time></trkpt><trkpt lat="44.58487" lon="7.9658717"><ele>461.0</ele><time>2026-05-01T12:43:17.15Z</time></trkpt><trkpt lat="44.5847867" lon="7.965905"><ele>461.0</ele><time>2026-05-01T12:43:18.151Z</time></trkpt><trkpt lat="44.5847083" lon="7.9659483"><ele>460.99999999999994</ele><time>2026-05-01T12:43:19.152Z</time></trkpt><trkpt lat="44.584635" lon="7.9659867"><ele>461.0</ele><time>2026-05-01T12:43:20.154Z</time></trkpt><trkpt lat="44.5845667" lon="7.9660383"><ele>462.0</ele><time>2026-05-01T12:43:21.159Z</time></trkpt><trkpt lat="44.5845017" lon="7.966095"><ele>463.00000000000006</ele><time>2026-05-01T12:43:22.152Z</time></trkpt><trkpt lat="44.5844483" lon="7.9661633"><ele>464.0</ele><time>2026-05-01T12:43:23.155Z</time></trkpt><trkpt lat="44.584395" lon="7.9662333"><ele>465.0</ele><time>2026-05-01T12:43:24.155Z</time></trkpt><trkpt lat="44.5843383" lon="7.9662967"><ele>466.00000000000006</ele><time>2026-05-01T12:43:25.156Z</time></trkpt><trkpt lat="44.5842783" lon="7.9663583"><ele>467.0</ele><time>2026-05-01T12:43:26.155Z</time></trkpt><trkpt lat="44.5842183" lon="7.9664183"><ele>468.0</ele><time>2026-05-01T12:43:27.155Z</time></trkpt><trkpt lat="44.5841667" lon="7.966485"><ele>468.0</ele><time>2026-05-01T12:43:28.158Z</time></trkpt><trkpt lat="44.5841133" lon="7.96655"><ele>468.0</ele><time>2026-05-01T12:43:29.154Z</time></trkpt><trkpt lat="44.58406" lon="7.96661"><ele>468.0</ele><time>2026-05-01T12:43:30.153Z</time></trkpt><trkpt lat="44.5840067" lon="7.9666717"><ele>468.0</ele><time>2026-05-01T12:43:31.158Z</time></trkpt><trkpt lat="44.583955" lon="7.9667317"><ele>468.0</ele><time>2026-05-01T12:43:32.153Z</time></trkpt><trkpt lat="44.5838767" lon="7.9668217"><ele>468.0</ele><time>2026-05-01T12:43:34.156Z</time></trkpt><trkpt lat="44.58381" lon="7.966885"><ele>469.0</ele><time>2026-05-01T12:43:36.157Z</time></trkpt><trkpt lat="44.58375" lon="7.966935"><ele>470.0</ele><time>2026-05-01T12:43:38.154Z</time></trkpt><trkpt lat="44.5837" lon="7.9669967"><ele>471.0</ele><time>2026-05-01T12:43:40.152Z</time></trkpt><trkpt lat="44.5836467" lon="7.9670633"><ele>472.0</ele><time>2026-05-01T12:43:42.155Z</time></trkpt><trkpt lat="44.58358" lon="7.96714"><ele>473.0</ele><time>2026-05-01T12:43:44.154Z</time></trkpt><trkpt lat="44.5835033" lon="7.96722"><ele>474.0</ele><time>2026-05-01T12:43:46.159Z</time></trkpt><trkpt lat="44.5834233" lon="7.967315"><ele>474.0</ele><time>2026-05-01T12:43:48.153Z</time></trkpt><trkpt lat="44.5833483" lon="7.96743"><ele>474.0</ele><time>2026-05-01T12:43:50.155Z</time></trkpt><trkpt lat="44.5832783" lon="7.9675233"><ele>474.0</ele><time>2026-05-01T12:43:52.156Z</time></trkpt><trkpt lat="44.5831917" lon="7.96762"><ele>474.0</ele><time>2026-05-01T12:44:05.153Z</time></trkpt><trkpt lat="44.5831117" lon="7.9676783"><ele>474.0</ele><time>2026-05-01T12:44:08.156Z</time></trkpt><trkpt lat="44.5830517" lon="7.967735"><ele>473.5714285714285</ele><time>2026-05-01T12:44:10.153Z</time></trkpt><trkpt lat="44.5829983" lon="7.9677917"><ele>473.1428571428571</ele><time>2026-05-01T12:44:12.156Z</time></trkpt><trkpt lat="44.5829483" lon="7.9678567"><ele>472.7142857142857</ele><time>2026-05-01T12:44:15.152Z</time></trkpt><trkpt lat="44.58288" lon="7.9679067"><ele>472.2857142857143</ele><time>2026-05-01T12:44:18.155Z</time></trkpt><trkpt lat="44.582815" lon="7.967925"><ele>471.8571428571429</ele><time>2026-05-01T12:44:20.156Z</time></trkpt><trkpt lat="44.582735" lon="7.9679817"><ele>471.4285714285715</ele><time>2026-05-01T12:44:23.155Z</time></trkpt><trkpt lat="44.5826633" lon="7.9679917"><ele>471.00000000000006</ele><time>2026-05-01T12:44:25.156Z</time></trkpt><trkpt lat="44.5825933" lon="7.9680217"><ele>471.0</ele><time>2026-05-01T12:44:27.157Z</time></trkpt><trkpt lat="44.5825217" lon="7.96805"><ele>471.0</ele><time>2026-05-01T12:44:29.155Z</time></trkpt><trkpt lat="44.582455" lon="7.968095"><ele>471.0</ele><time>2026-05-01T12:44:31.153Z</time></trkpt><trkpt lat="44.5824283" lon="7.968245"><ele>471.0</ele><time>2026-05-01T12:44:39.151Z</time></trkpt><trkpt lat="44.582335" lon="7.9682017"><ele>471.0</ele><time>2026-05-01T12:44:41.154Z</time></trkpt><trkpt lat="44.5822767" lon="7.968165"><ele>471.0</ele><time>2026-05-01T12:44:42.154Z</time></trkpt><trkpt lat="44.5821833" lon="7.9682"><ele>471.0</ele><time>2026-05-01T12:44:45.154Z</time></trkpt><trkpt lat="44.5821017" lon="7.9681767"><ele>471.0</ele><time>2026-05-01T12:44:46.153Z</time></trkpt><trkpt lat="44.58203" lon="7.9681967"><ele>471.0</ele><time>2026-05-01T12:44:47.157Z</time></trkpt><trkpt lat="44.58196" lon="7.9682283"><ele>471.0</ele><time>2026-05-01T12:44:48.153Z</time></trkpt><trkpt lat="44.581885" lon="7.9682683"><ele>471.0</ele><time>2026-05-01T12:44:49.152Z</time></trkpt><trkpt lat="44.5818067" lon="7.9682983"><ele>471.0</ele><time>2026-05-01T12:44:50.153Z</time></trkpt><trkpt lat="44.58173" lon="7.968335"><ele>470.1666666666667</ele><time>2026-05-01T12:44:51.155Z</time></trkpt><trkpt lat="44.5816467" lon="7.9683633"><ele>469.33333333333337</ele><time>2026-05-01T12:44:52.152Z</time></trkpt><trkpt lat="44.58157" lon="7.968395"><ele>468.5</ele><time>2026-05-01T12:44:53.156Z</time></trkpt><trkpt lat="44.5814883" lon="7.9684183"><ele>467.6666666666667</ele><time>2026-05-01T12:44:54.155Z</time></trkpt><trkpt lat="44.5814033" lon="7.9684517"><ele>466.83333333333337</ele><time>2026-05-01T12:44:55.155Z</time></trkpt><trkpt lat="44.58132" lon="7.9684667"><ele>466.0</ele><time>2026-05-01T12:44:56.152Z</time></trkpt><trkpt lat="44.581235" lon="7.9685083"><ele>464.8</ele><time>2026-05-01T12:44:57.153Z</time></trkpt><trkpt lat="44.581145" lon="7.9685483"><ele>463.6</ele><time>2026-05-01T12:44:58.158Z</time></trkpt><trkpt lat="44.5810483" lon="7.968585"><ele>462.4</ele><time>2026-05-01T12:44:59.155Z</time></trkpt><trkpt lat="44.580945" lon="7.96863"><ele>461.2</ele><time>2026-05-01T12:45:00.156Z</time></trkpt><trkpt lat="44.58084" lon="7.9686683"><ele>460.0</ele><time>2026-05-01T12:45:01.156Z</time></trkpt><trkpt lat="44.5807333" lon="7.9687117"><ele>460.0</ele><time>2026-05-01T12:45:02.151Z</time></trkpt><trkpt lat="44.58062" lon="7.96875"><ele>460.0</ele><time>2026-05-01T12:45:03.152Z</time></trkpt><trkpt lat="44.58051" lon="7.96877"><ele>460.0</ele><time>2026-05-01T12:45:04.157Z</time></trkpt><trkpt lat="44.580395" lon="7.9687767"><ele>460.0</ele><time>2026-05-01T12:45:05.156Z</time></trkpt><trkpt lat="44.5802767" lon="7.9687617"><ele>458.75</ele><time>2026-05-01T12:45:06.154Z</time></trkpt><trkpt lat="44.5801567" lon="7.9687417"><ele>457.5</ele><time>2026-05-01T12:45:07.157Z</time></trkpt><trkpt lat="44.5800317" lon="7.9687217"><ele>456.25</ele><time>2026-05-01T12:45:08.151Z</time></trkpt><trkpt lat="44.5799083" lon="7.9687"><ele>455.0</ele><time>2026-05-01T12:45:09.153Z</time></trkpt><trkpt lat="44.579785" lon="7.9686733"><ele>455.0</ele><time>2026-05-01T12:45:10.16Z</time></trkpt><trkpt lat="44.5796583" lon="7.9686417"><ele>455.0</ele><time>2026-05-01T12:45:11.153Z</time></trkpt><trkpt lat="44.5795333" lon="7.9686167"><ele>455.0</ele><time>2026-05-01T12:45:12.153Z</time></trkpt><trkpt lat="44.5794083" lon="7.9685883"><ele>455.0</ele><time>2026-05-01T12:45:13.152Z</time></trkpt><trkpt lat="44.5792833" lon="7.968575"><ele>453.25</ele><time>2026-05-01T12:45:14.155Z</time></trkpt><trkpt lat="44.5791517" lon="7.9685983"><ele>451.5</ele><time>2026-05-01T12:45:15.152Z</time></trkpt><trkpt lat="44.5790217" lon="7.96866"><ele>449.75</ele><time>2026-05-01T12:45:16.154Z</time></trkpt><trkpt lat="44.578905" lon="7.9687383"><ele>448.0</ele><time>2026-05-01T12:45:17.152Z</time></trkpt><trkpt lat="44.578795" lon="7.9688433"><ele>448.0</ele><time>2026-05-01T12:45:18.154Z</time></trkpt><trkpt lat="44.5786983" lon="7.9689717"><ele>448.0</ele><time>2026-05-01T12:45:19.154Z</time></trkpt><trkpt lat="44.578615" lon="7.9691217"><ele>448.0</ele><time>2026-05-01T12:45:20.153Z</time></trkpt><trkpt lat="44.5785367" lon="7.969275"><ele>448.0</ele><time>2026-05-01T12:45:21.159Z</time></trkpt><trkpt lat="44.5784583" lon="7.9694333"><ele>447.0</ele><time>2026-05-01T12:45:22.153Z</time></trkpt><trkpt lat="44.57838" lon="7.9696"><ele>446.0</ele><time>2026-05-01T12:45:23.157Z</time></trkpt><trkpt lat="44.5782867" lon="7.9697633"><ele>445.0</ele><time>2026-05-01T12:45:24.154Z</time></trkpt><trkpt lat="44.5782" lon="7.9699283"><ele>444.0</ele><time>2026-05-01T12:45:25.15Z</time></trkpt><trkpt lat="44.5781167" lon="7.9700733"><ele>441.4</ele><time>2026-05-01T12:45:26.152Z</time></trkpt><trkpt lat="44.578035" lon="7.9701917"><ele>438.79999999999995</ele><time>2026-05-01T12:45:27.153Z</time></trkpt><trkpt lat="44.577945" lon="7.97027"><ele>436.20000000000005</ele><time>2026-05-01T12:45:28.153Z</time></trkpt><trkpt lat="44.5778417" lon="7.9703017"><ele>433.6</ele><time>2026-05-01T12:45:29.155Z</time></trkpt><trkpt lat="44.5777367" lon="7.9702917"><ele>431.0</ele><time>2026-05-01T12:45:30.15Z</time></trkpt><trkpt lat="44.57763" lon="7.9702583"><ele>431.0</ele><time>2026-05-01T12:45:31.152Z</time></trkpt><trkpt lat="44.5775117" lon="7.9701917"><ele>431.0</ele><time>2026-05-01T12:45:32.15Z</time></trkpt><trkpt lat="44.57738" lon="7.97012"><ele>431.0</ele><time>2026-05-01T12:45:33.157Z</time></trkpt><trkpt lat="44.5772367" lon="7.97007"><ele>431.0</ele><time>2026-05-01T12:45:34.152Z</time></trkpt><trkpt lat="44.5770883" lon="7.97004"><ele>429.0</ele><time>2026-05-01T12:45:35.15Z</time></trkpt><trkpt lat="44.5769367" lon="7.9700417"><ele>427.0</ele><time>2026-05-01T12:45:36.151Z</time></trkpt><trkpt lat="44.576785" lon="7.9700733"><ele>425.0</ele><time>2026-05-01T12:45:37.154Z</time></trkpt><trkpt lat="44.5766417" lon="7.9701233"><ele>425.0</ele><time>2026-05-01T12:45:38.155Z</time></trkpt><trkpt lat="44.5765117" lon="7.9701983"><ele>425.0</ele><time>2026-05-01T12:45:39.158Z</time></trkpt><trkpt lat="44.57639" lon="7.9702933"><ele>425.0</ele><time>2026-05-01T12:45:40.154Z</time></trkpt><trkpt lat="44.57627" lon="7.9703917"><ele>425.0</ele><time>2026-05-01T12:45:41.157Z</time></trkpt><trkpt lat="44.5761467" lon="7.97048"><ele>424.66666666666663</ele><time>2026-05-01T12:45:42.161Z</time></trkpt><trkpt lat="44.5759917" lon="7.9705333"><ele>424.33333333333337</ele><time>2026-05-01T12:45:43.156Z</time></trkpt><trkpt lat="44.5758367" lon="7.970545"><ele>424.0</ele><time>2026-05-01T12:45:44.154Z</time></trkpt><trkpt lat="44.5756833" lon="7.9705183"><ele>424.0</ele><time>2026-05-01T12:45:45.153Z</time></trkpt><trkpt lat="44.5755367" lon="7.97045"><ele>424.0</ele><time>2026-05-01T12:45:46.154Z</time></trkpt><trkpt lat="44.57539" lon="7.9703817"><ele>424.0</ele><time>2026-05-01T12:45:47.149Z</time></trkpt><trkpt lat="44.5752417" lon="7.9703117"><ele>421.33333333333337</ele><time>2026-05-01T12:45:48.152Z</time></trkpt><trkpt lat="44.575095" lon="7.9702383"><ele>418.66666666666663</ele><time>2026-05-01T12:45:49.158Z</time></trkpt><trkpt lat="44.5749417" lon="7.9701783"><ele>416.0</ele><time>2026-05-01T12:45:50.153Z</time></trkpt><trkpt lat="44.5747967" lon="7.9701217"><ele>416.0</ele><time>2026-05-01T12:45:51.153Z</time></trkpt><trkpt lat="44.574645" lon="7.9700667"><ele>416.0</ele><time>2026-05-01T12:45:52.154Z</time></trkpt><trkpt lat="44.5744917" lon="7.9700217"><ele>416.0</ele><time>2026-05-01T12:45:53.156Z</time></trkpt><trkpt lat="44.5743417" lon="7.9699767"><ele>418.66666666666663</ele><time>2026-05-01T12:45:54.156Z</time></trkpt><trkpt lat="44.57419" lon="7.96993"><ele>421.33333333333337</ele><time>2026-05-01T12:45:55.153Z</time></trkpt><trkpt lat="44.5740383" lon="7.96988"><ele>424.0</ele><time>2026-05-01T12:45:56.155Z</time></trkpt><trkpt lat="44.573885" lon="7.9698217"><ele>424.0</ele><time>2026-05-01T12:45:57.154Z</time></trkpt><trkpt lat="44.5737333" lon="7.9697633"><ele>424.0</ele><time>2026-05-01T12:45:58.154Z</time></trkpt><trkpt lat="44.5735917" lon="7.9696983"><ele>424.0</ele><time>2026-05-01T12:45:59.153Z</time></trkpt><trkpt lat="44.5734633" lon="7.9696133"><ele>424.0</ele><time>2026-05-01T12:46:00.155Z</time></trkpt><trkpt lat="44.5733483" lon="7.9695017"><ele>424.25</ele><time>2026-05-01T12:46:01.153Z</time></trkpt><trkpt lat="44.573245" lon="7.96936"><ele>424.5</ele><time>2026-05-01T12:46:02.15Z</time></trkpt><trkpt lat="44.5731483" lon="7.9692017"><ele>424.75</ele><time>2026-05-01T12:46:03.158Z</time></trkpt><trkpt lat="44.573055" lon="7.9690367"><ele>425.0</ele><time>2026-05-01T12:46:04.154Z</time></trkpt><trkpt lat="44.5729483" lon="7.9688933"><ele>421.66666666666663</ele><time>2026-05-01T12:46:05.155Z</time></trkpt><trkpt lat="44.5728267" lon="7.9687783"><ele>418.33333333333337</ele><time>2026-05-01T12:46:06.152Z</time></trkpt><trkpt lat="44.5726883" lon="7.9686783"><ele>415.0</ele><time>2026-05-01T12:46:07.153Z</time></trkpt><trkpt lat="44.5725433" lon="7.9685867"><ele>415.0</ele><time>2026-05-01T12:46:08.152Z</time></trkpt><trkpt lat="44.5723933" lon="7.9684967"><ele>415.0</ele><time>2026-05-01T12:46:09.153Z</time></trkpt><trkpt lat="44.5722383" lon="7.968405"><ele>415.0</ele><time>2026-05-01T12:46:10.155Z</time></trkpt><trkpt lat="44.57208" lon="7.96831"><ele>416.0</ele><time>2026-05-01T12:46:11.151Z</time></trkpt><trkpt lat="44.571925" lon="7.96821"><ele>417.0</ele><time>2026-05-01T12:46:12.151Z</time></trkpt><trkpt lat="44.57178" lon="7.968115"><ele>418.0</ele><time>2026-05-01T12:46:13.156Z</time></trkpt><trkpt lat="44.57165" lon="7.9680367"><ele>418.0</ele><time>2026-05-01T12:46:14.151Z</time></trkpt><trkpt lat="44.5715233" lon="7.9679867"><ele>418.0</ele><time>2026-05-01T12:46:15.153Z</time></trkpt><trkpt lat="44.5714" lon="7.9679833"><ele>418.0</ele><time>2026-05-01T12:46:16.151Z</time></trkpt><trkpt lat="44.5712767" lon="7.968025"><ele>418.0</ele><time>2026-05-01T12:46:17.151Z</time></trkpt><trkpt lat="44.5711483" lon="7.96809"><ele>418.0</ele><time>2026-05-01T12:46:18.152Z</time></trkpt><trkpt lat="44.57101" lon="7.96815"><ele>418.0</ele><time>2026-05-01T12:46:19.152Z</time></trkpt><trkpt lat="44.570865" lon="7.9681917"><ele>418.0</ele><time>2026-05-01T12:46:20.153Z</time></trkpt><trkpt lat="44.5707117" lon="7.9682083"><ele>418.0</ele><time>2026-05-01T12:46:21.152Z</time></trkpt><trkpt lat="44.5705633" lon="7.968195"><ele>418.0</ele><time>2026-05-01T12:46:22.154Z</time></trkpt><trkpt lat="44.5704133" lon="7.96818"><ele>418.0</ele><time>2026-05-01T12:46:23.153Z</time></trkpt><trkpt lat="44.5702567" lon="7.9681783"><ele>418.0</ele><time>2026-05-01T12:46:24.154Z</time></trkpt><trkpt lat="44.5700967" lon="7.9682017"><ele>415.0</ele><time>2026-05-01T12:46:25.153Z</time></trkpt><trkpt lat="44.5699317" lon="7.9682217"><ele>412.0</ele><time>2026-05-01T12:46:26.155Z</time></trkpt><trkpt lat="44.56977" lon="7.9682217"><ele>409.0</ele><time>2026-05-01T12:46:27.153Z</time></trkpt><trkpt lat="44.569605" lon="7.9681917"><ele>409.0</ele><time>2026-05-01T12:46:28.158Z</time></trkpt><trkpt lat="44.5694417" lon="7.9681467"><ele>409.0</ele><time>2026-05-01T12:46:29.154Z</time></trkpt><trkpt lat="44.5692783" lon="7.9681"><ele>409.0</ele><time>2026-05-01T12:46:30.156Z</time></trkpt><trkpt lat="44.569115" lon="7.96805"><ele>409.0</ele><time>2026-05-01T12:46:31.153Z</time></trkpt><trkpt lat="44.56895" lon="7.967995"><ele>409.0</ele><time>2026-05-01T12:46:32.152Z</time></trkpt><trkpt lat="44.568785" lon="7.96794"><ele>409.0</ele><time>2026-05-01T12:46:33.152Z</time></trkpt><trkpt lat="44.56863" lon="7.9678917"><ele>411.6666666666667</ele><time>2026-05-01T12:46:34.156Z</time></trkpt><trkpt lat="44.5684783" lon="7.9678417"><ele>414.33333333333337</ele><time>2026-05-01T12:46:35.152Z</time></trkpt><trkpt lat="44.5683317" lon="7.9677967"><ele>417.0</ele><time>2026-05-01T12:46:36.156Z</time></trkpt><trkpt lat="44.5681883" lon="7.9677717"><ele>417.0</ele><time>2026-05-01T12:46:37.169Z</time></trkpt><trkpt lat="44.56805" lon="7.9677717"><ele>417.0</ele><time>2026-05-01T12:46:38.157Z</time></trkpt><trkpt lat="44.5679133" lon="7.9677967"><ele>417.0</ele><time>2026-05-01T12:46:39.154Z</time></trkpt><trkpt lat="44.5677767" lon="7.9678467"><ele>417.0</ele><time>2026-05-01T12:46:40.154Z</time></trkpt><trkpt lat="44.56765" lon="7.9679233"><ele>415.75</ele><time>2026-05-01T12:46:41.152Z</time></trkpt><trkpt lat="44.567525" lon="7.9680083"><ele>414.5</ele><time>2026-05-01T12:46:42.16Z</time></trkpt><trkpt lat="44.5674033" lon="7.9680967"><ele>413.25</ele><time>2026-05-01T12:46:43.155Z</time></trkpt><trkpt lat="44.56728" lon="7.9681717"><ele>412.0</ele><time>2026-05-01T12:46:44.153Z</time></trkpt><trkpt lat="44.567155" lon="7.9682433"><ele>410.5</ele><time>2026-05-01T12:46:45.151Z</time></trkpt><trkpt lat="44.5670267" lon="7.9683133"><ele>409.0</ele><time>2026-05-01T12:46:46.154Z</time></trkpt><trkpt lat="44.5668967" lon="7.9683733"><ele>407.5</ele><time>2026-05-01T12:46:47.151Z</time></trkpt><trkpt lat="44.566765" lon="7.9684267"><ele>406.0</ele><time>2026-05-01T12:46:48.156Z</time></trkpt><trkpt lat="44.566635" lon="7.9684767"><ele>409.75</ele><time>2026-05-01T12:46:49.149Z</time></trkpt><trkpt lat="44.566505" lon="7.96851"><ele>413.5</ele><time>2026-05-01T12:46:50.153Z</time></trkpt><trkpt lat="44.566375" lon="7.9685267"><ele>417.25</ele><time>2026-05-01T12:46:51.156Z</time></trkpt><trkpt lat="44.5662467" lon="7.968505"><ele>421.0</ele><time>2026-05-01T12:46:52.159Z</time></trkpt><trkpt lat="44.56612" lon="7.9684567"><ele>422.0</ele><time>2026-05-01T12:46:53.153Z</time></trkpt><trkpt lat="44.5659967" lon="7.9683983"><ele>423.0</ele><time>2026-05-01T12:46:54.154Z</time></trkpt><trkpt lat="44.565875" lon="7.9683317"><ele>424.0</ele><time>2026-05-01T12:46:55.155Z</time></trkpt><trkpt lat="44.5657533" lon="7.9682617"><ele>425.0</ele><time>2026-05-01T12:46:56.152Z</time></trkpt><trkpt lat="44.5656317" lon="7.96819"><ele>425.0</ele><time>2026-05-01T12:46:57.154Z</time></trkpt><trkpt lat="44.5655117" lon="7.9681117"><ele>425.0</ele><time>2026-05-01T12:46:58.155Z</time></trkpt><trkpt lat="44.5653967" lon="7.96802"><ele>425.0</ele><time>2026-05-01T12:46:59.153Z</time></trkpt><trkpt lat="44.5652933" lon="7.967915"><ele>425.0</ele><time>2026-05-01T12:47:00.155Z</time></trkpt><trkpt lat="44.5652017" lon="7.9677917"><ele>425.0</ele><time>2026-05-01T12:47:01.156Z</time></trkpt><trkpt lat="44.5651333" lon="7.9676517"><ele>425.0</ele><time>2026-05-01T12:47:02.15Z</time></trkpt><trkpt lat="44.5650867" lon="7.9674933"><ele>425.0</ele><time>2026-05-01T12:47:03.151Z</time></trkpt><trkpt lat="44.5650667" lon="7.9673117"><ele>425.0</ele><time>2026-05-01T12:47:04.151Z</time></trkpt><trkpt lat="44.56506" lon="7.967125"><ele>422.25</ele><time>2026-05-01T12:47:05.16Z</time></trkpt><trkpt lat="44.565055" lon="7.96693"><ele>419.5</ele><time>2026-05-01T12:47:06.156Z</time></trkpt><trkpt lat="44.5650533" lon="7.9667267"><ele>416.75</ele><time>2026-05-01T12:47:07.158Z</time></trkpt><trkpt lat="44.5650517" lon="7.9665133"><ele>414.0</ele><time>2026-05-01T12:47:08.153Z</time></trkpt><trkpt lat="44.56505" lon="7.9663083"><ele>413.25</ele><time>2026-05-01T12:47:09.152Z</time></trkpt><trkpt lat="44.5650383" lon="7.96613"><ele>412.5</ele><time>2026-05-01T12:47:10.153Z</time></trkpt><trkpt lat="44.5650167" lon="7.9659767"><ele>411.75</ele><time>2026-05-01T12:47:11.156Z</time></trkpt><trkpt lat="44.5649717" lon="7.9658317"><ele>411.0</ele><time>2026-05-01T12:47:12.151Z</time></trkpt><trkpt lat="44.5649033" lon="7.965705"><ele>410.25</ele><time>2026-05-01T12:47:13.156Z</time></trkpt><trkpt lat="44.564805" lon="7.96559"><ele>409.5</ele><time>2026-05-01T12:47:14.151Z</time></trkpt><trkpt lat="44.5647067" lon="7.9654733"><ele>408.75</ele><time>2026-05-01T12:47:15.155Z</time></trkpt><trkpt lat="44.56461" lon="7.9653483"><ele>408.0</ele><time>2026-05-01T12:47:16.154Z</time></trkpt><trkpt lat="44.56452" lon="7.96522"><ele>409.0</ele><time>2026-05-01T12:47:17.156Z</time></trkpt><trkpt lat="44.564445" lon="7.9650933"><ele>410.0</ele><time>2026-05-01T12:47:18.156Z</time></trkpt><trkpt lat="44.564375" lon="7.964975"><ele>411.0</ele><time>2026-05-01T12:47:19.153Z</time></trkpt><trkpt lat="44.5643117" lon="7.96486"><ele>412.0</ele><time>2026-05-01T12:47:20.155Z</time></trkpt><trkpt lat="44.5642217" lon="7.9647517"><ele>413.0</ele><time>2026-05-01T12:47:21.154Z</time></trkpt><trkpt lat="44.5641133" lon="7.96467"><ele>413.0</ele><time>2026-05-01T12:47:22.152Z</time></trkpt><trkpt lat="44.5639933" lon="7.9646183"><ele>413.0</ele><time>2026-05-01T12:47:23.152Z</time></trkpt><trkpt lat="44.563865" lon="7.9646033"><ele>413.0</ele><time>2026-05-01T12:47:24.156Z</time></trkpt><trkpt lat="44.563735" lon="7.9646367"><ele>413.0</ele><time>2026-05-01T12:47:25.159Z</time></trkpt><trkpt lat="44.5636067" lon="7.9647183"><ele>412.0</ele><time>2026-05-01T12:47:26.153Z</time></trkpt><trkpt lat="44.56348" lon="7.96485"><ele>411.0</ele><time>2026-05-01T12:47:27.153Z</time></trkpt><trkpt lat="44.5633517" lon="7.965015"><ele>410.0</ele><time>2026-05-01T12:47:28.157Z</time></trkpt><trkpt lat="44.5632083" lon="7.9652017"><ele>409.3333333333333</ele><time>2026-05-01T12:47:29.158Z</time></trkpt><trkpt lat="44.5630533" lon="7.9654"><ele>408.66666666666663</ele><time>2026-05-01T12:47:30.154Z</time></trkpt><trkpt lat="44.562895" lon="7.965615"><ele>408.0</ele><time>2026-05-01T12:47:31.154Z</time></trkpt><trkpt lat="44.5627367" lon="7.9658317"><ele>403.5</ele><time>2026-05-01T12:47:32.154Z</time></trkpt><trkpt lat="44.5625733" lon="7.96605"><ele>399.0</ele><time>2026-05-01T12:47:33.15Z</time></trkpt><trkpt lat="44.5624067" lon="7.9662717"><ele>399.0</ele><time>2026-05-01T12:47:34.156Z</time></trkpt><trkpt lat="44.56224" lon="7.9664933"><ele>399.0</ele><time>2026-05-01T12:47:35.159Z</time></trkpt><trkpt lat="44.5620717" lon="7.96672"><ele>397.0</ele><time>2026-05-01T12:47:36.155Z</time></trkpt><trkpt lat="44.5619" lon="7.96694"><ele>395.0</ele><time>2026-05-01T12:47:37.152Z</time></trkpt><trkpt lat="44.56173" lon="7.9671617"><ele>395.0</ele><time>2026-05-01T12:47:38.154Z</time></trkpt><trkpt lat="44.5615583" lon="7.96738"><ele>395.0</ele><time>2026-05-01T12:47:39.153Z</time></trkpt><trkpt lat="44.56139" lon="7.9675967"><ele>393.0</ele><time>2026-05-01T12:47:40.157Z</time></trkpt><trkpt lat="44.561225" lon="7.967815"><ele>391.0</ele><time>2026-05-01T12:47:41.151Z</time></trkpt><trkpt lat="44.5610683" lon="7.9680283"><ele>389.0</ele><time>2026-05-01T12:47:42.154Z</time></trkpt><trkpt lat="44.5609183" lon="7.9682467"><ele>390.0</ele><time>2026-05-01T12:47:43.154Z</time></trkpt><trkpt lat="44.5607783" lon="7.96847"><ele>391.0</ele><time>2026-05-01T12:47:44.153Z</time></trkpt><trkpt lat="44.5606383" lon="7.9686967"><ele>392.0</ele><time>2026-05-01T12:47:45.157Z</time></trkpt><trkpt lat="44.5604967" lon="7.9689217"><ele>388.0</ele><time>2026-05-01T12:47:46.154Z</time></trkpt><trkpt lat="44.56036" lon="7.9691517"><ele>384.0</ele><time>2026-05-01T12:47:47.154Z</time></trkpt><trkpt lat="44.5602233" lon="7.9693833"><ele>380.0</ele><time>2026-05-01T12:47:48.161Z</time></trkpt><trkpt lat="44.5600833" lon="7.9696117"><ele>379.33333333333337</ele><time>2026-05-01T12:47:49.167Z</time></trkpt><trkpt lat="44.559945" lon="7.9698267"><ele>378.6666666666667</ele><time>2026-05-01T12:47:50.155Z</time></trkpt><trkpt lat="44.5598133" lon="7.9700333"><ele>378.0</ele><time>2026-05-01T12:47:51.15Z</time></trkpt><trkpt lat="44.559685" lon="7.9702117"><ele>377.5</ele><time>2026-05-01T12:47:52.158Z</time></trkpt><trkpt lat="44.559565" lon="7.9703667"><ele>377.0</ele><time>2026-05-01T12:47:53.154Z</time></trkpt><trkpt lat="44.5594483" lon="7.97049"><ele>376.5</ele><time>2026-05-01T12:47:54.154Z</time></trkpt><trkpt lat="44.5593317" lon="7.9705867"><ele>376.0</ele><time>2026-05-01T12:47:55.156Z</time></trkpt><trkpt lat="44.55922" lon="7.9706517"><ele>374.0</ele><time>2026-05-01T12:47:56.152Z</time></trkpt><trkpt lat="44.5591067" lon="7.97068"><ele>372.0</ele><time>2026-05-01T12:47:57.155Z</time></trkpt><trkpt lat="44.5589933" lon="7.9706683"><ele>370.0</ele><time>2026-05-01T12:47:58.16Z</time></trkpt><trkpt lat="44.55888" lon="7.9706033"><ele>368.0</ele><time>2026-05-01T12:47:59.155Z</time></trkpt><trkpt lat="44.55876" lon="7.97051"><ele>367.6666666666667</ele><time>2026-05-01T12:48:00.156Z</time></trkpt><trkpt lat="44.5586283" lon="7.9703933"><ele>367.3333333333333</ele><time>2026-05-01T12:48:01.154Z</time></trkpt><trkpt lat="44.5584867" lon="7.9702717"><ele>367.0</ele><time>2026-05-01T12:48:02.152Z</time></trkpt><trkpt lat="44.5583417" lon="7.9701617"><ele>367.0</ele><time>2026-05-01T12:48:03.157Z</time></trkpt><trkpt lat="44.5582067" lon="7.9700433"><ele>367.0</ele><time>2026-05-01T12:48:04.153Z</time></trkpt><trkpt lat="44.5580717" lon="7.9699683"><ele>367.0</ele><time>2026-05-01T12:48:05.156Z</time></trkpt><trkpt lat="44.557935" lon="7.9699517"><ele>367.0</ele><time>2026-05-01T12:48:06.165Z</time></trkpt><trkpt lat="44.5577983" lon="7.9699717"><ele>366.66666666666663</ele><time>2026-05-01T12:48:07.157Z</time></trkpt><trkpt lat="44.5576583" lon="7.970015"><ele>366.3333333333333</ele><time>2026-05-01T12:48:08.155Z</time></trkpt><trkpt lat="44.557505" lon="7.9700483"><ele>366.0</ele><time>2026-05-01T12:48:09.156Z</time></trkpt><trkpt lat="44.5573417" lon="7.97007"><ele>366.0</ele><time>2026-05-01T12:48:10.155Z</time></trkpt><trkpt lat="44.55717" lon="7.97009"><ele>366.0</ele><time>2026-05-01T12:48:11.153Z</time></trkpt><trkpt lat="44.5569967" lon="7.970105"><ele>366.0</ele><time>2026-05-01T12:48:12.158Z</time></trkpt><trkpt lat="44.5568233" lon="7.9701267"><ele>365.6666666666667</ele><time>2026-05-01T12:48:13.154Z</time></trkpt><trkpt lat="44.5566483" lon="7.9701483"><ele>365.33333333333337</ele><time>2026-05-01T12:48:14.154Z</time></trkpt><trkpt lat="44.5564717" lon="7.9701717"><ele>365.0</ele><time>2026-05-01T12:48:15.153Z</time></trkpt><trkpt lat="44.5563117" lon="7.9701583"><ele>365.6666666666667</ele><time>2026-05-01T12:48:16.153Z</time></trkpt><trkpt lat="44.55616" lon="7.9701367"><ele>366.3333333333333</ele><time>2026-05-01T12:48:17.156Z</time></trkpt><trkpt lat="44.556015" lon="7.970095"><ele>367.0</ele><time>2026-05-01T12:48:18.158Z</time></trkpt><trkpt lat="44.5558667" lon="7.97003"><ele>364.66666666666663</ele><time>2026-05-01T12:48:19.157Z</time></trkpt><trkpt lat="44.5557117" lon="7.969905"><ele>362.3333333333333</ele><time>2026-05-01T12:48:20.154Z</time></trkpt><trkpt lat="44.5555467" lon="7.96978"><ele>360.0</ele><time>2026-05-01T12:48:21.158Z</time></trkpt><trkpt lat="44.55539" lon="7.9696467"><ele>361.6666666666667</ele><time>2026-05-01T12:48:22.156Z</time></trkpt><trkpt lat="44.5552317" lon="7.9695317"><ele>363.33333333333337</ele><time>2026-05-01T12:48:23.154Z</time></trkpt><trkpt lat="44.5550917" lon="7.969415"><ele>365.0</ele><time>2026-05-01T12:48:24.153Z</time></trkpt><trkpt lat="44.5549733" lon="7.9692733"><ele>363.75</ele><time>2026-05-01T12:48:25.162Z</time></trkpt><trkpt lat="44.554875" lon="7.9691267"><ele>362.5</ele><time>2026-05-01T12:48:26.157Z</time></trkpt><trkpt lat="44.55478" lon="7.968975"><ele>361.25</ele><time>2026-05-01T12:48:27.156Z</time></trkpt><trkpt lat="44.55467" lon="7.96886"><ele>360.0</ele><time>2026-05-01T12:48:28.157Z</time></trkpt><trkpt lat="44.55455" lon="7.968785"><ele>359.5</ele><time>2026-05-01T12:48:29.153Z</time></trkpt><trkpt lat="44.5544183" lon="7.96875"><ele>359.0</ele><time>2026-05-01T12:48:30.154Z</time></trkpt><trkpt lat="44.5542817" lon="7.9687533"><ele>358.5</ele><time>2026-05-01T12:48:31.155Z</time></trkpt><trkpt lat="44.554135" lon="7.9687517"><ele>358.0</ele><time>2026-05-01T12:48:32.152Z</time></trkpt><trkpt lat="44.5539967" lon="7.9687133"><ele>358.0</ele><time>2026-05-01T12:48:33.152Z</time></trkpt><trkpt lat="44.553865" lon="7.968635"><ele>358.0</ele><time>2026-05-01T12:48:34.156Z</time></trkpt><trkpt lat="44.5537317" lon="7.9685183"><ele>358.0</ele><time>2026-05-01T12:48:35.158Z</time></trkpt><trkpt lat="44.5535867" lon="7.9684167"><ele>358.66666666666663</ele><time>2026-05-01T12:48:36.156Z</time></trkpt><trkpt lat="44.553425" lon="7.9683433"><ele>359.3333333333333</ele><time>2026-05-01T12:48:37.155Z</time></trkpt><trkpt lat="44.55326" lon="7.9682833"><ele>360.0</ele><time>2026-05-01T12:48:38.153Z</time></trkpt><trkpt lat="44.553115" lon="7.968195"><ele>360.0</ele><time>2026-05-01T12:48:39.154Z</time></trkpt><trkpt lat="44.552985" lon="7.968065"><ele>360.0</ele><time>2026-05-01T12:48:40.152Z</time></trkpt><trkpt lat="44.5528483" lon="7.9679183"><ele>360.0</ele><time>2026-05-01T12:48:41.164Z</time></trkpt><trkpt lat="44.552705" lon="7.9677567"><ele>359.6666666666667</ele><time>2026-05-01T12:48:42.152Z</time></trkpt><trkpt lat="44.55255" lon="7.9675917"><ele>359.33333333333337</ele><time>2026-05-01T12:48:43.156Z</time></trkpt><trkpt lat="44.5523967" lon="7.9674217"><ele>359.0</ele><time>2026-05-01T12:48:44.153Z</time></trkpt><trkpt lat="44.5522333" lon="7.9672883"><ele>359.0</ele><time>2026-05-01T12:48:45.158Z</time></trkpt><trkpt lat="44.5520833" lon="7.96714"><ele>359.0</ele><time>2026-05-01T12:48:46.157Z</time></trkpt><trkpt lat="44.5519467" lon="7.9669867"><ele>359.0</ele><time>2026-05-01T12:48:47.152Z</time></trkpt><trkpt lat="44.5518267" lon="7.966835"><ele>356.25</ele><time>2026-05-01T12:48:48.156Z</time></trkpt><trkpt lat="44.5517317" lon="7.9666783"><ele>353.5</ele><time>2026-05-01T12:48:49.153Z</time></trkpt><trkpt lat="44.5516667" lon="7.9665133"><ele>350.75</ele><time>2026-05-01T12:48:50.155Z</time></trkpt><trkpt lat="44.55162" lon="7.96632"><ele>348.0</ele><time>2026-05-01T12:48:51.153Z</time></trkpt><trkpt lat="44.55158" lon="7.96612"><ele>348.0</ele><time>2026-05-01T12:48:52.157Z</time></trkpt><trkpt lat="44.5515417" lon="7.9659233"><ele>348.0</ele><time>2026-05-01T12:48:53.153Z</time></trkpt><trkpt lat="44.5514817" lon="7.9657533"><ele>348.0</ele><time>2026-05-01T12:48:54.155Z</time></trkpt><trkpt lat="44.5513983" lon="7.9656217"><ele>348.0</ele><time>2026-05-01T12:48:55.159Z</time></trkpt><trkpt lat="44.5512883" lon="7.96553"><ele>347.25</ele><time>2026-05-01T12:48:56.154Z</time></trkpt><trkpt lat="44.5511633" lon="7.965465"><ele>346.5</ele><time>2026-05-01T12:48:57.156Z</time></trkpt><trkpt lat="44.5510367" lon="7.9653883"><ele>345.75</ele><time>2026-05-01T12:48:58.153Z</time></trkpt><trkpt lat="44.5509183" lon="7.965265"><ele>345.0</ele><time>2026-05-01T12:48:59.152Z</time></trkpt><trkpt lat="44.5508067" lon="7.9651167"><ele>344.75</ele><time>2026-05-01T12:49:00.156Z</time></trkpt><trkpt lat="44.5506967" lon="7.964975"><ele>344.5</ele><time>2026-05-01T12:49:01.159Z</time></trkpt><trkpt lat="44.5505883" lon="7.9648567"><ele>344.25</ele><time>2026-05-01T12:49:02.16Z</time></trkpt><trkpt lat="44.5504667" lon="7.9647683"><ele>344.0</ele><time>2026-05-01T12:49:03.154Z</time></trkpt><trkpt lat="44.5503217" lon="7.96471"><ele>343.33333333333337</ele><time>2026-05-01T12:49:04.156Z</time></trkpt><trkpt lat="44.5501533" lon="7.96466"><ele>342.6666666666667</ele><time>2026-05-01T12:49:05.15Z</time></trkpt><trkpt lat="44.549965" lon="7.9646167"><ele>342.0</ele><time>2026-05-01T12:49:06.152Z</time></trkpt><trkpt lat="44.54976" lon="7.9645717"><ele>343.0</ele><time>2026-05-01T12:49:07.154Z</time></trkpt><trkpt lat="44.5495383" lon="7.9645283"><ele>344.0</ele><time>2026-05-01T12:49:08.153Z</time></trkpt><trkpt lat="44.549315" lon="7.964485"><ele>345.0</ele><time>2026-05-01T12:49:09.153Z</time></trkpt><trkpt lat="44.5490883" lon="7.964435"><ele>345.0</ele><time>2026-05-01T12:49:10.154Z</time></trkpt><trkpt lat="44.5488517" lon="7.9643917"><ele>345.0</ele><time>2026-05-01T12:49:11.152Z</time></trkpt><trkpt lat="44.5486117" lon="7.9643533"><ele>343.0</ele><time>2026-05-01T12:49:12.153Z</time></trkpt><trkpt lat="44.54837" lon="7.9643133"><ele>341.0</ele><time>2026-05-01T12:49:13.153Z</time></trkpt><trkpt lat="44.5481267" lon="7.96427"><ele>341.0</ele><time>2026-05-01T12:49:14.154Z</time></trkpt><trkpt lat="44.5478833" lon="7.9642117"><ele>341.0</ele><time>2026-05-01T12:49:15.15Z</time></trkpt><trkpt lat="44.54764" lon="7.9641683"><ele>342.0</ele><time>2026-05-01T12:49:16.156Z</time></trkpt><trkpt lat="44.54741" lon="7.9641267"><ele>343.0</ele><time>2026-05-01T12:49:17.152Z</time></trkpt><trkpt lat="44.5471867" lon="7.96408"><ele>341.0</ele><time>2026-05-01T12:49:18.154Z</time></trkpt><trkpt lat="44.5469683" lon="7.9640367"><ele>339.0</ele><time>2026-05-01T12:49:19.154Z</time></trkpt><trkpt lat="44.5467617" lon="7.963985"><ele>337.0</ele><time>2026-05-01T12:49:20.152Z</time></trkpt><trkpt lat="44.5465617" lon="7.9639317"><ele>337.0</ele><time>2026-05-01T12:49:21.153Z</time></trkpt><trkpt lat="44.5463617" lon="7.9638833"><ele>337.0</ele><time>2026-05-01T12:49:22.154Z</time></trkpt><trkpt lat="44.5461733" lon="7.9638483"><ele>337.0</ele><time>2026-05-01T12:49:23.154Z</time></trkpt><trkpt lat="44.546" lon="7.9638383"><ele>337.3333333333333</ele><time>2026-05-01T12:49:24.159Z</time></trkpt><trkpt lat="44.545845" lon="7.9638567"><ele>337.6666666666667</ele><time>2026-05-01T12:49:25.154Z</time></trkpt><trkpt lat="44.5456967" lon="7.963915"><ele>338.0</ele><time>2026-05-01T12:49:26.161Z</time></trkpt><trkpt lat="44.54555" lon="7.9639967"><ele>338.0</ele><time>2026-05-01T12:49:27.154Z</time></trkpt><trkpt lat="44.545395" lon="7.9641167"><ele>338.0</ele><time>2026-05-01T12:49:28.192Z</time></trkpt><trkpt lat="44.54524" lon="7.9642433"><ele>338.0</ele><time>2026-05-01T12:49:29.155Z</time></trkpt><trkpt lat="44.5450817" lon="7.9643667"><ele>338.0</ele><time>2026-05-01T12:49:30.15Z</time></trkpt><trkpt lat="44.5449233" lon="7.9644967"><ele>338.0</ele><time>2026-05-01T12:49:31.157Z</time></trkpt><trkpt lat="44.5447583" lon="7.964625"><ele>338.0</ele><time>2026-05-01T12:49:32.154Z</time></trkpt><trkpt lat="44.544585" lon="7.9647517"><ele>336.0</ele><time>2026-05-01T12:49:33.155Z</time></trkpt><trkpt lat="44.5444167" lon="7.964895"><ele>334.0</ele><time>2026-05-01T12:49:34.155Z</time></trkpt><trkpt lat="44.5442417" lon="7.9650283"><ele>332.0</ele><time>2026-05-01T12:49:35.154Z</time></trkpt><trkpt lat="44.5440717" lon="7.965155"><ele>334.33333333333337</ele><time>2026-05-01T12:49:36.154Z</time></trkpt><trkpt lat="44.5439167" lon="7.9652717"><ele>336.6666666666667</ele><time>2026-05-01T12:49:37.156Z</time></trkpt><trkpt lat="44.5437633" lon="7.9653583"><ele>339.0</ele><time>2026-05-01T12:49:38.158Z</time></trkpt><trkpt lat="44.543625" lon="7.9654067"><ele>339.0</ele><time>2026-05-01T12:49:39.154Z</time></trkpt><trkpt lat="44.5434867" lon="7.9654183"><ele>339.0</ele><time>2026-05-01T12:49:40.157Z</time></trkpt><trkpt lat="44.543345" lon="7.9653917"><ele>339.0</ele><time>2026-05-01T12:49:41.155Z</time></trkpt><trkpt lat="44.5432" lon="7.965345"><ele>339.0</ele><time>2026-05-01T12:49:42.154Z</time></trkpt><trkpt lat="44.5430283" lon="7.965285"><ele>342.3333333333333</ele><time>2026-05-01T12:49:43.155Z</time></trkpt><trkpt lat="44.5428483" lon="7.96522"><ele>345.66666666666663</ele><time>2026-05-01T12:49:44.155Z</time></trkpt><trkpt lat="44.54267" lon="7.9651617"><ele>349.0</ele><time>2026-05-01T12:49:45.155Z</time></trkpt><trkpt lat="44.5424967" lon="7.965105"><ele>349.0</ele><time>2026-05-01T12:49:46.154Z</time></trkpt><trkpt lat="44.5423367" lon="7.9650517"><ele>349.0</ele><time>2026-05-01T12:49:47.154Z</time></trkpt><trkpt lat="44.5422017" lon="7.964985"><ele>349.0</ele><time>2026-05-01T12:49:48.152Z</time></trkpt><trkpt lat="44.54209" lon="7.96489"><ele>349.0</ele><time>2026-05-01T12:49:49.154Z</time></trkpt><trkpt lat="44.5420017" lon="7.96476"><ele>347.75</ele><time>2026-05-01T12:49:50.156Z</time></trkpt><trkpt lat="44.5419233" lon="7.964595"><ele>346.5</ele><time>2026-05-01T12:49:51.153Z</time></trkpt><trkpt lat="44.5418667" lon="7.964405"><ele>345.25</ele><time>2026-05-01T12:49:52.151Z</time></trkpt><trkpt lat="44.5417917" lon="7.96422"><ele>344.0</ele><time>2026-05-01T12:49:53.153Z</time></trkpt><trkpt lat="44.541715" lon="7.9640417"><ele>340.0</ele><time>2026-05-01T12:49:54.157Z</time></trkpt><trkpt lat="44.5416567" lon="7.9638533"><ele>336.0</ele><time>2026-05-01T12:49:55.155Z</time></trkpt><trkpt lat="44.5415683" lon="7.9637183"><ele>332.0</ele><time>2026-05-01T12:49:56.153Z</time></trkpt><trkpt lat="44.5414617" lon="7.963615"><ele>328.0</ele><time>2026-05-01T12:49:57.153Z</time></trkpt><trkpt lat="44.54134" lon="7.9635483"><ele>328.66666666666663</ele><time>2026-05-01T12:49:58.153Z</time></trkpt><trkpt lat="44.5411967" lon="7.9635117"><ele>329.3333333333333</ele><time>2026-05-01T12:49:59.161Z</time></trkpt><trkpt lat="44.5410417" lon="7.96349"><ele>330.0</ele><time>2026-05-01T12:50:00.155Z</time></trkpt><trkpt lat="44.5408783" lon="7.9634717"><ele>330.0</ele><time>2026-05-01T12:50:01.159Z</time></trkpt><trkpt lat="44.54072" lon="7.96345"><ele>330.0</ele><time>2026-05-01T12:50:02.16Z</time></trkpt><trkpt lat="44.540585" lon="7.963405"><ele>330.0</ele><time>2026-05-01T12:50:03.152Z</time></trkpt><trkpt lat="44.540475" lon="7.963335"><ele>330.0</ele><time>2026-05-01T12:50:04.158Z</time></trkpt><trkpt lat="44.5403817" lon="7.963225"><ele>329.25</ele><time>2026-05-01T12:50:05.158Z</time></trkpt><trkpt lat="44.5402983" lon="7.963095"><ele>328.5</ele><time>2026-05-01T12:50:06.157Z</time></trkpt><trkpt lat="44.5402" lon="7.9629767"><ele>327.75</ele><time>2026-05-01T12:50:07.157Z</time></trkpt><trkpt lat="44.5400867" lon="7.96289"><ele>327.0</ele><time>2026-05-01T12:50:08.159Z</time></trkpt><trkpt lat="44.539955" lon="7.9628333"><ele>327.0</ele><time>2026-05-01T12:50:09.154Z</time></trkpt><trkpt lat="44.5398133" lon="7.9627917"><ele>327.0</ele><time>2026-05-01T12:50:10.153Z</time></trkpt><trkpt lat="44.5396583" lon="7.9627517"><ele>327.0</ele><time>2026-05-01T12:50:11.156Z</time></trkpt><trkpt lat="44.5395033" lon="7.9627067"><ele>329.6666666666667</ele><time>2026-05-01T12:50:12.154Z</time></trkpt><trkpt lat="44.539345" lon="7.9626483"><ele>332.33333333333337</ele><time>2026-05-01T12:50:13.154Z</time></trkpt><trkpt lat="44.5391933" lon="7.9625633"><ele>335.0</ele><time>2026-05-01T12:50:14.153Z</time></trkpt><trkpt lat="44.5390567" lon="7.962445"><ele>329.0</ele><time>2026-05-01T12:50:15.158Z</time></trkpt><trkpt lat="44.5389467" lon="7.9623033"><ele>323.0</ele><time>2026-05-01T12:50:16.152Z</time></trkpt><trkpt lat="44.5388433" lon="7.96213"><ele>317.0</ele><time>2026-05-01T12:50:17.156Z</time></trkpt><trkpt lat="44.538755" lon="7.9619267"><ele>318.0</ele><time>2026-05-01T12:50:18.153Z</time></trkpt><trkpt lat="44.538675" lon="7.96171"><ele>319.0</ele><time>2026-05-01T12:50:19.151Z</time></trkpt><trkpt lat="44.5385933" lon="7.9614917"><ele>320.0</ele><time>2026-05-01T12:50:20.157Z</time></trkpt><trkpt lat="44.5385067" lon="7.9612883"><ele>318.25</ele><time>2026-05-01T12:50:21.152Z</time></trkpt><trkpt lat="44.5384267" lon="7.96111"><ele>316.5</ele><time>2026-05-01T12:50:22.155Z</time></trkpt><trkpt lat="44.5383233" lon="7.960985"><ele>314.75</ele><time>2026-05-01T12:50:23.153Z</time></trkpt><trkpt lat="44.5382017" lon="7.9609067"><ele>313.0</ele><time>2026-05-01T12:50:24.154Z</time></trkpt><trkpt lat="44.5380683" lon="7.9608683"><ele>313.0</ele><time>2026-05-01T12:50:25.15Z</time></trkpt><trkpt lat="44.53793" lon="7.9608483"><ele>313.0</ele><time>2026-05-01T12:50:26.152Z</time></trkpt><trkpt lat="44.5377933" lon="7.9608433"><ele>313.0</ele><time>2026-05-01T12:50:27.151Z</time></trkpt><trkpt lat="44.5376633" lon="7.9608283"><ele>313.0</ele><time>2026-05-01T12:50:28.155Z</time></trkpt><trkpt lat="44.53755" lon="7.96077"><ele>313.0</ele><time>2026-05-01T12:50:29.154Z</time></trkpt><trkpt lat="44.5374467" lon="7.9606833"><ele>313.0</ele><time>2026-05-01T12:50:30.152Z</time></trkpt><trkpt lat="44.5373583" lon="7.9605533"><ele>313.0</ele><time>2026-05-01T12:50:31.153Z</time></trkpt><trkpt lat="44.5372717" lon="7.9604"><ele>313.0</ele><time>2026-05-01T12:50:32.153Z</time></trkpt><trkpt lat="44.5371767" lon="7.9602083"><ele>313.66666666666663</ele><time>2026-05-01T12:50:33.158Z</time></trkpt><trkpt lat="44.5370767" lon="7.959995"><ele>314.3333333333333</ele><time>2026-05-01T12:50:34.153Z</time></trkpt><trkpt lat="44.5369667" lon="7.9597667"><ele>315.0</ele><time>2026-05-01T12:50:35.153Z</time></trkpt><trkpt lat="44.5368533" lon="7.95953"><ele>315.0</ele><time>2026-05-01T12:50:36.152Z</time></trkpt><trkpt lat="44.5367333" lon="7.9592783"><ele>315.0</ele><time>2026-05-01T12:50:37.155Z</time></trkpt><trkpt lat="44.53661" lon="7.9590233"><ele>315.0</ele><time>2026-05-01T12:50:38.15Z</time></trkpt><trkpt lat="44.5364867" lon="7.9587683"><ele>316.0</ele><time>2026-05-01T12:50:39.152Z</time></trkpt><trkpt lat="44.5363567" lon="7.9585017"><ele>317.0</ele><time>2026-05-01T12:50:40.157Z</time></trkpt><trkpt lat="44.536225" lon="7.9582233"><ele>313.5</ele><time>2026-05-01T12:50:41.155Z</time></trkpt><trkpt lat="44.5360883" lon="7.9579433"><ele>310.0</ele><time>2026-05-01T12:50:42.151Z</time></trkpt><trkpt lat="44.5359567" lon="7.9576667"><ele>307.66666666666663</ele><time>2026-05-01T12:50:43.156Z</time></trkpt><trkpt lat="44.535835" lon="7.9574083"><ele>305.3333333333333</ele><time>2026-05-01T12:50:44.153Z</time></trkpt><trkpt lat="44.5357333" lon="7.9571767"><ele>303.0</ele><time>2026-05-01T12:50:45.154Z</time></trkpt><trkpt lat="44.5356467" lon="7.956975"><ele>303.0</ele><time>2026-05-01T12:50:46.153Z</time></trkpt><trkpt lat="44.53557" lon="7.956805"><ele>303.0</ele><time>2026-05-01T12:50:47.153Z</time></trkpt><trkpt lat="44.535495" lon="7.9566567"><ele>303.0</ele><time>2026-05-01T12:50:48.153Z</time></trkpt><trkpt lat="44.5354067" lon="7.9565333"><ele>303.0</ele><time>2026-05-01T12:50:49.156Z</time></trkpt><trkpt lat="44.535305" lon="7.956435"><ele>303.5</ele><time>2026-05-01T12:50:50.154Z</time></trkpt><trkpt lat="44.5351933" lon="7.95636"><ele>304.0</ele><time>2026-05-01T12:50:51.151Z</time></trkpt><trkpt lat="44.535075" lon="7.9563017"><ele>304.5</ele><time>2026-05-01T12:50:52.155Z</time></trkpt><trkpt lat="44.5349633" lon="7.9562267"><ele>305.0</ele><time>2026-05-01T12:50:53.155Z</time></trkpt><trkpt lat="44.5348667" lon="7.9561367"><ele>305.0</ele><time>2026-05-01T12:50:54.155Z</time></trkpt><trkpt lat="44.5347783" lon="7.956015"><ele>305.0</ele><time>2026-05-01T12:50:55.158Z</time></trkpt><trkpt lat="44.5346983" lon="7.9558717"><ele>305.0</ele><time>2026-05-01T12:50:56.154Z</time></trkpt><trkpt lat="44.5346133" lon="7.955715"><ele>305.0</ele><time>2026-05-01T12:50:57.152Z</time></trkpt><trkpt lat="44.5345233" lon="7.955555"><ele>303.0</ele><time>2026-05-01T12:50:58.153Z</time></trkpt><trkpt lat="44.5344383" lon="7.95538"><ele>301.0</ele><time>2026-05-01T12:50:59.155Z</time></trkpt><trkpt lat="44.5343567" lon="7.9551983"><ele>299.0</ele><time>2026-05-01T12:51:00.155Z</time></trkpt><trkpt lat="44.5342717" lon="7.9550217"><ele>299.0</ele><time>2026-05-01T12:51:01.155Z</time></trkpt><trkpt lat="44.5341833" lon="7.954845"><ele>299.0</ele><time>2026-05-01T12:51:02.154Z</time></trkpt><trkpt lat="44.5340983" lon="7.95467"><ele>299.0</ele><time>2026-05-01T12:51:03.154Z</time></trkpt><trkpt lat="44.534015" lon="7.95449"><ele>299.0</ele><time>2026-05-01T12:51:04.155Z</time></trkpt><trkpt lat="44.5339317" lon="7.954315"><ele>299.0</ele><time>2026-05-01T12:51:05.154Z</time></trkpt><trkpt lat="44.5338467" lon="7.95416"><ele>299.0</ele><time>2026-05-01T12:51:06.154Z</time></trkpt><trkpt lat="44.5337583" lon="7.9540417"><ele>299.0</ele><time>2026-05-01T12:51:07.154Z</time></trkpt><trkpt lat="44.5336733" lon="7.953955"><ele>298.8</ele><time>2026-05-01T12:51:08.157Z</time></trkpt><trkpt lat="44.5335833" lon="7.95392"><ele>298.59999999999997</ele><time>2026-05-01T12:51:09.157Z</time></trkpt><trkpt lat="44.5334917" lon="7.9539217"><ele>298.4</ele><time>2026-05-01T12:51:10.155Z</time></trkpt><trkpt lat="44.5333917" lon="7.9539483"><ele>298.2</ele><time>2026-05-01T12:51:11.157Z</time></trkpt><trkpt lat="44.5333" lon="7.953965"><ele>298.0</ele><time>2026-05-01T12:51:12.156Z</time></trkpt><trkpt lat="44.5331983" lon="7.9540167"><ele>298.0</ele><time>2026-05-01T12:51:13.16Z</time></trkpt><trkpt lat="44.5330917" lon="7.9540633"><ele>298.0</ele><time>2026-05-01T12:51:14.154Z</time></trkpt><trkpt lat="44.532995" lon="7.9541017"><ele>298.0</ele><time>2026-05-01T12:51:15.155Z</time></trkpt><trkpt lat="44.5329233" lon="7.9541317"><ele>298.0</ele><time>2026-05-01T12:51:16.156Z</time></trkpt><trkpt lat="44.5328583" lon="7.9541567"><ele>298.0</ele><time>2026-05-01T12:51:17.159Z</time></trkpt><trkpt lat="44.5328617" lon="7.9543017"><ele>298.4</ele><time>2026-05-01T12:51:29.16Z</time></trkpt><trkpt lat="44.5328983" lon="7.954495"><ele>298.8</ele><time>2026-05-01T12:51:31.154Z</time></trkpt><trkpt lat="44.5329217" lon="7.9546"><ele>299.2</ele><time>2026-05-01T12:51:32.152Z</time></trkpt><trkpt lat="44.532945" lon="7.9547067"><ele>299.6</ele><time>2026-05-01T12:51:33.152Z</time></trkpt><trkpt lat="44.532975" lon="7.9548283"><ele>300.0</ele><time>2026-05-01T12:51:34.153Z</time></trkpt><trkpt lat="44.5330067" lon="7.95498"><ele>300.5</ele><time>2026-05-01T12:51:35.152Z</time></trkpt><trkpt lat="44.533045" lon="7.9551533"><ele>301.0</ele><time>2026-05-01T12:51:36.154Z</time></trkpt><trkpt lat="44.5330867" lon="7.9553333"><ele>301.5</ele><time>2026-05-01T12:51:37.152Z</time></trkpt><trkpt lat="44.5331367" lon="7.9555133"><ele>302.0</ele><time>2026-05-01T12:51:38.164Z</time></trkpt><trkpt lat="44.53318" lon="7.955715"><ele>302.33333333333337</ele><time>2026-05-01T12:51:39.153Z</time></trkpt><trkpt lat="44.5332283" lon="7.95592"><ele>302.6666666666667</ele><time>2026-05-01T12:51:40.153Z</time></trkpt><trkpt lat="44.533275" lon="7.956125"><ele>303.0</ele><time>2026-05-01T12:51:41.154Z</time></trkpt><trkpt lat="44.5333117" lon="7.9563217"><ele>303.0</ele><time>2026-05-01T12:51:42.157Z</time></trkpt><trkpt lat="44.5333467" lon="7.956505"><ele>303.0</ele><time>2026-05-01T12:51:43.154Z</time></trkpt><trkpt lat="44.533375" lon="7.95667"><ele>303.0</ele><time>2026-05-01T12:51:44.153Z</time></trkpt><trkpt lat="44.5333983" lon="7.956815"><ele>303.0</ele><time>2026-05-01T12:51:45.154Z</time></trkpt><trkpt lat="44.5334267" lon="7.956935"><ele>302.6</ele><time>2026-05-01T12:51:46.158Z</time></trkpt><trkpt lat="44.5334517" lon="7.95704"><ele>302.20000000000005</ele><time>2026-05-01T12:51:47.152Z</time></trkpt><trkpt lat="44.533475" lon="7.957155"><ele>301.8</ele><time>2026-05-01T12:51:48.156Z</time></trkpt><trkpt lat="44.5335017" lon="7.9572767"><ele>301.40000000000003</ele><time>2026-05-01T12:51:49.154Z</time></trkpt><trkpt lat="44.5335183" lon="7.9574267"><ele>301.0</ele><time>2026-05-01T12:51:50.154Z</time></trkpt><trkpt lat="44.5335417" lon="7.9575867"><ele>300.25</ele><time>2026-05-01T12:51:51.153Z</time></trkpt><trkpt lat="44.5335567" lon="7.9577733"><ele>299.5</ele><time>2026-05-01T12:51:52.164Z</time></trkpt><trkpt lat="44.5335767" lon="7.9579717"><ele>298.75</ele><time>2026-05-01T12:51:53.156Z</time></trkpt><trkpt lat="44.5335917" lon="7.9581783"><ele>298.0</ele><time>2026-05-01T12:51:54.158Z</time></trkpt><trkpt lat="44.5336067" lon="7.958385"><ele>298.0</ele><time>2026-05-01T12:51:55.155Z</time></trkpt><trkpt lat="44.533615" lon="7.9585817"><ele>298.0</ele><time>2026-05-01T12:51:56.155Z</time></trkpt><trkpt lat="44.5336233" lon="7.9587867"><ele>298.0</ele><time>2026-05-01T12:51:57.153Z</time></trkpt><trkpt lat="44.5336317" lon="7.9589967"><ele>298.0</ele><time>2026-05-01T12:51:58.153Z</time></trkpt><trkpt lat="44.53364" lon="7.9592033"><ele>298.0</ele><time>2026-05-01T12:51:59.158Z</time></trkpt><trkpt lat="44.5336517" lon="7.959405"><ele>298.0</ele><time>2026-05-01T12:52:00.155Z</time></trkpt><trkpt lat="44.533655" lon="7.9596017"><ele>298.0</ele><time>2026-05-01T12:52:01.153Z</time></trkpt><trkpt lat="44.5336517" lon="7.959795"><ele>298.0</ele><time>2026-05-01T12:52:02.161Z</time></trkpt><trkpt lat="44.5336417" lon="7.9599867"><ele>299.0</ele><time>2026-05-01T12:52:03.162Z</time></trkpt><trkpt lat="44.53363" lon="7.9601783"><ele>300.0</ele><time>2026-05-01T12:52:04.15Z</time></trkpt><trkpt lat="44.5336183" lon="7.9603683"><ele>301.0</ele><time>2026-05-01T12:52:05.155Z</time></trkpt><trkpt lat="44.5336067" lon="7.9605567"><ele>302.0</ele><time>2026-05-01T12:52:06.154Z</time></trkpt><trkpt lat="44.533595" lon="7.9607417"><ele>302.5</ele><time>2026-05-01T12:52:07.157Z</time></trkpt><trkpt lat="44.53358" lon="7.9609267"><ele>303.0</ele><time>2026-05-01T12:52:08.155Z</time></trkpt><trkpt lat="44.5335683" lon="7.9611117"><ele>303.5</ele><time>2026-05-01T12:52:09.153Z</time></trkpt><trkpt lat="44.5335583" lon="7.9612983"><ele>304.0</ele><time>2026-05-01T12:52:10.153Z</time></trkpt><trkpt lat="44.533545" lon="7.961485"><ele>304.0</ele><time>2026-05-01T12:52:11.154Z</time></trkpt><trkpt lat="44.533535" lon="7.9616733"><ele>304.0</ele><time>2026-05-01T12:52:12.153Z</time></trkpt><trkpt lat="44.5335267" lon="7.96186"><ele>304.0</ele><time>2026-05-01T12:52:13.155Z</time></trkpt><trkpt lat="44.533515" lon="7.9620483"><ele>304.0</ele><time>2026-05-01T12:52:14.153Z</time></trkpt><trkpt lat="44.5334917" lon="7.96224"><ele>304.5</ele><time>2026-05-01T12:52:15.151Z</time></trkpt><trkpt lat="44.533465" lon="7.962435"><ele>305.0</ele><time>2026-05-01T12:52:16.15Z</time></trkpt><trkpt lat="44.5334283" lon="7.962635"><ele>305.5</ele><time>2026-05-01T12:52:17.158Z</time></trkpt><trkpt lat="44.53338" lon="7.9628317"><ele>306.0</ele><time>2026-05-01T12:52:18.151Z</time></trkpt><trkpt lat="44.5333267" lon="7.96303"><ele>306.6666666666667</ele><time>2026-05-01T12:52:19.154Z</time></trkpt><trkpt lat="44.5332667" lon="7.96323"><ele>307.33333333333337</ele><time>2026-05-01T12:52:20.152Z</time></trkpt><trkpt lat="44.5332083" lon="7.9634367"><ele>308.0</ele><time>2026-05-01T12:52:21.152Z</time></trkpt><trkpt lat="44.5331467" lon="7.9636433"><ele>308.6666666666667</ele><time>2026-05-01T12:52:22.154Z</time></trkpt><trkpt lat="44.5330867" lon="7.9638517"><ele>309.3333333333333</ele><time>2026-05-01T12:52:23.155Z</time></trkpt><trkpt lat="44.533025" lon="7.96406"><ele>310.0</ele><time>2026-05-01T12:52:24.156Z</time></trkpt><trkpt lat="44.5329633" lon="7.9642667"><ele>310.3333333333333</ele><time>2026-05-01T12:52:25.153Z</time></trkpt><trkpt lat="44.5328967" lon="7.964465"><ele>310.6666666666667</ele><time>2026-05-01T12:52:26.152Z</time></trkpt><trkpt lat="44.5328267" lon="7.96466"><ele>311.0</ele><time>2026-05-01T12:52:27.156Z</time></trkpt><trkpt lat="44.5327567" lon="7.9648483"><ele>309.33333333333337</ele><time>2026-05-01T12:52:28.152Z</time></trkpt><trkpt lat="44.532685" lon="7.9650383"><ele>307.6666666666667</ele><time>2026-05-01T12:52:29.156Z</time></trkpt><trkpt lat="44.5326133" lon="7.965225"><ele>306.0</ele><time>2026-05-01T12:52:30.153Z</time></trkpt><trkpt lat="44.5325433" lon="7.9654083"><ele>306.0</ele><time>2026-05-01T12:52:31.151Z</time></trkpt><trkpt lat="44.5324717" lon="7.96559"><ele>306.0</ele><time>2026-05-01T12:52:32.154Z</time></trkpt><trkpt lat="44.5323983" lon="7.9657717"><ele>306.0</ele><time>2026-05-01T12:52:33.152Z</time></trkpt><trkpt lat="44.5323217" lon="7.9659467"><ele>306.0</ele><time>2026-05-01T12:52:34.16Z</time></trkpt><trkpt lat="44.5322367" lon="7.9661083"><ele>306.0</ele><time>2026-05-01T12:52:35.153Z</time></trkpt><trkpt lat="44.5321483" lon="7.9662667"><ele>306.0</ele><time>2026-05-01T12:52:36.155Z</time></trkpt><trkpt lat="44.532055" lon="7.9664233"><ele>306.0</ele><time>2026-05-01T12:52:37.158Z</time></trkpt><trkpt lat="44.53196" lon="7.9665733"><ele>306.0</ele><time>2026-05-01T12:52:38.154Z</time></trkpt><trkpt lat="44.5318567" lon="7.9667167"><ele>308.0</ele><time>2026-05-01T12:52:39.161Z</time></trkpt><trkpt lat="44.5317533" lon="7.9668633"><ele>310.0</ele><time>2026-05-01T12:52:40.154Z</time></trkpt><trkpt lat="44.5316517" lon="7.9670167"><ele>312.0</ele><time>2026-05-01T12:52:41.155Z</time></trkpt><trkpt lat="44.5315567" lon="7.9671817"><ele>314.0</ele><time>2026-05-01T12:52:42.158Z</time></trkpt><trkpt lat="44.5314717" lon="7.967355"><ele>317.33333333333337</ele><time>2026-05-01T12:52:43.158Z</time></trkpt><trkpt lat="44.5313883" lon="7.9675333"><ele>320.6666666666667</ele><time>2026-05-01T12:52:44.154Z</time></trkpt><trkpt lat="44.5313067" lon="7.9677117"><ele>324.0</ele><time>2026-05-01T12:52:45.159Z</time></trkpt><trkpt lat="44.5312267" lon="7.96789"><ele>321.6666666666667</ele><time>2026-05-01T12:52:46.156Z</time></trkpt><trkpt lat="44.5311483" lon="7.9680717"><ele>319.33333333333337</ele><time>2026-05-01T12:52:47.154Z</time></trkpt><trkpt lat="44.53107" lon="7.968255"><ele>317.0</ele><time>2026-05-01T12:52:48.158Z</time></trkpt><trkpt lat="44.5309883" lon="7.9684383"><ele>317.0</ele><time>2026-05-01T12:52:49.152Z</time></trkpt><trkpt lat="44.53091" lon="7.96862"><ele>317.0</ele><time>2026-05-01T12:52:50.155Z</time></trkpt><trkpt lat="44.5308267" lon="7.9688033"><ele>317.0</ele><time>2026-05-01T12:52:51.154Z</time></trkpt><trkpt lat="44.5307467" lon="7.9689867"><ele>317.0</ele><time>2026-05-01T12:52:52.155Z</time></trkpt><trkpt lat="44.5306633" lon="7.969175"><ele>317.0</ele><time>2026-05-01T12:52:53.153Z</time></trkpt><trkpt lat="44.5305817" lon="7.969365"><ele>317.0</ele><time>2026-05-01T12:52:54.152Z</time></trkpt><trkpt lat="44.5305" lon="7.9695567"><ele>317.6666666666667</ele><time>2026-05-01T12:52:55.151Z</time></trkpt><trkpt lat="44.53041" lon="7.969755"><ele>318.3333333333333</ele><time>2026-05-01T12:52:56.153Z</time></trkpt><trkpt lat="44.530305" lon="7.9699633"><ele>319.0</ele><time>2026-05-01T12:52:57.155Z</time></trkpt><trkpt lat="44.5302" lon="7.9701883"><ele>321.0</ele><time>2026-05-01T12:52:58.153Z</time></trkpt><trkpt lat="44.530095" lon="7.97041"><ele>323.0</ele><time>2026-05-01T12:52:59.154Z</time></trkpt><trkpt lat="44.5299933" lon="7.9706383"><ele>325.0</ele><time>2026-05-01T12:53:00.153Z</time></trkpt><trkpt lat="44.5298883" lon="7.9708567"><ele>328.66666666666663</ele><time>2026-05-01T12:53:01.153Z</time></trkpt><trkpt lat="44.5297883" lon="7.9710767"><ele>332.3333333333333</ele><time>2026-05-01T12:53:02.156Z</time></trkpt><trkpt lat="44.5296917" lon="7.9712967"><ele>336.0</ele><time>2026-05-01T12:53:03.151Z</time></trkpt><trkpt lat="44.5295967" lon="7.9715183"><ele>335.3333333333333</ele><time>2026-05-01T12:53:04.157Z</time></trkpt><trkpt lat="44.5295033" lon="7.97174"><ele>334.66666666666663</ele><time>2026-05-01T12:53:05.156Z</time></trkpt><trkpt lat="44.52941" lon="7.9719733"><ele>334.0</ele><time>2026-05-01T12:53:06.156Z</time></trkpt><trkpt lat="44.5293117" lon="7.9722083"><ele>334.0</ele><time>2026-05-01T12:53:07.159Z</time></trkpt><trkpt lat="44.5292133" lon="7.972445"><ele>334.0</ele><time>2026-05-01T12:53:08.152Z</time></trkpt><trkpt lat="44.5291083" lon="7.97268"><ele>334.0</ele><time>2026-05-01T12:53:09.153Z</time></trkpt><trkpt lat="44.528995" lon="7.9729217"><ele>335.66666666666663</ele><time>2026-05-01T12:53:10.156Z</time></trkpt><trkpt lat="44.5288883" lon="7.9731683"><ele>337.3333333333333</ele><time>2026-05-01T12:53:11.155Z</time></trkpt><trkpt lat="44.5287833" lon="7.973415"><ele>339.0</ele><time>2026-05-01T12:53:12.155Z</time></trkpt><trkpt lat="44.528665" lon="7.973645"><ele>339.0</ele><time>2026-05-01T12:53:13.157Z</time></trkpt><trkpt lat="44.5285783" lon="7.9738867"><ele>339.0</ele><time>2026-05-01T12:53:14.157Z</time></trkpt><trkpt lat="44.528475" lon="7.974125"><ele>339.0</ele><time>2026-05-01T12:53:15.16Z</time></trkpt><trkpt lat="44.5283617" lon="7.97436"><ele>343.6666666666667</ele><time>2026-05-01T12:53:16.16Z</time></trkpt><trkpt lat="44.528255" lon="7.97459"><ele>348.33333333333337</ele><time>2026-05-01T12:53:17.159Z</time></trkpt><trkpt lat="44.5281467" lon="7.9748083"><ele>353.0</ele><time>2026-05-01T12:53:18.151Z</time></trkpt><trkpt lat="44.528045" lon="7.9750067"><ele>350.33333333333337</ele><time>2026-05-01T12:53:19.158Z</time></trkpt><trkpt lat="44.5279267" lon="7.9751833"><ele>347.6666666666667</ele><time>2026-05-01T12:53:20.162Z</time></trkpt><trkpt lat="44.5277983" lon="7.9753567"><ele>345.0</ele><time>2026-05-01T12:53:21.155Z</time></trkpt><trkpt lat="44.5276667" lon="7.9755383"><ele>345.0</ele><time>2026-05-01T12:53:22.151Z</time></trkpt><trkpt lat="44.5275167" lon="7.9757117"><ele>345.0</ele><time>2026-05-01T12:53:23.153Z</time></trkpt><trkpt lat="44.5273567" lon="7.9758917"><ele>345.0</ele><time>2026-05-01T12:53:24.155Z</time></trkpt><trkpt lat="44.527195" lon="7.976065"><ele>343.0</ele><time>2026-05-01T12:53:25.156Z</time></trkpt><trkpt lat="44.527035" lon="7.97625"><ele>341.0</ele><time>2026-05-01T12:53:26.15Z</time></trkpt><trkpt lat="44.52687" lon="7.9764333"><ele>339.0</ele><time>2026-05-01T12:53:27.154Z</time></trkpt><trkpt lat="44.5266967" lon="7.9766183"><ele>339.3333333333333</ele><time>2026-05-01T12:53:28.155Z</time></trkpt><trkpt lat="44.5265183" lon="7.976805"><ele>339.66666666666663</ele><time>2026-05-01T12:53:29.154Z</time></trkpt><trkpt lat="44.526345" lon="7.9769917"><ele>340.0</ele><time>2026-05-01T12:53:30.156Z</time></trkpt><trkpt lat="44.52617" lon="7.977175"><ele>340.0</ele><time>2026-05-01T12:53:31.153Z</time></trkpt><trkpt lat="44.52601" lon="7.9773483"><ele>340.0</ele><time>2026-05-01T12:53:32.153Z</time></trkpt><trkpt lat="44.5258717" lon="7.9775033"><ele>340.0</ele><time>2026-05-01T12:53:33.154Z</time></trkpt><trkpt lat="44.5257483" lon="7.9776467"><ele>343.25</ele><time>2026-05-01T12:53:34.161Z</time></trkpt><trkpt lat="44.5256517" lon="7.9777883"><ele>346.5</ele><time>2026-05-01T12:53:35.154Z</time></trkpt><trkpt lat="44.5255817" lon="7.9779517"><ele>349.75</ele><time>2026-05-01T12:53:36.153Z</time></trkpt><trkpt lat="44.52554" lon="7.9781317"><ele>353.0</ele><time>2026-05-01T12:53:37.149Z</time></trkpt><trkpt lat="44.525525" lon="7.9783267"><ele>354.25</ele><time>2026-05-01T12:53:38.151Z</time></trkpt><trkpt lat="44.525525" lon="7.9785183"><ele>355.5</ele><time>2026-05-01T12:53:39.154Z</time></trkpt><trkpt lat="44.5255383" lon="7.9787217"><ele>356.75</ele><time>2026-05-01T12:53:40.156Z</time></trkpt><trkpt lat="44.5255483" lon="7.9789333"><ele>358.0</ele><time>2026-05-01T12:53:41.158Z</time></trkpt><trkpt lat="44.5255667" lon="7.9791517"><ele>358.66666666666663</ele><time>2026-05-01T12:53:42.153Z</time></trkpt><trkpt lat="44.52559" lon="7.9793717"><ele>359.3333333333333</ele><time>2026-05-01T12:53:43.159Z</time></trkpt><trkpt lat="44.5256217" lon="7.9795967"><ele>360.0</ele><time>2026-05-01T12:53:44.156Z</time></trkpt><trkpt lat="44.52566" lon="7.9798267"><ele>358.0</ele><time>2026-05-01T12:53:45.155Z</time></trkpt><trkpt lat="44.5256967" lon="7.9800567"><ele>356.0</ele><time>2026-05-01T12:53:46.153Z</time></trkpt><trkpt lat="44.5257383" lon="7.98029"><ele>354.0</ele><time>2026-05-01T12:53:47.154Z</time></trkpt><trkpt lat="44.52578" lon="7.9805233"><ele>354.0</ele><time>2026-05-01T12:53:48.153Z</time></trkpt><trkpt lat="44.5258233" lon="7.9807517"><ele>354.0</ele><time>2026-05-01T12:53:49.155Z</time></trkpt><trkpt lat="44.52588" lon="7.9809767"><ele>354.0</ele><time>2026-05-01T12:53:50.156Z</time></trkpt><trkpt lat="44.52595" lon="7.981195"><ele>351.6666666666667</ele><time>2026-05-01T12:53:51.152Z</time></trkpt><trkpt lat="44.52604" lon="7.9814"><ele>349.33333333333337</ele><time>2026-05-01T12:53:52.159Z</time></trkpt><trkpt lat="44.5261417" lon="7.981605"><ele>347.0</ele><time>2026-05-01T12:53:53.155Z</time></trkpt><trkpt lat="44.52624" lon="7.98182"><ele>353.6666666666667</ele><time>2026-05-01T12:53:54.152Z</time></trkpt><trkpt lat="44.5263267" lon="7.9820533"><ele>360.3333333333333</ele><time>2026-05-01T12:53:55.153Z</time></trkpt><trkpt lat="44.5264067" lon="7.9822917"><ele>367.0</ele><time>2026-05-01T12:53:56.156Z</time></trkpt><trkpt lat="44.526485" lon="7.9825417"><ele>367.0</ele><time>2026-05-01T12:53:57.152Z</time></trkpt><trkpt lat="44.526565" lon="7.9827933"><ele>367.0</ele><time>2026-05-01T12:53:58.151Z</time></trkpt><trkpt lat="44.5266483" lon="7.9830367"><ele>367.0</ele><time>2026-05-01T12:53:59.156Z</time></trkpt><trkpt lat="44.5267317" lon="7.9832867"><ele>365.0</ele><time>2026-05-01T12:54:00.151Z</time></trkpt><trkpt lat="44.5268167" lon="7.9835433"><ele>363.0</ele><time>2026-05-01T12:54:01.155Z</time></trkpt><trkpt lat="44.5268983" lon="7.9838033"><ele>361.0</ele><time>2026-05-01T12:54:02.159Z</time></trkpt><trkpt lat="44.52698" lon="7.9840567"><ele>365.3333333333333</ele><time>2026-05-01T12:54:03.156Z</time></trkpt><trkpt lat="44.5270667" lon="7.9843033"><ele>369.6666666666667</ele><time>2026-05-01T12:54:04.154Z</time></trkpt><trkpt lat="44.527155" lon="7.984555"><ele>374.0</ele><time>2026-05-01T12:54:05.155Z</time></trkpt><trkpt lat="44.527235" lon="7.984815"><ele>369.33333333333337</ele><time>2026-05-01T12:54:06.154Z</time></trkpt><trkpt lat="44.5273083" lon="7.9850733"><ele>364.6666666666667</ele><time>2026-05-01T12:54:07.153Z</time></trkpt><trkpt lat="44.52739" lon="7.9853033"><ele>360.0</ele><time>2026-05-01T12:54:08.154Z</time></trkpt><trkpt lat="44.52746" lon="7.9855383"><ele>360.0</ele><time>2026-05-01T12:54:09.154Z</time></trkpt><trkpt lat="44.5275217" lon="7.9857817"><ele>360.0</ele><time>2026-05-01T12:54:10.151Z</time></trkpt><trkpt lat="44.5275733" lon="7.9860267"><ele>360.0</ele><time>2026-05-01T12:54:11.154Z</time></trkpt><trkpt lat="44.5276167" lon="7.98628"><ele>359.6666666666667</ele><time>2026-05-01T12:54:12.152Z</time></trkpt><trkpt lat="44.5276467" lon="7.9865333"><ele>359.33333333333337</ele><time>2026-05-01T12:54:13.157Z</time></trkpt><trkpt lat="44.5276683" lon="7.9867683"><ele>359.0</ele><time>2026-05-01T12:54:14.156Z</time></trkpt><trkpt lat="44.5276933" lon="7.986985"><ele>360.0</ele><time>2026-05-01T12:54:15.159Z</time></trkpt><trkpt lat="44.5277217" lon="7.9871683"><ele>361.0</ele><time>2026-05-01T12:54:16.154Z</time></trkpt><trkpt lat="44.5277617" lon="7.9873133"><ele>362.0</ele><time>2026-05-01T12:54:17.152Z</time></trkpt><trkpt lat="44.5278217" lon="7.987415"><ele>363.0</ele><time>2026-05-01T12:54:18.156Z</time></trkpt><trkpt lat="44.5279033" lon="7.9874783"><ele>364.0</ele><time>2026-05-01T12:54:19.155Z</time></trkpt><trkpt lat="44.5280067" lon="7.9875"><ele>364.6</ele><time>2026-05-01T12:54:20.155Z</time></trkpt><trkpt lat="44.5281217" lon="7.9874967"><ele>365.2</ele><time>2026-05-01T12:54:21.153Z</time></trkpt><trkpt lat="44.528245" lon="7.9874867"><ele>365.8</ele><time>2026-05-01T12:54:22.16Z</time></trkpt><trkpt lat="44.5283617" lon="7.987475"><ele>366.40000000000003</ele><time>2026-05-01T12:54:23.151Z</time></trkpt><trkpt lat="44.5284483" lon="7.98748"><ele>367.0</ele><time>2026-05-01T12:54:24.152Z</time></trkpt><trkpt lat="44.5285217" lon="7.98749"><ele>370.20000000000005</ele><time>2026-05-01T12:54:25.156Z</time></trkpt><trkpt lat="44.5285417" lon="7.9876133"><ele>373.4</ele><time>2026-05-01T12:54:27.154Z</time></trkpt><trkpt lat="44.5284183" lon="7.9876817"><ele>376.6</ele><time>2026-05-01T12:54:29.159Z</time></trkpt><trkpt lat="44.5283217" lon="7.9877067"><ele>379.79999999999995</ele><time>2026-05-01T12:54:30.155Z</time></trkpt><trkpt lat="44.5282333" lon="7.98775"><ele>383.0</ele><time>2026-05-01T12:54:31.152Z</time></trkpt><trkpt lat="44.5281517" lon="7.9878167"><ele>383.0</ele><time>2026-05-01T12:54:32.157Z</time></trkpt><trkpt lat="44.5280917" lon="7.98789"><ele>383.0</ele><time>2026-05-01T12:54:33.151Z</time></trkpt><trkpt lat="44.5280517" lon="7.9879683"><ele>383.0</ele><time>2026-05-01T12:54:34.157Z</time></trkpt><trkpt lat="44.5280267" lon="7.9880533"><ele>383.0</ele><time>2026-05-01T12:54:35.151Z</time></trkpt><trkpt lat="44.5280883" lon="7.9880983"><ele>383.0</ele><time>2026-05-01T12:54:36.15Z</time></trkpt><trkpt lat="44.528205" lon="7.98812"><ele>383.0</ele><time>2026-05-01T12:54:38.153Z</time></trkpt><trkpt lat="44.5283067" lon="7.9880333"><ele>383.0</ele><time>2026-05-01T12:54:39.153Z</time></trkpt><trkpt lat="44.52843" lon="7.987985"><ele>383.0</ele><time>2026-05-01T12:54:40.156Z</time></trkpt><trkpt lat="44.5285517" lon="7.9879583"><ele>383.0</ele><time>2026-05-01T12:54:41.154Z</time></trkpt><trkpt lat="44.5286717" lon="7.9879817"><ele>383.0</ele><time>2026-05-01T12:54:42.153Z</time></trkpt><trkpt lat="44.5288033" lon="7.9880467"><ele>384.0</ele><time>2026-05-01T12:54:43.156Z</time></trkpt><trkpt lat="44.5289517" lon="7.9881383"><ele>385.0</ele><time>2026-05-01T12:54:44.154Z</time></trkpt><trkpt lat="44.5291117" lon="7.988255"><ele>386.0</ele><time>2026-05-01T12:54:45.153Z</time></trkpt><trkpt lat="44.5292917" lon="7.988365"><ele>388.66666666666663</ele><time>2026-05-01T12:54:46.157Z</time></trkpt><trkpt lat="44.5294767" lon="7.9884783"><ele>391.33333333333337</ele><time>2026-05-01T12:54:47.155Z</time></trkpt><trkpt lat="44.52966" lon="7.9886"><ele>394.0</ele><time>2026-05-01T12:54:48.151Z</time></trkpt><trkpt lat="44.5298317" lon="7.988735"><ele>394.0</ele><time>2026-05-01T12:54:49.153Z</time></trkpt><trkpt lat="44.5299933" lon="7.9888733"><ele>394.0</ele><time>2026-05-01T12:54:50.155Z</time></trkpt><trkpt lat="44.5301417" lon="7.9889983"><ele>394.0</ele><time>2026-05-01T12:54:51.154Z</time></trkpt><trkpt lat="44.5302867" lon="7.9891033"><ele>396.33333333333337</ele><time>2026-05-01T12:54:52.154Z</time></trkpt><trkpt lat="44.5304383" lon="7.9891933"><ele>398.66666666666663</ele><time>2026-05-01T12:54:53.153Z</time></trkpt><trkpt lat="44.53059" lon="7.9892517"><ele>401.0</ele><time>2026-05-01T12:54:54.156Z</time></trkpt><trkpt lat="44.5307333" lon="7.989295"><ele>401.0</ele><time>2026-05-01T12:54:55.156Z</time></trkpt><trkpt lat="44.5308683" lon="7.9893583"><ele>401.0</ele><time>2026-05-01T12:54:56.16Z</time></trkpt><trkpt lat="44.5309833" lon="7.9894667"><ele>401.0</ele><time>2026-05-01T12:54:57.156Z</time></trkpt><trkpt lat="44.5310817" lon="7.9896067"><ele>401.0</ele><time>2026-05-01T12:54:58.154Z</time></trkpt><trkpt lat="44.53117" lon="7.9897667"><ele>398.3333333333333</ele><time>2026-05-01T12:54:59.155Z</time></trkpt><trkpt lat="44.5312633" lon="7.9899267"><ele>395.66666666666663</ele><time>2026-05-01T12:55:00.154Z</time></trkpt><trkpt lat="44.531355" lon="7.99011"><ele>393.0</ele><time>2026-05-01T12:55:01.153Z</time></trkpt><trkpt lat="44.53146" lon="7.990285"><ele>399.0</ele><time>2026-05-01T12:55:02.153Z</time></trkpt><trkpt lat="44.5315617" lon="7.9904683"><ele>405.0</ele><time>2026-05-01T12:55:03.155Z</time></trkpt><trkpt lat="44.531675" lon="7.99064"><ele>411.0</ele><time>2026-05-01T12:55:04.155Z</time></trkpt><trkpt lat="44.5317983" lon="7.9907917"><ele>413.0</ele><time>2026-05-01T12:55:05.152Z</time></trkpt><trkpt lat="44.5319283" lon="7.9909233"><ele>415.0</ele><time>2026-05-01T12:55:06.155Z</time></trkpt><trkpt lat="44.5320767" lon="7.99105"><ele>417.0</ele><time>2026-05-01T12:55:07.158Z</time></trkpt><trkpt lat="44.5322117" lon="7.9911833"><ele>417.0</ele><time>2026-05-01T12:55:08.155Z</time></trkpt><trkpt lat="44.5323283" lon="7.9913333"><ele>417.0</ele><time>2026-05-01T12:55:09.155Z</time></trkpt><trkpt lat="44.5324333" lon="7.9915017"><ele>417.0</ele><time>2026-05-01T12:55:10.153Z</time></trkpt><trkpt lat="44.5325383" lon="7.9916767"><ele>417.66666666666663</ele><time>2026-05-01T12:55:11.153Z</time></trkpt><trkpt lat="44.532655" lon="7.991855"><ele>418.3333333333333</ele><time>2026-05-01T12:55:12.16Z</time></trkpt><trkpt lat="44.532785" lon="7.9920333"><ele>419.0</ele><time>2026-05-01T12:55:13.154Z</time></trkpt><trkpt lat="44.5329133" lon="7.9922233"><ele>419.0</ele><time>2026-05-01T12:55:14.152Z</time></trkpt><trkpt lat="44.53305" lon="7.9924217"><ele>419.0</ele><time>2026-05-01T12:55:15.153Z</time></trkpt><trkpt lat="44.5331833" lon="7.9926283"><ele>419.0</ele><time>2026-05-01T12:55:16.154Z</time></trkpt><trkpt lat="44.5333333" lon="7.992805"><ele>426.66666666666663</ele><time>2026-05-01T12:55:17.158Z</time></trkpt><trkpt lat="44.5334483" lon="7.9929783"><ele>434.33333333333337</ele><time>2026-05-01T12:55:18.156Z</time></trkpt><trkpt lat="44.5335817" lon="7.9930983"><ele>442.0</ele><time>2026-05-01T12:55:19.156Z</time></trkpt><trkpt lat="44.5337167" lon="7.9932033"><ele>440.75</ele><time>2026-05-01T12:55:20.15Z</time></trkpt><trkpt lat="44.5338567" lon="7.993285"><ele>439.5</ele><time>2026-05-01T12:55:21.152Z</time></trkpt><trkpt lat="44.5339917" lon="7.9933683"><ele>438.25</ele><time>2026-05-01T12:55:22.154Z</time></trkpt><trkpt lat="44.5341183" lon="7.9934417"><ele>437.0</ele><time>2026-05-01T12:55:23.154Z</time></trkpt><trkpt lat="44.53422" lon="7.993555"><ele>437.0</ele><time>2026-05-01T12:55:24.154Z</time></trkpt><trkpt lat="44.5343117" lon="7.9937133"><ele>437.0</ele><time>2026-05-01T12:55:25.155Z</time></trkpt><trkpt lat="44.534405" lon="7.9938867"><ele>437.0</ele><time>2026-05-01T12:55:26.153Z</time></trkpt><trkpt lat="44.5345" lon="7.9940917"><ele>435.66666666666663</ele><time>2026-05-01T12:55:27.153Z</time></trkpt><trkpt lat="44.5345983" lon="7.9943183"><ele>434.33333333333337</ele><time>2026-05-01T12:55:28.153Z</time></trkpt><trkpt lat="44.5347" lon="7.9945433"><ele>433.0</ele><time>2026-05-01T12:55:29.156Z</time></trkpt><trkpt lat="44.5347933" lon="7.994765"><ele>433.0</ele><time>2026-05-01T12:55:30.159Z</time></trkpt><trkpt lat="44.5348767" lon="7.9949717"><ele>433.0</ele><time>2026-05-01T12:55:31.157Z</time></trkpt><trkpt lat="44.534935" lon="7.995155"><ele>433.0</ele><time>2026-05-01T12:55:32.155Z</time></trkpt><trkpt lat="44.534965" lon="7.99534"><ele>433.0</ele><time>2026-05-01T12:55:33.156Z</time></trkpt><trkpt lat="44.53497" lon="7.9955367"><ele>435.33333333333337</ele><time>2026-05-01T12:55:34.155Z</time></trkpt><trkpt lat="44.5349417" lon="7.9957417"><ele>437.66666666666663</ele><time>2026-05-01T12:55:35.156Z</time></trkpt><trkpt lat="44.5349083" lon="7.9959667"><ele>440.0</ele><time>2026-05-01T12:55:36.154Z</time></trkpt><trkpt lat="44.5348667" lon="7.9961967"><ele>441.75</ele><time>2026-05-01T12:55:37.158Z</time></trkpt><trkpt lat="44.5348267" lon="7.9964117"><ele>443.5</ele><time>2026-05-01T12:55:38.154Z</time></trkpt><trkpt lat="44.534795" lon="7.9965917"><ele>445.25</ele><time>2026-05-01T12:55:39.153Z</time></trkpt><trkpt lat="44.53479" lon="7.9967317"><ele>447.0</ele><time>2026-05-01T12:55:40.148Z</time></trkpt><trkpt lat="44.5347933" lon="7.9968533"><ele>449.0</ele><time>2026-05-01T12:55:41.157Z</time></trkpt><trkpt lat="44.5348367" lon="7.9969633"><ele>451.00000000000006</ele><time>2026-05-01T12:55:42.153Z</time></trkpt><trkpt lat="44.5348933" lon="7.9970367"><ele>453.00000000000006</ele><time>2026-05-01T12:55:43.154Z</time></trkpt><trkpt lat="44.5349767" lon="7.9970917"><ele>455.0</ele><time>2026-05-01T12:55:44.159Z</time></trkpt><trkpt lat="44.5351183" lon="7.99705"><ele>457.0</ele><time>2026-05-01T12:55:45.153Z</time></trkpt><trkpt lat="44.53521" lon="7.9969767"><ele>457.0</ele><time>2026-05-01T12:55:46.15Z</time></trkpt><trkpt lat="44.535295" lon="7.99687"><ele>457.0</ele><time>2026-05-01T12:55:47.158Z</time></trkpt><trkpt lat="44.5353633" lon="7.9967217"><ele>457.0</ele><time>2026-05-01T12:55:48.154Z</time></trkpt><trkpt lat="44.5354183" lon="7.99655"><ele>457.0</ele><time>2026-05-01T12:55:49.156Z</time></trkpt><trkpt lat="44.5354767" lon="7.9964017"><ele>458.83333333333337</ele><time>2026-05-01T12:55:50.152Z</time></trkpt><trkpt lat="44.5355267" lon="7.99629"><ele>460.6666666666667</ele><time>2026-05-01T12:55:51.151Z</time></trkpt><trkpt lat="44.535575" lon="7.9961983"><ele>462.5</ele><time>2026-05-01T12:55:52.151Z</time></trkpt><trkpt lat="44.5356683" lon="7.9962133"><ele>464.33333333333337</ele><time>2026-05-01T12:55:54.154Z</time></trkpt><trkpt lat="44.535705" lon="7.9963117"><ele>466.1666666666667</ele><time>2026-05-01T12:55:56.151Z</time></trkpt><trkpt lat="44.5356967" lon="7.996405"><ele>468.0</ele><time>2026-05-01T12:55:57.158Z</time></trkpt><trkpt lat="44.53566" lon="7.9965333"><ele>472.33333333333337</ele><time>2026-05-01T12:55:58.153Z</time></trkpt><trkpt lat="44.535575" lon="7.9967567"><ele>476.6666666666667</ele><time>2026-05-01T12:55:59.152Z</time></trkpt><trkpt lat="44.5354817" lon="7.99695"><ele>481.0</ele><time>2026-05-01T12:56:00.156Z</time></trkpt><trkpt lat="44.5354067" lon="7.997135"><ele>474.6666666666667</ele><time>2026-05-01T12:56:01.149Z</time></trkpt><trkpt lat="44.535345" lon="7.9973183"><ele>468.33333333333337</ele><time>2026-05-01T12:56:02.158Z</time></trkpt><trkpt lat="44.5352817" lon="7.9975067"><ele>462.0</ele><time>2026-05-01T12:56:03.153Z</time></trkpt><trkpt lat="44.5352433" lon="7.99773"><ele>462.0</ele><time>2026-05-01T12:56:04.154Z</time></trkpt><trkpt lat="44.535215" lon="7.9979817"><ele>462.0</ele><time>2026-05-01T12:56:05.154Z</time></trkpt><trkpt lat="44.535195" lon="7.99826"><ele>462.0</ele><time>2026-05-01T12:56:06.157Z</time></trkpt><trkpt lat="44.5351817" lon="7.9985667"><ele>463.66666666666663</ele><time>2026-05-01T12:56:07.156Z</time></trkpt><trkpt lat="44.5351733" lon="7.998875"><ele>465.3333333333333</ele><time>2026-05-01T12:56:08.153Z</time></trkpt><trkpt lat="44.5351717" lon="7.99918"><ele>467.0</ele><time>2026-05-01T12:56:09.158Z</time></trkpt><trkpt lat="44.5351683" lon="7.9994633"><ele>468.0</ele><time>2026-05-01T12:56:10.154Z</time></trkpt><trkpt lat="44.5351583" lon="7.9997283"><ele>469.0</ele><time>2026-05-01T12:56:11.153Z</time></trkpt><trkpt lat="44.5351433" lon="7.9999817"><ele>470.0</ele><time>2026-05-01T12:56:12.155Z</time></trkpt><trkpt lat="44.5351183" lon="8.0002183"><ele>470.0</ele><time>2026-05-01T12:56:13.156Z</time></trkpt><trkpt lat="44.5350917" lon="8.0004433"><ele>470.0</ele><time>2026-05-01T12:56:14.155Z</time></trkpt><trkpt lat="44.5350567" lon="8.0006583"><ele>470.0</ele><time>2026-05-01T12:56:15.154Z</time></trkpt><trkpt lat="44.5350267" lon="8.0008667"><ele>472.0</ele><time>2026-05-01T12:56:16.154Z</time></trkpt><trkpt lat="44.5349933" lon="8.0010683"><ele>474.0</ele><time>2026-05-01T12:56:17.16Z</time></trkpt><trkpt lat="44.53497" lon="8.001265"><ele>476.0</ele><time>2026-05-01T12:56:18.155Z</time></trkpt><trkpt lat="44.5349567" lon="8.00146"><ele>478.0</ele><time>2026-05-01T12:56:19.153Z</time></trkpt><trkpt lat="44.5349617" lon="8.0016483"><ele>478.75</ele><time>2026-05-01T12:56:20.152Z</time></trkpt><trkpt lat="44.5349833" lon="8.001835"><ele>479.5</ele><time>2026-05-01T12:56:21.157Z</time></trkpt><trkpt lat="44.5350167" lon="8.00202"><ele>480.25</ele><time>2026-05-01T12:56:22.154Z</time></trkpt><trkpt lat="44.5350517" lon="8.0022033"><ele>481.0</ele><time>2026-05-01T12:56:23.156Z</time></trkpt><trkpt lat="44.5350917" lon="8.002395"><ele>482.0</ele><time>2026-05-01T12:56:24.154Z</time></trkpt><trkpt lat="44.5351217" lon="8.0025833"><ele>483.0</ele><time>2026-05-01T12:56:25.156Z</time></trkpt><trkpt lat="44.5351467" lon="8.002775"><ele>484.0</ele><time>2026-05-01T12:56:26.156Z</time></trkpt><trkpt lat="44.5351683" lon="8.0029667"><ele>485.0</ele><time>2026-05-01T12:56:27.149Z</time></trkpt><trkpt lat="44.5351833" lon="8.0031617"><ele>485.75</ele><time>2026-05-01T12:56:28.158Z</time></trkpt><trkpt lat="44.5351917" lon="8.0033533"><ele>486.5</ele><time>2026-05-01T12:56:29.15Z</time></trkpt><trkpt lat="44.5351967" lon="8.0035483"><ele>487.25</ele><time>2026-05-01T12:56:30.15Z</time></trkpt><trkpt lat="44.535205" lon="8.003745"><ele>488.0</ele><time>2026-05-01T12:56:31.157Z</time></trkpt><trkpt lat="44.53522" lon="8.0039367"><ele>488.0</ele><time>2026-05-01T12:56:32.156Z</time></trkpt><trkpt lat="44.53524" lon="8.0041283"><ele>488.0</ele><time>2026-05-01T12:56:33.154Z</time></trkpt><trkpt lat="44.5352667" lon="8.0043167"><ele>488.0</ele><time>2026-05-01T12:56:34.157Z</time></trkpt><trkpt lat="44.5352983" lon="8.0045017"><ele>488.0</ele><time>2026-05-01T12:56:35.155Z</time></trkpt><trkpt lat="44.5353367" lon="8.0046867"><ele>489.25</ele><time>2026-05-01T12:56:36.156Z</time></trkpt><trkpt lat="44.53538" lon="8.0048733"><ele>490.5</ele><time>2026-05-01T12:56:37.152Z</time></trkpt><trkpt lat="44.5354267" lon="8.0050583"><ele>491.75</ele><time>2026-05-01T12:56:38.152Z</time></trkpt><trkpt lat="44.5354733" lon="8.00525"><ele>493.0</ele><time>2026-05-01T12:56:39.153Z</time></trkpt><trkpt lat="44.5355133" lon="8.0054467"><ele>496.25</ele><time>2026-05-01T12:56:40.157Z</time></trkpt><trkpt lat="44.53555" lon="8.0056383"><ele>499.5</ele><time>2026-05-01T12:56:41.155Z</time></trkpt><trkpt lat="44.5355917" lon="8.0058333"><ele>502.75</ele><time>2026-05-01T12:56:42.156Z</time></trkpt><trkpt lat="44.5356283" lon="8.0060267"><ele>506.0</ele><time>2026-05-01T12:56:43.153Z</time></trkpt><trkpt lat="44.5356583" lon="8.0062217"><ele>506.75</ele><time>2026-05-01T12:56:44.15Z</time></trkpt><trkpt lat="44.5356883" lon="8.006425"><ele>507.5</ele><time>2026-05-01T12:56:45.151Z</time></trkpt><trkpt lat="44.5357117" lon="8.0066283"><ele>508.25</ele><time>2026-05-01T12:56:46.153Z</time></trkpt><trkpt lat="44.5357367" lon="8.0068317"><ele>509.0</ele><time>2026-05-01T12:56:47.156Z</time></trkpt><trkpt lat="44.5357567" lon="8.007015"><ele>509.2</ele><time>2026-05-01T12:56:48.154Z</time></trkpt><trkpt lat="44.5357733" lon="8.0071717"><ele>509.4</ele><time>2026-05-01T12:56:49.149Z</time></trkpt><trkpt lat="44.5357917" lon="8.00732"><ele>509.6</ele><time>2026-05-01T12:56:50.153Z</time></trkpt><trkpt lat="44.5358067" lon="8.0074667"><ele>509.8</ele><time>2026-05-01T12:56:51.155Z</time></trkpt><trkpt lat="44.5358233" lon="8.00762"><ele>510.0</ele><time>2026-05-01T12:56:52.151Z</time></trkpt><trkpt lat="44.535845" lon="8.00778"><ele>510.0</ele><time>2026-05-01T12:56:53.152Z</time></trkpt><trkpt lat="44.535865" lon="8.0079467"><ele>510.0</ele><time>2026-05-01T12:56:54.152Z</time></trkpt><trkpt lat="44.5358833" lon="8.008115"><ele>510.0</ele><time>2026-05-01T12:56:55.159Z</time></trkpt><trkpt lat="44.535905" lon="8.00829"><ele>510.0</ele><time>2026-05-01T12:56:56.157Z</time></trkpt><trkpt lat="44.5359267" lon="8.0084717"><ele>510.5</ele><time>2026-05-01T12:56:57.153Z</time></trkpt><trkpt lat="44.5359467" lon="8.0086567"><ele>511.0</ele><time>2026-05-01T12:56:58.154Z</time></trkpt><trkpt lat="44.5359633" lon="8.0088467"><ele>511.5</ele><time>2026-05-01T12:56:59.154Z</time></trkpt><trkpt lat="44.535985" lon="8.0090383"><ele>512.0</ele><time>2026-05-01T12:57:00.155Z</time></trkpt><trkpt lat="44.5360067" lon="8.0092367"><ele>514.0</ele><time>2026-05-01T12:57:01.155Z</time></trkpt><trkpt lat="44.53603" lon="8.0094367"><ele>516.0</ele><time>2026-05-01T12:57:02.152Z</time></trkpt><trkpt lat="44.536055" lon="8.0096367"><ele>518.0</ele><time>2026-05-01T12:57:03.155Z</time></trkpt><trkpt lat="44.5360783" lon="8.0098333"><ele>520.0</ele><time>2026-05-01T12:57:04.154Z</time></trkpt><trkpt lat="44.5361033" lon="8.01003"><ele>521.25</ele><time>2026-05-01T12:57:05.153Z</time></trkpt><trkpt lat="44.536125" lon="8.0102283"><ele>522.5</ele><time>2026-05-01T12:57:06.156Z</time></trkpt><trkpt lat="44.5361483" lon="8.010425"><ele>523.75</ele><time>2026-05-01T12:57:07.152Z</time></trkpt><trkpt lat="44.536175" lon="8.0106167"><ele>525.0</ele><time>2026-05-01T12:57:08.151Z</time></trkpt><trkpt lat="44.5362" lon="8.0108"><ele>526.0</ele><time>2026-05-01T12:57:09.15Z</time></trkpt><trkpt lat="44.5362217" lon="8.010965"><ele>527.0</ele><time>2026-05-01T12:57:10.153Z</time></trkpt><trkpt lat="44.5362617" lon="8.0111133"><ele>528.0</ele><time>2026-05-01T12:57:11.155Z</time></trkpt><trkpt lat="44.5363" lon="8.0112483"><ele>529.0</ele><time>2026-05-01T12:57:12.154Z</time></trkpt><trkpt lat="44.5363533" lon="8.0113717"><ele>530.0</ele><time>2026-05-01T12:57:13.156Z</time></trkpt><trkpt lat="44.5364267" lon="8.0114917"><ele>530.0</ele><time>2026-05-01T12:57:14.152Z</time></trkpt><trkpt lat="44.5364933" lon="8.0116133"><ele>530.0</ele><time>2026-05-01T12:57:15.153Z</time></trkpt><trkpt lat="44.5365617" lon="8.01174"><ele>530.0</ele><time>2026-05-01T12:57:16.153Z</time></trkpt><trkpt lat="44.5366367" lon="8.0118717"><ele>530.0</ele><time>2026-05-01T12:57:17.156Z</time></trkpt><trkpt lat="44.53671" lon="8.0120167"><ele>528.75</ele><time>2026-05-01T12:57:18.154Z</time></trkpt><trkpt lat="44.5367783" lon="8.012165"><ele>527.5</ele><time>2026-05-01T12:57:19.152Z</time></trkpt><trkpt lat="44.536845" lon="8.0123167"><ele>526.25</ele><time>2026-05-01T12:57:20.155Z</time></trkpt><trkpt lat="44.536915" lon="8.01247"><ele>525.0</ele><time>2026-05-01T12:57:21.157Z</time></trkpt><trkpt lat="44.5369767" lon="8.0126167"><ele>524.2</ele><time>2026-05-01T12:57:22.153Z</time></trkpt><trkpt lat="44.5370317" lon="8.0127583"><ele>523.4</ele><time>2026-05-01T12:57:23.152Z</time></trkpt><trkpt lat="44.5370717" lon="8.0129"><ele>522.6</ele><time>2026-05-01T12:57:24.153Z</time></trkpt><trkpt lat="44.5370867" lon="8.0130467"><ele>521.8</ele><time>2026-05-01T12:57:25.159Z</time></trkpt><trkpt lat="44.537075" lon="8.013205"><ele>521.0</ele><time>2026-05-01T12:57:26.155Z</time></trkpt><trkpt lat="44.537055" lon="8.0133583"><ele>520.0</ele><time>2026-05-01T12:57:27.151Z</time></trkpt><trkpt lat="44.53702" lon="8.0135217"><ele>519.0</ele><time>2026-05-01T12:57:28.162Z</time></trkpt><trkpt lat="44.5369817" lon="8.013685"><ele>518.0</ele><time>2026-05-01T12:57:29.154Z</time></trkpt><trkpt lat="44.536935" lon="8.01385"><ele>517.0</ele><time>2026-05-01T12:57:30.156Z</time></trkpt><trkpt lat="44.53688" lon="8.014005"><ele>517.0</ele><time>2026-05-01T12:57:31.154Z</time></trkpt><trkpt lat="44.53682" lon="8.0141417"><ele>517.0</ele><time>2026-05-01T12:57:32.156Z</time></trkpt><trkpt lat="44.5367533" lon="8.0142483"><ele>517.0</ele><time>2026-05-01T12:57:33.152Z</time></trkpt><trkpt lat="44.5366833" lon="8.0143283"><ele>517.0</ele><time>2026-05-01T12:57:34.157Z</time></trkpt><trkpt lat="44.536605" lon="8.0143867"><ele>517.0</ele><time>2026-05-01T12:57:35.153Z</time></trkpt><trkpt lat="44.5364883" lon="8.01437"><ele>517.25</ele><time>2026-05-01T12:57:36.154Z</time></trkpt><trkpt lat="44.5363683" lon="8.01434"><ele>517.5</ele><time>2026-05-01T12:57:37.154Z</time></trkpt><trkpt lat="44.5362433" lon="8.0142967"><ele>517.75</ele><time>2026-05-01T12:57:38.156Z</time></trkpt><trkpt lat="44.5361267" lon="8.0142433"><ele>518.0</ele><time>2026-05-01T12:57:39.157Z</time></trkpt><trkpt lat="44.5360217" lon="8.0141667"><ele>516.75</ele><time>2026-05-01T12:57:40.154Z</time></trkpt><trkpt lat="44.53593" lon="8.0140567"><ele>515.5</ele><time>2026-05-01T12:57:41.159Z</time></trkpt><trkpt lat="44.53585" lon="8.0139233"><ele>514.25</ele><time>2026-05-01T12:57:42.153Z</time></trkpt><trkpt lat="44.5357717" lon="8.013785"><ele>513.0</ele><time>2026-05-01T12:57:43.156Z</time></trkpt><trkpt lat="44.53568" lon="8.01366"><ele>513.0</ele><time>2026-05-01T12:57:44.155Z</time></trkpt><trkpt lat="44.5355717" lon="8.01356"><ele>513.0</ele><time>2026-05-01T12:57:45.159Z</time></trkpt><trkpt lat="44.53545" lon="8.0134767"><ele>513.0</ele><time>2026-05-01T12:57:46.154Z</time></trkpt><trkpt lat="44.5353167" lon="8.0134033"><ele>513.0</ele><time>2026-05-01T12:57:47.154Z</time></trkpt><trkpt lat="44.53517" lon="8.01333"><ele>512.3333333333334</ele><time>2026-05-01T12:57:48.155Z</time></trkpt><trkpt lat="44.53502" lon="8.0132683"><ele>511.6666666666667</ele><time>2026-05-01T12:57:49.155Z</time></trkpt><trkpt lat="44.53487" lon="8.0132183"><ele>511.0</ele><time>2026-05-01T12:57:50.155Z</time></trkpt><trkpt lat="44.5347217" lon="8.013175"><ele>511.0</ele><time>2026-05-01T12:57:51.156Z</time></trkpt><trkpt lat="44.53457" lon="8.0131433"><ele>511.0</ele><time>2026-05-01T12:57:52.153Z</time></trkpt><trkpt lat="44.5344167" lon="8.0131183"><ele>511.0</ele><time>2026-05-01T12:57:53.151Z</time></trkpt><trkpt lat="44.534265" lon="8.0130917"><ele>513.75</ele><time>2026-05-01T12:57:54.156Z</time></trkpt><trkpt lat="44.534125" lon="8.013075"><ele>516.5</ele><time>2026-05-01T12:57:55.156Z</time></trkpt><trkpt lat="44.5339983" lon="8.01306"><ele>519.25</ele><time>2026-05-01T12:57:56.157Z</time></trkpt><trkpt lat="44.533885" lon="8.013045"><ele>522.0</ele><time>2026-05-01T12:57:57.153Z</time></trkpt><trkpt lat="44.53379" lon="8.0130383"><ele>522.6666666666666</ele><time>2026-05-01T12:57:58.164Z</time></trkpt><trkpt lat="44.5337067" lon="8.0130417"><ele>523.3333333333334</ele><time>2026-05-01T12:57:59.155Z</time></trkpt><trkpt lat="44.5336117" lon="8.0131483"><ele>524.0</ele><time>2026-05-01T12:58:01.154Z</time></trkpt><trkpt lat="44.5336267" lon="8.0132533"><ele>524.6666666666667</ele><time>2026-05-01T12:58:02.152Z</time></trkpt><trkpt lat="44.5336533" lon="8.01335"><ele>525.3333333333334</ele><time>2026-05-01T12:58:03.161Z</time></trkpt><trkpt lat="44.5337033" lon="8.0134483"><ele>526.0</ele><time>2026-05-01T12:58:04.153Z</time></trkpt><trkpt lat="44.533815" lon="8.013535"><ele>527.75</ele><time>2026-05-01T12:58:05.154Z</time></trkpt><trkpt lat="44.5339383" lon="8.0136267"><ele>529.5</ele><time>2026-05-01T12:58:06.156Z</time></trkpt><trkpt lat="44.53406" lon="8.013715"><ele>531.25</ele><time>2026-05-01T12:58:07.154Z</time></trkpt><trkpt lat="44.5341917" lon="8.01379"><ele>533.0</ele><time>2026-05-01T12:58:08.153Z</time></trkpt><trkpt lat="44.534325" lon="8.0138283"><ele>533.0</ele><time>2026-05-01T12:58:09.153Z</time></trkpt><trkpt lat="44.5344433" lon="8.0138417"><ele>533.0</ele><time>2026-05-01T12:58:10.15Z</time></trkpt><trkpt lat="44.534535" lon="8.013845"><ele>533.0</ele><time>2026-05-01T12:58:11.155Z</time></trkpt><trkpt lat="44.5346117" lon="8.01385"><ele>533.0</ele><time>2026-05-01T12:58:12.152Z</time></trkpt><trkpt lat="44.534675" lon="8.0138667"><ele>533.0</ele><time>2026-05-01T12:58:13.157Z</time></trkpt><trkpt lat="44.53469" lon="8.014015"><ele>533.0</ele><time>2026-05-01T12:58:15.157Z</time></trkpt><trkpt lat="44.5345833" lon="8.0140783"><ele>533.0</ele><time>2026-05-01T12:58:17.154Z</time></trkpt><trkpt lat="44.534505" lon="8.0140817"><ele>533.0</ele><time>2026-05-01T12:58:18.155Z</time></trkpt><trkpt lat="44.534425" lon="8.0140917"><ele>533.0</ele><time>2026-05-01T12:58:19.157Z</time></trkpt><trkpt lat="44.53433" lon="8.0141317"><ele>533.0</ele><time>2026-05-01T12:58:20.158Z</time></trkpt><trkpt lat="44.5342233" lon="8.01421"><ele>535.25</ele><time>2026-05-01T12:58:21.15Z</time></trkpt><trkpt lat="44.5341083" lon="8.014305"><ele>537.5</ele><time>2026-05-01T12:58:22.157Z</time></trkpt><trkpt lat="44.5339983" lon="8.0144083"><ele>539.75</ele><time>2026-05-01T12:58:23.158Z</time></trkpt><trkpt lat="44.5338917" lon="8.0145167"><ele>542.0</ele><time>2026-05-01T12:58:24.156Z</time></trkpt><trkpt lat="44.53379" lon="8.0146183"><ele>542.4</ele><time>2026-05-01T12:58:25.158Z</time></trkpt><trkpt lat="44.5336967" lon="8.0146983"><ele>542.8000000000001</ele><time>2026-05-01T12:58:26.159Z</time></trkpt><trkpt lat="44.5336" lon="8.0147417"><ele>543.2</ele><time>2026-05-01T12:58:27.155Z</time></trkpt><trkpt lat="44.5334983" lon="8.0147367"><ele>543.6</ele><time>2026-05-01T12:58:28.155Z</time></trkpt><trkpt lat="44.53339" lon="8.0146883"><ele>544.0</ele><time>2026-05-01T12:58:29.156Z</time></trkpt><trkpt lat="44.5332733" lon="8.0146067"><ele>544.0</ele><time>2026-05-01T12:58:30.156Z</time></trkpt><trkpt lat="44.5331533" lon="8.0144983"><ele>544.0</ele><time>2026-05-01T12:58:31.159Z</time></trkpt><trkpt lat="44.5330433" lon="8.0143833"><ele>544.0</ele><time>2026-05-01T12:58:32.154Z</time></trkpt><trkpt lat="44.53294" lon="8.0142817"><ele>544.0</ele><time>2026-05-01T12:58:33.154Z</time></trkpt><trkpt lat="44.5328533" lon="8.0142117"><ele>543.8</ele><time>2026-05-01T12:58:34.157Z</time></trkpt><trkpt lat="44.532775" lon="8.014165"><ele>543.5999999999999</ele><time>2026-05-01T12:58:35.152Z</time></trkpt><trkpt lat="44.5326917" lon="8.0141467"><ele>543.4</ele><time>2026-05-01T12:58:36.157Z</time></trkpt><trkpt lat="44.5326367" lon="8.0142817"><ele>543.1999999999999</ele><time>2026-05-01T12:58:38.158Z</time></trkpt><trkpt lat="44.532655" lon="8.0144417"><ele>543.0</ele><time>2026-05-01T12:58:40.153Z</time></trkpt><trkpt lat="44.5327117" lon="8.01454"><ele>543.3333333333334</ele><time>2026-05-01T12:58:41.154Z</time></trkpt><trkpt lat="44.53287" lon="8.0146817"><ele>543.6666666666667</ele><time>2026-05-01T12:58:42.152Z</time></trkpt><trkpt lat="44.53299" lon="8.0148167"><ele>544.0</ele><time>2026-05-01T12:58:43.164Z</time></trkpt><trkpt lat="44.5331117" lon="8.01495"><ele>548.0</ele><time>2026-05-01T12:58:44.151Z</time></trkpt><trkpt lat="44.5332367" lon="8.01508"><ele>552.0</ele><time>2026-05-01T12:58:45.159Z</time></trkpt><trkpt lat="44.53336" lon="8.0152067"><ele>556.0</ele><time>2026-05-01T12:58:46.158Z</time></trkpt><trkpt lat="44.5334783" lon="8.0153317"><ele>556.0</ele><time>2026-05-01T12:58:47.152Z</time></trkpt><trkpt lat="44.53358" lon="8.01545"><ele>556.0</ele><time>2026-05-01T12:58:48.155Z</time></trkpt><trkpt lat="44.5336517" lon="8.01556"><ele>556.0</ele><time>2026-05-01T12:58:49.154Z</time></trkpt><trkpt lat="44.5336833" lon="8.015675"><ele>556.0</ele><time>2026-05-01T12:58:50.156Z</time></trkpt><trkpt lat="44.533705" lon="8.0157883"><ele>556.0</ele><time>2026-05-01T12:58:51.154Z</time></trkpt><trkpt lat="44.5337183" lon="8.0159083"><ele>558.0</ele><time>2026-05-01T12:58:52.154Z</time></trkpt><trkpt lat="44.53363" lon="8.0160483"><ele>560.0</ele><time>2026-05-01T12:58:53.156Z</time></trkpt><trkpt lat="44.533535" lon="8.0161883"><ele>562.0</ele><time>2026-05-01T12:58:54.155Z</time></trkpt><trkpt lat="44.533435" lon="8.016345"><ele>564.0</ele><time>2026-05-01T12:58:55.156Z</time></trkpt><trkpt lat="44.5333217" lon="8.016515"><ele>565.3333333333334</ele><time>2026-05-01T12:58:56.154Z</time></trkpt><trkpt lat="44.5331983" lon="8.0166883"><ele>566.6666666666667</ele><time>2026-05-01T12:58:57.152Z</time></trkpt><trkpt lat="44.533085" lon="8.0168633"><ele>568.0</ele><time>2026-05-01T12:58:58.154Z</time></trkpt><trkpt lat="44.5329817" lon="8.017025"><ele>568.0</ele><time>2026-05-01T12:58:59.155Z</time></trkpt><trkpt lat="44.532935" lon="8.01719"><ele>568.0</ele><time>2026-05-01T12:59:00.156Z</time></trkpt><trkpt lat="44.5329067" lon="8.0173567"><ele>568.0</ele><time>2026-05-01T12:59:01.159Z</time></trkpt><trkpt lat="44.5329117" lon="8.0175217"><ele>568.0</ele><time>2026-05-01T12:59:02.154Z</time></trkpt><trkpt lat="44.5329283" lon="8.017685"><ele>568.6666666666667</ele><time>2026-05-01T12:59:03.152Z</time></trkpt><trkpt lat="44.5330267" lon="8.0178467"><ele>569.3333333333334</ele><time>2026-05-01T12:59:04.152Z</time></trkpt><trkpt lat="44.5331433" lon="8.0180133"><ele>570.0</ele><time>2026-05-01T12:59:05.155Z</time></trkpt><trkpt lat="44.5332583" lon="8.0182033"><ele>572.3333333333334</ele><time>2026-05-01T12:59:06.156Z</time></trkpt><trkpt lat="44.53337" lon="8.0184033"><ele>574.6666666666667</ele><time>2026-05-01T12:59:07.159Z</time></trkpt><trkpt lat="44.5334817" lon="8.01861"><ele>577.0</ele><time>2026-05-01T12:59:08.155Z</time></trkpt><trkpt lat="44.5335967" lon="8.0188267"><ele>577.0</ele><time>2026-05-01T12:59:09.152Z</time></trkpt><trkpt lat="44.5337117" lon="8.019045"><ele>577.0</ele><time>2026-05-01T12:59:10.151Z</time></trkpt><trkpt lat="44.53383" lon="8.0192767"><ele>577.0</ele><time>2026-05-01T12:59:11.156Z</time></trkpt><trkpt lat="44.5339433" lon="8.019515"><ele>577.6666666666667</ele><time>2026-05-01T12:59:12.156Z</time></trkpt><trkpt lat="44.5340517" lon="8.019755"><ele>578.3333333333334</ele><time>2026-05-01T12:59:13.153Z</time></trkpt><trkpt lat="44.534155" lon="8.0199983"><ele>579.0</ele><time>2026-05-01T12:59:14.155Z</time></trkpt><trkpt lat="44.5342567" lon="8.02024"><ele>580.6666666666666</ele><time>2026-05-01T12:59:15.155Z</time></trkpt><trkpt lat="44.53436" lon="8.0204883"><ele>582.3333333333333</ele><time>2026-05-01T12:59:16.153Z</time></trkpt><trkpt lat="44.5344633" lon="8.0207367"><ele>584.0</ele><time>2026-05-01T12:59:17.153Z</time></trkpt><trkpt lat="44.534565" lon="8.02098"><ele>584.3333333333333</ele><time>2026-05-01T12:59:18.152Z</time></trkpt><trkpt lat="44.53466" lon="8.021205"><ele>584.6666666666666</ele><time>2026-05-01T12:59:19.153Z</time></trkpt><trkpt lat="44.5347483" lon="8.0214083"><ele>585.0</ele><time>2026-05-01T12:59:20.157Z</time></trkpt><trkpt lat="44.5348233" lon="8.021585"><ele>586.0</ele><time>2026-05-01T12:59:21.152Z</time></trkpt><trkpt lat="44.5348833" lon="8.0217317"><ele>587.0</ele><time>2026-05-01T12:59:22.153Z</time></trkpt><trkpt lat="44.5349217" lon="8.0218583"><ele>588.0</ele><time>2026-05-01T12:59:23.157Z</time></trkpt><trkpt lat="44.5349217" lon="8.0219783"><ele>589.0</ele><time>2026-05-01T12:59:24.149Z</time></trkpt><trkpt lat="44.5348967" lon="8.0220917"><ele>590.0</ele><time>2026-05-01T12:59:25.155Z</time></trkpt><trkpt lat="44.534845" lon="8.0221767"><ele>590.0</ele><time>2026-05-01T12:59:26.156Z</time></trkpt><trkpt lat="44.53475" lon="8.0221867"><ele>590.0</ele><time>2026-05-01T12:59:27.152Z</time></trkpt><trkpt lat="44.534645" lon="8.0221567"><ele>590.0</ele><time>2026-05-01T12:59:28.155Z</time></trkpt><trkpt lat="44.5345217" lon="8.02209"><ele>590.0</ele><time>2026-05-01T12:59:29.155Z</time></trkpt><trkpt lat="44.5343917" lon="8.022025"><ele>591.6666666666666</ele><time>2026-05-01T12:59:30.156Z</time></trkpt><trkpt lat="44.5342433" lon="8.0219567"><ele>593.3333333333334</ele><time>2026-05-01T12:59:31.153Z</time></trkpt><trkpt lat="44.5340833" lon="8.0218833"><ele>595.0</ele><time>2026-05-01T12:59:32.155Z</time></trkpt><trkpt lat="44.5339233" lon="8.02181"><ele>595.0</ele><time>2026-05-01T12:59:33.152Z</time></trkpt><trkpt lat="44.53377" lon="8.0217383"><ele>595.0</ele><time>2026-05-01T12:59:34.151Z</time></trkpt><trkpt lat="44.533625" lon="8.0216667"><ele>595.0</ele><time>2026-05-01T12:59:35.158Z</time></trkpt><trkpt lat="44.5335033" lon="8.02161"><ele>595.0</ele><time>2026-05-01T12:59:36.153Z</time></trkpt><trkpt lat="44.5334033" lon="8.0215867"><ele>595.1666666666667</ele><time>2026-05-01T12:59:37.155Z</time></trkpt><trkpt lat="44.533325" lon="8.0216033"><ele>595.3333333333334</ele><time>2026-05-01T12:59:38.153Z</time></trkpt><trkpt lat="44.5332717" lon="8.0216733"><ele>595.5</ele><time>2026-05-01T12:59:39.152Z</time></trkpt><trkpt lat="44.5332333" lon="8.0217517"><ele>595.6666666666666</ele><time>2026-05-01T12:59:40.158Z</time></trkpt><trkpt lat="44.53323" lon="8.0218633"><ele>595.8333333333333</ele><time>2026-05-01T12:59:41.157Z</time></trkpt><trkpt lat="44.5332517" lon="8.02199"><ele>596.0</ele><time>2026-05-01T12:59:42.156Z</time></trkpt><trkpt lat="44.5333217" lon="8.0221633"><ele>598.0</ele><time>2026-05-01T12:59:43.152Z</time></trkpt><trkpt lat="44.5334167" lon="8.0223667"><ele>600.0</ele><time>2026-05-01T12:59:44.153Z</time></trkpt><trkpt lat="44.5334933" lon="8.02257"><ele>602.0</ele><time>2026-05-01T12:59:45.15Z</time></trkpt><trkpt lat="44.5335733" lon="8.02278"><ele>601.6666666666666</ele><time>2026-05-01T12:59:46.155Z</time></trkpt><trkpt lat="44.5336567" lon="8.023"><ele>601.3333333333334</ele><time>2026-05-01T12:59:47.152Z</time></trkpt><trkpt lat="44.5337383" lon="8.0232183"><ele>601.0</ele><time>2026-05-01T12:59:48.155Z</time></trkpt><trkpt lat="44.5338083" lon="8.0234383"><ele>602.6666666666667</ele><time>2026-05-01T12:59:49.155Z</time></trkpt><trkpt lat="44.5338617" lon="8.0236467"><ele>604.3333333333334</ele><time>2026-05-01T12:59:50.154Z</time></trkpt><trkpt lat="44.5338917" lon="8.0238567"><ele>606.0</ele><time>2026-05-01T12:59:51.157Z</time></trkpt><trkpt lat="44.5339017" lon="8.024075"><ele>608.3333333333334</ele><time>2026-05-01T12:59:52.154Z</time></trkpt><trkpt lat="44.5339067" lon="8.0242967"><ele>610.6666666666667</ele><time>2026-05-01T12:59:53.156Z</time></trkpt><trkpt lat="44.5339217" lon="8.0245133"><ele>613.0</ele><time>2026-05-01T12:59:54.152Z</time></trkpt><trkpt lat="44.5339567" lon="8.0247133"><ele>613.0</ele><time>2026-05-01T12:59:55.153Z</time></trkpt><trkpt lat="44.5340117" lon="8.024905"><ele>613.0</ele><time>2026-05-01T12:59:56.153Z</time></trkpt><trkpt lat="44.5340867" lon="8.0250933"><ele>613.0</ele><time>2026-05-01T12:59:57.154Z</time></trkpt><trkpt lat="44.5341733" lon="8.0252833"><ele>613.75</ele><time>2026-05-01T12:59:58.155Z</time></trkpt><trkpt lat="44.5342583" lon="8.02547"><ele>614.5</ele><time>2026-05-01T12:59:59.156Z</time></trkpt><trkpt lat="44.5343367" lon="8.0256417"><ele>615.25</ele><time>2026-05-01T13:00:00.151Z</time></trkpt><trkpt lat="44.5343783" lon="8.0257783"><ele>616.0</ele><time>2026-05-01T13:00:01.162Z</time></trkpt><trkpt lat="44.534385" lon="8.0258983"><ele>617.0</ele><time>2026-05-01T13:00:02.154Z</time></trkpt><trkpt lat="44.534375" lon="8.0260033"><ele>618.0</ele><time>2026-05-01T13:00:03.158Z</time></trkpt><trkpt lat="44.534345" lon="8.0260917"><ele>619.0</ele><time>2026-05-01T13:00:04.155Z</time></trkpt><trkpt lat="44.534175" lon="8.0260483"><ele>620.0</ele><time>2026-05-01T13:00:06.153Z</time></trkpt><trkpt lat="44.5340667" lon="8.0259767"><ele>621.0</ele><time>2026-05-01T13:00:07.161Z</time></trkpt><trkpt lat="44.5339167" lon="8.0258783"><ele>622.3333333333334</ele><time>2026-05-01T13:00:08.154Z</time></trkpt><trkpt lat="44.5337633" lon="8.0257833"><ele>623.6666666666667</ele><time>2026-05-01T13:00:09.157Z</time></trkpt><trkpt lat="44.5336083" lon="8.02569"><ele>625.0</ele><time>2026-05-01T13:00:10.153Z</time></trkpt><trkpt lat="44.5334567" lon="8.0255933"><ele>625.0</ele><time>2026-05-01T13:00:11.154Z</time></trkpt><trkpt lat="44.5333217" lon="8.0255067"><ele>625.0</ele><time>2026-05-01T13:00:12.155Z</time></trkpt><trkpt lat="44.5332167" lon="8.0254483"><ele>625.0</ele><time>2026-05-01T13:00:13.155Z</time></trkpt><trkpt lat="44.5331333" lon="8.0254317"><ele>625.0</ele><time>2026-05-01T13:00:14.15Z</time></trkpt><trkpt lat="44.5330533" lon="8.0254483"><ele>625.0</ele><time>2026-05-01T13:00:15.153Z</time></trkpt><trkpt lat="44.533015" lon="8.0255267"><ele>625.0</ele><time>2026-05-01T13:00:16.15Z</time></trkpt><trkpt lat="44.532995" lon="8.0256167"><ele>625.0</ele><time>2026-05-01T13:00:17.157Z</time></trkpt><trkpt lat="44.533" lon="8.0257133"><ele>625.0</ele><time>2026-05-01T13:00:18.156Z</time></trkpt><trkpt lat="44.53307" lon="8.02585"><ele>625.0</ele><time>2026-05-01T13:00:19.156Z</time></trkpt><trkpt lat="44.5331517" lon="8.025985"><ele>625.0</ele><time>2026-05-01T13:00:20.153Z</time></trkpt><trkpt lat="44.5332367" lon="8.02613"><ele>626.0</ele><time>2026-05-01T13:00:21.154Z</time></trkpt><trkpt lat="44.5333283" lon="8.0263"><ele>627.0</ele><time>2026-05-01T13:00:22.155Z</time></trkpt><trkpt lat="44.5334183" lon="8.0264717"><ele>628.0</ele><time>2026-05-01T13:00:23.155Z</time></trkpt><trkpt lat="44.5335" lon="8.0266217"><ele>629.0</ele><time>2026-05-01T13:00:24.161Z</time></trkpt><trkpt lat="44.5335567" lon="8.0267483"><ele>630.0</ele><time>2026-05-01T13:00:25.157Z</time></trkpt><trkpt lat="44.5335817" lon="8.0268617"><ele>631.0</ele><time>2026-05-01T13:00:26.156Z</time></trkpt><trkpt lat="44.53359" lon="8.0269767"><ele>632.0</ele><time>2026-05-01T13:00:27.157Z</time></trkpt><trkpt lat="44.53353" lon="8.0270267"><ele>633.0</ele><time>2026-05-01T13:00:28.156Z</time></trkpt><trkpt lat="44.533465" lon="8.0270517"><ele>634.0</ele><time>2026-05-01T13:00:29.154Z</time></trkpt><trkpt lat="44.5333767" lon="8.0270233"><ele>635.0</ele><time>2026-05-01T13:00:30.151Z</time></trkpt><trkpt lat="44.53329" lon="8.0269767"><ele>635.0</ele><time>2026-05-01T13:00:31.154Z</time></trkpt><trkpt lat="44.5331883" lon="8.0269067"><ele>635.0</ele><time>2026-05-01T13:00:32.153Z</time></trkpt><trkpt lat="44.533055" lon="8.0268083"><ele>635.0</ele><time>2026-05-01T13:00:33.156Z</time></trkpt><trkpt lat="44.5329217" lon="8.02671"><ele>635.0</ele><time>2026-05-01T13:00:34.155Z</time></trkpt><trkpt lat="44.53279" lon="8.0266233"><ele>636.3333333333333</ele><time>2026-05-01T13:00:35.15Z</time></trkpt><trkpt lat="44.53265" lon="8.0265467"><ele>637.6666666666666</ele><time>2026-05-01T13:00:36.15Z</time></trkpt><trkpt lat="44.5324933" lon="8.0264883"><ele>639.0</ele><time>2026-05-01T13:00:37.163Z</time></trkpt><trkpt lat="44.5323333" lon="8.0264433"><ele>639.0</ele><time>2026-05-01T13:00:38.151Z</time></trkpt><trkpt lat="44.5321617" lon="8.02641"><ele>639.0</ele><time>2026-05-01T13:00:39.153Z</time></trkpt><trkpt lat="44.5319733" lon="8.0263667"><ele>639.0</ele><time>2026-05-01T13:00:40.16Z</time></trkpt><trkpt lat="44.5317717" lon="8.026315"><ele>641.3333333333334</ele><time>2026-05-01T13:00:41.154Z</time></trkpt><trkpt lat="44.53157" lon="8.0262667"><ele>643.6666666666667</ele><time>2026-05-01T13:00:42.157Z</time></trkpt><trkpt lat="44.5313767" lon="8.0262183"><ele>646.0</ele><time>2026-05-01T13:00:43.153Z</time></trkpt><trkpt lat="44.5311983" lon="8.0261733"><ele>647.0</ele><time>2026-05-01T13:00:44.154Z</time></trkpt><trkpt lat="44.5310417" lon="8.0261333"><ele>648.0</ele><time>2026-05-01T13:00:45.155Z</time></trkpt><trkpt lat="44.5309183" lon="8.0261033"><ele>649.0</ele><time>2026-05-01T13:00:46.156Z</time></trkpt><trkpt lat="44.53083" lon="8.0260983"><ele>650.0</ele><time>2026-05-01T13:00:47.153Z</time></trkpt><trkpt lat="44.530755" lon="8.026115"><ele>651.0</ele><time>2026-05-01T13:00:48.154Z</time></trkpt><trkpt lat="44.5306833" lon="8.0261567"><ele>651.0</ele><time>2026-05-01T13:00:49.158Z</time></trkpt><trkpt lat="44.5306383" lon="8.02622"><ele>651.0</ele><time>2026-05-01T13:00:50.154Z</time></trkpt><trkpt lat="44.530695" lon="8.0263867"><ele>651.0</ele><time>2026-05-01T13:00:51.154Z</time></trkpt><trkpt lat="44.5307117" lon="8.0265067"><ele>651.0</ele><time>2026-05-01T13:00:52.155Z</time></trkpt><trkpt lat="44.530745" lon="8.0266533"><ele>651.0</ele><time>2026-05-01T13:00:53.155Z</time></trkpt><trkpt lat="44.5307833" lon="8.02682"><ele>651.0</ele><time>2026-05-01T13:00:54.155Z</time></trkpt><trkpt lat="44.5308183" lon="8.0269833"><ele>651.0</ele><time>2026-05-01T13:00:55.155Z</time></trkpt><trkpt lat="44.5308517" lon="8.0271583"><ele>651.0</ele><time>2026-05-01T13:00:56.157Z</time></trkpt><trkpt lat="44.5308917" lon="8.0273483"><ele>651.0</ele><time>2026-05-01T13:00:57.154Z</time></trkpt><trkpt lat="44.5309333" lon="8.0275783"><ele>650.3333333333334</ele><time>2026-05-01T13:00:58.153Z</time></trkpt><trkpt lat="44.53097" lon="8.027835"><ele>649.6666666666667</ele><time>2026-05-01T13:00:59.152Z</time></trkpt><trkpt lat="44.531005" lon="8.0281033"><ele>649.0</ele><time>2026-05-01T13:01:00.156Z</time></trkpt><trkpt lat="44.53104" lon="8.0283583"><ele>649.0</ele><time>2026-05-01T13:01:01.158Z</time></trkpt><trkpt lat="44.5310767" lon="8.0285933"><ele>649.0</ele><time>2026-05-01T13:01:02.154Z</time></trkpt><trkpt lat="44.53111" lon="8.028805"><ele>649.0</ele><time>2026-05-01T13:01:03.152Z</time></trkpt><trkpt lat="44.531145" lon="8.0289917"><ele>648.5</ele><time>2026-05-01T13:01:04.152Z</time></trkpt><trkpt lat="44.5312033" lon="8.02915"><ele>648.0</ele><time>2026-05-01T13:01:05.155Z</time></trkpt><trkpt lat="44.5312883" lon="8.02927"><ele>647.5</ele><time>2026-05-01T13:01:06.155Z</time></trkpt><trkpt lat="44.5314033" lon="8.0293517"><ele>647.0</ele><time>2026-05-01T13:01:07.155Z</time></trkpt><trkpt lat="44.531535" lon="8.0294017"><ele>651.25</ele><time>2026-05-01T13:01:08.155Z</time></trkpt><trkpt lat="44.53167" lon="8.0294483"><ele>655.5</ele><time>2026-05-01T13:01:09.153Z</time></trkpt><trkpt lat="44.531805" lon="8.0295033"><ele>659.75</ele><time>2026-05-01T13:01:10.153Z</time></trkpt><trkpt lat="44.5319283" lon="8.0295783"><ele>664.0</ele><time>2026-05-01T13:01:11.155Z</time></trkpt><trkpt lat="44.5320267" lon="8.029685"><ele>664.0</ele><time>2026-05-01T13:01:12.156Z</time></trkpt><trkpt lat="44.5320917" lon="8.0298233"><ele>664.0</ele><time>2026-05-01T13:01:13.152Z</time></trkpt><trkpt lat="44.5321283" lon="8.0299767"><ele>664.0</ele><time>2026-05-01T13:01:14.154Z</time></trkpt><trkpt lat="44.53215" lon="8.03013"><ele>664.0</ele><time>2026-05-01T13:01:15.154Z</time></trkpt><trkpt lat="44.5321667" lon="8.0302833"><ele>664.6</ele><time>2026-05-01T13:01:16.154Z</time></trkpt><trkpt lat="44.53219" lon="8.0304183"><ele>665.2</ele><time>2026-05-01T13:01:17.155Z</time></trkpt><trkpt lat="44.5322217" lon="8.0305283"><ele>665.8000000000001</ele><time>2026-05-01T13:01:18.152Z</time></trkpt><trkpt lat="44.5322633" lon="8.0306333"><ele>666.4000000000001</ele><time>2026-05-01T13:01:19.157Z</time></trkpt><trkpt lat="44.5323167" lon="8.030745"><ele>667.0</ele><time>2026-05-01T13:01:20.153Z</time></trkpt><trkpt lat="44.5323767" lon="8.0308667"><ele>667.25</ele><time>2026-05-01T13:01:21.154Z</time></trkpt><trkpt lat="44.532445" lon="8.0309983"><ele>667.5</ele><time>2026-05-01T13:01:22.156Z</time></trkpt><trkpt lat="44.5325" lon="8.031145"><ele>667.75</ele><time>2026-05-01T13:01:23.157Z</time></trkpt><trkpt lat="44.532535" lon="8.0313033"><ele>668.0</ele><time>2026-05-01T13:01:24.154Z</time></trkpt><trkpt lat="44.5325383" lon="8.0314667"><ele>669.0</ele><time>2026-05-01T13:01:25.152Z</time></trkpt><trkpt lat="44.5325167" lon="8.0316417"><ele>670.0</ele><time>2026-05-01T13:01:26.159Z</time></trkpt><trkpt lat="44.53247" lon="8.0318317"><ele>671.0</ele><time>2026-05-01T13:01:27.158Z</time></trkpt><trkpt lat="44.5324133" lon="8.0320333"><ele>672.0</ele><time>2026-05-01T13:01:28.155Z</time></trkpt><trkpt lat="44.53235" lon="8.032235"><ele>672.0</ele><time>2026-05-01T13:01:29.153Z</time></trkpt><trkpt lat="44.532285" lon="8.0324283"><ele>672.0</ele><time>2026-05-01T13:01:30.157Z</time></trkpt><trkpt lat="44.5321983" lon="8.0325883"><ele>672.0</ele><time>2026-05-01T13:01:31.156Z</time></trkpt><trkpt lat="44.5320917" lon="8.0327333"><ele>672.0</ele><time>2026-05-01T13:01:32.151Z</time></trkpt><trkpt lat="44.5319817" lon="8.0328683"><ele>673.3333333333334</ele><time>2026-05-01T13:01:33.154Z</time></trkpt><trkpt lat="44.5318783" lon="8.0330167"><ele>674.6666666666667</ele><time>2026-05-01T13:01:34.156Z</time></trkpt><trkpt lat="44.5317917" lon="8.0331967"><ele>676.0</ele><time>2026-05-01T13:01:35.154Z</time></trkpt><trkpt lat="44.53172" lon="8.03339"><ele>676.0</ele><time>2026-05-01T13:01:36.155Z</time></trkpt><trkpt lat="44.5316533" lon="8.0335883"><ele>676.0</ele><time>2026-05-01T13:01:37.153Z</time></trkpt><trkpt lat="44.531605" lon="8.0337767"><ele>676.0</ele><time>2026-05-01T13:01:38.152Z</time></trkpt><trkpt lat="44.5315683" lon="8.033945"><ele>676.0</ele><time>2026-05-01T13:01:39.153Z</time></trkpt><trkpt lat="44.5315517" lon="8.0340967"><ele>677.8</ele><time>2026-05-01T13:01:40.154Z</time></trkpt><trkpt lat="44.531575" lon="8.034235"><ele>679.5999999999999</ele><time>2026-05-01T13:01:41.151Z</time></trkpt><trkpt lat="44.5316317" lon="8.03437"><ele>681.4</ele><time>2026-05-01T13:01:42.155Z</time></trkpt><trkpt lat="44.531705" lon="8.0344833"><ele>683.2</ele><time>2026-05-01T13:01:43.153Z</time></trkpt><trkpt lat="44.531795" lon="8.034595"><ele>685.0</ele><time>2026-05-01T13:01:44.155Z</time></trkpt><trkpt lat="44.5318867" lon="8.0347067"><ele>685.0</ele><time>2026-05-01T13:01:45.155Z</time></trkpt><trkpt lat="44.5319683" lon="8.03482"><ele>685.0</ele><time>2026-05-01T13:01:46.153Z</time></trkpt><trkpt lat="44.53203" lon="8.03496"><ele>685.0</ele><time>2026-05-01T13:01:47.155Z</time></trkpt><trkpt lat="44.5320783" lon="8.0351133"><ele>685.0</ele><time>2026-05-01T13:01:48.156Z</time></trkpt><trkpt lat="44.5320767" lon="8.0352933"><ele>684.5</ele><time>2026-05-01T13:01:49.152Z</time></trkpt><trkpt lat="44.53204" lon="8.0354733"><ele>684.0</ele><time>2026-05-01T13:01:50.154Z</time></trkpt><trkpt lat="44.531995" lon="8.03565"><ele>683.5</ele><time>2026-05-01T13:01:51.151Z</time></trkpt><trkpt lat="44.5319367" lon="8.03583"><ele>683.0</ele><time>2026-05-01T13:01:52.154Z</time></trkpt><trkpt lat="44.5318683" lon="8.03602"><ele>683.0</ele><time>2026-05-01T13:01:53.152Z</time></trkpt><trkpt lat="44.5318017" lon="8.0362067"><ele>683.0</ele><time>2026-05-01T13:01:54.156Z</time></trkpt><trkpt lat="44.5317467" lon="8.0363833"><ele>683.0</ele><time>2026-05-01T13:01:55.156Z</time></trkpt><trkpt lat="44.5317117" lon="8.036565"><ele>683.0</ele><time>2026-05-01T13:01:56.155Z</time></trkpt><trkpt lat="44.53167" lon="8.03674"><ele>685.75</ele><time>2026-05-01T13:01:57.155Z</time></trkpt><trkpt lat="44.5316467" lon="8.0369233"><ele>688.5</ele><time>2026-05-01T13:01:58.159Z</time></trkpt><trkpt lat="44.5316317" lon="8.0371067"><ele>691.25</ele><time>2026-05-01T13:01:59.161Z</time></trkpt><trkpt lat="44.531625" lon="8.0372733"><ele>694.0</ele><time>2026-05-01T13:02:00.155Z</time></trkpt><trkpt lat="44.5316417" lon="8.0374233"><ele>694.25</ele><time>2026-05-01T13:02:01.161Z</time></trkpt><trkpt lat="44.5316833" lon="8.0375683"><ele>694.5</ele><time>2026-05-01T13:02:02.154Z</time></trkpt><trkpt lat="44.5317517" lon="8.0377033"><ele>694.75</ele><time>2026-05-01T13:02:03.157Z</time></trkpt><trkpt lat="44.5318167" lon="8.037845"><ele>695.0</ele><time>2026-05-01T13:02:04.156Z</time></trkpt><trkpt lat="44.5318667" lon="8.0380017"><ele>695.0</ele><time>2026-05-01T13:02:05.151Z</time></trkpt><trkpt lat="44.5318967" lon="8.03818"><ele>695.0</ele><time>2026-05-01T13:02:06.154Z</time></trkpt><trkpt lat="44.531915" lon="8.0383617"><ele>695.0</ele><time>2026-05-01T13:02:07.155Z</time></trkpt><trkpt lat="44.5319467" lon="8.038545"><ele>695.0</ele><time>2026-05-01T13:02:08.154Z</time></trkpt><trkpt lat="44.532" lon="8.0387233"><ele>701.3333333333333</ele><time>2026-05-01T13:02:09.151Z</time></trkpt><trkpt lat="44.5320717" lon="8.038905"><ele>707.6666666666666</ele><time>2026-05-01T13:02:10.152Z</time></trkpt><trkpt lat="44.53215" lon="8.0390917"><ele>714.0</ele><time>2026-05-01T13:02:11.151Z</time></trkpt><trkpt lat="44.5322283" lon="8.0392867"><ele>714.0</ele><time>2026-05-01T13:02:12.154Z</time></trkpt><trkpt lat="44.5323067" lon="8.039495"><ele>714.0</ele><time>2026-05-01T13:02:13.156Z</time></trkpt><trkpt lat="44.5323783" lon="8.03971"><ele>714.0</ele><time>2026-05-01T13:02:14.159Z</time></trkpt><trkpt lat="44.5324633" lon="8.03992"><ele>711.0</ele><time>2026-05-01T13:02:15.155Z</time></trkpt><trkpt lat="44.5325683" lon="8.04013"><ele>708.0</ele><time>2026-05-01T13:02:16.157Z</time></trkpt><trkpt lat="44.5326767" lon="8.040325"><ele>705.0</ele><time>2026-05-01T13:02:17.152Z</time></trkpt><trkpt lat="44.5327783" lon="8.0405217"><ele>705.0</ele><time>2026-05-01T13:02:18.155Z</time></trkpt><trkpt lat="44.532885" lon="8.040725"><ele>705.0</ele><time>2026-05-01T13:02:19.157Z</time></trkpt><trkpt lat="44.532995" lon="8.0409267"><ele>705.0</ele><time>2026-05-01T13:02:20.156Z</time></trkpt><trkpt lat="44.5331033" lon="8.0411283"><ele>709.0</ele><time>2026-05-01T13:02:21.153Z</time></trkpt><trkpt lat="44.53321" lon="8.0413267"><ele>713.0</ele><time>2026-05-01T13:02:22.157Z</time></trkpt><trkpt lat="44.5333083" lon="8.0415133"><ele>717.0</ele><time>2026-05-01T13:02:23.155Z</time></trkpt><trkpt lat="44.5333917" lon="8.0416983"><ele>717.0</ele><time>2026-05-01T13:02:24.153Z</time></trkpt><trkpt lat="44.5334567" lon="8.0418817"><ele>717.0</ele><time>2026-05-01T13:02:25.153Z</time></trkpt><trkpt lat="44.5334983" lon="8.042065"><ele>717.0</ele><time>2026-05-01T13:02:26.156Z</time></trkpt><trkpt lat="44.5335117" lon="8.0422617"><ele>717.0</ele><time>2026-05-01T13:02:27.156Z</time></trkpt><trkpt lat="44.5335" lon="8.0424717"><ele>717.0</ele><time>2026-05-01T13:02:28.153Z</time></trkpt><trkpt lat="44.5334867" lon="8.0426933"><ele>717.0</ele><time>2026-05-01T13:02:29.155Z</time></trkpt><trkpt lat="44.53346" lon="8.0429317"><ele>717.0</ele><time>2026-05-01T13:02:30.154Z</time></trkpt><trkpt lat="44.5334467" lon="8.0431767"><ele>717.3333333333334</ele><time>2026-05-01T13:02:31.157Z</time></trkpt><trkpt lat="44.5334267" lon="8.043415"><ele>717.6666666666667</ele><time>2026-05-01T13:02:32.155Z</time></trkpt><trkpt lat="44.5334067" lon="8.04365"><ele>718.0</ele><time>2026-05-01T13:02:33.159Z</time></trkpt><trkpt lat="44.533385" lon="8.0438633"><ele>718.0</ele><time>2026-05-01T13:02:34.162Z</time></trkpt><trkpt lat="44.5333533" lon="8.0440417"><ele>718.0</ele><time>2026-05-01T13:02:35.153Z</time></trkpt><trkpt lat="44.5332883" lon="8.0441833"><ele>718.0</ele><time>2026-05-01T13:02:36.156Z</time></trkpt><trkpt lat="44.53321" lon="8.04432"><ele>718.0</ele><time>2026-05-01T13:02:37.158Z</time></trkpt><trkpt lat="44.53311" lon="8.04445"><ele>718.75</ele><time>2026-05-01T13:02:38.152Z</time></trkpt><trkpt lat="44.5330033" lon="8.0445883"><ele>719.5</ele><time>2026-05-01T13:02:39.15Z</time></trkpt><trkpt lat="44.5328933" lon="8.0447283"><ele>720.25</ele><time>2026-05-01T13:02:40.156Z</time></trkpt><trkpt lat="44.5327883" lon="8.0448767"><ele>721.0</ele><time>2026-05-01T13:02:41.154Z</time></trkpt><trkpt lat="44.532695" lon="8.0450267"><ele>721.0</ele><time>2026-05-01T13:02:42.154Z</time></trkpt><trkpt lat="44.5326233" lon="8.045205"><ele>721.0</ele><time>2026-05-01T13:02:43.155Z</time></trkpt><trkpt lat="44.5325667" lon="8.045385"><ele>721.0</ele><time>2026-05-01T13:02:44.158Z</time></trkpt><trkpt lat="44.53253" lon="8.0455733"><ele>721.0</ele><time>2026-05-01T13:02:45.155Z</time></trkpt><trkpt lat="44.5324983" lon="8.04576"><ele>722.1999999999999</ele><time>2026-05-01T13:02:46.154Z</time></trkpt><trkpt lat="44.5324667" lon="8.0459367"><ele>723.4</ele><time>2026-05-01T13:02:47.156Z</time></trkpt><trkpt lat="44.5324367" lon="8.0460883"><ele>724.6</ele><time>2026-05-01T13:02:48.153Z</time></trkpt><trkpt lat="44.53241" lon="8.0462083"><ele>725.8</ele><time>2026-05-01T13:02:49.165Z</time></trkpt><trkpt lat="44.5323833" lon="8.0463083"><ele>727.0</ele><time>2026-05-01T13:02:50.149Z</time></trkpt><trkpt lat="44.532345" lon="8.04641"><ele>727.0</ele><time>2026-05-01T13:02:51.149Z</time></trkpt><trkpt lat="44.5322883" lon="8.0465067"><ele>727.0</ele><time>2026-05-01T13:02:52.157Z</time></trkpt><trkpt lat="44.532225" lon="8.046605"><ele>727.0</ele><time>2026-05-01T13:02:53.15Z</time></trkpt><trkpt lat="44.5321383" lon="8.0466883"><ele>727.0</ele><time>2026-05-01T13:02:54.152Z</time></trkpt><trkpt lat="44.532035" lon="8.0467467"><ele>727.0</ele><time>2026-05-01T13:02:55.158Z</time></trkpt><trkpt lat="44.5319283" lon="8.046795"><ele>726.75</ele><time>2026-05-01T13:02:56.155Z</time></trkpt><trkpt lat="44.5318167" lon="8.0468367"><ele>726.5</ele><time>2026-05-01T13:02:57.157Z</time></trkpt><trkpt lat="44.5317" lon="8.0468767"><ele>726.25</ele><time>2026-05-01T13:02:58.153Z</time></trkpt><trkpt lat="44.5315767" lon="8.046925"><ele>726.0</ele><time>2026-05-01T13:02:59.154Z</time></trkpt><trkpt lat="44.53145" lon="8.0469683"><ele>726.0</ele><time>2026-05-01T13:03:00.155Z</time></trkpt><trkpt lat="44.5313333" lon="8.0470433"><ele>726.0</ele><time>2026-05-01T13:03:01.15Z</time></trkpt><trkpt lat="44.53121" lon="8.0471083"><ele>726.0</ele><time>2026-05-01T13:03:02.153Z</time></trkpt><trkpt lat="44.5310883" lon="8.04719"><ele>726.0</ele><time>2026-05-01T13:03:03.152Z</time></trkpt><trkpt lat="44.5309717" lon="8.0472883"><ele>727.25</ele><time>2026-05-01T13:03:04.156Z</time></trkpt><trkpt lat="44.5308567" lon="8.0474017"><ele>728.5</ele><time>2026-05-01T13:03:05.156Z</time></trkpt><trkpt lat="44.5307433" lon="8.0475267"><ele>729.75</ele><time>2026-05-01T13:03:06.151Z</time></trkpt><trkpt lat="44.5306333" lon="8.04766"><ele>731.0</ele><time>2026-05-01T13:03:07.157Z</time></trkpt><trkpt lat="44.5305233" lon="8.0477883"><ele>731.0</ele><time>2026-05-01T13:03:08.156Z</time></trkpt><trkpt lat="44.53042" lon="8.0479167"><ele>731.0</ele><time>2026-05-01T13:03:09.152Z</time></trkpt><trkpt lat="44.5303183" lon="8.04804"><ele>731.0</ele><time>2026-05-01T13:03:10.151Z</time></trkpt><trkpt lat="44.53022" lon="8.048165"><ele>731.0</ele><time>2026-05-01T13:03:11.153Z</time></trkpt><trkpt lat="44.5301233" lon="8.0482883"><ele>731.75</ele><time>2026-05-01T13:03:12.156Z</time></trkpt><trkpt lat="44.5300267" lon="8.0484167"><ele>732.5</ele><time>2026-05-01T13:03:13.157Z</time></trkpt><trkpt lat="44.529935" lon="8.04855"><ele>733.25</ele><time>2026-05-01T13:03:14.156Z</time></trkpt><trkpt lat="44.5298367" lon="8.0486833"><ele>734.0</ele><time>2026-05-01T13:03:15.151Z</time></trkpt><trkpt lat="44.5297383" lon="8.0488183"><ele>734.0</ele><time>2026-05-01T13:03:16.153Z</time></trkpt><trkpt lat="44.5296367" lon="8.0489517"><ele>734.0</ele><time>2026-05-01T13:03:17.152Z</time></trkpt><trkpt lat="44.529535" lon="8.0490867"><ele>734.0</ele><time>2026-05-01T13:03:18.154Z</time></trkpt><trkpt lat="44.5294283" lon="8.04922"><ele>734.0</ele><time>2026-05-01T13:03:19.153Z</time></trkpt><trkpt lat="44.5293233" lon="8.049345"><ele>735.75</ele><time>2026-05-01T13:03:20.153Z</time></trkpt><trkpt lat="44.5292133" lon="8.04946"><ele>737.5</ele><time>2026-05-01T13:03:21.155Z</time></trkpt><trkpt lat="44.5290967" lon="8.04957"><ele>739.25</ele><time>2026-05-01T13:03:22.154Z</time></trkpt><trkpt lat="44.52898" lon="8.0496733"><ele>741.0</ele><time>2026-05-01T13:03:23.156Z</time></trkpt><trkpt lat="44.52887" lon="8.0497783"><ele>741.0</ele><time>2026-05-01T13:03:24.157Z</time></trkpt><trkpt lat="44.52875" lon="8.04987"><ele>741.0</ele><time>2026-05-01T13:03:25.156Z</time></trkpt><trkpt lat="44.52863" lon="8.04996"><ele>741.0</ele><time>2026-05-01T13:03:26.156Z</time></trkpt><trkpt lat="44.5285083" lon="8.0500433"><ele>741.0</ele><time>2026-05-01T13:03:27.155Z</time></trkpt><trkpt lat="44.528375" lon="8.0501167"><ele>742.5999999999999</ele><time>2026-05-01T13:03:28.154Z</time></trkpt><trkpt lat="44.5282633" lon="8.0501817"><ele>744.2</ele><time>2026-05-01T13:03:29.16Z</time></trkpt><trkpt lat="44.52816" lon="8.0502333"><ele>745.8</ele><time>2026-05-01T13:03:30.161Z</time></trkpt><trkpt lat="44.5280617" lon="8.050275"><ele>747.4000000000001</ele><time>2026-05-01T13:03:31.156Z</time></trkpt><trkpt lat="44.5279717" lon="8.05031"><ele>749.0</ele><time>2026-05-01T13:03:32.153Z</time></trkpt><trkpt lat="44.527885" lon="8.0503433"><ele>749.0</ele><time>2026-05-01T13:03:33.149Z</time></trkpt><trkpt lat="44.5278067" lon="8.0503717"><ele>749.0</ele><time>2026-05-01T13:03:34.154Z</time></trkpt><trkpt lat="44.527735" lon="8.0504"><ele>749.0</ele><time>2026-05-01T13:03:35.154Z</time></trkpt><trkpt lat="44.5276333" lon="8.05048"><ele>749.0</ele><time>2026-05-01T13:03:37.151Z</time></trkpt><trkpt lat="44.5275967" lon="8.0506083"><ele>749.0</ele><time>2026-05-01T13:03:39.157Z</time></trkpt><trkpt lat="44.5276217" lon="8.0507133"><ele>749.0</ele><time>2026-05-01T13:03:41.153Z</time></trkpt><trkpt lat="44.527725" lon="8.0507983"><ele>749.4000000000001</ele><time>2026-05-01T13:03:43.154Z</time></trkpt><trkpt lat="44.527825" lon="8.050825"><ele>749.8</ele><time>2026-05-01T13:03:44.155Z</time></trkpt><trkpt lat="44.5279417" lon="8.05084"><ele>750.2</ele><time>2026-05-01T13:03:45.151Z</time></trkpt><trkpt lat="44.5280417" lon="8.0508633"><ele>750.5999999999999</ele><time>2026-05-01T13:03:46.153Z</time></trkpt><trkpt lat="44.5281317" lon="8.0508933"><ele>751.0</ele><time>2026-05-01T13:03:47.154Z</time></trkpt><trkpt lat="44.5282217" lon="8.0509483"><ele>751.0</ele><time>2026-05-01T13:03:48.153Z</time></trkpt><trkpt lat="44.52831" lon="8.0510283"><ele>751.0</ele><time>2026-05-01T13:03:49.156Z</time></trkpt><trkpt lat="44.52839" lon="8.0511383"><ele>751.0</ele><time>2026-05-01T13:03:50.154Z</time></trkpt><trkpt lat="44.5284667" lon="8.0512683"><ele>751.0</ele><time>2026-05-01T13:03:51.155Z</time></trkpt><trkpt lat="44.5285283" lon="8.051405"><ele>751.0</ele><time>2026-05-01T13:03:52.156Z</time></trkpt><trkpt lat="44.5285583" lon="8.05154"><ele>751.0</ele><time>2026-05-01T13:03:53.154Z</time></trkpt><trkpt lat="44.528585" lon="8.051675"><ele>751.0</ele><time>2026-05-01T13:03:54.153Z</time></trkpt><trkpt lat="44.5286067" lon="8.0518"><ele>751.0</ele><time>2026-05-01T13:03:55.157Z</time></trkpt><trkpt lat="44.528625" lon="8.051915"><ele>751.0</ele><time>2026-05-01T13:03:56.153Z</time></trkpt><trkpt lat="44.5286433" lon="8.0520167"><ele>750.8333333333334</ele><time>2026-05-01T13:03:57.153Z</time></trkpt><trkpt lat="44.5286417" lon="8.0521067"><ele>750.6666666666667</ele><time>2026-05-01T13:03:58.153Z</time></trkpt><trkpt lat="44.5286383" lon="8.0522467"><ele>750.5</ele><time>2026-05-01T13:04:00.157Z</time></trkpt><trkpt lat="44.528645" lon="8.0523533"><ele>750.3333333333334</ele><time>2026-05-01T13:04:03.154Z</time></trkpt><trkpt lat="44.5285917" lon="8.0524767"><ele>750.1666666666666</ele><time>2026-05-01T13:04:06.157Z</time></trkpt><trkpt lat="44.5285567" lon="8.052605"><ele>750.0</ele><time>2026-05-01T13:04:08.153Z</time></trkpt><trkpt lat="44.528555" lon="8.05275"><ele>748.0</ele><time>2026-05-01T13:04:10.153Z</time></trkpt><trkpt lat="44.52852" lon="8.0528983"><ele>746.0</ele><time>2026-05-01T13:04:12.157Z</time></trkpt><trkpt lat="44.5284567" lon="8.05305"><ele>744.0</ele><time>2026-05-01T13:04:14.158Z</time></trkpt><trkpt lat="44.52842" lon="8.0531383"><ele>742.0</ele><time>2026-05-01T13:04:15.154Z</time></trkpt><trkpt lat="44.5283717" lon="8.0532167"><ele>740.0</ele><time>2026-05-01T13:04:16.157Z</time></trkpt><trkpt lat="44.528315" lon="8.0532967"><ele>739.3333333333333</ele><time>2026-05-01T13:04:17.157Z</time></trkpt><trkpt lat="44.5282517" lon="8.0533783"><ele>738.6666666666666</ele><time>2026-05-01T13:04:18.149Z</time></trkpt><trkpt lat="44.52818" lon="8.0534483"><ele>738.0</ele><time>2026-05-01T13:04:19.152Z</time></trkpt><trkpt lat="44.5281167" lon="8.0535067"><ele>737.3333333333334</ele><time>2026-05-01T13:04:20.149Z</time></trkpt><trkpt lat="44.5280483" lon="8.0535517"><ele>736.6666666666667</ele><time>2026-05-01T13:04:21.158Z</time></trkpt><trkpt lat="44.527975" lon="8.053595"><ele>736.0</ele><time>2026-05-01T13:04:22.15Z</time></trkpt><trkpt lat="44.5279" lon="8.053645"><ele>733.8</ele><time>2026-05-01T13:04:23.155Z</time></trkpt><trkpt lat="44.5278183" lon="8.053695"><ele>731.5999999999999</ele><time>2026-05-01T13:04:24.156Z</time></trkpt><trkpt lat="44.5277533" lon="8.0537617"><ele>729.4</ele><time>2026-05-01T13:04:25.15Z</time></trkpt><trkpt lat="44.52768" lon="8.0538433"><ele>727.2</ele><time>2026-05-01T13:04:26.155Z</time></trkpt><trkpt lat="44.5275883" lon="8.0539233"><ele>725.0</ele><time>2026-05-01T13:04:27.155Z</time></trkpt><trkpt lat="44.5275167" lon="8.054035"><ele>726.8</ele><time>2026-05-01T13:04:28.154Z</time></trkpt><trkpt lat="44.5274517" lon="8.0541533"><ele>728.6</ele><time>2026-05-01T13:04:29.155Z</time></trkpt><trkpt lat="44.5273867" lon="8.0542783"><ele>730.4000000000001</ele><time>2026-05-01T13:04:30.156Z</time></trkpt><trkpt lat="44.5273117" lon="8.05439"><ele>732.2</ele><time>2026-05-01T13:04:31.16Z</time></trkpt><trkpt lat="44.5272233" lon="8.054485"><ele>734.0</ele><time>2026-05-01T13:04:32.155Z</time></trkpt><trkpt lat="44.5271267" lon="8.054565"><ele>728.2</ele><time>2026-05-01T13:04:33.152Z</time></trkpt><trkpt lat="44.5270183" lon="8.0546283"><ele>722.4000000000001</ele><time>2026-05-01T13:04:34.15Z</time></trkpt><trkpt lat="44.5269133" lon="8.0546817"><ele>716.6</ele><time>2026-05-01T13:04:35.151Z</time></trkpt><trkpt lat="44.5268167" lon="8.05474"><ele>710.8</ele><time>2026-05-01T13:04:36.155Z</time></trkpt><trkpt lat="44.526725" lon="8.0548033"><ele>705.0</ele><time>2026-05-01T13:04:37.158Z</time></trkpt><trkpt lat="44.5266367" lon="8.0548767"><ele>709.0</ele><time>2026-05-01T13:04:38.149Z</time></trkpt><trkpt lat="44.5265633" lon="8.0549767"><ele>713.0</ele><time>2026-05-01T13:04:39.153Z</time></trkpt><trkpt lat="44.5264967" lon="8.0550983"><ele>717.0</ele><time>2026-05-01T13:04:40.152Z</time></trkpt><trkpt lat="44.52644" lon="8.0552433"><ele>721.0</ele><time>2026-05-01T13:04:41.155Z</time></trkpt><trkpt lat="44.5263767" lon="8.0553983"><ele>721.0</ele><time>2026-05-01T13:04:42.155Z</time></trkpt><trkpt lat="44.526295" lon="8.0555483"><ele>721.0</ele><time>2026-05-01T13:04:43.156Z</time></trkpt><trkpt lat="44.5262067" lon="8.0556983"><ele>721.0</ele><time>2026-05-01T13:04:44.157Z</time></trkpt><trkpt lat="44.5261167" lon="8.05586"><ele>721.0</ele><time>2026-05-01T13:04:45.153Z</time></trkpt><trkpt lat="44.52604" lon="8.05603"><ele>713.0</ele><time>2026-05-01T13:04:46.161Z</time></trkpt><trkpt lat="44.5259567" lon="8.0561967"><ele>705.0</ele><time>2026-05-01T13:04:47.153Z</time></trkpt><trkpt lat="44.5258617" lon="8.0563667"><ele>697.0</ele><time>2026-05-01T13:04:48.157Z</time></trkpt><trkpt lat="44.5257483" lon="8.0565283"><ele>702.3333333333334</ele><time>2026-05-01T13:04:49.154Z</time></trkpt><trkpt lat="44.525635" lon="8.056695"><ele>707.6666666666666</ele><time>2026-05-01T13:04:50.153Z</time></trkpt><trkpt lat="44.5255283" lon="8.05687"><ele>713.0</ele><time>2026-05-01T13:04:51.152Z</time></trkpt><trkpt lat="44.5254117" lon="8.0570333"><ele>707.3333333333333</ele><time>2026-05-01T13:04:52.154Z</time></trkpt><trkpt lat="44.5252967" lon="8.0572017"><ele>701.6666666666666</ele><time>2026-05-01T13:04:53.156Z</time></trkpt><trkpt lat="44.52518" lon="8.0573667"><ele>696.0</ele><time>2026-05-01T13:04:54.155Z</time></trkpt><trkpt lat="44.5250733" lon="8.0575317"><ele>696.0</ele><time>2026-05-01T13:04:55.154Z</time></trkpt><trkpt lat="44.5249783" lon="8.057695"><ele>696.0</ele><time>2026-05-01T13:04:56.156Z</time></trkpt><trkpt lat="44.5248733" lon="8.0578417"><ele>696.0</ele><time>2026-05-01T13:04:57.153Z</time></trkpt><trkpt lat="44.5247533" lon="8.0579567"><ele>696.0</ele><time>2026-05-01T13:04:58.154Z</time></trkpt><trkpt lat="44.5246267" lon="8.0580633"><ele>693.25</ele><time>2026-05-01T13:04:59.151Z</time></trkpt><trkpt lat="44.524495" lon="8.0581533"><ele>690.5</ele><time>2026-05-01T13:05:00.156Z</time></trkpt><trkpt lat="44.52436" lon="8.0582383"><ele>687.75</ele><time>2026-05-01T13:05:01.151Z</time></trkpt><trkpt lat="44.5242283" lon="8.0583333"><ele>685.0</ele><time>2026-05-01T13:05:02.157Z</time></trkpt><trkpt lat="44.524095" lon="8.0584267"><ele>685.0</ele><time>2026-05-01T13:05:03.155Z</time></trkpt><trkpt lat="44.5239633" lon="8.0585283"><ele>685.0</ele><time>2026-05-01T13:05:04.153Z</time></trkpt><trkpt lat="44.5238367" lon="8.0586383"><ele>685.0</ele><time>2026-05-01T13:05:05.153Z</time></trkpt><trkpt lat="44.5237083" lon="8.058755"><ele>683.0</ele><time>2026-05-01T13:05:06.15Z</time></trkpt><trkpt lat="44.5235817" lon="8.0588817"><ele>681.0</ele><time>2026-05-01T13:05:07.155Z</time></trkpt><trkpt lat="44.5234617" lon="8.0590217"><ele>679.0</ele><time>2026-05-01T13:05:08.15Z</time></trkpt><trkpt lat="44.523345" lon="8.0591717"><ele>679.0</ele><time>2026-05-01T13:05:09.154Z</time></trkpt><trkpt lat="44.523235" lon="8.0593333"><ele>679.0</ele><time>2026-05-01T13:05:10.153Z</time></trkpt><trkpt lat="44.52313" lon="8.0595017"><ele>679.0</ele><time>2026-05-01T13:05:11.152Z</time></trkpt><trkpt lat="44.5230367" lon="8.0596617"><ele>679.0</ele><time>2026-05-01T13:05:12.151Z</time></trkpt><trkpt lat="44.5229633" lon="8.059805"><ele>679.0</ele><time>2026-05-01T13:05:13.154Z</time></trkpt><trkpt lat="44.5229167" lon="8.0599533"><ele>679.0</ele><time>2026-05-01T13:05:14.154Z</time></trkpt><trkpt lat="44.5228917" lon="8.060115"><ele>679.0</ele><time>2026-05-01T13:05:15.152Z</time></trkpt><trkpt lat="44.52289" lon="8.0602867"><ele>675.5</ele><time>2026-05-01T13:05:16.157Z</time></trkpt><trkpt lat="44.5228933" lon="8.0604717"><ele>672.0</ele><time>2026-05-01T13:05:17.155Z</time></trkpt><trkpt lat="44.5228817" lon="8.0606533"><ele>668.5</ele><time>2026-05-01T13:05:18.153Z</time></trkpt><trkpt lat="44.5228433" lon="8.0608017"><ele>665.0</ele><time>2026-05-01T13:05:19.154Z</time></trkpt><trkpt lat="44.52278" lon="8.0609233"><ele>665.0</ele><time>2026-05-01T13:05:20.152Z</time></trkpt><trkpt lat="44.5226917" lon="8.0610233"><ele>665.0</ele><time>2026-05-01T13:05:21.15Z</time></trkpt><trkpt lat="44.522575" lon="8.0611033"><ele>665.0</ele><time>2026-05-01T13:05:22.155Z</time></trkpt><trkpt lat="44.522455" lon="8.06118"><ele>665.0</ele><time>2026-05-01T13:05:23.152Z</time></trkpt><trkpt lat="44.52232" lon="8.0612333"><ele>665.0</ele><time>2026-05-01T13:05:24.156Z</time></trkpt><trkpt lat="44.5221917" lon="8.0613067"><ele>665.0</ele><time>2026-05-01T13:05:25.15Z</time></trkpt><trkpt lat="44.5220567" lon="8.06139"><ele>665.0</ele><time>2026-05-01T13:05:26.155Z</time></trkpt><trkpt lat="44.5219317" lon="8.0614833"><ele>665.0</ele><time>2026-05-01T13:05:27.153Z</time></trkpt><trkpt lat="44.5218167" lon="8.0615933"><ele>662.0</ele><time>2026-05-01T13:05:28.151Z</time></trkpt><trkpt lat="44.5217217" lon="8.0617317"><ele>659.0</ele><time>2026-05-01T13:05:29.153Z</time></trkpt><trkpt lat="44.5216417" lon="8.0618967"><ele>656.0</ele><time>2026-05-01T13:05:30.154Z</time></trkpt><trkpt lat="44.5215633" lon="8.0620567"><ele>653.0</ele><time>2026-05-01T13:05:31.156Z</time></trkpt><trkpt lat="44.5214983" lon="8.0621933"><ele>653.0</ele><time>2026-05-01T13:05:32.155Z</time></trkpt><trkpt lat="44.5214533" lon="8.0623033"><ele>653.0</ele><time>2026-05-01T13:05:33.151Z</time></trkpt><trkpt lat="44.52143" lon="8.0624033"><ele>653.0</ele><time>2026-05-01T13:05:34.154Z</time></trkpt><trkpt lat="44.52146" lon="8.062505"><ele>653.0</ele><time>2026-05-01T13:05:35.154Z</time></trkpt><trkpt lat="44.521495" lon="8.0625833"><ele>653.0</ele><time>2026-05-01T13:05:36.155Z</time></trkpt><trkpt lat="44.521595" lon="8.062615"><ele>653.0</ele><time>2026-05-01T13:05:37.161Z</time></trkpt><trkpt lat="44.521695" lon="8.0626317"><ele>652.5</ele><time>2026-05-01T13:05:38.159Z</time></trkpt><trkpt lat="44.5218167" lon="8.062635"><ele>652.0</ele><time>2026-05-01T13:05:39.155Z</time></trkpt><trkpt lat="44.5219467" lon="8.062645"><ele>651.5</ele><time>2026-05-01T13:05:40.156Z</time></trkpt><trkpt lat="44.5220683" lon="8.062685"><ele>651.0</ele><time>2026-05-01T13:05:41.154Z</time></trkpt><trkpt lat="44.5221883" lon="8.0627383"><ele>654.0</ele><time>2026-05-01T13:05:42.151Z</time></trkpt><trkpt lat="44.5222917" lon="8.06282"><ele>657.0</ele><time>2026-05-01T13:05:43.16Z</time></trkpt><trkpt lat="44.5224067" lon="8.0628717"><ele>660.0</ele><time>2026-05-01T13:05:44.152Z</time></trkpt><trkpt lat="44.5225167" lon="8.0628967"><ele>663.0</ele><time>2026-05-01T13:05:45.152Z</time></trkpt><trkpt lat="44.522635" lon="8.0628783"><ele>663.0</ele><time>2026-05-01T13:05:46.153Z</time></trkpt><trkpt lat="44.5227567" lon="8.0628433"><ele>663.0</ele><time>2026-05-01T13:05:47.152Z</time></trkpt><trkpt lat="44.52288" lon="8.0628283"><ele>663.0</ele><time>2026-05-01T13:05:48.153Z</time></trkpt><trkpt lat="44.523" lon="8.0628417"><ele>663.0</ele><time>2026-05-01T13:05:49.151Z</time></trkpt><trkpt lat="44.523125" lon="8.0628817"><ele>663.75</ele><time>2026-05-01T13:05:50.159Z</time></trkpt><trkpt lat="44.5232467" lon="8.0629617"><ele>664.5</ele><time>2026-05-01T13:05:51.15Z</time></trkpt><trkpt lat="44.5233533" lon="8.0630633"><ele>665.25</ele><time>2026-05-01T13:05:52.154Z</time></trkpt><trkpt lat="44.5234433" lon="8.0631933"><ele>666.0</ele><time>2026-05-01T13:05:53.151Z</time></trkpt><trkpt lat="44.5235017" lon="8.0633817"><ele>659.75</ele><time>2026-05-01T13:05:54.15Z</time></trkpt><trkpt lat="44.5235617" lon="8.06356"><ele>653.5</ele><time>2026-05-01T13:05:55.154Z</time></trkpt><trkpt lat="44.5236217" lon="8.06375"><ele>647.25</ele><time>2026-05-01T13:05:56.155Z</time></trkpt><trkpt lat="44.5236717" lon="8.0639467"><ele>641.0</ele><time>2026-05-01T13:05:57.152Z</time></trkpt><trkpt lat="44.5237233" lon="8.06411"><ele>641.25</ele><time>2026-05-01T13:05:58.152Z</time></trkpt><trkpt lat="44.5237933" lon="8.06423"><ele>641.5</ele><time>2026-05-01T13:05:59.154Z</time></trkpt><trkpt lat="44.52388" lon="8.0643267"><ele>641.75</ele><time>2026-05-01T13:06:00.154Z</time></trkpt><trkpt lat="44.5239783" lon="8.0644183"><ele>642.0</ele><time>2026-05-01T13:06:01.155Z</time></trkpt><trkpt lat="44.524085" lon="8.0644983"><ele>642.0</ele><time>2026-05-01T13:06:02.154Z</time></trkpt><trkpt lat="44.5241867" lon="8.0645733"><ele>642.0</ele><time>2026-05-01T13:06:03.153Z</time></trkpt><trkpt lat="44.5242733" lon="8.0646633"><ele>642.0</ele><time>2026-05-01T13:06:04.152Z</time></trkpt><trkpt lat="44.5243433" lon="8.064745"><ele>642.0</ele><time>2026-05-01T13:06:05.155Z</time></trkpt><trkpt lat="44.5243967" lon="8.0648317"><ele>642.0</ele><time>2026-05-01T13:06:06.154Z</time></trkpt><trkpt lat="44.5244017" lon="8.0649283"><ele>642.0</ele><time>2026-05-01T13:06:08.157Z</time></trkpt><trkpt lat="44.5242917" lon="8.06491"><ele>642.0</ele><time>2026-05-01T13:06:11.154Z</time></trkpt><trkpt lat="44.5242317" lon="8.0648333"><ele>642.0</ele><time>2026-05-01T13:06:12.152Z</time></trkpt><trkpt lat="44.5241617" lon="8.0647567"><ele>642.0</ele><time>2026-05-01T13:06:13.155Z</time></trkpt><trkpt lat="44.5240733" lon="8.0646717"><ele>642.0</ele><time>2026-05-01T13:06:14.157Z</time></trkpt><trkpt lat="44.523965" lon="8.0645817"><ele>642.0</ele><time>2026-05-01T13:06:15.152Z</time></trkpt><trkpt lat="44.5238433" lon="8.0645183"><ele>642.0</ele><time>2026-05-01T13:06:16.158Z</time></trkpt><trkpt lat="44.52373" lon="8.0644517"><ele>642.0</ele><time>2026-05-01T13:06:17.154Z</time></trkpt><trkpt lat="44.523625" lon="8.0643533"><ele>642.0</ele><time>2026-05-01T13:06:18.157Z</time></trkpt><trkpt lat="44.5235333" lon="8.0642317"><ele>641.75</ele><time>2026-05-01T13:06:19.153Z</time></trkpt><trkpt lat="44.523445" lon="8.0640917"><ele>641.5</ele><time>2026-05-01T13:06:20.153Z</time></trkpt><trkpt lat="44.523355" lon="8.0639683"><ele>641.25</ele><time>2026-05-01T13:06:21.152Z</time></trkpt><trkpt lat="44.52327" lon="8.06384"><ele>641.0</ele><time>2026-05-01T13:06:22.154Z</time></trkpt><trkpt lat="44.52319" lon="8.0637167"><ele>641.0</ele><time>2026-05-01T13:06:23.156Z</time></trkpt><trkpt lat="44.5231067" lon="8.0636117"><ele>641.0</ele><time>2026-05-01T13:06:24.155Z</time></trkpt><trkpt lat="44.5230233" lon="8.0635083"><ele>641.0</ele><time>2026-05-01T13:06:25.154Z</time></trkpt><trkpt lat="44.5229367" lon="8.0634417"><ele>641.0</ele><time>2026-05-01T13:06:26.158Z</time></trkpt><trkpt lat="44.5228317" lon="8.0634483"><ele>641.0</ele><time>2026-05-01T13:06:27.152Z</time></trkpt><trkpt lat="44.5227317" lon="8.063465"><ele>638.75</ele><time>2026-05-01T13:06:28.152Z</time></trkpt><trkpt lat="44.5226267" lon="8.0635133"><ele>636.5</ele><time>2026-05-01T13:06:29.159Z</time></trkpt><trkpt lat="44.5225133" lon="8.063585"><ele>634.25</ele><time>2026-05-01T13:06:30.151Z</time></trkpt><trkpt lat="44.5224083" lon="8.06368"><ele>632.0</ele><time>2026-05-01T13:06:31.158Z</time></trkpt><trkpt lat="44.522315" lon="8.0637167"><ele>632.0</ele><time>2026-05-01T13:06:32.154Z</time></trkpt><trkpt lat="44.52223" lon="8.063755"><ele>632.0</ele><time>2026-05-01T13:06:33.156Z</time></trkpt><trkpt lat="44.5221533" lon="8.0637167"><ele>632.0</ele><time>2026-05-01T13:06:34.154Z</time></trkpt><trkpt lat="44.52207" lon="8.0636983"><ele>632.0</ele><time>2026-05-01T13:06:35.156Z</time></trkpt><trkpt lat="44.521985" lon="8.063675"><ele>632.0</ele><time>2026-05-01T13:06:36.156Z</time></trkpt><trkpt lat="44.5219017" lon="8.0636133"><ele>632.0</ele><time>2026-05-01T13:06:37.153Z</time></trkpt><trkpt lat="44.52182" lon="8.06357"><ele>631.0</ele><time>2026-05-01T13:06:38.157Z</time></trkpt><trkpt lat="44.5217367" lon="8.0635433"><ele>630.0</ele><time>2026-05-01T13:06:39.151Z</time></trkpt><trkpt lat="44.5216367" lon="8.0635533"><ele>629.0</ele><time>2026-05-01T13:06:40.153Z</time></trkpt><trkpt lat="44.5215267" lon="8.0635933"><ele>628.0</ele><time>2026-05-01T13:06:41.158Z</time></trkpt><trkpt lat="44.5214183" lon="8.0636"><ele>627.0</ele><time>2026-05-01T13:06:42.151Z</time></trkpt><trkpt lat="44.5213" lon="8.063605"><ele>624.0</ele><time>2026-05-01T13:06:43.157Z</time></trkpt><trkpt lat="44.5211733" lon="8.0635867"><ele>621.0</ele><time>2026-05-01T13:06:44.156Z</time></trkpt><trkpt lat="44.5210417" lon="8.063565"><ele>618.0</ele><time>2026-05-01T13:06:45.154Z</time></trkpt><trkpt lat="44.5209133" lon="8.0635367"><ele>615.0</ele><time>2026-05-01T13:06:46.156Z</time></trkpt><trkpt lat="44.52078" lon="8.0635383"><ele>615.0</ele><time>2026-05-01T13:06:47.155Z</time></trkpt><trkpt lat="44.5206517" lon="8.0635367"><ele>615.0</ele><time>2026-05-01T13:06:48.153Z</time></trkpt><trkpt lat="44.52052" lon="8.0635383"><ele>615.0</ele><time>2026-05-01T13:06:49.152Z</time></trkpt><trkpt lat="44.52039" lon="8.063545"><ele>615.0</ele><time>2026-05-01T13:06:50.155Z</time></trkpt><trkpt lat="44.5202783" lon="8.063525"><ele>610.8</ele><time>2026-05-01T13:06:51.156Z</time></trkpt><trkpt lat="44.5201683" lon="8.0635367"><ele>606.6</ele><time>2026-05-01T13:06:52.155Z</time></trkpt><trkpt lat="44.5200717" lon="8.0635267"><ele>602.4</ele><time>2026-05-01T13:06:53.151Z</time></trkpt><trkpt lat="44.5199867" lon="8.063505"><ele>598.2</ele><time>2026-05-01T13:06:54.155Z</time></trkpt><trkpt lat="44.5199167" lon="8.063475"><ele>594.0</ele><time>2026-05-01T13:06:55.157Z</time></trkpt><trkpt lat="44.5198067" lon="8.0634267"><ele>594.0</ele><time>2026-05-01T13:06:57.152Z</time></trkpt><trkpt lat="44.519715" lon="8.0634667"><ele>594.0</ele><time>2026-05-01T13:06:59.153Z</time></trkpt><trkpt lat="44.5197033" lon="8.06361"><ele>594.0</ele><time>2026-05-01T13:07:01.156Z</time></trkpt><trkpt lat="44.5197517" lon="8.0637333"><ele>594.0</ele><time>2026-05-01T13:07:03.152Z</time></trkpt><trkpt lat="44.519815" lon="8.0637783"><ele>594.0</ele><time>2026-05-01T13:07:04.152Z</time></trkpt><trkpt lat="44.5199267" lon="8.0638183"><ele>594.0</ele><time>2026-05-01T13:07:05.154Z</time></trkpt><trkpt lat="44.5200967" lon="8.0638683"><ele>594.0</ele><time>2026-05-01T13:07:06.151Z</time></trkpt><trkpt lat="44.5203167" lon="8.063935"><ele>594.0</ele><time>2026-05-01T13:07:07.155Z</time></trkpt><trkpt lat="44.52052" lon="8.0640233"><ele>590.0</ele><time>2026-05-01T13:07:08.153Z</time></trkpt><trkpt lat="44.520715" lon="8.0641067"><ele>586.0</ele><time>2026-05-01T13:07:09.152Z</time></trkpt><trkpt lat="44.520905" lon="8.06418"><ele>582.0</ele><time>2026-05-01T13:07:10.153Z</time></trkpt><trkpt lat="44.5210867" lon="8.06425"><ele>585.3333333333334</ele><time>2026-05-01T13:07:11.151Z</time></trkpt><trkpt lat="44.5212617" lon="8.064315"><ele>588.6666666666667</ele><time>2026-05-01T13:07:12.157Z</time></trkpt><trkpt lat="44.5214133" lon="8.064375"><ele>592.0</ele><time>2026-05-01T13:07:13.153Z</time></trkpt><trkpt lat="44.5215567" lon="8.0644383"><ele>592.0</ele><time>2026-05-01T13:07:14.15Z</time></trkpt><trkpt lat="44.5216733" lon="8.0645233"><ele>592.0</ele><time>2026-05-01T13:07:15.154Z</time></trkpt><trkpt lat="44.5217883" lon="8.0646267"><ele>592.0</ele><time>2026-05-01T13:07:16.152Z</time></trkpt><trkpt lat="44.5219117" lon="8.064715"><ele>592.0</ele><time>2026-05-01T13:07:17.151Z</time></trkpt><trkpt lat="44.5220433" lon="8.0647783"><ele>594.25</ele><time>2026-05-01T13:07:18.151Z</time></trkpt><trkpt lat="44.5221833" lon="8.0648117"><ele>596.5</ele><time>2026-05-01T13:07:19.151Z</time></trkpt><trkpt lat="44.52232" lon="8.0648233"><ele>598.75</ele><time>2026-05-01T13:07:20.15Z</time></trkpt><trkpt lat="44.52244" lon="8.064825"><ele>601.0</ele><time>2026-05-01T13:07:21.149Z</time></trkpt><trkpt lat="44.5225433" lon="8.0648183"><ele>601.0</ele><time>2026-05-01T13:07:22.151Z</time></trkpt><trkpt lat="44.52263" lon="8.064855"><ele>601.0</ele><time>2026-05-01T13:07:23.155Z</time></trkpt><trkpt lat="44.52269" lon="8.0649367"><ele>601.0</ele><time>2026-05-01T13:07:24.157Z</time></trkpt><trkpt lat="44.522735" lon="8.0650283"><ele>601.0</ele><time>2026-05-01T13:07:25.153Z</time></trkpt><trkpt lat="44.5227817" lon="8.065135"><ele>601.0</ele><time>2026-05-01T13:07:26.154Z</time></trkpt><trkpt lat="44.52284" lon="8.0652633"><ele>598.75</ele><time>2026-05-01T13:07:27.153Z</time></trkpt><trkpt lat="44.5229267" lon="8.0653783"><ele>596.5</ele><time>2026-05-01T13:07:28.152Z</time></trkpt><trkpt lat="44.5230333" lon="8.0654883"><ele>594.25</ele><time>2026-05-01T13:07:29.157Z</time></trkpt><trkpt lat="44.52315" lon="8.0656067"><ele>592.0</ele><time>2026-05-01T13:07:30.153Z</time></trkpt><trkpt lat="44.523265" lon="8.0657367"><ele>582.0</ele><time>2026-05-01T13:07:31.155Z</time></trkpt><trkpt lat="44.5233833" lon="8.065865"><ele>572.0</ele><time>2026-05-01T13:07:32.153Z</time></trkpt><trkpt lat="44.5234933" lon="8.0660083"><ele>562.0</ele><time>2026-05-01T13:07:33.152Z</time></trkpt><trkpt lat="44.5236033" lon="8.06616"><ele>562.0</ele><time>2026-05-01T13:07:34.153Z</time></trkpt><trkpt lat="44.5237167" lon="8.06631"><ele>562.0</ele><time>2026-05-01T13:07:35.153Z</time></trkpt><trkpt lat="44.523825" lon="8.0664683"><ele>562.0</ele><time>2026-05-01T13:07:36.151Z</time></trkpt><trkpt lat="44.5239317" lon="8.06661"><ele>561.0</ele><time>2026-05-01T13:07:37.161Z</time></trkpt><trkpt lat="44.52404" lon="8.06673"><ele>560.0</ele><time>2026-05-01T13:07:38.153Z</time></trkpt><trkpt lat="44.5241333" lon="8.0668283"><ele>559.0</ele><time>2026-05-01T13:07:39.155Z</time></trkpt><trkpt lat="44.5242117" lon="8.0668967"><ele>558.0</ele><time>2026-05-01T13:07:40.151Z</time></trkpt><trkpt lat="44.5242733" lon="8.0669517"><ele>557.0</ele><time>2026-05-01T13:07:41.153Z</time></trkpt><trkpt lat="44.5243117" lon="8.0670683"><ele>557.0</ele><time>2026-05-01T13:07:43.153Z</time></trkpt><trkpt lat="44.5242267" lon="8.067075"><ele>557.0</ele><time>2026-05-01T13:07:45.15Z</time></trkpt><trkpt lat="44.5240917" lon="8.0669583"><ele>557.0</ele><time>2026-05-01T13:07:47.15Z</time></trkpt><trkpt lat="44.5240117" lon="8.0668633"><ele>557.0</ele><time>2026-05-01T13:07:48.151Z</time></trkpt><trkpt lat="44.5239033" lon="8.06674"><ele>557.0</ele><time>2026-05-01T13:07:49.154Z</time></trkpt><trkpt lat="44.5237917" lon="8.0666117"><ele>557.0</ele><time>2026-05-01T13:07:50.154Z</time></trkpt><trkpt lat="44.52368" lon="8.06649"><ele>557.0</ele><time>2026-05-01T13:07:51.153Z</time></trkpt><trkpt lat="44.5235883" lon="8.066385"><ele>557.0</ele><time>2026-05-01T13:07:52.156Z</time></trkpt><trkpt lat="44.5235117" lon="8.0663217"><ele>558.0</ele><time>2026-05-01T13:07:53.152Z</time></trkpt><trkpt lat="44.52345" lon="8.0662617"><ele>559.0</ele><time>2026-05-01T13:07:54.153Z</time></trkpt><trkpt lat="44.523405" lon="8.0663833"><ele>560.0</ele><time>2026-05-01T13:07:56.154Z</time></trkpt><trkpt lat="44.5234867" lon="8.0665367"><ele>561.0</ele><time>2026-05-01T13:07:58.155Z</time></trkpt><trkpt lat="44.523555" lon="8.06663"><ele>562.0</ele><time>2026-05-01T13:07:59.151Z</time></trkpt><trkpt lat="44.5236533" lon="8.0667567"><ele>560.75</ele><time>2026-05-01T13:08:00.151Z</time></trkpt><trkpt lat="44.52375" lon="8.0668867"><ele>559.5</ele><time>2026-05-01T13:08:01.156Z</time></trkpt><trkpt lat="44.5238433" lon="8.067035"><ele>558.25</ele><time>2026-05-01T13:08:02.154Z</time></trkpt><trkpt lat="44.5239367" lon="8.0671833"><ele>557.0</ele><time>2026-05-01T13:08:03.151Z</time></trkpt><trkpt lat="44.5240333" lon="8.067325"><ele>557.0</ele><time>2026-05-01T13:08:04.153Z</time></trkpt><trkpt lat="44.5241383" lon="8.0674367"><ele>557.0</ele><time>2026-05-01T13:08:05.153Z</time></trkpt><trkpt lat="44.5242467" lon="8.0675133"><ele>557.0</ele><time>2026-05-01T13:08:06.154Z</time></trkpt><trkpt lat="44.5243583" lon="8.0675683"><ele>557.0</ele><time>2026-05-01T13:08:07.154Z</time></trkpt><trkpt lat="44.524465" lon="8.0675967"><ele>553.8333333333333</ele><time>2026-05-01T13:08:08.151Z</time></trkpt><trkpt lat="44.5245633" lon="8.0676233"><ele>550.6666666666666</ele><time>2026-05-01T13:08:09.158Z</time></trkpt><trkpt lat="44.524645" lon="8.0676483"><ele>547.5</ele><time>2026-05-01T13:08:10.151Z</time></trkpt><trkpt lat="44.5247283" lon="8.0676617"><ele>544.3333333333334</ele><time>2026-05-01T13:08:11.154Z</time></trkpt><trkpt lat="44.524765" lon="8.067775"><ele>541.1666666666667</ele><time>2026-05-01T13:08:12.152Z</time></trkpt><trkpt lat="44.52478" lon="8.0679033"><ele>538.0</ele><time>2026-05-01T13:08:13.154Z</time></trkpt><trkpt lat="44.5247933" lon="8.0680233"><ele>538.0</ele><time>2026-05-01T13:08:14.154Z</time></trkpt><trkpt lat="44.524795" lon="8.0681517"><ele>538.0</ele><time>2026-05-01T13:08:15.152Z</time></trkpt><trkpt lat="44.5247917" lon="8.0682917"><ele>538.0</ele><time>2026-05-01T13:08:16.155Z</time></trkpt><trkpt lat="44.5247967" lon="8.0684467"><ele>538.0</ele><time>2026-05-01T13:08:17.153Z</time></trkpt><trkpt lat="44.5248233" lon="8.0686183"><ele>538.0</ele><time>2026-05-01T13:08:18.152Z</time></trkpt><trkpt lat="44.5248583" lon="8.0688033"><ele>538.25</ele><time>2026-05-01T13:08:19.152Z</time></trkpt><trkpt lat="44.524895" lon="8.0689983"><ele>538.5</ele><time>2026-05-01T13:08:20.152Z</time></trkpt><trkpt lat="44.5249233" lon="8.0691983"><ele>538.75</ele><time>2026-05-01T13:08:21.153Z</time></trkpt><trkpt lat="44.5249517" lon="8.0693917"><ele>539.0</ele><time>2026-05-01T13:08:22.153Z</time></trkpt><trkpt lat="44.5249783" lon="8.0695833"><ele>538.5</ele><time>2026-05-01T13:08:23.153Z</time></trkpt><trkpt lat="44.5250083" lon="8.0697483"><ele>538.0</ele><time>2026-05-01T13:08:24.152Z</time></trkpt><trkpt lat="44.5250617" lon="8.0699067"><ele>537.5</ele><time>2026-05-01T13:08:25.154Z</time></trkpt><trkpt lat="44.5251183" lon="8.0700817"><ele>537.0</ele><time>2026-05-01T13:08:26.152Z</time></trkpt><trkpt lat="44.5251933" lon="8.070255"><ele>534.0</ele><time>2026-05-01T13:08:27.152Z</time></trkpt><trkpt lat="44.5252817" lon="8.070415"><ele>531.0</ele><time>2026-05-01T13:08:28.16Z</time></trkpt><trkpt lat="44.525385" lon="8.070575"><ele>528.0</ele><time>2026-05-01T13:08:29.154Z</time></trkpt><trkpt lat="44.5255" lon="8.0707283"><ele>529.25</ele><time>2026-05-01T13:08:30.156Z</time></trkpt><trkpt lat="44.5256183" lon="8.0708783"><ele>530.5</ele><time>2026-05-01T13:08:31.157Z</time></trkpt><trkpt lat="44.5257283" lon="8.071015"><ele>531.75</ele><time>2026-05-01T13:08:32.156Z</time></trkpt><trkpt lat="44.5258233" lon="8.0711283"><ele>533.0</ele><time>2026-05-01T13:08:33.155Z</time></trkpt><trkpt lat="44.525895" lon="8.0712217"><ele>533.0</ele><time>2026-05-01T13:08:34.155Z</time></trkpt><trkpt lat="44.5259567" lon="8.07131"><ele>533.0</ele><time>2026-05-01T13:08:35.163Z</time></trkpt><trkpt lat="44.526015" lon="8.071395"><ele>533.0</ele><time>2026-05-01T13:08:36.155Z</time></trkpt><trkpt lat="44.5260817" lon="8.0714567"><ele>533.0</ele><time>2026-05-01T13:08:37.153Z</time></trkpt><trkpt lat="44.5261533" lon="8.0715217"><ele>533.0</ele><time>2026-05-01T13:08:38.155Z</time></trkpt><trkpt lat="44.5262383" lon="8.071575"><ele>533.0</ele><time>2026-05-01T13:08:39.154Z</time></trkpt><trkpt lat="44.5263517" lon="8.07164"><ele>528.6666666666666</ele><time>2026-05-01T13:08:40.155Z</time></trkpt><trkpt lat="44.5264817" lon="8.0717133"><ele>524.3333333333334</ele><time>2026-05-01T13:08:41.153Z</time></trkpt><trkpt lat="44.5266317" lon="8.0717833"><ele>520.0</ele><time>2026-05-01T13:08:42.154Z</time></trkpt><trkpt lat="44.5267883" lon="8.0718633"><ele>520.0</ele><time>2026-05-01T13:08:43.152Z</time></trkpt><trkpt lat="44.5269467" lon="8.0719433"><ele>520.0</ele><time>2026-05-01T13:08:44.154Z</time></trkpt><trkpt lat="44.5271033" lon="8.07203"><ele>520.0</ele><time>2026-05-01T13:08:45.155Z</time></trkpt><trkpt lat="44.5272617" lon="8.0721067"><ele>524.0</ele><time>2026-05-01T13:08:46.149Z</time></trkpt><trkpt lat="44.5274183" lon="8.0721867"><ele>528.0</ele><time>2026-05-01T13:08:47.155Z</time></trkpt><trkpt lat="44.5275733" lon="8.07226"><ele>532.0</ele><time>2026-05-01T13:08:48.155Z</time></trkpt><trkpt lat="44.527725" lon="8.0723217"><ele>532.0</ele><time>2026-05-01T13:08:49.155Z</time></trkpt><trkpt lat="44.5278717" lon="8.0723633"><ele>532.0</ele><time>2026-05-01T13:08:50.152Z</time></trkpt><trkpt lat="44.5280117" lon="8.0723883"><ele>532.0</ele><time>2026-05-01T13:08:51.154Z</time></trkpt><trkpt lat="44.5281467" lon="8.07242"><ele>532.0</ele><time>2026-05-01T13:08:52.151Z</time></trkpt><trkpt lat="44.5282817" lon="8.072465"><ele>528.6666666666667</ele><time>2026-05-01T13:08:53.155Z</time></trkpt><trkpt lat="44.528415" lon="8.0725433"><ele>525.3333333333334</ele><time>2026-05-01T13:08:54.154Z</time></trkpt><trkpt lat="44.5285533" lon="8.072615"><ele>522.0</ele><time>2026-05-01T13:08:55.156Z</time></trkpt><trkpt lat="44.5286967" lon="8.0727167"><ele>529.0</ele><time>2026-05-01T13:08:56.154Z</time></trkpt><trkpt lat="44.528855" lon="8.0728217"><ele>536.0</ele><time>2026-05-01T13:08:57.157Z</time></trkpt><trkpt lat="44.5290183" lon="8.072945"><ele>543.0</ele><time>2026-05-01T13:08:58.156Z</time></trkpt><trkpt lat="44.5291817" lon="8.073075"><ele>543.0</ele><time>2026-05-01T13:08:59.152Z</time></trkpt><trkpt lat="44.529345" lon="8.0731967"><ele>543.0</ele><time>2026-05-01T13:09:00.153Z</time></trkpt><trkpt lat="44.5294917" lon="8.07331"><ele>543.0</ele><time>2026-05-01T13:09:01.153Z</time></trkpt><trkpt lat="44.52962" lon="8.0734033"><ele>540.5</ele><time>2026-05-01T13:09:02.154Z</time></trkpt><trkpt lat="44.52973" lon="8.0734833"><ele>538.0</ele><time>2026-05-01T13:09:03.153Z</time></trkpt><trkpt lat="44.5298233" lon="8.07355"><ele>535.5</ele><time>2026-05-01T13:09:04.153Z</time></trkpt><trkpt lat="44.529895" lon="8.0736133"><ele>533.0</ele><time>2026-05-01T13:09:05.155Z</time></trkpt><trkpt lat="44.5299517" lon="8.073665"><ele>530.5</ele><time>2026-05-01T13:09:06.156Z</time></trkpt><trkpt lat="44.530015" lon="8.0737"><ele>528.0</ele><time>2026-05-01T13:09:08.15Z</time></trkpt><trkpt lat="44.5300267" lon="8.07359"><ele>528.0</ele><time>2026-05-01T13:09:11.153Z</time></trkpt><trkpt lat="44.5299267" lon="8.0735117"><ele>528.0</ele><time>2026-05-01T13:09:13.154Z</time></trkpt><trkpt lat="44.5298533" lon="8.07348"><ele>528.0</ele><time>2026-05-01T13:09:14.152Z</time></trkpt><trkpt lat="44.52977" lon="8.07342"><ele>528.0</ele><time>2026-05-01T13:09:15.151Z</time></trkpt><trkpt lat="44.52967" lon="8.07334"><ele>528.0</ele><time>2026-05-01T13:09:16.152Z</time></trkpt><trkpt lat="44.5295583" lon="8.07323"><ele>533.0</ele><time>2026-05-01T13:09:17.151Z</time></trkpt><trkpt lat="44.5294217" lon="8.07312"><ele>538.0</ele><time>2026-05-01T13:09:18.154Z</time></trkpt><trkpt lat="44.5292683" lon="8.07301"><ele>543.0</ele><time>2026-05-01T13:09:19.156Z</time></trkpt><trkpt lat="44.5291017" lon="8.0728867"><ele>543.0</ele><time>2026-05-01T13:09:20.151Z</time></trkpt><trkpt lat="44.5289133" lon="8.072745"><ele>543.0</ele><time>2026-05-01T13:09:21.151Z</time></trkpt><trkpt lat="44.5287217" lon="8.0726117"><ele>543.0</ele><time>2026-05-01T13:09:22.157Z</time></trkpt><trkpt lat="44.5285467" lon="8.0724667"><ele>545.6666666666666</ele><time>2026-05-01T13:09:23.154Z</time></trkpt><trkpt lat="44.5284017" lon="8.0723317"><ele>548.3333333333333</ele><time>2026-05-01T13:09:24.155Z</time></trkpt><trkpt lat="44.52828" lon="8.072215"><ele>551.0</ele><time>2026-05-01T13:09:25.151Z</time></trkpt><trkpt lat="44.5281483" lon="8.07215"><ele>551.0</ele><time>2026-05-01T13:09:26.151Z</time></trkpt><trkpt lat="44.528005" lon="8.0721217"><ele>551.0</ele><time>2026-05-01T13:09:27.152Z</time></trkpt><trkpt lat="44.5278617" lon="8.07208"><ele>551.0</ele><time>2026-05-01T13:09:28.15Z</time></trkpt><trkpt lat="44.5277" lon="8.072045"><ele>544.6666666666666</ele><time>2026-05-01T13:09:29.159Z</time></trkpt><trkpt lat="44.5275333" lon="8.0719683"><ele>538.3333333333334</ele><time>2026-05-01T13:09:30.153Z</time></trkpt><trkpt lat="44.5273517" lon="8.0718883"><ele>532.0</ele><time>2026-05-01T13:09:31.157Z</time></trkpt><trkpt lat="44.527155" lon="8.0717983"><ele>528.0</ele><time>2026-05-01T13:09:32.156Z</time></trkpt><trkpt lat="44.5269467" lon="8.0717167"><ele>524.0</ele><time>2026-05-01T13:09:33.153Z</time></trkpt><trkpt lat="44.5267417" lon="8.0716183"><ele>520.0</ele><time>2026-05-01T13:09:34.152Z</time></trkpt><trkpt lat="44.52654" lon="8.071515"><ele>524.3333333333334</ele><time>2026-05-01T13:09:35.153Z</time></trkpt><trkpt lat="44.52636" lon="8.0714133"><ele>528.6666666666666</ele><time>2026-05-01T13:09:36.153Z</time></trkpt><trkpt lat="44.5262117" lon="8.0713033"><ele>533.0</ele><time>2026-05-01T13:09:37.152Z</time></trkpt><trkpt lat="44.52607" lon="8.0712017"><ele>533.0</ele><time>2026-05-01T13:09:38.152Z</time></trkpt><trkpt lat="44.525935" lon="8.0710767"><ele>533.0</ele><time>2026-05-01T13:09:39.15Z</time></trkpt><trkpt lat="44.5257933" lon="8.0709317"><ele>533.0</ele><time>2026-05-01T13:09:40.152Z</time></trkpt><trkpt lat="44.525645" lon="8.070765"><ele>531.3333333333333</ele><time>2026-05-01T13:09:41.154Z</time></trkpt><trkpt lat="44.52549" lon="8.0705917"><ele>529.6666666666666</ele><time>2026-05-01T13:09:42.156Z</time></trkpt><trkpt lat="44.5253417" lon="8.0704133"><ele>528.0</ele><time>2026-05-01T13:09:43.154Z</time></trkpt><trkpt lat="44.5252117" lon="8.0702217"><ele>528.0</ele><time>2026-05-01T13:09:44.155Z</time></trkpt><trkpt lat="44.5251" lon="8.0700267"><ele>528.0</ele><time>2026-05-01T13:09:45.152Z</time></trkpt><trkpt lat="44.5250133" lon="8.0698167"><ele>528.0</ele><time>2026-05-01T13:09:46.155Z</time></trkpt><trkpt lat="44.52495" lon="8.0696033"><ele>530.25</ele><time>2026-05-01T13:09:47.154Z</time></trkpt><trkpt lat="44.52491" lon="8.0694017"><ele>532.5</ele><time>2026-05-01T13:09:48.157Z</time></trkpt><trkpt lat="44.5248867" lon="8.0692"><ele>534.75</ele><time>2026-05-01T13:09:49.159Z</time></trkpt><trkpt lat="44.5248617" lon="8.0689933"><ele>537.0</ele><time>2026-05-01T13:09:50.151Z</time></trkpt><trkpt lat="44.524825" lon="8.0687983"><ele>537.4</ele><time>2026-05-01T13:09:51.157Z</time></trkpt><trkpt lat="44.5247883" lon="8.0686283"><ele>537.8000000000001</ele><time>2026-05-01T13:09:52.151Z</time></trkpt><trkpt lat="44.52477" lon="8.068495"><ele>538.2</ele><time>2026-05-01T13:09:53.152Z</time></trkpt><trkpt lat="44.5247517" lon="8.06841"><ele>538.6</ele><time>2026-05-01T13:09:54.154Z</time></trkpt><trkpt lat="44.5247283" lon="8.0683233"><ele>539.0</ele><time>2026-05-01T13:09:55.156Z</time></trkpt><trkpt lat="44.5245867" lon="8.0682833"><ele>536.5</ele><time>2026-05-01T13:09:57.155Z</time></trkpt><trkpt lat="44.5245067" lon="8.0682817"><ele>534.0</ele><time>2026-05-01T13:09:58.152Z</time></trkpt><trkpt lat="44.5244083" lon="8.0682917"><ele>531.5</ele><time>2026-05-01T13:09:59.151Z</time></trkpt><trkpt lat="44.524265" lon="8.068265"><ele>529.0</ele><time>2026-05-01T13:10:00.152Z</time></trkpt><trkpt lat="44.5241133" lon="8.06824"><ele>529.0</ele><time>2026-05-01T13:10:01.153Z</time></trkpt><trkpt lat="44.5239667" lon="8.0682083"><ele>529.0</ele><time>2026-05-01T13:10:02.153Z</time></trkpt><trkpt lat="44.5238317" lon="8.068175"><ele>529.0</ele><time>2026-05-01T13:10:03.156Z</time></trkpt><trkpt lat="44.5237017" lon="8.06813"><ele>529.0</ele><time>2026-05-01T13:10:04.158Z</time></trkpt><trkpt lat="44.523575" lon="8.0680667"><ele>527.25</ele><time>2026-05-01T13:10:05.151Z</time></trkpt><trkpt lat="44.52345" lon="8.0679833"><ele>525.5</ele><time>2026-05-01T13:10:06.152Z</time></trkpt><trkpt lat="44.52332" lon="8.0678917"><ele>523.75</ele><time>2026-05-01T13:10:07.153Z</time></trkpt><trkpt lat="44.52319" lon="8.067805"><ele>522.0</ele><time>2026-05-01T13:10:08.155Z</time></trkpt><trkpt lat="44.5230583" lon="8.0677333"><ele>522.0</ele><time>2026-05-01T13:10:09.151Z</time></trkpt><trkpt lat="44.5229333" lon="8.0676833"><ele>522.0</ele><time>2026-05-01T13:10:10.154Z</time></trkpt><trkpt lat="44.5228167" lon="8.06766"><ele>522.0</ele><time>2026-05-01T13:10:11.154Z</time></trkpt><trkpt lat="44.52272" lon="8.0676733"><ele>522.0</ele><time>2026-05-01T13:10:12.156Z</time></trkpt><trkpt lat="44.5226317" lon="8.06773"><ele>522.0</ele><time>2026-05-01T13:10:13.155Z</time></trkpt><trkpt lat="44.5225433" lon="8.0678133"><ele>522.25</ele><time>2026-05-01T13:10:14.154Z</time></trkpt><trkpt lat="44.5224417" lon="8.0678967"><ele>522.5</ele><time>2026-05-01T13:10:15.155Z</time></trkpt><trkpt lat="44.5223317" lon="8.0679967"><ele>522.75</ele><time>2026-05-01T13:10:16.156Z</time></trkpt><trkpt lat="44.52222" lon="8.06809"><ele>523.0</ele><time>2026-05-01T13:10:17.15Z</time></trkpt><trkpt lat="44.5221033" lon="8.0681583"><ele>523.4</ele><time>2026-05-01T13:10:18.152Z</time></trkpt><trkpt lat="44.5219883" lon="8.0681933"><ele>523.8</ele><time>2026-05-01T13:10:19.151Z</time></trkpt><trkpt lat="44.5218733" lon="8.0681933"><ele>524.2</ele><time>2026-05-01T13:10:20.157Z</time></trkpt><trkpt lat="44.5217633" lon="8.068175"><ele>524.6</ele><time>2026-05-01T13:10:21.155Z</time></trkpt><trkpt lat="44.521675" lon="8.0681617"><ele>525.0</ele><time>2026-05-01T13:10:22.155Z</time></trkpt><trkpt lat="44.52159" lon="8.0681667"><ele>525.0</ele><time>2026-05-01T13:10:23.156Z</time></trkpt><trkpt lat="44.5215283" lon="8.0682"><ele>525.0</ele><time>2026-05-01T13:10:24.15Z</time></trkpt><trkpt lat="44.52155" lon="8.068355"><ele>525.0</ele><time>2026-05-01T13:10:26.151Z</time></trkpt><trkpt lat="44.5216317" lon="8.0685317"><ele>525.0</ele><time>2026-05-01T13:10:28.157Z</time></trkpt><trkpt lat="44.5217167" lon="8.0686533"><ele>527.4</ele><time>2026-05-01T13:10:29.153Z</time></trkpt><trkpt lat="44.5218117" lon="8.0687883"><ele>529.8</ele><time>2026-05-01T13:10:30.162Z</time></trkpt><trkpt lat="44.52188" lon="8.068895"><ele>532.2</ele><time>2026-05-01T13:10:31.157Z</time></trkpt><trkpt lat="44.5219267" lon="8.0689967"><ele>534.6</ele><time>2026-05-01T13:10:32.155Z</time></trkpt><trkpt lat="44.521905" lon="8.0691467"><ele>537.0</ele><time>2026-05-01T13:10:34.15Z</time></trkpt><trkpt lat="44.5217983" lon="8.06909"><ele>537.0</ele><time>2026-05-01T13:10:36.158Z</time></trkpt><trkpt lat="44.5217417" lon="8.069035"><ele>537.0</ele><time>2026-05-01T13:10:37.155Z</time></trkpt><trkpt lat="44.5216633" lon="8.068975"><ele>537.0</ele><time>2026-05-01T13:10:38.156Z</time></trkpt><trkpt lat="44.5215767" lon="8.0689167"><ele>537.0</ele><time>2026-05-01T13:10:39.155Z</time></trkpt><trkpt lat="44.521475" lon="8.0688883"><ele>537.0</ele><time>2026-05-01T13:10:40.155Z</time></trkpt><trkpt lat="44.5213633" lon="8.0688717"><ele>537.0</ele><time>2026-05-01T13:10:41.151Z</time></trkpt><trkpt lat="44.5212517" lon="8.06887"><ele>537.0</ele><time>2026-05-01T13:10:42.152Z</time></trkpt><trkpt lat="44.5211567" lon="8.0688883"><ele>537.0</ele><time>2026-05-01T13:10:43.152Z</time></trkpt><trkpt lat="44.5210817" lon="8.068925"><ele>537.0</ele><time>2026-05-01T13:10:44.157Z</time></trkpt><trkpt lat="44.5210317" lon="8.06905"><ele>537.0</ele><time>2026-05-01T13:10:46.157Z</time></trkpt><trkpt lat="44.521065" lon="8.0691283"><ele>538.1666666666666</ele><time>2026-05-01T13:10:47.153Z</time></trkpt><trkpt lat="44.5211617" lon="8.0692417"><ele>539.3333333333334</ele><time>2026-05-01T13:10:49.154Z</time></trkpt><trkpt lat="44.5212467" lon="8.0692917"><ele>540.5</ele><time>2026-05-01T13:10:50.152Z</time></trkpt><trkpt lat="44.5213183" lon="8.06935"><ele>541.6666666666667</ele><time>2026-05-01T13:10:51.156Z</time></trkpt><trkpt lat="44.5213783" lon="8.0694133"><ele>542.8333333333334</ele><time>2026-05-01T13:10:52.161Z</time></trkpt><trkpt lat="44.5214167" lon="8.069485"><ele>544.0</ele><time>2026-05-01T13:10:53.155Z</time></trkpt><trkpt lat="44.5213833" lon="8.0696083"><ele>544.0</ele><time>2026-05-01T13:10:55.153Z</time></trkpt><trkpt lat="44.5212517" lon="8.06959"><ele>544.0</ele><time>2026-05-01T13:10:57.152Z</time></trkpt><trkpt lat="44.5211633" lon="8.0695617"><ele>544.0</ele><time>2026-05-01T13:10:58.154Z</time></trkpt><trkpt lat="44.5210633" lon="8.069525"><ele>544.0</ele><time>2026-05-01T13:10:59.155Z</time></trkpt><trkpt lat="44.5209317" lon="8.0694933"><ele>546.25</ele><time>2026-05-01T13:11:00.156Z</time></trkpt><trkpt lat="44.5208" lon="8.069485"><ele>548.5</ele><time>2026-05-01T13:11:01.153Z</time></trkpt><trkpt lat="44.5206683" lon="8.0694967"><ele>550.75</ele><time>2026-05-01T13:11:02.157Z</time></trkpt><trkpt lat="44.5205367" lon="8.0695167"><ele>553.0</ele><time>2026-05-01T13:11:03.151Z</time></trkpt><trkpt lat="44.5204083" lon="8.0695367"><ele>554.6</ele><time>2026-05-01T13:11:04.155Z</time></trkpt><trkpt lat="44.5202917" lon="8.0695617"><ele>556.1999999999999</ele><time>2026-05-01T13:11:05.158Z</time></trkpt><trkpt lat="44.5201833" lon="8.06957"><ele>557.8</ele><time>2026-05-01T13:11:06.156Z</time></trkpt><trkpt lat="44.5200817" lon="8.06956"><ele>559.4</ele><time>2026-05-01T13:11:07.153Z</time></trkpt><trkpt lat="44.5199817" lon="8.069545"><ele>561.0</ele><time>2026-05-01T13:11:08.153Z</time></trkpt><trkpt lat="44.5198833" lon="8.0695333"><ele>561.0</ele><time>2026-05-01T13:11:09.149Z</time></trkpt><trkpt lat="44.5197783" lon="8.0695067"><ele>561.0</ele><time>2026-05-01T13:11:10.152Z</time></trkpt><trkpt lat="44.5196683" lon="8.069475"><ele>561.0</ele><time>2026-05-01T13:11:11.158Z</time></trkpt><trkpt lat="44.5195567" lon="8.0694583"><ele>561.0</ele><time>2026-05-01T13:11:12.15Z</time></trkpt><trkpt lat="44.5194383" lon="8.06943"><ele>563.75</ele><time>2026-05-01T13:11:13.154Z</time></trkpt><trkpt lat="44.5193233" lon="8.0694"><ele>566.5</ele><time>2026-05-01T13:11:14.152Z</time></trkpt><trkpt lat="44.5192083" lon="8.069365"><ele>569.25</ele><time>2026-05-01T13:11:15.155Z</time></trkpt><trkpt lat="44.519095" lon="8.0693267"><ele>572.0</ele><time>2026-05-01T13:11:16.152Z</time></trkpt><trkpt lat="44.51898" lon="8.069285"><ele>572.0</ele><time>2026-05-01T13:11:17.157Z</time></trkpt><trkpt lat="44.51887" lon="8.0692467"><ele>572.0</ele><time>2026-05-01T13:11:18.155Z</time></trkpt><trkpt lat="44.5187583" lon="8.0692083"><ele>572.0</ele><time>2026-05-01T13:11:19.153Z</time></trkpt><trkpt lat="44.5186467" lon="8.0691567"><ele>572.0</ele><time>2026-05-01T13:11:20.159Z</time></trkpt><trkpt lat="44.5185333" lon="8.0690983"><ele>570.75</ele><time>2026-05-01T13:11:21.153Z</time></trkpt><trkpt lat="44.51842" lon="8.0690567"><ele>569.5</ele><time>2026-05-01T13:11:22.153Z</time></trkpt><trkpt lat="44.5182983" lon="8.0690233"><ele>568.25</ele><time>2026-05-01T13:11:23.152Z</time></trkpt><trkpt lat="44.5181733" lon="8.0690067"><ele>567.0</ele><time>2026-05-01T13:11:24.15Z</time></trkpt><trkpt lat="44.5180483" lon="8.069015"><ele>567.0</ele><time>2026-05-01T13:11:25.156Z</time></trkpt><trkpt lat="44.517915" lon="8.0690233"><ele>567.0</ele><time>2026-05-01T13:11:26.154Z</time></trkpt><trkpt lat="44.517785" lon="8.06905"><ele>567.0</ele><time>2026-05-01T13:11:27.15Z</time></trkpt><trkpt lat="44.5176467" lon="8.0690733"><ele>567.0</ele><time>2026-05-01T13:11:28.152Z</time></trkpt><trkpt lat="44.5175083" lon="8.0690883"><ele>568.5</ele><time>2026-05-01T13:11:29.154Z</time></trkpt><trkpt lat="44.5173667" lon="8.069085"><ele>570.0</ele><time>2026-05-01T13:11:30.152Z</time></trkpt><trkpt lat="44.51723" lon="8.0690683"><ele>571.5</ele><time>2026-05-01T13:11:31.153Z</time></trkpt><trkpt lat="44.5170983" lon="8.0690383"><ele>573.0</ele><time>2026-05-01T13:11:32.149Z</time></trkpt><trkpt lat="44.51697" lon="8.0689983"><ele>574.4</ele><time>2026-05-01T13:11:33.153Z</time></trkpt><trkpt lat="44.5168483" lon="8.068955"><ele>575.8</ele><time>2026-05-01T13:11:34.152Z</time></trkpt><trkpt lat="44.516735" lon="8.0689117"><ele>577.2</ele><time>2026-05-01T13:11:35.154Z</time></trkpt><trkpt lat="44.5166333" lon="8.0688783"><ele>578.6</ele><time>2026-05-01T13:11:36.154Z</time></trkpt><trkpt lat="44.516545" lon="8.06886"><ele>580.0</ele><time>2026-05-01T13:11:37.155Z</time></trkpt><trkpt lat="44.5164733" lon="8.068875"><ele>580.0</ele><time>2026-05-01T13:11:38.151Z</time></trkpt><trkpt lat="44.516415" lon="8.0689117"><ele>580.0</ele><time>2026-05-01T13:11:39.154Z</time></trkpt><trkpt lat="44.5164483" lon="8.06908"><ele>580.0</ele><time>2026-05-01T13:11:41.155Z</time></trkpt><trkpt lat="44.5164967" lon="8.06916"><ele>580.0</ele><time>2026-05-01T13:11:42.153Z</time></trkpt><trkpt lat="44.5165783" lon="8.0692333"><ele>580.0</ele><time>2026-05-01T13:11:43.151Z</time></trkpt><trkpt lat="44.516665" lon="8.0693033"><ele>581.2</ele><time>2026-05-01T13:11:44.152Z</time></trkpt><trkpt lat="44.516745" lon="8.069375"><ele>582.4</ele><time>2026-05-01T13:11:45.153Z</time></trkpt><trkpt lat="44.5168367" lon="8.0694567"><ele>583.6</ele><time>2026-05-01T13:11:46.152Z</time></trkpt><trkpt lat="44.516925" lon="8.0695417"><ele>584.8</ele><time>2026-05-01T13:11:47.153Z</time></trkpt><trkpt lat="44.51703" lon="8.06962"><ele>586.0</ele><time>2026-05-01T13:11:48.157Z</time></trkpt><trkpt lat="44.51715" lon="8.0696867"><ele>586.0</ele><time>2026-05-01T13:11:49.158Z</time></trkpt><trkpt lat="44.5172767" lon="8.069745"><ele>586.0</ele><time>2026-05-01T13:11:50.15Z</time></trkpt><trkpt lat="44.51741" lon="8.0697917"><ele>586.0</ele><time>2026-05-01T13:11:51.155Z</time></trkpt><trkpt lat="44.5175467" lon="8.0698283"><ele>586.0</ele><time>2026-05-01T13:11:52.153Z</time></trkpt><trkpt lat="44.5176917" lon="8.069875"><ele>586.0</ele><time>2026-05-01T13:11:53.151Z</time></trkpt><trkpt lat="44.5178467" lon="8.06994"><ele>586.0</ele><time>2026-05-01T13:11:54.152Z</time></trkpt><trkpt lat="44.518" lon="8.070015"><ele>586.0</ele><time>2026-05-01T13:11:55.15Z</time></trkpt><trkpt lat="44.5181483" lon="8.0700867"><ele>589.0</ele><time>2026-05-01T13:11:56.151Z</time></trkpt><trkpt lat="44.5182817" lon="8.0701717"><ele>592.0</ele><time>2026-05-01T13:11:57.151Z</time></trkpt><trkpt lat="44.5184033" lon="8.0702467"><ele>595.0</ele><time>2026-05-01T13:11:58.155Z</time></trkpt><trkpt lat="44.518505" lon="8.0703083"><ele>598.0</ele><time>2026-05-01T13:11:59.158Z</time></trkpt><trkpt lat="44.5186" lon="8.0703783"><ele>598.0</ele><time>2026-05-01T13:12:00.153Z</time></trkpt><trkpt lat="44.518685" lon="8.070475"><ele>598.0</ele><time>2026-05-01T13:12:01.153Z</time></trkpt><trkpt lat="44.518775" lon="8.0705733"><ele>598.0</ele><time>2026-05-01T13:12:02.151Z</time></trkpt><trkpt lat="44.5188617" lon="8.0707"><ele>598.0</ele><time>2026-05-01T13:12:03.154Z</time></trkpt><trkpt lat="44.518945" lon="8.07084"><ele>599.25</ele><time>2026-05-01T13:12:04.153Z</time></trkpt><trkpt lat="44.5190233" lon="8.070985"><ele>600.5</ele><time>2026-05-01T13:12:05.153Z</time></trkpt><trkpt lat="44.5190917" lon="8.0711367"><ele>601.75</ele><time>2026-05-01T13:12:06.158Z</time></trkpt><trkpt lat="44.519155" lon="8.0712883"><ele>603.0</ele><time>2026-05-01T13:12:07.155Z</time></trkpt><trkpt lat="44.5192067" lon="8.071445"><ele>603.0</ele><time>2026-05-01T13:12:08.154Z</time></trkpt><trkpt lat="44.5192533" lon="8.0716"><ele>603.0</ele><time>2026-05-01T13:12:09.15Z</time></trkpt><trkpt lat="44.5193067" lon="8.0717433"><ele>603.0</ele><time>2026-05-01T13:12:10.151Z</time></trkpt><trkpt lat="44.519355" lon="8.0718617"><ele>603.0</ele><time>2026-05-01T13:12:11.153Z</time></trkpt><trkpt lat="44.5194" lon="8.0719517"><ele>603.0</ele><time>2026-05-01T13:12:12.154Z</time></trkpt><trkpt lat="44.5194383" lon="8.07203"><ele>605.0</ele><time>2026-05-01T13:12:13.153Z</time></trkpt><trkpt lat="44.51943" lon="8.07217"><ele>607.0</ele><time>2026-05-01T13:12:15.155Z</time></trkpt><trkpt lat="44.5192583" lon="8.072145"><ele>609.0</ele><time>2026-05-01T13:12:17.155Z</time></trkpt><trkpt lat="44.5191633" lon="8.0721083"><ele>611.0</ele><time>2026-05-01T13:12:18.152Z</time></trkpt><trkpt lat="44.51906" lon="8.072035"><ele>611.0</ele><time>2026-05-01T13:12:19.154Z</time></trkpt><trkpt lat="44.5189583" lon="8.0719433"><ele>611.0</ele><time>2026-05-01T13:12:20.154Z</time></trkpt><trkpt lat="44.5188483" lon="8.071845"><ele>611.0</ele><time>2026-05-01T13:12:21.158Z</time></trkpt><trkpt lat="44.5187483" lon="8.0717433"><ele>611.0</ele><time>2026-05-01T13:12:22.151Z</time></trkpt><trkpt lat="44.51864" lon="8.071645"><ele>611.0</ele><time>2026-05-01T13:12:23.156Z</time></trkpt><trkpt lat="44.518525" lon="8.0715533"><ele>611.0</ele><time>2026-05-01T13:12:24.153Z</time></trkpt><trkpt lat="44.5184067" lon="8.0714883"><ele>611.0</ele><time>2026-05-01T13:12:25.153Z</time></trkpt><trkpt lat="44.5182833" lon="8.0714583"><ele>611.0</ele><time>2026-05-01T13:12:26.153Z</time></trkpt><trkpt lat="44.518145" lon="8.0714567"><ele>611.0</ele><time>2026-05-01T13:12:27.157Z</time></trkpt><trkpt lat="44.5180133" lon="8.0714667"><ele>611.0</ele><time>2026-05-01T13:12:28.154Z</time></trkpt><trkpt lat="44.5178817" lon="8.0714583"><ele>611.0</ele><time>2026-05-01T13:12:29.153Z</time></trkpt><trkpt lat="44.5177533" lon="8.071415"><ele>611.0</ele><time>2026-05-01T13:12:30.151Z</time></trkpt><trkpt lat="44.517625" lon="8.0713533"><ele>613.75</ele><time>2026-05-01T13:12:31.152Z</time></trkpt><trkpt lat="44.5175067" lon="8.07127"><ele>616.5</ele><time>2026-05-01T13:12:32.157Z</time></trkpt><trkpt lat="44.51739" lon="8.071175"><ele>619.25</ele><time>2026-05-01T13:12:33.153Z</time></trkpt><trkpt lat="44.517275" lon="8.07106"><ele>622.0</ele><time>2026-05-01T13:12:34.151Z</time></trkpt><trkpt lat="44.5171617" lon="8.0709383"><ele>623.0</ele><time>2026-05-01T13:12:35.151Z</time></trkpt><trkpt lat="44.517055" lon="8.0708033"><ele>624.0</ele><time>2026-05-01T13:12:36.155Z</time></trkpt><trkpt lat="44.5169533" lon="8.0706683"><ele>625.0</ele><time>2026-05-01T13:12:37.153Z</time></trkpt><trkpt lat="44.516855" lon="8.0705383"><ele>626.0</ele><time>2026-05-01T13:12:38.153Z</time></trkpt><trkpt lat="44.51675" lon="8.07043"><ele>626.0</ele><time>2026-05-01T13:12:39.149Z</time></trkpt><trkpt lat="44.5166333" lon="8.07033"><ele>626.0</ele><time>2026-05-01T13:12:40.151Z</time></trkpt><trkpt lat="44.5165067" lon="8.0702367"><ele>626.0</ele><time>2026-05-01T13:12:41.155Z</time></trkpt><trkpt lat="44.5163783" lon="8.0701483"><ele>626.0</ele><time>2026-05-01T13:12:42.151Z</time></trkpt><trkpt lat="44.51625" lon="8.0700683"><ele>624.25</ele><time>2026-05-01T13:12:43.155Z</time></trkpt><trkpt lat="44.51613" lon="8.0699983"><ele>622.5</ele><time>2026-05-01T13:12:44.153Z</time></trkpt><trkpt lat="44.5160183" lon="8.0699467"><ele>620.75</ele><time>2026-05-01T13:12:45.15Z</time></trkpt><trkpt lat="44.5158983" lon="8.0699267"><ele>619.0</ele><time>2026-05-01T13:12:46.15Z</time></trkpt><trkpt lat="44.5157733" lon="8.0699467"><ele>621.75</ele><time>2026-05-01T13:12:47.152Z</time></trkpt><trkpt lat="44.51565" lon="8.0699983"><ele>624.5</ele><time>2026-05-01T13:12:48.154Z</time></trkpt><trkpt lat="44.515525" lon="8.0700767"><ele>627.25</ele><time>2026-05-01T13:12:49.156Z</time></trkpt><trkpt lat="44.51541" lon="8.07019"><ele>630.0</ele><time>2026-05-01T13:12:50.155Z</time></trkpt><trkpt lat="44.5152967" lon="8.0703317"><ele>630.0</ele><time>2026-05-01T13:12:51.156Z</time></trkpt><trkpt lat="44.5152083" lon="8.0705217"><ele>630.0</ele><time>2026-05-01T13:12:52.156Z</time></trkpt><trkpt lat="44.5151167" lon="8.0707033"><ele>630.0</ele><time>2026-05-01T13:12:53.154Z</time></trkpt><trkpt lat="44.5150267" lon="8.070905"><ele>636.6666666666666</ele><time>2026-05-01T13:12:54.152Z</time></trkpt><trkpt lat="44.5149233" lon="8.0710867"><ele>643.3333333333333</ele><time>2026-05-01T13:12:55.152Z</time></trkpt><trkpt lat="44.5148067" lon="8.0712467"><ele>650.0</ele><time>2026-05-01T13:12:56.153Z</time></trkpt><trkpt lat="44.514675" lon="8.0713967"><ele>652.0</ele><time>2026-05-01T13:12:57.151Z</time></trkpt><trkpt lat="44.514545" lon="8.071545"><ele>654.0</ele><time>2026-05-01T13:12:58.155Z</time></trkpt><trkpt lat="44.5144217" lon="8.071675"><ele>656.0</ele><time>2026-05-01T13:12:59.157Z</time></trkpt><trkpt lat="44.5143083" lon="8.0718083"><ele>656.0</ele><time>2026-05-01T13:13:00.153Z</time></trkpt><trkpt lat="44.5141817" lon="8.0719267"><ele>656.0</ele><time>2026-05-01T13:13:01.153Z</time></trkpt><trkpt lat="44.51404" lon="8.0720233"><ele>656.0</ele><time>2026-05-01T13:13:02.15Z</time></trkpt><trkpt lat="44.5139017" lon="8.07211"><ele>656.0</ele><time>2026-05-01T13:13:03.154Z</time></trkpt><trkpt lat="44.513775" lon="8.0721767"><ele>656.0</ele><time>2026-05-01T13:13:04.158Z</time></trkpt><trkpt lat="44.5136717" lon="8.07223"><ele>656.0</ele><time>2026-05-01T13:13:05.152Z</time></trkpt><trkpt lat="44.5136117" lon="8.0722767"><ele>656.0</ele><time>2026-05-01T13:13:06.152Z</time></trkpt><trkpt lat="44.5135267" lon="8.0723767"><ele>656.0</ele><time>2026-05-01T13:13:08.153Z</time></trkpt><trkpt lat="44.5135783" lon="8.0724333"><ele>656.0</ele><time>2026-05-01T13:13:09.15Z</time></trkpt><trkpt lat="44.5137" lon="8.0724567"><ele>656.0</ele><time>2026-05-01T13:13:11.156Z</time></trkpt><trkpt lat="44.5137817" lon="8.07244"><ele>656.0</ele><time>2026-05-01T13:13:12.155Z</time></trkpt><trkpt lat="44.5138833" lon="8.0724083"><ele>656.0</ele><time>2026-05-01T13:13:13.155Z</time></trkpt><trkpt lat="44.5140067" lon="8.0723533"><ele>656.0</ele><time>2026-05-01T13:13:14.153Z</time></trkpt><trkpt lat="44.5141283" lon="8.0722983"><ele>656.0</ele><time>2026-05-01T13:13:15.149Z</time></trkpt><trkpt lat="44.514255" lon="8.0722317"><ele>656.0</ele><time>2026-05-01T13:13:16.151Z</time></trkpt><trkpt lat="44.5143867" lon="8.07217"><ele>656.0</ele><time>2026-05-01T13:13:17.152Z</time></trkpt><trkpt lat="44.5145217" lon="8.0721167"><ele>656.0</ele><time>2026-05-01T13:13:18.152Z</time></trkpt><trkpt lat="44.5146583" lon="8.0720483"><ele>660.0</ele><time>2026-05-01T13:13:19.154Z</time></trkpt><trkpt lat="44.5147917" lon="8.0719717"><ele>664.0</ele><time>2026-05-01T13:13:20.151Z</time></trkpt><trkpt lat="44.5149183" lon="8.0718767"><ele>668.0</ele><time>2026-05-01T13:13:21.152Z</time></trkpt><trkpt lat="44.515025" lon="8.0717683"><ele>672.0</ele><time>2026-05-01T13:13:22.153Z</time></trkpt><trkpt lat="44.5151183" lon="8.0716733"><ele>672.4000000000001</ele><time>2026-05-01T13:13:23.154Z</time></trkpt><trkpt lat="44.5152033" lon="8.0716"><ele>672.8000000000001</ele><time>2026-05-01T13:13:24.148Z</time></trkpt><trkpt lat="44.51529" lon="8.0715583"><ele>673.2</ele><time>2026-05-01T13:13:25.152Z</time></trkpt><trkpt lat="44.51538" lon="8.0715583"><ele>673.6</ele><time>2026-05-01T13:13:26.154Z</time></trkpt><trkpt lat="44.5154583" lon="8.0716183"><ele>674.0</ele><time>2026-05-01T13:13:27.155Z</time></trkpt><trkpt lat="44.5155317" lon="8.0717067"><ele>674.0</ele><time>2026-05-01T13:13:28.151Z</time></trkpt><trkpt lat="44.515585" lon="8.0718317"><ele>674.0</ele><time>2026-05-01T13:13:29.153Z</time></trkpt><trkpt lat="44.5156433" lon="8.0719833"><ele>674.0</ele><time>2026-05-01T13:13:30.151Z</time></trkpt><trkpt lat="44.5157033" lon="8.07216"><ele>674.0</ele><time>2026-05-01T13:13:31.153Z</time></trkpt><trkpt lat="44.5157667" lon="8.0723283"><ele>676.25</ele><time>2026-05-01T13:13:32.151Z</time></trkpt><trkpt lat="44.5158233" lon="8.07251"><ele>678.5</ele><time>2026-05-01T13:13:33.154Z</time></trkpt><trkpt lat="44.5158767" lon="8.072695"><ele>680.75</ele><time>2026-05-01T13:13:34.153Z</time></trkpt><trkpt lat="44.5159433" lon="8.0728667"><ele>683.0</ele><time>2026-05-01T13:13:35.152Z</time></trkpt><trkpt lat="44.5160367" lon="8.0730167"><ele>683.0</ele><time>2026-05-01T13:13:36.155Z</time></trkpt><trkpt lat="44.5161467" lon="8.07313"><ele>683.0</ele><time>2026-05-01T13:13:37.155Z</time></trkpt><trkpt lat="44.516265" lon="8.0732233"><ele>683.0</ele><time>2026-05-01T13:13:38.156Z</time></trkpt><trkpt lat="44.516385" lon="8.0733067"><ele>683.0</ele><time>2026-05-01T13:13:39.151Z</time></trkpt><trkpt lat="44.5164967" lon="8.0733967"><ele>683.25</ele><time>2026-05-01T13:13:40.151Z</time></trkpt><trkpt lat="44.5165967" lon="8.0734933"><ele>683.5</ele><time>2026-05-01T13:13:41.153Z</time></trkpt><trkpt lat="44.5166833" lon="8.0736"><ele>683.75</ele><time>2026-05-01T13:13:42.152Z</time></trkpt><trkpt lat="44.516755" lon="8.0737183"><ele>684.0</ele><time>2026-05-01T13:13:43.154Z</time></trkpt><trkpt lat="44.5168017" lon="8.07385"><ele>684.0</ele><time>2026-05-01T13:13:44.149Z</time></trkpt><trkpt lat="44.5168217" lon="8.0739717"><ele>684.0</ele><time>2026-05-01T13:13:45.153Z</time></trkpt><trkpt lat="44.5168217" lon="8.0740833"><ele>684.0</ele><time>2026-05-01T13:13:46.151Z</time></trkpt><trkpt lat="44.51676" lon="8.07414"><ele>684.0</ele><time>2026-05-01T13:13:47.154Z</time></trkpt><trkpt lat="44.51665" lon="8.0741333"><ele>684.0</ele><time>2026-05-01T13:13:49.155Z</time></trkpt><trkpt lat="44.5165683" lon="8.0740633"><ele>684.0</ele><time>2026-05-01T13:13:50.155Z</time></trkpt><trkpt lat="44.5165" lon="8.0739767"><ele>684.0</ele><time>2026-05-01T13:13:51.153Z</time></trkpt><trkpt lat="44.5164167" lon="8.0738867"><ele>684.0</ele><time>2026-05-01T13:13:52.16Z</time></trkpt><trkpt lat="44.5163183" lon="8.0738033"><ele>684.0</ele><time>2026-05-01T13:13:53.153Z</time></trkpt><trkpt lat="44.5162133" lon="8.0737483"><ele>684.0</ele><time>2026-05-01T13:13:54.152Z</time></trkpt><trkpt lat="44.5161083" lon="8.0737283"><ele>684.0</ele><time>2026-05-01T13:13:55.153Z</time></trkpt><trkpt lat="44.516" lon="8.0737383"><ele>686.5</ele><time>2026-05-01T13:13:56.156Z</time></trkpt><trkpt lat="44.51589" lon="8.0737967"><ele>689.0</ele><time>2026-05-01T13:13:57.152Z</time></trkpt><trkpt lat="44.5157817" lon="8.0738817"><ele>691.5</ele><time>2026-05-01T13:13:58.154Z</time></trkpt><trkpt lat="44.5156667" lon="8.0739667"><ele>694.0</ele><time>2026-05-01T13:13:59.156Z</time></trkpt><trkpt lat="44.5155433" lon="8.074035"><ele>694.0</ele><time>2026-05-01T13:14:00.156Z</time></trkpt><trkpt lat="44.5154117" lon="8.07409"><ele>694.0</ele><time>2026-05-01T13:14:01.158Z</time></trkpt><trkpt lat="44.515275" lon="8.0741333"><ele>694.0</ele><time>2026-05-01T13:14:02.153Z</time></trkpt><trkpt lat="44.5151367" lon="8.07417"><ele>694.0</ele><time>2026-05-01T13:14:03.152Z</time></trkpt><trkpt lat="44.5149983" lon="8.0741883"><ele>697.0</ele><time>2026-05-01T13:14:04.153Z</time></trkpt><trkpt lat="44.5148767" lon="8.0741983"><ele>700.0</ele><time>2026-05-01T13:14:05.153Z</time></trkpt><trkpt lat="44.51478" lon="8.074215"><ele>703.0</ele><time>2026-05-01T13:14:06.154Z</time></trkpt><trkpt lat="44.5147033" lon="8.0742483"><ele>706.0</ele><time>2026-05-01T13:14:07.156Z</time></trkpt><trkpt lat="44.514665" lon="8.0743783"><ele>709.0</ele><time>2026-05-01T13:14:09.151Z</time></trkpt><trkpt lat="44.51471" lon="8.0745033"><ele>709.0</ele><time>2026-05-01T13:14:11.158Z</time></trkpt><trkpt lat="44.514765" lon="8.0745517"><ele>709.0</ele><time>2026-05-01T13:14:12.152Z</time></trkpt><trkpt lat="44.51484" lon="8.0745933"><ele>709.0</ele><time>2026-05-01T13:14:13.153Z</time></trkpt><trkpt lat="44.5149417" lon="8.0746567"><ele>709.0</ele><time>2026-05-01T13:14:14.15Z</time></trkpt><trkpt lat="44.5150933" lon="8.07479"><ele>709.0</ele><time>2026-05-01T13:14:15.162Z</time></trkpt><trkpt lat="44.5152183" lon="8.0749117"><ele>709.5</ele><time>2026-05-01T13:14:16.15Z</time></trkpt><trkpt lat="44.5153367" lon="8.0750283"><ele>710.0</ele><time>2026-05-01T13:14:17.15Z</time></trkpt><trkpt lat="44.5154467" lon="8.0751483"><ele>710.5</ele><time>2026-05-01T13:14:18.156Z</time></trkpt><trkpt lat="44.5155433" lon="8.0752817"><ele>711.0</ele><time>2026-05-01T13:14:19.153Z</time></trkpt><trkpt lat="44.51562" lon="8.07541"><ele>711.0</ele><time>2026-05-01T13:14:20.154Z</time></trkpt><trkpt lat="44.5156733" lon="8.0755167"><ele>711.0</ele><time>2026-05-01T13:14:21.154Z</time></trkpt><trkpt lat="44.5157217" lon="8.0755967"><ele>711.0</ele><time>2026-05-01T13:14:22.155Z</time></trkpt><trkpt lat="44.5157017" lon="8.0757083"><ele>711.0</ele><time>2026-05-01T13:14:24.152Z</time></trkpt><trkpt lat="44.5155933" lon="8.0756283"><ele>711.0</ele><time>2026-05-01T13:14:26.151Z</time></trkpt><trkpt lat="44.5155433" lon="8.0755417"><ele>711.0</ele><time>2026-05-01T13:14:27.151Z</time></trkpt><trkpt lat="44.51548" lon="8.0754567"><ele>711.0</ele><time>2026-05-01T13:14:28.153Z</time></trkpt><trkpt lat="44.5153983" lon="8.0753733"><ele>711.0</ele><time>2026-05-01T13:14:29.158Z</time></trkpt><trkpt lat="44.5153017" lon="8.0753117"><ele>711.0</ele><time>2026-05-01T13:14:30.154Z</time></trkpt><trkpt lat="44.5151883" lon="8.075275"><ele>711.0</ele><time>2026-05-01T13:14:31.153Z</time></trkpt><trkpt lat="44.5150783" lon="8.0752617"><ele>713.25</ele><time>2026-05-01T13:14:32.158Z</time></trkpt><trkpt lat="44.5149733" lon="8.0752683"><ele>715.5</ele><time>2026-05-01T13:14:33.153Z</time></trkpt><trkpt lat="44.5148683" lon="8.0753067"><ele>717.75</ele><time>2026-05-01T13:14:34.154Z</time></trkpt><trkpt lat="44.51477" lon="8.07539"><ele>720.0</ele><time>2026-05-01T13:14:35.158Z</time></trkpt><trkpt lat="44.514675" lon="8.0755"><ele>720.0</ele><time>2026-05-01T13:14:36.151Z</time></trkpt><trkpt lat="44.5145867" lon="8.075625"><ele>720.0</ele><time>2026-05-01T13:14:37.154Z</time></trkpt><trkpt lat="44.5145017" lon="8.0757517"><ele>720.0</ele><time>2026-05-01T13:14:38.155Z</time></trkpt><trkpt lat="44.514435" lon="8.0758717"><ele>720.0</ele><time>2026-05-01T13:14:39.155Z</time></trkpt><trkpt lat="44.5143833" lon="8.0759767"><ele>720.0</ele><time>2026-05-01T13:14:40.155Z</time></trkpt><trkpt lat="44.5143517" lon="8.0760783"><ele>722.1666666666666</ele><time>2026-05-01T13:14:41.155Z</time></trkpt><trkpt lat="44.514395" lon="8.0761933"><ele>724.3333333333334</ele><time>2026-05-01T13:14:43.153Z</time></trkpt><trkpt lat="44.5144883" lon="8.0762283"><ele>726.5</ele><time>2026-05-01T13:14:45.15Z</time></trkpt><trkpt lat="44.5145617" lon="8.07621"><ele>728.6666666666667</ele><time>2026-05-01T13:14:46.152Z</time></trkpt><trkpt lat="44.5146317" lon="8.0762183"><ele>730.8333333333334</ele><time>2026-05-01T13:14:47.153Z</time></trkpt><trkpt lat="44.5146967" lon="8.076255"><ele>733.0</ele><time>2026-05-01T13:14:48.153Z</time></trkpt><trkpt lat="44.5147733" lon="8.0763117"><ele>733.0</ele><time>2026-05-01T13:14:49.155Z</time></trkpt><trkpt lat="44.5148567" lon="8.0763933"><ele>733.0</ele><time>2026-05-01T13:14:50.156Z</time></trkpt><trkpt lat="44.514935" lon="8.0765033"><ele>733.0</ele><time>2026-05-01T13:14:51.156Z</time></trkpt><trkpt lat="44.5149983" lon="8.0766283"><ele>733.0</ele><time>2026-05-01T13:14:52.156Z</time></trkpt><trkpt lat="44.5150433" lon="8.0767783"><ele>733.0</ele><time>2026-05-01T13:14:53.157Z</time></trkpt><trkpt lat="44.515065" lon="8.0769367"><ele>734.2</ele><time>2026-05-01T13:14:54.153Z</time></trkpt><trkpt lat="44.5150617" lon="8.0771017"><ele>735.4</ele><time>2026-05-01T13:14:55.149Z</time></trkpt><trkpt lat="44.5150517" lon="8.07727"><ele>736.6</ele><time>2026-05-01T13:14:56.152Z</time></trkpt><trkpt lat="44.515045" lon="8.077415"><ele>737.8000000000001</ele><time>2026-05-01T13:14:57.15Z</time></trkpt><trkpt lat="44.5150417" lon="8.0775283"><ele>739.0</ele><time>2026-05-01T13:14:58.154Z</time></trkpt><trkpt lat="44.5150367" lon="8.0776233"><ele>739.0</ele><time>2026-05-01T13:14:59.153Z</time></trkpt><trkpt lat="44.51495" lon="8.077655"><ele>739.0</ele><time>2026-05-01T13:15:01.157Z</time></trkpt><trkpt lat="44.5149067" lon="8.0774967"><ele>739.0</ele><time>2026-05-01T13:15:03.156Z</time></trkpt><trkpt lat="44.5148867" lon="8.0774067"><ele>739.0</ele><time>2026-05-01T13:15:04.153Z</time></trkpt><trkpt lat="44.5148733" lon="8.0772483"><ele>739.0</ele><time>2026-05-01T13:15:05.153Z</time></trkpt><trkpt lat="44.5148367" lon="8.0771217"><ele>739.0</ele><time>2026-05-01T13:15:06.153Z</time></trkpt><trkpt lat="44.5147683" lon="8.0769833"><ele>739.0</ele><time>2026-05-01T13:15:07.156Z</time></trkpt><trkpt lat="44.5146817" lon="8.0768667"><ele>739.0</ele><time>2026-05-01T13:15:08.153Z</time></trkpt><trkpt lat="44.5145917" lon="8.0767717"><ele>739.0</ele><time>2026-05-01T13:15:09.153Z</time></trkpt><trkpt lat="44.5144967" lon="8.076695"><ele>741.6</ele><time>2026-05-01T13:15:10.152Z</time></trkpt><trkpt lat="44.5143967" lon="8.0766433"><ele>744.2</ele><time>2026-05-01T13:15:11.152Z</time></trkpt><trkpt lat="44.5142983" lon="8.076615"><ele>746.8000000000001</ele><time>2026-05-01T13:15:12.152Z</time></trkpt><trkpt lat="44.5142" lon="8.0766167"><ele>749.4000000000001</ele><time>2026-05-01T13:15:13.152Z</time></trkpt><trkpt lat="44.514105" lon="8.0766567"><ele>752.0</ele><time>2026-05-01T13:15:14.156Z</time></trkpt><trkpt lat="44.5140183" lon="8.0767367"><ele>752.0</ele><time>2026-05-01T13:15:15.152Z</time></trkpt><trkpt lat="44.5139333" lon="8.076835"><ele>752.0</ele><time>2026-05-01T13:15:16.159Z</time></trkpt><trkpt lat="44.5138417" lon="8.07694"><ele>752.0</ele><time>2026-05-01T13:15:17.158Z</time></trkpt><trkpt lat="44.5137483" lon="8.077055"><ele>752.0</ele><time>2026-05-01T13:15:18.156Z</time></trkpt><trkpt lat="44.5136417" lon="8.0771667"><ele>751.5</ele><time>2026-05-01T13:15:19.155Z</time></trkpt><trkpt lat="44.5135317" lon="8.07727"><ele>751.0</ele><time>2026-05-01T13:15:20.157Z</time></trkpt><trkpt lat="44.5134167" lon="8.0773683"><ele>750.5</ele><time>2026-05-01T13:15:21.151Z</time></trkpt><trkpt lat="44.51329" lon="8.0774417"><ele>750.0</ele><time>2026-05-01T13:15:22.156Z</time></trkpt><trkpt lat="44.51316" lon="8.0775183"><ele>752.25</ele><time>2026-05-01T13:15:23.152Z</time></trkpt><trkpt lat="44.51303" lon="8.077595"><ele>754.5</ele><time>2026-05-01T13:15:24.153Z</time></trkpt><trkpt lat="44.5128933" lon="8.077655"><ele>756.75</ele><time>2026-05-01T13:15:25.152Z</time></trkpt><trkpt lat="44.5127567" lon="8.0777183"><ele>759.0</ele><time>2026-05-01T13:15:26.154Z</time></trkpt><trkpt lat="44.5126133" lon="8.07778"><ele>759.0</ele><time>2026-05-01T13:15:27.155Z</time></trkpt><trkpt lat="44.5124667" lon="8.077845"><ele>759.0</ele><time>2026-05-01T13:15:28.156Z</time></trkpt><trkpt lat="44.512315" lon="8.07791"><ele>759.0</ele><time>2026-05-01T13:15:29.152Z</time></trkpt><trkpt lat="44.5121567" lon="8.077975"><ele>759.6666666666666</ele><time>2026-05-01T13:15:30.152Z</time></trkpt><trkpt lat="44.511995" lon="8.078035"><ele>760.3333333333333</ele><time>2026-05-01T13:15:31.151Z</time></trkpt><trkpt lat="44.5118333" lon="8.0780883"><ele>761.0</ele><time>2026-05-01T13:15:32.153Z</time></trkpt><trkpt lat="44.5116733" lon="8.0781283"><ele>761.0</ele><time>2026-05-01T13:15:33.155Z</time></trkpt><trkpt lat="44.5115167" lon="8.07816"><ele>761.0</ele><time>2026-05-01T13:15:34.155Z</time></trkpt><trkpt lat="44.511365" lon="8.07817"><ele>761.0</ele><time>2026-05-01T13:15:35.155Z</time></trkpt><trkpt lat="44.5112183" lon="8.0781667"><ele>762.0</ele><time>2026-05-01T13:15:36.151Z</time></trkpt><trkpt lat="44.5110733" lon="8.0781467"><ele>763.0</ele><time>2026-05-01T13:15:37.154Z</time></trkpt><trkpt lat="44.510935" lon="8.0781117"><ele>764.0</ele><time>2026-05-01T13:15:38.151Z</time></trkpt><trkpt lat="44.510795" lon="8.078065"><ele>765.0</ele><time>2026-05-01T13:15:39.15Z</time></trkpt><trkpt lat="44.51066" lon="8.0780083"><ele>765.0</ele><time>2026-05-01T13:15:40.15Z</time></trkpt><trkpt lat="44.5105233" lon="8.077945"><ele>765.0</ele><time>2026-05-01T13:15:41.152Z</time></trkpt><trkpt lat="44.510395" lon="8.077885"><ele>765.0</ele><time>2026-05-01T13:15:42.152Z</time></trkpt><trkpt lat="44.510275" lon="8.0778433"><ele>765.0</ele><time>2026-05-01T13:15:43.154Z</time></trkpt><trkpt lat="44.51016" lon="8.0778317"><ele>766.0</ele><time>2026-05-01T13:15:44.154Z</time></trkpt><trkpt lat="44.510055" lon="8.077855"><ele>767.0</ele><time>2026-05-01T13:15:45.154Z</time></trkpt><trkpt lat="44.5099667" lon="8.07791"><ele>768.0</ele><time>2026-05-01T13:15:46.155Z</time></trkpt><trkpt lat="44.509895" lon="8.07798"><ele>769.0</ele><time>2026-05-01T13:15:47.154Z</time></trkpt><trkpt lat="44.509835" lon="8.0780483"><ele>770.0</ele><time>2026-05-01T13:15:48.154Z</time></trkpt><trkpt lat="44.50977" lon="8.0781117"><ele>771.0</ele><time>2026-05-01T13:15:49.154Z</time></trkpt><trkpt lat="44.5097067" lon="8.0781683"><ele>771.0</ele><time>2026-05-01T13:15:50.153Z</time></trkpt><trkpt lat="44.509645" lon="8.0782183"><ele>771.0</ele><time>2026-05-01T13:15:51.157Z</time></trkpt><trkpt lat="44.5095767" lon="8.0782533"><ele>771.0</ele><time>2026-05-01T13:15:52.155Z</time></trkpt><trkpt lat="44.5095" lon="8.078265"><ele>771.0</ele><time>2026-05-01T13:15:53.155Z</time></trkpt><trkpt lat="44.5094117" lon="8.0782567"><ele>771.0</ele><time>2026-05-01T13:15:54.154Z</time></trkpt><trkpt lat="44.509315" lon="8.0782317"><ele>771.0</ele><time>2026-05-01T13:15:55.156Z</time></trkpt><trkpt lat="44.5091967" lon="8.078185"><ele>773.75</ele><time>2026-05-01T13:15:56.152Z</time></trkpt><trkpt lat="44.5090683" lon="8.07813"><ele>776.5</ele><time>2026-05-01T13:15:57.152Z</time></trkpt><trkpt lat="44.5089417" lon="8.0780783"><ele>779.25</ele><time>2026-05-01T13:15:58.151Z</time></trkpt><trkpt lat="44.5088183" lon="8.078025"><ele>782.0</ele><time>2026-05-01T13:15:59.157Z</time></trkpt><trkpt lat="44.508685" lon="8.0779683"><ele>782.5</ele><time>2026-05-01T13:16:00.154Z</time></trkpt><trkpt lat="44.5085567" lon="8.0779133"><ele>783.0</ele><time>2026-05-01T13:16:01.155Z</time></trkpt><trkpt lat="44.5084333" lon="8.0778617"><ele>783.5</ele><time>2026-05-01T13:16:02.152Z</time></trkpt><trkpt lat="44.5083167" lon="8.0778333"><ele>784.0</ele><time>2026-05-01T13:16:03.154Z</time></trkpt><trkpt lat="44.5082033" lon="8.07785"><ele>784.0</ele><time>2026-05-01T13:16:04.155Z</time></trkpt><trkpt lat="44.508085" lon="8.0778917"><ele>784.0</ele><time>2026-05-01T13:16:05.153Z</time></trkpt><trkpt lat="44.50797" lon="8.0779567"><ele>784.0</ele><time>2026-05-01T13:16:06.157Z</time></trkpt><trkpt lat="44.5078567" lon="8.0780333"><ele>784.0</ele><time>2026-05-01T13:16:07.152Z</time></trkpt><trkpt lat="44.5077317" lon="8.0781267"><ele>785.6666666666666</ele><time>2026-05-01T13:16:08.158Z</time></trkpt><trkpt lat="44.5076" lon="8.07822"><ele>787.3333333333333</ele><time>2026-05-01T13:16:09.153Z</time></trkpt><trkpt lat="44.5074583" lon="8.0783217"><ele>789.0</ele><time>2026-05-01T13:16:10.152Z</time></trkpt><trkpt lat="44.507315" lon="8.0784283"><ele>789.0</ele><time>2026-05-01T13:16:11.156Z</time></trkpt><trkpt lat="44.5071767" lon="8.078545"><ele>789.0</ele><time>2026-05-01T13:16:12.159Z</time></trkpt><trkpt lat="44.5070433" lon="8.0786833"><ele>789.0</ele><time>2026-05-01T13:16:13.156Z</time></trkpt><trkpt lat="44.50692" lon="8.0788433"><ele>789.6666666666667</ele><time>2026-05-01T13:16:14.153Z</time></trkpt><trkpt lat="44.5067967" lon="8.0790183"><ele>790.3333333333334</ele><time>2026-05-01T13:16:15.154Z</time></trkpt><trkpt lat="44.506675" lon="8.0791983"><ele>791.0</ele><time>2026-05-01T13:16:16.156Z</time></trkpt><trkpt lat="44.506565" lon="8.0793783"><ele>791.0</ele><time>2026-05-01T13:16:17.15Z</time></trkpt><trkpt lat="44.5064517" lon="8.0795267"><ele>791.0</ele><time>2026-05-01T13:16:18.153Z</time></trkpt><trkpt lat="44.5063433" lon="8.0796683"><ele>791.0</ele><time>2026-05-01T13:16:19.155Z</time></trkpt><trkpt lat="44.50624" lon="8.0797833"><ele>791.0</ele><time>2026-05-01T13:16:20.152Z</time></trkpt><trkpt lat="44.50613" lon="8.0798767"><ele>790.5</ele><time>2026-05-01T13:16:21.148Z</time></trkpt><trkpt lat="44.5060083" lon="8.079935"><ele>790.0</ele><time>2026-05-01T13:16:22.151Z</time></trkpt><trkpt lat="44.5058717" lon="8.0799667"><ele>789.5</ele><time>2026-05-01T13:16:23.152Z</time></trkpt><trkpt lat="44.5057183" lon="8.0799917"><ele>789.0</ele><time>2026-05-01T13:16:24.15Z</time></trkpt><trkpt lat="44.5055667" lon="8.0799883"><ele>789.0</ele><time>2026-05-01T13:16:25.152Z</time></trkpt><trkpt lat="44.5054267" lon="8.079955"><ele>789.0</ele><time>2026-05-01T13:16:26.152Z</time></trkpt><trkpt lat="44.5052983" lon="8.0798767"><ele>789.0</ele><time>2026-05-01T13:16:27.153Z</time></trkpt><trkpt lat="44.505165" lon="8.0797817"><ele>789.0</ele><time>2026-05-01T13:16:28.15Z</time></trkpt><trkpt lat="44.50503" lon="8.0796783"><ele>787.6666666666667</ele><time>2026-05-01T13:16:29.153Z</time></trkpt><trkpt lat="44.5049383" lon="8.0795117"><ele>786.3333333333334</ele><time>2026-05-01T13:16:30.153Z</time></trkpt><trkpt lat="44.5048333" lon="8.0793467"><ele>785.0</ele><time>2026-05-01T13:16:31.152Z</time></trkpt><trkpt lat="44.5047433" lon="8.079145"><ele>782.6666666666667</ele><time>2026-05-01T13:16:32.149Z</time></trkpt><trkpt lat="44.5046683" lon="8.0789267"><ele>780.3333333333333</ele><time>2026-05-01T13:16:33.153Z</time></trkpt><trkpt lat="44.5046033" lon="8.0787033"><ele>778.0</ele><time>2026-05-01T13:16:34.151Z</time></trkpt><trkpt lat="44.504545" lon="8.0784733"><ele>782.3333333333333</ele><time>2026-05-01T13:16:35.153Z</time></trkpt><trkpt lat="44.5044983" lon="8.07824"><ele>786.6666666666667</ele><time>2026-05-01T13:16:36.156Z</time></trkpt><trkpt lat="44.50447" lon="8.077995"><ele>791.0</ele><time>2026-05-01T13:16:37.154Z</time></trkpt><trkpt lat="44.5044567" lon="8.0777317"><ele>791.0</ele><time>2026-05-01T13:16:38.15Z</time></trkpt><trkpt lat="44.5044533" lon="8.0774617"><ele>791.0</ele><time>2026-05-01T13:16:39.151Z</time></trkpt><trkpt lat="44.50445" lon="8.0771817"><ele>791.0</ele><time>2026-05-01T13:16:40.154Z</time></trkpt><trkpt lat="44.504445" lon="8.076895"><ele>789.3333333333334</ele><time>2026-05-01T13:16:41.156Z</time></trkpt><trkpt lat="44.50444" lon="8.0766017"><ele>787.6666666666667</ele><time>2026-05-01T13:16:42.159Z</time></trkpt><trkpt lat="44.504435" lon="8.0763133"><ele>786.0</ele><time>2026-05-01T13:16:43.153Z</time></trkpt><trkpt lat="44.50444" lon="8.0760283"><ele>784.6666666666667</ele><time>2026-05-01T13:16:44.152Z</time></trkpt><trkpt lat="44.5044367" lon="8.0757417"><ele>783.3333333333334</ele><time>2026-05-01T13:16:45.152Z</time></trkpt><trkpt lat="44.5044283" lon="8.0754567"><ele>782.0</ele><time>2026-05-01T13:16:46.153Z</time></trkpt><trkpt lat="44.5044133" lon="8.0751683"><ele>780.6666666666667</ele><time>2026-05-01T13:16:47.152Z</time></trkpt><trkpt lat="44.504385" lon="8.0748867"><ele>779.3333333333333</ele><time>2026-05-01T13:16:48.156Z</time></trkpt><trkpt lat="44.504355" lon="8.074615"><ele>778.0</ele><time>2026-05-01T13:16:49.153Z</time></trkpt><trkpt lat="44.5043267" lon="8.07436"><ele>778.0</ele><time>2026-05-01T13:16:50.157Z</time></trkpt><trkpt lat="44.5042917" lon="8.0741367"><ele>778.0</ele><time>2026-05-01T13:16:51.153Z</time></trkpt><trkpt lat="44.50424" lon="8.0739433"><ele>778.0</ele><time>2026-05-01T13:16:52.154Z</time></trkpt><trkpt lat="44.5041667" lon="8.0737667"><ele>775.0</ele><time>2026-05-01T13:16:53.158Z</time></trkpt><trkpt lat="44.5040633" lon="8.07361"><ele>772.0</ele><time>2026-05-01T13:16:54.154Z</time></trkpt><trkpt lat="44.5039383" lon="8.0734633"><ele>769.0</ele><time>2026-05-01T13:16:55.158Z</time></trkpt><trkpt lat="44.5038" lon="8.0733117"><ele>768.0</ele><time>2026-05-01T13:16:56.153Z</time></trkpt><trkpt lat="44.50366" lon="8.0731583"><ele>767.0</ele><time>2026-05-01T13:16:57.154Z</time></trkpt><trkpt lat="44.5035217" lon="8.0729983"><ele>766.0</ele><time>2026-05-01T13:16:58.15Z</time></trkpt><trkpt lat="44.5033917" lon="8.0728467"><ele>766.0</ele><time>2026-05-01T13:16:59.153Z</time></trkpt><trkpt lat="44.5032783" lon="8.0727017"><ele>766.0</ele><time>2026-05-01T13:17:00.154Z</time></trkpt><trkpt lat="44.503185" lon="8.0725533"><ele>766.0</ele><time>2026-05-01T13:17:01.156Z</time></trkpt><trkpt lat="44.5031167" lon="8.072395"><ele>766.0</ele><time>2026-05-01T13:17:02.153Z</time></trkpt><trkpt lat="44.5030683" lon="8.0722167"><ele>764.0</ele><time>2026-05-01T13:17:03.151Z</time></trkpt><trkpt lat="44.503045" lon="8.07202"><ele>762.0</ele><time>2026-05-01T13:17:04.156Z</time></trkpt><trkpt lat="44.50304" lon="8.0718083"><ele>760.0</ele><time>2026-05-01T13:17:05.154Z</time></trkpt><trkpt lat="44.503045" lon="8.071575"><ele>759.0</ele><time>2026-05-01T13:17:06.151Z</time></trkpt><trkpt lat="44.5030617" lon="8.0713267"><ele>758.0</ele><time>2026-05-01T13:17:07.154Z</time></trkpt><trkpt lat="44.5030783" lon="8.0710667"><ele>757.0</ele><time>2026-05-01T13:17:08.153Z</time></trkpt><trkpt lat="44.50309" lon="8.070805"><ele>756.0</ele><time>2026-05-01T13:17:09.151Z</time></trkpt><trkpt lat="44.5031033" lon="8.0705417"><ele>755.0</ele><time>2026-05-01T13:17:10.151Z</time></trkpt><trkpt lat="44.5031133" lon="8.0702783"><ele>754.0</ele><time>2026-05-01T13:17:11.152Z</time></trkpt><trkpt lat="44.5031217" lon="8.0700233"><ele>752.6666666666667</ele><time>2026-05-01T13:17:12.151Z</time></trkpt><trkpt lat="44.50312" lon="8.0697867"><ele>751.3333333333334</ele><time>2026-05-01T13:17:13.157Z</time></trkpt><trkpt lat="44.5031" lon="8.0695783"><ele>750.0</ele><time>2026-05-01T13:17:14.151Z</time></trkpt><trkpt lat="44.503055" lon="8.0693933"><ele>750.0</ele><time>2026-05-01T13:17:15.155Z</time></trkpt><trkpt lat="44.502985" lon="8.069225"><ele>750.0</ele><time>2026-05-01T13:17:16.16Z</time></trkpt><trkpt lat="44.5028817" lon="8.069065"><ele>750.0</ele><time>2026-05-01T13:17:17.162Z</time></trkpt><trkpt lat="44.5027583" lon="8.0688967"><ele>750.0</ele><time>2026-05-01T13:17:18.153Z</time></trkpt><trkpt lat="44.502625" lon="8.06872"><ele>750.0</ele><time>2026-05-01T13:17:19.155Z</time></trkpt><trkpt lat="44.502485" lon="8.0685283"><ele>750.0</ele><time>2026-05-01T13:17:20.156Z</time></trkpt><trkpt lat="44.5023367" lon="8.0683283"><ele>748.6666666666666</ele><time>2026-05-01T13:17:21.155Z</time></trkpt><trkpt lat="44.5021867" lon="8.06813"><ele>747.3333333333333</ele><time>2026-05-01T13:17:22.156Z</time></trkpt><trkpt lat="44.502035" lon="8.067925"><ele>746.0</ele><time>2026-05-01T13:17:23.159Z</time></trkpt><trkpt lat="44.5018833" lon="8.0677167"><ele>746.0</ele><time>2026-05-01T13:17:24.15Z</time></trkpt><trkpt lat="44.501725" lon="8.0675067"><ele>746.0</ele><time>2026-05-01T13:17:25.152Z</time></trkpt><trkpt lat="44.5015717" lon="8.0672983"><ele>746.0</ele><time>2026-05-01T13:17:26.154Z</time></trkpt><trkpt lat="44.5014267" lon="8.0671017"><ele>744.3333333333333</ele><time>2026-05-01T13:17:27.153Z</time></trkpt><trkpt lat="44.5012983" lon="8.06692"><ele>742.6666666666666</ele><time>2026-05-01T13:17:28.156Z</time></trkpt><trkpt lat="44.501185" lon="8.0667633"><ele>741.0</ele><time>2026-05-01T13:17:29.153Z</time></trkpt><trkpt lat="44.5010883" lon="8.0666483"><ele>739.4</ele><time>2026-05-01T13:17:30.154Z</time></trkpt><trkpt lat="44.5009983" lon="8.0665817"><ele>737.8</ele><time>2026-05-01T13:17:31.154Z</time></trkpt><trkpt lat="44.50092" lon="8.0665717"><ele>736.1999999999999</ele><time>2026-05-01T13:17:32.154Z</time></trkpt><trkpt lat="44.5008383" lon="8.0665917"><ele>734.5999999999999</ele><time>2026-05-01T13:17:33.154Z</time></trkpt><trkpt lat="44.50077" lon="8.0667067"><ele>733.0</ele><time>2026-05-01T13:17:34.155Z</time></trkpt><trkpt lat="44.5007117" lon="8.06685"><ele>733.0</ele><time>2026-05-01T13:17:35.158Z</time></trkpt><trkpt lat="44.500655" lon="8.0670167"><ele>733.0</ele><time>2026-05-01T13:17:36.154Z</time></trkpt><trkpt lat="44.5005983" lon="8.0672033"><ele>733.0</ele><time>2026-05-01T13:17:37.156Z</time></trkpt><trkpt lat="44.50054" lon="8.0674067"><ele>733.0</ele><time>2026-05-01T13:17:38.157Z</time></trkpt><trkpt lat="44.5004733" lon="8.067625"><ele>729.0</ele><time>2026-05-01T13:17:39.155Z</time></trkpt><trkpt lat="44.5003983" lon="8.06786"><ele>725.0</ele><time>2026-05-01T13:17:40.153Z</time></trkpt><trkpt lat="44.5003217" lon="8.0681067"><ele>721.0</ele><time>2026-05-01T13:17:41.154Z</time></trkpt><trkpt lat="44.500245" lon="8.0683567"><ele>721.0</ele><time>2026-05-01T13:17:42.153Z</time></trkpt><trkpt lat="44.5001667" lon="8.068605"><ele>721.0</ele><time>2026-05-01T13:17:43.154Z</time></trkpt><trkpt lat="44.5000883" lon="8.0688533"><ele>721.0</ele><time>2026-05-01T13:17:44.155Z</time></trkpt><trkpt lat="44.5000133" lon="8.0691067"><ele>723.3333333333334</ele><time>2026-05-01T13:17:45.15Z</time></trkpt><trkpt lat="44.49994" lon="8.0693617"><ele>725.6666666666666</ele><time>2026-05-01T13:17:46.153Z</time></trkpt><trkpt lat="44.49987" lon="8.0696183"><ele>728.0</ele><time>2026-05-01T13:17:47.156Z</time></trkpt><trkpt lat="44.4997933" lon="8.0698683"><ele>730.3333333333333</ele><time>2026-05-01T13:17:48.154Z</time></trkpt><trkpt lat="44.4997233" lon="8.070095"><ele>732.6666666666666</ele><time>2026-05-01T13:17:49.154Z</time></trkpt><trkpt lat="44.499655" lon="8.0702867"><ele>735.0</ele><time>2026-05-01T13:17:50.156Z</time></trkpt><trkpt lat="44.49959" lon="8.0704367"><ele>734.0</ele><time>2026-05-01T13:17:51.152Z</time></trkpt><trkpt lat="44.4995133" lon="8.0705417"><ele>733.0</ele><time>2026-05-01T13:17:52.157Z</time></trkpt><trkpt lat="44.4994183" lon="8.0706"><ele>732.0</ele><time>2026-05-01T13:17:53.154Z</time></trkpt><trkpt lat="44.49932" lon="8.070615"><ele>731.0</ele><time>2026-05-01T13:17:54.154Z</time></trkpt><trkpt lat="44.4992183" lon="8.0705817"><ele>730.0</ele><time>2026-05-01T13:17:55.154Z</time></trkpt><trkpt lat="44.4991183" lon="8.0705067"><ele>730.0</ele><time>2026-05-01T13:17:56.151Z</time></trkpt><trkpt lat="44.4990433" lon="8.070385"><ele>730.0</ele><time>2026-05-01T13:17:57.153Z</time></trkpt><trkpt lat="44.4990217" lon="8.070205"><ele>730.0</ele><time>2026-05-01T13:17:58.163Z</time></trkpt><trkpt lat="44.49903" lon="8.0700267"><ele>730.0</ele><time>2026-05-01T13:17:59.16Z</time></trkpt><trkpt lat="44.4990567" lon="8.0698533"><ele>729.0</ele><time>2026-05-01T13:18:00.152Z</time></trkpt><trkpt lat="44.4990983" lon="8.0696717"><ele>728.0</ele><time>2026-05-01T13:18:01.159Z</time></trkpt><trkpt lat="44.49913" lon="8.0694683"><ele>727.0</ele><time>2026-05-01T13:18:02.153Z</time></trkpt><trkpt lat="44.499125" lon="8.0692617"><ele>726.0</ele><time>2026-05-01T13:18:03.154Z</time></trkpt><trkpt lat="44.49909" lon="8.0690583"><ele>723.3333333333334</ele><time>2026-05-01T13:18:04.151Z</time></trkpt><trkpt lat="44.4990267" lon="8.0688583"><ele>720.6666666666667</ele><time>2026-05-01T13:18:05.156Z</time></trkpt><trkpt lat="44.4989683" lon="8.0686567"><ele>718.0</ele><time>2026-05-01T13:18:06.154Z</time></trkpt><trkpt lat="44.4989133" lon="8.0684533"><ele>719.6666666666667</ele><time>2026-05-01T13:18:07.152Z</time></trkpt><trkpt lat="44.49886" lon="8.0682467"><ele>721.3333333333334</ele><time>2026-05-01T13:18:08.154Z</time></trkpt><trkpt lat="44.4988033" lon="8.0680433"><ele>723.0</ele><time>2026-05-01T13:18:09.153Z</time></trkpt><trkpt lat="44.4987483" lon="8.0678383"><ele>723.0</ele><time>2026-05-01T13:18:10.16Z</time></trkpt><trkpt lat="44.498695" lon="8.06763"><ele>723.0</ele><time>2026-05-01T13:18:11.152Z</time></trkpt><trkpt lat="44.4986383" lon="8.06741"><ele>723.0</ele><time>2026-05-01T13:18:12.153Z</time></trkpt><trkpt lat="44.4985817" lon="8.0671817"><ele>720.6666666666666</ele><time>2026-05-01T13:18:13.154Z</time></trkpt><trkpt lat="44.4985233" lon="8.0669617"><ele>718.3333333333333</ele><time>2026-05-01T13:18:14.152Z</time></trkpt><trkpt lat="44.4984633" lon="8.0667467"><ele>716.0</ele><time>2026-05-01T13:18:15.151Z</time></trkpt><trkpt lat="44.4984083" lon="8.0665283"><ele>714.0</ele><time>2026-05-01T13:18:16.155Z</time></trkpt><trkpt lat="44.49836" lon="8.06631"><ele>712.0</ele><time>2026-05-01T13:18:17.15Z</time></trkpt><trkpt lat="44.4983133" lon="8.0660883"><ele>710.0</ele><time>2026-05-01T13:18:18.151Z</time></trkpt><trkpt lat="44.49826" lon="8.0658717"><ele>707.0</ele><time>2026-05-01T13:18:19.154Z</time></trkpt><trkpt lat="44.4981983" lon="8.0656567"><ele>704.0</ele><time>2026-05-01T13:18:20.151Z</time></trkpt><trkpt lat="44.49814" lon="8.0654433"><ele>701.0</ele><time>2026-05-01T13:18:21.149Z</time></trkpt><trkpt lat="44.4980767" lon="8.0652267"><ele>701.0</ele><time>2026-05-01T13:18:22.154Z</time></trkpt><trkpt lat="44.4980083" lon="8.06501"><ele>701.0</ele><time>2026-05-01T13:18:23.153Z</time></trkpt><trkpt lat="44.4979233" lon="8.0648117"><ele>701.0</ele><time>2026-05-01T13:18:24.155Z</time></trkpt><trkpt lat="44.497805" lon="8.0646417"><ele>700.3333333333333</ele><time>2026-05-01T13:18:25.152Z</time></trkpt><trkpt lat="44.4976967" lon="8.0644733"><ele>699.6666666666666</ele><time>2026-05-01T13:18:26.16Z</time></trkpt><trkpt lat="44.4975933" lon="8.0643033"><ele>699.0</ele><time>2026-05-01T13:18:27.153Z</time></trkpt><trkpt lat="44.4974917" lon="8.06414"><ele>695.6666666666666</ele><time>2026-05-01T13:18:28.154Z</time></trkpt><trkpt lat="44.4973867" lon="8.0639817"><ele>692.3333333333333</ele><time>2026-05-01T13:18:29.151Z</time></trkpt><trkpt lat="44.4972867" lon="8.0638233"><ele>689.0</ele><time>2026-05-01T13:18:30.151Z</time></trkpt><trkpt lat="44.4971867" lon="8.063665"><ele>689.0</ele><time>2026-05-01T13:18:31.154Z</time></trkpt><trkpt lat="44.4970917" lon="8.0635083"><ele>689.0</ele><time>2026-05-01T13:18:32.154Z</time></trkpt><trkpt lat="44.496995" lon="8.0633483"><ele>689.0</ele><time>2026-05-01T13:18:33.152Z</time></trkpt><trkpt lat="44.496895" lon="8.0631883"><ele>689.0</ele><time>2026-05-01T13:18:34.153Z</time></trkpt><trkpt lat="44.4967967" lon="8.0630383"><ele>689.0</ele><time>2026-05-01T13:18:35.155Z</time></trkpt><trkpt lat="44.496685" lon="8.0629017"><ele>689.0</ele><time>2026-05-01T13:18:36.155Z</time></trkpt><trkpt lat="44.4965767" lon="8.06278"><ele>689.0</ele><time>2026-05-01T13:18:37.155Z</time></trkpt><trkpt lat="44.4964567" lon="8.0626633"><ele>689.0</ele><time>2026-05-01T13:18:38.154Z</time></trkpt><trkpt lat="44.4963383" lon="8.0625433"><ele>687.0</ele><time>2026-05-01T13:18:39.154Z</time></trkpt><trkpt lat="44.4962233" lon="8.0624183"><ele>685.0</ele><time>2026-05-01T13:18:40.151Z</time></trkpt><trkpt lat="44.4961017" lon="8.0623"><ele>683.0</ele><time>2026-05-01T13:18:41.151Z</time></trkpt><trkpt lat="44.49598" lon="8.0621817"><ele>681.0</ele><time>2026-05-01T13:18:42.149Z</time></trkpt><trkpt lat="44.49586" lon="8.0620667"><ele>681.0</ele><time>2026-05-01T13:18:43.155Z</time></trkpt><trkpt lat="44.4957467" lon="8.0619533"><ele>681.0</ele><time>2026-05-01T13:18:44.153Z</time></trkpt><trkpt lat="44.4956283" lon="8.06183"><ele>681.0</ele><time>2026-05-01T13:18:45.15Z</time></trkpt><trkpt lat="44.4955133" lon="8.0617117"><ele>681.0</ele><time>2026-05-01T13:18:46.153Z</time></trkpt><trkpt lat="44.4954" lon="8.061595"><ele>679.5</ele><time>2026-05-01T13:18:47.159Z</time></trkpt><trkpt lat="44.4952883" lon="8.06148"><ele>678.0</ele><time>2026-05-01T13:18:48.152Z</time></trkpt><trkpt lat="44.4951767" lon="8.061365"><ele>676.5</ele><time>2026-05-01T13:18:49.153Z</time></trkpt><trkpt lat="44.49507" lon="8.0612483"><ele>675.0</ele><time>2026-05-01T13:18:50.154Z</time></trkpt><trkpt lat="44.4949667" lon="8.061135"><ele>675.0</ele><time>2026-05-01T13:18:51.154Z</time></trkpt><trkpt lat="44.4948617" lon="8.061025"><ele>675.0</ele><time>2026-05-01T13:18:52.154Z</time></trkpt><trkpt lat="44.494755" lon="8.0609183"><ele>675.0</ele><time>2026-05-01T13:18:53.154Z</time></trkpt><trkpt lat="44.494645" lon="8.0608133"><ele>675.0</ele><time>2026-05-01T13:18:54.152Z</time></trkpt><trkpt lat="44.4945367" lon="8.0607083"><ele>671.0</ele><time>2026-05-01T13:18:55.156Z</time></trkpt><trkpt lat="44.49443" lon="8.06061"><ele>667.0</ele><time>2026-05-01T13:18:56.155Z</time></trkpt><trkpt lat="44.4943217" lon="8.0605283"><ele>663.0</ele><time>2026-05-01T13:18:57.154Z</time></trkpt><trkpt lat="44.4942067" lon="8.0604817"><ele>659.0</ele><time>2026-05-01T13:18:58.152Z</time></trkpt><trkpt lat="44.49409" lon="8.0604633"><ele>659.0</ele><time>2026-05-01T13:18:59.154Z</time></trkpt><trkpt lat="44.4939633" lon="8.0604633"><ele>659.0</ele><time>2026-05-01T13:19:00.155Z</time></trkpt><trkpt lat="44.49383" lon="8.0604783"><ele>659.0</ele><time>2026-05-01T13:19:01.153Z</time></trkpt><trkpt lat="44.493695" lon="8.0604983"><ele>659.0</ele><time>2026-05-01T13:19:02.154Z</time></trkpt><trkpt lat="44.4935583" lon="8.0605133"><ele>659.25</ele><time>2026-05-01T13:19:03.151Z</time></trkpt><trkpt lat="44.49342" lon="8.0605217"><ele>659.5</ele><time>2026-05-01T13:19:04.157Z</time></trkpt><trkpt lat="44.49328" lon="8.060535"><ele>659.75</ele><time>2026-05-01T13:19:05.156Z</time></trkpt><trkpt lat="44.4931417" lon="8.060535"><ele>660.0</ele><time>2026-05-01T13:19:06.152Z</time></trkpt><trkpt lat="44.493015" lon="8.0605183"><ele>660.4</ele><time>2026-05-01T13:19:07.154Z</time></trkpt><trkpt lat="44.4929017" lon="8.0604767"><ele>660.8</ele><time>2026-05-01T13:19:08.157Z</time></trkpt><trkpt lat="44.4928067" lon="8.0604117"><ele>661.2</ele><time>2026-05-01T13:19:09.156Z</time></trkpt><trkpt lat="44.492725" lon="8.0603283"><ele>661.6</ele><time>2026-05-01T13:19:10.155Z</time></trkpt><trkpt lat="44.49265" lon="8.0602367"><ele>662.0</ele><time>2026-05-01T13:19:11.155Z</time></trkpt><trkpt lat="44.4925817" lon="8.0601367"><ele>662.0</ele><time>2026-05-01T13:19:12.155Z</time></trkpt><trkpt lat="44.4925217" lon="8.0600367"><ele>662.0</ele><time>2026-05-01T13:19:13.153Z</time></trkpt><trkpt lat="44.492465" lon="8.0599317"><ele>662.0</ele><time>2026-05-01T13:19:14.153Z</time></trkpt><trkpt lat="44.49241" lon="8.059825"><ele>662.0</ele><time>2026-05-01T13:19:15.159Z</time></trkpt><trkpt lat="44.4923533" lon="8.059725"><ele>662.0</ele><time>2026-05-01T13:19:16.151Z</time></trkpt><trkpt lat="44.4922967" lon="8.0596133"><ele>660.5</ele><time>2026-05-01T13:19:17.153Z</time></trkpt><trkpt lat="44.4922383" lon="8.05951"><ele>659.0</ele><time>2026-05-01T13:19:18.156Z</time></trkpt><trkpt lat="44.4921667" lon="8.0594267"><ele>657.5</ele><time>2026-05-01T13:19:19.154Z</time></trkpt><trkpt lat="44.4920817" lon="8.0593883"><ele>656.0</ele><time>2026-05-01T13:19:20.16Z</time></trkpt><trkpt lat="44.4919967" lon="8.0593767"><ele>654.5</ele><time>2026-05-01T13:19:21.158Z</time></trkpt><trkpt lat="44.4919183" lon="8.0594"><ele>653.0</ele><time>2026-05-01T13:19:22.154Z</time></trkpt><trkpt lat="44.491875" lon="8.0595467"><ele>653.4</ele><time>2026-05-01T13:19:23.155Z</time></trkpt><trkpt lat="44.4918333" lon="8.0596817"><ele>653.8</ele><time>2026-05-01T13:19:24.151Z</time></trkpt><trkpt lat="44.4917917" lon="8.0598333"><ele>654.2</ele><time>2026-05-01T13:19:25.153Z</time></trkpt><trkpt lat="44.491755" lon="8.0599917"><ele>654.6</ele><time>2026-05-01T13:19:26.151Z</time></trkpt><trkpt lat="44.4917167" lon="8.0601217"><ele>655.0</ele><time>2026-05-01T13:19:27.15Z</time></trkpt><trkpt lat="44.4916617" lon="8.060225"><ele>655.0</ele><time>2026-05-01T13:19:28.154Z</time></trkpt><trkpt lat="44.491605" lon="8.0603"><ele>655.0</ele><time>2026-05-01T13:19:29.153Z</time></trkpt><trkpt lat="44.4915217" lon="8.0603083"><ele>655.0</ele><time>2026-05-01T13:19:30.157Z</time></trkpt><trkpt lat="44.4914417" lon="8.0603067"><ele>655.0</ele><time>2026-05-01T13:19:31.155Z</time></trkpt><trkpt lat="44.49135" lon="8.06026"><ele>655.0</ele><time>2026-05-01T13:19:32.158Z</time></trkpt><trkpt lat="44.4912617" lon="8.0601917"><ele>655.0</ele><time>2026-05-01T13:19:33.152Z</time></trkpt><trkpt lat="44.49117" lon="8.0601133"><ele>653.75</ele><time>2026-05-01T13:19:34.153Z</time></trkpt><trkpt lat="44.4910817" lon="8.0600317"><ele>652.5</ele><time>2026-05-01T13:19:35.155Z</time></trkpt><trkpt lat="44.4909867" lon="8.0599433"><ele>651.25</ele><time>2026-05-01T13:19:36.153Z</time></trkpt><trkpt lat="44.4908933" lon="8.05985"><ele>650.0</ele><time>2026-05-01T13:19:37.156Z</time></trkpt><trkpt lat="44.4907933" lon="8.0597517"><ele>648.4</ele><time>2026-05-01T13:19:38.154Z</time></trkpt><trkpt lat="44.4906933" lon="8.059655"><ele>646.8</ele><time>2026-05-01T13:19:39.155Z</time></trkpt><trkpt lat="44.4906" lon="8.0595667"><ele>645.2</ele><time>2026-05-01T13:19:40.152Z</time></trkpt><trkpt lat="44.49052" lon="8.0594883"><ele>643.6</ele><time>2026-05-01T13:19:41.158Z</time></trkpt><trkpt lat="44.4904633" lon="8.05941"><ele>642.0</ele><time>2026-05-01T13:19:42.155Z</time></trkpt><trkpt lat="44.4904183" lon="8.05932"><ele>640.0</ele><time>2026-05-01T13:19:43.152Z</time></trkpt><trkpt lat="44.4904" lon="8.0591983"><ele>638.0</ele><time>2026-05-01T13:19:44.153Z</time></trkpt><trkpt lat="44.490385" lon="8.0590433"><ele>636.0</ele><time>2026-05-01T13:19:45.152Z</time></trkpt><trkpt lat="44.4903683" lon="8.0588917"><ele>634.0</ele><time>2026-05-01T13:19:46.159Z</time></trkpt><trkpt lat="44.49035" lon="8.058735"><ele>632.0</ele><time>2026-05-01T13:19:47.151Z</time></trkpt><trkpt lat="44.4903167" lon="8.058585"><ele>632.0</ele><time>2026-05-01T13:19:48.156Z</time></trkpt><trkpt lat="44.4902667" lon="8.0584167"><ele>632.0</ele><time>2026-05-01T13:19:49.154Z</time></trkpt><trkpt lat="44.4902233" lon="8.0582717"><ele>632.0</ele><time>2026-05-01T13:19:50.151Z</time></trkpt><trkpt lat="44.490185" lon="8.0581517"><ele>632.0</ele><time>2026-05-01T13:19:51.151Z</time></trkpt><trkpt lat="44.49016" lon="8.058035"><ele>632.0</ele><time>2026-05-01T13:19:52.15Z</time></trkpt><trkpt lat="44.4901433" lon="8.0579217"><ele>632.3333333333333</ele><time>2026-05-01T13:19:53.151Z</time></trkpt><trkpt lat="44.4901467" lon="8.0578067"><ele>632.6666666666666</ele><time>2026-05-01T13:19:54.151Z</time></trkpt><trkpt lat="44.4901833" lon="8.0577117"><ele>633.0</ele><time>2026-05-01T13:19:55.152Z</time></trkpt><trkpt lat="44.4902383" lon="8.0576367"><ele>633.3333333333334</ele><time>2026-05-01T13:19:56.153Z</time></trkpt><trkpt lat="44.4902917" lon="8.05758"><ele>633.6666666666667</ele><time>2026-05-01T13:19:57.156Z</time></trkpt><trkpt lat="44.4904067" lon="8.0575683"><ele>634.0</ele><time>2026-05-01T13:19:59.157Z</time></trkpt><trkpt lat="44.4904733" lon="8.0575733"><ele>632.8333333333334</ele><time>2026-05-01T13:20:00.159Z</time></trkpt><trkpt lat="44.4905483" lon="8.0576067"><ele>631.6666666666667</ele><time>2026-05-01T13:20:01.16Z</time></trkpt><trkpt lat="44.4906167" lon="8.057655"><ele>630.5</ele><time>2026-05-01T13:20:02.156Z</time></trkpt><trkpt lat="44.49069" lon="8.0576917"><ele>629.3333333333334</ele><time>2026-05-01T13:20:03.153Z</time></trkpt><trkpt lat="44.49078" lon="8.0577417"><ele>628.1666666666666</ele><time>2026-05-01T13:20:04.152Z</time></trkpt><trkpt lat="44.4908733" lon="8.05781"><ele>627.0</ele><time>2026-05-01T13:20:05.15Z</time></trkpt><trkpt lat="44.490965" lon="8.0578667"><ele>627.0</ele><time>2026-05-01T13:20:06.152Z</time></trkpt><trkpt lat="44.4910683" lon="8.05794"><ele>627.0</ele><time>2026-05-01T13:20:07.156Z</time></trkpt><trkpt lat="44.4911717" lon="8.058"><ele>627.0</ele><time>2026-05-01T13:20:08.15Z</time></trkpt><trkpt lat="44.4912683" lon="8.058"><ele>627.0</ele><time>2026-05-01T13:20:09.151Z</time></trkpt><trkpt lat="44.49135" lon="8.057945"><ele>627.0</ele><time>2026-05-01T13:20:10.152Z</time></trkpt><trkpt lat="44.491425" lon="8.05784"><ele>627.0</ele><time>2026-05-01T13:20:11.154Z</time></trkpt><trkpt lat="44.4914917" lon="8.0577117"><ele>627.0</ele><time>2026-05-01T13:20:12.154Z</time></trkpt><trkpt lat="44.49156" lon="8.0575567"><ele>627.0</ele><time>2026-05-01T13:20:13.154Z</time></trkpt><trkpt lat="44.491625" lon="8.0573933"><ele>627.0</ele><time>2026-05-01T13:20:14.153Z</time></trkpt><trkpt lat="44.4916867" lon="8.0572417"><ele>624.8333333333334</ele><time>2026-05-01T13:20:15.153Z</time></trkpt><trkpt lat="44.4917383" lon="8.057125"><ele>622.6666666666666</ele><time>2026-05-01T13:20:16.153Z</time></trkpt><trkpt lat="44.491775" lon="8.0570317"><ele>620.5</ele><time>2026-05-01T13:20:17.16Z</time></trkpt><trkpt lat="44.4918017" lon="8.05695"><ele>618.3333333333333</ele><time>2026-05-01T13:20:18.157Z</time></trkpt><trkpt lat="44.4918267" lon="8.0568617"><ele>616.1666666666666</ele><time>2026-05-01T13:20:19.156Z</time></trkpt><trkpt lat="44.4918533" lon="8.0567567"><ele>614.0</ele><time>2026-05-01T13:20:20.153Z</time></trkpt><trkpt lat="44.4918833" lon="8.0566433"><ele>612.6</ele><time>2026-05-01T13:20:21.154Z</time></trkpt><trkpt lat="44.4919167" lon="8.05652"><ele>611.2</ele><time>2026-05-01T13:20:22.154Z</time></trkpt><trkpt lat="44.4919667" lon="8.0564017"><ele>609.8000000000001</ele><time>2026-05-01T13:20:23.151Z</time></trkpt><trkpt lat="44.492025" lon="8.0563083"><ele>608.4</ele><time>2026-05-01T13:20:24.156Z</time></trkpt><trkpt lat="44.4920917" lon="8.0562317"><ele>607.0</ele><time>2026-05-01T13:20:25.156Z</time></trkpt><trkpt lat="44.49217" lon="8.0561783"><ele>607.0</ele><time>2026-05-01T13:20:26.154Z</time></trkpt><trkpt lat="44.49227" lon="8.056215"><ele>607.0</ele><time>2026-05-01T13:20:27.153Z</time></trkpt><trkpt lat="44.49238" lon="8.0562433"><ele>607.0</ele><time>2026-05-01T13:20:28.152Z</time></trkpt><trkpt lat="44.4924933" lon="8.0562783"><ele>607.0</ele><time>2026-05-01T13:20:29.152Z</time></trkpt><trkpt lat="44.4925983" lon="8.056305"><ele>607.0</ele><time>2026-05-01T13:20:30.154Z</time></trkpt><trkpt lat="44.4926817" lon="8.056305"><ele>607.0</ele><time>2026-05-01T13:20:31.153Z</time></trkpt><trkpt lat="44.492755" lon="8.0562783"><ele>607.0</ele><time>2026-05-01T13:20:32.155Z</time></trkpt><trkpt lat="44.4928183" lon="8.0562217"><ele>607.0</ele><time>2026-05-01T13:20:33.153Z</time></trkpt><trkpt lat="44.4928417" lon="8.0560683"><ele>607.0</ele><time>2026-05-01T13:20:35.152Z</time></trkpt><trkpt lat="44.4927783" lon="8.05599"><ele>607.0</ele><time>2026-05-01T13:20:36.155Z</time></trkpt><trkpt lat="44.4927117" lon="8.05592"><ele>607.0</ele><time>2026-05-01T13:20:37.154Z</time></trkpt><trkpt lat="44.4926217" lon="8.0558417"><ele>604.25</ele><time>2026-05-01T13:20:38.156Z</time></trkpt><trkpt lat="44.4925117" lon="8.05575"><ele>601.5</ele><time>2026-05-01T13:20:39.152Z</time></trkpt><trkpt lat="44.4924" lon="8.055665"><ele>598.75</ele><time>2026-05-01T13:20:40.155Z</time></trkpt><trkpt lat="44.492285" lon="8.0555967"><ele>596.0</ele><time>2026-05-01T13:20:41.158Z</time></trkpt><trkpt lat="44.4921767" lon="8.0555633"><ele>597.2</ele><time>2026-05-01T13:20:42.155Z</time></trkpt><trkpt lat="44.492075" lon="8.05558"><ele>598.4000000000001</ele><time>2026-05-01T13:20:43.155Z</time></trkpt><trkpt lat="44.4919733" lon="8.0556433"><ele>599.6</ele><time>2026-05-01T13:20:44.155Z</time></trkpt><trkpt lat="44.4918817" lon="8.05574"><ele>600.8000000000001</ele><time>2026-05-01T13:20:45.157Z</time></trkpt><trkpt lat="44.4917933" lon="8.0558533"><ele>602.0</ele><time>2026-05-01T13:20:46.151Z</time></trkpt><trkpt lat="44.4917" lon="8.0559833"><ele>602.0</ele><time>2026-05-01T13:20:47.153Z</time></trkpt><trkpt lat="44.4916167" lon="8.0560933"><ele>602.0</ele><time>2026-05-01T13:20:48.154Z</time></trkpt><trkpt lat="44.4915367" lon="8.056175"><ele>602.0</ele><time>2026-05-01T13:20:49.152Z</time></trkpt><trkpt lat="44.4914533" lon="8.0562133"><ele>602.0</ele><time>2026-05-01T13:20:50.153Z</time></trkpt><trkpt lat="44.4913817" lon="8.056215"><ele>602.0</ele><time>2026-05-01T13:20:51.152Z</time></trkpt><trkpt lat="44.49131" lon="8.05617"><ele>601.8000000000001</ele><time>2026-05-01T13:20:52.15Z</time></trkpt><trkpt lat="44.4912333" lon="8.0560917"><ele>601.6</ele><time>2026-05-01T13:20:53.155Z</time></trkpt><trkpt lat="44.4911983" lon="8.0559667"><ele>601.4000000000001</ele><time>2026-05-01T13:20:54.155Z</time></trkpt><trkpt lat="44.4911483" lon="8.0558267"><ele>601.2</ele><time>2026-05-01T13:20:55.155Z</time></trkpt><trkpt lat="44.491075" lon="8.0556967"><ele>601.0</ele><time>2026-05-01T13:20:56.151Z</time></trkpt><trkpt lat="44.4909767" lon="8.0556067"><ele>596.5</ele><time>2026-05-01T13:20:57.154Z</time></trkpt><trkpt lat="44.4908617" lon="8.05555"><ele>592.0</ele><time>2026-05-01T13:20:58.15Z</time></trkpt><trkpt lat="44.49074" lon="8.0555183"><ele>587.5</ele><time>2026-05-01T13:20:59.156Z</time></trkpt><trkpt lat="44.490605" lon="8.0555083"><ele>583.0</ele><time>2026-05-01T13:21:00.152Z</time></trkpt><trkpt lat="44.49046" lon="8.0555017"><ele>581.3333333333334</ele><time>2026-05-01T13:21:01.159Z</time></trkpt><trkpt lat="44.4903083" lon="8.0554967"><ele>579.6666666666666</ele><time>2026-05-01T13:21:02.154Z</time></trkpt><trkpt lat="44.4901467" lon="8.0554883"><ele>578.0</ele><time>2026-05-01T13:21:03.152Z</time></trkpt><trkpt lat="44.4899817" lon="8.0554883"><ele>578.0</ele><time>2026-05-01T13:21:04.153Z</time></trkpt><trkpt lat="44.4898117" lon="8.0554917"><ele>578.0</ele><time>2026-05-01T13:21:05.153Z</time></trkpt><trkpt lat="44.48964" lon="8.0554883"><ele>578.0</ele><time>2026-05-01T13:21:06.154Z</time></trkpt><trkpt lat="44.489475" lon="8.0554883"><ele>577.0</ele><time>2026-05-01T13:21:07.153Z</time></trkpt><trkpt lat="44.4893083" lon="8.055485"><ele>576.0</ele><time>2026-05-01T13:21:08.154Z</time></trkpt><trkpt lat="44.4891467" lon="8.0554783"><ele>575.0</ele><time>2026-05-01T13:21:09.152Z</time></trkpt><trkpt lat="44.4889917" lon="8.0554683"><ele>575.0</ele><time>2026-05-01T13:21:10.152Z</time></trkpt><trkpt lat="44.488835" lon="8.055455"><ele>575.0</ele><time>2026-05-01T13:21:11.152Z</time></trkpt><trkpt lat="44.488685" lon="8.05545"><ele>575.0</ele><time>2026-05-01T13:21:12.155Z</time></trkpt><trkpt lat="44.4885483" lon="8.055455"><ele>575.0</ele><time>2026-05-01T13:21:13.153Z</time></trkpt><trkpt lat="44.4884317" lon="8.0554717"><ele>575.2</ele><time>2026-05-01T13:21:14.154Z</time></trkpt><trkpt lat="44.4883367" lon="8.0555167"><ele>575.4</ele><time>2026-05-01T13:21:15.153Z</time></trkpt><trkpt lat="44.48827" lon="8.0556033"><ele>575.6</ele><time>2026-05-01T13:21:16.154Z</time></trkpt><trkpt lat="44.4882183" lon="8.055695"><ele>575.8</ele><time>2026-05-01T13:21:17.156Z</time></trkpt><trkpt lat="44.4882" lon="8.0558183"><ele>576.0</ele><time>2026-05-01T13:21:18.155Z</time></trkpt><trkpt lat="44.4882067" lon="8.0559517"><ele>576.0</ele><time>2026-05-01T13:21:19.15Z</time></trkpt><trkpt lat="44.4882167" lon="8.0560767"><ele>576.0</ele><time>2026-05-01T13:21:20.154Z</time></trkpt><trkpt lat="44.4882083" lon="8.0561883"><ele>576.0</ele><time>2026-05-01T13:21:21.15Z</time></trkpt><trkpt lat="44.4881533" lon="8.056235"><ele>576.0</ele><time>2026-05-01T13:21:22.151Z</time></trkpt><trkpt lat="44.488025" lon="8.0562233"><ele>576.0</ele><time>2026-05-01T13:21:24.153Z</time></trkpt><trkpt lat="44.4879467" lon="8.0561617"><ele>574.25</ele><time>2026-05-01T13:21:25.153Z</time></trkpt><trkpt lat="44.487875" lon="8.056075"><ele>572.5</ele><time>2026-05-01T13:21:26.155Z</time></trkpt><trkpt lat="44.4877917" lon="8.055955"><ele>570.75</ele><time>2026-05-01T13:21:27.15Z</time></trkpt><trkpt lat="44.48769" lon="8.0557967"><ele>569.0</ele><time>2026-05-01T13:21:28.154Z</time></trkpt><trkpt lat="44.4875933" lon="8.0556333"><ele>567.6666666666666</ele><time>2026-05-01T13:21:29.153Z</time></trkpt><trkpt lat="44.487495" lon="8.0554617"><ele>566.3333333333334</ele><time>2026-05-01T13:21:30.159Z</time></trkpt><trkpt lat="44.4873983" lon="8.0552717"><ele>565.0</ele><time>2026-05-01T13:21:31.155Z</time></trkpt><trkpt lat="44.4873067" lon="8.0550717"><ele>564.6666666666667</ele><time>2026-05-01T13:21:32.154Z</time></trkpt><trkpt lat="44.4872083" lon="8.0548633"><ele>564.3333333333334</ele><time>2026-05-01T13:21:33.155Z</time></trkpt><trkpt lat="44.4871083" lon="8.0546517"><ele>564.0</ele><time>2026-05-01T13:21:34.155Z</time></trkpt><trkpt lat="44.487015" lon="8.054445"><ele>564.0</ele><time>2026-05-01T13:21:35.151Z</time></trkpt><trkpt lat="44.4869233" lon="8.0542367"><ele>564.0</ele><time>2026-05-01T13:21:36.152Z</time></trkpt><trkpt lat="44.4868333" lon="8.0540283"><ele>564.0</ele><time>2026-05-01T13:21:37.151Z</time></trkpt><trkpt lat="44.4867383" lon="8.053815"><ele>564.6666666666666</ele><time>2026-05-01T13:21:38.151Z</time></trkpt><trkpt lat="44.486645" lon="8.0536033"><ele>565.3333333333333</ele><time>2026-05-01T13:21:39.153Z</time></trkpt><trkpt lat="44.4865567" lon="8.0533917"><ele>566.0</ele><time>2026-05-01T13:21:40.153Z</time></trkpt><trkpt lat="44.4864667" lon="8.05319"><ele>567.3333333333333</ele><time>2026-05-01T13:21:41.153Z</time></trkpt><trkpt lat="44.48638" lon="8.0529967"><ele>568.6666666666666</ele><time>2026-05-01T13:21:42.159Z</time></trkpt><trkpt lat="44.486305" lon="8.0528117"><ele>570.0</ele><time>2026-05-01T13:21:43.157Z</time></trkpt><trkpt lat="44.4862383" lon="8.05263"><ele>578.0</ele><time>2026-05-01T13:21:44.159Z</time></trkpt><trkpt lat="44.4861883" lon="8.0524483"><ele>586.0</ele><time>2026-05-01T13:21:45.15Z</time></trkpt><trkpt lat="44.4861683" lon="8.05228"><ele>594.0</ele><time>2026-05-01T13:21:46.153Z</time></trkpt><trkpt lat="44.4861783" lon="8.0521217"><ele>602.0</ele><time>2026-05-01T13:21:47.149Z</time></trkpt><trkpt lat="44.4862183" lon="8.0519817"><ele>598.0</ele><time>2026-05-01T13:21:48.152Z</time></trkpt><trkpt lat="44.48629" lon="8.0518617"><ele>594.0</ele><time>2026-05-01T13:21:49.153Z</time></trkpt><trkpt lat="44.4863683" lon="8.0517717"><ele>590.0</ele><time>2026-05-01T13:21:50.153Z</time></trkpt><trkpt lat="44.48648" lon="8.051715"><ele>586.0</ele><time>2026-05-01T13:21:51.156Z</time></trkpt><trkpt lat="44.4866167" lon="8.0516817"><ele>586.0</ele><time>2026-05-01T13:21:52.155Z</time></trkpt><trkpt lat="44.4867467" lon="8.0516317"><ele>586.0</ele><time>2026-05-01T13:21:53.158Z</time></trkpt><trkpt lat="44.486865" lon="8.0515533"><ele>586.0</ele><time>2026-05-01T13:21:54.152Z</time></trkpt><trkpt lat="44.48697" lon="8.0514267"><ele>586.0</ele><time>2026-05-01T13:21:55.154Z</time></trkpt><trkpt lat="44.4870767" lon="8.051285"><ele>588.6666666666667</ele><time>2026-05-01T13:21:56.151Z</time></trkpt><trkpt lat="44.4871783" lon="8.0511267"><ele>591.3333333333334</ele><time>2026-05-01T13:21:57.154Z</time></trkpt><trkpt lat="44.4872833" lon="8.05097"><ele>594.0</ele><time>2026-05-01T13:21:58.154Z</time></trkpt><trkpt lat="44.4873983" lon="8.0508183"><ele>598.5</ele><time>2026-05-01T13:21:59.153Z</time></trkpt><trkpt lat="44.4875083" lon="8.0506617"><ele>603.0</ele><time>2026-05-01T13:22:00.153Z</time></trkpt><trkpt lat="44.487605" lon="8.0505017"><ele>607.5</ele><time>2026-05-01T13:22:01.153Z</time></trkpt><trkpt lat="44.48768" lon="8.0503417"><ele>612.0</ele><time>2026-05-01T13:22:02.152Z</time></trkpt><trkpt lat="44.4877283" lon="8.0501767"><ele>612.0</ele><time>2026-05-01T13:22:03.152Z</time></trkpt><trkpt lat="44.48777" lon="8.0500433"><ele>612.0</ele><time>2026-05-01T13:22:04.151Z</time></trkpt><trkpt lat="44.4878233" lon="8.0499383"><ele>612.0</ele><time>2026-05-01T13:22:05.149Z</time></trkpt><trkpt lat="44.4878783" lon="8.0498483"><ele>612.0</ele><time>2026-05-01T13:22:06.154Z</time></trkpt><trkpt lat="44.48793" lon="8.049755"><ele>612.0</ele><time>2026-05-01T13:22:07.153Z</time></trkpt><trkpt lat="44.4880567" lon="8.0497917"><ele>611.5</ele><time>2026-05-01T13:22:09.154Z</time></trkpt><trkpt lat="44.4881483" lon="8.0500267"><ele>611.0</ele><time>2026-05-01T13:22:10.156Z</time></trkpt><trkpt lat="44.4882183" lon="8.0501633"><ele>610.5</ele><time>2026-05-01T13:22:11.152Z</time></trkpt><trkpt lat="44.4882933" lon="8.0502833"><ele>610.0</ele><time>2026-05-01T13:22:12.154Z</time></trkpt><trkpt lat="44.48837" lon="8.050385"><ele>610.0</ele><time>2026-05-01T13:22:13.158Z</time></trkpt><trkpt lat="44.4884533" lon="8.0504217"><ele>610.0</ele><time>2026-05-01T13:22:14.155Z</time></trkpt><trkpt lat="44.4885367" lon="8.05042"><ele>610.0</ele><time>2026-05-01T13:22:15.154Z</time></trkpt><trkpt lat="44.4886267" lon="8.0504033"><ele>610.0</ele><time>2026-05-01T13:22:16.151Z</time></trkpt><trkpt lat="44.488735" lon="8.050355"><ele>610.0</ele><time>2026-05-01T13:22:17.15Z</time></trkpt><trkpt lat="44.4888667" lon="8.05033"><ele>612.25</ele><time>2026-05-01T13:22:18.154Z</time></trkpt><trkpt lat="44.4889967" lon="8.0503233"><ele>614.5</ele><time>2026-05-01T13:22:19.158Z</time></trkpt><trkpt lat="44.4891317" lon="8.0503083"><ele>616.75</ele><time>2026-05-01T13:22:20.152Z</time></trkpt><trkpt lat="44.4892717" lon="8.050305"><ele>619.0</ele><time>2026-05-01T13:22:21.154Z</time></trkpt><trkpt lat="44.489405" lon="8.050285"><ele>619.0</ele><time>2026-05-01T13:22:22.154Z</time></trkpt><trkpt lat="44.4895333" lon="8.0502283"><ele>619.0</ele><time>2026-05-01T13:22:23.152Z</time></trkpt><trkpt lat="44.4896483" lon="8.0501317"><ele>619.0</ele><time>2026-05-01T13:22:24.152Z</time></trkpt><trkpt lat="44.489755" lon="8.05002"><ele>619.0</ele><time>2026-05-01T13:22:25.152Z</time></trkpt><trkpt lat="44.4898633" lon="8.0499233"><ele>624.75</ele><time>2026-05-01T13:22:26.158Z</time></trkpt><trkpt lat="44.4899783" lon="8.0498583"><ele>630.5</ele><time>2026-05-01T13:22:27.152Z</time></trkpt><trkpt lat="44.4900983" lon="8.049825"><ele>636.25</ele><time>2026-05-01T13:22:28.154Z</time></trkpt><trkpt lat="44.4902167" lon="8.0498083"><ele>642.0</ele><time>2026-05-01T13:22:29.152Z</time></trkpt><trkpt lat="44.4903433" lon="8.0498"><ele>641.75</ele><time>2026-05-01T13:22:30.152Z</time></trkpt><trkpt lat="44.4904767" lon="8.0497967"><ele>641.5</ele><time>2026-05-01T13:22:31.152Z</time></trkpt><trkpt lat="44.49061" lon="8.049785"><ele>641.25</ele><time>2026-05-01T13:22:32.152Z</time></trkpt><trkpt lat="44.4907383" lon="8.049775"><ele>641.0</ele><time>2026-05-01T13:22:33.151Z</time></trkpt><trkpt lat="44.4908517" lon="8.0497633"><ele>641.0</ele><time>2026-05-01T13:22:34.152Z</time></trkpt><trkpt lat="44.490955" lon="8.049735"><ele>641.0</ele><time>2026-05-01T13:22:35.156Z</time></trkpt><trkpt lat="44.4910417" lon="8.0496717"><ele>641.0</ele><time>2026-05-01T13:22:36.154Z</time></trkpt><trkpt lat="44.491115" lon="8.04958"><ele>641.0</ele><time>2026-05-01T13:22:37.155Z</time></trkpt><trkpt lat="44.4911667" lon="8.0494583"><ele>641.0</ele><time>2026-05-01T13:22:38.153Z</time></trkpt><trkpt lat="44.491215" lon="8.0493283"><ele>642.4</ele><time>2026-05-01T13:22:39.155Z</time></trkpt><trkpt lat="44.4912717" lon="8.049205"><ele>643.8</ele><time>2026-05-01T13:22:40.155Z</time></trkpt><trkpt lat="44.4913433" lon="8.049105"><ele>645.1999999999999</ele><time>2026-05-01T13:22:41.154Z</time></trkpt><trkpt lat="44.4914333" lon="8.0490183"><ele>646.5999999999999</ele><time>2026-05-01T13:22:42.152Z</time></trkpt><trkpt lat="44.4915433" lon="8.0489383"><ele>648.0</ele><time>2026-05-01T13:22:43.154Z</time></trkpt><trkpt lat="44.4916617" lon="8.0488533"><ele>648.0</ele><time>2026-05-01T13:22:44.157Z</time></trkpt><trkpt lat="44.4917833" lon="8.04875"><ele>648.0</ele><time>2026-05-01T13:22:45.157Z</time></trkpt><trkpt lat="44.4919067" lon="8.0486233"><ele>648.0</ele><time>2026-05-01T13:22:46.155Z</time></trkpt><trkpt lat="44.4920183" lon="8.0484817"><ele>648.0</ele><time>2026-05-01T13:22:47.153Z</time></trkpt><trkpt lat="44.4921117" lon="8.04833"><ele>646.25</ele><time>2026-05-01T13:22:48.158Z</time></trkpt><trkpt lat="44.4921967" lon="8.048175"><ele>644.5</ele><time>2026-05-01T13:22:49.155Z</time></trkpt><trkpt lat="44.4922617" lon="8.0480117"><ele>642.75</ele><time>2026-05-01T13:22:50.156Z</time></trkpt><trkpt lat="44.492315" lon="8.0478417"><ele>641.0</ele><time>2026-05-01T13:22:51.151Z</time></trkpt><trkpt lat="44.4923617" lon="8.0476617"><ele>641.0</ele><time>2026-05-01T13:22:52.154Z</time></trkpt><trkpt lat="44.4924" lon="8.0474733"><ele>641.0</ele><time>2026-05-01T13:22:53.15Z</time></trkpt><trkpt lat="44.4924417" lon="8.047295"><ele>641.0</ele><time>2026-05-01T13:22:54.151Z</time></trkpt><trkpt lat="44.4924833" lon="8.047135"><ele>641.0</ele><time>2026-05-01T13:22:55.15Z</time></trkpt><trkpt lat="44.49252" lon="8.0470033"><ele>643.1666666666666</ele><time>2026-05-01T13:22:56.152Z</time></trkpt><trkpt lat="44.4925317" lon="8.0468867"><ele>645.3333333333333</ele><time>2026-05-01T13:22:57.154Z</time></trkpt><trkpt lat="44.49253" lon="8.0467783"><ele>647.5</ele><time>2026-05-01T13:22:58.152Z</time></trkpt><trkpt lat="44.492425" lon="8.046725"><ele>649.6666666666666</ele><time>2026-05-01T13:23:00.156Z</time></trkpt><trkpt lat="44.492365" lon="8.0467767"><ele>651.8333333333334</ele><time>2026-05-01T13:23:01.158Z</time></trkpt><trkpt lat="44.492315" lon="8.0468417"><ele>654.0</ele><time>2026-05-01T13:23:02.152Z</time></trkpt><trkpt lat="44.4922683" lon="8.0469333"><ele>654.0</ele><time>2026-05-01T13:23:03.155Z</time></trkpt><trkpt lat="44.4922533" lon="8.0470867"><ele>654.0</ele><time>2026-05-01T13:23:04.155Z</time></trkpt><trkpt lat="44.49221" lon="8.0472283"><ele>654.0</ele><time>2026-05-01T13:23:05.154Z</time></trkpt><trkpt lat="44.4921517" lon="8.0473667"><ele>654.0</ele><time>2026-05-01T13:23:06.151Z</time></trkpt><trkpt lat="44.4920883" lon="8.0475067"><ele>658.5</ele><time>2026-05-01T13:23:07.155Z</time></trkpt><trkpt lat="44.4920183" lon="8.0476517"><ele>663.0</ele><time>2026-05-01T13:23:08.155Z</time></trkpt><trkpt lat="44.4919417" lon="8.0477983"><ele>667.5</ele><time>2026-05-01T13:23:09.152Z</time></trkpt><trkpt lat="44.4918583" lon="8.04793"><ele>672.0</ele><time>2026-05-01T13:23:10.152Z</time></trkpt><trkpt lat="44.4917583" lon="8.0480317"><ele>672.0</ele><time>2026-05-01T13:23:11.152Z</time></trkpt><trkpt lat="44.4916517" lon="8.0480833"><ele>672.0</ele><time>2026-05-01T13:23:12.151Z</time></trkpt><trkpt lat="44.4915367" lon="8.0481017"><ele>672.0</ele><time>2026-05-01T13:23:13.15Z</time></trkpt><trkpt lat="44.4914283" lon="8.0480833"><ele>672.0</ele><time>2026-05-01T13:23:14.15Z</time></trkpt><trkpt lat="44.4913133" lon="8.0480483"><ele>675.75</ele><time>2026-05-01T13:23:15.154Z</time></trkpt><trkpt lat="44.491195" lon="8.04803"><ele>679.5</ele><time>2026-05-01T13:23:16.152Z</time></trkpt><trkpt lat="44.4910917" lon="8.0480333"><ele>683.25</ele><time>2026-05-01T13:23:17.151Z</time></trkpt><trkpt lat="44.4909867" lon="8.0480883"><ele>687.0</ele><time>2026-05-01T13:23:18.154Z</time></trkpt><trkpt lat="44.49089" lon="8.0481817"><ele>681.25</ele><time>2026-05-01T13:23:19.153Z</time></trkpt><trkpt lat="44.490805" lon="8.0483083"><ele>675.5</ele><time>2026-05-01T13:23:20.154Z</time></trkpt><trkpt lat="44.4907267" lon="8.04844"><ele>669.75</ele><time>2026-05-01T13:23:21.155Z</time></trkpt><trkpt lat="44.49064" lon="8.048555"><ele>664.0</ele><time>2026-05-01T13:23:22.152Z</time></trkpt><trkpt lat="44.4905417" lon="8.0486317"><ele>664.0</ele><time>2026-05-01T13:23:23.153Z</time></trkpt><trkpt lat="44.4904433" lon="8.0486683"><ele>664.0</ele><time>2026-05-01T13:23:24.158Z</time></trkpt><trkpt lat="44.4903467" lon="8.0486533"><ele>664.0</ele><time>2026-05-01T13:23:25.155Z</time></trkpt><trkpt lat="44.4902483" lon="8.04861"><ele>664.0</ele><time>2026-05-01T13:23:26.155Z</time></trkpt><trkpt lat="44.490145" lon="8.0485367"><ele>664.0</ele><time>2026-05-01T13:23:27.152Z</time></trkpt><trkpt lat="44.4900383" lon="8.0484367"><ele>666.0</ele><time>2026-05-01T13:23:28.154Z</time></trkpt><trkpt lat="44.48993" lon="8.04834"><ele>668.0</ele><time>2026-05-01T13:23:29.151Z</time></trkpt><trkpt lat="44.48982" lon="8.0482483"><ele>670.0</ele><time>2026-05-01T13:23:30.152Z</time></trkpt><trkpt lat="44.4897133" lon="8.048175"><ele>672.0</ele><time>2026-05-01T13:23:31.153Z</time></trkpt><trkpt lat="44.48959" lon="8.0481833"><ele>673.5</ele><time>2026-05-01T13:23:32.159Z</time></trkpt><trkpt lat="44.4894733" lon="8.0482183"><ele>675.0</ele><time>2026-05-01T13:23:33.157Z</time></trkpt><trkpt lat="44.4893633" lon="8.0482817"><ele>676.5</ele><time>2026-05-01T13:23:34.152Z</time></trkpt><trkpt lat="44.489255" lon="8.0483467"><ele>678.0</ele><time>2026-05-01T13:23:35.154Z</time></trkpt><trkpt lat="44.4891533" lon="8.0484067"><ele>678.0</ele><time>2026-05-01T13:23:36.157Z</time></trkpt><trkpt lat="44.4890633" lon="8.0484417"><ele>678.0</ele><time>2026-05-01T13:23:37.156Z</time></trkpt><trkpt lat="44.48898" lon="8.048445"><ele>678.0</ele><time>2026-05-01T13:23:38.153Z</time></trkpt><trkpt lat="44.4889" lon="8.0484317"><ele>678.0</ele><time>2026-05-01T13:23:39.151Z</time></trkpt><trkpt lat="44.4888517" lon="8.04835"><ele>678.0</ele><time>2026-05-01T13:23:40.15Z</time></trkpt><trkpt lat="44.488805" lon="8.0482583"><ele>678.0</ele><time>2026-05-01T13:23:41.156Z</time></trkpt><trkpt lat="44.4887667" lon="8.0481433"><ele>679.0</ele><time>2026-05-01T13:23:42.154Z</time></trkpt><trkpt lat="44.4887317" lon="8.048"><ele>680.0</ele><time>2026-05-01T13:23:43.16Z</time></trkpt><trkpt lat="44.48869" lon="8.0478667"><ele>681.0</ele><time>2026-05-01T13:23:44.152Z</time></trkpt><trkpt lat="44.4886417" lon="8.047725"><ele>682.0</ele><time>2026-05-01T13:23:45.154Z</time></trkpt><trkpt lat="44.4885867" lon="8.0476017"><ele>683.0</ele><time>2026-05-01T13:23:46.156Z</time></trkpt><trkpt lat="44.4885417" lon="8.0474967"><ele>686.3333333333333</ele><time>2026-05-01T13:23:47.152Z</time></trkpt><trkpt lat="44.48851" lon="8.0473983"><ele>689.6666666666666</ele><time>2026-05-01T13:23:48.153Z</time></trkpt><trkpt lat="44.4885917" lon="8.04731"><ele>693.0</ele><time>2026-05-01T13:23:50.156Z</time></trkpt><trkpt lat="44.4886667" lon="8.0473483"><ele>696.3333333333334</ele><time>2026-05-01T13:23:51.152Z</time></trkpt><trkpt lat="44.4887317" lon="8.0473917"><ele>699.6666666666667</ele><time>2026-05-01T13:23:52.151Z</time></trkpt><trkpt lat="44.4887867" lon="8.0475"><ele>703.0</ele><time>2026-05-01T13:23:53.152Z</time></trkpt><trkpt lat="44.4888417" lon="8.0476267"><ele>703.0</ele><time>2026-05-01T13:23:54.154Z</time></trkpt><trkpt lat="44.4889" lon="8.0477517"><ele>703.0</ele><time>2026-05-01T13:23:55.155Z</time></trkpt><trkpt lat="44.4889667" lon="8.04784"><ele>703.0</ele><time>2026-05-01T13:23:56.155Z</time></trkpt><trkpt lat="44.4890317" lon="8.0479283"><ele>703.0</ele><time>2026-05-01T13:23:57.153Z</time></trkpt><trkpt lat="44.4891117" lon="8.0479467"><ele>703.0</ele><time>2026-05-01T13:23:58.154Z</time></trkpt><trkpt lat="44.489195" lon="8.0479233"><ele>703.0</ele><time>2026-05-01T13:23:59.154Z</time></trkpt><trkpt lat="44.48928" lon="8.047885"><ele>703.0</ele><time>2026-05-01T13:24:00.15Z</time></trkpt><trkpt lat="44.4893717" lon="8.04782"><ele>703.0</ele><time>2026-05-01T13:24:01.152Z</time></trkpt><trkpt lat="44.4894617" lon="8.04777"><ele>703.0</ele><time>2026-05-01T13:24:02.152Z</time></trkpt><trkpt lat="44.48956" lon="8.04775"><ele>703.0</ele><time>2026-05-01T13:24:03.152Z</time></trkpt><trkpt lat="44.4896717" lon="8.047745"><ele>702.5</ele><time>2026-05-01T13:24:04.152Z</time></trkpt><trkpt lat="44.4897833" lon="8.0477483"><ele>702.0</ele><time>2026-05-01T13:24:05.152Z</time></trkpt><trkpt lat="44.4898967" lon="8.04774"><ele>701.5</ele><time>2026-05-01T13:24:06.152Z</time></trkpt><trkpt lat="44.4900083" lon="8.04772"><ele>701.0</ele><time>2026-05-01T13:24:07.154Z</time></trkpt><trkpt lat="44.4901233" lon="8.047655"><ele>701.0</ele><time>2026-05-01T13:24:08.154Z</time></trkpt><trkpt lat="44.4902317" lon="8.0475817"><ele>701.0</ele><time>2026-05-01T13:24:09.152Z</time></trkpt><trkpt lat="44.49033" lon="8.04747"><ele>701.0</ele><time>2026-05-01T13:24:10.152Z</time></trkpt><trkpt lat="44.4904183" lon="8.0473267"><ele>701.0</ele><time>2026-05-01T13:24:11.161Z</time></trkpt><trkpt lat="44.4905067" lon="8.0471767"><ele>702.5</ele><time>2026-05-01T13:24:12.155Z</time></trkpt><trkpt lat="44.4906017" lon="8.0470267"><ele>704.0</ele><time>2026-05-01T13:24:13.156Z</time></trkpt><trkpt lat="44.4907" lon="8.0468883"><ele>705.5</ele><time>2026-05-01T13:24:14.152Z</time></trkpt><trkpt lat="44.4907983" lon="8.0467717"><ele>707.0</ele><time>2026-05-01T13:24:15.153Z</time></trkpt><trkpt lat="44.4909033" lon="8.046655"><ele>710.0</ele><time>2026-05-01T13:24:16.155Z</time></trkpt><trkpt lat="44.4909967" lon="8.0465567"><ele>713.0</ele><time>2026-05-01T13:24:17.151Z</time></trkpt><trkpt lat="44.49107" lon="8.0464417"><ele>716.0</ele><time>2026-05-01T13:24:18.155Z</time></trkpt><trkpt lat="44.4911233" lon="8.0463017"><ele>719.0</ele><time>2026-05-01T13:24:19.151Z</time></trkpt><trkpt lat="44.4911533" lon="8.0461433"><ele>719.0</ele><time>2026-05-01T13:24:20.155Z</time></trkpt><trkpt lat="44.4911633" lon="8.0459717"><ele>719.0</ele><time>2026-05-01T13:24:21.15Z</time></trkpt><trkpt lat="44.49116" lon="8.0458"><ele>719.0</ele><time>2026-05-01T13:24:22.155Z</time></trkpt><trkpt lat="44.4911517" lon="8.0456283"><ele>719.0</ele><time>2026-05-01T13:24:23.154Z</time></trkpt><trkpt lat="44.4911633" lon="8.045455"><ele>719.25</ele><time>2026-05-01T13:24:24.153Z</time></trkpt><trkpt lat="44.4911917" lon="8.0452933"><ele>719.5</ele><time>2026-05-01T13:24:25.155Z</time></trkpt><trkpt lat="44.4912417" lon="8.045145"><ele>719.75</ele><time>2026-05-01T13:24:26.156Z</time></trkpt><trkpt lat="44.491315" lon="8.04502"><ele>720.0</ele><time>2026-05-01T13:24:27.153Z</time></trkpt><trkpt lat="44.4914067" lon="8.0449067"><ele>720.0</ele><time>2026-05-01T13:24:28.154Z</time></trkpt><trkpt lat="44.4915117" lon="8.0447933"><ele>720.0</ele><time>2026-05-01T13:24:29.152Z</time></trkpt><trkpt lat="44.4916233" lon="8.0446783"><ele>720.0</ele><time>2026-05-01T13:24:30.153Z</time></trkpt><trkpt lat="44.491735" lon="8.0445617"><ele>720.0</ele><time>2026-05-01T13:24:31.155Z</time></trkpt><trkpt lat="44.4918533" lon="8.04445"><ele>720.0</ele><time>2026-05-01T13:24:32.152Z</time></trkpt><trkpt lat="44.49198" lon="8.0443433"><ele>720.0</ele><time>2026-05-01T13:24:33.154Z</time></trkpt><trkpt lat="44.4921033" lon="8.0442533"><ele>720.0</ele><time>2026-05-01T13:24:34.155Z</time></trkpt><trkpt lat="44.492225" lon="8.0441817"><ele>720.0</ele><time>2026-05-01T13:24:35.151Z</time></trkpt><trkpt lat="44.492335" lon="8.044125"><ele>718.0</ele><time>2026-05-01T13:24:36.158Z</time></trkpt><trkpt lat="44.492425" lon="8.044085"><ele>716.0</ele><time>2026-05-01T13:24:37.153Z</time></trkpt><trkpt lat="44.4924967" lon="8.0440567"><ele>714.0</ele><time>2026-05-01T13:24:38.149Z</time></trkpt><trkpt lat="44.4925633" lon="8.0440367"><ele>712.0</ele><time>2026-05-01T13:24:39.155Z</time></trkpt><trkpt lat="44.49263" lon="8.0440117"><ele>710.0</ele><time>2026-05-01T13:24:40.154Z</time></trkpt><trkpt lat="44.49269" lon="8.0439783"><ele>708.0</ele><time>2026-05-01T13:24:41.152Z</time></trkpt><trkpt lat="44.4927517" lon="8.0438733"><ele>708.0</ele><time>2026-05-01T13:24:43.153Z</time></trkpt><trkpt lat="44.4926733" lon="8.0438"><ele>708.0</ele><time>2026-05-01T13:24:45.155Z</time></trkpt><trkpt lat="44.4925567" lon="8.0438083"><ele>708.0</ele><time>2026-05-01T13:24:47.151Z</time></trkpt><trkpt lat="44.4924733" lon="8.043835"><ele>708.0</ele><time>2026-05-01T13:24:48.155Z</time></trkpt><trkpt lat="44.49238" lon="8.0438733"><ele>708.0</ele><time>2026-05-01T13:24:49.159Z</time></trkpt><trkpt lat="44.4922783" lon="8.0439167"><ele>708.0</ele><time>2026-05-01T13:24:50.157Z</time></trkpt><trkpt lat="44.492145" lon="8.0439883"><ele>708.0</ele><time>2026-05-01T13:24:51.151Z</time></trkpt><trkpt lat="44.4920133" lon="8.0440617"><ele>708.0</ele><time>2026-05-01T13:24:52.159Z</time></trkpt><trkpt lat="44.4918833" lon="8.04414"><ele>708.0</ele><time>2026-05-01T13:24:53.153Z</time></trkpt><trkpt lat="44.4917533" lon="8.0442167"><ele>711.0</ele><time>2026-05-01T13:24:54.154Z</time></trkpt><trkpt lat="44.4916167" lon="8.0442967"><ele>714.0</ele><time>2026-05-01T13:24:55.152Z</time></trkpt><trkpt lat="44.4914767" lon="8.0443717"><ele>717.0</ele><time>2026-05-01T13:24:56.153Z</time></trkpt><trkpt lat="44.4913383" lon="8.04445"><ele>720.0</ele><time>2026-05-01T13:24:57.153Z</time></trkpt><trkpt lat="44.4911967" lon="8.0445217"><ele>723.3333333333334</ele><time>2026-05-01T13:24:58.152Z</time></trkpt><trkpt lat="44.4910567" lon="8.044605"><ele>726.6666666666667</ele><time>2026-05-01T13:24:59.157Z</time></trkpt><trkpt lat="44.4909283" lon="8.04471"><ele>730.0</ele><time>2026-05-01T13:25:00.154Z</time></trkpt><trkpt lat="44.4908083" lon="8.0448417"><ele>729.6666666666667</ele><time>2026-05-01T13:25:01.157Z</time></trkpt><trkpt lat="44.4907133" lon="8.0450017"><ele>729.3333333333334</ele><time>2026-05-01T13:25:02.154Z</time></trkpt><trkpt lat="44.4906367" lon="8.0451917"><ele>729.0</ele><time>2026-05-01T13:25:03.155Z</time></trkpt><trkpt lat="44.4905567" lon="8.0453883"><ele>729.0</ele><time>2026-05-01T13:25:04.15Z</time></trkpt><trkpt lat="44.490475" lon="8.0455833"><ele>729.0</ele><time>2026-05-01T13:25:05.155Z</time></trkpt><trkpt lat="44.4903967" lon="8.0457717"><ele>729.0</ele><time>2026-05-01T13:25:06.15Z</time></trkpt><trkpt lat="44.49031" lon="8.0459433"><ele>734.25</ele><time>2026-05-01T13:25:07.154Z</time></trkpt><trkpt lat="44.49022" lon="8.046105"><ele>739.5</ele><time>2026-05-01T13:25:08.153Z</time></trkpt><trkpt lat="44.4901067" lon="8.0462467"><ele>744.75</ele><time>2026-05-01T13:25:09.151Z</time></trkpt><trkpt lat="44.48999" lon="8.0463783"><ele>750.0</ele><time>2026-05-01T13:25:10.151Z</time></trkpt><trkpt lat="44.48987" lon="8.046485"><ele>750.0</ele><time>2026-05-01T13:25:11.157Z</time></trkpt><trkpt lat="44.4897617" lon="8.046565"><ele>750.0</ele><time>2026-05-01T13:25:12.151Z</time></trkpt><trkpt lat="44.4896467" lon="8.0465967"><ele>750.0</ele><time>2026-05-01T13:25:13.156Z</time></trkpt><trkpt lat="44.48953" lon="8.0465967"><ele>750.0</ele><time>2026-05-01T13:25:14.153Z</time></trkpt><trkpt lat="44.4894167" lon="8.0465183"><ele>748.25</ele><time>2026-05-01T13:25:15.15Z</time></trkpt><trkpt lat="44.4893217" lon="8.0463967"><ele>746.5</ele><time>2026-05-01T13:25:16.152Z</time></trkpt><trkpt lat="44.4892317" lon="8.0462367"><ele>744.75</ele><time>2026-05-01T13:25:17.154Z</time></trkpt><trkpt lat="44.4891517" lon="8.0460783"><ele>743.0</ele><time>2026-05-01T13:25:18.151Z</time></trkpt><trkpt lat="44.48908" lon="8.0459033"><ele>745.75</ele><time>2026-05-01T13:25:19.155Z</time></trkpt><trkpt lat="44.4889883" lon="8.0457683"><ele>748.5</ele><time>2026-05-01T13:25:20.155Z</time></trkpt><trkpt lat="44.4888733" lon="8.04569"><ele>751.25</ele><time>2026-05-01T13:25:21.157Z</time></trkpt><trkpt lat="44.4887483" lon="8.0456517"><ele>754.0</ele><time>2026-05-01T13:25:22.15Z</time></trkpt><trkpt lat="44.48862" lon="8.0456467"><ele>754.25</ele><time>2026-05-01T13:25:23.152Z</time></trkpt><trkpt lat="44.4884917" lon="8.0456433"><ele>754.5</ele><time>2026-05-01T13:25:24.153Z</time></trkpt><trkpt lat="44.48836" lon="8.0456383"><ele>754.75</ele><time>2026-05-01T13:25:25.152Z</time></trkpt><trkpt lat="44.4882367" lon="8.0456017"><ele>755.0</ele><time>2026-05-01T13:25:26.156Z</time></trkpt><trkpt lat="44.4881283" lon="8.045525"><ele>755.0</ele><time>2026-05-01T13:25:27.153Z</time></trkpt><trkpt lat="44.48804" lon="8.04539"><ele>755.0</ele><time>2026-05-01T13:25:28.157Z</time></trkpt><trkpt lat="44.4879633" lon="8.0452383"><ele>755.0</ele><time>2026-05-01T13:25:29.149Z</time></trkpt><trkpt lat="44.487885" lon="8.0450883"><ele>755.0</ele><time>2026-05-01T13:25:30.151Z</time></trkpt><trkpt lat="44.4877967" lon="8.0449617"><ele>758.75</ele><time>2026-05-01T13:25:31.154Z</time></trkpt><trkpt lat="44.4876983" lon="8.0448567"><ele>762.5</ele><time>2026-05-01T13:25:32.154Z</time></trkpt><trkpt lat="44.487585" lon="8.0447867"><ele>766.25</ele><time>2026-05-01T13:25:33.15Z</time></trkpt><trkpt lat="44.4874683" lon="8.04476"><ele>770.0</ele><time>2026-05-01T13:25:34.152Z</time></trkpt><trkpt lat="44.4873467" lon="8.0447933"><ele>770.0</ele><time>2026-05-01T13:25:35.152Z</time></trkpt><trkpt lat="44.4872267" lon="8.044865"><ele>770.0</ele><time>2026-05-01T13:25:36.153Z</time></trkpt><trkpt lat="44.4871083" lon="8.044945"><ele>770.0</ele><time>2026-05-01T13:25:37.157Z</time></trkpt><trkpt lat="44.4869967" lon="8.0450133"><ele>770.0</ele><time>2026-05-01T13:25:38.159Z</time></trkpt><trkpt lat="44.4868733" lon="8.04503"><ele>771.75</ele><time>2026-05-01T13:25:39.154Z</time></trkpt><trkpt lat="44.4867383" lon="8.044995"><ele>773.5</ele><time>2026-05-01T13:25:40.157Z</time></trkpt><trkpt lat="44.4866067" lon="8.0449267"><ele>775.25</ele><time>2026-05-01T13:25:41.154Z</time></trkpt><trkpt lat="44.486465" lon="8.0448817"><ele>777.0</ele><time>2026-05-01T13:25:42.158Z</time></trkpt><trkpt lat="44.4863167" lon="8.0448583"><ele>776.0</ele><time>2026-05-01T13:25:43.161Z</time></trkpt><trkpt lat="44.4861633" lon="8.0448367"><ele>775.0</ele><time>2026-05-01T13:25:44.151Z</time></trkpt><trkpt lat="44.4860067" lon="8.0448017"><ele>774.0</ele><time>2026-05-01T13:25:45.152Z</time></trkpt><trkpt lat="44.4858517" lon="8.04478"><ele>774.0</ele><time>2026-05-01T13:25:46.151Z</time></trkpt><trkpt lat="44.4857067" lon="8.0447783"><ele>774.0</ele><time>2026-05-01T13:25:47.154Z</time></trkpt><trkpt lat="44.4855667" lon="8.0448033"><ele>774.0</ele><time>2026-05-01T13:25:48.153Z</time></trkpt><trkpt lat="44.4854233" lon="8.0448483"><ele>774.0</ele><time>2026-05-01T13:25:49.152Z</time></trkpt><trkpt lat="44.485275" lon="8.044895"><ele>773.25</ele><time>2026-05-01T13:25:50.154Z</time></trkpt><trkpt lat="44.4851283" lon="8.0449483"><ele>772.5</ele><time>2026-05-01T13:25:51.152Z</time></trkpt><trkpt lat="44.4849983" lon="8.0450183"><ele>771.75</ele><time>2026-05-01T13:25:52.155Z</time></trkpt><trkpt lat="44.4848917" lon="8.0451217"><ele>771.0</ele><time>2026-05-01T13:25:53.155Z</time></trkpt><trkpt lat="44.4848017" lon="8.04525"><ele>770.75</ele><time>2026-05-01T13:25:54.151Z</time></trkpt><trkpt lat="44.4847233" lon="8.0454033"><ele>770.5</ele><time>2026-05-01T13:25:55.149Z</time></trkpt><trkpt lat="44.4846433" lon="8.0455567"><ele>770.25</ele><time>2026-05-01T13:25:56.158Z</time></trkpt><trkpt lat="44.484565" lon="8.0456817"><ele>770.0</ele><time>2026-05-01T13:25:57.154Z</time></trkpt><trkpt lat="44.4844817" lon="8.0457683"><ele>770.0</ele><time>2026-05-01T13:25:58.15Z</time></trkpt><trkpt lat="44.4843867" lon="8.0457983"><ele>770.0</ele><time>2026-05-01T13:25:59.153Z</time></trkpt><trkpt lat="44.4842817" lon="8.0457867"><ele>770.0</ele><time>2026-05-01T13:26:00.153Z</time></trkpt><trkpt lat="44.4841733" lon="8.0457383"><ele>770.0</ele><time>2026-05-01T13:26:01.153Z</time></trkpt><trkpt lat="44.4840583" lon="8.0456667"><ele>770.0</ele><time>2026-05-01T13:26:02.152Z</time></trkpt><trkpt lat="44.483935" lon="8.045585"><ele>770.0</ele><time>2026-05-01T13:26:03.152Z</time></trkpt><trkpt lat="44.48381" lon="8.0455067"><ele>770.0</ele><time>2026-05-01T13:26:04.151Z</time></trkpt><trkpt lat="44.4836883" lon="8.0454417"><ele>770.0</ele><time>2026-05-01T13:26:05.153Z</time></trkpt><trkpt lat="44.483565" lon="8.0454067"><ele>770.0</ele><time>2026-05-01T13:26:06.152Z</time></trkpt><trkpt lat="44.4834467" lon="8.045405"><ele>767.75</ele><time>2026-05-01T13:26:07.155Z</time></trkpt><trkpt lat="44.4833233" lon="8.0454383"><ele>765.5</ele><time>2026-05-01T13:26:08.154Z</time></trkpt><trkpt lat="44.4832" lon="8.0455017"><ele>763.25</ele><time>2026-05-01T13:26:09.15Z</time></trkpt><trkpt lat="44.4830733" lon="8.045585"><ele>761.0</ele><time>2026-05-01T13:26:10.151Z</time></trkpt><trkpt lat="44.482945" lon="8.045685"><ele>759.3333333333333</ele><time>2026-05-01T13:26:11.152Z</time></trkpt><trkpt lat="44.48281" lon="8.04579"><ele>757.6666666666666</ele><time>2026-05-01T13:26:12.154Z</time></trkpt><trkpt lat="44.48267" lon="8.045895"><ele>756.0</ele><time>2026-05-01T13:26:13.156Z</time></trkpt><trkpt lat="44.4825267" lon="8.0460067"><ele>756.0</ele><time>2026-05-01T13:26:14.15Z</time></trkpt><trkpt lat="44.4823783" lon="8.046125"><ele>756.0</ele><time>2026-05-01T13:26:15.149Z</time></trkpt><trkpt lat="44.4822267" lon="8.04624"><ele>756.0</ele><time>2026-05-01T13:26:16.15Z</time></trkpt><trkpt lat="44.4820783" lon="8.046345"><ele>755.0</ele><time>2026-05-01T13:26:17.153Z</time></trkpt><trkpt lat="44.4819433" lon="8.046425"><ele>754.0</ele><time>2026-05-01T13:26:18.155Z</time></trkpt><trkpt lat="44.4818083" lon="8.0464617"><ele>753.0</ele><time>2026-05-01T13:26:19.153Z</time></trkpt><trkpt lat="44.481665" lon="8.0464533"><ele>752.0</ele><time>2026-05-01T13:26:20.156Z</time></trkpt><trkpt lat="44.48153" lon="8.046405"><ele>752.0</ele><time>2026-05-01T13:26:21.154Z</time></trkpt><trkpt lat="44.481395" lon="8.0463333"><ele>752.0</ele><time>2026-05-01T13:26:22.153Z</time></trkpt><trkpt lat="44.48126" lon="8.046245"><ele>752.0</ele><time>2026-05-01T13:26:23.152Z</time></trkpt><trkpt lat="44.48112" lon="8.046155"><ele>752.0</ele><time>2026-05-01T13:26:24.155Z</time></trkpt><trkpt lat="44.4809767" lon="8.0460833"><ele>752.3333333333333</ele><time>2026-05-01T13:26:25.152Z</time></trkpt><trkpt lat="44.4808283" lon="8.04604"><ele>752.6666666666666</ele><time>2026-05-01T13:26:26.153Z</time></trkpt><trkpt lat="44.4806633" lon="8.0460233"><ele>753.0</ele><time>2026-05-01T13:26:27.153Z</time></trkpt><trkpt lat="44.480485" lon="8.0460333"><ele>753.0</ele><time>2026-05-01T13:26:28.154Z</time></trkpt><trkpt lat="44.4803033" lon="8.0460483"><ele>753.0</ele><time>2026-05-01T13:26:29.155Z</time></trkpt><trkpt lat="44.480125" lon="8.0460617"><ele>753.0</ele><time>2026-05-01T13:26:30.154Z</time></trkpt><trkpt lat="44.479955" lon="8.0460733"><ele>753.0</ele><time>2026-05-01T13:26:31.153Z</time></trkpt><trkpt lat="44.479795" lon="8.0460867"><ele>753.0</ele><time>2026-05-01T13:26:32.153Z</time></trkpt><trkpt lat="44.4796317" lon="8.0460967"><ele>753.0</ele><time>2026-05-01T13:26:33.153Z</time></trkpt><trkpt lat="44.4794767" lon="8.0461033"><ele>752.6666666666666</ele><time>2026-05-01T13:26:34.154Z</time></trkpt><trkpt lat="44.4793217" lon="8.0461083"><ele>752.3333333333333</ele><time>2026-05-01T13:26:35.152Z</time></trkpt><trkpt lat="44.479165" lon="8.0461217"><ele>752.0</ele><time>2026-05-01T13:26:36.154Z</time></trkpt><trkpt lat="44.4790083" lon="8.0461333"><ele>752.0</ele><time>2026-05-01T13:26:37.165Z</time></trkpt><trkpt lat="44.4788517" lon="8.046135"><ele>752.0</ele><time>2026-05-01T13:26:38.158Z</time></trkpt><trkpt lat="44.478695" lon="8.0461133"><ele>752.0</ele><time>2026-05-01T13:26:39.152Z</time></trkpt><trkpt lat="44.47854" lon="8.0460567"><ele>753.3333333333333</ele><time>2026-05-01T13:26:40.153Z</time></trkpt><trkpt lat="44.4783867" lon="8.0459767"><ele>754.6666666666666</ele><time>2026-05-01T13:26:41.153Z</time></trkpt><trkpt lat="44.4782317" lon="8.0458817"><ele>756.0</ele><time>2026-05-01T13:26:42.157Z</time></trkpt><trkpt lat="44.478075" lon="8.04578"><ele>753.6666666666666</ele><time>2026-05-01T13:26:43.153Z</time></trkpt><trkpt lat="44.4779133" lon="8.0456783"><ele>751.3333333333333</ele><time>2026-05-01T13:26:44.154Z</time></trkpt><trkpt lat="44.4777467" lon="8.0455667"><ele>749.0</ele><time>2026-05-01T13:26:45.152Z</time></trkpt><trkpt lat="44.47757" lon="8.0454633"><ele>749.0</ele><time>2026-05-01T13:26:46.154Z</time></trkpt><trkpt lat="44.47739" lon="8.0453517"><ele>749.0</ele><time>2026-05-01T13:26:47.152Z</time></trkpt><trkpt lat="44.47721" lon="8.0452317"><ele>749.0</ele><time>2026-05-01T13:26:48.154Z</time></trkpt><trkpt lat="44.4770333" lon="8.0450967"><ele>747.3333333333333</ele><time>2026-05-01T13:26:49.151Z</time></trkpt><trkpt lat="44.47687" lon="8.0449533"><ele>745.6666666666666</ele><time>2026-05-01T13:26:50.153Z</time></trkpt><trkpt lat="44.4767183" lon="8.0448067"><ele>744.0</ele><time>2026-05-01T13:26:51.153Z</time></trkpt><trkpt lat="44.47657" lon="8.0446617"><ele>744.0</ele><time>2026-05-01T13:26:52.153Z</time></trkpt><trkpt lat="44.4764217" lon="8.04452"><ele>744.0</ele><time>2026-05-01T13:26:53.15Z</time></trkpt><trkpt lat="44.4762817" lon="8.04438"><ele>744.0</ele><time>2026-05-01T13:26:54.153Z</time></trkpt><trkpt lat="44.4761433" lon="8.0442333"><ele>745.0</ele><time>2026-05-01T13:26:55.159Z</time></trkpt><trkpt lat="44.47601" lon="8.044075"><ele>746.0</ele><time>2026-05-01T13:26:56.151Z</time></trkpt><trkpt lat="44.4758817" lon="8.0439117"><ele>747.0</ele><time>2026-05-01T13:26:57.151Z</time></trkpt><trkpt lat="44.4757567" lon="8.043745"><ele>747.0</ele><time>2026-05-01T13:26:58.156Z</time></trkpt><trkpt lat="44.4756317" lon="8.043575"><ele>747.0</ele><time>2026-05-01T13:26:59.156Z</time></trkpt><trkpt lat="44.4755067" lon="8.043405"><ele>747.0</ele><time>2026-05-01T13:27:00.153Z</time></trkpt><trkpt lat="44.4753833" lon="8.0432383"><ele>749.3333333333334</ele><time>2026-05-01T13:27:01.151Z</time></trkpt><trkpt lat="44.4752567" lon="8.0430683"><ele>751.6666666666667</ele><time>2026-05-01T13:27:02.152Z</time></trkpt><trkpt lat="44.4751317" lon="8.0428967"><ele>754.0</ele><time>2026-05-01T13:27:03.153Z</time></trkpt><trkpt lat="44.4750083" lon="8.042725"><ele>754.0</ele><time>2026-05-01T13:27:04.154Z</time></trkpt><trkpt lat="44.4748817" lon="8.0425517"><ele>754.0</ele><time>2026-05-01T13:27:05.155Z</time></trkpt><trkpt lat="44.4747567" lon="8.0423767"><ele>754.0</ele><time>2026-05-01T13:27:06.159Z</time></trkpt><trkpt lat="44.4746283" lon="8.0422083"><ele>754.0</ele><time>2026-05-01T13:27:07.153Z</time></trkpt><trkpt lat="44.4744933" lon="8.0420467"><ele>754.0</ele><time>2026-05-01T13:27:08.155Z</time></trkpt><trkpt lat="44.4743517" lon="8.0419017"><ele>754.0</ele><time>2026-05-01T13:27:09.154Z</time></trkpt><trkpt lat="44.4742017" lon="8.0417733"><ele>754.0</ele><time>2026-05-01T13:27:10.153Z</time></trkpt><trkpt lat="44.4740467" lon="8.0416583"><ele>754.0</ele><time>2026-05-01T13:27:11.158Z</time></trkpt><trkpt lat="44.4738967" lon="8.0415567"><ele>754.0</ele><time>2026-05-01T13:27:12.156Z</time></trkpt><trkpt lat="44.4737617" lon="8.041465"><ele>754.4000000000001</ele><time>2026-05-01T13:27:13.155Z</time></trkpt><trkpt lat="44.473645" lon="8.0413867"><ele>754.8</ele><time>2026-05-01T13:27:14.152Z</time></trkpt><trkpt lat="44.4735467" lon="8.0413183"><ele>755.2</ele><time>2026-05-01T13:27:15.152Z</time></trkpt><trkpt lat="44.4734683" lon="8.04126"><ele>755.5999999999999</ele><time>2026-05-01T13:27:16.153Z</time></trkpt><trkpt lat="44.4734" lon="8.0412067"><ele>756.0</ele><time>2026-05-01T13:27:17.154Z</time></trkpt><trkpt lat="44.47334" lon="8.0411567"><ele>756.0</ele><time>2026-05-01T13:27:18.149Z</time></trkpt><trkpt lat="44.4732417" lon="8.0410583"><ele>756.0</ele><time>2026-05-01T13:27:20.15Z</time></trkpt><trkpt lat="44.47316" lon="8.04095"><ele>756.0</ele><time>2026-05-01T13:27:22.155Z</time></trkpt><trkpt lat="44.4731167" lon="8.0408783"><ele>756.0</ele><time>2026-05-01T13:27:23.152Z</time></trkpt><trkpt lat="44.4730733" lon="8.0407867"><ele>756.0</ele><time>2026-05-01T13:27:24.154Z</time></trkpt><trkpt lat="44.4730383" lon="8.04067"><ele>756.4</ele><time>2026-05-01T13:27:25.152Z</time></trkpt><trkpt lat="44.4730033" lon="8.040545"><ele>756.8</ele><time>2026-05-01T13:27:26.15Z</time></trkpt><trkpt lat="44.4729533" lon="8.0404183"><ele>757.1999999999999</ele><time>2026-05-01T13:27:27.152Z</time></trkpt><trkpt lat="44.4728817" lon="8.0402883"><ele>757.5999999999999</ele><time>2026-05-01T13:27:28.153Z</time></trkpt><trkpt lat="44.472795" lon="8.0401583"><ele>758.0</ele><time>2026-05-01T13:27:29.153Z</time></trkpt><trkpt lat="44.4726967" lon="8.0400217"><ele>754.0</ele><time>2026-05-01T13:27:30.151Z</time></trkpt><trkpt lat="44.4725933" lon="8.0398733"><ele>750.0</ele><time>2026-05-01T13:27:31.155Z</time></trkpt><trkpt lat="44.4724833" lon="8.0397083"><ele>746.0</ele><time>2026-05-01T13:27:32.148Z</time></trkpt><trkpt lat="44.4723783" lon="8.0395283"><ele>746.0</ele><time>2026-05-01T13:27:33.154Z</time></trkpt><trkpt lat="44.472275" lon="8.0393417"><ele>746.0</ele><time>2026-05-01T13:27:34.157Z</time></trkpt><trkpt lat="44.4721767" lon="8.0391567"><ele>746.0</ele><time>2026-05-01T13:27:35.156Z</time></trkpt><trkpt lat="44.4720733" lon="8.0389733"><ele>747.6666666666666</ele><time>2026-05-01T13:27:36.159Z</time></trkpt><trkpt lat="44.4719733" lon="8.0387883"><ele>749.3333333333334</ele><time>2026-05-01T13:27:37.153Z</time></trkpt><trkpt lat="44.471875" lon="8.0386"><ele>751.0</ele><time>2026-05-01T13:27:38.152Z</time></trkpt><trkpt lat="44.4717717" lon="8.038415"><ele>747.3333333333334</ele><time>2026-05-01T13:27:39.152Z</time></trkpt><trkpt lat="44.4716667" lon="8.0382317"><ele>743.6666666666666</ele><time>2026-05-01T13:27:40.155Z</time></trkpt><trkpt lat="44.4715633" lon="8.03805"><ele>740.0</ele><time>2026-05-01T13:27:41.151Z</time></trkpt><trkpt lat="44.4714683" lon="8.0378717"><ele>740.0</ele><time>2026-05-01T13:27:42.151Z</time></trkpt><trkpt lat="44.4713933" lon="8.0376817"><ele>740.0</ele><time>2026-05-01T13:27:43.155Z</time></trkpt><trkpt lat="44.47133" lon="8.03748"><ele>740.0</ele><time>2026-05-01T13:27:44.151Z</time></trkpt><trkpt lat="44.4712717" lon="8.03727"><ele>742.3333333333333</ele><time>2026-05-01T13:27:45.154Z</time></trkpt><trkpt lat="44.471215" lon="8.0370583"><ele>744.6666666666666</ele><time>2026-05-01T13:27:46.153Z</time></trkpt><trkpt lat="44.47116" lon="8.0368483"><ele>747.0</ele><time>2026-05-01T13:27:47.152Z</time></trkpt><trkpt lat="44.4711067" lon="8.0366417"><ele>745.75</ele><time>2026-05-01T13:27:48.153Z</time></trkpt><trkpt lat="44.4710583" lon="8.0364533"><ele>744.5</ele><time>2026-05-01T13:27:49.153Z</time></trkpt><trkpt lat="44.4710183" lon="8.03628"><ele>743.25</ele><time>2026-05-01T13:27:50.157Z</time></trkpt><trkpt lat="44.4709917" lon="8.0361167"><ele>742.0</ele><time>2026-05-01T13:27:51.15Z</time></trkpt><trkpt lat="44.4709933" lon="8.0359567"><ele>742.0</ele><time>2026-05-01T13:27:52.154Z</time></trkpt><trkpt lat="44.4710083" lon="8.035805"><ele>742.0</ele><time>2026-05-01T13:27:53.155Z</time></trkpt><trkpt lat="44.4710333" lon="8.0356483"><ele>742.0</ele><time>2026-05-01T13:27:54.151Z</time></trkpt><trkpt lat="44.4710683" lon="8.035475"><ele>742.0</ele><time>2026-05-01T13:27:55.156Z</time></trkpt><trkpt lat="44.4711017" lon="8.0352833"><ele>741.6666666666667</ele><time>2026-05-01T13:27:56.152Z</time></trkpt><trkpt lat="44.4711183" lon="8.0350817"><ele>741.3333333333334</ele><time>2026-05-01T13:27:57.154Z</time></trkpt><trkpt lat="44.4711167" lon="8.0348667"><ele>741.0</ele><time>2026-05-01T13:27:58.15Z</time></trkpt><trkpt lat="44.4711033" lon="8.0346417"><ele>739.3333333333334</ele><time>2026-05-01T13:27:59.155Z</time></trkpt><trkpt lat="44.4710917" lon="8.0344117"><ele>737.6666666666667</ele><time>2026-05-01T13:28:00.151Z</time></trkpt><trkpt lat="44.4710767" lon="8.034175"><ele>736.0</ele><time>2026-05-01T13:28:01.153Z</time></trkpt><trkpt lat="44.4710533" lon="8.0339267"><ele>735.0</ele><time>2026-05-01T13:28:02.153Z</time></trkpt><trkpt lat="44.4710283" lon="8.0336817"><ele>734.0</ele><time>2026-05-01T13:28:03.153Z</time></trkpt><trkpt lat="44.471" lon="8.033435"><ele>733.0</ele><time>2026-05-01T13:28:04.152Z</time></trkpt><trkpt lat="44.470975" lon="8.0331983"><ele>733.0</ele><time>2026-05-01T13:28:05.153Z</time></trkpt><trkpt lat="44.4709617" lon="8.0329983"><ele>733.0</ele><time>2026-05-01T13:28:06.151Z</time></trkpt><trkpt lat="44.4709717" lon="8.0328067"><ele>733.0</ele><time>2026-05-01T13:28:07.15Z</time></trkpt><trkpt lat="44.4709833" lon="8.0326217"><ele>733.0</ele><time>2026-05-01T13:28:08.15Z</time></trkpt><trkpt lat="44.47099" lon="8.0324383"><ele>733.25</ele><time>2026-05-01T13:28:09.154Z</time></trkpt><trkpt lat="44.4709867" lon="8.032255"><ele>733.5</ele><time>2026-05-01T13:28:10.149Z</time></trkpt><trkpt lat="44.47097" lon="8.03208"><ele>733.75</ele><time>2026-05-01T13:28:11.157Z</time></trkpt><trkpt lat="44.4709533" lon="8.0319067"><ele>734.0</ele><time>2026-05-01T13:28:12.153Z</time></trkpt><trkpt lat="44.4709533" lon="8.0317467"><ele>735.2</ele><time>2026-05-01T13:28:13.155Z</time></trkpt><trkpt lat="44.4709733" lon="8.031615"><ele>736.4000000000001</ele><time>2026-05-01T13:28:14.154Z</time></trkpt><trkpt lat="44.471015" lon="8.0315117"><ele>737.6</ele><time>2026-05-01T13:28:15.152Z</time></trkpt><trkpt lat="44.4710567" lon="8.0314283"><ele>738.8</ele><time>2026-05-01T13:28:16.159Z</time></trkpt><trkpt lat="44.4711083" lon="8.0313333"><ele>740.0</ele><time>2026-05-01T13:28:17.154Z</time></trkpt><trkpt lat="44.4712017" lon="8.0312333"><ele>735.5</ele><time>2026-05-01T13:28:18.15Z</time></trkpt><trkpt lat="44.471305" lon="8.0311233"><ele>731.0</ele><time>2026-05-01T13:28:19.156Z</time></trkpt><trkpt lat="44.47142" lon="8.031015"><ele>726.5</ele><time>2026-05-01T13:28:20.154Z</time></trkpt><trkpt lat="44.4715417" lon="8.030905"><ele>722.0</ele><time>2026-05-01T13:28:21.153Z</time></trkpt><trkpt lat="44.4716617" lon="8.0307867"><ele>722.0</ele><time>2026-05-01T13:28:22.157Z</time></trkpt><trkpt lat="44.4717733" lon="8.03067"><ele>722.0</ele><time>2026-05-01T13:28:23.153Z</time></trkpt><trkpt lat="44.4718717" lon="8.03057"><ele>722.0</ele><time>2026-05-01T13:28:24.154Z</time></trkpt><trkpt lat="44.4719617" lon="8.0304817"><ele>722.0</ele><time>2026-05-01T13:28:25.153Z</time></trkpt><trkpt lat="44.4720333" lon="8.0303883"><ele>722.0</ele><time>2026-05-01T13:28:26.153Z</time></trkpt><trkpt lat="44.47207" lon="8.0302867"><ele>722.0</ele><time>2026-05-01T13:28:27.153Z</time></trkpt><trkpt lat="44.4720683" lon="8.0301867"><ele>722.0</ele><time>2026-05-01T13:28:28.155Z</time></trkpt><trkpt lat="44.472005" lon="8.0300433"><ele>722.0</ele><time>2026-05-01T13:28:30.15Z</time></trkpt><trkpt lat="44.4719333" lon="8.0299917"><ele>722.0</ele><time>2026-05-01T13:28:31.151Z</time></trkpt><trkpt lat="44.4718333" lon="8.0299233"><ele>719.5</ele><time>2026-05-01T13:28:32.153Z</time></trkpt><trkpt lat="44.47174" lon="8.02986"><ele>717.0</ele><time>2026-05-01T13:28:33.15Z</time></trkpt><trkpt lat="44.47164" lon="8.02978"><ele>714.5</ele><time>2026-05-01T13:28:34.154Z</time></trkpt><trkpt lat="44.471545" lon="8.02968"><ele>712.0</ele><time>2026-05-01T13:28:35.152Z</time></trkpt><trkpt lat="44.471465" lon="8.0295517"><ele>712.0</ele><time>2026-05-01T13:28:36.151Z</time></trkpt><trkpt lat="44.4714083" lon="8.029405"><ele>712.0</ele><time>2026-05-01T13:28:37.154Z</time></trkpt><trkpt lat="44.471365" lon="8.0292433"><ele>712.0</ele><time>2026-05-01T13:28:38.152Z</time></trkpt><trkpt lat="44.4713267" lon="8.029065"><ele>712.0</ele><time>2026-05-01T13:28:39.153Z</time></trkpt><trkpt lat="44.4712817" lon="8.0288833"><ele>712.25</ele><time>2026-05-01T13:28:40.155Z</time></trkpt><trkpt lat="44.4712433" lon="8.028695"><ele>712.5</ele><time>2026-05-01T13:28:41.155Z</time></trkpt><trkpt lat="44.4712" lon="8.02851"><ele>712.75</ele><time>2026-05-01T13:28:42.153Z</time></trkpt><trkpt lat="44.4711633" lon="8.0283267"><ele>713.0</ele><time>2026-05-01T13:28:43.153Z</time></trkpt><trkpt lat="44.4711283" lon="8.0281383"><ele>713.0</ele><time>2026-05-01T13:28:44.152Z</time></trkpt><trkpt lat="44.471095" lon="8.0279517"><ele>713.0</ele><time>2026-05-01T13:28:45.156Z</time></trkpt><trkpt lat="44.4710567" lon="8.0277633"><ele>713.0</ele><time>2026-05-01T13:28:46.154Z</time></trkpt><trkpt lat="44.4710133" lon="8.0275767"><ele>713.0</ele><time>2026-05-01T13:28:47.152Z</time></trkpt><trkpt lat="44.4709667" lon="8.02739"><ele>712.0</ele><time>2026-05-01T13:28:48.153Z</time></trkpt><trkpt lat="44.4709217" lon="8.0272017"><ele>711.0</ele><time>2026-05-01T13:28:49.149Z</time></trkpt><trkpt lat="44.47088" lon="8.0270133"><ele>710.0</ele><time>2026-05-01T13:28:50.153Z</time></trkpt><trkpt lat="44.4708383" lon="8.0268217"><ele>709.0</ele><time>2026-05-01T13:28:51.156Z</time></trkpt><trkpt lat="44.4707917" lon="8.02663"><ele>708.25</ele><time>2026-05-01T13:28:52.157Z</time></trkpt><trkpt lat="44.4707467" lon="8.02644"><ele>707.5</ele><time>2026-05-01T13:28:53.151Z</time></trkpt><trkpt lat="44.470705" lon="8.0262583"><ele>706.75</ele><time>2026-05-01T13:28:54.154Z</time></trkpt><trkpt lat="44.4706683" lon="8.0261117"><ele>706.0</ele><time>2026-05-01T13:28:55.155Z</time></trkpt><trkpt lat="44.4706417" lon="8.0259983"><ele>706.0</ele><time>2026-05-01T13:28:56.151Z</time></trkpt><trkpt lat="44.4706217" lon="8.025905"><ele>706.0</ele><time>2026-05-01T13:28:57.157Z</time></trkpt><trkpt lat="44.470605" lon="8.0258133"><ele>706.0</ele><time>2026-05-01T13:28:58.152Z</time></trkpt><trkpt lat="44.470585" lon="8.0257217"><ele>706.0</ele><time>2026-05-01T13:28:59.152Z</time></trkpt><trkpt lat="44.4705533" lon="8.0256417"><ele>706.0</ele><time>2026-05-01T13:29:00.154Z</time></trkpt><trkpt lat="44.4705083" lon="8.0255717"><ele>706.0</ele><time>2026-05-01T13:29:01.16Z</time></trkpt><trkpt lat="44.4704217" lon="8.0255"><ele>706.0</ele><time>2026-05-01T13:29:03.161Z</time></trkpt><trkpt lat="44.470345" lon="8.0254967"><ele>705.0</ele><time>2026-05-01T13:29:06.154Z</time></trkpt><trkpt lat="44.4702633" lon="8.025595"><ele>704.0</ele><time>2026-05-01T13:29:08.153Z</time></trkpt><trkpt lat="44.47022" lon="8.0256883"><ele>703.0</ele><time>2026-05-01T13:29:09.152Z</time></trkpt><trkpt lat="44.4701783" lon="8.0258"><ele>702.0</ele><time>2026-05-01T13:29:10.153Z</time></trkpt><trkpt lat="44.4701383" lon="8.0259117"><ele>701.0</ele><time>2026-05-01T13:29:11.15Z</time></trkpt><trkpt lat="44.47009" lon="8.026035"><ele>701.0</ele><time>2026-05-01T13:29:12.153Z</time></trkpt><trkpt lat="44.47003" lon="8.0261533"><ele>701.0</ele><time>2026-05-01T13:29:13.16Z</time></trkpt><trkpt lat="44.469945" lon="8.0262617"><ele>701.0</ele><time>2026-05-01T13:29:14.154Z</time></trkpt><trkpt lat="44.4698533" lon="8.0263783"><ele>701.0</ele><time>2026-05-01T13:29:15.152Z</time></trkpt><trkpt lat="44.46976" lon="8.0264983"><ele>701.0</ele><time>2026-05-01T13:29:16.15Z</time></trkpt><trkpt lat="44.4696667" lon="8.0266217"><ele>701.0</ele><time>2026-05-01T13:29:17.151Z</time></trkpt><trkpt lat="44.4695667" lon="8.0267567"><ele>701.0</ele><time>2026-05-01T13:29:18.149Z</time></trkpt><trkpt lat="44.4694717" lon="8.0269067"><ele>701.0</ele><time>2026-05-01T13:29:19.153Z</time></trkpt><trkpt lat="44.469385" lon="8.02707"><ele>701.75</ele><time>2026-05-01T13:29:20.153Z</time></trkpt><trkpt lat="44.4693133" lon="8.02725"><ele>702.5</ele><time>2026-05-01T13:29:21.154Z</time></trkpt><trkpt lat="44.46926" lon="8.0274433"><ele>703.25</ele><time>2026-05-01T13:29:22.15Z</time></trkpt><trkpt lat="44.469215" lon="8.0276383"><ele>704.0</ele><time>2026-05-01T13:29:23.153Z</time></trkpt><trkpt lat="44.4691767" lon="8.0278333"><ele>706.75</ele><time>2026-05-01T13:29:24.154Z</time></trkpt><trkpt lat="44.469155" lon="8.0280283"><ele>709.5</ele><time>2026-05-01T13:29:25.152Z</time></trkpt><trkpt lat="44.4691467" lon="8.0282183"><ele>712.25</ele><time>2026-05-01T13:29:26.153Z</time></trkpt><trkpt lat="44.4691333" lon="8.02839"><ele>715.0</ele><time>2026-05-01T13:29:27.152Z</time></trkpt><trkpt lat="44.4691083" lon="8.0285433"><ele>715.6</ele><time>2026-05-01T13:29:28.152Z</time></trkpt><trkpt lat="44.4690433" lon="8.028655"><ele>716.2</ele><time>2026-05-01T13:29:29.156Z</time></trkpt><trkpt lat="44.46896" lon="8.028745"><ele>716.8</ele><time>2026-05-01T13:29:30.153Z</time></trkpt><trkpt lat="44.4688617" lon="8.0288067"><ele>717.4</ele><time>2026-05-01T13:29:31.15Z</time></trkpt><trkpt lat="44.468745" lon="8.0288117"><ele>718.0</ele><time>2026-05-01T13:29:32.156Z</time></trkpt><trkpt lat="44.4686267" lon="8.028785"><ele>718.0</ele><time>2026-05-01T13:29:33.157Z</time></trkpt><trkpt lat="44.4685083" lon="8.0287583"><ele>718.0</ele><time>2026-05-01T13:29:34.152Z</time></trkpt><trkpt lat="44.46839" lon="8.0287533"><ele>718.0</ele><time>2026-05-01T13:29:35.154Z</time></trkpt><trkpt lat="44.4682733" lon="8.0287733"><ele>718.0</ele><time>2026-05-01T13:29:36.153Z</time></trkpt><trkpt lat="44.468155" lon="8.028825"><ele>718.0</ele><time>2026-05-01T13:29:37.159Z</time></trkpt><trkpt lat="44.468045" lon="8.028905"><ele>718.0</ele><time>2026-05-01T13:29:38.153Z</time></trkpt><trkpt lat="44.46794" lon="8.0290117"><ele>718.0</ele><time>2026-05-01T13:29:39.156Z</time></trkpt><trkpt lat="44.467845" lon="8.0291583"><ele>718.0</ele><time>2026-05-01T13:29:40.155Z</time></trkpt><trkpt lat="44.467765" lon="8.029315"><ele>720.25</ele><time>2026-05-01T13:29:41.156Z</time></trkpt><trkpt lat="44.4676867" lon="8.02946"><ele>722.5</ele><time>2026-05-01T13:29:42.154Z</time></trkpt><trkpt lat="44.4676017" lon="8.0295883"><ele>724.75</ele><time>2026-05-01T13:29:43.157Z</time></trkpt><trkpt lat="44.4675" lon="8.0296867"><ele>727.0</ele><time>2026-05-01T13:29:44.153Z</time></trkpt><trkpt lat="44.4673833" lon="8.02975"><ele>727.0</ele><time>2026-05-01T13:29:45.152Z</time></trkpt><trkpt lat="44.4672567" lon="8.0297817"><ele>727.0</ele><time>2026-05-01T13:29:46.155Z</time></trkpt><trkpt lat="44.4671083" lon="8.02979"><ele>727.0</ele><time>2026-05-01T13:29:47.153Z</time></trkpt><trkpt lat="44.4669617" lon="8.0297933"><ele>727.0</ele><time>2026-05-01T13:29:48.156Z</time></trkpt><trkpt lat="44.4668083" lon="8.0298017"><ele>728.0</ele><time>2026-05-01T13:29:49.152Z</time></trkpt><trkpt lat="44.466665" lon="8.0298183"><ele>729.0</ele><time>2026-05-01T13:29:50.156Z</time></trkpt><trkpt lat="44.4665233" lon="8.02985"><ele>730.0</ele><time>2026-05-01T13:29:51.154Z</time></trkpt><trkpt lat="44.466395" lon="8.0298983"><ele>731.0</ele><time>2026-05-01T13:29:52.152Z</time></trkpt><trkpt lat="44.4662933" lon="8.0299717"><ele>731.5999999999999</ele><time>2026-05-01T13:29:53.153Z</time></trkpt><trkpt lat="44.4662083" lon="8.0300583"><ele>732.2</ele><time>2026-05-01T13:29:54.161Z</time></trkpt><trkpt lat="44.466145" lon="8.0301733"><ele>732.8</ele><time>2026-05-01T13:29:55.157Z</time></trkpt><trkpt lat="44.4660983" lon="8.0303067"><ele>733.4000000000001</ele><time>2026-05-01T13:29:56.155Z</time></trkpt><trkpt lat="44.4660817" lon="8.0304617"><ele>734.0</ele><time>2026-05-01T13:29:57.156Z</time></trkpt><trkpt lat="44.4660933" lon="8.03062"><ele>734.0</ele><time>2026-05-01T13:29:58.159Z</time></trkpt><trkpt lat="44.4661283" lon="8.03079"><ele>734.0</ele><time>2026-05-01T13:29:59.156Z</time></trkpt><trkpt lat="44.4661733" lon="8.030965"><ele>734.0</ele><time>2026-05-01T13:30:00.153Z</time></trkpt><trkpt lat="44.4662217" lon="8.0311467"><ele>734.0</ele><time>2026-05-01T13:30:01.156Z</time></trkpt><trkpt lat="44.4662767" lon="8.0313317"><ele>739.5</ele><time>2026-05-01T13:30:02.15Z</time></trkpt><trkpt lat="44.466325" lon="8.0315117"><ele>745.0</ele><time>2026-05-01T13:30:03.163Z</time></trkpt><trkpt lat="44.4663767" lon="8.031695"><ele>750.5</ele><time>2026-05-01T13:30:04.15Z</time></trkpt><trkpt lat="44.4664183" lon="8.0318667"><ele>756.0</ele><time>2026-05-01T13:30:05.158Z</time></trkpt><trkpt lat="44.4664417" lon="8.032035"><ele>754.75</ele><time>2026-05-01T13:30:06.16Z</time></trkpt><trkpt lat="44.4664367" lon="8.0322033"><ele>753.5</ele><time>2026-05-01T13:30:07.159Z</time></trkpt><trkpt lat="44.4664" lon="8.0323633"><ele>752.25</ele><time>2026-05-01T13:30:08.155Z</time></trkpt><trkpt lat="44.4663367" lon="8.0325017"><ele>751.0</ele><time>2026-05-01T13:30:09.154Z</time></trkpt><trkpt lat="44.4662483" lon="8.0326167"><ele>751.0</ele><time>2026-05-01T13:30:10.156Z</time></trkpt><trkpt lat="44.46614" lon="8.0327"><ele>751.0</ele><time>2026-05-01T13:30:11.157Z</time></trkpt><trkpt lat="44.46602" lon="8.0327933"><ele>751.0</ele><time>2026-05-01T13:30:12.155Z</time></trkpt><trkpt lat="44.4659083" lon="8.0329"><ele>751.0</ele><time>2026-05-01T13:30:13.153Z</time></trkpt><trkpt lat="44.4658133" lon="8.0330383"><ele>751.0</ele><time>2026-05-01T13:30:14.15Z</time></trkpt><trkpt lat="44.4657217" lon="8.0331983"><ele>751.0</ele><time>2026-05-01T13:30:15.152Z</time></trkpt><trkpt lat="44.46563" lon="8.0333717"><ele>751.0</ele><time>2026-05-01T13:30:16.15Z</time></trkpt><trkpt lat="44.46554" lon="8.0335533"><ele>749.0</ele><time>2026-05-01T13:30:17.157Z</time></trkpt><trkpt lat="44.46544" lon="8.0337333"><ele>747.0</ele><time>2026-05-01T13:30:18.154Z</time></trkpt><trkpt lat="44.4653333" lon="8.0339133"><ele>745.0</ele><time>2026-05-01T13:30:19.153Z</time></trkpt><trkpt lat="44.4652133" lon="8.0340717"><ele>750.6666666666667</ele><time>2026-05-01T13:30:20.151Z</time></trkpt><trkpt lat="44.4650883" lon="8.0342233"><ele>756.3333333333334</ele><time>2026-05-01T13:30:21.152Z</time></trkpt><trkpt lat="44.4649567" lon="8.0343617"><ele>762.0</ele><time>2026-05-01T13:30:22.154Z</time></trkpt><trkpt lat="44.4648183" lon="8.0344933"><ele>762.0</ele><time>2026-05-01T13:30:23.155Z</time></trkpt><trkpt lat="44.4646817" lon="8.03462"><ele>762.0</ele><time>2026-05-01T13:30:24.154Z</time></trkpt><trkpt lat="44.464545" lon="8.0347433"><ele>762.0</ele><time>2026-05-01T13:30:25.155Z</time></trkpt><trkpt lat="44.46441" lon="8.03487"><ele>764.3333333333333</ele><time>2026-05-01T13:30:26.155Z</time></trkpt><trkpt lat="44.464275" lon="8.0349933"><ele>766.6666666666666</ele><time>2026-05-01T13:30:27.151Z</time></trkpt><trkpt lat="44.4641417" lon="8.0351167"><ele>769.0</ele><time>2026-05-01T13:30:28.15Z</time></trkpt><trkpt lat="44.4640133" lon="8.0352367"><ele>769.0</ele><time>2026-05-01T13:30:29.153Z</time></trkpt><trkpt lat="44.4638867" lon="8.035355"><ele>769.0</ele><time>2026-05-01T13:30:30.155Z</time></trkpt><trkpt lat="44.4637633" lon="8.03547"><ele>769.0</ele><time>2026-05-01T13:30:31.158Z</time></trkpt><trkpt lat="44.463645" lon="8.0355767"><ele>769.0</ele><time>2026-05-01T13:30:32.155Z</time></trkpt><trkpt lat="44.46352" lon="8.0356667"><ele>767.25</ele><time>2026-05-01T13:30:33.153Z</time></trkpt><trkpt lat="44.4633933" lon="8.035735"><ele>765.5</ele><time>2026-05-01T13:30:34.157Z</time></trkpt><trkpt lat="44.4632667" lon="8.035775"><ele>763.75</ele><time>2026-05-01T13:30:35.163Z</time></trkpt><trkpt lat="44.4631367" lon="8.03579"><ele>762.0</ele><time>2026-05-01T13:30:36.158Z</time></trkpt><trkpt lat="44.463005" lon="8.0358"><ele>767.5</ele><time>2026-05-01T13:30:37.156Z</time></trkpt><trkpt lat="44.46287" lon="8.0358133"><ele>773.0</ele><time>2026-05-01T13:30:38.157Z</time></trkpt><trkpt lat="44.462735" lon="8.03584"><ele>778.5</ele><time>2026-05-01T13:30:39.16Z</time></trkpt><trkpt lat="44.4625967" lon="8.0358817"><ele>784.0</ele><time>2026-05-01T13:30:40.154Z</time></trkpt><trkpt lat="44.462455" lon="8.0359433"><ele>784.0</ele><time>2026-05-01T13:30:41.156Z</time></trkpt><trkpt lat="44.462315" lon="8.036015"><ele>784.0</ele><time>2026-05-01T13:30:42.154Z</time></trkpt><trkpt lat="44.462175" lon="8.0360883"><ele>784.0</ele><time>2026-05-01T13:30:43.158Z</time></trkpt><trkpt lat="44.4620317" lon="8.0361633"><ele>783.3333333333333</ele><time>2026-05-01T13:30:44.157Z</time></trkpt><trkpt lat="44.461885" lon="8.03623"><ele>782.6666666666667</ele><time>2026-05-01T13:30:45.157Z</time></trkpt><trkpt lat="44.4617317" lon="8.0362867"><ele>782.0</ele><time>2026-05-01T13:30:46.156Z</time></trkpt><trkpt lat="44.4615783" lon="8.0363433"><ele>782.0</ele><time>2026-05-01T13:30:47.161Z</time></trkpt><trkpt lat="44.4614317" lon="8.0364017"><ele>782.0</ele><time>2026-05-01T13:30:48.158Z</time></trkpt><trkpt lat="44.46129" lon="8.03646"><ele>782.0</ele><time>2026-05-01T13:30:49.159Z</time></trkpt><trkpt lat="44.4611583" lon="8.0365133"><ele>782.0</ele><time>2026-05-01T13:30:50.153Z</time></trkpt><trkpt lat="44.4610333" lon="8.03657"><ele>785.25</ele><time>2026-05-01T13:30:51.153Z</time></trkpt><trkpt lat="44.46093" lon="8.0366383"><ele>788.5</ele><time>2026-05-01T13:30:52.154Z</time></trkpt><trkpt lat="44.4608417" lon="8.0367333"><ele>791.75</ele><time>2026-05-01T13:30:53.152Z</time></trkpt><trkpt lat="44.46077" lon="8.0368567"><ele>795.0</ele><time>2026-05-01T13:30:54.155Z</time></trkpt><trkpt lat="44.460705" lon="8.0369967"><ele>795.0</ele><time>2026-05-01T13:30:55.154Z</time></trkpt><trkpt lat="44.460635" lon="8.037145"><ele>795.0</ele><time>2026-05-01T13:30:56.158Z</time></trkpt><trkpt lat="44.4605567" lon="8.037295"><ele>795.0</ele><time>2026-05-01T13:30:57.156Z</time></trkpt><trkpt lat="44.4604717" lon="8.03744"><ele>795.0</ele><time>2026-05-01T13:30:58.155Z</time></trkpt><trkpt lat="44.460365" lon="8.0375733"><ele>793.0</ele><time>2026-05-01T13:30:59.153Z</time></trkpt><trkpt lat="44.4602383" lon="8.03771"><ele>791.0</ele><time>2026-05-01T13:31:00.156Z</time></trkpt><trkpt lat="44.4601033" lon="8.0378317"><ele>789.0</ele><time>2026-05-01T13:31:01.152Z</time></trkpt><trkpt lat="44.4599583" lon="8.037935"><ele>789.0</ele><time>2026-05-01T13:31:02.161Z</time></trkpt><trkpt lat="44.4598033" lon="8.0380133"><ele>789.0</ele><time>2026-05-01T13:31:03.153Z</time></trkpt><trkpt lat="44.4596433" lon="8.0380683"><ele>789.0</ele><time>2026-05-01T13:31:04.154Z</time></trkpt><trkpt lat="44.4594783" lon="8.03811"><ele>786.0</ele><time>2026-05-01T13:31:05.159Z</time></trkpt><trkpt lat="44.4593133" lon="8.0381317"><ele>783.0</ele><time>2026-05-01T13:31:06.157Z</time></trkpt><trkpt lat="44.459155" lon="8.03814"><ele>780.0</ele><time>2026-05-01T13:31:07.158Z</time></trkpt><trkpt lat="44.4590033" lon="8.0381283"><ele>780.0</ele><time>2026-05-01T13:31:08.154Z</time></trkpt><trkpt lat="44.4588583" lon="8.0381"><ele>780.0</ele><time>2026-05-01T13:31:09.166Z</time></trkpt><trkpt lat="44.4587217" lon="8.0380683"><ele>780.0</ele><time>2026-05-01T13:31:10.154Z</time></trkpt><trkpt lat="44.4585917" lon="8.0380483"><ele>780.0</ele><time>2026-05-01T13:31:11.157Z</time></trkpt><trkpt lat="44.4584683" lon="8.03805"><ele>779.5</ele><time>2026-05-01T13:31:12.155Z</time></trkpt><trkpt lat="44.4583483" lon="8.0380817"><ele>779.0</ele><time>2026-05-01T13:31:13.154Z</time></trkpt><trkpt lat="44.4582417" lon="8.038155"><ele>778.5</ele><time>2026-05-01T13:31:14.154Z</time></trkpt><trkpt lat="44.4581533" lon="8.0382633"><ele>778.0</ele><time>2026-05-01T13:31:15.157Z</time></trkpt><trkpt lat="44.45809" lon="8.0384017"><ele>781.25</ele><time>2026-05-01T13:31:16.155Z</time></trkpt><trkpt lat="44.458055" lon="8.038555"><ele>784.5</ele><time>2026-05-01T13:31:17.155Z</time></trkpt><trkpt lat="44.4580567" lon="8.03872"><ele>787.75</ele><time>2026-05-01T13:31:18.152Z</time></trkpt><trkpt lat="44.4580867" lon="8.0388933"><ele>791.0</ele><time>2026-05-01T13:31:19.154Z</time></trkpt><trkpt lat="44.4581333" lon="8.03907"><ele>790.5</ele><time>2026-05-01T13:31:20.155Z</time></trkpt><trkpt lat="44.4581917" lon="8.0392567"><ele>790.0</ele><time>2026-05-01T13:31:21.15Z</time></trkpt><trkpt lat="44.4582467" lon="8.0394483"><ele>789.5</ele><time>2026-05-01T13:31:22.152Z</time></trkpt><trkpt lat="44.4583017" lon="8.0396417"><ele>789.0</ele><time>2026-05-01T13:31:23.154Z</time></trkpt><trkpt lat="44.4583483" lon="8.039845"><ele>786.75</ele><time>2026-05-01T13:31:24.153Z</time></trkpt><trkpt lat="44.45838" lon="8.0400483"><ele>784.5</ele><time>2026-05-01T13:31:25.156Z</time></trkpt><trkpt lat="44.4583933" lon="8.040255"><ele>782.25</ele><time>2026-05-01T13:31:26.156Z</time></trkpt><trkpt lat="44.458395" lon="8.0404567"><ele>780.0</ele><time>2026-05-01T13:31:27.154Z</time></trkpt><trkpt lat="44.45838" lon="8.04066"><ele>779.25</ele><time>2026-05-01T13:31:28.154Z</time></trkpt><trkpt lat="44.45836" lon="8.04086"><ele>778.5</ele><time>2026-05-01T13:31:29.155Z</time></trkpt><trkpt lat="44.45832" lon="8.0410633"><ele>777.75</ele><time>2026-05-01T13:31:30.156Z</time></trkpt><trkpt lat="44.4582667" lon="8.0412617"><ele>777.0</ele><time>2026-05-01T13:31:31.154Z</time></trkpt><trkpt lat="44.4581983" lon="8.041445"><ele>777.0</ele><time>2026-05-01T13:31:32.157Z</time></trkpt><trkpt lat="44.4581217" lon="8.0416267"><ele>777.0</ele><time>2026-05-01T13:31:33.152Z</time></trkpt><trkpt lat="44.4580383" lon="8.0417967"><ele>777.0</ele><time>2026-05-01T13:31:34.158Z</time></trkpt><trkpt lat="44.4579417" lon="8.0419533"><ele>777.0</ele><time>2026-05-01T13:31:35.155Z</time></trkpt><trkpt lat="44.4578383" lon="8.0421017"><ele>774.5</ele><time>2026-05-01T13:31:36.154Z</time></trkpt><trkpt lat="44.4577267" lon="8.04224"><ele>772.0</ele><time>2026-05-01T13:31:37.154Z</time></trkpt><trkpt lat="44.4576133" lon="8.042375"><ele>769.5</ele><time>2026-05-01T13:31:38.156Z</time></trkpt><trkpt lat="44.457495" lon="8.0425033"><ele>767.0</ele><time>2026-05-01T13:31:39.157Z</time></trkpt><trkpt lat="44.45738" lon="8.042635"><ele>767.0</ele><time>2026-05-01T13:31:40.161Z</time></trkpt><trkpt lat="44.4572717" lon="8.0427717"><ele>767.0</ele><time>2026-05-01T13:31:41.155Z</time></trkpt><trkpt lat="44.45717" lon="8.0429167"><ele>767.0</ele><time>2026-05-01T13:31:42.152Z</time></trkpt><trkpt lat="44.457075" lon="8.0430783"><ele>767.0</ele><time>2026-05-01T13:31:43.154Z</time></trkpt><trkpt lat="44.456995" lon="8.04326"><ele>763.0</ele><time>2026-05-01T13:31:44.158Z</time></trkpt><trkpt lat="44.4569333" lon="8.043455"><ele>759.0</ele><time>2026-05-01T13:31:45.151Z</time></trkpt><trkpt lat="44.4568883" lon="8.043655"><ele>755.0</ele><time>2026-05-01T13:31:46.156Z</time></trkpt><trkpt lat="44.45684" lon="8.0438533"><ele>755.0</ele><time>2026-05-01T13:31:47.157Z</time></trkpt><trkpt lat="44.4567883" lon="8.0440483"><ele>755.0</ele><time>2026-05-01T13:31:48.153Z</time></trkpt><trkpt lat="44.45671" lon="8.04423"><ele>755.0</ele><time>2026-05-01T13:31:49.153Z</time></trkpt><trkpt lat="44.4566283" lon="8.04441"><ele>757.3333333333333</ele><time>2026-05-01T13:31:50.153Z</time></trkpt><trkpt lat="44.4565367" lon="8.0445867"><ele>759.6666666666666</ele><time>2026-05-01T13:31:51.153Z</time></trkpt><trkpt lat="44.4564417" lon="8.0447667"><ele>762.0</ele><time>2026-05-01T13:31:52.154Z</time></trkpt><trkpt lat="44.4563467" lon="8.04495"><ele>758.0</ele><time>2026-05-01T13:31:53.154Z</time></trkpt><trkpt lat="44.45625" lon="8.0451333"><ele>754.0</ele><time>2026-05-01T13:31:54.152Z</time></trkpt><trkpt lat="44.4561467" lon="8.0453233"><ele>750.0</ele><time>2026-05-01T13:31:55.157Z</time></trkpt><trkpt lat="44.4560517" lon="8.04552"><ele>750.0</ele><time>2026-05-01T13:31:56.151Z</time></trkpt><trkpt lat="44.4559583" lon="8.0457167"><ele>750.0</ele><time>2026-05-01T13:31:57.158Z</time></trkpt><trkpt lat="44.4558633" lon="8.0459033"><ele>750.0</ele><time>2026-05-01T13:31:58.153Z</time></trkpt><trkpt lat="44.4557667" lon="8.0460733"><ele>748.75</ele><time>2026-05-01T13:31:59.153Z</time></trkpt><trkpt lat="44.4556567" lon="8.0462167"><ele>747.5</ele><time>2026-05-01T13:32:00.155Z</time></trkpt><trkpt lat="44.4555367" lon="8.046335"><ele>746.25</ele><time>2026-05-01T13:32:01.157Z</time></trkpt><trkpt lat="44.4554133" lon="8.04644"><ele>745.0</ele><time>2026-05-01T13:32:02.159Z</time></trkpt><trkpt lat="44.4552983" lon="8.0465333"><ele>748.5</ele><time>2026-05-01T13:32:03.163Z</time></trkpt><trkpt lat="44.455195" lon="8.0466467"><ele>752.0</ele><time>2026-05-01T13:32:04.156Z</time></trkpt><trkpt lat="44.45511" lon="8.04679"><ele>755.5</ele><time>2026-05-01T13:32:05.154Z</time></trkpt><trkpt lat="44.4550483" lon="8.0469567"><ele>759.0</ele><time>2026-05-01T13:32:06.154Z</time></trkpt><trkpt lat="44.4550067" lon="8.0471417"><ele>759.0</ele><time>2026-05-01T13:32:07.152Z</time></trkpt><trkpt lat="44.4549717" lon="8.047335"><ele>759.0</ele><time>2026-05-01T13:32:08.157Z</time></trkpt><trkpt lat="44.4549333" lon="8.0475367"><ele>759.0</ele><time>2026-05-01T13:32:09.157Z</time></trkpt><trkpt lat="44.45489" lon="8.0477367"><ele>759.0</ele><time>2026-05-01T13:32:10.154Z</time></trkpt><trkpt lat="44.4548383" lon="8.0479367"><ele>761.0</ele><time>2026-05-01T13:32:11.153Z</time></trkpt><trkpt lat="44.4547783" lon="8.048135"><ele>763.0</ele><time>2026-05-01T13:32:12.157Z</time></trkpt><trkpt lat="44.4547067" lon="8.048325"><ele>765.0</ele><time>2026-05-01T13:32:13.155Z</time></trkpt><trkpt lat="44.4546233" lon="8.048505"><ele>760.6666666666666</ele><time>2026-05-01T13:32:14.157Z</time></trkpt><trkpt lat="44.45454" lon="8.04868"><ele>756.3333333333333</ele><time>2026-05-01T13:32:15.158Z</time></trkpt><trkpt lat="44.4544617" lon="8.04886"><ele>752.0</ele><time>2026-05-01T13:32:16.159Z</time></trkpt><trkpt lat="44.45439" lon="8.0490467"><ele>756.0</ele><time>2026-05-01T13:32:17.156Z</time></trkpt><trkpt lat="44.45432" lon="8.0492383"><ele>760.0</ele><time>2026-05-01T13:32:18.159Z</time></trkpt><trkpt lat="44.4542483" lon="8.04943"><ele>764.0</ele><time>2026-05-01T13:32:19.156Z</time></trkpt><trkpt lat="44.45418" lon="8.049625"><ele>764.0</ele><time>2026-05-01T13:32:20.156Z</time></trkpt><trkpt lat="44.4541133" lon="8.0498133"><ele>764.0</ele><time>2026-05-01T13:32:21.153Z</time></trkpt><trkpt lat="44.4540417" lon="8.04999"><ele>764.0</ele><time>2026-05-01T13:32:22.154Z</time></trkpt><trkpt lat="44.4539667" lon="8.0501533"><ele>764.0</ele><time>2026-05-01T13:32:23.154Z</time></trkpt><trkpt lat="44.4538833" lon="8.0503"><ele>762.75</ele><time>2026-05-01T13:32:24.155Z</time></trkpt><trkpt lat="44.45379" lon="8.0504317"><ele>761.5</ele><time>2026-05-01T13:32:25.154Z</time></trkpt><trkpt lat="44.4536817" lon="8.0505433"><ele>760.25</ele><time>2026-05-01T13:32:26.156Z</time></trkpt><trkpt lat="44.4535583" lon="8.050645"><ele>759.0</ele><time>2026-05-01T13:32:27.151Z</time></trkpt><trkpt lat="44.45343" lon="8.0507333"><ele>760.75</ele><time>2026-05-01T13:32:28.157Z</time></trkpt><trkpt lat="44.4533" lon="8.0508217"><ele>762.5</ele><time>2026-05-01T13:32:29.153Z</time></trkpt><trkpt lat="44.4531583" lon="8.0508867"><ele>764.25</ele><time>2026-05-01T13:32:30.154Z</time></trkpt><trkpt lat="44.4530133" lon="8.05094"><ele>766.0</ele><time>2026-05-01T13:32:31.154Z</time></trkpt><trkpt lat="44.4528617" lon="8.0509583"><ele>766.0</ele><time>2026-05-01T13:32:32.158Z</time></trkpt><trkpt lat="44.4526983" lon="8.0509617"><ele>766.0</ele><time>2026-05-01T13:32:33.157Z</time></trkpt><trkpt lat="44.452545" lon="8.0509717"><ele>766.0</ele><time>2026-05-01T13:32:34.152Z</time></trkpt><trkpt lat="44.4524083" lon="8.0510067"><ele>766.0</ele><time>2026-05-01T13:32:35.155Z</time></trkpt><trkpt lat="44.452275" lon="8.0510667"><ele>766.0</ele><time>2026-05-01T13:32:36.155Z</time></trkpt><trkpt lat="44.4521567" lon="8.0511583"><ele>766.0</ele><time>2026-05-01T13:32:37.153Z</time></trkpt><trkpt lat="44.4520567" lon="8.0512867"><ele>766.0</ele><time>2026-05-01T13:32:38.154Z</time></trkpt><trkpt lat="44.45197" lon="8.0514417"><ele>764.0</ele><time>2026-05-01T13:32:39.154Z</time></trkpt><trkpt lat="44.4519033" lon="8.0516183"><ele>762.0</ele><time>2026-05-01T13:32:40.157Z</time></trkpt><trkpt lat="44.4518467" lon="8.0518117"><ele>760.0</ele><time>2026-05-01T13:32:41.152Z</time></trkpt><trkpt lat="44.4517967" lon="8.052015"><ele>758.0</ele><time>2026-05-01T13:32:42.156Z</time></trkpt><trkpt lat="44.45174" lon="8.0522217"><ele>758.0</ele><time>2026-05-01T13:32:43.159Z</time></trkpt><trkpt lat="44.4516717" lon="8.0524267"><ele>758.0</ele><time>2026-05-01T13:32:44.154Z</time></trkpt><trkpt lat="44.4515883" lon="8.0526283"><ele>758.0</ele><time>2026-05-01T13:32:45.153Z</time></trkpt><trkpt lat="44.4515" lon="8.0528267"><ele>755.6666666666666</ele><time>2026-05-01T13:32:46.154Z</time></trkpt><trkpt lat="44.451405" lon="8.0530167"><ele>753.3333333333334</ele><time>2026-05-01T13:32:47.155Z</time></trkpt><trkpt lat="44.4513133" lon="8.0531967"><ele>751.0</ele><time>2026-05-01T13:32:48.152Z</time></trkpt><trkpt lat="44.4512333" lon="8.05337"><ele>751.0</ele><time>2026-05-01T13:32:49.158Z</time></trkpt><trkpt lat="44.4511783" lon="8.0535517"><ele>751.0</ele><time>2026-05-01T13:32:50.151Z</time></trkpt><trkpt lat="44.4511533" lon="8.0537367"><ele>751.0</ele><time>2026-05-01T13:32:51.162Z</time></trkpt><trkpt lat="44.4511283" lon="8.0539267"><ele>751.0</ele><time>2026-05-01T13:32:52.159Z</time></trkpt><trkpt lat="44.4511033" lon="8.0541283"><ele>752.0</ele><time>2026-05-01T13:32:53.155Z</time></trkpt><trkpt lat="44.4510633" lon="8.0543317"><ele>753.0</ele><time>2026-05-01T13:32:54.156Z</time></trkpt><trkpt lat="44.4510117" lon="8.05454"><ele>754.0</ele><time>2026-05-01T13:32:55.158Z</time></trkpt><trkpt lat="44.4509483" lon="8.0547517"><ele>755.3333333333334</ele><time>2026-05-01T13:32:56.155Z</time></trkpt><trkpt lat="44.4508683" lon="8.0549583"><ele>756.6666666666666</ele><time>2026-05-01T13:32:57.153Z</time></trkpt><trkpt lat="44.45077" lon="8.0551567"><ele>758.0</ele><time>2026-05-01T13:32:58.156Z</time></trkpt><trkpt lat="44.450655" lon="8.0553433"><ele>758.0</ele><time>2026-05-01T13:32:59.156Z</time></trkpt><trkpt lat="44.450525" lon="8.0555133"><ele>758.0</ele><time>2026-05-01T13:33:00.155Z</time></trkpt><trkpt lat="44.4503867" lon="8.05567"><ele>758.0</ele><time>2026-05-01T13:33:01.158Z</time></trkpt><trkpt lat="44.4502417" lon="8.0558017"><ele>758.6666666666666</ele><time>2026-05-01T13:33:02.153Z</time></trkpt><trkpt lat="44.4500833" lon="8.0559083"><ele>759.3333333333334</ele><time>2026-05-01T13:33:03.152Z</time></trkpt><trkpt lat="44.4499233" lon="8.0559967"><ele>760.0</ele><time>2026-05-01T13:33:04.157Z</time></trkpt><trkpt lat="44.44976" lon="8.0560867"><ele>759.0</ele><time>2026-05-01T13:33:05.152Z</time></trkpt><trkpt lat="44.4495967" lon="8.0561783"><ele>758.0</ele><time>2026-05-01T13:33:06.155Z</time></trkpt><trkpt lat="44.4494367" lon="8.0562633"><ele>757.0</ele><time>2026-05-01T13:33:07.155Z</time></trkpt><trkpt lat="44.4492717" lon="8.0563333"><ele>757.0</ele><time>2026-05-01T13:33:08.153Z</time></trkpt><trkpt lat="44.449105" lon="8.0563883"><ele>757.0</ele><time>2026-05-01T13:33:09.155Z</time></trkpt><trkpt lat="44.44894" lon="8.0564483"><ele>757.0</ele><time>2026-05-01T13:33:10.154Z</time></trkpt><trkpt lat="44.4487783" lon="8.0565267"><ele>755.3333333333334</ele><time>2026-05-01T13:33:11.157Z</time></trkpt><trkpt lat="44.4486217" lon="8.0566083"><ele>753.6666666666666</ele><time>2026-05-01T13:33:12.157Z</time></trkpt><trkpt lat="44.4484767" lon="8.0567133"><ele>752.0</ele><time>2026-05-01T13:33:13.151Z</time></trkpt><trkpt lat="44.44834" lon="8.0568317"><ele>757.3333333333333</ele><time>2026-05-01T13:33:14.154Z</time></trkpt><trkpt lat="44.4482183" lon="8.0569683"><ele>762.6666666666666</ele><time>2026-05-01T13:33:15.155Z</time></trkpt><trkpt lat="44.4480983" lon="8.0571167"><ele>768.0</ele><time>2026-05-01T13:33:16.154Z</time></trkpt><trkpt lat="44.4479783" lon="8.0572683"><ele>766.3333333333334</ele><time>2026-05-01T13:33:17.153Z</time></trkpt><trkpt lat="44.4478633" lon="8.057425"><ele>764.6666666666667</ele><time>2026-05-01T13:33:18.15Z</time></trkpt><trkpt lat="44.44775" lon="8.057575"><ele>763.0</ele><time>2026-05-01T13:33:19.155Z</time></trkpt><trkpt lat="44.4476317" lon="8.0577167"><ele>768.0</ele><time>2026-05-01T13:33:20.153Z</time></trkpt><trkpt lat="44.4475117" lon="8.057845"><ele>773.0</ele><time>2026-05-01T13:33:21.154Z</time></trkpt><trkpt lat="44.44739" lon="8.0579733"><ele>778.0</ele><time>2026-05-01T13:33:22.156Z</time></trkpt><trkpt lat="44.4472667" lon="8.058095"><ele>778.0</ele><time>2026-05-01T13:33:23.158Z</time></trkpt><trkpt lat="44.447145" lon="8.05821"><ele>778.0</ele><time>2026-05-01T13:33:24.152Z</time></trkpt><trkpt lat="44.4470283" lon="8.0583283"><ele>778.0</ele><time>2026-05-01T13:33:25.153Z</time></trkpt><trkpt lat="44.44692" lon="8.058455"><ele>778.0</ele><time>2026-05-01T13:33:26.153Z</time></trkpt><trkpt lat="44.4468317" lon="8.0586017"><ele>781.0</ele><time>2026-05-01T13:33:27.15Z</time></trkpt><trkpt lat="44.44677" lon="8.05877"><ele>784.0</ele><time>2026-05-01T13:33:28.154Z</time></trkpt><trkpt lat="44.446735" lon="8.0589483"><ele>787.0</ele><time>2026-05-01T13:33:29.154Z</time></trkpt><trkpt lat="44.44672" lon="8.0591383"><ele>790.0</ele><time>2026-05-01T13:33:30.157Z</time></trkpt><trkpt lat="44.4467267" lon="8.0593333"><ele>790.5</ele><time>2026-05-01T13:33:31.158Z</time></trkpt><trkpt lat="44.4467417" lon="8.0595333"><ele>791.0</ele><time>2026-05-01T13:33:32.155Z</time></trkpt><trkpt lat="44.4467617" lon="8.0597417"><ele>791.5</ele><time>2026-05-01T13:33:33.155Z</time></trkpt><trkpt lat="44.4467817" lon="8.0599533"><ele>792.0</ele><time>2026-05-01T13:33:34.155Z</time></trkpt><trkpt lat="44.4468083" lon="8.0601683"><ele>790.3333333333333</ele><time>2026-05-01T13:33:35.156Z</time></trkpt><trkpt lat="44.4468467" lon="8.06038"><ele>788.6666666666666</ele><time>2026-05-01T13:33:36.153Z</time></trkpt><trkpt lat="44.4469067" lon="8.0605917"><ele>787.0</ele><time>2026-05-01T13:33:37.154Z</time></trkpt><trkpt lat="44.4469833" lon="8.060785"><ele>788.75</ele><time>2026-05-01T13:33:38.153Z</time></trkpt><trkpt lat="44.44707" lon="8.0609567"><ele>790.5</ele><time>2026-05-01T13:33:39.153Z</time></trkpt><trkpt lat="44.4471483" lon="8.0611217"><ele>792.25</ele><time>2026-05-01T13:33:40.154Z</time></trkpt><trkpt lat="44.4472033" lon="8.0612967"><ele>794.0</ele><time>2026-05-01T13:33:41.156Z</time></trkpt><trkpt lat="44.44723" lon="8.061475"><ele>791.75</ele><time>2026-05-01T13:33:42.165Z</time></trkpt><trkpt lat="44.4472367" lon="8.06166"><ele>789.5</ele><time>2026-05-01T13:33:43.156Z</time></trkpt><trkpt lat="44.4472267" lon="8.0618633"><ele>787.25</ele><time>2026-05-01T13:33:44.152Z</time></trkpt><trkpt lat="44.447205" lon="8.0620767"><ele>785.0</ele><time>2026-05-01T13:33:45.158Z</time></trkpt><trkpt lat="44.4471917" lon="8.062295"><ele>784.3333333333334</ele><time>2026-05-01T13:33:46.16Z</time></trkpt><trkpt lat="44.4471767" lon="8.062525"><ele>783.6666666666667</ele><time>2026-05-01T13:33:47.159Z</time></trkpt><trkpt lat="44.44716" lon="8.0627633"><ele>783.0</ele><time>2026-05-01T13:33:48.155Z</time></trkpt><trkpt lat="44.447145" lon="8.0630083"><ele>777.6666666666666</ele><time>2026-05-01T13:33:49.156Z</time></trkpt><trkpt lat="44.4471267" lon="8.0632583"><ele>772.3333333333333</ele><time>2026-05-01T13:33:50.153Z</time></trkpt><trkpt lat="44.44711" lon="8.063505"><ele>767.0</ele><time>2026-05-01T13:33:51.156Z</time></trkpt><trkpt lat="44.4470933" lon="8.0637517"><ele>767.0</ele><time>2026-05-01T13:33:52.153Z</time></trkpt><trkpt lat="44.4470767" lon="8.0639917"><ele>767.0</ele><time>2026-05-01T13:33:53.154Z</time></trkpt><trkpt lat="44.4470583" lon="8.0642167"><ele>767.0</ele><time>2026-05-01T13:33:54.156Z</time></trkpt><trkpt lat="44.4470233" lon="8.0644233"><ele>768.25</ele><time>2026-05-01T13:33:55.156Z</time></trkpt><trkpt lat="44.4469567" lon="8.0646067"><ele>769.5</ele><time>2026-05-01T13:33:56.155Z</time></trkpt><trkpt lat="44.4468783" lon="8.0647783"><ele>770.75</ele><time>2026-05-01T13:33:57.152Z</time></trkpt><trkpt lat="44.4468033" lon="8.06495"><ele>772.0</ele><time>2026-05-01T13:33:58.152Z</time></trkpt><trkpt lat="44.4467367" lon="8.0651333"><ele>773.75</ele><time>2026-05-01T13:33:59.156Z</time></trkpt><trkpt lat="44.4466833" lon="8.065325"><ele>775.5</ele><time>2026-05-01T13:34:00.149Z</time></trkpt><trkpt lat="44.446645" lon="8.0655267"><ele>777.25</ele><time>2026-05-01T13:34:01.152Z</time></trkpt><trkpt lat="44.446625" lon="8.0657317"><ele>779.0</ele><time>2026-05-01T13:34:02.154Z</time></trkpt><trkpt lat="44.4466117" lon="8.0659433"><ele>778.3333333333334</ele><time>2026-05-01T13:34:03.153Z</time></trkpt><trkpt lat="44.4466083" lon="8.066165"><ele>777.6666666666667</ele><time>2026-05-01T13:34:04.158Z</time></trkpt><trkpt lat="44.44661" lon="8.0663933"><ele>777.0</ele><time>2026-05-01T13:34:05.153Z</time></trkpt><trkpt lat="44.4466133" lon="8.066625"><ele>777.0</ele><time>2026-05-01T13:34:06.157Z</time></trkpt><trkpt lat="44.446615" lon="8.06686"><ele>777.0</ele><time>2026-05-01T13:34:07.153Z</time></trkpt><trkpt lat="44.44661" lon="8.0670833"><ele>777.0</ele><time>2026-05-01T13:34:08.154Z</time></trkpt><trkpt lat="44.4465833" lon="8.0673033"><ele>778.3333333333333</ele><time>2026-05-01T13:34:09.156Z</time></trkpt><trkpt lat="44.4465383" lon="8.0675167"><ele>779.6666666666666</ele><time>2026-05-01T13:34:10.154Z</time></trkpt><trkpt lat="44.4464717" lon="8.0677183"><ele>781.0</ele><time>2026-05-01T13:34:11.15Z</time></trkpt><trkpt lat="44.4463917" lon="8.0679133"><ele>781.0</ele><time>2026-05-01T13:34:12.154Z</time></trkpt><trkpt lat="44.4463117" lon="8.0681083"><ele>781.0</ele><time>2026-05-01T13:34:13.154Z</time></trkpt><trkpt lat="44.446245" lon="8.0683083"><ele>781.0</ele><time>2026-05-01T13:34:14.151Z</time></trkpt><trkpt lat="44.4462" lon="8.0685183"><ele>777.6666666666666</ele><time>2026-05-01T13:34:15.154Z</time></trkpt><trkpt lat="44.44618" lon="8.0687367"><ele>774.3333333333333</ele><time>2026-05-01T13:34:16.157Z</time></trkpt><trkpt lat="44.44618" lon="8.06896"><ele>771.0</ele><time>2026-05-01T13:34:17.156Z</time></trkpt><trkpt lat="44.4462" lon="8.0692"><ele>771.0</ele><time>2026-05-01T13:34:18.156Z</time></trkpt><trkpt lat="44.4462267" lon="8.0694433"><ele>771.0</ele><time>2026-05-01T13:34:19.159Z</time></trkpt><trkpt lat="44.44626" lon="8.0696967"><ele>771.0</ele><time>2026-05-01T13:34:20.159Z</time></trkpt><trkpt lat="44.446295" lon="8.06995"><ele>774.6666666666667</ele><time>2026-05-01T13:34:21.154Z</time></trkpt><trkpt lat="44.44633" lon="8.0702033"><ele>778.3333333333334</ele><time>2026-05-01T13:34:22.153Z</time></trkpt><trkpt lat="44.446365" lon="8.070455"><ele>782.0</ele><time>2026-05-01T13:34:23.156Z</time></trkpt><trkpt lat="44.4464033" lon="8.0707117"><ele>782.0</ele><time>2026-05-01T13:34:24.153Z</time></trkpt><trkpt lat="44.44644" lon="8.0709667"><ele>782.0</ele><time>2026-05-01T13:34:25.152Z</time></trkpt><trkpt lat="44.4464783" lon="8.0712233"><ele>782.0</ele><time>2026-05-01T13:34:26.154Z</time></trkpt><trkpt lat="44.446525" lon="8.071475"><ele>780.6666666666667</ele><time>2026-05-01T13:34:27.152Z</time></trkpt><trkpt lat="44.446575" lon="8.0717267"><ele>779.3333333333333</ele><time>2026-05-01T13:34:28.156Z</time></trkpt><trkpt lat="44.4466283" lon="8.0719733"><ele>778.0</ele><time>2026-05-01T13:34:29.157Z</time></trkpt><trkpt lat="44.446685" lon="8.0722167"><ele>777.0</ele><time>2026-05-01T13:34:30.155Z</time></trkpt><trkpt lat="44.4467417" lon="8.072465"><ele>776.0</ele><time>2026-05-01T13:34:31.153Z</time></trkpt><trkpt lat="44.446795" lon="8.0727017"><ele>775.0</ele><time>2026-05-01T13:34:32.156Z</time></trkpt><trkpt lat="44.446845" lon="8.0729383"><ele>775.0</ele><time>2026-05-01T13:34:33.151Z</time></trkpt><trkpt lat="44.44689" lon="8.0731817"><ele>775.0</ele><time>2026-05-01T13:34:34.156Z</time></trkpt><trkpt lat="44.4469267" lon="8.0734283"><ele>775.0</ele><time>2026-05-01T13:34:35.154Z</time></trkpt><trkpt lat="44.4469583" lon="8.0736717"><ele>772.6666666666666</ele><time>2026-05-01T13:34:36.159Z</time></trkpt><trkpt lat="44.44699" lon="8.0739133"><ele>770.3333333333333</ele><time>2026-05-01T13:34:37.151Z</time></trkpt><trkpt lat="44.4470217" lon="8.0741567"><ele>768.0</ele><time>2026-05-01T13:34:38.153Z</time></trkpt><trkpt lat="44.4470517" lon="8.074395"><ele>767.3333333333334</ele><time>2026-05-01T13:34:39.152Z</time></trkpt><trkpt lat="44.4470733" lon="8.0746183"><ele>766.6666666666667</ele><time>2026-05-01T13:34:40.153Z</time></trkpt><trkpt lat="44.4470783" lon="8.074835"><ele>766.0</ele><time>2026-05-01T13:34:41.154Z</time></trkpt><trkpt lat="44.4470567" lon="8.0750383"><ele>766.0</ele><time>2026-05-01T13:34:42.156Z</time></trkpt><trkpt lat="44.4470117" lon="8.0752267"><ele>766.0</ele><time>2026-05-01T13:34:43.155Z</time></trkpt><trkpt lat="44.4469367" lon="8.0754017"><ele>766.0</ele><time>2026-05-01T13:34:44.156Z</time></trkpt><trkpt lat="44.4468517" lon="8.075575"><ele>766.0</ele><time>2026-05-01T13:34:45.154Z</time></trkpt><trkpt lat="44.44677" lon="8.07575"><ele>768.25</ele><time>2026-05-01T13:34:46.155Z</time></trkpt><trkpt lat="44.4466917" lon="8.075925"><ele>770.5</ele><time>2026-05-01T13:34:47.162Z</time></trkpt><trkpt lat="44.4466217" lon="8.076105"><ele>772.75</ele><time>2026-05-01T13:34:48.153Z</time></trkpt><trkpt lat="44.446575" lon="8.0762967"><ele>775.0</ele><time>2026-05-01T13:34:49.152Z</time></trkpt><trkpt lat="44.4465483" lon="8.0765033"><ele>777.6666666666666</ele><time>2026-05-01T13:34:50.152Z</time></trkpt><trkpt lat="44.4465233" lon="8.0767183"><ele>780.3333333333333</ele><time>2026-05-01T13:34:51.151Z</time></trkpt><trkpt lat="44.4464917" lon="8.076935"><ele>783.0</ele><time>2026-05-01T13:34:52.151Z</time></trkpt><trkpt lat="44.4464567" lon="8.07715"><ele>783.0</ele><time>2026-05-01T13:34:53.152Z</time></trkpt><trkpt lat="44.4464233" lon="8.07737"><ele>783.0</ele><time>2026-05-01T13:34:54.152Z</time></trkpt><trkpt lat="44.4464017" lon="8.0775983"><ele>783.0</ele><time>2026-05-01T13:34:55.158Z</time></trkpt><trkpt lat="44.4463867" lon="8.077835"><ele>786.0</ele><time>2026-05-01T13:34:56.153Z</time></trkpt><trkpt lat="44.44637" lon="8.0780733"><ele>789.0</ele><time>2026-05-01T13:34:57.156Z</time></trkpt><trkpt lat="44.446355" lon="8.0783117"><ele>792.0</ele><time>2026-05-01T13:34:58.151Z</time></trkpt><trkpt lat="44.4463383" lon="8.078545"><ele>792.3333333333333</ele><time>2026-05-01T13:34:59.155Z</time></trkpt><trkpt lat="44.44631" lon="8.078765"><ele>792.6666666666666</ele><time>2026-05-01T13:35:00.154Z</time></trkpt><trkpt lat="44.446265" lon="8.0789717"><ele>793.0</ele><time>2026-05-01T13:35:01.152Z</time></trkpt><trkpt lat="44.446205" lon="8.0791717"><ele>784.6666666666666</ele><time>2026-05-01T13:35:02.156Z</time></trkpt><trkpt lat="44.4461367" lon="8.07937"><ele>776.3333333333333</ele><time>2026-05-01T13:35:03.152Z</time></trkpt><trkpt lat="44.4460633" lon="8.0795717"><ele>768.0</ele><time>2026-05-01T13:35:04.155Z</time></trkpt><trkpt lat="44.4459833" lon="8.079775"><ele>771.3333333333333</ele><time>2026-05-01T13:35:05.152Z</time></trkpt><trkpt lat="44.445895" lon="8.07998"><ele>774.6666666666666</ele><time>2026-05-01T13:35:06.155Z</time></trkpt><trkpt lat="44.4458033" lon="8.080185"><ele>778.0</ele><time>2026-05-01T13:35:07.158Z</time></trkpt><trkpt lat="44.4457133" lon="8.0803933"><ele>778.0</ele><time>2026-05-01T13:35:08.152Z</time></trkpt><trkpt lat="44.445625" lon="8.0806083"><ele>778.0</ele><time>2026-05-01T13:35:09.153Z</time></trkpt><trkpt lat="44.4455333" lon="8.0808233"><ele>778.0</ele><time>2026-05-01T13:35:10.153Z</time></trkpt><trkpt lat="44.4454367" lon="8.0810433"><ele>775.0</ele><time>2026-05-01T13:35:11.154Z</time></trkpt><trkpt lat="44.4453467" lon="8.0812567"><ele>772.0</ele><time>2026-05-01T13:35:12.154Z</time></trkpt><trkpt lat="44.4452683" lon="8.0814583"><ele>769.0</ele><time>2026-05-01T13:35:13.154Z</time></trkpt><trkpt lat="44.4452067" lon="8.0816633"><ele>769.0</ele><time>2026-05-01T13:35:14.153Z</time></trkpt><trkpt lat="44.4451567" lon="8.0818817"><ele>769.0</ele><time>2026-05-01T13:35:15.152Z</time></trkpt><trkpt lat="44.44512" lon="8.0821133"><ele>769.0</ele><time>2026-05-01T13:35:16.156Z</time></trkpt><trkpt lat="44.4450983" lon="8.0823583"><ele>770.6666666666666</ele><time>2026-05-01T13:35:17.16Z</time></trkpt><trkpt lat="44.4450767" lon="8.0826117"><ele>772.3333333333333</ele><time>2026-05-01T13:35:18.152Z</time></trkpt><trkpt lat="44.445055" lon="8.0828633"><ele>774.0</ele><time>2026-05-01T13:35:19.156Z</time></trkpt><trkpt lat="44.445035" lon="8.08311"><ele>775.0</ele><time>2026-05-01T13:35:20.15Z</time></trkpt><trkpt lat="44.4450167" lon="8.0833417"><ele>776.0</ele><time>2026-05-01T13:35:21.157Z</time></trkpt><trkpt lat="44.4449933" lon="8.08355"><ele>777.0</ele><time>2026-05-01T13:35:22.152Z</time></trkpt><trkpt lat="44.444975" lon="8.083735"><ele>777.0</ele><time>2026-05-01T13:35:23.154Z</time></trkpt><trkpt lat="44.44495" lon="8.0839033"><ele>777.0</ele><time>2026-05-01T13:35:24.151Z</time></trkpt><trkpt lat="44.4449017" lon="8.0840617"><ele>777.0</ele><time>2026-05-01T13:35:25.158Z</time></trkpt><trkpt lat="44.4448217" lon="8.0842017"><ele>777.0</ele><time>2026-05-01T13:35:26.156Z</time></trkpt><trkpt lat="44.444715" lon="8.0843267"><ele>771.6666666666666</ele><time>2026-05-01T13:35:27.155Z</time></trkpt><trkpt lat="44.4445933" lon="8.0844483"><ele>766.3333333333333</ele><time>2026-05-01T13:35:28.151Z</time></trkpt><trkpt lat="44.4444667" lon="8.084585"><ele>761.0</ele><time>2026-05-01T13:35:29.153Z</time></trkpt><trkpt lat="44.4443417" lon="8.08474"><ele>761.0</ele><time>2026-05-01T13:35:30.153Z</time></trkpt><trkpt lat="44.4442233" lon="8.0849"><ele>761.0</ele><time>2026-05-01T13:35:31.158Z</time></trkpt><trkpt lat="44.4441133" lon="8.08505"><ele>761.0</ele><time>2026-05-01T13:35:32.151Z</time></trkpt><trkpt lat="44.4440133" lon="8.08518"><ele>760.75</ele><time>2026-05-01T13:35:33.152Z</time></trkpt><trkpt lat="44.44391" lon="8.08528"><ele>760.5</ele><time>2026-05-01T13:35:34.152Z</time></trkpt><trkpt lat="44.4437967" lon="8.0853417"><ele>760.25</ele><time>2026-05-01T13:35:35.153Z</time></trkpt><trkpt lat="44.4436717" lon="8.08538"><ele>760.0</ele><time>2026-05-01T13:35:36.153Z</time></trkpt><trkpt lat="44.443535" lon="8.0854017"><ele>760.0</ele><time>2026-05-01T13:35:37.152Z</time></trkpt><trkpt lat="44.4433883" lon="8.085415"><ele>760.0</ele><time>2026-05-01T13:35:38.157Z</time></trkpt><trkpt lat="44.443235" lon="8.085425"><ele>760.0</ele><time>2026-05-01T13:35:39.152Z</time></trkpt><trkpt lat="44.443075" lon="8.0854417"><ele>757.3333333333334</ele><time>2026-05-01T13:35:40.154Z</time></trkpt><trkpt lat="44.4429133" lon="8.0854767"><ele>754.6666666666666</ele><time>2026-05-01T13:35:41.153Z</time></trkpt><trkpt lat="44.4427433" lon="8.0855383"><ele>752.0</ele><time>2026-05-01T13:35:42.152Z</time></trkpt><trkpt lat="44.4425717" lon="8.0856183"><ele>752.0</ele><time>2026-05-01T13:35:43.158Z</time></trkpt><trkpt lat="44.4423967" lon="8.0856983"><ele>752.0</ele><time>2026-05-01T13:35:44.152Z</time></trkpt><trkpt lat="44.44223" lon="8.0857717"><ele>752.0</ele><time>2026-05-01T13:35:45.155Z</time></trkpt><trkpt lat="44.4420817" lon="8.08584"><ele>753.25</ele><time>2026-05-01T13:35:46.157Z</time></trkpt><trkpt lat="44.4419483" lon="8.0859133"><ele>754.5</ele><time>2026-05-01T13:35:47.158Z</time></trkpt><trkpt lat="44.4418317" lon="8.0860017"><ele>755.75</ele><time>2026-05-01T13:35:48.153Z</time></trkpt><trkpt lat="44.4417317" lon="8.08613"><ele>757.0</ele><time>2026-05-01T13:35:49.155Z</time></trkpt><trkpt lat="44.441655" lon="8.0863033"><ele>757.0</ele><time>2026-05-01T13:35:50.154Z</time></trkpt><trkpt lat="44.4415833" lon="8.0865"><ele>757.0</ele><time>2026-05-01T13:35:51.153Z</time></trkpt><trkpt lat="44.4415117" lon="8.0867067"><ele>757.0</ele><time>2026-05-01T13:35:52.156Z</time></trkpt><trkpt lat="44.4414383" lon="8.0869183"><ele>760.3333333333334</ele><time>2026-05-01T13:35:53.152Z</time></trkpt><trkpt lat="44.441365" lon="8.0871367"><ele>763.6666666666666</ele><time>2026-05-01T13:35:54.154Z</time></trkpt><trkpt lat="44.4412917" lon="8.0873567"><ele>767.0</ele><time>2026-05-01T13:35:55.154Z</time></trkpt><trkpt lat="44.4412133" lon="8.08757"><ele>760.0</ele><time>2026-05-01T13:35:56.152Z</time></trkpt><trkpt lat="44.4411367" lon="8.0877783"><ele>753.0</ele><time>2026-05-01T13:35:57.156Z</time></trkpt><trkpt lat="44.4410667" lon="8.0879917"><ele>746.0</ele><time>2026-05-01T13:35:58.154Z</time></trkpt><trkpt lat="44.4410083" lon="8.08822"><ele>748.0</ele><time>2026-05-01T13:35:59.152Z</time></trkpt><trkpt lat="44.4409417" lon="8.0884567"><ele>750.0</ele><time>2026-05-01T13:36:00.151Z</time></trkpt><trkpt lat="44.4408733" lon="8.0886967"><ele>752.0</ele><time>2026-05-01T13:36:01.157Z</time></trkpt><trkpt lat="44.4408033" lon="8.088935"><ele>753.3333333333333</ele><time>2026-05-01T13:36:02.153Z</time></trkpt><trkpt lat="44.4407333" lon="8.0891733"><ele>754.6666666666666</ele><time>2026-05-01T13:36:03.154Z</time></trkpt><trkpt lat="44.44066" lon="8.0894017"><ele>756.0</ele><time>2026-05-01T13:36:04.153Z</time></trkpt><trkpt lat="44.4405883" lon="8.089625"><ele>756.0</ele><time>2026-05-01T13:36:05.158Z</time></trkpt><trkpt lat="44.440515" lon="8.0898367"><ele>756.0</ele><time>2026-05-01T13:36:06.156Z</time></trkpt><trkpt lat="44.4404283" lon="8.09003"><ele>756.0</ele><time>2026-05-01T13:36:07.158Z</time></trkpt><trkpt lat="44.4403367" lon="8.0902083"><ele>755.25</ele><time>2026-05-01T13:36:08.156Z</time></trkpt><trkpt lat="44.4402383" lon="8.0903667"><ele>754.5</ele><time>2026-05-01T13:36:09.154Z</time></trkpt><trkpt lat="44.4401467" lon="8.09052"><ele>753.75</ele><time>2026-05-01T13:36:10.155Z</time></trkpt><trkpt lat="44.44007" lon="8.090675"><ele>753.0</ele><time>2026-05-01T13:36:11.154Z</time></trkpt><trkpt lat="44.4400217" lon="8.0908383"><ele>753.0</ele><time>2026-05-01T13:36:12.152Z</time></trkpt><trkpt lat="44.4399917" lon="8.091"><ele>753.0</ele><time>2026-05-01T13:36:13.153Z</time></trkpt><trkpt lat="44.4399733" lon="8.0911583"><ele>753.0</ele><time>2026-05-01T13:36:14.155Z</time></trkpt><trkpt lat="44.43996" lon="8.091315"><ele>753.0</ele><time>2026-05-01T13:36:15.153Z</time></trkpt><trkpt lat="44.4399533" lon="8.0914733"><ele>752.0</ele><time>2026-05-01T13:36:16.157Z</time></trkpt><trkpt lat="44.4399467" lon="8.091625"><ele>751.0</ele><time>2026-05-01T13:36:17.155Z</time></trkpt><trkpt lat="44.43994" lon="8.0917717"><ele>750.0</ele><time>2026-05-01T13:36:18.154Z</time></trkpt><trkpt lat="44.43994" lon="8.0919167"><ele>749.0</ele><time>2026-05-01T13:36:19.151Z</time></trkpt><trkpt lat="44.4399383" lon="8.0920667"><ele>748.0</ele><time>2026-05-01T13:36:20.156Z</time></trkpt><trkpt lat="44.439925" lon="8.092225"><ele>748.0</ele><time>2026-05-01T13:36:21.153Z</time></trkpt><trkpt lat="44.439895" lon="8.0923917"><ele>748.0</ele><time>2026-05-01T13:36:22.152Z</time></trkpt><trkpt lat="44.43984" lon="8.0925633"><ele>748.0</ele><time>2026-05-01T13:36:23.152Z</time></trkpt><trkpt lat="44.439765" lon="8.0927367"><ele>748.0</ele><time>2026-05-01T13:36:24.154Z</time></trkpt><trkpt lat="44.43967" lon="8.0929167"><ele>744.3333333333334</ele><time>2026-05-01T13:36:25.156Z</time></trkpt><trkpt lat="44.4395683" lon="8.0931"><ele>740.6666666666666</ele><time>2026-05-01T13:36:26.154Z</time></trkpt><trkpt lat="44.4394617" lon="8.0932783"><ele>737.0</ele><time>2026-05-01T13:36:27.152Z</time></trkpt><trkpt lat="44.4393383" lon="8.09344"><ele>737.0</ele><time>2026-05-01T13:36:28.154Z</time></trkpt><trkpt lat="44.43921" lon="8.0935967"><ele>737.0</ele><time>2026-05-01T13:36:29.154Z</time></trkpt><trkpt lat="44.439075" lon="8.0937433"><ele>737.0</ele><time>2026-05-01T13:36:30.152Z</time></trkpt><trkpt lat="44.438945" lon="8.0938867"><ele>737.0</ele><time>2026-05-01T13:36:31.152Z</time></trkpt><trkpt lat="44.4388167" lon="8.0940267"><ele>737.0</ele><time>2026-05-01T13:36:32.153Z</time></trkpt><trkpt lat="44.4386967" lon="8.0941617"><ele>737.0</ele><time>2026-05-01T13:36:33.156Z</time></trkpt><trkpt lat="44.4385867" lon="8.0942967"><ele>737.25</ele><time>2026-05-01T13:36:34.152Z</time></trkpt><trkpt lat="44.438465" lon="8.0944117"><ele>737.5</ele><time>2026-05-01T13:36:35.155Z</time></trkpt><trkpt lat="44.4383367" lon="8.09451"><ele>737.75</ele><time>2026-05-01T13:36:36.159Z</time></trkpt><trkpt lat="44.4381983" lon="8.0945883"><ele>738.0</ele><time>2026-05-01T13:36:37.155Z</time></trkpt><trkpt lat="44.43805" lon="8.09463"><ele>736.25</ele><time>2026-05-01T13:36:38.157Z</time></trkpt><trkpt lat="44.43791" lon="8.0946433"><ele>734.5</ele><time>2026-05-01T13:36:39.153Z</time></trkpt><trkpt lat="44.4377867" lon="8.0946367"><ele>732.75</ele><time>2026-05-01T13:36:40.158Z</time></trkpt><trkpt lat="44.4376817" lon="8.0946283"><ele>731.0</ele><time>2026-05-01T13:36:41.154Z</time></trkpt><trkpt lat="44.4375917" lon="8.0946217"><ele>731.0</ele><time>2026-05-01T13:36:42.159Z</time></trkpt><trkpt lat="44.4375067" lon="8.0946217"><ele>731.0</ele><time>2026-05-01T13:36:43.157Z</time></trkpt><trkpt lat="44.4374317" lon="8.094635"><ele>731.0</ele><time>2026-05-01T13:36:44.153Z</time></trkpt><trkpt lat="44.437365" lon="8.094665"><ele>731.0</ele><time>2026-05-01T13:36:45.152Z</time></trkpt><trkpt lat="44.437295" lon="8.0947717"><ele>731.0</ele><time>2026-05-01T13:36:47.156Z</time></trkpt><trkpt lat="44.4373317" lon="8.094925"><ele>732.1999999999999</ele><time>2026-05-01T13:36:49.157Z</time></trkpt><trkpt lat="44.43738" lon="8.0950083"><ele>733.4</ele><time>2026-05-01T13:36:50.155Z</time></trkpt><trkpt lat="44.4374833" lon="8.0950633"><ele>734.6</ele><time>2026-05-01T13:36:51.152Z</time></trkpt><trkpt lat="44.4376" lon="8.09513"><ele>735.8</ele><time>2026-05-01T13:36:52.156Z</time></trkpt><trkpt lat="44.4377183" lon="8.095205"><ele>737.0</ele><time>2026-05-01T13:36:53.154Z</time></trkpt><trkpt lat="44.43784" lon="8.09528"><ele>737.0</ele><time>2026-05-01T13:36:54.153Z</time></trkpt><trkpt lat="44.4379633" lon="8.0953517"><ele>737.0</ele><time>2026-05-01T13:36:55.157Z</time></trkpt><trkpt lat="44.4380867" lon="8.0954183"><ele>737.0</ele><time>2026-05-01T13:36:56.155Z</time></trkpt><trkpt lat="44.4382167" lon="8.095465"><ele>737.0</ele><time>2026-05-01T13:36:57.153Z</time></trkpt><trkpt lat="44.4383467" lon="8.0954983"><ele>738.0</ele><time>2026-05-01T13:36:58.153Z</time></trkpt><trkpt lat="44.4384767" lon="8.09551"><ele>739.0</ele><time>2026-05-01T13:36:59.158Z</time></trkpt><trkpt lat="44.4386017" lon="8.0955083"><ele>740.0</ele><time>2026-05-01T13:37:00.156Z</time></trkpt><trkpt lat="44.4387283" lon="8.0955067"><ele>741.0</ele><time>2026-05-01T13:37:01.157Z</time></trkpt><trkpt lat="44.4388533" lon="8.0955133"><ele>741.5</ele><time>2026-05-01T13:37:02.153Z</time></trkpt><trkpt lat="44.438975" lon="8.0955217"><ele>742.0</ele><time>2026-05-01T13:37:03.153Z</time></trkpt><trkpt lat="44.4390917" lon="8.0955383"><ele>742.5</ele><time>2026-05-01T13:37:04.155Z</time></trkpt><trkpt lat="44.4392083" lon="8.0955683"><ele>743.0</ele><time>2026-05-01T13:37:05.155Z</time></trkpt><trkpt lat="44.4393233" lon="8.09562"><ele>743.0</ele><time>2026-05-01T13:37:06.157Z</time></trkpt><trkpt lat="44.4394367" lon="8.0956767"><ele>743.0</ele><time>2026-05-01T13:37:07.152Z</time></trkpt><trkpt lat="44.43954" lon="8.09576"><ele>743.0</ele><time>2026-05-01T13:37:08.155Z</time></trkpt><trkpt lat="44.4396433" lon="8.0958467"><ele>743.0</ele><time>2026-05-01T13:37:09.154Z</time></trkpt><trkpt lat="44.4397383" lon="8.09595"><ele>740.5</ele><time>2026-05-01T13:37:10.153Z</time></trkpt><trkpt lat="44.4398333" lon="8.09606"><ele>738.0</ele><time>2026-05-01T13:37:11.154Z</time></trkpt><trkpt lat="44.4399317" lon="8.0961867"><ele>735.5</ele><time>2026-05-01T13:37:12.153Z</time></trkpt><trkpt lat="44.4400317" lon="8.0963133"><ele>733.0</ele><time>2026-05-01T13:37:13.151Z</time></trkpt><trkpt lat="44.4401367" lon="8.0964433"><ele>733.0</ele><time>2026-05-01T13:37:14.154Z</time></trkpt><trkpt lat="44.4402433" lon="8.09657"><ele>733.0</ele><time>2026-05-01T13:37:15.152Z</time></trkpt><trkpt lat="44.440345" lon="8.0966933"><ele>733.0</ele><time>2026-05-01T13:37:16.154Z</time></trkpt><trkpt lat="44.440445" lon="8.0968133"><ele>733.0</ele><time>2026-05-01T13:37:17.155Z</time></trkpt><trkpt lat="44.440545" lon="8.0969283"><ele>731.25</ele><time>2026-05-01T13:37:18.153Z</time></trkpt><trkpt lat="44.44065" lon="8.0970083"><ele>729.5</ele><time>2026-05-01T13:37:19.154Z</time></trkpt><trkpt lat="44.440755" lon="8.0970517"><ele>727.75</ele><time>2026-05-01T13:37:20.152Z</time></trkpt><trkpt lat="44.440875" lon="8.0970417"><ele>726.0</ele><time>2026-05-01T13:37:21.152Z</time></trkpt><trkpt lat="44.4409883" lon="8.0969883"><ele>726.0</ele><time>2026-05-01T13:37:22.159Z</time></trkpt><trkpt lat="44.4410983" lon="8.0968967"><ele>726.0</ele><time>2026-05-01T13:37:23.157Z</time></trkpt><trkpt lat="44.4411967" lon="8.096775"><ele>726.0</ele><time>2026-05-01T13:37:24.155Z</time></trkpt><trkpt lat="44.4412833" lon="8.0966633"><ele>726.0</ele><time>2026-05-01T13:37:25.155Z</time></trkpt><trkpt lat="44.441355" lon="8.09658"><ele>724.0</ele><time>2026-05-01T13:37:26.154Z</time></trkpt><trkpt lat="44.4414217" lon="8.0965267"><ele>722.0</ele><time>2026-05-01T13:37:27.156Z</time></trkpt><trkpt lat="44.4415017" lon="8.09652"><ele>720.0</ele><time>2026-05-01T13:37:28.155Z</time></trkpt><trkpt lat="44.4415883" lon="8.09653"><ele>718.0</ele><time>2026-05-01T13:37:29.157Z</time></trkpt><trkpt lat="44.4416767" lon="8.0965617"><ele>716.0</ele><time>2026-05-01T13:37:30.156Z</time></trkpt><trkpt lat="44.4417733" lon="8.0966083"><ele>714.0</ele><time>2026-05-01T13:37:31.156Z</time></trkpt><trkpt lat="44.4418517" lon="8.0967267"><ele>714.0</ele><time>2026-05-01T13:37:32.154Z</time></trkpt><trkpt lat="44.441905" lon="8.0968467"><ele>714.0</ele><time>2026-05-01T13:37:33.155Z</time></trkpt><trkpt lat="44.4419367" lon="8.0969817"><ele>714.0</ele><time>2026-05-01T13:37:34.155Z</time></trkpt><trkpt lat="44.441945" lon="8.0971267"><ele>714.0</ele><time>2026-05-01T13:37:35.157Z</time></trkpt><trkpt lat="44.4419183" lon="8.097285"><ele>714.0</ele><time>2026-05-01T13:37:36.158Z</time></trkpt><trkpt lat="44.441885" lon="8.0974617"><ele>714.0</ele><time>2026-05-01T13:37:37.157Z</time></trkpt><trkpt lat="44.4418417" lon="8.0976533"><ele>714.0</ele><time>2026-05-01T13:37:38.154Z</time></trkpt><trkpt lat="44.4417833" lon="8.0978567"><ele>714.0</ele><time>2026-05-01T13:37:39.155Z</time></trkpt><trkpt lat="44.4417267" lon="8.0980533"><ele>712.0</ele><time>2026-05-01T13:37:40.153Z</time></trkpt><trkpt lat="44.4416733" lon="8.0982567"><ele>710.0</ele><time>2026-05-01T13:37:41.158Z</time></trkpt><trkpt lat="44.441615" lon="8.0984683"><ele>708.0</ele><time>2026-05-01T13:37:42.154Z</time></trkpt><trkpt lat="44.4415633" lon="8.09868"><ele>708.0</ele><time>2026-05-01T13:37:43.155Z</time></trkpt><trkpt lat="44.4415117" lon="8.0989"><ele>708.0</ele><time>2026-05-01T13:37:44.152Z</time></trkpt><trkpt lat="44.441465" lon="8.0991183"><ele>708.0</ele><time>2026-05-01T13:37:45.153Z</time></trkpt><trkpt lat="44.4414233" lon="8.0993383"><ele>705.5</ele><time>2026-05-01T13:37:46.163Z</time></trkpt><trkpt lat="44.4413833" lon="8.0995567"><ele>703.0</ele><time>2026-05-01T13:37:47.153Z</time></trkpt><trkpt lat="44.4413533" lon="8.099745"><ele>700.5</ele><time>2026-05-01T13:37:48.156Z</time></trkpt><trkpt lat="44.44133" lon="8.0998833"><ele>698.0</ele><time>2026-05-01T13:37:49.152Z</time></trkpt><trkpt lat="44.4413017" lon="8.0999867"><ele>697.0</ele><time>2026-05-01T13:37:50.156Z</time></trkpt><trkpt lat="44.4412667" lon="8.1000717"><ele>696.0</ele><time>2026-05-01T13:37:51.152Z</time></trkpt><trkpt lat="44.4412283" lon="8.100145"><ele>695.0</ele><time>2026-05-01T13:37:52.159Z</time></trkpt><trkpt lat="44.4411667" lon="8.1001967"><ele>694.0</ele><time>2026-05-01T13:37:53.153Z</time></trkpt><trkpt lat="44.441085" lon="8.1002117"><ele>693.0</ele><time>2026-05-01T13:37:54.151Z</time></trkpt><trkpt lat="44.4409933" lon="8.10019"><ele>692.0</ele><time>2026-05-01T13:37:55.154Z</time></trkpt><trkpt lat="44.4408683" lon="8.1000833"><ele>692.0</ele><time>2026-05-01T13:37:56.153Z</time></trkpt><trkpt lat="44.4407583" lon="8.10002"><ele>692.0</ele><time>2026-05-01T13:37:57.154Z</time></trkpt><trkpt lat="44.44065" lon="8.0999733"><ele>692.0</ele><time>2026-05-01T13:37:58.151Z</time></trkpt><trkpt lat="44.4405333" lon="8.0999367"><ele>692.0</ele><time>2026-05-01T13:37:59.155Z</time></trkpt><trkpt lat="44.44042" lon="8.09994"><ele>690.25</ele><time>2026-05-01T13:38:00.158Z</time></trkpt><trkpt lat="44.4402983" lon="8.0999883"><ele>688.5</ele><time>2026-05-01T13:38:01.154Z</time></trkpt><trkpt lat="44.440175" lon="8.100065"><ele>686.75</ele><time>2026-05-01T13:38:02.152Z</time></trkpt><trkpt lat="44.4400567" lon="8.1001683"><ele>685.0</ele><time>2026-05-01T13:38:03.154Z</time></trkpt><trkpt lat="44.4399533" lon="8.100305"><ele>685.0</ele><time>2026-05-01T13:38:04.155Z</time></trkpt><trkpt lat="44.4398617" lon="8.1004617"><ele>685.0</ele><time>2026-05-01T13:38:05.153Z</time></trkpt><trkpt lat="44.439795" lon="8.1006417"><ele>685.0</ele><time>2026-05-01T13:38:06.157Z</time></trkpt><trkpt lat="44.43973" lon="8.10084"><ele>685.0</ele><time>2026-05-01T13:38:07.156Z</time></trkpt><trkpt lat="44.43966" lon="8.1010417"><ele>678.3333333333334</ele><time>2026-05-01T13:38:08.156Z</time></trkpt><trkpt lat="44.439595" lon="8.1012533"><ele>671.6666666666666</ele><time>2026-05-01T13:38:09.154Z</time></trkpt><trkpt lat="44.4395267" lon="8.1014717"><ele>665.0</ele><time>2026-05-01T13:38:10.157Z</time></trkpt><trkpt lat="44.439455" lon="8.101685"><ele>664.3333333333333</ele><time>2026-05-01T13:38:11.159Z</time></trkpt><trkpt lat="44.4393817" lon="8.101895"><ele>663.6666666666666</ele><time>2026-05-01T13:38:12.152Z</time></trkpt><trkpt lat="44.4393167" lon="8.1020917"><ele>663.0</ele><time>2026-05-01T13:38:13.153Z</time></trkpt><trkpt lat="44.4392533" lon="8.10228"><ele>661.25</ele><time>2026-05-01T13:38:14.152Z</time></trkpt><trkpt lat="44.4391967" lon="8.1024617"><ele>659.5</ele><time>2026-05-01T13:38:15.157Z</time></trkpt><trkpt lat="44.43915" lon="8.102655"><ele>657.75</ele><time>2026-05-01T13:38:16.153Z</time></trkpt><trkpt lat="44.4391217" lon="8.10286"><ele>656.0</ele><time>2026-05-01T13:38:17.155Z</time></trkpt><trkpt lat="44.4391167" lon="8.1030833"><ele>653.3333333333333</ele><time>2026-05-01T13:38:18.155Z</time></trkpt><trkpt lat="44.4391283" lon="8.1033083"><ele>650.6666666666666</ele><time>2026-05-01T13:38:19.154Z</time></trkpt><trkpt lat="44.439155" lon="8.1035433"><ele>648.0</ele><time>2026-05-01T13:38:20.154Z</time></trkpt><trkpt lat="44.4391933" lon="8.1037833"><ele>648.0</ele><time>2026-05-01T13:38:21.154Z</time></trkpt><trkpt lat="44.4392383" lon="8.1040167"><ele>648.0</ele><time>2026-05-01T13:38:22.152Z</time></trkpt><trkpt lat="44.439295" lon="8.1042417"><ele>648.0</ele><time>2026-05-01T13:38:23.155Z</time></trkpt><trkpt lat="44.4393667" lon="8.1044567"><ele>646.3333333333334</ele><time>2026-05-01T13:38:24.153Z</time></trkpt><trkpt lat="44.4394483" lon="8.1046667"><ele>644.6666666666667</ele><time>2026-05-01T13:38:25.154Z</time></trkpt><trkpt lat="44.439535" lon="8.1048733"><ele>643.0</ele><time>2026-05-01T13:38:26.152Z</time></trkpt><trkpt lat="44.43963" lon="8.1050783"><ele>641.3333333333334</ele><time>2026-05-01T13:38:27.154Z</time></trkpt><trkpt lat="44.4397333" lon="8.1052733"><ele>639.6666666666666</ele><time>2026-05-01T13:38:28.159Z</time></trkpt><trkpt lat="44.4398483" lon="8.1054583"><ele>638.0</ele><time>2026-05-01T13:38:29.158Z</time></trkpt><trkpt lat="44.4399733" lon="8.1056333"><ele>636.6666666666666</ele><time>2026-05-01T13:38:30.16Z</time></trkpt><trkpt lat="44.4401067" lon="8.1057967"><ele>635.3333333333334</ele><time>2026-05-01T13:38:31.154Z</time></trkpt><trkpt lat="44.4402483" lon="8.1059417"><ele>634.0</ele><time>2026-05-01T13:38:32.154Z</time></trkpt><trkpt lat="44.4403967" lon="8.10608"><ele>633.0</ele><time>2026-05-01T13:38:33.16Z</time></trkpt><trkpt lat="44.4405467" lon="8.1062133"><ele>632.0</ele><time>2026-05-01T13:38:34.154Z</time></trkpt><trkpt lat="44.440695" lon="8.10635"><ele>631.0</ele><time>2026-05-01T13:38:35.157Z</time></trkpt><trkpt lat="44.4408367" lon="8.1064817"><ele>629.75</ele><time>2026-05-01T13:38:36.152Z</time></trkpt><trkpt lat="44.44097" lon="8.1066033"><ele>628.5</ele><time>2026-05-01T13:38:37.163Z</time></trkpt><trkpt lat="44.441085" lon="8.106715"><ele>627.25</ele><time>2026-05-01T13:38:38.154Z</time></trkpt><trkpt lat="44.4411967" lon="8.106805"><ele>626.0</ele><time>2026-05-01T13:38:39.153Z</time></trkpt><trkpt lat="44.4413167" lon="8.1068717"><ele>625.25</ele><time>2026-05-01T13:38:40.155Z</time></trkpt><trkpt lat="44.4414467" lon="8.1068967"><ele>624.5</ele><time>2026-05-01T13:38:41.151Z</time></trkpt><trkpt lat="44.44158" lon="8.1068733"><ele>623.75</ele><time>2026-05-01T13:38:42.154Z</time></trkpt><trkpt lat="44.4417017" lon="8.1067867"><ele>623.0</ele><time>2026-05-01T13:38:43.15Z</time></trkpt><trkpt lat="44.4418167" lon="8.1066733"><ele>623.0</ele><time>2026-05-01T13:38:44.15Z</time></trkpt><trkpt lat="44.4419217" lon="8.1065317"><ele>623.0</ele><time>2026-05-01T13:38:45.152Z</time></trkpt><trkpt lat="44.442025" lon="8.106405"><ele>623.0</ele><time>2026-05-01T13:38:46.151Z</time></trkpt><trkpt lat="44.44213" lon="8.106315"><ele>623.0</ele><time>2026-05-01T13:38:47.158Z</time></trkpt><trkpt lat="44.4422383" lon="8.1062733"><ele>621.6</ele><time>2026-05-01T13:38:48.157Z</time></trkpt><trkpt lat="44.4423483" lon="8.1062783"><ele>620.1999999999999</ele><time>2026-05-01T13:38:49.162Z</time></trkpt><trkpt lat="44.4424433" lon="8.10633"><ele>618.8</ele><time>2026-05-01T13:38:50.156Z</time></trkpt><trkpt lat="44.442525" lon="8.1064217"><ele>617.4</ele><time>2026-05-01T13:38:51.156Z</time></trkpt><trkpt lat="44.4425767" lon="8.1065533"><ele>616.0</ele><time>2026-05-01T13:38:52.153Z</time></trkpt><trkpt lat="44.4426017" lon="8.1067017"><ele>615.75</ele><time>2026-05-01T13:38:53.154Z</time></trkpt><trkpt lat="44.4426" lon="8.10688"><ele>615.5</ele><time>2026-05-01T13:38:54.156Z</time></trkpt><trkpt lat="44.44259" lon="8.1070783"><ele>615.25</ele><time>2026-05-01T13:38:55.158Z</time></trkpt><trkpt lat="44.4425733" lon="8.1072933"><ele>615.0</ele><time>2026-05-01T13:38:56.154Z</time></trkpt><trkpt lat="44.4425583" lon="8.1075233"><ele>614.0</ele><time>2026-05-01T13:38:57.153Z</time></trkpt><trkpt lat="44.4425417" lon="8.107765"><ele>613.0</ele><time>2026-05-01T13:38:58.156Z</time></trkpt><trkpt lat="44.44252" lon="8.1080133"><ele>612.0</ele><time>2026-05-01T13:38:59.152Z</time></trkpt><trkpt lat="44.4424967" lon="8.1082667"><ele>611.3333333333334</ele><time>2026-05-01T13:39:00.156Z</time></trkpt><trkpt lat="44.4424783" lon="8.1085133"><ele>610.6666666666667</ele><time>2026-05-01T13:39:01.154Z</time></trkpt><trkpt lat="44.4424567" lon="8.10875"><ele>610.0</ele><time>2026-05-01T13:39:02.151Z</time></trkpt><trkpt lat="44.442425" lon="8.1089667"><ele>611.5</ele><time>2026-05-01T13:39:03.155Z</time></trkpt><trkpt lat="44.44237" lon="8.1091567"><ele>613.0</ele><time>2026-05-01T13:39:04.151Z</time></trkpt><trkpt lat="44.4422833" lon="8.1093083"><ele>614.5</ele><time>2026-05-01T13:39:05.155Z</time></trkpt><trkpt lat="44.4421767" lon="8.109435"><ele>616.0</ele><time>2026-05-01T13:39:06.152Z</time></trkpt><trkpt lat="44.442055" lon="8.1095083"><ele>616.0</ele><time>2026-05-01T13:39:07.152Z</time></trkpt><trkpt lat="44.4419267" lon="8.1095633"><ele>616.0</ele><time>2026-05-01T13:39:08.153Z</time></trkpt><trkpt lat="44.4417917" lon="8.1096067"><ele>616.0</ele><time>2026-05-01T13:39:09.154Z</time></trkpt><trkpt lat="44.44166" lon="8.10964"><ele>616.0</ele><time>2026-05-01T13:39:10.152Z</time></trkpt><trkpt lat="44.4415483" lon="8.1096533"><ele>616.0</ele><time>2026-05-01T13:39:11.152Z</time></trkpt><trkpt lat="44.441465" lon="8.1096767"><ele>616.0</ele><time>2026-05-01T13:39:12.154Z</time></trkpt><trkpt lat="44.441395" lon="8.1097133"><ele>616.0</ele><time>2026-05-01T13:39:13.155Z</time></trkpt><trkpt lat="44.441335" lon="8.109775"><ele>616.0</ele><time>2026-05-01T13:39:14.155Z</time></trkpt><trkpt lat="44.441365" lon="8.10986"><ele>616.0</ele><time>2026-05-01T13:39:15.154Z</time></trkpt><trkpt lat="44.441485" lon="8.1099533"><ele>616.0</ele><time>2026-05-01T13:39:17.155Z</time></trkpt><trkpt lat="44.441575" lon="8.109985"><ele>622.0</ele><time>2026-05-01T13:39:18.153Z</time></trkpt><trkpt lat="44.4416867" lon="8.110015"><ele>628.0</ele><time>2026-05-01T13:39:19.15Z</time></trkpt><trkpt lat="44.4418583" lon="8.11003"><ele>634.0</ele><time>2026-05-01T13:39:20.151Z</time></trkpt><trkpt lat="44.4420283" lon="8.11005"><ele>634.3333333333334</ele><time>2026-05-01T13:39:21.156Z</time></trkpt><trkpt lat="44.4422033" lon="8.11008"><ele>634.6666666666666</ele><time>2026-05-01T13:39:22.153Z</time></trkpt><trkpt lat="44.44239" lon="8.1101"><ele>635.0</ele><time>2026-05-01T13:39:23.155Z</time></trkpt><trkpt lat="44.442585" lon="8.110105"><ele>635.0</ele><time>2026-05-01T13:39:24.155Z</time></trkpt><trkpt lat="44.4427867" lon="8.1101"><ele>635.0</ele><time>2026-05-01T13:39:25.155Z</time></trkpt><trkpt lat="44.4429917" lon="8.1100883"><ele>635.0</ele><time>2026-05-01T13:39:26.154Z</time></trkpt><trkpt lat="44.4432067" lon="8.110075"><ele>637.6666666666666</ele><time>2026-05-01T13:39:27.154Z</time></trkpt><trkpt lat="44.4434283" lon="8.110065"><ele>640.3333333333334</ele><time>2026-05-01T13:39:28.15Z</time></trkpt><trkpt lat="44.4436467" lon="8.11005"><ele>643.0</ele><time>2026-05-01T13:39:29.159Z</time></trkpt><trkpt lat="44.4438633" lon="8.110045"><ele>640.6666666666667</ele><time>2026-05-01T13:39:30.153Z</time></trkpt><trkpt lat="44.444065" lon="8.11"><ele>638.3333333333334</ele><time>2026-05-01T13:39:31.157Z</time></trkpt><trkpt lat="44.444255" lon="8.1099567"><ele>636.0</ele><time>2026-05-01T13:39:32.162Z</time></trkpt><trkpt lat="44.4444233" lon="8.1099"><ele>636.0</ele><time>2026-05-01T13:39:33.159Z</time></trkpt><trkpt lat="44.4445717" lon="8.109835"><ele>636.0</ele><time>2026-05-01T13:39:34.157Z</time></trkpt><trkpt lat="44.4447167" lon="8.1097583"><ele>636.0</ele><time>2026-05-01T13:39:35.156Z</time></trkpt><trkpt lat="44.4448517" lon="8.1096817"><ele>640.0</ele><time>2026-05-01T13:39:36.153Z</time></trkpt><trkpt lat="44.4449883" lon="8.1096167"><ele>644.0</ele><time>2026-05-01T13:39:37.159Z</time></trkpt><trkpt lat="44.445125" lon="8.1095483"><ele>648.0</ele><time>2026-05-01T13:39:38.155Z</time></trkpt><trkpt lat="44.445255" lon="8.1094867"><ele>652.0</ele><time>2026-05-01T13:39:39.152Z</time></trkpt><trkpt lat="44.44537" lon="8.1094233"><ele>652.0</ele><time>2026-05-01T13:39:40.154Z</time></trkpt><trkpt lat="44.4454583" lon="8.1093817"><ele>652.0</ele><time>2026-05-01T13:39:41.157Z</time></trkpt><trkpt lat="44.44553" lon="8.10937"><ele>652.0</ele><time>2026-05-01T13:39:42.155Z</time></trkpt><trkpt lat="44.4456017" lon="8.1093783"><ele>652.0</ele><time>2026-05-01T13:39:43.152Z</time></trkpt><trkpt lat="44.445615" lon="8.1095383"><ele>652.0</ele><time>2026-05-01T13:39:45.154Z</time></trkpt><trkpt lat="44.445585" lon="8.1096183"><ele>652.0</ele><time>2026-05-01T13:39:46.153Z</time></trkpt><trkpt lat="44.4455383" lon="8.1097217"><ele>652.0</ele><time>2026-05-01T13:39:47.153Z</time></trkpt><trkpt lat="44.44546" lon="8.1098383"><ele>652.0</ele><time>2026-05-01T13:39:48.157Z</time></trkpt><trkpt lat="44.4453683" lon="8.1099667"><ele>652.0</ele><time>2026-05-01T13:39:49.156Z</time></trkpt><trkpt lat="44.44529" lon="8.1101033"><ele>652.0</ele><time>2026-05-01T13:39:50.152Z</time></trkpt><trkpt lat="44.445235" lon="8.1102533"><ele>654.75</ele><time>2026-05-01T13:39:51.156Z</time></trkpt><trkpt lat="44.44521" lon="8.1104117"><ele>657.5</ele><time>2026-05-01T13:39:52.153Z</time></trkpt><trkpt lat="44.445215" lon="8.1105733"><ele>660.25</ele><time>2026-05-01T13:39:53.156Z</time></trkpt><trkpt lat="44.4452433" lon="8.110725"><ele>663.0</ele><time>2026-05-01T13:39:54.154Z</time></trkpt><trkpt lat="44.4453067" lon="8.110865"><ele>665.75</ele><time>2026-05-01T13:39:55.156Z</time></trkpt><trkpt lat="44.4453983" lon="8.110975"><ele>668.5</ele><time>2026-05-01T13:39:56.155Z</time></trkpt><trkpt lat="44.4455033" lon="8.1110733"><ele>671.25</ele><time>2026-05-01T13:39:57.154Z</time></trkpt><trkpt lat="44.44562" lon="8.1111783"><ele>674.0</ele><time>2026-05-01T13:39:58.154Z</time></trkpt><trkpt lat="44.4457383" lon="8.111265"><ele>675.75</ele><time>2026-05-01T13:39:59.154Z</time></trkpt><trkpt lat="44.445865" lon="8.1113233"><ele>677.5</ele><time>2026-05-01T13:40:00.153Z</time></trkpt><trkpt lat="44.4459933" lon="8.1113317"><ele>679.25</ele><time>2026-05-01T13:40:01.152Z</time></trkpt><trkpt lat="44.4461267" lon="8.1112883"><ele>681.0</ele><time>2026-05-01T13:40:02.151Z</time></trkpt><trkpt lat="44.446265" lon="8.1112283"><ele>677.3333333333334</ele><time>2026-05-01T13:40:03.154Z</time></trkpt><trkpt lat="44.4464167" lon="8.1111517"><ele>673.6666666666667</ele><time>2026-05-01T13:40:04.153Z</time></trkpt><trkpt lat="44.446575" lon="8.1110633"><ele>670.0</ele><time>2026-05-01T13:40:05.152Z</time></trkpt><trkpt lat="44.446735" lon="8.1109817"><ele>670.0</ele><time>2026-05-01T13:40:06.152Z</time></trkpt><trkpt lat="44.4468733" lon="8.1109117"><ele>670.0</ele><time>2026-05-01T13:40:07.154Z</time></trkpt><trkpt lat="44.4469817" lon="8.1108633"><ele>670.0</ele><time>2026-05-01T13:40:08.157Z</time></trkpt><trkpt lat="44.44706" lon="8.1108367"><ele>670.0</ele><time>2026-05-01T13:40:09.15Z</time></trkpt><trkpt lat="44.447125" lon="8.1108283"><ele>670.0</ele><time>2026-05-01T13:40:10.156Z</time></trkpt><trkpt lat="44.44717" lon="8.1109883"><ele>670.0</ele><time>2026-05-01T13:40:12.151Z</time></trkpt><trkpt lat="44.4471717" lon="8.1110917"><ele>670.0</ele><time>2026-05-01T13:40:13.156Z</time></trkpt><trkpt lat="44.44714" lon="8.1111783"><ele>670.0</ele><time>2026-05-01T13:40:14.157Z</time></trkpt><trkpt lat="44.4470517" lon="8.11124"><ele>670.0</ele><time>2026-05-01T13:40:15.153Z</time></trkpt><trkpt lat="44.44692" lon="8.111295"><ele>670.0</ele><time>2026-05-01T13:40:16.149Z</time></trkpt><trkpt lat="44.44679" lon="8.1113733"><ele>670.0</ele><time>2026-05-01T13:40:17.152Z</time></trkpt><trkpt lat="44.4466667" lon="8.1114783"><ele>670.0</ele><time>2026-05-01T13:40:18.155Z</time></trkpt><trkpt lat="44.4465417" lon="8.1115983"><ele>670.0</ele><time>2026-05-01T13:40:19.153Z</time></trkpt><trkpt lat="44.4464033" lon="8.1117317"><ele>667.0</ele><time>2026-05-01T13:40:20.154Z</time></trkpt><trkpt lat="44.4462883" lon="8.1118767"><ele>664.0</ele><time>2026-05-01T13:40:21.151Z</time></trkpt><trkpt lat="44.4461717" lon="8.112005"><ele>661.0</ele><time>2026-05-01T13:40:22.156Z</time></trkpt><trkpt lat="44.4460583" lon="8.1121033"><ele>658.0</ele><time>2026-05-01T13:40:23.155Z</time></trkpt><trkpt lat="44.4459317" lon="8.1121633"><ele>658.0</ele><time>2026-05-01T13:40:24.155Z</time></trkpt><trkpt lat="44.4457933" lon="8.1121917"><ele>658.0</ele><time>2026-05-01T13:40:25.153Z</time></trkpt><trkpt lat="44.4456517" lon="8.1122367"><ele>658.0</ele><time>2026-05-01T13:40:26.158Z</time></trkpt><trkpt lat="44.4455067" lon="8.1123017"><ele>658.0</ele><time>2026-05-01T13:40:27.154Z</time></trkpt><trkpt lat="44.4453583" lon="8.1123733"><ele>653.6666666666667</ele><time>2026-05-01T13:40:28.154Z</time></trkpt><trkpt lat="44.4452167" lon="8.1124767"><ele>649.3333333333334</ele><time>2026-05-01T13:40:29.156Z</time></trkpt><trkpt lat="44.4450783" lon="8.1126217"><ele>645.0</ele><time>2026-05-01T13:40:30.154Z</time></trkpt><trkpt lat="44.4449567" lon="8.1127917"><ele>645.0</ele><time>2026-05-01T13:40:31.154Z</time></trkpt><trkpt lat="44.4448267" lon="8.11296"><ele>645.0</ele><time>2026-05-01T13:40:32.154Z</time></trkpt><trkpt lat="44.44469" lon="8.1131167"><ele>645.0</ele><time>2026-05-01T13:40:33.155Z</time></trkpt><trkpt lat="44.4445433" lon="8.1132567"><ele>644.6666666666666</ele><time>2026-05-01T13:40:34.155Z</time></trkpt><trkpt lat="44.4443917" lon="8.1133833"><ele>644.3333333333333</ele><time>2026-05-01T13:40:35.153Z</time></trkpt><trkpt lat="44.4442467" lon="8.1135167"><ele>644.0</ele><time>2026-05-01T13:40:36.151Z</time></trkpt><trkpt lat="44.4441117" lon="8.1136633"><ele>644.0</ele><time>2026-05-01T13:40:37.156Z</time></trkpt><trkpt lat="44.4440017" lon="8.1138483"><ele>644.0</ele><time>2026-05-01T13:40:38.158Z</time></trkpt><trkpt lat="44.4439067" lon="8.1140567"><ele>644.0</ele><time>2026-05-01T13:40:39.154Z</time></trkpt><trkpt lat="44.4438117" lon="8.1142717"><ele>647.3333333333333</ele><time>2026-05-01T13:40:40.154Z</time></trkpt><trkpt lat="44.4437267" lon="8.1144867"><ele>650.6666666666666</ele><time>2026-05-01T13:40:41.152Z</time></trkpt><trkpt lat="44.4436417" lon="8.1146967"><ele>654.0</ele><time>2026-05-01T13:40:42.158Z</time></trkpt><trkpt lat="44.4435583" lon="8.1148983"><ele>650.25</ele><time>2026-05-01T13:40:43.161Z</time></trkpt><trkpt lat="44.4434833" lon="8.1150733"><ele>646.5</ele><time>2026-05-01T13:40:44.154Z</time></trkpt><trkpt lat="44.4434283" lon="8.1152283"><ele>642.75</ele><time>2026-05-01T13:40:45.154Z</time></trkpt><trkpt lat="44.4434167" lon="8.1153917"><ele>639.0</ele><time>2026-05-01T13:40:46.154Z</time></trkpt><trkpt lat="44.44343" lon="8.11556"><ele>638.0</ele><time>2026-05-01T13:40:47.156Z</time></trkpt><trkpt lat="44.4434633" lon="8.1157383"><ele>637.0</ele><time>2026-05-01T13:40:48.152Z</time></trkpt><trkpt lat="44.44354" lon="8.1159383"><ele>636.0</ele><time>2026-05-01T13:40:49.155Z</time></trkpt><trkpt lat="44.443655" lon="8.11617"><ele>636.0</ele><time>2026-05-01T13:40:50.156Z</time></trkpt><trkpt lat="44.4437617" lon="8.1164033"><ele>636.0</ele><time>2026-05-01T13:40:51.155Z</time></trkpt><trkpt lat="44.44384" lon="8.11664"><ele>636.0</ele><time>2026-05-01T13:40:52.151Z</time></trkpt><trkpt lat="44.443905" lon="8.1168833"><ele>624.3333333333334</ele><time>2026-05-01T13:40:53.153Z</time></trkpt><trkpt lat="44.4439517" lon="8.117115"><ele>612.6666666666667</ele><time>2026-05-01T13:40:54.153Z</time></trkpt><trkpt lat="44.44397" lon="8.1173333"><ele>601.0</ele><time>2026-05-01T13:40:55.151Z</time></trkpt><trkpt lat="44.4439517" lon="8.1175283"><ele>599.6</ele><time>2026-05-01T13:40:56.152Z</time></trkpt><trkpt lat="44.4439133" lon="8.11771"><ele>598.2</ele><time>2026-05-01T13:40:57.152Z</time></trkpt><trkpt lat="44.443875" lon="8.1178667"><ele>596.8</ele><time>2026-05-01T13:40:58.151Z</time></trkpt><trkpt lat="44.443835" lon="8.1179983"><ele>595.4</ele><time>2026-05-01T13:40:59.158Z</time></trkpt><trkpt lat="44.443815" lon="8.11811"><ele>594.0</ele><time>2026-05-01T13:41:00.155Z</time></trkpt><trkpt lat="44.4438083" lon="8.1182133"><ele>594.0</ele><time>2026-05-01T13:41:01.155Z</time></trkpt><trkpt lat="44.4439133" lon="8.1182767"><ele>594.0</ele><time>2026-05-01T13:41:03.15Z</time></trkpt><trkpt lat="44.44402" lon="8.1181617"><ele>594.0</ele><time>2026-05-01T13:41:05.155Z</time></trkpt><trkpt lat="44.444055" lon="8.118"><ele>594.0</ele><time>2026-05-01T13:41:06.158Z</time></trkpt><trkpt lat="44.4440933" lon="8.1178383"><ele>594.0</ele><time>2026-05-01T13:41:07.155Z</time></trkpt><trkpt lat="44.4441367" lon="8.117655"><ele>594.0</ele><time>2026-05-01T13:41:08.153Z</time></trkpt><trkpt lat="44.444185" lon="8.117465"><ele>594.0</ele><time>2026-05-01T13:41:09.154Z</time></trkpt><trkpt lat="44.4442367" lon="8.1172683"><ele>594.0</ele><time>2026-05-01T13:41:10.152Z</time></trkpt><trkpt lat="44.4442817" lon="8.1170667"><ele>595.5</ele><time>2026-05-01T13:41:11.157Z</time></trkpt><trkpt lat="44.444305" lon="8.1168583"><ele>597.0</ele><time>2026-05-01T13:41:12.156Z</time></trkpt><trkpt lat="44.4443017" lon="8.1166433"><ele>598.5</ele><time>2026-05-01T13:41:13.156Z</time></trkpt><trkpt lat="44.44429" lon="8.11645"><ele>600.0</ele><time>2026-05-01T13:41:14.152Z</time></trkpt><trkpt lat="44.444275" lon="8.1163067"><ele>600.0</ele><time>2026-05-01T13:41:15.15Z</time></trkpt><trkpt lat="44.44428" lon="8.11619"><ele>600.0</ele><time>2026-05-01T13:41:16.156Z</time></trkpt><trkpt lat="44.4443417" lon="8.1160667"><ele>600.0</ele><time>2026-05-01T13:41:18.155Z</time></trkpt><trkpt lat="44.4444433" lon="8.1161467"><ele>600.0</ele><time>2026-05-01T13:41:20.15Z</time></trkpt><trkpt lat="44.4444833" lon="8.1162417"><ele>600.0</ele><time>2026-05-01T13:41:21.155Z</time></trkpt><trkpt lat="44.4444983" lon="8.1164167"><ele>600.25</ele><time>2026-05-01T13:41:22.152Z</time></trkpt><trkpt lat="44.444505" lon="8.116595"><ele>600.5</ele><time>2026-05-01T13:41:23.151Z</time></trkpt><trkpt lat="44.4445083" lon="8.1167783"><ele>600.75</ele><time>2026-05-01T13:41:24.154Z</time></trkpt><trkpt lat="44.4445017" lon="8.1169783"><ele>601.0</ele><time>2026-05-01T13:41:25.154Z</time></trkpt><trkpt lat="44.4444733" lon="8.1171783"><ele>601.0</ele><time>2026-05-01T13:41:26.156Z</time></trkpt><trkpt lat="44.4444433" lon="8.1173733"><ele>601.0</ele><time>2026-05-01T13:41:27.156Z</time></trkpt><trkpt lat="44.4444233" lon="8.1175567"><ele>601.0</ele><time>2026-05-01T13:41:28.159Z</time></trkpt><trkpt lat="44.4444133" lon="8.1177117"><ele>601.0</ele><time>2026-05-01T13:41:29.154Z</time></trkpt><trkpt lat="44.4444" lon="8.1178383"><ele>600.0</ele><time>2026-05-01T13:41:30.154Z</time></trkpt><trkpt lat="44.4444067" lon="8.1179483"><ele>599.0</ele><time>2026-05-01T13:41:31.151Z</time></trkpt><trkpt lat="44.44442" lon="8.1180483"><ele>598.0</ele><time>2026-05-01T13:41:32.152Z</time></trkpt><trkpt lat="44.444485" lon="8.1180267"><ele>597.0</ele><time>2026-05-01T13:41:33.157Z</time></trkpt><trkpt lat="44.4445483" lon="8.1179833"><ele>596.0</ele><time>2026-05-01T13:41:34.154Z</time></trkpt><trkpt lat="44.4446033" lon="8.1179383"><ele>595.0</ele><time>2026-05-01T13:41:35.155Z</time></trkpt><trkpt lat="44.444635" lon="8.117835"><ele>594.0</ele><time>2026-05-01T13:41:36.157Z</time></trkpt><trkpt lat="44.444675" lon="8.1176967"><ele>586.0</ele><time>2026-05-01T13:41:37.158Z</time></trkpt><trkpt lat="44.4447083" lon="8.117535"><ele>578.0</ele><time>2026-05-01T13:41:38.151Z</time></trkpt><trkpt lat="44.4447417" lon="8.117365"><ele>570.0</ele><time>2026-05-01T13:41:39.15Z</time></trkpt><trkpt lat="44.4447733" lon="8.11718"><ele>562.0</ele><time>2026-05-01T13:41:40.152Z</time></trkpt><trkpt lat="44.4448033" lon="8.1169983"><ele>562.0</ele><time>2026-05-01T13:41:41.158Z</time></trkpt><trkpt lat="44.4448267" lon="8.1168133"><ele>562.0</ele><time>2026-05-01T13:41:42.15Z</time></trkpt><trkpt lat="44.44484" lon="8.1166233"><ele>562.0</ele><time>2026-05-01T13:41:43.154Z</time></trkpt><trkpt lat="44.4448483" lon="8.1164367"><ele>562.0</ele><time>2026-05-01T13:41:44.15Z</time></trkpt><trkpt lat="44.4448567" lon="8.1162617"><ele>563.1666666666667</ele><time>2026-05-01T13:41:45.153Z</time></trkpt><trkpt lat="44.44489" lon="8.1161567"><ele>564.3333333333334</ele><time>2026-05-01T13:41:46.153Z</time></trkpt><trkpt lat="44.4449283" lon="8.1160683"><ele>565.5</ele><time>2026-05-01T13:41:47.151Z</time></trkpt><trkpt lat="44.44499" lon="8.11604"><ele>566.6666666666666</ele><time>2026-05-01T13:41:48.153Z</time></trkpt><trkpt lat="44.44509" lon="8.1161333"><ele>567.8333333333333</ele><time>2026-05-01T13:41:50.155Z</time></trkpt><trkpt lat="44.4451267" lon="8.1162183"><ele>569.0</ele><time>2026-05-01T13:41:51.157Z</time></trkpt><trkpt lat="44.445125" lon="8.116355"><ele>569.0</ele><time>2026-05-01T13:41:52.155Z</time></trkpt><trkpt lat="44.4451183" lon="8.1165217"><ele>569.0</ele><time>2026-05-01T13:41:53.156Z</time></trkpt><trkpt lat="44.4451133" lon="8.1167"><ele>569.0</ele><time>2026-05-01T13:41:54.153Z</time></trkpt><trkpt lat="44.4451183" lon="8.11691"><ele>569.0</ele><time>2026-05-01T13:41:55.153Z</time></trkpt><trkpt lat="44.44513" lon="8.11712"><ele>566.6666666666666</ele><time>2026-05-01T13:41:56.154Z</time></trkpt><trkpt lat="44.4451483" lon="8.11734"><ele>564.3333333333334</ele><time>2026-05-01T13:41:57.154Z</time></trkpt><trkpt lat="44.4451683" lon="8.117555"><ele>562.0</ele><time>2026-05-01T13:41:58.155Z</time></trkpt><trkpt lat="44.4452" lon="8.1177717"><ele>560.6666666666667</ele><time>2026-05-01T13:41:59.155Z</time></trkpt><trkpt lat="44.44524" lon="8.11799"><ele>559.3333333333334</ele><time>2026-05-01T13:42:00.152Z</time></trkpt><trkpt lat="44.4452917" lon="8.1181917"><ele>558.0</ele><time>2026-05-01T13:42:01.155Z</time></trkpt><trkpt lat="44.4453633" lon="8.1183733"><ele>557.0</ele><time>2026-05-01T13:42:02.152Z</time></trkpt><trkpt lat="44.4454533" lon="8.1185417"><ele>556.0</ele><time>2026-05-01T13:42:03.155Z</time></trkpt><trkpt lat="44.4455617" lon="8.118695"><ele>555.0</ele><time>2026-05-01T13:42:04.153Z</time></trkpt><trkpt lat="44.4456667" lon="8.11885"><ele>549.75</ele><time>2026-05-01T13:42:05.16Z</time></trkpt><trkpt lat="44.445775" lon="8.119"><ele>544.5</ele><time>2026-05-01T13:42:06.16Z</time></trkpt><trkpt lat="44.4458783" lon="8.1191483"><ele>539.25</ele><time>2026-05-01T13:42:07.156Z</time></trkpt><trkpt lat="44.4459683" lon="8.119285"><ele>534.0</ele><time>2026-05-01T13:42:08.152Z</time></trkpt><trkpt lat="44.4460383" lon="8.1194117"><ele>534.0</ele><time>2026-05-01T13:42:09.152Z</time></trkpt><trkpt lat="44.4460883" lon="8.1195433"><ele>534.0</ele><time>2026-05-01T13:42:10.155Z</time></trkpt><trkpt lat="44.44611" lon="8.1196983"><ele>534.0</ele><time>2026-05-01T13:42:11.156Z</time></trkpt><trkpt lat="44.4460917" lon="8.11986"><ele>534.0</ele><time>2026-05-01T13:42:12.16Z</time></trkpt><trkpt lat="44.446055" lon="8.120025"><ele>532.75</ele><time>2026-05-01T13:42:13.158Z</time></trkpt><trkpt lat="44.4459917" lon="8.120195"><ele>531.5</ele><time>2026-05-01T13:42:14.155Z</time></trkpt><trkpt lat="44.4459467" lon="8.12036"><ele>530.25</ele><time>2026-05-01T13:42:15.153Z</time></trkpt><trkpt lat="44.4459183" lon="8.1205183"><ele>529.0</ele><time>2026-05-01T13:42:16.149Z</time></trkpt><trkpt lat="44.44592" lon="8.1206833"><ele>525.0</ele><time>2026-05-01T13:42:17.155Z</time></trkpt><trkpt lat="44.4459583" lon="8.12084"><ele>521.0</ele><time>2026-05-01T13:42:18.153Z</time></trkpt><trkpt lat="44.4460217" lon="8.12099"><ele>517.0</ele><time>2026-05-01T13:42:19.156Z</time></trkpt><trkpt lat="44.4461017" lon="8.1211467"><ele>513.0</ele><time>2026-05-01T13:42:20.154Z</time></trkpt><trkpt lat="44.4461817" lon="8.1212967"><ele>513.0</ele><time>2026-05-01T13:42:21.155Z</time></trkpt><trkpt lat="44.4462633" lon="8.1214433"><ele>513.0</ele><time>2026-05-01T13:42:22.153Z</time></trkpt><trkpt lat="44.4463433" lon="8.1215867"><ele>513.0</ele><time>2026-05-01T13:42:23.151Z</time></trkpt><trkpt lat="44.44642" lon="8.12173"><ele>513.0</ele><time>2026-05-01T13:42:24.154Z</time></trkpt><trkpt lat="44.4464967" lon="8.12187"><ele>511.59999999999997</ele><time>2026-05-01T13:42:25.152Z</time></trkpt><trkpt lat="44.4465717" lon="8.1220033"><ele>510.19999999999993</ele><time>2026-05-01T13:42:26.157Z</time></trkpt><trkpt lat="44.4466483" lon="8.1221183"><ele>508.8</ele><time>2026-05-01T13:42:27.15Z</time></trkpt><trkpt lat="44.446735" lon="8.1221967"><ele>507.4</ele><time>2026-05-01T13:42:28.154Z</time></trkpt><trkpt lat="44.4468283" lon="8.12223"><ele>506.0</ele><time>2026-05-01T13:42:29.152Z</time></trkpt><trkpt lat="44.44693" lon="8.12223"><ele>506.0</ele><time>2026-05-01T13:42:30.158Z</time></trkpt><trkpt lat="44.4470333" lon="8.1221867"><ele>506.0</ele><time>2026-05-01T13:42:31.153Z</time></trkpt><trkpt lat="44.4471217" lon="8.12211"><ele>506.0</ele><time>2026-05-01T13:42:32.152Z</time></trkpt><trkpt lat="44.4471933" lon="8.1219983"><ele>506.0</ele><time>2026-05-01T13:42:33.151Z</time></trkpt><trkpt lat="44.4472417" lon="8.1218533"><ele>506.0</ele><time>2026-05-01T13:42:34.158Z</time></trkpt><trkpt lat="44.44726" lon="8.121685"><ele>499.0</ele><time>2026-05-01T13:42:35.154Z</time></trkpt><trkpt lat="44.4472583" lon="8.1215"><ele>492.0</ele><time>2026-05-01T13:42:36.154Z</time></trkpt><trkpt lat="44.4472317" lon="8.1212883"><ele>485.0</ele><time>2026-05-01T13:42:37.154Z</time></trkpt><trkpt lat="44.4472083" lon="8.121035"><ele>485.0</ele><time>2026-05-01T13:42:38.156Z</time></trkpt><trkpt lat="44.4471917" lon="8.1207617"><ele>485.0</ele><time>2026-05-01T13:42:39.159Z</time></trkpt><trkpt lat="44.44718" lon="8.120495"><ele>485.0</ele><time>2026-05-01T13:42:40.155Z</time></trkpt><trkpt lat="44.4471683" lon="8.12025"><ele>484.8</ele><time>2026-05-01T13:42:41.154Z</time></trkpt><trkpt lat="44.4471617" lon="8.1200383"><ele>484.6</ele><time>2026-05-01T13:42:42.155Z</time></trkpt><trkpt lat="44.4471617" lon="8.1198717"><ele>484.4</ele><time>2026-05-01T13:42:43.155Z</time></trkpt><trkpt lat="44.4471867" lon="8.1197517"><ele>484.2</ele><time>2026-05-01T13:42:44.155Z</time></trkpt><trkpt lat="44.4472283" lon="8.119655"><ele>484.0</ele><time>2026-05-01T13:42:45.154Z</time></trkpt><trkpt lat="44.4472733" lon="8.1195817"><ele>484.0</ele><time>2026-05-01T13:42:46.153Z</time></trkpt><trkpt lat="44.4473283" lon="8.11953"><ele>484.0</ele><time>2026-05-01T13:42:47.155Z</time></trkpt><trkpt lat="44.4473967" lon="8.1197483"><ele>484.0</ele><time>2026-05-01T13:42:48.152Z</time></trkpt><trkpt lat="44.4474433" lon="8.1199433"><ele>484.0</ele><time>2026-05-01T13:42:49.154Z</time></trkpt><trkpt lat="44.44749" lon="8.1201367"><ele>484.0</ele><time>2026-05-01T13:42:50.153Z</time></trkpt><trkpt lat="44.44754" lon="8.1203517"><ele>484.0</ele><time>2026-05-01T13:42:51.153Z</time></trkpt><trkpt lat="44.4475917" lon="8.1205817"><ele>484.0</ele><time>2026-05-01T13:42:52.155Z</time></trkpt><trkpt lat="44.447645" lon="8.1208117"><ele>484.33333333333337</ele><time>2026-05-01T13:42:53.152Z</time></trkpt><trkpt lat="44.4477033" lon="8.1210483"><ele>484.66666666666663</ele><time>2026-05-01T13:42:54.155Z</time></trkpt><trkpt lat="44.4477667" lon="8.12129"><ele>485.0</ele><time>2026-05-01T13:42:55.153Z</time></trkpt><trkpt lat="44.4478317" lon="8.1215367"><ele>485.3333333333333</ele><time>2026-05-01T13:42:56.152Z</time></trkpt><trkpt lat="44.4479017" lon="8.1217817"><ele>485.66666666666663</ele><time>2026-05-01T13:42:57.155Z</time></trkpt><trkpt lat="44.4479767" lon="8.12202"><ele>486.0</ele><time>2026-05-01T13:42:58.153Z</time></trkpt><trkpt lat="44.4480683" lon="8.12225"><ele>480.66666666666663</ele><time>2026-05-01T13:42:59.153Z</time></trkpt><trkpt lat="44.44817" lon="8.1224683"><ele>475.3333333333333</ele><time>2026-05-01T13:43:00.156Z</time></trkpt><trkpt lat="44.4482767" lon="8.1226783"><ele>470.0</ele><time>2026-05-01T13:43:01.153Z</time></trkpt><trkpt lat="44.4483767" lon="8.1228817"><ele>470.0</ele><time>2026-05-01T13:43:02.152Z</time></trkpt><trkpt lat="44.448465" lon="8.1230567"><ele>470.0</ele><time>2026-05-01T13:43:03.156Z</time></trkpt><trkpt lat="44.448535" lon="8.1232017"><ele>470.0</ele><time>2026-05-01T13:43:04.154Z</time></trkpt><trkpt lat="44.4486" lon="8.1233017"><ele>470.0</ele><time>2026-05-01T13:43:05.157Z</time></trkpt><trkpt lat="44.4486767" lon="8.1233483"><ele>468.8</ele><time>2026-05-01T13:43:06.153Z</time></trkpt><trkpt lat="44.4487483" lon="8.1233417"><ele>467.6</ele><time>2026-05-01T13:43:07.154Z</time></trkpt><trkpt lat="44.4488183" lon="8.123305"><ele>466.4</ele><time>2026-05-01T13:43:08.152Z</time></trkpt><trkpt lat="44.448875" lon="8.12322"><ele>465.2</ele><time>2026-05-01T13:43:09.156Z</time></trkpt><trkpt lat="44.4488733" lon="8.1230617"><ele>464.0</ele><time>2026-05-01T13:43:10.154Z</time></trkpt><trkpt lat="44.448845" lon="8.1228683"><ele>464.5</ele><time>2026-05-01T13:43:11.158Z</time></trkpt><trkpt lat="44.4488267" lon="8.12267"><ele>465.0</ele><time>2026-05-01T13:43:12.154Z</time></trkpt><trkpt lat="44.44881" lon="8.122465"><ele>465.5</ele><time>2026-05-01T13:43:13.153Z</time></trkpt><trkpt lat="44.4487933" lon="8.1222433"><ele>466.0</ele><time>2026-05-01T13:43:14.154Z</time></trkpt><trkpt lat="44.4487883" lon="8.1220233"><ele>460.33333333333337</ele><time>2026-05-01T13:43:15.15Z</time></trkpt><trkpt lat="44.4487967" lon="8.1218083"><ele>454.66666666666663</ele><time>2026-05-01T13:43:16.152Z</time></trkpt><trkpt lat="44.4488167" lon="8.1215883"><ele>449.0</ele><time>2026-05-01T13:43:17.159Z</time></trkpt><trkpt lat="44.44885" lon="8.121375"><ele>449.0</ele><time>2026-05-01T13:43:18.153Z</time></trkpt><trkpt lat="44.4488883" lon="8.1211583"><ele>449.0</ele><time>2026-05-01T13:43:19.154Z</time></trkpt><trkpt lat="44.4489267" lon="8.1209433"><ele>449.0</ele><time>2026-05-01T13:43:20.154Z</time></trkpt><trkpt lat="44.4489617" lon="8.1207217"><ele>450.0</ele><time>2026-05-01T13:43:21.153Z</time></trkpt><trkpt lat="44.4489983" lon="8.1204967"><ele>451.0</ele><time>2026-05-01T13:43:22.158Z</time></trkpt><trkpt lat="44.449025" lon="8.1202667"><ele>452.0</ele><time>2026-05-01T13:43:23.152Z</time></trkpt><trkpt lat="44.4490433" lon="8.12005"><ele>451.0</ele><time>2026-05-01T13:43:24.157Z</time></trkpt><trkpt lat="44.4490517" lon="8.119865"><ele>450.00000000000006</ele><time>2026-05-01T13:43:25.161Z</time></trkpt><trkpt lat="44.4490633" lon="8.1197167"><ele>449.00000000000006</ele><time>2026-05-01T13:43:26.158Z</time></trkpt><trkpt lat="44.4490883" lon="8.1195967"><ele>448.0</ele><time>2026-05-01T13:43:27.159Z</time></trkpt><trkpt lat="44.44912" lon="8.1194967"><ele>447.0</ele><time>2026-05-01T13:43:28.156Z</time></trkpt><trkpt lat="44.4492383" lon="8.119405"><ele>447.0</ele><time>2026-05-01T13:43:30.152Z</time></trkpt><trkpt lat="44.44931" lon="8.11942"><ele>447.0</ele><time>2026-05-01T13:43:31.156Z</time></trkpt><trkpt lat="44.4493667" lon="8.1195133"><ele>447.0</ele><time>2026-05-01T13:43:32.152Z</time></trkpt><trkpt lat="44.449335" lon="8.1199067"><ele>447.0</ele><time>2026-05-01T13:43:33.153Z</time></trkpt><trkpt lat="44.4493617" lon="8.1201467"><ele>447.66666666666663</ele><time>2026-05-01T13:43:34.154Z</time></trkpt><trkpt lat="44.4493917" lon="8.1203683"><ele>448.3333333333333</ele><time>2026-05-01T13:43:35.152Z</time></trkpt><trkpt lat="44.449425" lon="8.1206033"><ele>449.0</ele><time>2026-05-01T13:43:36.153Z</time></trkpt><trkpt lat="44.449465" lon="8.1208417"><ele>449.0</ele><time>2026-05-01T13:43:37.151Z</time></trkpt><trkpt lat="44.449515" lon="8.12108"><ele>449.0</ele><time>2026-05-01T13:43:38.155Z</time></trkpt><trkpt lat="44.4495683" lon="8.1213167"><ele>449.0</ele><time>2026-05-01T13:43:39.152Z</time></trkpt><trkpt lat="44.449625" lon="8.1215483"><ele>442.66666666666663</ele><time>2026-05-01T13:43:40.159Z</time></trkpt><trkpt lat="44.44968" lon="8.121775"><ele>436.33333333333337</ele><time>2026-05-01T13:43:41.152Z</time></trkpt><trkpt lat="44.449735" lon="8.1219967"><ele>430.0</ele><time>2026-05-01T13:43:42.152Z</time></trkpt><trkpt lat="44.4497883" lon="8.12221"><ele>430.0</ele><time>2026-05-01T13:43:43.152Z</time></trkpt><trkpt lat="44.4498367" lon="8.1223967"><ele>430.0</ele><time>2026-05-01T13:43:44.16Z</time></trkpt><trkpt lat="44.4498767" lon="8.1225517"><ele>430.0</ele><time>2026-05-01T13:43:45.154Z</time></trkpt><trkpt lat="44.44993" lon="8.1226783"><ele>430.0</ele><time>2026-05-01T13:43:46.15Z</time></trkpt><trkpt lat="44.4499883" lon="8.1227567"><ele>430.0</ele><time>2026-05-01T13:43:47.153Z</time></trkpt><trkpt lat="44.45006" lon="8.1227933"><ele>430.0</ele><time>2026-05-01T13:43:48.152Z</time></trkpt><trkpt lat="44.45014" lon="8.122755"><ele>430.0</ele><time>2026-05-01T13:43:49.152Z</time></trkpt><trkpt lat="44.45021" lon="8.1226867"><ele>430.0</ele><time>2026-05-01T13:43:50.154Z</time></trkpt><trkpt lat="44.450245" lon="8.1225483"><ele>430.0</ele><time>2026-05-01T13:43:51.151Z</time></trkpt><trkpt lat="44.45029" lon="8.122365"><ele>430.0</ele><time>2026-05-01T13:43:52.153Z</time></trkpt><trkpt lat="44.450345" lon="8.1221517"><ele>430.0</ele><time>2026-05-01T13:43:53.152Z</time></trkpt><trkpt lat="44.450395" lon="8.1219383"><ele>430.0</ele><time>2026-05-01T13:43:54.153Z</time></trkpt><trkpt lat="44.4504433" lon="8.1217133"><ele>430.0</ele><time>2026-05-01T13:43:55.153Z</time></trkpt><trkpt lat="44.4505017" lon="8.12148"><ele>425.0</ele><time>2026-05-01T13:43:56.152Z</time></trkpt><trkpt lat="44.450555" lon="8.121245"><ele>420.0</ele><time>2026-05-01T13:43:57.148Z</time></trkpt><trkpt lat="44.45061" lon="8.121005"><ele>415.0</ele><time>2026-05-01T13:43:58.153Z</time></trkpt><trkpt lat="44.4506717" lon="8.1207733"><ele>415.33333333333337</ele><time>2026-05-01T13:43:59.156Z</time></trkpt><trkpt lat="44.4507367" lon="8.1205583"><ele>415.66666666666663</ele><time>2026-05-01T13:44:00.158Z</time></trkpt><trkpt lat="44.4508083" lon="8.12037"><ele>416.0</ele><time>2026-05-01T13:44:01.154Z</time></trkpt><trkpt lat="44.45089" lon="8.120205"><ele>416.0</ele><time>2026-05-01T13:44:02.153Z</time></trkpt><trkpt lat="44.4509833" lon="8.1200617"><ele>416.0</ele><time>2026-05-01T13:44:03.151Z</time></trkpt><trkpt lat="44.4510933" lon="8.1199433"><ele>416.0</ele><time>2026-05-01T13:44:04.154Z</time></trkpt><trkpt lat="44.4512183" lon="8.1198533"><ele>416.0</ele><time>2026-05-01T13:44:05.155Z</time></trkpt><trkpt lat="44.4513567" lon="8.1198"><ele>415.25</ele><time>2026-05-01T13:44:06.155Z</time></trkpt><trkpt lat="44.451495" lon="8.1197817"><ele>414.5</ele><time>2026-05-01T13:44:07.155Z</time></trkpt><trkpt lat="44.4516433" lon="8.11979"><ele>413.75</ele><time>2026-05-01T13:44:08.158Z</time></trkpt><trkpt lat="44.4517883" lon="8.119835"><ele>413.0</ele><time>2026-05-01T13:44:09.154Z</time></trkpt><trkpt lat="44.4519333" lon="8.1199083"><ele>413.0</ele><time>2026-05-01T13:44:10.152Z</time></trkpt><trkpt lat="44.4520817" lon="8.11999"><ele>413.0</ele><time>2026-05-01T13:44:11.153Z</time></trkpt><trkpt lat="44.452235" lon="8.120085"><ele>413.0</ele><time>2026-05-01T13:44:12.153Z</time></trkpt><trkpt lat="44.4523983" lon="8.1201833"><ele>411.0</ele><time>2026-05-01T13:44:13.157Z</time></trkpt><trkpt lat="44.45257" lon="8.1202867"><ele>409.0</ele><time>2026-05-01T13:44:14.154Z</time></trkpt><trkpt lat="44.4527433" lon="8.1203967"><ele>407.0</ele><time>2026-05-01T13:44:15.154Z</time></trkpt><trkpt lat="44.452915" lon="8.12051"><ele>405.66666666666663</ele><time>2026-05-01T13:44:16.15Z</time></trkpt><trkpt lat="44.45309" lon="8.1206217"><ele>404.33333333333337</ele><time>2026-05-01T13:44:17.154Z</time></trkpt><trkpt lat="44.4532683" lon="8.1207317"><ele>403.0</ele><time>2026-05-01T13:44:18.156Z</time></trkpt><trkpt lat="44.4534483" lon="8.1208433"><ele>403.0</ele><time>2026-05-01T13:44:19.154Z</time></trkpt><trkpt lat="44.4536333" lon="8.120955"><ele>403.0</ele><time>2026-05-01T13:44:20.153Z</time></trkpt><trkpt lat="44.45382" lon="8.1210717"><ele>403.0</ele><time>2026-05-01T13:44:21.151Z</time></trkpt><trkpt lat="44.45401" lon="8.121185"><ele>400.0</ele><time>2026-05-01T13:44:22.151Z</time></trkpt><trkpt lat="44.4542017" lon="8.1213017"><ele>397.0</ele><time>2026-05-01T13:44:23.155Z</time></trkpt><trkpt lat="44.4543917" lon="8.12142"><ele>394.0</ele><time>2026-05-01T13:44:24.156Z</time></trkpt><trkpt lat="44.454585" lon="8.1215383"><ele>390.6666666666667</ele><time>2026-05-01T13:44:25.157Z</time></trkpt><trkpt lat="44.45478" lon="8.12166"><ele>387.33333333333337</ele><time>2026-05-01T13:44:26.155Z</time></trkpt><trkpt lat="44.4549767" lon="8.12178"><ele>384.0</ele><time>2026-05-01T13:44:27.153Z</time></trkpt><trkpt lat="44.455175" lon="8.1218967"><ele>384.0</ele><time>2026-05-01T13:44:28.155Z</time></trkpt><trkpt lat="44.455375" lon="8.1220133"><ele>384.0</ele><time>2026-05-01T13:44:29.153Z</time></trkpt><trkpt lat="44.4555717" lon="8.1221217"><ele>384.0</ele><time>2026-05-01T13:44:30.153Z</time></trkpt><trkpt lat="44.4557667" lon="8.1222217"><ele>383.3333333333333</ele><time>2026-05-01T13:44:31.158Z</time></trkpt><trkpt lat="44.455955" lon="8.1223083"><ele>382.66666666666663</ele><time>2026-05-01T13:44:32.15Z</time></trkpt><trkpt lat="44.456145" lon="8.1223767"><ele>382.0</ele><time>2026-05-01T13:44:33.155Z</time></trkpt><trkpt lat="44.456325" lon="8.1224333"><ele>380.66666666666663</ele><time>2026-05-01T13:44:34.153Z</time></trkpt><trkpt lat="44.4565067" lon="8.1224767"><ele>379.3333333333333</ele><time>2026-05-01T13:44:35.154Z</time></trkpt><trkpt lat="44.4566883" lon="8.122505"><ele>378.0</ele><time>2026-05-01T13:44:36.15Z</time></trkpt><trkpt lat="44.4568733" lon="8.12252"><ele>378.0</ele><time>2026-05-01T13:44:37.154Z</time></trkpt><trkpt lat="44.4570633" lon="8.1225267"><ele>378.0</ele><time>2026-05-01T13:44:38.152Z</time></trkpt><trkpt lat="44.4572533" lon="8.1225267"><ele>378.0</ele><time>2026-05-01T13:44:39.152Z</time></trkpt><trkpt lat="44.4574483" lon="8.122525"><ele>376.0</ele><time>2026-05-01T13:44:40.153Z</time></trkpt><trkpt lat="44.457645" lon="8.12252"><ele>374.0</ele><time>2026-05-01T13:44:41.154Z</time></trkpt><trkpt lat="44.4578433" lon="8.1225167"><ele>372.0</ele><time>2026-05-01T13:44:42.149Z</time></trkpt><trkpt lat="44.4580383" lon="8.1225217"><ele>369.0</ele><time>2026-05-01T13:44:43.151Z</time></trkpt><trkpt lat="44.4582317" lon="8.12254"><ele>366.0</ele><time>2026-05-01T13:44:44.151Z</time></trkpt><trkpt lat="44.4584233" lon="8.1225733"><ele>363.0</ele><time>2026-05-01T13:44:45.153Z</time></trkpt><trkpt lat="44.45861" lon="8.1226183"><ele>362.0</ele><time>2026-05-01T13:44:46.152Z</time></trkpt><trkpt lat="44.4587917" lon="8.122675"><ele>361.0</ele><time>2026-05-01T13:44:47.152Z</time></trkpt><trkpt lat="44.45897" lon="8.1227333"><ele>360.0</ele><time>2026-05-01T13:44:48.153Z</time></trkpt><trkpt lat="44.4591483" lon="8.1227983"><ele>360.0</ele><time>2026-05-01T13:44:49.153Z</time></trkpt><trkpt lat="44.4593217" lon="8.1228717"><ele>360.0</ele><time>2026-05-01T13:44:50.157Z</time></trkpt><trkpt lat="44.4594933" lon="8.1229533"><ele>360.0</ele><time>2026-05-01T13:44:51.156Z</time></trkpt><trkpt lat="44.4596717" lon="8.1230317"><ele>358.0</ele><time>2026-05-01T13:44:52.154Z</time></trkpt><trkpt lat="44.4598483" lon="8.1231133"><ele>356.0</ele><time>2026-05-01T13:44:53.156Z</time></trkpt><trkpt lat="44.4600283" lon="8.123195"><ele>354.0</ele><time>2026-05-01T13:44:54.15Z</time></trkpt><trkpt lat="44.4602" lon="8.123275"><ele>354.0</ele><time>2026-05-01T13:44:55.153Z</time></trkpt><trkpt lat="44.4603767" lon="8.1233517"><ele>354.0</ele><time>2026-05-01T13:44:56.153Z</time></trkpt><trkpt lat="44.4605533" lon="8.1234217"><ele>354.0</ele><time>2026-05-01T13:44:57.151Z</time></trkpt><trkpt lat="44.4607317" lon="8.1234933"><ele>353.6666666666667</ele><time>2026-05-01T13:44:58.15Z</time></trkpt><trkpt lat="44.460905" lon="8.1235533"><ele>353.33333333333337</ele><time>2026-05-01T13:44:59.154Z</time></trkpt><trkpt lat="44.4610767" lon="8.123605"><ele>353.0</ele><time>2026-05-01T13:45:00.155Z</time></trkpt><trkpt lat="44.461245" lon="8.1236533"><ele>353.25</ele><time>2026-05-01T13:45:01.156Z</time></trkpt><trkpt lat="44.4614067" lon="8.1236933"><ele>353.5</ele><time>2026-05-01T13:45:02.154Z</time></trkpt><trkpt lat="44.4615517" lon="8.1237267"><ele>353.75</ele><time>2026-05-01T13:45:03.154Z</time></trkpt><trkpt lat="44.4616667" lon="8.1237583"><ele>354.0</ele><time>2026-05-01T13:45:04.158Z</time></trkpt><trkpt lat="44.46174" lon="8.12377"><ele>354.0</ele><time>2026-05-01T13:45:05.156Z</time></trkpt><trkpt lat="44.461845" lon="8.1238233"><ele>354.0</ele><time>2026-05-01T13:45:07.155Z</time></trkpt><trkpt lat="44.4619067" lon="8.1239667"><ele>354.0</ele><time>2026-05-01T13:45:09.155Z</time></trkpt><trkpt lat="44.46191" lon="8.12409"><ele>354.0</ele><time>2026-05-01T13:45:10.151Z</time></trkpt><trkpt lat="44.4619133" lon="8.12422"><ele>354.0</ele><time>2026-05-01T13:45:11.153Z</time></trkpt><trkpt lat="44.4619067" lon="8.1243817"><ele>354.5</ele><time>2026-05-01T13:45:12.152Z</time></trkpt><trkpt lat="44.4618817" lon="8.1245833"><ele>355.0</ele><time>2026-05-01T13:45:13.152Z</time></trkpt><trkpt lat="44.4618717" lon="8.1247683"><ele>355.5</ele><time>2026-05-01T13:45:14.151Z</time></trkpt><trkpt lat="44.4618683" lon="8.1249533"><ele>356.0</ele><time>2026-05-01T13:45:15.152Z</time></trkpt><trkpt lat="44.4618533" lon="8.1251483"><ele>356.5</ele><time>2026-05-01T13:45:16.153Z</time></trkpt><trkpt lat="44.46184" lon="8.1253467"><ele>357.0</ele><time>2026-05-01T13:45:17.151Z</time></trkpt><trkpt lat="44.4618233" lon="8.1255483"><ele>357.5</ele><time>2026-05-01T13:45:18.15Z</time></trkpt><trkpt lat="44.4618083" lon="8.1257483"><ele>358.0</ele><time>2026-05-01T13:45:19.152Z</time></trkpt><trkpt lat="44.4617933" lon="8.1259533"><ele>359.0</ele><time>2026-05-01T13:45:20.161Z</time></trkpt><trkpt lat="44.4617817" lon="8.1261533"><ele>360.0</ele><time>2026-05-01T13:45:21.156Z</time></trkpt><trkpt lat="44.4617683" lon="8.1263483"><ele>361.0</ele><time>2026-05-01T13:45:22.153Z</time></trkpt><trkpt lat="44.4617467" lon="8.1265417"><ele>362.0</ele><time>2026-05-01T13:45:23.153Z</time></trkpt><trkpt lat="44.461705" lon="8.12673"><ele>362.5</ele><time>2026-05-01T13:45:24.154Z</time></trkpt><trkpt lat="44.4616483" lon="8.126915"><ele>363.0</ele><time>2026-05-01T13:45:25.152Z</time></trkpt><trkpt lat="44.4615683" lon="8.1270817"><ele>363.5</ele><time>2026-05-01T13:45:26.154Z</time></trkpt><trkpt lat="44.4614783" lon="8.127235"><ele>364.0</ele><time>2026-05-01T13:45:27.152Z</time></trkpt><trkpt lat="44.4613767" lon="8.127385"><ele>361.0</ele><time>2026-05-01T13:45:28.154Z</time></trkpt><trkpt lat="44.4612617" lon="8.1275167"><ele>358.0</ele><time>2026-05-01T13:45:29.156Z</time></trkpt><trkpt lat="44.4611467" lon="8.1276533"><ele>355.0</ele><time>2026-05-01T13:45:30.152Z</time></trkpt><trkpt lat="44.4610267" lon="8.1278"><ele>355.0</ele><time>2026-05-01T13:45:31.151Z</time></trkpt><trkpt lat="44.46089" lon="8.12793"><ele>355.0</ele><time>2026-05-01T13:45:32.152Z</time></trkpt><trkpt lat="44.4607617" lon="8.12806"><ele>355.0</ele><time>2026-05-01T13:45:33.154Z</time></trkpt><trkpt lat="44.4606317" lon="8.1281883"><ele>359.3333333333333</ele><time>2026-05-01T13:45:34.154Z</time></trkpt><trkpt lat="44.4604917" lon="8.1282967"><ele>363.6666666666667</ele><time>2026-05-01T13:45:35.155Z</time></trkpt><trkpt lat="44.46035" lon="8.128395"><ele>368.0</ele><time>2026-05-01T13:45:36.156Z</time></trkpt><trkpt lat="44.4602" lon="8.12848"><ele>368.0</ele><time>2026-05-01T13:45:37.161Z</time></trkpt><trkpt lat="44.460055" lon="8.1285733"><ele>368.0</ele><time>2026-05-01T13:45:38.159Z</time></trkpt><trkpt lat="44.4599117" lon="8.128665"><ele>368.0</ele><time>2026-05-01T13:45:39.155Z</time></trkpt><trkpt lat="44.4597367" lon="8.1287167"><ele>368.6666666666667</ele><time>2026-05-01T13:45:40.156Z</time></trkpt><trkpt lat="44.459575" lon="8.1287517"><ele>369.3333333333333</ele><time>2026-05-01T13:45:41.155Z</time></trkpt><trkpt lat="44.4594217" lon="8.128765"><ele>370.0</ele><time>2026-05-01T13:45:42.157Z</time></trkpt><trkpt lat="44.45927" lon="8.1287533"><ele>370.0</ele><time>2026-05-01T13:45:43.16Z</time></trkpt><trkpt lat="44.45912" lon="8.1287217"><ele>370.0</ele><time>2026-05-01T13:45:44.154Z</time></trkpt><trkpt lat="44.4589633" lon="8.1286133"><ele>370.0</ele><time>2026-05-01T13:45:45.154Z</time></trkpt><trkpt lat="44.458805" lon="8.1285"><ele>375.0</ele><time>2026-05-01T13:45:46.155Z</time></trkpt><trkpt lat="44.458655" lon="8.128415"><ele>380.0</ele><time>2026-05-01T13:45:47.155Z</time></trkpt><trkpt lat="44.4585033" lon="8.128325"><ele>385.0</ele><time>2026-05-01T13:45:48.154Z</time></trkpt><trkpt lat="44.4583483" lon="8.1282517"><ele>375.6666666666667</ele><time>2026-05-01T13:45:49.158Z</time></trkpt><trkpt lat="44.4581917" lon="8.128195"><ele>366.33333333333337</ele><time>2026-05-01T13:45:50.154Z</time></trkpt><trkpt lat="44.458035" lon="8.128165"><ele>357.0</ele><time>2026-05-01T13:45:51.158Z</time></trkpt><trkpt lat="44.4578783" lon="8.1281383"><ele>356.0</ele><time>2026-05-01T13:45:52.155Z</time></trkpt><trkpt lat="44.4577283" lon="8.1281667"><ele>355.0</ele><time>2026-05-01T13:45:53.156Z</time></trkpt><trkpt lat="44.4575833" lon="8.1282283"><ele>354.0</ele><time>2026-05-01T13:45:54.157Z</time></trkpt><trkpt lat="44.45744" lon="8.1283167"><ele>359.3333333333333</ele><time>2026-05-01T13:45:55.153Z</time></trkpt><trkpt lat="44.4572933" lon="8.1284117"><ele>364.66666666666663</ele><time>2026-05-01T13:45:56.156Z</time></trkpt><trkpt lat="44.4571383" lon="8.1285083"><ele>370.0</ele><time>2026-05-01T13:45:57.154Z</time></trkpt><trkpt lat="44.4569783" lon="8.1285967"><ele>370.0</ele><time>2026-05-01T13:45:58.154Z</time></trkpt><trkpt lat="44.4568" lon="8.12865"><ele>370.0</ele><time>2026-05-01T13:45:59.154Z</time></trkpt><trkpt lat="44.4566267" lon="8.1287067"><ele>370.0</ele><time>2026-05-01T13:46:00.152Z</time></trkpt><trkpt lat="44.4564583" lon="8.1287683"><ele>370.0</ele><time>2026-05-01T13:46:01.155Z</time></trkpt><trkpt lat="44.45629" lon="8.1288317"><ele>370.0</ele><time>2026-05-01T13:46:02.164Z</time></trkpt><trkpt lat="44.4561217" lon="8.1288917"><ele>370.0</ele><time>2026-05-01T13:46:03.159Z</time></trkpt><trkpt lat="44.45596" lon="8.1289417"><ele>368.3333333333333</ele><time>2026-05-01T13:46:04.155Z</time></trkpt><trkpt lat="44.455795" lon="8.1289967"><ele>366.6666666666667</ele><time>2026-05-01T13:46:05.158Z</time></trkpt><trkpt lat="44.4556333" lon="8.1290483"><ele>365.0</ele><time>2026-05-01T13:46:06.152Z</time></trkpt><trkpt lat="44.45547" lon="8.129105"><ele>369.33333333333337</ele><time>2026-05-01T13:46:07.154Z</time></trkpt><trkpt lat="44.45531" lon="8.1291717"><ele>373.6666666666667</ele><time>2026-05-01T13:46:08.152Z</time></trkpt><trkpt lat="44.455145" lon="8.1292433"><ele>378.0</ele><time>2026-05-01T13:46:09.156Z</time></trkpt><trkpt lat="44.4549817" lon="8.1293267"><ele>378.0</ele><time>2026-05-01T13:46:10.153Z</time></trkpt><trkpt lat="44.4548167" lon="8.129415"><ele>378.0</ele><time>2026-05-01T13:46:11.153Z</time></trkpt><trkpt lat="44.4546483" lon="8.1295083"><ele>378.0</ele><time>2026-05-01T13:46:12.155Z</time></trkpt><trkpt lat="44.4544817" lon="8.129605"><ele>378.6666666666667</ele><time>2026-05-01T13:46:13.156Z</time></trkpt><trkpt lat="44.4543133" lon="8.1297033"><ele>379.33333333333337</ele><time>2026-05-01T13:46:14.157Z</time></trkpt><trkpt lat="44.454145" lon="8.1298017"><ele>380.0</ele><time>2026-05-01T13:46:15.155Z</time></trkpt><trkpt lat="44.453975" lon="8.1299017"><ele>380.0</ele><time>2026-05-01T13:46:16.154Z</time></trkpt><trkpt lat="44.4538033" lon="8.1299983"><ele>380.0</ele><time>2026-05-01T13:46:17.153Z</time></trkpt><trkpt lat="44.4536333" lon="8.1300983"><ele>380.0</ele><time>2026-05-01T13:46:18.152Z</time></trkpt><trkpt lat="44.453465" lon="8.1302033"><ele>379.0</ele><time>2026-05-01T13:46:19.157Z</time></trkpt><trkpt lat="44.4533" lon="8.1303133"><ele>378.0</ele><time>2026-05-01T13:46:20.154Z</time></trkpt><trkpt lat="44.4531333" lon="8.1304233"><ele>377.0</ele><time>2026-05-01T13:46:21.152Z</time></trkpt><trkpt lat="44.4529667" lon="8.130535"><ele>377.0</ele><time>2026-05-01T13:46:22.155Z</time></trkpt><trkpt lat="44.4528017" lon="8.1306483"><ele>377.0</ele><time>2026-05-01T13:46:23.154Z</time></trkpt><trkpt lat="44.4526333" lon="8.1307633"><ele>377.0</ele><time>2026-05-01T13:46:24.152Z</time></trkpt><trkpt lat="44.4524667" lon="8.1308767"><ele>377.0</ele><time>2026-05-01T13:46:25.157Z</time></trkpt><trkpt lat="44.4522983" lon="8.1309967"><ele>377.0</ele><time>2026-05-01T13:46:26.153Z</time></trkpt><trkpt lat="44.4521267" lon="8.13111"><ele>377.0</ele><time>2026-05-01T13:46:27.152Z</time></trkpt><trkpt lat="44.451955" lon="8.1312167"><ele>376.0</ele><time>2026-05-01T13:46:28.156Z</time></trkpt><trkpt lat="44.451785" lon="8.13131"><ele>375.0</ele><time>2026-05-01T13:46:29.154Z</time></trkpt><trkpt lat="44.4516183" lon="8.13139"><ele>374.0</ele><time>2026-05-01T13:46:30.152Z</time></trkpt><trkpt lat="44.4514517" lon="8.1314567"><ele>372.6666666666667</ele><time>2026-05-01T13:46:31.152Z</time></trkpt><trkpt lat="44.451285" lon="8.13151"><ele>371.3333333333333</ele><time>2026-05-01T13:46:32.15Z</time></trkpt><trkpt lat="44.451125" lon="8.1315633"><ele>370.0</ele><time>2026-05-01T13:46:33.152Z</time></trkpt><trkpt lat="44.450965" lon="8.131615"><ele>373.0</ele><time>2026-05-01T13:46:34.152Z</time></trkpt><trkpt lat="44.4508067" lon="8.13167"><ele>376.0</ele><time>2026-05-01T13:46:35.152Z</time></trkpt><trkpt lat="44.4506517" lon="8.13173"><ele>379.0</ele><time>2026-05-01T13:46:36.15Z</time></trkpt><trkpt lat="44.450505" lon="8.1318083"><ele>374.66666666666663</ele><time>2026-05-01T13:46:37.155Z</time></trkpt><trkpt lat="44.4503633" lon="8.131915"><ele>370.3333333333333</ele><time>2026-05-01T13:46:38.156Z</time></trkpt><trkpt lat="44.4502367" lon="8.13205"><ele>366.0</ele><time>2026-05-01T13:46:39.154Z</time></trkpt><trkpt lat="44.4501233" lon="8.1322183"><ele>368.0</ele><time>2026-05-01T13:46:40.154Z</time></trkpt><trkpt lat="44.45003" lon="8.1324183"><ele>370.0</ele><time>2026-05-01T13:46:41.158Z</time></trkpt><trkpt lat="44.4499483" lon="8.1326333"><ele>372.0</ele><time>2026-05-01T13:46:42.154Z</time></trkpt><trkpt lat="44.4498717" lon="8.1328533"><ele>372.0</ele><time>2026-05-01T13:46:43.151Z</time></trkpt><trkpt lat="44.4498033" lon="8.13308"><ele>372.0</ele><time>2026-05-01T13:46:44.151Z</time></trkpt><trkpt lat="44.44974" lon="8.13331"><ele>372.0</ele><time>2026-05-01T13:46:45.153Z</time></trkpt><trkpt lat="44.4496917" lon="8.1335433"><ele>373.6666666666667</ele><time>2026-05-01T13:46:46.152Z</time></trkpt><trkpt lat="44.449655" lon="8.133785"><ele>375.33333333333337</ele><time>2026-05-01T13:46:47.158Z</time></trkpt><trkpt lat="44.4496317" lon="8.1340283"><ele>377.0</ele><time>2026-05-01T13:46:48.151Z</time></trkpt><trkpt lat="44.449615" lon="8.1342717"><ele>374.0</ele><time>2026-05-01T13:46:49.155Z</time></trkpt><trkpt lat="44.4495967" lon="8.1345133"><ele>371.0</ele><time>2026-05-01T13:46:50.156Z</time></trkpt><trkpt lat="44.4495717" lon="8.1347517"><ele>368.0</ele><time>2026-05-01T13:46:51.152Z</time></trkpt><trkpt lat="44.4495383" lon="8.1349817"><ele>368.0</ele><time>2026-05-01T13:46:52.151Z</time></trkpt><trkpt lat="44.4494983" lon="8.1352067"><ele>368.0</ele><time>2026-05-01T13:46:53.154Z</time></trkpt><trkpt lat="44.4494483" lon="8.13543"><ele>368.0</ele><time>2026-05-01T13:46:54.152Z</time></trkpt><trkpt lat="44.449395" lon="8.1356467"><ele>369.0</ele><time>2026-05-01T13:46:55.151Z</time></trkpt><trkpt lat="44.4493317" lon="8.1358567"><ele>370.0</ele><time>2026-05-01T13:46:56.153Z</time></trkpt><trkpt lat="44.4492733" lon="8.13607"><ele>371.0</ele><time>2026-05-01T13:46:57.149Z</time></trkpt><trkpt lat="44.4492167" lon="8.136285"><ele>371.0</ele><time>2026-05-01T13:46:58.157Z</time></trkpt><trkpt lat="44.4491567" lon="8.1364983"><ele>371.0</ele><time>2026-05-01T13:46:59.156Z</time></trkpt><trkpt lat="44.449095" lon="8.1367067"><ele>371.0</ele><time>2026-05-01T13:47:00.152Z</time></trkpt><trkpt lat="44.4490233" lon="8.1368967"><ele>370.6666666666667</ele><time>2026-05-01T13:47:01.149Z</time></trkpt><trkpt lat="44.4489417" lon="8.1370783"><ele>370.3333333333333</ele><time>2026-05-01T13:47:02.155Z</time></trkpt><trkpt lat="44.4488533" lon="8.1372583"><ele>370.0</ele><time>2026-05-01T13:47:03.157Z</time></trkpt><trkpt lat="44.4487533" lon="8.1374267"><ele>370.0</ele><time>2026-05-01T13:47:04.152Z</time></trkpt><trkpt lat="44.448655" lon="8.1375917"><ele>370.0</ele><time>2026-05-01T13:47:05.158Z</time></trkpt><trkpt lat="44.4485567" lon="8.1377567"><ele>370.0</ele><time>2026-05-01T13:47:06.156Z</time></trkpt><trkpt lat="44.44845" lon="8.13791"><ele>370.0</ele><time>2026-05-01T13:47:07.155Z</time></trkpt><trkpt lat="44.448345" lon="8.1380617"><ele>370.0</ele><time>2026-05-01T13:47:08.153Z</time></trkpt><trkpt lat="44.448235" lon="8.1382083"><ele>370.0</ele><time>2026-05-01T13:47:09.154Z</time></trkpt><trkpt lat="44.4481217" lon="8.13835"><ele>370.66666666666663</ele><time>2026-05-01T13:47:10.153Z</time></trkpt><trkpt lat="44.4480117" lon="8.1384933"><ele>371.3333333333333</ele><time>2026-05-01T13:47:11.152Z</time></trkpt><trkpt lat="44.4478983" lon="8.13864"><ele>372.0</ele><time>2026-05-01T13:47:12.152Z</time></trkpt><trkpt lat="44.4477833" lon="8.1387867"><ele>370.0</ele><time>2026-05-01T13:47:13.154Z</time></trkpt><trkpt lat="44.447675" lon="8.1389383"><ele>368.0</ele><time>2026-05-01T13:47:14.151Z</time></trkpt><trkpt lat="44.4475633" lon="8.1390917"><ele>366.0</ele><time>2026-05-01T13:47:15.151Z</time></trkpt><trkpt lat="44.4474517" lon="8.1392467"><ele>365.6666666666667</ele><time>2026-05-01T13:47:16.151Z</time></trkpt><trkpt lat="44.447335" lon="8.1394"><ele>365.33333333333337</ele><time>2026-05-01T13:47:17.153Z</time></trkpt><trkpt lat="44.4472233" lon="8.1395583"><ele>365.0</ele><time>2026-05-01T13:47:18.155Z</time></trkpt><trkpt lat="44.4471117" lon="8.139715"><ele>364.6666666666667</ele><time>2026-05-01T13:47:19.156Z</time></trkpt><trkpt lat="44.4470033" lon="8.1398733"><ele>364.3333333333333</ele><time>2026-05-01T13:47:20.153Z</time></trkpt><trkpt lat="44.44689" lon="8.14003"><ele>364.0</ele><time>2026-05-01T13:47:21.151Z</time></trkpt><trkpt lat="44.4467767" lon="8.1401833"><ele>364.0</ele><time>2026-05-01T13:47:22.151Z</time></trkpt><trkpt lat="44.4466667" lon="8.1403317"><ele>364.0</ele><time>2026-05-01T13:47:23.152Z</time></trkpt><trkpt lat="44.4465583" lon="8.1404683"><ele>364.0</ele><time>2026-05-01T13:47:24.152Z</time></trkpt><trkpt lat="44.4464533" lon="8.1406117"><ele>364.0</ele><time>2026-05-01T13:47:25.159Z</time></trkpt><trkpt lat="44.4463483" lon="8.1407517"><ele>363.75</ele><time>2026-05-01T13:47:26.153Z</time></trkpt><trkpt lat="44.4462467" lon="8.1408983"><ele>363.5</ele><time>2026-05-01T13:47:27.151Z</time></trkpt><trkpt lat="44.446145" lon="8.14104"><ele>363.25</ele><time>2026-05-01T13:47:28.155Z</time></trkpt><trkpt lat="44.4460433" lon="8.1411783"><ele>363.0</ele><time>2026-05-01T13:47:29.153Z</time></trkpt><trkpt lat="44.4459383" lon="8.1413183"><ele>363.0</ele><time>2026-05-01T13:47:30.163Z</time></trkpt><trkpt lat="44.4458383" lon="8.141455"><ele>363.0</ele><time>2026-05-01T13:47:31.155Z</time></trkpt><trkpt lat="44.44574" lon="8.1415883"><ele>363.0</ele><time>2026-05-01T13:47:32.154Z</time></trkpt><trkpt lat="44.445645" lon="8.1417217"><ele>363.0</ele><time>2026-05-01T13:47:33.152Z</time></trkpt><trkpt lat="44.4455633" lon="8.141845"><ele>363.2</ele><time>2026-05-01T13:47:34.157Z</time></trkpt><trkpt lat="44.4454917" lon="8.1419533"><ele>363.4</ele><time>2026-05-01T13:47:35.151Z</time></trkpt><trkpt lat="44.4454267" lon="8.14206"><ele>363.59999999999997</ele><time>2026-05-01T13:47:36.158Z</time></trkpt><trkpt lat="44.4453533" lon="8.14216"><ele>363.79999999999995</ele><time>2026-05-01T13:47:37.155Z</time></trkpt><trkpt lat="44.445275" lon="8.1422567"><ele>364.0</ele><time>2026-05-01T13:47:38.153Z</time></trkpt><trkpt lat="44.445195" lon="8.14235"><ele>364.2</ele><time>2026-05-01T13:47:39.154Z</time></trkpt><trkpt lat="44.4451133" lon="8.1424467"><ele>364.4</ele><time>2026-05-01T13:47:40.154Z</time></trkpt><trkpt lat="44.445035" lon="8.142545"><ele>364.6</ele><time>2026-05-01T13:47:41.154Z</time></trkpt><trkpt lat="44.4449567" lon="8.14265"><ele>364.8</ele><time>2026-05-01T13:47:42.152Z</time></trkpt><trkpt lat="44.4448733" lon="8.1427567"><ele>365.0</ele><time>2026-05-01T13:47:43.154Z</time></trkpt><trkpt lat="44.44479" lon="8.142865"><ele>365.0</ele><time>2026-05-01T13:47:44.155Z</time></trkpt><trkpt lat="44.4447017" lon="8.1429733"><ele>365.0</ele><time>2026-05-01T13:47:45.154Z</time></trkpt><trkpt lat="44.444615" lon="8.1430867"><ele>365.0</ele><time>2026-05-01T13:47:46.153Z</time></trkpt><trkpt lat="44.4445283" lon="8.1432017"><ele>365.0</ele><time>2026-05-01T13:47:47.154Z</time></trkpt><trkpt lat="44.44444" lon="8.14332"><ele>365.25</ele><time>2026-05-01T13:47:48.157Z</time></trkpt><trkpt lat="44.4443483" lon="8.143445"><ele>365.5</ele><time>2026-05-01T13:47:49.154Z</time></trkpt><trkpt lat="44.4442583" lon="8.14357"><ele>365.75</ele><time>2026-05-01T13:47:50.151Z</time></trkpt><trkpt lat="44.4441667" lon="8.143695"><ele>366.0</ele><time>2026-05-01T13:47:51.154Z</time></trkpt><trkpt lat="44.4440783" lon="8.14382"><ele>366.0</ele><time>2026-05-01T13:47:52.157Z</time></trkpt><trkpt lat="44.4439883" lon="8.14395"><ele>366.0</ele><time>2026-05-01T13:47:53.157Z</time></trkpt><trkpt lat="44.4439" lon="8.1440783"><ele>366.0</ele><time>2026-05-01T13:47:54.156Z</time></trkpt><trkpt lat="44.4438067" lon="8.1442083"><ele>366.0</ele><time>2026-05-01T13:47:55.156Z</time></trkpt><trkpt lat="44.443715" lon="8.144345"><ele>365.75</ele><time>2026-05-01T13:47:56.153Z</time></trkpt><trkpt lat="44.4436183" lon="8.14448"><ele>365.5</ele><time>2026-05-01T13:47:57.155Z</time></trkpt><trkpt lat="44.443525" lon="8.144615"><ele>365.25</ele><time>2026-05-01T13:47:58.152Z</time></trkpt><trkpt lat="44.4434217" lon="8.1447417"><ele>365.0</ele><time>2026-05-01T13:47:59.154Z</time></trkpt><trkpt lat="44.4433233" lon="8.1448717"><ele>364.5</ele><time>2026-05-01T13:48:00.156Z</time></trkpt><trkpt lat="44.4432217" lon="8.14499"><ele>364.0</ele><time>2026-05-01T13:48:01.159Z</time></trkpt><trkpt lat="44.44312" lon="8.1451067"><ele>363.5</ele><time>2026-05-01T13:48:02.154Z</time></trkpt><trkpt lat="44.4430183" lon="8.1452283"><ele>363.0</ele><time>2026-05-01T13:48:03.156Z</time></trkpt><trkpt lat="44.442935" lon="8.1453633"><ele>363.0</ele><time>2026-05-01T13:48:04.154Z</time></trkpt><trkpt lat="44.4428567" lon="8.1454783"><ele>363.0</ele><time>2026-05-01T13:48:05.156Z</time></trkpt><trkpt lat="44.4427883" lon="8.1455867"><ele>363.0</ele><time>2026-05-01T13:48:06.159Z</time></trkpt><trkpt lat="44.4427233" lon="8.1456783"><ele>363.0</ele><time>2026-05-01T13:48:07.154Z</time></trkpt><trkpt lat="44.4426583" lon="8.145745"><ele>363.0</ele><time>2026-05-01T13:48:08.154Z</time></trkpt><trkpt lat="44.44259" lon="8.14581"><ele>363.59999999999997</ele><time>2026-05-01T13:48:09.152Z</time></trkpt><trkpt lat="44.4425233" lon="8.1458833"><ele>364.2</ele><time>2026-05-01T13:48:10.166Z</time></trkpt><trkpt lat="44.4424617" lon="8.1459783"><ele>364.8</ele><time>2026-05-01T13:48:11.161Z</time></trkpt><trkpt lat="44.4424317" lon="8.1461117"><ele>365.4</ele><time>2026-05-01T13:48:12.155Z</time></trkpt><trkpt lat="44.4423917" lon="8.14626"><ele>366.0</ele><time>2026-05-01T13:48:13.154Z</time></trkpt><trkpt lat="44.4423517" lon="8.146415"><ele>367.0</ele><time>2026-05-01T13:48:14.155Z</time></trkpt><trkpt lat="44.4423133" lon="8.14658"><ele>368.0</ele><time>2026-05-01T13:48:15.152Z</time></trkpt><trkpt lat="44.44227" lon="8.14675"><ele>369.0</ele><time>2026-05-01T13:48:16.157Z</time></trkpt><trkpt lat="44.4422233" lon="8.14693"><ele>370.0</ele><time>2026-05-01T13:48:17.152Z</time></trkpt><trkpt lat="44.4421717" lon="8.1471217"><ele>369.25</ele><time>2026-05-01T13:48:18.153Z</time></trkpt><trkpt lat="44.4421183" lon="8.1473117"><ele>368.5</ele><time>2026-05-01T13:48:19.154Z</time></trkpt><trkpt lat="44.4420567" lon="8.1474967"><ele>367.75</ele><time>2026-05-01T13:48:20.156Z</time></trkpt><trkpt lat="44.4419933" lon="8.1476733"><ele>367.0</ele><time>2026-05-01T13:48:21.153Z</time></trkpt><trkpt lat="44.4419283" lon="8.1478533"><ele>367.0</ele><time>2026-05-01T13:48:22.152Z</time></trkpt><trkpt lat="44.4418583" lon="8.1480317"><ele>367.0</ele><time>2026-05-01T13:48:23.156Z</time></trkpt><trkpt lat="44.441775" lon="8.1482067"><ele>367.0</ele><time>2026-05-01T13:48:24.154Z</time></trkpt><trkpt lat="44.44168" lon="8.148375"><ele>367.0</ele><time>2026-05-01T13:48:25.158Z</time></trkpt><trkpt lat="44.441575" lon="8.148535"><ele>365.66666666666663</ele><time>2026-05-01T13:48:26.152Z</time></trkpt><trkpt lat="44.441455" lon="8.1486767"><ele>364.3333333333333</ele><time>2026-05-01T13:48:27.151Z</time></trkpt><trkpt lat="44.441325" lon="8.1488033"><ele>363.0</ele><time>2026-05-01T13:48:28.152Z</time></trkpt><trkpt lat="44.44119" lon="8.1489217"><ele>363.0</ele><time>2026-05-01T13:48:29.153Z</time></trkpt><trkpt lat="44.4410583" lon="8.1490333"><ele>363.0</ele><time>2026-05-01T13:48:30.149Z</time></trkpt><trkpt lat="44.44093" lon="8.14914"><ele>363.0</ele><time>2026-05-01T13:48:31.157Z</time></trkpt><trkpt lat="44.4408017" lon="8.14924"><ele>364.0</ele><time>2026-05-01T13:48:32.158Z</time></trkpt><trkpt lat="44.4406783" lon="8.1493417"><ele>365.0</ele><time>2026-05-01T13:48:33.152Z</time></trkpt><trkpt lat="44.4405517" lon="8.1494383"><ele>366.0</ele><time>2026-05-01T13:48:34.155Z</time></trkpt><trkpt lat="44.4404267" lon="8.1495367"><ele>367.0</ele><time>2026-05-01T13:48:35.151Z</time></trkpt><trkpt lat="44.4402883" lon="8.1496267"><ele>367.0</ele><time>2026-05-01T13:48:36.154Z</time></trkpt><trkpt lat="44.440155" lon="8.1497183"><ele>367.0</ele><time>2026-05-01T13:48:37.157Z</time></trkpt><trkpt lat="44.440035" lon="8.1498233"><ele>367.0</ele><time>2026-05-01T13:48:38.157Z</time></trkpt><trkpt lat="44.4399167" lon="8.149935"><ele>367.0</ele><time>2026-05-01T13:48:39.152Z</time></trkpt><trkpt lat="44.4398" lon="8.1500483"><ele>366.75</ele><time>2026-05-01T13:48:40.156Z</time></trkpt><trkpt lat="44.439685" lon="8.150165"><ele>366.5</ele><time>2026-05-01T13:48:41.151Z</time></trkpt><trkpt lat="44.4395783" lon="8.1502917"><ele>366.25</ele><time>2026-05-01T13:48:42.153Z</time></trkpt><trkpt lat="44.4394767" lon="8.150425"><ele>366.0</ele><time>2026-05-01T13:48:43.154Z</time></trkpt><trkpt lat="44.4393833" lon="8.1505467"><ele>366.0</ele><time>2026-05-01T13:48:44.155Z</time></trkpt><trkpt lat="44.4393" lon="8.1506717"><ele>366.0</ele><time>2026-05-01T13:48:45.159Z</time></trkpt><trkpt lat="44.439225" lon="8.150795"><ele>366.0</ele><time>2026-05-01T13:48:46.154Z</time></trkpt><trkpt lat="44.43915" lon="8.15092"><ele>366.0</ele><time>2026-05-01T13:48:47.151Z</time></trkpt><trkpt lat="44.4390717" lon="8.1510417"><ele>367.0</ele><time>2026-05-01T13:48:48.149Z</time></trkpt><trkpt lat="44.4389933" lon="8.1511683"><ele>368.0</ele><time>2026-05-01T13:48:49.156Z</time></trkpt><trkpt lat="44.4389133" lon="8.1513"><ele>369.0</ele><time>2026-05-01T13:48:50.155Z</time></trkpt><trkpt lat="44.4388317" lon="8.1514317"><ele>370.0</ele><time>2026-05-01T13:48:51.154Z</time></trkpt><trkpt lat="44.4387483" lon="8.1515667"><ele>370.0</ele><time>2026-05-01T13:48:52.151Z</time></trkpt><trkpt lat="44.4386633" lon="8.1517067"><ele>370.0</ele><time>2026-05-01T13:48:53.156Z</time></trkpt><trkpt lat="44.4385767" lon="8.1518517"><ele>370.0</ele><time>2026-05-01T13:48:54.154Z</time></trkpt><trkpt lat="44.4384867" lon="8.1519983"><ele>370.0</ele><time>2026-05-01T13:48:55.155Z</time></trkpt><trkpt lat="44.43839" lon="8.1521517"><ele>370.0</ele><time>2026-05-01T13:48:56.15Z</time></trkpt><trkpt lat="44.438295" lon="8.1523033"><ele>370.0</ele><time>2026-05-01T13:48:57.154Z</time></trkpt><trkpt lat="44.4382017" lon="8.1524633"><ele>370.0</ele><time>2026-05-01T13:48:58.156Z</time></trkpt><trkpt lat="44.4381133" lon="8.15262"><ele>370.0</ele><time>2026-05-01T13:48:59.152Z</time></trkpt><trkpt lat="44.4380183" lon="8.1527833"><ele>369.75</ele><time>2026-05-01T13:49:00.154Z</time></trkpt><trkpt lat="44.4379383" lon="8.152945"><ele>369.5</ele><time>2026-05-01T13:49:01.154Z</time></trkpt><trkpt lat="44.4378683" lon="8.1531067"><ele>369.25</ele><time>2026-05-01T13:49:02.155Z</time></trkpt><trkpt lat="44.437805" lon="8.1532767"><ele>369.0</ele><time>2026-05-01T13:49:03.151Z</time></trkpt><trkpt lat="44.4377517" lon="8.1534433"><ele>371.0</ele><time>2026-05-01T13:49:04.153Z</time></trkpt><trkpt lat="44.4377017" lon="8.1536083"><ele>373.0</ele><time>2026-05-01T13:49:05.155Z</time></trkpt><trkpt lat="44.43766" lon="8.1537683"><ele>375.0</ele><time>2026-05-01T13:49:06.15Z</time></trkpt><trkpt lat="44.4376183" lon="8.1539233"><ele>377.0</ele><time>2026-05-01T13:49:07.151Z</time></trkpt><trkpt lat="44.43758" lon="8.1540733"><ele>378.0</ele><time>2026-05-01T13:49:08.156Z</time></trkpt><trkpt lat="44.437545" lon="8.154225"><ele>379.0</ele><time>2026-05-01T13:49:09.153Z</time></trkpt><trkpt lat="44.4375067" lon="8.1543767"><ele>380.0</ele><time>2026-05-01T13:49:10.154Z</time></trkpt><trkpt lat="44.437465" lon="8.1545267"><ele>381.0</ele><time>2026-05-01T13:49:11.153Z</time></trkpt><trkpt lat="44.4374167" lon="8.1546783"><ele>381.0</ele><time>2026-05-01T13:49:12.156Z</time></trkpt><trkpt lat="44.437365" lon="8.154825"><ele>381.0</ele><time>2026-05-01T13:49:13.153Z</time></trkpt><trkpt lat="44.4373017" lon="8.154965"><ele>381.0</ele><time>2026-05-01T13:49:14.153Z</time></trkpt><trkpt lat="44.4372367" lon="8.1551017"><ele>381.0</ele><time>2026-05-01T13:49:15.148Z</time></trkpt><trkpt lat="44.43717" lon="8.1552283"><ele>379.6</ele><time>2026-05-01T13:49:16.152Z</time></trkpt><trkpt lat="44.437115" lon="8.1553583"><ele>378.20000000000005</ele><time>2026-05-01T13:49:17.153Z</time></trkpt><trkpt lat="44.4370783" lon="8.1554967"><ele>376.79999999999995</ele><time>2026-05-01T13:49:18.152Z</time></trkpt><trkpt lat="44.4370583" lon="8.155635"><ele>375.4</ele><time>2026-05-01T13:49:19.15Z</time></trkpt><trkpt lat="44.4370533" lon="8.1557733"><ele>374.0</ele><time>2026-05-01T13:49:20.157Z</time></trkpt><trkpt lat="44.4370483" lon="8.155915"><ele>374.0</ele><time>2026-05-01T13:49:21.153Z</time></trkpt><trkpt lat="44.437055" lon="8.15606"><ele>374.0</ele><time>2026-05-01T13:49:22.156Z</time></trkpt><trkpt lat="44.4370567" lon="8.1562067"><ele>374.0</ele><time>2026-05-01T13:49:23.154Z</time></trkpt><trkpt lat="44.4370517" lon="8.15636"><ele>374.0</ele><time>2026-05-01T13:49:24.155Z</time></trkpt><trkpt lat="44.4370383" lon="8.1565167"><ele>374.0</ele><time>2026-05-01T13:49:25.157Z</time></trkpt><trkpt lat="44.43702" lon="8.1566767"><ele>374.0</ele><time>2026-05-01T13:49:26.155Z</time></trkpt><trkpt lat="44.4369767" lon="8.1568367"><ele>374.0</ele><time>2026-05-01T13:49:27.153Z</time></trkpt><trkpt lat="44.436935" lon="8.1569983"><ele>374.0</ele><time>2026-05-01T13:49:28.155Z</time></trkpt><trkpt lat="44.4368967" lon="8.1571533"><ele>374.0</ele><time>2026-05-01T13:49:29.156Z</time></trkpt><trkpt lat="44.4368583" lon="8.157315"><ele>373.75</ele><time>2026-05-01T13:49:30.154Z</time></trkpt><trkpt lat="44.4368233" lon="8.1574817"><ele>373.5</ele><time>2026-05-01T13:49:31.153Z</time></trkpt><trkpt lat="44.4367817" lon="8.1576517"><ele>373.25</ele><time>2026-05-01T13:49:32.153Z</time></trkpt><trkpt lat="44.43674" lon="8.157825"><ele>373.0</ele><time>2026-05-01T13:49:33.152Z</time></trkpt><trkpt lat="44.4367" lon="8.1579983"><ele>373.0</ele><time>2026-05-01T13:49:34.151Z</time></trkpt><trkpt lat="44.43666" lon="8.1581733"><ele>373.0</ele><time>2026-05-01T13:49:35.154Z</time></trkpt><trkpt lat="44.4366217" lon="8.158355"><ele>373.0</ele><time>2026-05-01T13:49:36.152Z</time></trkpt><trkpt lat="44.4365883" lon="8.1585467"><ele>373.0</ele><time>2026-05-01T13:49:37.154Z</time></trkpt><trkpt lat="44.4365683" lon="8.1587483"><ele>373.0</ele><time>2026-05-01T13:49:38.157Z</time></trkpt><trkpt lat="44.4365583" lon="8.158965"><ele>373.0</ele><time>2026-05-01T13:49:39.157Z</time></trkpt><trkpt lat="44.4365567" lon="8.15919"><ele>373.0</ele><time>2026-05-01T13:49:40.157Z</time></trkpt><trkpt lat="44.436565" lon="8.1594433"><ele>373.3333333333333</ele><time>2026-05-01T13:49:41.157Z</time></trkpt><trkpt lat="44.4365733" lon="8.15974"><ele>373.6666666666667</ele><time>2026-05-01T13:49:42.159Z</time></trkpt><trkpt lat="44.4365767" lon="8.160055"><ele>374.0</ele><time>2026-05-01T13:49:43.155Z</time></trkpt><trkpt lat="44.4365817" lon="8.1603617"><ele>375.0</ele><time>2026-05-01T13:49:44.152Z</time></trkpt><trkpt lat="44.4365983" lon="8.160665"><ele>376.0</ele><time>2026-05-01T13:49:45.152Z</time></trkpt><trkpt lat="44.4366233" lon="8.1609583"><ele>377.0</ele><time>2026-05-01T13:49:46.155Z</time></trkpt><trkpt lat="44.43666" lon="8.1612417"><ele>377.33333333333337</ele><time>2026-05-01T13:49:47.158Z</time></trkpt><trkpt lat="44.43671" lon="8.1615133"><ele>377.6666666666667</ele><time>2026-05-01T13:49:48.154Z</time></trkpt><trkpt lat="44.4367617" lon="8.16178"><ele>378.0</ele><time>2026-05-01T13:49:49.154Z</time></trkpt><trkpt lat="44.4368117" lon="8.1620433"><ele>378.0</ele><time>2026-05-01T13:49:50.149Z</time></trkpt><trkpt lat="44.4368617" lon="8.1623"><ele>378.0</ele><time>2026-05-01T13:49:51.153Z</time></trkpt><trkpt lat="44.4368967" lon="8.16255"><ele>378.0</ele><time>2026-05-01T13:49:52.15Z</time></trkpt><trkpt lat="44.43691" lon="8.1628033"><ele>377.3333333333333</ele><time>2026-05-01T13:49:53.151Z</time></trkpt><trkpt lat="44.43691" lon="8.1630517"><ele>376.66666666666663</ele><time>2026-05-01T13:49:54.151Z</time></trkpt><trkpt lat="44.4369067" lon="8.1632967"><ele>376.0</ele><time>2026-05-01T13:49:55.152Z</time></trkpt><trkpt lat="44.43691" lon="8.1635383"><ele>378.0</ele><time>2026-05-01T13:49:56.151Z</time></trkpt><trkpt lat="44.43692" lon="8.1637767"><ele>380.0</ele><time>2026-05-01T13:49:57.152Z</time></trkpt><trkpt lat="44.436925" lon="8.16401"><ele>382.0</ele><time>2026-05-01T13:49:58.15Z</time></trkpt><trkpt lat="44.4369217" lon="8.164245"><ele>382.0</ele><time>2026-05-01T13:49:59.155Z</time></trkpt><trkpt lat="44.4369083" lon="8.164485"><ele>382.0</ele><time>2026-05-01T13:50:00.149Z</time></trkpt><trkpt lat="44.4368883" lon="8.1647183"><ele>382.0</ele><time>2026-05-01T13:50:01.16Z</time></trkpt><trkpt lat="44.436855" lon="8.1649467"><ele>382.3333333333333</ele><time>2026-05-01T13:50:02.161Z</time></trkpt><trkpt lat="44.43681" lon="8.16517"><ele>382.6666666666667</ele><time>2026-05-01T13:50:03.156Z</time></trkpt><trkpt lat="44.4367517" lon="8.1653883"><ele>383.0</ele><time>2026-05-01T13:50:04.152Z</time></trkpt><trkpt lat="44.43668" lon="8.1656033"><ele>386.33333333333337</ele><time>2026-05-01T13:50:05.154Z</time></trkpt><trkpt lat="44.4366017" lon="8.1658117"><ele>389.6666666666667</ele><time>2026-05-01T13:50:06.157Z</time></trkpt><trkpt lat="44.4365217" lon="8.1660067"><ele>393.0</ele><time>2026-05-01T13:50:07.151Z</time></trkpt><trkpt lat="44.4364283" lon="8.166205"><ele>393.0</ele><time>2026-05-01T13:50:08.154Z</time></trkpt><trkpt lat="44.4363233" lon="8.1663917"><ele>393.0</ele><time>2026-05-01T13:50:09.16Z</time></trkpt><trkpt lat="44.4362083" lon="8.166565"><ele>393.0</ele><time>2026-05-01T13:50:10.15Z</time></trkpt><trkpt lat="44.4360883" lon="8.1667317"><ele>389.3333333333333</ele><time>2026-05-01T13:50:11.156Z</time></trkpt><trkpt lat="44.435965" lon="8.1668883"><ele>385.66666666666663</ele><time>2026-05-01T13:50:12.157Z</time></trkpt><trkpt lat="44.4358367" lon="8.16703"><ele>382.0</ele><time>2026-05-01T13:50:13.153Z</time></trkpt><trkpt lat="44.4357017" lon="8.167165"><ele>382.0</ele><time>2026-05-01T13:50:14.155Z</time></trkpt><trkpt lat="44.435565" lon="8.1673033"><ele>382.0</ele><time>2026-05-01T13:50:15.152Z</time></trkpt><trkpt lat="44.435425" lon="8.167445"><ele>382.0</ele><time>2026-05-01T13:50:16.153Z</time></trkpt><trkpt lat="44.4352833" lon="8.16759"><ele>380.66666666666663</ele><time>2026-05-01T13:50:17.153Z</time></trkpt><trkpt lat="44.4351433" lon="8.1677367"><ele>379.3333333333333</ele><time>2026-05-01T13:50:18.152Z</time></trkpt><trkpt lat="44.4349967" lon="8.1678833"><ele>378.0</ele><time>2026-05-01T13:50:19.153Z</time></trkpt><trkpt lat="44.4348483" lon="8.1680267"><ele>378.0</ele><time>2026-05-01T13:50:20.153Z</time></trkpt><trkpt lat="44.4347017" lon="8.1681683"><ele>378.0</ele><time>2026-05-01T13:50:21.154Z</time></trkpt><trkpt lat="44.4345583" lon="8.1683183"><ele>378.0</ele><time>2026-05-01T13:50:22.152Z</time></trkpt><trkpt lat="44.4344283" lon="8.168485"><ele>379.6666666666667</ele><time>2026-05-01T13:50:23.157Z</time></trkpt><trkpt lat="44.4343183" lon="8.1686717"><ele>381.33333333333337</ele><time>2026-05-01T13:50:24.158Z</time></trkpt><trkpt lat="44.4342183" lon="8.16886"><ele>383.0</ele><time>2026-05-01T13:50:25.158Z</time></trkpt><trkpt lat="44.4341217" lon="8.1690417"><ele>383.0</ele><time>2026-05-01T13:50:26.156Z</time></trkpt><trkpt lat="44.4340283" lon="8.1692167"><ele>383.0</ele><time>2026-05-01T13:50:27.153Z</time></trkpt><trkpt lat="44.43393" lon="8.1693833"><ele>383.0</ele><time>2026-05-01T13:50:28.152Z</time></trkpt><trkpt lat="44.43382" lon="8.16953"><ele>379.6666666666667</ele><time>2026-05-01T13:50:29.155Z</time></trkpt><trkpt lat="44.4336933" lon="8.1696617"><ele>376.3333333333333</ele><time>2026-05-01T13:50:30.154Z</time></trkpt><trkpt lat="44.433555" lon="8.169765"><ele>373.0</ele><time>2026-05-01T13:50:31.148Z</time></trkpt><trkpt lat="44.4334" lon="8.1698433"><ele>377.3333333333333</ele><time>2026-05-01T13:50:32.15Z</time></trkpt><trkpt lat="44.43323" lon="8.1698967"><ele>381.66666666666663</ele><time>2026-05-01T13:50:33.152Z</time></trkpt><trkpt lat="44.4330567" lon="8.1699467"><ele>386.0</ele><time>2026-05-01T13:50:34.151Z</time></trkpt><trkpt lat="44.4328783" lon="8.1699933"><ele>386.0</ele><time>2026-05-01T13:50:35.152Z</time></trkpt><trkpt lat="44.4327033" lon="8.17004"><ele>386.0</ele><time>2026-05-01T13:50:36.152Z</time></trkpt><trkpt lat="44.4325333" lon="8.1700933"><ele>386.0</ele><time>2026-05-01T13:50:37.152Z</time></trkpt><trkpt lat="44.4323667" lon="8.1701267"><ele>386.0</ele><time>2026-05-01T13:50:38.155Z</time></trkpt><trkpt lat="44.4321983" lon="8.1701483"><ele>386.0</ele><time>2026-05-01T13:50:39.152Z</time></trkpt><trkpt lat="44.4320283" lon="8.1701717"><ele>386.0</ele><time>2026-05-01T13:50:40.152Z</time></trkpt><trkpt lat="44.4318567" lon="8.170185"><ele>384.66666666666663</ele><time>2026-05-01T13:50:41.155Z</time></trkpt><trkpt lat="44.4316867" lon="8.1702"><ele>383.3333333333333</ele><time>2026-05-01T13:50:42.155Z</time></trkpt><trkpt lat="44.4315117" lon="8.17021"><ele>382.0</ele><time>2026-05-01T13:50:43.153Z</time></trkpt><trkpt lat="44.43134" lon="8.1702267"><ele>380.3333333333333</ele><time>2026-05-01T13:50:44.155Z</time></trkpt><trkpt lat="44.4311733" lon="8.17025"><ele>378.6666666666667</ele><time>2026-05-01T13:50:45.16Z</time></trkpt><trkpt lat="44.43101" lon="8.17028"><ele>377.0</ele><time>2026-05-01T13:50:46.159Z</time></trkpt><trkpt lat="44.430855" lon="8.1703233"><ele>377.0</ele><time>2026-05-01T13:50:47.155Z</time></trkpt><trkpt lat="44.4306967" lon="8.1703583"><ele>377.0</ele><time>2026-05-01T13:50:48.151Z</time></trkpt><trkpt lat="44.4305367" lon="8.1703933"><ele>377.0</ele><time>2026-05-01T13:50:49.157Z</time></trkpt><trkpt lat="44.4303867" lon="8.17043"><ele>376.0</ele><time>2026-05-01T13:50:50.156Z</time></trkpt><trkpt lat="44.4302317" lon="8.1704483"><ele>375.0</ele><time>2026-05-01T13:50:51.153Z</time></trkpt><trkpt lat="44.43008" lon="8.17048"><ele>374.0</ele><time>2026-05-01T13:50:52.163Z</time></trkpt><trkpt lat="44.4299317" lon="8.1705067"><ele>374.0</ele><time>2026-05-01T13:50:53.158Z</time></trkpt><trkpt lat="44.4297833" lon="8.1705383"><ele>374.0</ele><time>2026-05-01T13:50:54.151Z</time></trkpt><trkpt lat="44.429635" lon="8.170585"><ele>374.0</ele><time>2026-05-01T13:50:55.157Z</time></trkpt><trkpt lat="44.4294883" lon="8.1706483"><ele>376.6666666666667</ele><time>2026-05-01T13:50:56.155Z</time></trkpt><trkpt lat="44.4293533" lon="8.1707367"><ele>379.3333333333333</ele><time>2026-05-01T13:50:57.156Z</time></trkpt><trkpt lat="44.429215" lon="8.1708417"><ele>382.0</ele><time>2026-05-01T13:50:58.15Z</time></trkpt><trkpt lat="44.4290817" lon="8.1709617"><ele>382.0</ele><time>2026-05-01T13:50:59.151Z</time></trkpt><trkpt lat="44.4289533" lon="8.1710883"><ele>382.0</ele><time>2026-05-01T13:51:00.151Z</time></trkpt><trkpt lat="44.4288217" lon="8.1712133"><ele>382.0</ele><time>2026-05-01T13:51:01.154Z</time></trkpt><trkpt lat="44.4286883" lon="8.1713317"><ele>382.0</ele><time>2026-05-01T13:51:02.152Z</time></trkpt><trkpt lat="44.4285633" lon="8.1714417"><ele>382.0</ele><time>2026-05-01T13:51:03.152Z</time></trkpt><trkpt lat="44.4284433" lon="8.1715433"><ele>382.0</ele><time>2026-05-01T13:51:04.154Z</time></trkpt><trkpt lat="44.42833" lon="8.17164"><ele>382.0</ele><time>2026-05-01T13:51:05.152Z</time></trkpt><trkpt lat="44.4282183" lon="8.1717283"><ele>382.0</ele><time>2026-05-01T13:51:06.153Z</time></trkpt><trkpt lat="44.428105" lon="8.171805"><ele>382.0</ele><time>2026-05-01T13:51:07.15Z</time></trkpt><trkpt lat="44.4280017" lon="8.1719"><ele>382.0</ele><time>2026-05-01T13:51:08.154Z</time></trkpt><trkpt lat="44.4278933" lon="8.171965"><ele>382.0</ele><time>2026-05-01T13:51:09.157Z</time></trkpt><trkpt lat="44.427785" lon="8.17202"><ele>380.5</ele><time>2026-05-01T13:51:10.157Z</time></trkpt><trkpt lat="44.4276783" lon="8.1720783"><ele>379.0</ele><time>2026-05-01T13:51:11.153Z</time></trkpt><trkpt lat="44.4275667" lon="8.1721283"><ele>377.5</ele><time>2026-05-01T13:51:12.154Z</time></trkpt><trkpt lat="44.42745" lon="8.1721783"><ele>376.0</ele><time>2026-05-01T13:51:13.157Z</time></trkpt><trkpt lat="44.4273333" lon="8.172225"><ele>376.0</ele><time>2026-05-01T13:51:14.157Z</time></trkpt><trkpt lat="44.4272133" lon="8.1722717"><ele>376.0</ele><time>2026-05-01T13:51:15.153Z</time></trkpt><trkpt lat="44.42709" lon="8.1723133"><ele>376.0</ele><time>2026-05-01T13:51:16.156Z</time></trkpt><trkpt lat="44.4269667" lon="8.1723533"><ele>376.0</ele><time>2026-05-01T13:51:17.156Z</time></trkpt><trkpt lat="44.42684" lon="8.1723933"><ele>377.5</ele><time>2026-05-01T13:51:18.156Z</time></trkpt><trkpt lat="44.4267117" lon="8.172435"><ele>379.0</ele><time>2026-05-01T13:51:19.155Z</time></trkpt><trkpt lat="44.4265783" lon="8.17247"><ele>380.5</ele><time>2026-05-01T13:51:20.157Z</time></trkpt><trkpt lat="44.42645" lon="8.1725117"><ele>382.0</ele><time>2026-05-01T13:51:21.159Z</time></trkpt><trkpt lat="44.426325" lon="8.1725517"><ele>381.75</ele><time>2026-05-01T13:51:22.157Z</time></trkpt><trkpt lat="44.4262017" lon="8.17259"><ele>381.5</ele><time>2026-05-01T13:51:23.158Z</time></trkpt><trkpt lat="44.4260783" lon="8.1726217"><ele>381.25</ele><time>2026-05-01T13:51:24.153Z</time></trkpt><trkpt lat="44.425955" lon="8.1726483"><ele>381.0</ele><time>2026-05-01T13:51:25.155Z</time></trkpt><trkpt lat="44.425835" lon="8.1726783"><ele>381.0</ele><time>2026-05-01T13:51:26.155Z</time></trkpt><trkpt lat="44.4257133" lon="8.1727017"><ele>381.0</ele><time>2026-05-01T13:51:27.153Z</time></trkpt><trkpt lat="44.425605" lon="8.1727467"><ele>381.0</ele><time>2026-05-01T13:51:28.156Z</time></trkpt><trkpt lat="44.4255" lon="8.172785"><ele>381.0</ele><time>2026-05-01T13:51:29.154Z</time></trkpt><trkpt lat="44.4253883" lon="8.17282"><ele>380.25</ele><time>2026-05-01T13:51:30.155Z</time></trkpt><trkpt lat="44.4252783" lon="8.1728517"><ele>379.5</ele><time>2026-05-01T13:51:31.153Z</time></trkpt><trkpt lat="44.4251683" lon="8.17289"><ele>378.75</ele><time>2026-05-01T13:51:32.152Z</time></trkpt><trkpt lat="44.4250533" lon="8.1729267"><ele>378.0</ele><time>2026-05-01T13:51:33.151Z</time></trkpt><trkpt lat="44.424935" lon="8.1729617"><ele>378.0</ele><time>2026-05-01T13:51:34.152Z</time></trkpt><trkpt lat="44.4248117" lon="8.17299"><ele>378.0</ele><time>2026-05-01T13:51:35.15Z</time></trkpt><trkpt lat="44.42469" lon="8.1730233"><ele>378.0</ele><time>2026-05-01T13:51:36.151Z</time></trkpt><trkpt lat="44.42457" lon="8.17306"><ele>378.0</ele><time>2026-05-01T13:51:37.153Z</time></trkpt><trkpt lat="44.4244433" lon="8.1731"><ele>377.75</ele><time>2026-05-01T13:51:38.153Z</time></trkpt><trkpt lat="44.4243133" lon="8.1731433"><ele>377.5</ele><time>2026-05-01T13:51:39.153Z</time></trkpt><trkpt lat="44.4241783" lon="8.173185"><ele>377.25</ele><time>2026-05-01T13:51:40.155Z</time></trkpt><trkpt lat="44.42404" lon="8.1732283"><ele>377.0</ele><time>2026-05-01T13:51:41.153Z</time></trkpt><trkpt lat="44.4239017" lon="8.17327"><ele>377.5</ele><time>2026-05-01T13:51:42.156Z</time></trkpt><trkpt lat="44.42376" lon="8.1733117"><ele>378.0</ele><time>2026-05-01T13:51:43.154Z</time></trkpt><trkpt lat="44.423615" lon="8.17335"><ele>378.5</ele><time>2026-05-01T13:51:44.15Z</time></trkpt><trkpt lat="44.4234683" lon="8.1733833"><ele>379.0</ele><time>2026-05-01T13:51:45.153Z</time></trkpt><trkpt lat="44.42332" lon="8.1734167"><ele>379.0</ele><time>2026-05-01T13:51:46.151Z</time></trkpt><trkpt lat="44.4231683" lon="8.1734367"><ele>379.0</ele><time>2026-05-01T13:51:47.157Z</time></trkpt><trkpt lat="44.423015" lon="8.1734533"><ele>379.0</ele><time>2026-05-01T13:51:48.151Z</time></trkpt><trkpt lat="44.4228633" lon="8.17346"><ele>379.0</ele><time>2026-05-01T13:51:49.15Z</time></trkpt><trkpt lat="44.422715" lon="8.1734567"><ele>379.0</ele><time>2026-05-01T13:51:50.153Z</time></trkpt><trkpt lat="44.4225717" lon="8.1734467"><ele>379.0</ele><time>2026-05-01T13:51:51.153Z</time></trkpt><trkpt lat="44.4224283" lon="8.17343"><ele>379.0</ele><time>2026-05-01T13:51:52.153Z</time></trkpt><trkpt lat="44.42229" lon="8.1734"><ele>379.0</ele><time>2026-05-01T13:51:53.152Z</time></trkpt><trkpt lat="44.4221483" lon="8.173365"><ele>379.0</ele><time>2026-05-01T13:51:54.155Z</time></trkpt><trkpt lat="44.4220083" lon="8.1733283"><ele>379.0</ele><time>2026-05-01T13:51:55.151Z</time></trkpt><trkpt lat="44.4218683" lon="8.1732883"><ele>379.0</ele><time>2026-05-01T13:51:56.153Z</time></trkpt><trkpt lat="44.4217283" lon="8.1732467"><ele>379.0</ele><time>2026-05-01T13:51:57.151Z</time></trkpt><trkpt lat="44.42159" lon="8.1732033"><ele>379.0</ele><time>2026-05-01T13:51:58.15Z</time></trkpt><trkpt lat="44.4214533" lon="8.1731617"><ele>379.0</ele><time>2026-05-01T13:51:59.159Z</time></trkpt><trkpt lat="44.4213167" lon="8.173115"><ele>379.0</ele><time>2026-05-01T13:52:00.154Z</time></trkpt><trkpt lat="44.42118" lon="8.1730767"><ele>379.0</ele><time>2026-05-01T13:52:01.155Z</time></trkpt><trkpt lat="44.4210417" lon="8.173035"><ele>379.0</ele><time>2026-05-01T13:52:02.154Z</time></trkpt><trkpt lat="44.420905" lon="8.1729917"><ele>379.0</ele><time>2026-05-01T13:52:03.152Z</time></trkpt><trkpt lat="44.4207717" lon="8.17294"><ele>379.0</ele><time>2026-05-01T13:52:04.153Z</time></trkpt><trkpt lat="44.4206383" lon="8.1728767"><ele>379.0</ele><time>2026-05-01T13:52:05.156Z</time></trkpt><trkpt lat="44.4205117" lon="8.1727983"><ele>379.0</ele><time>2026-05-01T13:52:06.153Z</time></trkpt><trkpt lat="44.420395" lon="8.172695"><ele>379.0</ele><time>2026-05-01T13:52:07.156Z</time></trkpt><trkpt lat="44.42028" lon="8.172575"><ele>379.0</ele><time>2026-05-01T13:52:08.152Z</time></trkpt><trkpt lat="44.42017" lon="8.1724383"><ele>378.3333333333333</ele><time>2026-05-01T13:52:09.156Z</time></trkpt><trkpt lat="44.4200583" lon="8.1722983"><ele>377.6666666666667</ele><time>2026-05-01T13:52:10.151Z</time></trkpt><trkpt lat="44.41994" lon="8.1721567"><ele>377.0</ele><time>2026-05-01T13:52:11.153Z</time></trkpt><trkpt lat="44.4198117" lon="8.17202"><ele>377.0</ele><time>2026-05-01T13:52:12.153Z</time></trkpt><trkpt lat="44.419675" lon="8.1719"><ele>377.0</ele><time>2026-05-01T13:52:13.152Z</time></trkpt><trkpt lat="44.4195317" lon="8.171805"><ele>377.0</ele><time>2026-05-01T13:52:14.154Z</time></trkpt><trkpt lat="44.4193817" lon="8.1717233"><ele>375.6666666666667</ele><time>2026-05-01T13:52:15.156Z</time></trkpt><trkpt lat="44.4192267" lon="8.1716467"><ele>374.3333333333333</ele><time>2026-05-01T13:52:16.153Z</time></trkpt><trkpt lat="44.4190667" lon="8.1715783"><ele>373.0</ele><time>2026-05-01T13:52:17.156Z</time></trkpt><trkpt lat="44.4189067" lon="8.1715067"><ele>375.3333333333333</ele><time>2026-05-01T13:52:18.159Z</time></trkpt><trkpt lat="44.4187467" lon="8.1714383"><ele>377.6666666666667</ele><time>2026-05-01T13:52:19.152Z</time></trkpt><trkpt lat="44.4185867" lon="8.1713717"><ele>380.0</ele><time>2026-05-01T13:52:20.156Z</time></trkpt><trkpt lat="44.41843" lon="8.1713033"><ele>380.0</ele><time>2026-05-01T13:52:21.156Z</time></trkpt><trkpt lat="44.418275" lon="8.1712367"><ele>380.0</ele><time>2026-05-01T13:52:22.152Z</time></trkpt><trkpt lat="44.4181183" lon="8.1711883"><ele>380.0</ele><time>2026-05-01T13:52:23.154Z</time></trkpt><trkpt lat="44.4179583" lon="8.17117"><ele>381.0</ele><time>2026-05-01T13:52:24.152Z</time></trkpt><trkpt lat="44.4177983" lon="8.1711783"><ele>382.0</ele><time>2026-05-01T13:52:25.154Z</time></trkpt><trkpt lat="44.4176367" lon="8.1712017"><ele>383.0</ele><time>2026-05-01T13:52:26.152Z</time></trkpt><trkpt lat="44.41748" lon="8.1712317"><ele>383.0</ele><time>2026-05-01T13:52:27.15Z</time></trkpt><trkpt lat="44.417325" lon="8.171255"><ele>383.0</ele><time>2026-05-01T13:52:28.157Z</time></trkpt><trkpt lat="44.417175" lon="8.1712617"><ele>383.0</ele><time>2026-05-01T13:52:29.158Z</time></trkpt><trkpt lat="44.4170267" lon="8.1712467"><ele>384.0</ele><time>2026-05-01T13:52:30.153Z</time></trkpt><trkpt lat="44.41688" lon="8.1712083"><ele>385.0</ele><time>2026-05-01T13:52:31.153Z</time></trkpt><trkpt lat="44.4167333" lon="8.1711483"><ele>386.0</ele><time>2026-05-01T13:52:32.151Z</time></trkpt><trkpt lat="44.4165933" lon="8.1710667"><ele>386.0</ele><time>2026-05-01T13:52:33.152Z</time></trkpt><trkpt lat="44.416455" lon="8.1709717"><ele>386.0</ele><time>2026-05-01T13:52:34.153Z</time></trkpt><trkpt lat="44.4163183" lon="8.1708717"><ele>386.0</ele><time>2026-05-01T13:52:35.154Z</time></trkpt><trkpt lat="44.4161833" lon="8.1707667"><ele>386.5</ele><time>2026-05-01T13:52:36.149Z</time></trkpt><trkpt lat="44.4160483" lon="8.17068"><ele>387.0</ele><time>2026-05-01T13:52:37.155Z</time></trkpt><trkpt lat="44.4159333" lon="8.170585"><ele>387.5</ele><time>2026-05-01T13:52:38.154Z</time></trkpt><trkpt lat="44.4158167" lon="8.1704967"><ele>388.0</ele><time>2026-05-01T13:52:39.149Z</time></trkpt><trkpt lat="44.4157183" lon="8.1704"><ele>388.0</ele><time>2026-05-01T13:52:40.149Z</time></trkpt><trkpt lat="44.4156317" lon="8.1703133"><ele>388.0</ele><time>2026-05-01T13:52:41.158Z</time></trkpt><trkpt lat="44.4155433" lon="8.1702717"><ele>388.0</ele><time>2026-05-01T13:52:42.15Z</time></trkpt><trkpt lat="44.4154467" lon="8.170265"><ele>388.0</ele><time>2026-05-01T13:52:43.153Z</time></trkpt><trkpt lat="44.4153433" lon="8.1702817"><ele>388.0</ele><time>2026-05-01T13:52:44.153Z</time></trkpt><trkpt lat="44.41524" lon="8.1703283"><ele>390.0</ele><time>2026-05-01T13:52:45.153Z</time></trkpt><trkpt lat="44.41513" lon="8.1703833"><ele>392.0</ele><time>2026-05-01T13:52:46.153Z</time></trkpt><trkpt lat="44.4150183" lon="8.17044"><ele>394.0</ele><time>2026-05-01T13:52:47.156Z</time></trkpt><trkpt lat="44.4149067" lon="8.1705"><ele>396.0</ele><time>2026-05-01T13:52:48.154Z</time></trkpt><trkpt lat="44.4147967" lon="8.17056"><ele>396.0</ele><time>2026-05-01T13:52:49.153Z</time></trkpt><trkpt lat="44.4146917" lon="8.170615"><ele>396.0</ele><time>2026-05-01T13:52:50.156Z</time></trkpt><trkpt lat="44.414595" lon="8.170665"><ele>396.0</ele><time>2026-05-01T13:52:51.156Z</time></trkpt><trkpt lat="44.4145217" lon="8.17071"><ele>396.0</ele><time>2026-05-01T13:52:52.155Z</time></trkpt><trkpt lat="44.4144533" lon="8.1707483"><ele>396.0</ele><time>2026-05-01T13:52:53.159Z</time></trkpt><trkpt lat="44.4143583" lon="8.1707417"><ele>395.8</ele><time>2026-05-01T13:52:55.153Z</time></trkpt><trkpt lat="44.4143567" lon="8.170585"><ele>395.6</ele><time>2026-05-01T13:52:56.154Z</time></trkpt><trkpt lat="44.414345" lon="8.1704867"><ele>395.4</ele><time>2026-05-01T13:52:57.153Z</time></trkpt><trkpt lat="44.414325" lon="8.1703183"><ele>395.2</ele><time>2026-05-01T13:52:58.157Z</time></trkpt><trkpt lat="44.4143033" lon="8.17016"><ele>395.0</ele><time>2026-05-01T13:52:59.152Z</time></trkpt><trkpt lat="44.4142867" lon="8.169985"><ele>394.25</ele><time>2026-05-01T13:53:00.152Z</time></trkpt><trkpt lat="44.4142667" lon="8.1698033"><ele>393.5</ele><time>2026-05-01T13:53:01.153Z</time></trkpt><trkpt lat="44.414245" lon="8.16962"><ele>392.75</ele><time>2026-05-01T13:53:02.154Z</time></trkpt><trkpt lat="44.4142267" lon="8.1694233"><ele>392.0</ele><time>2026-05-01T13:53:03.154Z</time></trkpt><trkpt lat="44.414205" lon="8.16922"><ele>392.0</ele><time>2026-05-01T13:53:04.152Z</time></trkpt><trkpt lat="44.4141833" lon="8.1690333"><ele>392.0</ele><time>2026-05-01T13:53:05.155Z</time></trkpt><trkpt lat="44.4141617" lon="8.1688417"><ele>392.0</ele><time>2026-05-01T13:53:06.153Z</time></trkpt><trkpt lat="44.4141417" lon="8.1686583"><ele>392.0</ele><time>2026-05-01T13:53:07.151Z</time></trkpt><trkpt lat="44.4141183" lon="8.1684783"><ele>391.25</ele><time>2026-05-01T13:53:08.154Z</time></trkpt><trkpt lat="44.4141" lon="8.168295"><ele>390.5</ele><time>2026-05-01T13:53:09.155Z</time></trkpt><trkpt lat="44.4140767" lon="8.1681217"><ele>389.75</ele><time>2026-05-01T13:53:10.152Z</time></trkpt><trkpt lat="44.4140567" lon="8.1679467"><ele>389.0</ele><time>2026-05-01T13:53:11.154Z</time></trkpt><trkpt lat="44.414035" lon="8.1677767"><ele>389.0</ele><time>2026-05-01T13:53:12.15Z</time></trkpt><trkpt lat="44.4140167" lon="8.1676067"><ele>389.0</ele><time>2026-05-01T13:53:13.157Z</time></trkpt><trkpt lat="44.414" lon="8.1674417"><ele>389.0</ele><time>2026-05-01T13:53:14.154Z</time></trkpt><trkpt lat="44.4139867" lon="8.167285"><ele>389.0</ele><time>2026-05-01T13:53:15.151Z</time></trkpt><trkpt lat="44.4139867" lon="8.167145"><ele>388.3333333333333</ele><time>2026-05-01T13:53:16.155Z</time></trkpt><trkpt lat="44.4139983" lon="8.1670317"><ele>387.66666666666663</ele><time>2026-05-01T13:53:17.158Z</time></trkpt><trkpt lat="44.414005" lon="8.166915"><ele>387.0</ele><time>2026-05-01T13:53:18.156Z</time></trkpt><trkpt lat="44.4140017" lon="8.1668033"><ele>386.33333333333337</ele><time>2026-05-01T13:53:19.155Z</time></trkpt><trkpt lat="44.4139783" lon="8.1666967"><ele>385.6666666666667</ele><time>2026-05-01T13:53:20.15Z</time></trkpt><trkpt lat="44.4139067" lon="8.1666233"><ele>385.0</ele><time>2026-05-01T13:53:21.149Z</time></trkpt><trkpt lat="44.4138383" lon="8.16654"><ele>385.0</ele><time>2026-05-01T13:53:22.155Z</time></trkpt><trkpt lat="44.4137433" lon="8.1664683"><ele>385.0</ele><time>2026-05-01T13:53:23.15Z</time></trkpt><trkpt lat="44.413655" lon="8.1663783"><ele>385.0</ele><time>2026-05-01T13:53:24.15Z</time></trkpt><trkpt lat="44.4135633" lon="8.1662883"><ele>385.0</ele><time>2026-05-01T13:53:25.152Z</time></trkpt><trkpt lat="44.413465" lon="8.1661983"><ele>385.0</ele><time>2026-05-01T13:53:26.151Z</time></trkpt><trkpt lat="44.4133583" lon="8.16611"><ele>385.0</ele><time>2026-05-01T13:53:27.152Z</time></trkpt><trkpt lat="44.4132433" lon="8.1660367"><ele>385.0</ele><time>2026-05-01T13:53:28.153Z</time></trkpt><trkpt lat="44.41313" lon="8.16598"><ele>385.0</ele><time>2026-05-01T13:53:29.154Z</time></trkpt><trkpt lat="44.4130133" lon="8.165955"><ele>385.0</ele><time>2026-05-01T13:53:30.15Z</time></trkpt><trkpt lat="44.412895" lon="8.1659517"><ele>385.25</ele><time>2026-05-01T13:53:31.158Z</time></trkpt><trkpt lat="44.41278" lon="8.165975"><ele>385.5</ele><time>2026-05-01T13:53:32.152Z</time></trkpt><trkpt lat="44.4126633" lon="8.165995"><ele>385.75</ele><time>2026-05-01T13:53:33.157Z</time></trkpt><trkpt lat="44.4125483" lon="8.1660133"><ele>386.0</ele><time>2026-05-01T13:53:34.152Z</time></trkpt><trkpt lat="44.4124233" lon="8.16605"><ele>386.0</ele><time>2026-05-01T13:53:35.153Z</time></trkpt><trkpt lat="44.4122967" lon="8.16609"><ele>386.0</ele><time>2026-05-01T13:53:36.158Z</time></trkpt><trkpt lat="44.41217" lon="8.1661283"><ele>386.0</ele><time>2026-05-01T13:53:37.156Z</time></trkpt><trkpt lat="44.41205" lon="8.166165"><ele>386.0</ele><time>2026-05-01T13:53:38.157Z</time></trkpt><trkpt lat="44.4119367" lon="8.1662017"><ele>385.5</ele><time>2026-05-01T13:53:39.15Z</time></trkpt><trkpt lat="44.411825" lon="8.1662333"><ele>385.0</ele><time>2026-05-01T13:53:40.154Z</time></trkpt><trkpt lat="44.4117117" lon="8.1662617"><ele>384.5</ele><time>2026-05-01T13:53:41.152Z</time></trkpt><trkpt lat="44.4116" lon="8.16629"><ele>384.0</ele><time>2026-05-01T13:53:42.15Z</time></trkpt><trkpt lat="44.411485" lon="8.1663183"><ele>384.0</ele><time>2026-05-01T13:53:43.154Z</time></trkpt><trkpt lat="44.4113683" lon="8.166345"><ele>384.0</ele><time>2026-05-01T13:53:44.157Z</time></trkpt><trkpt lat="44.4112533" lon="8.1663733"><ele>384.0</ele><time>2026-05-01T13:53:45.15Z</time></trkpt><trkpt lat="44.411135" lon="8.1664017"><ele>384.0</ele><time>2026-05-01T13:53:46.153Z</time></trkpt><trkpt lat="44.411015" lon="8.1664283"><ele>384.0</ele><time>2026-05-01T13:53:47.157Z</time></trkpt><trkpt lat="44.4108967" lon="8.16646"><ele>384.0</ele><time>2026-05-01T13:53:48.151Z</time></trkpt><trkpt lat="44.4107783" lon="8.16649"><ele>384.0</ele><time>2026-05-01T13:53:49.154Z</time></trkpt><trkpt lat="44.41066" lon="8.1665233"><ele>384.0</ele><time>2026-05-01T13:53:50.151Z</time></trkpt><trkpt lat="44.4105417" lon="8.1665583"><ele>384.75</ele><time>2026-05-01T13:53:51.157Z</time></trkpt><trkpt lat="44.410425" lon="8.1666067"><ele>385.5</ele><time>2026-05-01T13:53:52.16Z</time></trkpt><trkpt lat="44.4103067" lon="8.1666683"><ele>386.25</ele><time>2026-05-01T13:53:53.154Z</time></trkpt><trkpt lat="44.4101983" lon="8.16675"><ele>387.0</ele><time>2026-05-01T13:53:54.156Z</time></trkpt><trkpt lat="44.4101" lon="8.16685"><ele>387.0</ele><time>2026-05-01T13:53:55.152Z</time></trkpt><trkpt lat="44.4100133" lon="8.1669583"><ele>387.0</ele><time>2026-05-01T13:53:56.154Z</time></trkpt><trkpt lat="44.40994" lon="8.1670833"><ele>387.0</ele><time>2026-05-01T13:53:57.154Z</time></trkpt><trkpt lat="44.4098833" lon="8.1672167"><ele>387.0</ele><time>2026-05-01T13:53:58.154Z</time></trkpt><trkpt lat="44.4098283" lon="8.16736"><ele>387.20000000000005</ele><time>2026-05-01T13:53:59.152Z</time></trkpt><trkpt lat="44.4097733" lon="8.1674967"><ele>387.4</ele><time>2026-05-01T13:54:00.155Z</time></trkpt><trkpt lat="44.40972" lon="8.1676217"><ele>387.6</ele><time>2026-05-01T13:54:01.158Z</time></trkpt><trkpt lat="44.409665" lon="8.16775"><ele>387.79999999999995</ele><time>2026-05-01T13:54:02.153Z</time></trkpt><trkpt lat="44.4096117" lon="8.1678867"><ele>388.0</ele><time>2026-05-01T13:54:03.152Z</time></trkpt><trkpt lat="44.409555" lon="8.1680317"><ele>387.5</ele><time>2026-05-01T13:54:04.153Z</time></trkpt><trkpt lat="44.4095" lon="8.1681733"><ele>387.0</ele><time>2026-05-01T13:54:05.157Z</time></trkpt><trkpt lat="44.40943" lon="8.1683117"><ele>386.5</ele><time>2026-05-01T13:54:06.156Z</time></trkpt><trkpt lat="44.4093567" lon="8.1684483"><ele>386.0</ele><time>2026-05-01T13:54:07.153Z</time></trkpt><trkpt lat="44.4092867" lon="8.168585"><ele>386.0</ele><time>2026-05-01T13:54:08.155Z</time></trkpt><trkpt lat="44.4092183" lon="8.1687233"><ele>386.0</ele><time>2026-05-01T13:54:09.151Z</time></trkpt><trkpt lat="44.4091483" lon="8.1688617"><ele>386.0</ele><time>2026-05-01T13:54:10.154Z</time></trkpt><trkpt lat="44.40908" lon="8.16901"><ele>386.0</ele><time>2026-05-01T13:54:11.155Z</time></trkpt><trkpt lat="44.4090083" lon="8.169165"><ele>385.25</ele><time>2026-05-01T13:54:12.157Z</time></trkpt><trkpt lat="44.4089417" lon="8.1693317"><ele>384.5</ele><time>2026-05-01T13:54:13.151Z</time></trkpt><trkpt lat="44.408885" lon="8.1694983"><ele>383.75</ele><time>2026-05-01T13:54:14.16Z</time></trkpt><trkpt lat="44.4088333" lon="8.169665"><ele>383.0</ele><time>2026-05-01T13:54:15.152Z</time></trkpt><trkpt lat="44.4087883" lon="8.1698433"><ele>383.0</ele><time>2026-05-01T13:54:16.153Z</time></trkpt><trkpt lat="44.408755" lon="8.1700333"><ele>383.0</ele><time>2026-05-01T13:54:17.153Z</time></trkpt><trkpt lat="44.4087333" lon="8.170225"><ele>383.0</ele><time>2026-05-01T13:54:18.16Z</time></trkpt><trkpt lat="44.4087333" lon="8.1704433"><ele>383.0</ele><time>2026-05-01T13:54:19.158Z</time></trkpt><trkpt lat="44.4087567" lon="8.1706967"><ele>383.0</ele><time>2026-05-01T13:54:20.162Z</time></trkpt><trkpt lat="44.4087883" lon="8.17097"><ele>383.0</ele><time>2026-05-01T13:54:21.155Z</time></trkpt><trkpt lat="44.4088217" lon="8.1712783"><ele>383.0</ele><time>2026-05-01T13:54:22.161Z</time></trkpt><trkpt lat="44.4088483" lon="8.1716017"><ele>387.6666666666667</ele><time>2026-05-01T13:54:23.155Z</time></trkpt><trkpt lat="44.4088683" lon="8.17192"><ele>392.33333333333337</ele><time>2026-05-01T13:54:24.154Z</time></trkpt><trkpt lat="44.40888" lon="8.1722233"><ele>397.0</ele><time>2026-05-01T13:54:25.154Z</time></trkpt><trkpt lat="44.408875" lon="8.1725217"><ele>397.33333333333337</ele><time>2026-05-01T13:54:26.154Z</time></trkpt><trkpt lat="44.4088533" lon="8.17281"><ele>397.66666666666663</ele><time>2026-05-01T13:54:27.156Z</time></trkpt><trkpt lat="44.4088233" lon="8.1730933"><ele>398.0</ele><time>2026-05-01T13:54:28.153Z</time></trkpt><trkpt lat="44.4087883" lon="8.173365"><ele>393.66666666666663</ele><time>2026-05-01T13:54:29.155Z</time></trkpt><trkpt lat="44.4087517" lon="8.1736283"><ele>389.33333333333337</ele><time>2026-05-01T13:54:30.153Z</time></trkpt><trkpt lat="44.408715" lon="8.17389"><ele>385.0</ele><time>2026-05-01T13:54:31.154Z</time></trkpt><trkpt lat="44.408675" lon="8.1741517"><ele>385.0</ele><time>2026-05-01T13:54:32.154Z</time></trkpt><trkpt lat="44.4086417" lon="8.1744117"><ele>385.0</ele><time>2026-05-01T13:54:33.156Z</time></trkpt><trkpt lat="44.408615" lon="8.17467"><ele>385.0</ele><time>2026-05-01T13:54:34.151Z</time></trkpt><trkpt lat="44.408595" lon="8.1749367"><ele>386.0</ele><time>2026-05-01T13:54:35.16Z</time></trkpt><trkpt lat="44.4085783" lon="8.1752017"><ele>387.0</ele><time>2026-05-01T13:54:36.156Z</time></trkpt><trkpt lat="44.408555" lon="8.1754717"><ele>388.0</ele><time>2026-05-01T13:54:37.154Z</time></trkpt><trkpt lat="44.4085317" lon="8.1757417"><ele>389.0</ele><time>2026-05-01T13:54:38.152Z</time></trkpt><trkpt lat="44.4085133" lon="8.1760167"><ele>390.0</ele><time>2026-05-01T13:54:39.154Z</time></trkpt><trkpt lat="44.4084917" lon="8.1762917"><ele>391.0</ele><time>2026-05-01T13:54:40.157Z</time></trkpt><trkpt lat="44.4084717" lon="8.1765667"><ele>391.6666666666667</ele><time>2026-05-01T13:54:41.151Z</time></trkpt><trkpt lat="44.4084533" lon="8.1768417"><ele>392.33333333333337</ele><time>2026-05-01T13:54:42.158Z</time></trkpt><trkpt lat="44.408435" lon="8.1771183"><ele>393.0</ele><time>2026-05-01T13:54:43.156Z</time></trkpt><trkpt lat="44.4084183" lon="8.177395"><ele>394.0</ele><time>2026-05-01T13:54:44.156Z</time></trkpt><trkpt lat="44.4083983" lon="8.177675"><ele>395.0</ele><time>2026-05-01T13:54:45.155Z</time></trkpt><trkpt lat="44.4083783" lon="8.17795"><ele>396.0</ele><time>2026-05-01T13:54:46.157Z</time></trkpt><trkpt lat="44.4083633" lon="8.1782133"><ele>396.0</ele><time>2026-05-01T13:54:47.153Z</time></trkpt><trkpt lat="44.4083483" lon="8.1784667"><ele>396.0</ele><time>2026-05-01T13:54:48.157Z</time></trkpt><trkpt lat="44.4083333" lon="8.1787133"><ele>396.0</ele><time>2026-05-01T13:54:49.156Z</time></trkpt><trkpt lat="44.4083183" lon="8.178955"><ele>397.0</ele><time>2026-05-01T13:54:50.16Z</time></trkpt><trkpt lat="44.4083017" lon="8.179195"><ele>398.0</ele><time>2026-05-01T13:54:51.154Z</time></trkpt><trkpt lat="44.408285" lon="8.1794317"><ele>399.0</ele><time>2026-05-01T13:54:52.155Z</time></trkpt><trkpt lat="44.4082667" lon="8.179665"><ele>400.0</ele><time>2026-05-01T13:54:53.153Z</time></trkpt><trkpt lat="44.40825" lon="8.1798967"><ele>401.0</ele><time>2026-05-01T13:54:54.153Z</time></trkpt><trkpt lat="44.4082333" lon="8.1801267"><ele>402.0</ele><time>2026-05-01T13:54:55.156Z</time></trkpt><trkpt lat="44.40822" lon="8.180355"><ele>402.0</ele><time>2026-05-01T13:54:56.157Z</time></trkpt><trkpt lat="44.4082033" lon="8.1805783"><ele>402.0</ele><time>2026-05-01T13:54:57.155Z</time></trkpt><trkpt lat="44.4081833" lon="8.1807883"><ele>402.0</ele><time>2026-05-01T13:54:58.156Z</time></trkpt><trkpt lat="44.4081583" lon="8.18099"><ele>401.25</ele><time>2026-05-01T13:54:59.155Z</time></trkpt><trkpt lat="44.4081267" lon="8.1811833"><ele>400.5</ele><time>2026-05-01T13:55:00.153Z</time></trkpt><trkpt lat="44.40809" lon="8.1813667"><ele>399.75</ele><time>2026-05-01T13:55:01.159Z</time></trkpt><trkpt lat="44.408045" lon="8.18155"><ele>399.0</ele><time>2026-05-01T13:55:02.159Z</time></trkpt><trkpt lat="44.4079917" lon="8.1817283"><ele>398.25</ele><time>2026-05-01T13:55:03.154Z</time></trkpt><trkpt lat="44.40793" lon="8.1819017"><ele>397.5</ele><time>2026-05-01T13:55:04.161Z</time></trkpt><trkpt lat="44.4078517" lon="8.1820617"><ele>396.75</ele><time>2026-05-01T13:55:05.152Z</time></trkpt><trkpt lat="44.4077617" lon="8.1822183"><ele>396.0</ele><time>2026-05-01T13:55:06.158Z</time></trkpt><trkpt lat="44.4076683" lon="8.1823717"><ele>396.0</ele><time>2026-05-01T13:55:07.16Z</time></trkpt><trkpt lat="44.4075733" lon="8.182525"><ele>396.0</ele><time>2026-05-01T13:55:08.153Z</time></trkpt><trkpt lat="44.407475" lon="8.1826733"><ele>396.0</ele><time>2026-05-01T13:55:09.153Z</time></trkpt><trkpt lat="44.4073733" lon="8.1828167"><ele>396.0</ele><time>2026-05-01T13:55:10.154Z</time></trkpt><trkpt lat="44.4072717" lon="8.1829667"><ele>396.0</ele><time>2026-05-01T13:55:11.155Z</time></trkpt><trkpt lat="44.40717" lon="8.1831217"><ele>396.0</ele><time>2026-05-01T13:55:12.151Z</time></trkpt><trkpt lat="44.4070583" lon="8.1832833"><ele>396.0</ele><time>2026-05-01T13:55:13.158Z</time></trkpt><trkpt lat="44.4069467" lon="8.1834533"><ele>393.0</ele><time>2026-05-01T13:55:14.151Z</time></trkpt><trkpt lat="44.406835" lon="8.1836283"><ele>390.0</ele><time>2026-05-01T13:55:15.153Z</time></trkpt><trkpt lat="44.40672" lon="8.1838067"><ele>387.0</ele><time>2026-05-01T13:55:16.156Z</time></trkpt><trkpt lat="44.4066017" lon="8.1839883"><ele>386.66666666666663</ele><time>2026-05-01T13:55:17.153Z</time></trkpt><trkpt lat="44.406485" lon="8.1841683"><ele>386.3333333333333</ele><time>2026-05-01T13:55:18.158Z</time></trkpt><trkpt lat="44.4063717" lon="8.1843483"><ele>386.0</ele><time>2026-05-01T13:55:19.156Z</time></trkpt><trkpt lat="44.406255" lon="8.18453"><ele>386.0</ele><time>2026-05-01T13:55:20.156Z</time></trkpt><trkpt lat="44.406135" lon="8.1847033"><ele>386.0</ele><time>2026-05-01T13:55:21.153Z</time></trkpt><trkpt lat="44.406015" lon="8.18487"><ele>386.0</ele><time>2026-05-01T13:55:22.159Z</time></trkpt><trkpt lat="44.4058917" lon="8.1850433"><ele>389.3333333333333</ele><time>2026-05-01T13:55:23.154Z</time></trkpt><trkpt lat="44.405765" lon="8.18521"><ele>392.66666666666663</ele><time>2026-05-01T13:55:24.159Z</time></trkpt><trkpt lat="44.4056383" lon="8.18537"><ele>396.0</ele><time>2026-05-01T13:55:25.156Z</time></trkpt><trkpt lat="44.4055083" lon="8.1855333"><ele>396.0</ele><time>2026-05-01T13:55:26.159Z</time></trkpt><trkpt lat="44.4053717" lon="8.18569"><ele>396.0</ele><time>2026-05-01T13:55:27.154Z</time></trkpt><trkpt lat="44.4052317" lon="8.1858433"><ele>396.0</ele><time>2026-05-01T13:55:28.156Z</time></trkpt><trkpt lat="44.4050883" lon="8.185995"><ele>396.0</ele><time>2026-05-01T13:55:29.159Z</time></trkpt><trkpt lat="44.4049383" lon="8.186145"><ele>396.0</ele><time>2026-05-01T13:55:30.158Z</time></trkpt><trkpt lat="44.4047833" lon="8.18629"><ele>396.0</ele><time>2026-05-01T13:55:31.157Z</time></trkpt><trkpt lat="44.4046283" lon="8.18644"><ele>396.0</ele><time>2026-05-01T13:55:32.157Z</time></trkpt><trkpt lat="44.40447" lon="8.1865867"><ele>396.0</ele><time>2026-05-01T13:55:33.153Z</time></trkpt><trkpt lat="44.4043117" lon="8.18673"><ele>396.0</ele><time>2026-05-01T13:55:34.153Z</time></trkpt><trkpt lat="44.4041533" lon="8.1868667"><ele>396.0</ele><time>2026-05-01T13:55:35.153Z</time></trkpt><trkpt lat="44.4039917" lon="8.18699"><ele>396.0</ele><time>2026-05-01T13:55:36.155Z</time></trkpt><trkpt lat="44.403835" lon="8.187115"><ele>396.0</ele><time>2026-05-01T13:55:37.153Z</time></trkpt><trkpt lat="44.4036767" lon="8.187235"><ele>398.66666666666663</ele><time>2026-05-01T13:55:38.154Z</time></trkpt><trkpt lat="44.4035183" lon="8.187345"><ele>401.3333333333333</ele><time>2026-05-01T13:55:39.154Z</time></trkpt><trkpt lat="44.4033583" lon="8.1874533"><ele>404.0</ele><time>2026-05-01T13:55:40.157Z</time></trkpt><trkpt lat="44.4031967" lon="8.187565"><ele>404.0</ele><time>2026-05-01T13:55:41.152Z</time></trkpt><trkpt lat="44.4030367" lon="8.1876667"><ele>404.0</ele><time>2026-05-01T13:55:42.157Z</time></trkpt><trkpt lat="44.40288" lon="8.1877633"><ele>404.0</ele><time>2026-05-01T13:55:43.158Z</time></trkpt><trkpt lat="44.40271" lon="8.1878367"><ele>399.66666666666663</ele><time>2026-05-01T13:55:44.154Z</time></trkpt><trkpt lat="44.4025383" lon="8.1878967"><ele>395.33333333333337</ele><time>2026-05-01T13:55:45.155Z</time></trkpt><trkpt lat="44.4023717" lon="8.1879317"><ele>391.0</ele><time>2026-05-01T13:55:46.154Z</time></trkpt><trkpt lat="44.402205" lon="8.187955"><ele>390.33333333333337</ele><time>2026-05-01T13:55:47.154Z</time></trkpt><trkpt lat="44.4020333" lon="8.1879667"><ele>389.66666666666663</ele><time>2026-05-01T13:55:48.151Z</time></trkpt><trkpt lat="44.4018633" lon="8.1879533"><ele>389.0</ele><time>2026-05-01T13:55:49.154Z</time></trkpt><trkpt lat="44.4017017" lon="8.1879017"><ele>389.0</ele><time>2026-05-01T13:55:50.154Z</time></trkpt><trkpt lat="44.4015367" lon="8.18784"><ele>389.0</ele><time>2026-05-01T13:55:51.156Z</time></trkpt><trkpt lat="44.40136" lon="8.1877717"><ele>389.0</ele><time>2026-05-01T13:55:52.157Z</time></trkpt><trkpt lat="44.4011783" lon="8.187685"><ele>394.3333333333333</ele><time>2026-05-01T13:55:53.154Z</time></trkpt><trkpt lat="44.4009983" lon="8.1875767"><ele>399.66666666666663</ele><time>2026-05-01T13:55:54.155Z</time></trkpt><trkpt lat="44.40082" lon="8.18749"><ele>405.0</ele><time>2026-05-01T13:55:55.16Z</time></trkpt><trkpt lat="44.4006567" lon="8.1874133"><ele>402.33333333333337</ele><time>2026-05-01T13:55:56.154Z</time></trkpt><trkpt lat="44.4004967" lon="8.1873317"><ele>399.6666666666667</ele><time>2026-05-01T13:55:57.155Z</time></trkpt><trkpt lat="44.40034" lon="8.1872583"><ele>397.0</ele><time>2026-05-01T13:55:58.153Z</time></trkpt><trkpt lat="44.4001883" lon="8.1871833"><ele>397.0</ele><time>2026-05-01T13:55:59.154Z</time></trkpt><trkpt lat="44.400035" lon="8.1871117"><ele>397.0</ele><time>2026-05-01T13:56:00.152Z</time></trkpt><trkpt lat="44.3998933" lon="8.1870317"><ele>397.0</ele><time>2026-05-01T13:56:01.148Z</time></trkpt><trkpt lat="44.3997517" lon="8.18694"><ele>406.6666666666667</ele><time>2026-05-01T13:56:02.154Z</time></trkpt><trkpt lat="44.3996233" lon="8.1868167"><ele>416.33333333333337</ele><time>2026-05-01T13:56:03.152Z</time></trkpt><trkpt lat="44.399505" lon="8.1866783"><ele>426.0</ele><time>2026-05-01T13:56:04.156Z</time></trkpt><trkpt lat="44.3993867" lon="8.1865483"><ele>419.0</ele><time>2026-05-01T13:56:05.158Z</time></trkpt><trkpt lat="44.3992717" lon="8.18643"><ele>412.0</ele><time>2026-05-01T13:56:06.153Z</time></trkpt><trkpt lat="44.3991533" lon="8.1863017"><ele>405.0</ele><time>2026-05-01T13:56:07.159Z</time></trkpt><trkpt lat="44.3990383" lon="8.18617"><ele>398.0</ele><time>2026-05-01T13:56:08.154Z</time></trkpt><trkpt lat="44.3989267" lon="8.1860267"><ele>401.3333333333333</ele><time>2026-05-01T13:56:09.155Z</time></trkpt><trkpt lat="44.3988167" lon="8.185885"><ele>404.66666666666663</ele><time>2026-05-01T13:56:10.153Z</time></trkpt><trkpt lat="44.3987067" lon="8.1857367"><ele>408.0</ele><time>2026-05-01T13:56:11.157Z</time></trkpt><trkpt lat="44.39859" lon="8.18559"><ele>408.0</ele><time>2026-05-01T13:56:12.156Z</time></trkpt><trkpt lat="44.398475" lon="8.1854467"><ele>408.0</ele><time>2026-05-01T13:56:13.154Z</time></trkpt><trkpt lat="44.3983667" lon="8.1853033"><ele>408.0</ele><time>2026-05-01T13:56:14.151Z</time></trkpt><trkpt lat="44.3982667" lon="8.1851483"><ele>408.0</ele><time>2026-05-01T13:56:15.152Z</time></trkpt><trkpt lat="44.3981817" lon="8.1849833"><ele>408.0</ele><time>2026-05-01T13:56:16.152Z</time></trkpt><trkpt lat="44.3980883" lon="8.184815"><ele>408.0</ele><time>2026-05-01T13:56:17.153Z</time></trkpt><trkpt lat="44.3980033" lon="8.1846433"><ele>408.0</ele><time>2026-05-01T13:56:18.157Z</time></trkpt><trkpt lat="44.3979183" lon="8.1844717"><ele>410.66666666666663</ele><time>2026-05-01T13:56:19.156Z</time></trkpt><trkpt lat="44.3978417" lon="8.1842933"><ele>413.3333333333333</ele><time>2026-05-01T13:56:20.152Z</time></trkpt><trkpt lat="44.3977767" lon="8.184105"><ele>416.0</ele><time>2026-05-01T13:56:21.158Z</time></trkpt><trkpt lat="44.3977133" lon="8.1839117"><ele>416.0</ele><time>2026-05-01T13:56:22.155Z</time></trkpt><trkpt lat="44.3976517" lon="8.18371"><ele>416.0</ele><time>2026-05-01T13:56:23.157Z</time></trkpt><trkpt lat="44.3975817" lon="8.1835217"><ele>416.0</ele><time>2026-05-01T13:56:24.154Z</time></trkpt><trkpt lat="44.3975133" lon="8.1833267"><ele>412.3333333333333</ele><time>2026-05-01T13:56:25.15Z</time></trkpt><trkpt lat="44.3974367" lon="8.18314"><ele>408.66666666666663</ele><time>2026-05-01T13:56:26.151Z</time></trkpt><trkpt lat="44.3973517" lon="8.1829567"><ele>405.0</ele><time>2026-05-01T13:56:27.155Z</time></trkpt><trkpt lat="44.3972517" lon="8.1827883"><ele>407.33333333333337</ele><time>2026-05-01T13:56:28.152Z</time></trkpt><trkpt lat="44.3971383" lon="8.1826267"><ele>409.6666666666667</ele><time>2026-05-01T13:56:29.155Z</time></trkpt><trkpt lat="44.397025" lon="8.1824733"><ele>412.0</ele><time>2026-05-01T13:56:30.154Z</time></trkpt><trkpt lat="44.3969067" lon="8.18234"><ele>412.0</ele><time>2026-05-01T13:56:31.165Z</time></trkpt><trkpt lat="44.39678" lon="8.1822267"><ele>412.0</ele><time>2026-05-01T13:56:32.154Z</time></trkpt><trkpt lat="44.3966483" lon="8.1821433"><ele>412.0</ele><time>2026-05-01T13:56:33.154Z</time></trkpt><trkpt lat="44.39651" lon="8.1820867"><ele>412.0</ele><time>2026-05-01T13:56:34.151Z</time></trkpt><trkpt lat="44.3963667" lon="8.1820667"><ele>412.75</ele><time>2026-05-01T13:56:35.155Z</time></trkpt><trkpt lat="44.3962233" lon="8.1820783"><ele>413.5</ele><time>2026-05-01T13:56:36.153Z</time></trkpt><trkpt lat="44.3960767" lon="8.1820867"><ele>414.25</ele><time>2026-05-01T13:56:37.15Z</time></trkpt><trkpt lat="44.3959267" lon="8.1821"><ele>415.0</ele><time>2026-05-01T13:56:38.155Z</time></trkpt><trkpt lat="44.39577" lon="8.1821183"><ele>415.0</ele><time>2026-05-01T13:56:39.152Z</time></trkpt><trkpt lat="44.3956067" lon="8.18215"><ele>415.0</ele><time>2026-05-01T13:56:40.151Z</time></trkpt><trkpt lat="44.395445" lon="8.182195"><ele>415.0</ele><time>2026-05-01T13:56:41.156Z</time></trkpt><trkpt lat="44.3952817" lon="8.1822683"><ele>411.33333333333337</ele><time>2026-05-01T13:56:42.153Z</time></trkpt><trkpt lat="44.3951183" lon="8.1823467"><ele>407.66666666666663</ele><time>2026-05-01T13:56:43.155Z</time></trkpt><trkpt lat="44.3949583" lon="8.182435"><ele>404.0</ele><time>2026-05-01T13:56:44.153Z</time></trkpt><trkpt lat="44.3947983" lon="8.182535"><ele>405.66666666666663</ele><time>2026-05-01T13:56:45.152Z</time></trkpt><trkpt lat="44.3946367" lon="8.1826467"><ele>407.33333333333337</ele><time>2026-05-01T13:56:46.154Z</time></trkpt><trkpt lat="44.39448" lon="8.1827467"><ele>409.0</ele><time>2026-05-01T13:56:47.156Z</time></trkpt><trkpt lat="44.39432" lon="8.1828533"><ele>409.0</ele><time>2026-05-01T13:56:48.157Z</time></trkpt><trkpt lat="44.3941467" lon="8.182935"><ele>409.0</ele><time>2026-05-01T13:56:49.152Z</time></trkpt><trkpt lat="44.3939733" lon="8.18301"><ele>409.0</ele><time>2026-05-01T13:56:50.151Z</time></trkpt><trkpt lat="44.3938067" lon="8.1830767"><ele>408.6666666666667</ele><time>2026-05-01T13:56:51.15Z</time></trkpt><trkpt lat="44.3936383" lon="8.1831383"><ele>408.33333333333337</ele><time>2026-05-01T13:56:52.153Z</time></trkpt><trkpt lat="44.3934717" lon="8.1831883"><ele>408.0</ele><time>2026-05-01T13:56:53.16Z</time></trkpt><trkpt lat="44.393305" lon="8.18321"><ele>407.66666666666663</ele><time>2026-05-01T13:56:54.155Z</time></trkpt><trkpt lat="44.39313" lon="8.1832117"><ele>407.3333333333333</ele><time>2026-05-01T13:56:55.155Z</time></trkpt><trkpt lat="44.3929617" lon="8.1831867"><ele>407.0</ele><time>2026-05-01T13:56:56.155Z</time></trkpt><trkpt lat="44.392795" lon="8.18316"><ele>407.0</ele><time>2026-05-01T13:56:57.15Z</time></trkpt><trkpt lat="44.3926283" lon="8.1831617"><ele>407.0</ele><time>2026-05-01T13:56:58.154Z</time></trkpt><trkpt lat="44.3924633" lon="8.183195"><ele>407.0</ele><time>2026-05-01T13:56:59.154Z</time></trkpt><trkpt lat="44.392305" lon="8.183245"><ele>408.3333333333333</ele><time>2026-05-01T13:57:00.154Z</time></trkpt><trkpt lat="44.3921633" lon="8.1833317"><ele>409.66666666666663</ele><time>2026-05-01T13:57:01.153Z</time></trkpt><trkpt lat="44.39203" lon="8.1834367"><ele>411.0</ele><time>2026-05-01T13:57:02.152Z</time></trkpt><trkpt lat="44.3919133" lon="8.18357"><ele>411.0</ele><time>2026-05-01T13:57:03.156Z</time></trkpt><trkpt lat="44.3918017" lon="8.1837067"><ele>411.0</ele><time>2026-05-01T13:57:04.154Z</time></trkpt><trkpt lat="44.3916983" lon="8.1838433"><ele>411.0</ele><time>2026-05-01T13:57:05.152Z</time></trkpt><trkpt lat="44.3915983" lon="8.1839833"><ele>411.0</ele><time>2026-05-01T13:57:06.152Z</time></trkpt><trkpt lat="44.391495" lon="8.18412"><ele>411.0</ele><time>2026-05-01T13:57:07.156Z</time></trkpt><trkpt lat="44.3913883" lon="8.184265"><ele>411.0</ele><time>2026-05-01T13:57:08.154Z</time></trkpt><trkpt lat="44.3912867" lon="8.1844117"><ele>411.0</ele><time>2026-05-01T13:57:09.152Z</time></trkpt><trkpt lat="44.39118" lon="8.1845683"><ele>411.0</ele><time>2026-05-01T13:57:10.151Z</time></trkpt><trkpt lat="44.3910717" lon="8.1847317"><ele>412.66666666666663</ele><time>2026-05-01T13:57:11.153Z</time></trkpt><trkpt lat="44.39097" lon="8.1848967"><ele>414.3333333333333</ele><time>2026-05-01T13:57:12.159Z</time></trkpt><trkpt lat="44.3908783" lon="8.1850767"><ele>416.0</ele><time>2026-05-01T13:57:13.152Z</time></trkpt><trkpt lat="44.3908" lon="8.18527"><ele>416.0</ele><time>2026-05-01T13:57:14.153Z</time></trkpt><trkpt lat="44.3907433" lon="8.185475"><ele>416.0</ele><time>2026-05-01T13:57:15.154Z</time></trkpt><trkpt lat="44.390705" lon="8.185685"><ele>416.0</ele><time>2026-05-01T13:57:16.154Z</time></trkpt><trkpt lat="44.390675" lon="8.18588"><ele>417.75</ele><time>2026-05-01T13:57:17.155Z</time></trkpt><trkpt lat="44.39065" lon="8.1860767"><ele>419.5</ele><time>2026-05-01T13:57:18.15Z</time></trkpt><trkpt lat="44.3906283" lon="8.1862717"><ele>421.25</ele><time>2026-05-01T13:57:19.157Z</time></trkpt><trkpt lat="44.390615" lon="8.18646"><ele>423.0</ele><time>2026-05-01T13:57:20.157Z</time></trkpt><trkpt lat="44.3905967" lon="8.1866533"><ele>423.0</ele><time>2026-05-01T13:57:21.151Z</time></trkpt><trkpt lat="44.390585" lon="8.1868483"><ele>423.0</ele><time>2026-05-01T13:57:22.155Z</time></trkpt><trkpt lat="44.39057" lon="8.1870333"><ele>423.0</ele><time>2026-05-01T13:57:23.153Z</time></trkpt><trkpt lat="44.3905567" lon="8.1872233"><ele>423.0</ele><time>2026-05-01T13:57:24.154Z</time></trkpt><trkpt lat="44.3905417" lon="8.1874117"><ele>424.25</ele><time>2026-05-01T13:57:25.153Z</time></trkpt><trkpt lat="44.3905283" lon="8.1876017"><ele>425.5</ele><time>2026-05-01T13:57:26.153Z</time></trkpt><trkpt lat="44.39052" lon="8.18778"><ele>426.75</ele><time>2026-05-01T13:57:27.152Z</time></trkpt><trkpt lat="44.3905117" lon="8.1879283"><ele>428.0</ele><time>2026-05-01T13:57:28.156Z</time></trkpt><trkpt lat="44.3905083" lon="8.18806"><ele>424.4</ele><time>2026-05-01T13:57:29.154Z</time></trkpt><trkpt lat="44.3905017" lon="8.1881633"><ele>420.79999999999995</ele><time>2026-05-01T13:57:30.155Z</time></trkpt><trkpt lat="44.3904917" lon="8.1883217"><ele>417.2</ele><time>2026-05-01T13:57:32.154Z</time></trkpt><trkpt lat="44.3904633" lon="8.1884933"><ele>413.6</ele><time>2026-05-01T13:57:34.152Z</time></trkpt><trkpt lat="44.39044" lon="8.1885817"><ele>410.0</ele><time>2026-05-01T13:57:35.15Z</time></trkpt><trkpt lat="44.39038" lon="8.1887333"><ele>409.99999999999994</ele><time>2026-05-01T13:57:37.156Z</time></trkpt><trkpt lat="44.39033" lon="8.18884"><ele>410.0</ele><time>2026-05-01T13:57:39.157Z</time></trkpt><trkpt lat="44.3902633" lon="8.1889633"><ele>410.0</ele><time>2026-05-01T13:59:14.151Z</time></trkpt><trkpt lat="44.39022" lon="8.1890517"><ele>410.0</ele><time>2026-05-01T13:59:16.158Z</time></trkpt><trkpt lat="44.3901667" lon="8.1891483"><ele>409.99999999999994</ele><time>2026-05-01T13:59:18.154Z</time></trkpt><trkpt lat="44.3901083" lon="8.1892233"><ele>410.0</ele><time>2026-05-01T13:59:20.156Z</time></trkpt><trkpt lat="44.3900667" lon="8.18931"><ele>409.99999999999994</ele><time>2026-05-01T13:59:22.155Z</time></trkpt><trkpt lat="44.39004" lon="8.1894317"><ele>410.0</ele><time>2026-05-01T13:59:24.155Z</time></trkpt><trkpt lat="44.39005" lon="8.189595"><ele>410.0</ele><time>2026-05-01T13:59:26.151Z</time></trkpt><trkpt lat="44.3900617" lon="8.18969"><ele>410.0</ele><time>2026-05-01T13:59:27.157Z</time></trkpt><trkpt lat="44.39008" lon="8.1897933"><ele>409.99999999999994</ele><time>2026-05-01T13:59:28.152Z</time></trkpt><trkpt lat="44.3901" lon="8.1899033"><ele>410.0</ele><time>2026-05-01T13:59:29.153Z</time></trkpt><trkpt lat="44.3901233" lon="8.19002"><ele>409.99999999999994</ele><time>2026-05-01T13:59:30.154Z</time></trkpt><trkpt lat="44.3901517" lon="8.19014"><ele>410.0</ele><time>2026-05-01T13:59:31.152Z</time></trkpt><trkpt lat="44.3901867" lon="8.1902633"><ele>410.0</ele><time>2026-05-01T13:59:32.155Z</time></trkpt><trkpt lat="44.3902183" lon="8.190375"><ele>410.0</ele><time>2026-05-01T13:59:33.162Z</time></trkpt><trkpt lat="44.3902467" lon="8.1904833"><ele>409.99999999999994</ele><time>2026-05-01T13:59:34.156Z</time></trkpt><trkpt lat="44.390275" lon="8.1905917"><ele>410.0</ele><time>2026-05-01T13:59:35.152Z</time></trkpt><trkpt lat="44.390305" lon="8.1907133"><ele>409.99999999999994</ele><time>2026-05-01T13:59:36.154Z</time></trkpt><trkpt lat="44.3903433" lon="8.190835"><ele>410.0</ele><time>2026-05-01T13:59:37.158Z</time></trkpt><trkpt lat="44.3903883" lon="8.1909533"><ele>410.0</ele><time>2026-05-01T13:59:38.153Z</time></trkpt><trkpt lat="44.3904283" lon="8.1910617"><ele>410.0</ele><time>2026-05-01T13:59:39.154Z</time></trkpt><trkpt lat="44.390455" lon="8.1911717"><ele>409.99999999999994</ele><time>2026-05-01T13:59:40.15Z</time></trkpt><trkpt lat="44.3904833" lon="8.1912733"><ele>410.0</ele><time>2026-05-01T13:59:41.157Z</time></trkpt><trkpt lat="44.390515" lon="8.1913717"><ele>412.0</ele><time>2026-05-01T13:59:42.155Z</time></trkpt><trkpt lat="44.3905533" lon="8.1914667"><ele>414.0</ele><time>2026-05-01T13:59:43.154Z</time></trkpt><trkpt lat="44.390585" lon="8.1915567"><ele>416.0</ele><time>2026-05-01T13:59:44.154Z</time></trkpt><trkpt lat="44.3906067" lon="8.19164"><ele>418.0</ele><time>2026-05-01T13:59:45.152Z</time></trkpt><trkpt lat="44.39062" lon="8.1917267"><ele>420.0</ele><time>2026-05-01T13:59:46.155Z</time></trkpt><trkpt lat="44.390615" lon="8.1918417"><ele>422.0</ele><time>2026-05-01T13:59:48.152Z</time></trkpt><trkpt lat="44.3905717" lon="8.1919267"><ele>424.0</ele><time>2026-05-01T13:59:52.154Z</time></trkpt><trkpt lat="44.390575" lon="8.192055"><ele>424.00000000000006</ele><time>2026-05-01T13:59:55.153Z</time></trkpt><trkpt lat="44.3905983" lon="8.1922033"><ele>424.0</ele><time>2026-05-01T13:59:57.152Z</time></trkpt><trkpt lat="44.39062" lon="8.1922883"><ele>424.0</ele><time>2026-05-01T13:59:58.157Z</time></trkpt><trkpt lat="44.3906533" lon="8.192375"><ele>424.0</ele><time>2026-05-01T13:59:59.158Z</time></trkpt><trkpt lat="44.3906933" lon="8.1924617"><ele>424.00000000000006</ele><time>2026-05-01T14:00:00.149Z</time></trkpt><trkpt lat="44.39074" lon="8.1925517"><ele>424.0</ele><time>2026-05-01T14:00:01.154Z</time></trkpt><trkpt lat="44.3907933" lon="8.1926467"><ele>422.00000000000006</ele><time>2026-05-01T14:00:02.155Z</time></trkpt><trkpt lat="44.3908567" lon="8.192745"><ele>420.0</ele><time>2026-05-01T14:00:03.155Z</time></trkpt><trkpt lat="44.3909133" lon="8.1928483"><ele>418.0</ele><time>2026-05-01T14:00:04.154Z</time></trkpt><trkpt lat="44.3909583" lon="8.1929483"><ele>416.0</ele><time>2026-05-01T14:00:05.151Z</time></trkpt><trkpt lat="44.391005" lon="8.1930517"><ele>414.00000000000006</ele><time>2026-05-01T14:00:06.153Z</time></trkpt><trkpt lat="44.3910517" lon="8.1931533"><ele>412.0</ele><time>2026-05-01T14:00:07.153Z</time></trkpt><trkpt lat="44.391095" lon="8.1932567"><ele>411.33333333333337</ele><time>2026-05-01T14:00:08.151Z</time></trkpt><trkpt lat="44.3911417" lon="8.1933567"><ele>410.6666666666667</ele><time>2026-05-01T14:00:09.156Z</time></trkpt><trkpt lat="44.3911767" lon="8.1934583"><ele>410.0</ele><time>2026-05-01T14:00:10.155Z</time></trkpt><trkpt lat="44.3912083" lon="8.193545"><ele>409.33333333333337</ele><time>2026-05-01T14:00:11.152Z</time></trkpt><trkpt lat="44.3912317" lon="8.19363"><ele>408.6666666666667</ele><time>2026-05-01T14:00:12.151Z</time></trkpt><trkpt lat="44.3912783" lon="8.1937933"><ele>408.0</ele><time>2026-05-01T14:00:14.152Z</time></trkpt><trkpt lat="44.3913033" lon="8.1938817"><ele>408.0</ele><time>2026-05-01T14:00:15.158Z</time></trkpt><trkpt lat="44.39133" lon="8.1939617"><ele>408.0</ele><time>2026-05-01T14:00:16.153Z</time></trkpt><trkpt lat="44.39138" lon="8.1941117"><ele>408.0</ele><time>2026-05-01T14:00:18.155Z</time></trkpt><trkpt lat="44.391425" lon="8.1942667"><ele>408.0</ele><time>2026-05-01T14:00:20.155Z</time></trkpt><trkpt lat="44.3914817" lon="8.1944133"><ele>408.0</ele><time>2026-05-01T14:00:22.154Z</time></trkpt><trkpt lat="44.3915417" lon="8.194555"><ele>409.0</ele><time>2026-05-01T14:00:24.152Z</time></trkpt><trkpt lat="44.39159" lon="8.1947067"><ele>410.0</ele><time>2026-05-01T14:00:26.152Z</time></trkpt><trkpt lat="44.39161" lon="8.1947933"><ele>411.0</ele><time>2026-05-01T14:00:27.155Z</time></trkpt><trkpt lat="44.3916267" lon="8.194885"><ele>412.0</ele><time>2026-05-01T14:00:28.154Z</time></trkpt><trkpt lat="44.3916417" lon="8.1949767"><ele>413.0</ele><time>2026-05-01T14:00:29.157Z</time></trkpt><trkpt lat="44.39166" lon="8.195135"><ele>414.0</ele><time>2026-05-01T14:00:31.152Z</time></trkpt><trkpt lat="44.391675" lon="8.19527"><ele>414.0</ele><time>2026-05-01T14:00:33.15Z</time></trkpt><trkpt lat="44.3916867" lon="8.1953867"><ele>414.0</ele><time>2026-05-01T14:00:35.155Z</time></trkpt><trkpt lat="44.3916933" lon="8.1954833"><ele>414.0</ele><time>2026-05-01T14:00:37.154Z</time></trkpt><trkpt lat="44.3917017" lon="8.1956317"><ele>414.0</ele><time>2026-05-01T14:00:44.154Z</time></trkpt><trkpt lat="44.3916483" lon="8.19572"><ele>414.0</ele><time>2026-05-01T14:00:48.155Z</time></trkpt><trkpt lat="44.3915783" lon="8.1957367"><ele>414.0</ele><time>2026-05-01T14:00:50.152Z</time></trkpt><trkpt lat="44.391505" lon="8.1957617"><ele>413.3333333333333</ele><time>2026-05-01T14:00:52.149Z</time></trkpt><trkpt lat="44.3914233" lon="8.195755"><ele>412.66666666666663</ele><time>2026-05-01T14:00:55.156Z</time></trkpt><trkpt lat="44.3913833" lon="8.1958233"><ele>412.0</ele><time>2026-05-01T14:00:58.153Z</time></trkpt><trkpt lat="44.3913517" lon="8.195935"><ele>411.3333333333333</ele><time>2026-05-01T14:01:01.158Z</time></trkpt><trkpt lat="44.3913417" lon="8.1960417"><ele>410.66666666666663</ele><time>2026-05-01T14:01:04.155Z</time></trkpt><trkpt lat="44.391335" lon="8.1961417"><ele>410.0</ele><time>2026-05-01T14:01:07.159Z</time></trkpt><trkpt lat="44.3912767" lon="8.1962067"><ele>409.4</ele><time>2026-05-01T14:01:10.152Z</time></trkpt><trkpt lat="44.3912033" lon="8.1962867"><ele>408.8</ele><time>2026-05-01T14:01:15.152Z</time></trkpt><trkpt lat="44.391125" lon="8.1963483"><ele>408.20000000000005</ele><time>2026-05-01T14:01:17.152Z</time></trkpt><trkpt lat="44.3910467" lon="8.196435"><ele>407.6</ele><time>2026-05-01T14:01:19.157Z</time></trkpt><trkpt lat="44.3909767" lon="8.1965433"><ele>407.0</ele><time>2026-05-01T14:01:21.153Z</time></trkpt><trkpt lat="44.3908867" lon="8.19667"><ele>406.42857142857144</ele><time>2026-05-01T14:01:23.154Z</time></trkpt><trkpt lat="44.3908367" lon="8.19674"><ele>405.8571428571429</ele><time>2026-05-01T14:01:24.152Z</time></trkpt><trkpt lat="44.3907867" lon="8.196815"><ele>405.28571428571433</ele><time>2026-05-01T14:01:25.156Z</time></trkpt><trkpt lat="44.3907417" lon="8.1968917"><ele>404.7142857142857</ele><time>2026-05-01T14:01:26.154Z</time></trkpt><trkpt lat="44.39069" lon="8.1969717"><ele>404.1428571428571</ele><time>2026-05-01T14:01:27.154Z</time></trkpt><trkpt lat="44.3906367" lon="8.1970467"><ele>403.5714285714286</ele><time>2026-05-01T14:01:28.154Z</time></trkpt><trkpt lat="44.390585" lon="8.1971283"><ele>403.0</ele><time>2026-05-01T14:01:29.155Z</time></trkpt><trkpt lat="44.3905383" lon="8.197205"><ele>405.59999999999997</ele><time>2026-05-01T14:01:30.15Z</time></trkpt><trkpt lat="44.3905" lon="8.197285"><ele>408.2</ele><time>2026-05-01T14:01:31.149Z</time></trkpt><trkpt lat="44.3904483" lon="8.1974317"><ele>410.8</ele><time>2026-05-01T14:01:33.152Z</time></trkpt><trkpt lat="44.3904167" lon="8.1975733"><ele>413.4</ele><time>2026-05-01T14:01:35.149Z</time></trkpt><trkpt lat="44.3904117" lon="8.1976983"><ele>416.0</ele><time>2026-05-01T14:01:37.151Z</time></trkpt><trkpt lat="44.39041" lon="8.197795"><ele>416.8333333333333</ele><time>2026-05-01T14:01:39.154Z</time></trkpt><trkpt lat="44.390435" lon="8.1979467"><ele>417.66666666666663</ele><time>2026-05-01T14:01:41.155Z</time></trkpt><trkpt lat="44.3904467" lon="8.1980383"><ele>418.5</ele><time>2026-05-01T14:01:42.155Z</time></trkpt><trkpt lat="44.390465" lon="8.1981533"><ele>419.33333333333337</ele><time>2026-05-01T14:01:43.15Z</time></trkpt><trkpt lat="44.3904817" lon="8.19827"><ele>420.1666666666667</ele><time>2026-05-01T14:01:44.152Z</time></trkpt><trkpt lat="44.3904933" lon="8.1983833"><ele>421.0</ele><time>2026-05-01T14:01:45.152Z</time></trkpt><trkpt lat="44.3904917" lon="8.1985067"><ele>421.20000000000005</ele><time>2026-05-01T14:01:46.154Z</time></trkpt><trkpt lat="44.390505" lon="8.1986417"><ele>421.40000000000003</ele><time>2026-05-01T14:01:47.154Z</time></trkpt><trkpt lat="44.3905117" lon="8.19878"><ele>421.6</ele><time>2026-05-01T14:01:48.152Z</time></trkpt><trkpt lat="44.3905117" lon="8.1989133"><ele>421.8</ele><time>2026-05-01T14:01:49.155Z</time></trkpt><trkpt lat="44.3905133" lon="8.1990517"><ele>422.0</ele><time>2026-05-01T14:01:50.154Z</time></trkpt><trkpt lat="44.3905133" lon="8.199195"><ele>422.6</ele><time>2026-05-01T14:01:51.157Z</time></trkpt><trkpt lat="44.3905033" lon="8.1993367"><ele>423.20000000000005</ele><time>2026-05-01T14:01:52.154Z</time></trkpt><trkpt lat="44.3904933" lon="8.1994783"><ele>423.8</ele><time>2026-05-01T14:01:53.155Z</time></trkpt><trkpt lat="44.390475" lon="8.1996233"><ele>424.4</ele><time>2026-05-01T14:01:54.15Z</time></trkpt><trkpt lat="44.390455" lon="8.19977"><ele>425.0</ele><time>2026-05-01T14:01:55.151Z</time></trkpt><trkpt lat="44.3904417" lon="8.1999233"><ele>425.0</ele><time>2026-05-01T14:01:56.16Z</time></trkpt><trkpt lat="44.3904233" lon="8.2000783"><ele>425.0</ele><time>2026-05-01T14:01:57.152Z</time></trkpt><trkpt lat="44.3903983" lon="8.200235"><ele>425.0</ele><time>2026-05-01T14:01:58.152Z</time></trkpt><trkpt lat="44.3903817" lon="8.20039"><ele>425.0</ele><time>2026-05-01T14:01:59.151Z</time></trkpt><trkpt lat="44.3903683" lon="8.2005383"><ele>425.0</ele><time>2026-05-01T14:02:00.152Z</time></trkpt><trkpt lat="44.3903567" lon="8.2006867"><ele>424.2</ele><time>2026-05-01T14:02:01.151Z</time></trkpt><trkpt lat="44.3903517" lon="8.2008367"><ele>423.4</ele><time>2026-05-01T14:02:02.153Z</time></trkpt><trkpt lat="44.3903433" lon="8.2009933"><ele>422.6</ele><time>2026-05-01T14:02:03.155Z</time></trkpt><trkpt lat="44.3903333" lon="8.2011467"><ele>421.8</ele><time>2026-05-01T14:02:04.153Z</time></trkpt><trkpt lat="44.3903183" lon="8.201295"><ele>421.0</ele><time>2026-05-01T14:02:05.153Z</time></trkpt><trkpt lat="44.3903067" lon="8.201435"><ele>420.20000000000005</ele><time>2026-05-01T14:02:06.156Z</time></trkpt><trkpt lat="44.3903033" lon="8.20157"><ele>419.40000000000003</ele><time>2026-05-01T14:02:07.151Z</time></trkpt><trkpt lat="44.390305" lon="8.2017067"><ele>418.6</ele><time>2026-05-01T14:02:08.154Z</time></trkpt><trkpt lat="44.3903067" lon="8.20184"><ele>417.8</ele><time>2026-05-01T14:02:09.152Z</time></trkpt><trkpt lat="44.3903067" lon="8.2019617"><ele>417.0</ele><time>2026-05-01T14:02:10.153Z</time></trkpt><trkpt lat="44.3903067" lon="8.2020733"><ele>417.0</ele><time>2026-05-01T14:02:11.154Z</time></trkpt><trkpt lat="44.3903083" lon="8.2021817"><ele>417.0</ele><time>2026-05-01T14:02:12.154Z</time></trkpt><trkpt lat="44.3903" lon="8.2022883"><ele>417.0</ele><time>2026-05-01T14:02:13.15Z</time></trkpt><trkpt lat="44.3902917" lon="8.202395"><ele>417.0</ele><time>2026-05-01T14:02:14.158Z</time></trkpt><trkpt lat="44.39027" lon="8.2025083"><ele>417.0</ele><time>2026-05-01T14:02:15.155Z</time></trkpt><trkpt lat="44.390235" lon="8.20263"><ele>417.0</ele><time>2026-05-01T14:02:16.149Z</time></trkpt><trkpt lat="44.3901833" lon="8.2027517"><ele>415.8333333333333</ele><time>2026-05-01T14:02:17.157Z</time></trkpt><trkpt lat="44.3901283" lon="8.2028567"><ele>414.66666666666663</ele><time>2026-05-01T14:02:18.158Z</time></trkpt><trkpt lat="44.3900767" lon="8.20294"><ele>413.5</ele><time>2026-05-01T14:02:19.154Z</time></trkpt><trkpt lat="44.3900267" lon="8.203005"><ele>412.3333333333333</ele><time>2026-05-01T14:02:20.151Z</time></trkpt><trkpt lat="44.3899533" lon="8.2030633"><ele>411.16666666666663</ele><time>2026-05-01T14:02:22.154Z</time></trkpt><trkpt lat="44.389885" lon="8.2031283"><ele>410.0</ele><time>2026-05-01T14:02:25.154Z</time></trkpt><trkpt lat="44.389865" lon="8.2032317"><ele>409.49999999999994</ele><time>2026-05-01T14:02:27.157Z</time></trkpt><trkpt lat="44.3898633" lon="8.2033567"><ele>409.0</ele><time>2026-05-01T14:02:29.156Z</time></trkpt><trkpt lat="44.389855" lon="8.203485"><ele>408.5</ele><time>2026-05-01T14:02:31.153Z</time></trkpt><trkpt lat="44.389855" lon="8.203645"><ele>408.0</ele><time>2026-05-01T14:02:33.153Z</time></trkpt><trkpt lat="44.3898567" lon="8.2037417"><ele>407.49999999999994</ele><time>2026-05-01T14:02:34.151Z</time></trkpt><trkpt lat="44.3898567" lon="8.2038367"><ele>407.0</ele><time>2026-05-01T14:02:35.158Z</time></trkpt><trkpt lat="44.389855" lon="8.2039333"><ele>406.6</ele><time>2026-05-01T14:02:36.156Z</time></trkpt><trkpt lat="44.3898567" lon="8.2040317"><ele>406.20000000000005</ele><time>2026-05-01T14:02:37.155Z</time></trkpt><trkpt lat="44.38986" lon="8.2041233"><ele>405.8</ele><time>2026-05-01T14:02:38.153Z</time></trkpt><trkpt lat="44.38987" lon="8.2042817"><ele>405.4</ele><time>2026-05-01T14:02:40.151Z</time></trkpt><trkpt lat="44.3898783" lon="8.2044267"><ele>405.0</ele><time>2026-05-01T14:02:42.151Z</time></trkpt><trkpt lat="44.389875" lon="8.2045983"><ele>405.0</ele><time>2026-05-01T14:02:44.148Z</time></trkpt><trkpt lat="44.3898683" lon="8.2046917"><ele>405.0</ele><time>2026-05-01T14:02:45.15Z</time></trkpt><trkpt lat="44.389855" lon="8.20479"><ele>405.0</ele><time>2026-05-01T14:02:46.151Z</time></trkpt><trkpt lat="44.38983" lon="8.2048917"><ele>405.0</ele><time>2026-05-01T14:02:47.155Z</time></trkpt><trkpt lat="44.3898" lon="8.2049917"><ele>405.0</ele><time>2026-05-01T14:02:48.155Z</time></trkpt><trkpt lat="44.3897683" lon="8.2050967"><ele>405.0</ele><time>2026-05-01T14:02:49.151Z</time></trkpt><trkpt lat="44.3897317" lon="8.2052067"><ele>405.0</ele><time>2026-05-01T14:02:50.156Z</time></trkpt><trkpt lat="44.3896983" lon="8.2053217"><ele>405.0</ele><time>2026-05-01T14:02:51.152Z</time></trkpt><trkpt lat="44.3896717" lon="8.205425"><ele>405.0</ele><time>2026-05-01T14:02:52.154Z</time></trkpt><trkpt lat="44.389655" lon="8.20552"><ele>405.0</ele><time>2026-05-01T14:02:53.154Z</time></trkpt><trkpt lat="44.3896367" lon="8.2056817"><ele>405.0</ele><time>2026-05-01T14:02:55.157Z</time></trkpt><trkpt lat="44.3896217" lon="8.2058383"><ele>405.4</ele><time>2026-05-01T14:02:57.153Z</time></trkpt><trkpt lat="44.38961" lon="8.2060033"><ele>405.8</ele><time>2026-05-01T14:02:59.149Z</time></trkpt><trkpt lat="44.3896033" lon="8.2061683"><ele>406.20000000000005</ele><time>2026-05-01T14:03:01.153Z</time></trkpt><trkpt lat="44.3896" lon="8.20632"><ele>406.6</ele><time>2026-05-01T14:03:03.151Z</time></trkpt><trkpt lat="44.3895833" lon="8.2064283"><ele>407.0</ele><time>2026-05-01T14:03:05.153Z</time></trkpt><trkpt lat="44.3895417" lon="8.2065133"><ele>407.8</ele><time>2026-05-01T14:03:07.155Z</time></trkpt><trkpt lat="44.3894467" lon="8.2066217"><ele>408.6</ele><time>2026-05-01T14:03:09.153Z</time></trkpt><trkpt lat="44.3893533" lon="8.2067333"><ele>409.40000000000003</ele><time>2026-05-01T14:03:11.159Z</time></trkpt><trkpt lat="44.3893067" lon="8.2067983"><ele>410.20000000000005</ele><time>2026-05-01T14:03:12.153Z</time></trkpt><trkpt lat="44.3892117" lon="8.20692"><ele>411.0</ele><time>2026-05-01T14:03:14.154Z</time></trkpt><trkpt lat="44.3891533" lon="8.206995"><ele>411.0</ele><time>2026-05-01T14:03:15.154Z</time></trkpt><trkpt lat="44.3890967" lon="8.2070633"><ele>411.0</ele><time>2026-05-01T14:03:16.151Z</time></trkpt><trkpt lat="44.3890433" lon="8.2071267"><ele>411.0</ele><time>2026-05-01T14:03:17.155Z</time></trkpt><trkpt lat="44.3889867" lon="8.2071883"><ele>411.0</ele><time>2026-05-01T14:03:18.156Z</time></trkpt><trkpt lat="44.3889283" lon="8.207245"><ele>411.0</ele><time>2026-05-01T14:03:19.155Z</time></trkpt><trkpt lat="44.3888683" lon="8.2072967"><ele>411.0</ele><time>2026-05-01T14:03:20.156Z</time></trkpt><trkpt lat="44.3888067" lon="8.2073467"><ele>411.0</ele><time>2026-05-01T14:03:21.156Z</time></trkpt><trkpt lat="44.388735" lon="8.2073967"><ele>411.3333333333333</ele><time>2026-05-01T14:03:22.153Z</time></trkpt><trkpt lat="44.3886683" lon="8.2074483"><ele>411.66666666666663</ele><time>2026-05-01T14:03:23.152Z</time></trkpt><trkpt lat="44.3885833" lon="8.2074917"><ele>412.0</ele><time>2026-05-01T14:03:24.155Z</time></trkpt><trkpt lat="44.3885167" lon="8.20753"><ele>412.3333333333333</ele><time>2026-05-01T14:03:25.155Z</time></trkpt><trkpt lat="44.388445" lon="8.2075683"><ele>412.66666666666663</ele><time>2026-05-01T14:03:26.153Z</time></trkpt><trkpt lat="44.3883783" lon="8.2076033"><ele>413.0</ele><time>2026-05-01T14:03:27.15Z</time></trkpt><trkpt lat="44.3883" lon="8.2076383"><ele>412.99999999999994</ele><time>2026-05-01T14:03:28.153Z</time></trkpt><trkpt lat="44.3882267" lon="8.207675"><ele>413.0</ele><time>2026-05-01T14:03:29.153Z</time></trkpt><trkpt lat="44.3881517" lon="8.2077117"><ele>413.0</ele><time>2026-05-01T14:03:30.155Z</time></trkpt><trkpt lat="44.38808" lon="8.2077467"><ele>413.0</ele><time>2026-05-01T14:03:31.153Z</time></trkpt><trkpt lat="44.3880083" lon="8.20777"><ele>412.99999999999994</ele><time>2026-05-01T14:03:32.15Z</time></trkpt><trkpt lat="44.3879383" lon="8.2078067"><ele>413.0</ele><time>2026-05-01T14:03:33.154Z</time></trkpt><trkpt lat="44.387865" lon="8.20783"><ele>413.3333333333333</ele><time>2026-05-01T14:03:34.15Z</time></trkpt><trkpt lat="44.3877933" lon="8.2078633"><ele>413.66666666666663</ele><time>2026-05-01T14:03:35.151Z</time></trkpt><trkpt lat="44.3877167" lon="8.2078833"><ele>414.0</ele><time>2026-05-01T14:03:36.151Z</time></trkpt><trkpt lat="44.387635" lon="8.2079083"><ele>414.33333333333337</ele><time>2026-05-01T14:03:37.154Z</time></trkpt><trkpt lat="44.3875633" lon="8.2079083"><ele>414.6666666666667</ele><time>2026-05-01T14:03:38.154Z</time></trkpt><trkpt lat="44.3874583" lon="8.207885"><ele>415.0</ele><time>2026-05-01T14:03:40.152Z</time></trkpt><trkpt lat="44.3873467" lon="8.2078667"><ele>415.00000000000006</ele><time>2026-05-01T14:03:42.152Z</time></trkpt><trkpt lat="44.3873083" lon="8.2079433"><ele>415.0</ele><time>2026-05-01T14:03:44.153Z</time></trkpt><trkpt lat="44.3873117" lon="8.2080917"><ele>415.0</ele><time>2026-05-01T14:03:46.156Z</time></trkpt><trkpt lat="44.387325" lon="8.2082283"><ele>415.0</ele><time>2026-05-01T14:03:48.153Z</time></trkpt><trkpt lat="44.3873367" lon="8.208315"><ele>415.00000000000006</ele><time>2026-05-01T14:03:49.155Z</time></trkpt><trkpt lat="44.3873567" lon="8.208415"><ele>415.0</ele><time>2026-05-01T14:03:50.153Z</time></trkpt><trkpt lat="44.3873783" lon="8.2085383"><ele>415.5</ele><time>2026-05-01T14:03:51.151Z</time></trkpt><trkpt lat="44.3874017" lon="8.20867"><ele>416.0</ele><time>2026-05-01T14:03:52.153Z</time></trkpt><trkpt lat="44.38743" lon="8.20882"><ele>416.5</ele><time>2026-05-01T14:03:53.155Z</time></trkpt><trkpt lat="44.3874633" lon="8.208985"><ele>417.0</ele><time>2026-05-01T14:03:54.149Z</time></trkpt><trkpt lat="44.387495" lon="8.2091583"><ele>417.0</ele><time>2026-05-01T14:03:55.153Z</time></trkpt><trkpt lat="44.3875133" lon="8.2093383"><ele>417.0</ele><time>2026-05-01T14:03:56.154Z</time></trkpt><trkpt lat="44.3875283" lon="8.20952"><ele>417.0</ele><time>2026-05-01T14:03:57.152Z</time></trkpt><trkpt lat="44.3875333" lon="8.20971"><ele>417.0</ele><time>2026-05-01T14:03:58.15Z</time></trkpt><trkpt lat="44.387505" lon="8.2099217"><ele>417.25</ele><time>2026-05-01T14:03:59.155Z</time></trkpt><trkpt lat="44.387475" lon="8.2101167"><ele>417.5</ele><time>2026-05-01T14:04:00.153Z</time></trkpt><trkpt lat="44.3874417" lon="8.2102917"><ele>417.75</ele><time>2026-05-01T14:04:01.154Z</time></trkpt><trkpt lat="44.3874083" lon="8.2104517"><ele>418.0</ele><time>2026-05-01T14:04:02.152Z</time></trkpt><trkpt lat="44.3873833" lon="8.2106"><ele>418.75</ele><time>2026-05-01T14:04:03.154Z</time></trkpt><trkpt lat="44.3873583" lon="8.2107467"><ele>419.5</ele><time>2026-05-01T14:04:04.153Z</time></trkpt><trkpt lat="44.38734" lon="8.2109017"><ele>420.25</ele><time>2026-05-01T14:04:05.153Z</time></trkpt><trkpt lat="44.3873283" lon="8.211075"><ele>421.0</ele><time>2026-05-01T14:04:06.151Z</time></trkpt><trkpt lat="44.3873217" lon="8.2112617"><ele>421.0</ele><time>2026-05-01T14:04:07.154Z</time></trkpt><trkpt lat="44.3873283" lon="8.2114617"><ele>421.0</ele><time>2026-05-01T14:04:08.153Z</time></trkpt><trkpt lat="44.387335" lon="8.2116817"><ele>421.0</ele><time>2026-05-01T14:04:09.151Z</time></trkpt><trkpt lat="44.3873533" lon="8.2119017"><ele>421.6666666666667</ele><time>2026-05-01T14:04:10.154Z</time></trkpt><trkpt lat="44.3873833" lon="8.2121167"><ele>422.33333333333337</ele><time>2026-05-01T14:04:11.153Z</time></trkpt><trkpt lat="44.3874133" lon="8.21233"><ele>423.0</ele><time>2026-05-01T14:04:12.153Z</time></trkpt><trkpt lat="44.3874383" lon="8.212545"><ele>423.0</ele><time>2026-05-01T14:04:13.152Z</time></trkpt><trkpt lat="44.38746" lon="8.212765"><ele>423.0</ele><time>2026-05-01T14:04:14.151Z</time></trkpt><trkpt lat="44.387485" lon="8.212985"><ele>423.0</ele><time>2026-05-01T14:04:15.15Z</time></trkpt><trkpt lat="44.3875083" lon="8.21321"><ele>422.66666666666663</ele><time>2026-05-01T14:04:16.152Z</time></trkpt><trkpt lat="44.3875383" lon="8.2134367"><ele>422.3333333333333</ele><time>2026-05-01T14:04:17.152Z</time></trkpt><trkpt lat="44.3875683" lon="8.21367"><ele>422.0</ele><time>2026-05-01T14:04:18.153Z</time></trkpt><trkpt lat="44.3875967" lon="8.2139083"><ele>422.3333333333333</ele><time>2026-05-01T14:04:19.155Z</time></trkpt><trkpt lat="44.3876233" lon="8.2141533"><ele>422.66666666666663</ele><time>2026-05-01T14:04:20.152Z</time></trkpt><trkpt lat="44.38765" lon="8.2144033"><ele>423.0</ele><time>2026-05-01T14:04:21.15Z</time></trkpt><trkpt lat="44.3876817" lon="8.214655"><ele>423.0</ele><time>2026-05-01T14:04:22.15Z</time></trkpt><trkpt lat="44.3877183" lon="8.2149167"><ele>423.0</ele><time>2026-05-01T14:04:23.156Z</time></trkpt><trkpt lat="44.38775" lon="8.215175"><ele>423.0</ele><time>2026-05-01T14:04:24.152Z</time></trkpt><trkpt lat="44.3877783" lon="8.2154367"><ele>423.33333333333337</ele><time>2026-05-01T14:04:25.155Z</time></trkpt><trkpt lat="44.3878083" lon="8.2157133"><ele>423.6666666666667</ele><time>2026-05-01T14:04:26.15Z</time></trkpt><trkpt lat="44.387845" lon="8.2160017"><ele>424.0</ele><time>2026-05-01T14:04:27.161Z</time></trkpt><trkpt lat="44.3878883" lon="8.216305"><ele>424.33333333333337</ele><time>2026-05-01T14:04:28.152Z</time></trkpt><trkpt lat="44.3879233" lon="8.21661"><ele>424.66666666666663</ele><time>2026-05-01T14:04:29.153Z</time></trkpt><trkpt lat="44.3879483" lon="8.2169"><ele>425.0</ele><time>2026-05-01T14:04:30.149Z</time></trkpt><trkpt lat="44.3879733" lon="8.2171583"><ele>425.75</ele><time>2026-05-01T14:04:31.153Z</time></trkpt><trkpt lat="44.3879967" lon="8.2173767"><ele>426.5</ele><time>2026-05-01T14:04:32.152Z</time></trkpt><trkpt lat="44.388015" lon="8.217565"><ele>427.25</ele><time>2026-05-01T14:04:33.152Z</time></trkpt><trkpt lat="44.38803" lon="8.2177383"><ele>428.0</ele><time>2026-05-01T14:04:34.155Z</time></trkpt><trkpt lat="44.38805" lon="8.2179033"><ele>428.59999999999997</ele><time>2026-05-01T14:04:35.15Z</time></trkpt><trkpt lat="44.3880633" lon="8.2180533"><ele>429.19999999999993</ele><time>2026-05-01T14:04:36.156Z</time></trkpt><trkpt lat="44.388075" lon="8.2182033"><ele>429.8</ele><time>2026-05-01T14:04:37.153Z</time></trkpt><trkpt lat="44.3880783" lon="8.21835"><ele>430.4</ele><time>2026-05-01T14:04:38.152Z</time></trkpt><trkpt lat="44.38807" lon="8.2185"><ele>431.0</ele><time>2026-05-01T14:04:39.149Z</time></trkpt><trkpt lat="44.3880617" lon="8.2186533"><ele>431.0</ele><time>2026-05-01T14:04:40.151Z</time></trkpt><trkpt lat="44.3880483" lon="8.2187983"><ele>431.0</ele><time>2026-05-01T14:04:41.155Z</time></trkpt><trkpt lat="44.3880333" lon="8.2189433"><ele>431.0</ele><time>2026-05-01T14:04:42.156Z</time></trkpt><trkpt lat="44.3880233" lon="8.2190867"><ele>431.0</ele><time>2026-05-01T14:04:43.154Z</time></trkpt><trkpt lat="44.38801" lon="8.2192333"><ele>431.0</ele><time>2026-05-01T14:04:44.157Z</time></trkpt><trkpt lat="44.3879967" lon="8.21938"><ele>432.6</ele><time>2026-05-01T14:04:45.15Z</time></trkpt><trkpt lat="44.3879817" lon="8.21953"><ele>434.20000000000005</ele><time>2026-05-01T14:04:46.157Z</time></trkpt><trkpt lat="44.3879633" lon="8.2196817"><ele>435.79999999999995</ele><time>2026-05-01T14:04:47.154Z</time></trkpt><trkpt lat="44.387945" lon="8.219835"><ele>437.4</ele><time>2026-05-01T14:04:48.155Z</time></trkpt><trkpt lat="44.3879233" lon="8.2199933"><ele>439.0</ele><time>2026-05-01T14:04:49.156Z</time></trkpt><trkpt lat="44.38789" lon="8.2201517"><ele>439.75</ele><time>2026-05-01T14:04:50.16Z</time></trkpt><trkpt lat="44.3878467" lon="8.2203083"><ele>440.5</ele><time>2026-05-01T14:04:51.156Z</time></trkpt><trkpt lat="44.3877917" lon="8.2204583"><ele>441.25</ele><time>2026-05-01T14:04:52.156Z</time></trkpt><trkpt lat="44.3877317" lon="8.2206067"><ele>442.0</ele><time>2026-05-01T14:04:53.156Z</time></trkpt><trkpt lat="44.3876667" lon="8.2207517"><ele>442.25</ele><time>2026-05-01T14:04:54.155Z</time></trkpt><trkpt lat="44.3876067" lon="8.2208933"><ele>442.5</ele><time>2026-05-01T14:04:55.156Z</time></trkpt><trkpt lat="44.3875317" lon="8.2210567"><ele>442.75</ele><time>2026-05-01T14:04:56.15Z</time></trkpt><trkpt lat="44.3874033" lon="8.22124"><ele>443.0</ele><time>2026-05-01T14:04:57.153Z</time></trkpt><trkpt lat="44.387245" lon="8.22145"><ele>448.0</ele><time>2026-05-01T14:04:58.156Z</time></trkpt><trkpt lat="44.38707" lon="8.2216667"><ele>453.0</ele><time>2026-05-01T14:04:59.157Z</time></trkpt><trkpt lat="44.3868967" lon="8.221885"><ele>453.0</ele><time>2026-05-01T14:05:00.155Z</time></trkpt><trkpt lat="44.3867183" lon="8.2221"><ele>453.0</ele><time>2026-05-01T14:05:01.156Z</time></trkpt><trkpt lat="44.3865517" lon="8.2223133"><ele>450.0</ele><time>2026-05-01T14:05:02.153Z</time></trkpt><trkpt lat="44.3863983" lon="8.22251"><ele>447.0</ele><time>2026-05-01T14:05:03.164Z</time></trkpt><trkpt lat="44.3862683" lon="8.2226967"><ele>444.0</ele><time>2026-05-01T14:05:04.157Z</time></trkpt><trkpt lat="44.38616" lon="8.22289"><ele>443.33333333333337</ele><time>2026-05-01T14:05:05.156Z</time></trkpt><trkpt lat="44.3860717" lon="8.2231017"><ele>442.6666666666667</ele><time>2026-05-01T14:05:06.152Z</time></trkpt><trkpt lat="44.3859833" lon="8.2233283"><ele>442.0</ele><time>2026-05-01T14:05:07.153Z</time></trkpt><trkpt lat="44.385895" lon="8.2235517"><ele>442.0</ele><time>2026-05-01T14:05:08.153Z</time></trkpt><trkpt lat="44.3858" lon="8.2237683"><ele>442.0</ele><time>2026-05-01T14:05:09.157Z</time></trkpt><trkpt lat="44.3857067" lon="8.223985"><ele>442.0</ele><time>2026-05-01T14:05:10.152Z</time></trkpt><trkpt lat="44.38561" lon="8.2242033"><ele>442.6666666666667</ele><time>2026-05-01T14:05:11.154Z</time></trkpt><trkpt lat="44.38551" lon="8.2244217"><ele>443.33333333333337</ele><time>2026-05-01T14:05:12.152Z</time></trkpt><trkpt lat="44.38541" lon="8.2246267"><ele>444.0</ele><time>2026-05-01T14:05:13.155Z</time></trkpt><trkpt lat="44.3853117" lon="8.22482"><ele>444.0</ele><time>2026-05-01T14:05:14.159Z</time></trkpt><trkpt lat="44.3852217" lon="8.2250017"><ele>444.0</ele><time>2026-05-01T14:05:15.154Z</time></trkpt><trkpt lat="44.385135" lon="8.2251633"><ele>444.0</ele><time>2026-05-01T14:05:16.157Z</time></trkpt><trkpt lat="44.3850433" lon="8.22532"><ele>444.0</ele><time>2026-05-01T14:05:17.158Z</time></trkpt><trkpt lat="44.3849367" lon="8.2254717"><ele>444.0</ele><time>2026-05-01T14:05:18.154Z</time></trkpt><trkpt lat="44.38482" lon="8.2256183"><ele>444.0</ele><time>2026-05-01T14:05:19.157Z</time></trkpt><trkpt lat="44.3846933" lon="8.22577"><ele>444.0</ele><time>2026-05-01T14:05:20.156Z</time></trkpt><trkpt lat="44.3845633" lon="8.2259167"><ele>443.33333333333337</ele><time>2026-05-01T14:05:21.155Z</time></trkpt><trkpt lat="44.3844267" lon="8.2260583"><ele>442.6666666666667</ele><time>2026-05-01T14:05:22.153Z</time></trkpt><trkpt lat="44.38428" lon="8.2261883"><ele>442.0</ele><time>2026-05-01T14:05:23.154Z</time></trkpt><trkpt lat="44.384125" lon="8.2263"><ele>442.0</ele><time>2026-05-01T14:05:24.153Z</time></trkpt><trkpt lat="44.38396" lon="8.2263983"><ele>442.0</ele><time>2026-05-01T14:05:25.157Z</time></trkpt><trkpt lat="44.3837883" lon="8.22649"><ele>442.0</ele><time>2026-05-01T14:05:26.155Z</time></trkpt><trkpt lat="44.38361" lon="8.22657"><ele>443.6666666666667</ele><time>2026-05-01T14:05:27.152Z</time></trkpt><trkpt lat="44.383425" lon="8.2266383"><ele>445.33333333333337</ele><time>2026-05-01T14:05:28.155Z</time></trkpt><trkpt lat="44.3832433" lon="8.2267067"><ele>447.0</ele><time>2026-05-01T14:05:29.158Z</time></trkpt><trkpt lat="44.38306" lon="8.2267767"><ele>447.33333333333337</ele><time>2026-05-01T14:05:30.157Z</time></trkpt><trkpt lat="44.3828767" lon="8.2268517"><ele>447.6666666666667</ele><time>2026-05-01T14:05:31.158Z</time></trkpt><trkpt lat="44.3826933" lon="8.2269217"><ele>448.0</ele><time>2026-05-01T14:05:32.159Z</time></trkpt><trkpt lat="44.3825133" lon="8.226995"><ele>448.0</ele><time>2026-05-01T14:05:33.155Z</time></trkpt><trkpt lat="44.3823333" lon="8.2270633"><ele>448.0</ele><time>2026-05-01T14:05:34.157Z</time></trkpt><trkpt lat="44.3821567" lon="8.2271483"><ele>448.0</ele><time>2026-05-01T14:05:35.156Z</time></trkpt><trkpt lat="44.3819867" lon="8.227255"><ele>449.0</ele><time>2026-05-01T14:05:36.16Z</time></trkpt><trkpt lat="44.3818217" lon="8.2273833"><ele>450.0</ele><time>2026-05-01T14:05:37.152Z</time></trkpt><trkpt lat="44.38167" lon="8.22753"><ele>451.0</ele><time>2026-05-01T14:05:38.155Z</time></trkpt><trkpt lat="44.3815217" lon="8.22769"><ele>451.0</ele><time>2026-05-01T14:05:39.156Z</time></trkpt><trkpt lat="44.3813767" lon="8.22785"><ele>451.0</ele><time>2026-05-01T14:05:40.151Z</time></trkpt><trkpt lat="44.3812317" lon="8.2280017"><ele>451.0</ele><time>2026-05-01T14:05:41.156Z</time></trkpt><trkpt lat="44.3810867" lon="8.228155"><ele>452.6666666666667</ele><time>2026-05-01T14:05:42.153Z</time></trkpt><trkpt lat="44.3809333" lon="8.2282717"><ele>454.33333333333337</ele><time>2026-05-01T14:05:43.152Z</time></trkpt><trkpt lat="44.3807667" lon="8.2283683"><ele>456.0</ele><time>2026-05-01T14:05:44.152Z</time></trkpt><trkpt lat="44.3805783" lon="8.2284533"><ele>457.0</ele><time>2026-05-01T14:05:45.152Z</time></trkpt><trkpt lat="44.3803967" lon="8.228525"><ele>458.0</ele><time>2026-05-01T14:05:46.153Z</time></trkpt><trkpt lat="44.3802133" lon="8.228595"><ele>459.0</ele><time>2026-05-01T14:05:47.157Z</time></trkpt><trkpt lat="44.3800433" lon="8.2286667"><ele>459.0</ele><time>2026-05-01T14:05:48.152Z</time></trkpt><trkpt lat="44.3798833" lon="8.228755"><ele>459.0</ele><time>2026-05-01T14:05:49.156Z</time></trkpt><trkpt lat="44.3797383" lon="8.2288617"><ele>459.0</ele><time>2026-05-01T14:05:50.156Z</time></trkpt><trkpt lat="44.3796133" lon="8.229"><ele>462.33333333333337</ele><time>2026-05-01T14:05:51.152Z</time></trkpt><trkpt lat="44.3795083" lon="8.2291767"><ele>465.6666666666667</ele><time>2026-05-01T14:05:52.154Z</time></trkpt><trkpt lat="44.37944" lon="8.2293867"><ele>469.0</ele><time>2026-05-01T14:05:53.16Z</time></trkpt><trkpt lat="44.3793933" lon="8.2296167"><ele>471.6666666666667</ele><time>2026-05-01T14:05:54.151Z</time></trkpt><trkpt lat="44.3793533" lon="8.2298617"><ele>474.33333333333337</ele><time>2026-05-01T14:05:55.159Z</time></trkpt><trkpt lat="44.3793183" lon="8.2301233"><ele>477.0</ele><time>2026-05-01T14:05:56.157Z</time></trkpt><trkpt lat="44.3792817" lon="8.2303883"><ele>478.66666666666663</ele><time>2026-05-01T14:05:57.151Z</time></trkpt><trkpt lat="44.3792383" lon="8.2306617"><ele>480.3333333333333</ele><time>2026-05-01T14:05:58.154Z</time></trkpt><trkpt lat="44.379195" lon="8.23095"><ele>482.0</ele><time>2026-05-01T14:05:59.154Z</time></trkpt><trkpt lat="44.37915" lon="8.2312467"><ele>483.0</ele><time>2026-05-01T14:06:00.154Z</time></trkpt><trkpt lat="44.37911" lon="8.2315283"><ele>484.0</ele><time>2026-05-01T14:06:01.151Z</time></trkpt><trkpt lat="44.3790733" lon="8.23178"><ele>485.0</ele><time>2026-05-01T14:06:02.153Z</time></trkpt><trkpt lat="44.3790233" lon="8.232025"><ele>485.0</ele><time>2026-05-01T14:06:03.161Z</time></trkpt><trkpt lat="44.378965" lon="8.232245"><ele>485.0</ele><time>2026-05-01T14:06:04.154Z</time></trkpt><trkpt lat="44.37889" lon="8.23244"><ele>485.0</ele><time>2026-05-01T14:06:05.153Z</time></trkpt><trkpt lat="44.3787917" lon="8.2326067"><ele>483.3333333333333</ele><time>2026-05-01T14:06:06.152Z</time></trkpt><trkpt lat="44.3786783" lon="8.2327383"><ele>481.66666666666663</ele><time>2026-05-01T14:06:07.157Z</time></trkpt><trkpt lat="44.378535" lon="8.2328417"><ele>480.0</ele><time>2026-05-01T14:06:08.156Z</time></trkpt><trkpt lat="44.3783683" lon="8.2329167"><ele>480.0</ele><time>2026-05-01T14:06:09.154Z</time></trkpt><trkpt lat="44.3781883" lon="8.2329633"><ele>480.0</ele><time>2026-05-01T14:06:10.153Z</time></trkpt><trkpt lat="44.3780167" lon="8.2330083"><ele>480.0</ele><time>2026-05-01T14:06:11.152Z</time></trkpt><trkpt lat="44.3778583" lon="8.23305"><ele>482.5</ele><time>2026-05-01T14:06:12.159Z</time></trkpt><trkpt lat="44.3777117" lon="8.2331167"><ele>485.0</ele><time>2026-05-01T14:06:13.158Z</time></trkpt><trkpt lat="44.37759" lon="8.2332117"><ele>487.5</ele><time>2026-05-01T14:06:14.162Z</time></trkpt><trkpt lat="44.377475" lon="8.233325"><ele>490.0</ele><time>2026-05-01T14:06:15.152Z</time></trkpt><trkpt lat="44.3773683" lon="8.2334583"><ele>486.6666666666667</ele><time>2026-05-01T14:06:16.157Z</time></trkpt><trkpt lat="44.3772517" lon="8.2336017"><ele>483.33333333333337</ele><time>2026-05-01T14:06:17.16Z</time></trkpt><trkpt lat="44.3771167" lon="8.2337367"><ele>480.0</ele><time>2026-05-01T14:06:18.156Z</time></trkpt><trkpt lat="44.37697" lon="8.2338683"><ele>472.66666666666663</ele><time>2026-05-01T14:06:19.153Z</time></trkpt><trkpt lat="44.376815" lon="8.2339883"><ele>465.3333333333333</ele><time>2026-05-01T14:06:20.154Z</time></trkpt><trkpt lat="44.3766517" lon="8.2341017"><ele>458.0</ele><time>2026-05-01T14:06:21.162Z</time></trkpt><trkpt lat="44.3764767" lon="8.2342117"><ele>458.66666666666663</ele><time>2026-05-01T14:06:22.156Z</time></trkpt><trkpt lat="44.376295" lon="8.2343083"><ele>459.33333333333337</ele><time>2026-05-01T14:06:23.158Z</time></trkpt><trkpt lat="44.37613" lon="8.2343967"><ele>460.0</ele><time>2026-05-01T14:06:24.157Z</time></trkpt><trkpt lat="44.3759867" lon="8.23449"><ele>460.0</ele><time>2026-05-01T14:06:25.156Z</time></trkpt><trkpt lat="44.3758517" lon="8.2346033"><ele>460.0</ele><time>2026-05-01T14:06:26.151Z</time></trkpt><trkpt lat="44.3757333" lon="8.234755"><ele>460.0</ele><time>2026-05-01T14:06:27.155Z</time></trkpt><trkpt lat="44.3756217" lon="8.2349183"><ele>458.33333333333337</ele><time>2026-05-01T14:06:28.153Z</time></trkpt><trkpt lat="44.3755133" lon="8.2350983"><ele>456.66666666666663</ele><time>2026-05-01T14:06:29.151Z</time></trkpt><trkpt lat="44.3754083" lon="8.235295"><ele>455.0</ele><time>2026-05-01T14:06:30.15Z</time></trkpt><trkpt lat="44.3753033" lon="8.23548"><ele>453.0</ele><time>2026-05-01T14:06:31.15Z</time></trkpt><trkpt lat="44.3751883" lon="8.2356683"><ele>451.0</ele><time>2026-05-01T14:06:32.155Z</time></trkpt><trkpt lat="44.3750817" lon="8.2358533"><ele>449.0</ele><time>2026-05-01T14:06:33.154Z</time></trkpt><trkpt lat="44.37498" lon="8.23604"><ele>449.0</ele><time>2026-05-01T14:06:34.155Z</time></trkpt><trkpt lat="44.3748733" lon="8.2362233"><ele>449.0</ele><time>2026-05-01T14:06:35.154Z</time></trkpt><trkpt lat="44.3747717" lon="8.2364033"><ele>449.0</ele><time>2026-05-01T14:06:36.154Z</time></trkpt><trkpt lat="44.3746733" lon="8.2365783"><ele>448.66666666666663</ele><time>2026-05-01T14:06:37.16Z</time></trkpt><trkpt lat="44.3745733" lon="8.2367583"><ele>448.33333333333337</ele><time>2026-05-01T14:06:38.157Z</time></trkpt><trkpt lat="44.3744667" lon="8.2369217"><ele>448.0</ele><time>2026-05-01T14:06:39.154Z</time></trkpt><trkpt lat="44.3743667" lon="8.2371083"><ele>448.0</ele><time>2026-05-01T14:06:40.152Z</time></trkpt><trkpt lat="44.374265" lon="8.2372883"><ele>448.0</ele><time>2026-05-01T14:06:41.154Z</time></trkpt><trkpt lat="44.37416" lon="8.237465"><ele>448.0</ele><time>2026-05-01T14:06:42.153Z</time></trkpt><trkpt lat="44.3740533" lon="8.2376517"><ele>447.33333333333337</ele><time>2026-05-01T14:06:43.153Z</time></trkpt><trkpt lat="44.373945" lon="8.2378467"><ele>446.66666666666663</ele><time>2026-05-01T14:06:44.152Z</time></trkpt><trkpt lat="44.3738383" lon="8.238045"><ele>446.0</ele><time>2026-05-01T14:06:45.152Z</time></trkpt><trkpt lat="44.3737283" lon="8.2382367"><ele>443.3333333333333</ele><time>2026-05-01T14:06:46.153Z</time></trkpt><trkpt lat="44.37362" lon="8.2384317"><ele>440.66666666666663</ele><time>2026-05-01T14:06:47.156Z</time></trkpt><trkpt lat="44.3735033" lon="8.2386333"><ele>438.0</ele><time>2026-05-01T14:06:48.152Z</time></trkpt><trkpt lat="44.3733967" lon="8.238845"><ele>436.0</ele><time>2026-05-01T14:06:49.151Z</time></trkpt><trkpt lat="44.3733117" lon="8.2390717"><ele>434.0</ele><time>2026-05-01T14:06:50.159Z</time></trkpt><trkpt lat="44.373245" lon="8.23932"><ele>432.0</ele><time>2026-05-01T14:06:51.154Z</time></trkpt><trkpt lat="44.3731933" lon="8.2395717"><ele>429.66666666666663</ele><time>2026-05-01T14:06:52.154Z</time></trkpt><trkpt lat="44.373155" lon="8.23982"><ele>427.3333333333333</ele><time>2026-05-01T14:06:53.156Z</time></trkpt><trkpt lat="44.37312" lon="8.2400717"><ele>425.0</ele><time>2026-05-01T14:06:54.149Z</time></trkpt><trkpt lat="44.373085" lon="8.240335"><ele>425.0</ele><time>2026-05-01T14:06:55.154Z</time></trkpt><trkpt lat="44.3730533" lon="8.24061"><ele>425.0</ele><time>2026-05-01T14:06:56.153Z</time></trkpt><trkpt lat="44.3730167" lon="8.24088"><ele>425.0</ele><time>2026-05-01T14:06:57.155Z</time></trkpt><trkpt lat="44.372985" lon="8.2411567"><ele>424.0</ele><time>2026-05-01T14:06:58.157Z</time></trkpt><trkpt lat="44.372945" lon="8.2414283"><ele>423.0</ele><time>2026-05-01T14:06:59.15Z</time></trkpt><trkpt lat="44.3729083" lon="8.2417083"><ele>422.0</ele><time>2026-05-01T14:07:00.156Z</time></trkpt><trkpt lat="44.37288" lon="8.2419817"><ele>422.0</ele><time>2026-05-01T14:07:01.157Z</time></trkpt><trkpt lat="44.3728367" lon="8.2422533"><ele>422.0</ele><time>2026-05-01T14:07:02.157Z</time></trkpt><trkpt lat="44.3728133" lon="8.242545"><ele>422.0</ele><time>2026-05-01T14:07:03.158Z</time></trkpt><trkpt lat="44.3727867" lon="8.242825"><ele>421.3333333333333</ele><time>2026-05-01T14:07:04.154Z</time></trkpt><trkpt lat="44.37277" lon="8.24311"><ele>420.66666666666663</ele><time>2026-05-01T14:07:05.159Z</time></trkpt><trkpt lat="44.3727483" lon="8.2433883"><ele>420.0</ele><time>2026-05-01T14:07:06.153Z</time></trkpt><trkpt lat="44.37274" lon="8.2436683"><ele>419.0</ele><time>2026-05-01T14:07:07.155Z</time></trkpt><trkpt lat="44.3727267" lon="8.2439517"><ele>418.0</ele><time>2026-05-01T14:07:08.158Z</time></trkpt><trkpt lat="44.372715" lon="8.2442317"><ele>417.0</ele><time>2026-05-01T14:07:09.151Z</time></trkpt><trkpt lat="44.3727017" lon="8.24451"><ele>417.0</ele><time>2026-05-01T14:07:10.16Z</time></trkpt><trkpt lat="44.3726933" lon="8.2447933"><ele>417.0</ele><time>2026-05-01T14:07:11.154Z</time></trkpt><trkpt lat="44.3726767" lon="8.245075"><ele>417.0</ele><time>2026-05-01T14:07:12.154Z</time></trkpt><trkpt lat="44.3726633" lon="8.2453583"><ele>417.66666666666663</ele><time>2026-05-01T14:07:13.154Z</time></trkpt><trkpt lat="44.372655" lon="8.2456367"><ele>418.3333333333333</ele><time>2026-05-01T14:07:14.154Z</time></trkpt><trkpt lat="44.3726317" lon="8.245905"><ele>419.0</ele><time>2026-05-01T14:07:15.154Z</time></trkpt><trkpt lat="44.3726017" lon="8.2461733"><ele>419.0</ele><time>2026-05-01T14:07:16.151Z</time></trkpt><trkpt lat="44.3725533" lon="8.24645"><ele>419.0</ele><time>2026-05-01T14:07:17.154Z</time></trkpt><trkpt lat="44.3724933" lon="8.2467167"><ele>419.0</ele><time>2026-05-01T14:07:18.153Z</time></trkpt><trkpt lat="44.37242" lon="8.2469833"><ele>418.0</ele><time>2026-05-01T14:07:19.15Z</time></trkpt><trkpt lat="44.37234" lon="8.2472433"><ele>417.0</ele><time>2026-05-01T14:07:20.154Z</time></trkpt><trkpt lat="44.3722483" lon="8.2475017"><ele>416.0</ele><time>2026-05-01T14:07:21.152Z</time></trkpt><trkpt lat="44.3721483" lon="8.2477633"><ele>414.66666666666663</ele><time>2026-05-01T14:07:22.153Z</time></trkpt><trkpt lat="44.37205" lon="8.24803"><ele>413.33333333333337</ele><time>2026-05-01T14:07:23.157Z</time></trkpt><trkpt lat="44.3719483" lon="8.2482967"><ele>412.0</ele><time>2026-05-01T14:07:24.157Z</time></trkpt><trkpt lat="44.37184" lon="8.24856"><ele>412.0</ele><time>2026-05-01T14:07:25.155Z</time></trkpt><trkpt lat="44.3717333" lon="8.2488133"><ele>412.0</ele><time>2026-05-01T14:07:26.156Z</time></trkpt><trkpt lat="44.37164" lon="8.2490617"><ele>412.0</ele><time>2026-05-01T14:07:27.157Z</time></trkpt><trkpt lat="44.37156" lon="8.2493067"><ele>411.0</ele><time>2026-05-01T14:07:28.155Z</time></trkpt><trkpt lat="44.3714783" lon="8.2495583"><ele>410.0</ele><time>2026-05-01T14:07:29.153Z</time></trkpt><trkpt lat="44.3714167" lon="8.2498217"><ele>409.0</ele><time>2026-05-01T14:07:30.159Z</time></trkpt><trkpt lat="44.3713767" lon="8.2500967"><ele>409.0</ele><time>2026-05-01T14:07:31.152Z</time></trkpt><trkpt lat="44.37136" lon="8.25039"><ele>409.0</ele><time>2026-05-01T14:07:32.153Z</time></trkpt><trkpt lat="44.3713567" lon="8.250695"><ele>409.0</ele><time>2026-05-01T14:07:33.158Z</time></trkpt><trkpt lat="44.371375" lon="8.2510117"><ele>408.5</ele><time>2026-05-01T14:07:34.152Z</time></trkpt><trkpt lat="44.3714017" lon="8.251335"><ele>408.0</ele><time>2026-05-01T14:07:35.155Z</time></trkpt><trkpt lat="44.371425" lon="8.2516633"><ele>405.5</ele><time>2026-05-01T14:07:36.15Z</time></trkpt><trkpt lat="44.3714533" lon="8.2519983"><ele>403.0</ele><time>2026-05-01T14:07:37.152Z</time></trkpt><trkpt lat="44.3714867" lon="8.2523233"><ele>403.0</ele><time>2026-05-01T14:07:38.152Z</time></trkpt><trkpt lat="44.3715233" lon="8.252635"><ele>403.0</ele><time>2026-05-01T14:07:39.15Z</time></trkpt><trkpt lat="44.3715817" lon="8.2529383"><ele>403.33333333333337</ele><time>2026-05-01T14:07:40.155Z</time></trkpt><trkpt lat="44.37165" lon="8.2532317"><ele>403.66666666666663</ele><time>2026-05-01T14:07:41.152Z</time></trkpt><trkpt lat="44.3717383" lon="8.25352"><ele>404.0</ele><time>2026-05-01T14:07:42.153Z</time></trkpt><trkpt lat="44.3718417" lon="8.2537983"><ele>404.0</ele><time>2026-05-01T14:07:43.15Z</time></trkpt><trkpt lat="44.37195" lon="8.2540767"><ele>404.0</ele><time>2026-05-01T14:07:44.156Z</time></trkpt><trkpt lat="44.3720583" lon="8.25435"><ele>404.0</ele><time>2026-05-01T14:07:45.15Z</time></trkpt><trkpt lat="44.37217" lon="8.2546183"><ele>404.0</ele><time>2026-05-01T14:07:46.159Z</time></trkpt><trkpt lat="44.3722817" lon="8.25489"><ele>404.0</ele><time>2026-05-01T14:07:47.153Z</time></trkpt><trkpt lat="44.3723967" lon="8.2551517"><ele>402.66666666666663</ele><time>2026-05-01T14:07:48.154Z</time></trkpt><trkpt lat="44.372505" lon="8.2554233"><ele>401.33333333333337</ele><time>2026-05-01T14:07:49.152Z</time></trkpt><trkpt lat="44.3726117" lon="8.2556933"><ele>400.0</ele><time>2026-05-01T14:07:50.156Z</time></trkpt><trkpt lat="44.3727183" lon="8.2559667"><ele>396.0</ele><time>2026-05-01T14:07:51.161Z</time></trkpt><trkpt lat="44.3728267" lon="8.25625"><ele>392.0</ele><time>2026-05-01T14:07:52.159Z</time></trkpt><trkpt lat="44.372935" lon="8.2565317"><ele>391.66666666666663</ele><time>2026-05-01T14:07:53.157Z</time></trkpt><trkpt lat="44.37304" lon="8.256795"><ele>391.33333333333337</ele><time>2026-05-01T14:07:54.157Z</time></trkpt><trkpt lat="44.3731283" lon="8.257035"><ele>391.0</ele><time>2026-05-01T14:07:55.151Z</time></trkpt><trkpt lat="44.3732017" lon="8.25727"><ele>388.33333333333337</ele><time>2026-05-01T14:07:56.156Z</time></trkpt><trkpt lat="44.3732583" lon="8.25751"><ele>385.6666666666667</ele><time>2026-05-01T14:07:57.153Z</time></trkpt><trkpt lat="44.3732983" lon="8.257765"><ele>383.0</ele><time>2026-05-01T14:07:58.154Z</time></trkpt><trkpt lat="44.3733233" lon="8.2580383"><ele>383.33333333333337</ele><time>2026-05-01T14:07:59.15Z</time></trkpt><trkpt lat="44.373335" lon="8.2583267"><ele>383.6666666666667</ele><time>2026-05-01T14:08:00.15Z</time></trkpt><trkpt lat="44.3733333" lon="8.2586333"><ele>384.0</ele><time>2026-05-01T14:08:01.151Z</time></trkpt><trkpt lat="44.37333" lon="8.25895"><ele>384.0</ele><time>2026-05-01T14:08:02.153Z</time></trkpt><trkpt lat="44.3733133" lon="8.259295"><ele>384.0</ele><time>2026-05-01T14:08:03.15Z</time></trkpt><trkpt lat="44.3733" lon="8.2596467"><ele>384.5</ele><time>2026-05-01T14:08:04.155Z</time></trkpt><trkpt lat="44.3732967" lon="8.26001"><ele>385.0</ele><time>2026-05-01T14:08:05.153Z</time></trkpt><trkpt lat="44.3732867" lon="8.2603867"><ele>385.5</ele><time>2026-05-01T14:08:06.158Z</time></trkpt><trkpt lat="44.3732817" lon="8.2607567"><ele>386.0</ele><time>2026-05-01T14:08:07.157Z</time></trkpt><trkpt lat="44.3732767" lon="8.2611117"><ele>386.0</ele><time>2026-05-01T14:08:08.153Z</time></trkpt><trkpt lat="44.3732717" lon="8.2614483"><ele>386.0</ele><time>2026-05-01T14:08:09.156Z</time></trkpt><trkpt lat="44.3732717" lon="8.261765"><ele>385.0</ele><time>2026-05-01T14:08:10.153Z</time></trkpt><trkpt lat="44.3732733" lon="8.2620667"><ele>384.0</ele><time>2026-05-01T14:08:11.16Z</time></trkpt><trkpt lat="44.3732733" lon="8.2623533"><ele>383.0</ele><time>2026-05-01T14:08:12.153Z</time></trkpt><trkpt lat="44.37327" lon="8.26263"><ele>381.33333333333337</ele><time>2026-05-01T14:08:13.153Z</time></trkpt><trkpt lat="44.373265" lon="8.2628967"><ele>379.6666666666667</ele><time>2026-05-01T14:08:14.157Z</time></trkpt><trkpt lat="44.37326" lon="8.263155"><ele>378.0</ele><time>2026-05-01T14:08:15.155Z</time></trkpt><trkpt lat="44.37325" lon="8.263405"><ele>377.3333333333333</ele><time>2026-05-01T14:08:16.161Z</time></trkpt><trkpt lat="44.3732417" lon="8.2636483"><ele>376.66666666666663</ele><time>2026-05-01T14:08:17.155Z</time></trkpt><trkpt lat="44.3732333" lon="8.26388"><ele>376.0</ele><time>2026-05-01T14:08:18.151Z</time></trkpt><trkpt lat="44.3732233" lon="8.26411"><ele>375.0</ele><time>2026-05-01T14:08:19.152Z</time></trkpt><trkpt lat="44.373205" lon="8.2643367"><ele>374.0</ele><time>2026-05-01T14:08:20.153Z</time></trkpt><trkpt lat="44.3731833" lon="8.2645683"><ele>373.0</ele><time>2026-05-01T14:08:21.151Z</time></trkpt><trkpt lat="44.3731467" lon="8.2647983"><ele>373.0</ele><time>2026-05-01T14:08:22.152Z</time></trkpt><trkpt lat="44.3731033" lon="8.2650183"><ele>373.0</ele><time>2026-05-01T14:08:23.154Z</time></trkpt><trkpt lat="44.373055" lon="8.2652233"><ele>373.0</ele><time>2026-05-01T14:08:24.151Z</time></trkpt><trkpt lat="44.3730083" lon="8.2654217"><ele>371.66666666666663</ele><time>2026-05-01T14:08:25.151Z</time></trkpt><trkpt lat="44.3729567" lon="8.265615"><ele>370.3333333333333</ele><time>2026-05-01T14:08:26.154Z</time></trkpt><trkpt lat="44.3729017" lon="8.2658117"><ele>369.0</ele><time>2026-05-01T14:08:27.152Z</time></trkpt><trkpt lat="44.37285" lon="8.2660117"><ele>369.0</ele><time>2026-05-01T14:08:28.156Z</time></trkpt><trkpt lat="44.3727983" lon="8.2662183"><ele>369.0</ele><time>2026-05-01T14:08:29.157Z</time></trkpt><trkpt lat="44.3727467" lon="8.2664267"><ele>369.0</ele><time>2026-05-01T14:08:30.16Z</time></trkpt><trkpt lat="44.372695" lon="8.2666417"><ele>368.6666666666667</ele><time>2026-05-01T14:08:31.153Z</time></trkpt><trkpt lat="44.372635" lon="8.2668617"><ele>368.33333333333337</ele><time>2026-05-01T14:08:32.158Z</time></trkpt><trkpt lat="44.37258" lon="8.26709"><ele>368.0</ele><time>2026-05-01T14:08:33.154Z</time></trkpt><trkpt lat="44.372525" lon="8.26732"><ele>368.6666666666667</ele><time>2026-05-01T14:08:34.162Z</time></trkpt><trkpt lat="44.3724683" lon="8.2675533"><ele>369.3333333333333</ele><time>2026-05-01T14:08:35.158Z</time></trkpt><trkpt lat="44.3724117" lon="8.2677867"><ele>370.0</ele><time>2026-05-01T14:08:36.157Z</time></trkpt><trkpt lat="44.3723617" lon="8.2680167"><ele>370.0</ele><time>2026-05-01T14:08:37.153Z</time></trkpt><trkpt lat="44.372325" lon="8.2682417"><ele>370.0</ele><time>2026-05-01T14:08:38.149Z</time></trkpt><trkpt lat="44.37228" lon="8.26846"><ele>370.0</ele><time>2026-05-01T14:08:39.158Z</time></trkpt><trkpt lat="44.3722433" lon="8.2686733"><ele>370.0</ele><time>2026-05-01T14:08:40.157Z</time></trkpt><trkpt lat="44.3722033" lon="8.26888"><ele>370.0</ele><time>2026-05-01T14:08:41.156Z</time></trkpt><trkpt lat="44.3721583" lon="8.2690867"><ele>370.0</ele><time>2026-05-01T14:08:42.154Z</time></trkpt><trkpt lat="44.372115" lon="8.2692817"><ele>369.5</ele><time>2026-05-01T14:08:43.155Z</time></trkpt><trkpt lat="44.3720717" lon="8.2694767"><ele>369.0</ele><time>2026-05-01T14:08:44.152Z</time></trkpt><trkpt lat="44.3720317" lon="8.2696683"><ele>368.5</ele><time>2026-05-01T14:08:45.151Z</time></trkpt><trkpt lat="44.3719933" lon="8.269855"><ele>368.0</ele><time>2026-05-01T14:08:46.154Z</time></trkpt><trkpt lat="44.371955" lon="8.2700533"><ele>367.75</ele><time>2026-05-01T14:08:47.151Z</time></trkpt><trkpt lat="44.3719183" lon="8.2702483"><ele>367.5</ele><time>2026-05-01T14:08:48.157Z</time></trkpt><trkpt lat="44.3718833" lon="8.2704433"><ele>367.25</ele><time>2026-05-01T14:08:49.159Z</time></trkpt><trkpt lat="44.3718383" lon="8.270645"><ele>367.0</ele><time>2026-05-01T14:08:50.154Z</time></trkpt><trkpt lat="44.3717933" lon="8.2708533"><ele>366.3333333333333</ele><time>2026-05-01T14:08:51.156Z</time></trkpt><trkpt lat="44.37175" lon="8.27107"><ele>365.6666666666667</ele><time>2026-05-01T14:08:52.156Z</time></trkpt><trkpt lat="44.371705" lon="8.271295"><ele>365.0</ele><time>2026-05-01T14:08:53.153Z</time></trkpt><trkpt lat="44.37166" lon="8.2715283"><ele>365.0</ele><time>2026-05-01T14:08:54.156Z</time></trkpt><trkpt lat="44.3716133" lon="8.2717617"><ele>365.0</ele><time>2026-05-01T14:08:55.156Z</time></trkpt><trkpt lat="44.3715683" lon="8.2719983"><ele>365.0</ele><time>2026-05-01T14:08:56.158Z</time></trkpt><trkpt lat="44.371525" lon="8.2722367"><ele>365.33333333333337</ele><time>2026-05-01T14:08:57.152Z</time></trkpt><trkpt lat="44.3714783" lon="8.2724667"><ele>365.6666666666667</ele><time>2026-05-01T14:08:58.159Z</time></trkpt><trkpt lat="44.3714317" lon="8.272695"><ele>366.0</ele><time>2026-05-01T14:08:59.162Z</time></trkpt><trkpt lat="44.3713883" lon="8.27292"><ele>364.0</ele><time>2026-05-01T14:09:00.155Z</time></trkpt><trkpt lat="44.371345" lon="8.2731383"><ele>362.0</ele><time>2026-05-01T14:09:01.152Z</time></trkpt><trkpt lat="44.371295" lon="8.2733567"><ele>360.0</ele><time>2026-05-01T14:09:02.159Z</time></trkpt><trkpt lat="44.3712533" lon="8.2735733"><ele>360.0</ele><time>2026-05-01T14:09:03.152Z</time></trkpt><trkpt lat="44.3712117" lon="8.2737883"><ele>360.0</ele><time>2026-05-01T14:09:04.151Z</time></trkpt><trkpt lat="44.3711683" lon="8.2740067"><ele>360.0</ele><time>2026-05-01T14:09:05.157Z</time></trkpt><trkpt lat="44.3711267" lon="8.27423"><ele>359.6666666666667</ele><time>2026-05-01T14:09:06.151Z</time></trkpt><trkpt lat="44.3710817" lon="8.274455"><ele>359.33333333333337</ele><time>2026-05-01T14:09:07.152Z</time></trkpt><trkpt lat="44.371035" lon="8.274685"><ele>359.0</ele><time>2026-05-01T14:09:08.154Z</time></trkpt><trkpt lat="44.3709833" lon="8.274915"><ele>359.0</ele><time>2026-05-01T14:09:09.155Z</time></trkpt><trkpt lat="44.3709367" lon="8.2751433"><ele>359.0</ele><time>2026-05-01T14:09:10.154Z</time></trkpt><trkpt lat="44.370895" lon="8.27537"><ele>359.0</ele><time>2026-05-01T14:09:11.155Z</time></trkpt><trkpt lat="44.3708517" lon="8.2755967"><ele>358.6666666666667</ele><time>2026-05-01T14:09:12.153Z</time></trkpt><trkpt lat="44.3708133" lon="8.2758183"><ele>358.3333333333333</ele><time>2026-05-01T14:09:13.154Z</time></trkpt><trkpt lat="44.37078" lon="8.2760417"><ele>358.0</ele><time>2026-05-01T14:09:14.155Z</time></trkpt><trkpt lat="44.3707433" lon="8.276265"><ele>357.66666666666663</ele><time>2026-05-01T14:09:15.155Z</time></trkpt><trkpt lat="44.3707167" lon="8.276485"><ele>357.3333333333333</ele><time>2026-05-01T14:09:16.159Z</time></trkpt><trkpt lat="44.3706967" lon="8.2767133"><ele>357.0</ele><time>2026-05-01T14:09:17.157Z</time></trkpt><trkpt lat="44.3706767" lon="8.2769383"><ele>357.0</ele><time>2026-05-01T14:09:18.157Z</time></trkpt><trkpt lat="44.3706683" lon="8.2771617"><ele>357.0</ele><time>2026-05-01T14:09:19.156Z</time></trkpt><trkpt lat="44.37066" lon="8.2773933"><ele>357.0</ele><time>2026-05-01T14:09:20.157Z</time></trkpt><trkpt lat="44.3706683" lon="8.277635"><ele>356.3333333333333</ele><time>2026-05-01T14:09:21.149Z</time></trkpt><trkpt lat="44.3706867" lon="8.2778767"><ele>355.66666666666663</ele><time>2026-05-01T14:09:22.16Z</time></trkpt><trkpt lat="44.3707117" lon="8.2781233"><ele>355.0</ele><time>2026-05-01T14:09:23.152Z</time></trkpt><trkpt lat="44.370745" lon="8.27837"><ele>354.66666666666663</ele><time>2026-05-01T14:09:24.155Z</time></trkpt><trkpt lat="44.3707733" lon="8.27861"><ele>354.3333333333333</ele><time>2026-05-01T14:09:25.151Z</time></trkpt><trkpt lat="44.370805" lon="8.2788467"><ele>354.0</ele><time>2026-05-01T14:09:26.158Z</time></trkpt><trkpt lat="44.3708367" lon="8.27908"><ele>352.6666666666667</ele><time>2026-05-01T14:09:27.151Z</time></trkpt><trkpt lat="44.3708683" lon="8.2793083"><ele>351.33333333333337</ele><time>2026-05-01T14:09:28.152Z</time></trkpt><trkpt lat="44.3709017" lon="8.2795317"><ele>350.0</ele><time>2026-05-01T14:09:29.149Z</time></trkpt><trkpt lat="44.3709317" lon="8.2797567"><ele>352.0</ele><time>2026-05-01T14:09:30.15Z</time></trkpt><trkpt lat="44.37096" lon="8.279985"><ele>354.0</ele><time>2026-05-01T14:09:31.153Z</time></trkpt><trkpt lat="44.370995" lon="8.28021"><ele>356.0</ele><time>2026-05-01T14:09:32.152Z</time></trkpt><trkpt lat="44.37103" lon="8.280445"><ele>359.33333333333337</ele><time>2026-05-01T14:09:33.154Z</time></trkpt><trkpt lat="44.3710633" lon="8.28068"><ele>362.6666666666667</ele><time>2026-05-01T14:09:34.156Z</time></trkpt><trkpt lat="44.3710917" lon="8.2809183"><ele>366.0</ele><time>2026-05-01T14:09:35.156Z</time></trkpt><trkpt lat="44.371125" lon="8.2811533"><ele>366.0</ele><time>2026-05-01T14:09:36.157Z</time></trkpt><trkpt lat="44.3711533" lon="8.281385"><ele>366.0</ele><time>2026-05-01T14:09:37.157Z</time></trkpt><trkpt lat="44.37117" lon="8.2816133"><ele>366.0</ele><time>2026-05-01T14:09:38.156Z</time></trkpt><trkpt lat="44.371175" lon="8.2818433"><ele>367.0</ele><time>2026-05-01T14:09:39.155Z</time></trkpt><trkpt lat="44.3711633" lon="8.28208"><ele>368.0</ele><time>2026-05-01T14:09:40.157Z</time></trkpt><trkpt lat="44.37115" lon="8.282325"><ele>369.0</ele><time>2026-05-01T14:09:41.152Z</time></trkpt><trkpt lat="44.3711317" lon="8.2825717"><ele>367.0</ele><time>2026-05-01T14:09:42.155Z</time></trkpt><trkpt lat="44.3711117" lon="8.28282"><ele>365.0</ele><time>2026-05-01T14:09:43.155Z</time></trkpt><trkpt lat="44.3710933" lon="8.2830683"><ele>363.0</ele><time>2026-05-01T14:09:44.157Z</time></trkpt><trkpt lat="44.37108" lon="8.2833183"><ele>362.0</ele><time>2026-05-01T14:09:45.154Z</time></trkpt><trkpt lat="44.3710783" lon="8.283575"><ele>361.0</ele><time>2026-05-01T14:09:46.148Z</time></trkpt><trkpt lat="44.3711117" lon="8.283835"><ele>360.0</ele><time>2026-05-01T14:09:47.155Z</time></trkpt><trkpt lat="44.3711417" lon="8.2840933"><ele>360.0</ele><time>2026-05-01T14:09:48.154Z</time></trkpt><trkpt lat="44.3711767" lon="8.2843267"><ele>360.0</ele><time>2026-05-01T14:09:49.152Z</time></trkpt><trkpt lat="44.3712117" lon="8.2845417"><ele>360.0</ele><time>2026-05-01T14:09:50.16Z</time></trkpt><trkpt lat="44.3712433" lon="8.2847417"><ele>360.75</ele><time>2026-05-01T14:09:51.152Z</time></trkpt><trkpt lat="44.371265" lon="8.284935"><ele>361.5</ele><time>2026-05-01T14:09:52.152Z</time></trkpt><trkpt lat="44.3712583" lon="8.2851367"><ele>362.25</ele><time>2026-05-01T14:09:53.153Z</time></trkpt><trkpt lat="44.371225" lon="8.285325"><ele>363.0</ele><time>2026-05-01T14:09:54.152Z</time></trkpt><trkpt lat="44.3711717" lon="8.285525"><ele>360.0</ele><time>2026-05-01T14:09:55.149Z</time></trkpt><trkpt lat="44.3710833" lon="8.2857283"><ele>357.0</ele><time>2026-05-01T14:09:56.154Z</time></trkpt><trkpt lat="44.37101" lon="8.285935"><ele>354.0</ele><time>2026-05-01T14:09:57.149Z</time></trkpt><trkpt lat="44.370935" lon="8.2861383"><ele>354.0</ele><time>2026-05-01T14:09:58.155Z</time></trkpt><trkpt lat="44.370855" lon="8.2863267"><ele>354.0</ele><time>2026-05-01T14:09:59.155Z</time></trkpt><trkpt lat="44.3707917" lon="8.286495"><ele>354.0</ele><time>2026-05-01T14:10:00.152Z</time></trkpt><trkpt lat="44.3707483" lon="8.286645"><ele>354.0</ele><time>2026-05-01T14:10:01.159Z</time></trkpt><trkpt lat="44.3706917" lon="8.2867783"><ele>353.2</ele><time>2026-05-01T14:10:02.153Z</time></trkpt><trkpt lat="44.3706333" lon="8.2869083"><ele>352.4</ele><time>2026-05-01T14:10:03.152Z</time></trkpt><trkpt lat="44.3705583" lon="8.2870167"><ele>351.6</ele><time>2026-05-01T14:10:04.151Z</time></trkpt><trkpt lat="44.370495" lon="8.287145"><ele>350.8</ele><time>2026-05-01T14:10:05.159Z</time></trkpt><trkpt lat="44.3704333" lon="8.287275"><ele>350.0</ele><time>2026-05-01T14:10:06.152Z</time></trkpt><trkpt lat="44.37037" lon="8.2874083"><ele>349.5</ele><time>2026-05-01T14:10:07.16Z</time></trkpt><trkpt lat="44.370305" lon="8.2875433"><ele>349.0</ele><time>2026-05-01T14:10:08.153Z</time></trkpt><trkpt lat="44.3702383" lon="8.28768"><ele>348.5</ele><time>2026-05-01T14:10:09.151Z</time></trkpt><trkpt lat="44.37018" lon="8.2878133"><ele>348.0</ele><time>2026-05-01T14:10:10.155Z</time></trkpt><trkpt lat="44.3701117" lon="8.2879467"><ele>348.0</ele><time>2026-05-01T14:10:11.157Z</time></trkpt><trkpt lat="44.3700417" lon="8.2880867"><ele>348.0</ele><time>2026-05-01T14:10:12.155Z</time></trkpt><trkpt lat="44.3699783" lon="8.2882283"><ele>348.0</ele><time>2026-05-01T14:10:13.157Z</time></trkpt><trkpt lat="44.3699117" lon="8.2883617"><ele>348.0</ele><time>2026-05-01T14:10:14.156Z</time></trkpt><trkpt lat="44.369845" lon="8.2884917"><ele>348.0</ele><time>2026-05-01T14:10:15.156Z</time></trkpt><trkpt lat="44.3697783" lon="8.2886067"><ele>348.0</ele><time>2026-05-01T14:10:16.154Z</time></trkpt><trkpt lat="44.369705" lon="8.288705"><ele>348.0</ele><time>2026-05-01T14:10:17.155Z</time></trkpt><trkpt lat="44.3696267" lon="8.2887867"><ele>348.0</ele><time>2026-05-01T14:10:18.157Z</time></trkpt><trkpt lat="44.3695417" lon="8.2888667"><ele>348.0</ele><time>2026-05-01T14:10:19.156Z</time></trkpt><trkpt lat="44.36945" lon="8.2889283"><ele>348.0</ele><time>2026-05-01T14:10:20.153Z</time></trkpt><trkpt lat="44.3693633" lon="8.2889917"><ele>348.0</ele><time>2026-05-01T14:10:21.152Z</time></trkpt><trkpt lat="44.3692767" lon="8.289065"><ele>348.0</ele><time>2026-05-01T14:10:22.153Z</time></trkpt><trkpt lat="44.3691817" lon="8.2891433"><ele>348.0</ele><time>2026-05-01T14:10:23.155Z</time></trkpt><trkpt lat="44.3690933" lon="8.2892017"><ele>348.0</ele><time>2026-05-01T14:10:24.154Z</time></trkpt><trkpt lat="44.3690117" lon="8.2892583"><ele>348.0</ele><time>2026-05-01T14:10:25.154Z</time></trkpt><trkpt lat="44.3689417" lon="8.2893033"><ele>348.0</ele><time>2026-05-01T14:10:26.158Z</time></trkpt><trkpt lat="44.3688667" lon="8.2893633"><ele>348.0</ele><time>2026-05-01T14:10:27.153Z</time></trkpt><trkpt lat="44.3687933" lon="8.2894083"><ele>348.0</ele><time>2026-05-01T14:10:28.156Z</time></trkpt><trkpt lat="44.3687183" lon="8.2894383"><ele>348.0</ele><time>2026-05-01T14:10:29.153Z</time></trkpt><trkpt lat="44.36866" lon="8.2894817"><ele>348.0</ele><time>2026-05-01T14:10:30.154Z</time></trkpt><trkpt lat="44.368595" lon="8.2895083"><ele>347.6666666666667</ele><time>2026-05-01T14:10:33.154Z</time></trkpt><trkpt lat="44.36853" lon="8.2896367"><ele>347.3333333333333</ele><time>2026-05-01T14:10:51.155Z</time></trkpt><trkpt lat="44.3685233" lon="8.2897667"><ele>347.0</ele><time>2026-05-01T14:10:53.154Z</time></trkpt><trkpt lat="44.368555" lon="8.289845"><ele>346.66666666666663</ele><time>2026-05-01T14:10:54.155Z</time></trkpt><trkpt lat="44.3686017" lon="8.2899317"><ele>346.3333333333333</ele><time>2026-05-01T14:10:55.153Z</time></trkpt><trkpt lat="44.3686567" lon="8.2900417"><ele>346.0</ele><time>2026-05-01T14:10:56.158Z</time></trkpt><trkpt lat="44.3687183" lon="8.2901567"><ele>345.8</ele><time>2026-05-01T14:10:57.154Z</time></trkpt><trkpt lat="44.3687733" lon="8.29027"><ele>345.6</ele><time>2026-05-01T14:10:58.157Z</time></trkpt><trkpt lat="44.3688267" lon="8.290385"><ele>345.4</ele><time>2026-05-01T14:10:59.151Z</time></trkpt><trkpt lat="44.36889" lon="8.290495"><ele>345.2</ele><time>2026-05-01T14:11:00.153Z</time></trkpt><trkpt lat="44.36896" lon="8.2905967"><ele>345.0</ele><time>2026-05-01T14:11:01.152Z</time></trkpt><trkpt lat="44.3690367" lon="8.2907033"><ele>344.6</ele><time>2026-05-01T14:11:02.153Z</time></trkpt><trkpt lat="44.3691117" lon="8.29081"><ele>344.2</ele><time>2026-05-01T14:11:03.15Z</time></trkpt><trkpt lat="44.3691917" lon="8.29091"><ele>343.79999999999995</ele><time>2026-05-01T14:11:04.151Z</time></trkpt><trkpt lat="44.3692717" lon="8.29099"><ele>343.4</ele><time>2026-05-01T14:11:05.155Z</time></trkpt><trkpt lat="44.3693633" lon="8.291045"><ele>343.0</ele><time>2026-05-01T14:11:06.152Z</time></trkpt><trkpt lat="44.3694717" lon="8.2910683"><ele>343.0</ele><time>2026-05-01T14:11:07.156Z</time></trkpt><trkpt lat="44.3695783" lon="8.2910833"><ele>343.0</ele><time>2026-05-01T14:11:08.153Z</time></trkpt><trkpt lat="44.3696933" lon="8.291065"><ele>343.0</ele><time>2026-05-01T14:11:09.157Z</time></trkpt><trkpt lat="44.3698083" lon="8.2910067"><ele>343.0</ele><time>2026-05-01T14:11:10.153Z</time></trkpt><trkpt lat="44.3699233" lon="8.290925"><ele>342.75</ele><time>2026-05-01T14:11:11.154Z</time></trkpt><trkpt lat="44.3700267" lon="8.290815"><ele>342.5</ele><time>2026-05-01T14:11:12.155Z</time></trkpt><trkpt lat="44.3701167" lon="8.2906683"><ele>342.25</ele><time>2026-05-01T14:11:13.152Z</time></trkpt><trkpt lat="44.3702" lon="8.2905"><ele>342.0</ele><time>2026-05-01T14:11:14.155Z</time></trkpt><trkpt lat="44.3702833" lon="8.2903117"><ele>342.0</ele><time>2026-05-01T14:11:15.155Z</time></trkpt><trkpt lat="44.370375" lon="8.2901233"><ele>342.0</ele><time>2026-05-01T14:11:16.15Z</time></trkpt><trkpt lat="44.3704667" lon="8.28993"><ele>342.0</ele><time>2026-05-01T14:11:17.153Z</time></trkpt><trkpt lat="44.37056" lon="8.2897267"><ele>341.0</ele><time>2026-05-01T14:11:18.152Z</time></trkpt><trkpt lat="44.370645" lon="8.2895217"><ele>340.0</ele><time>2026-05-01T14:11:19.155Z</time></trkpt><trkpt lat="44.37074" lon="8.2893117"><ele>339.0</ele><time>2026-05-01T14:11:20.151Z</time></trkpt><trkpt lat="44.3708333" lon="8.2891083"><ele>340.3333333333333</ele><time>2026-05-01T14:11:21.15Z</time></trkpt><trkpt lat="44.3709233" lon="8.2889017"><ele>341.66666666666663</ele><time>2026-05-01T14:11:22.155Z</time></trkpt><trkpt lat="44.37101" lon="8.2887"><ele>343.0</ele><time>2026-05-01T14:11:23.151Z</time></trkpt><trkpt lat="44.3711033" lon="8.2884983"><ele>343.0</ele><time>2026-05-01T14:11:24.152Z</time></trkpt><trkpt lat="44.3711967" lon="8.2883"><ele>343.0</ele><time>2026-05-01T14:11:25.152Z</time></trkpt><trkpt lat="44.37129" lon="8.2881"><ele>343.0</ele><time>2026-05-01T14:11:26.154Z</time></trkpt><trkpt lat="44.3713833" lon="8.287905"><ele>341.0</ele><time>2026-05-01T14:11:27.153Z</time></trkpt><trkpt lat="44.3714717" lon="8.28772"><ele>339.0</ele><time>2026-05-01T14:11:28.156Z</time></trkpt><trkpt lat="44.37156" lon="8.2875317"><ele>337.0</ele><time>2026-05-01T14:11:29.156Z</time></trkpt><trkpt lat="44.3716467" lon="8.2873567"><ele>338.25</ele><time>2026-05-01T14:11:30.151Z</time></trkpt><trkpt lat="44.3717317" lon="8.2871867"><ele>339.5</ele><time>2026-05-01T14:11:31.152Z</time></trkpt><trkpt lat="44.3718133" lon="8.2870167"><ele>340.75</ele><time>2026-05-01T14:11:32.152Z</time></trkpt><trkpt lat="44.3718883" lon="8.2868433"><ele>342.0</ele><time>2026-05-01T14:11:33.151Z</time></trkpt><trkpt lat="44.37197" lon="8.2866717"><ele>342.0</ele><time>2026-05-01T14:11:34.153Z</time></trkpt><trkpt lat="44.3720517" lon="8.2864933"><ele>342.0</ele><time>2026-05-01T14:11:35.154Z</time></trkpt><trkpt lat="44.3721367" lon="8.286315"><ele>342.0</ele><time>2026-05-01T14:11:36.154Z</time></trkpt><trkpt lat="44.3722233" lon="8.2861383"><ele>340.3333333333333</ele><time>2026-05-01T14:11:37.156Z</time></trkpt><trkpt lat="44.3723083" lon="8.28596"><ele>338.66666666666663</ele><time>2026-05-01T14:11:38.156Z</time></trkpt><trkpt lat="44.372395" lon="8.2857767"><ele>337.0</ele><time>2026-05-01T14:11:39.155Z</time></trkpt><trkpt lat="44.3724767" lon="8.2855967"><ele>337.40000000000003</ele><time>2026-05-01T14:11:40.156Z</time></trkpt><trkpt lat="44.37255" lon="8.285435"><ele>337.8</ele><time>2026-05-01T14:11:41.151Z</time></trkpt><trkpt lat="44.3726117" lon="8.2853167"><ele>338.2</ele><time>2026-05-01T14:11:42.155Z</time></trkpt><trkpt lat="44.3726783" lon="8.2852317"><ele>338.6</ele><time>2026-05-01T14:11:43.16Z</time></trkpt><trkpt lat="44.3727367" lon="8.28517"><ele>339.0</ele><time>2026-05-01T14:11:44.159Z</time></trkpt><trkpt lat="44.3727933" lon="8.2851267"><ele>339.0</ele><time>2026-05-01T14:11:45.156Z</time></trkpt><trkpt lat="44.3728267" lon="8.2852017"><ele>339.0</ele><time>2026-05-01T14:11:46.154Z</time></trkpt><trkpt lat="44.372835" lon="8.285365"><ele>339.0</ele><time>2026-05-01T14:11:48.151Z</time></trkpt><trkpt lat="44.3728017" lon="8.2854733"><ele>339.0</ele><time>2026-05-01T14:11:49.154Z</time></trkpt><trkpt lat="44.3727233" lon="8.285575"><ele>339.0</ele><time>2026-05-01T14:11:50.153Z</time></trkpt><trkpt lat="44.3726333" lon="8.2856867"><ele>338.3333333333333</ele><time>2026-05-01T14:11:51.155Z</time></trkpt><trkpt lat="44.3725267" lon="8.28583"><ele>337.66666666666663</ele><time>2026-05-01T14:11:52.152Z</time></trkpt><trkpt lat="44.372425" lon="8.2859867"><ele>337.0</ele><time>2026-05-01T14:11:53.154Z</time></trkpt><trkpt lat="44.3723233" lon="8.2861667"><ele>337.0</ele><time>2026-05-01T14:11:54.15Z</time></trkpt><trkpt lat="44.3722267" lon="8.2863567"><ele>337.0</ele><time>2026-05-01T14:11:55.153Z</time></trkpt><trkpt lat="44.37213" lon="8.2865583"><ele>337.0</ele><time>2026-05-01T14:11:56.152Z</time></trkpt><trkpt lat="44.3720367" lon="8.2867517"><ele>337.0</ele><time>2026-05-01T14:11:57.153Z</time></trkpt><trkpt lat="44.3719417" lon="8.286945"><ele>337.0</ele><time>2026-05-01T14:11:58.153Z</time></trkpt><trkpt lat="44.371845" lon="8.2871383"><ele>337.0</ele><time>2026-05-01T14:11:59.15Z</time></trkpt><trkpt lat="44.3717533" lon="8.2873317"><ele>337.0</ele><time>2026-05-01T14:12:00.152Z</time></trkpt><trkpt lat="44.3716667" lon="8.2875167"><ele>337.0</ele><time>2026-05-01T14:12:01.153Z</time></trkpt><trkpt lat="44.3715783" lon="8.2877017"><ele>337.0</ele><time>2026-05-01T14:12:02.153Z</time></trkpt><trkpt lat="44.3714917" lon="8.287885"><ele>337.0</ele><time>2026-05-01T14:12:03.152Z</time></trkpt><trkpt lat="44.3714" lon="8.2880733"><ele>337.0</ele><time>2026-05-01T14:12:04.154Z</time></trkpt><trkpt lat="44.371305" lon="8.2882583"><ele>337.0</ele><time>2026-05-01T14:12:05.156Z</time></trkpt><trkpt lat="44.3712183" lon="8.2884417"><ele>337.66666666666663</ele><time>2026-05-01T14:12:06.156Z</time></trkpt><trkpt lat="44.3711317" lon="8.28862"><ele>338.3333333333333</ele><time>2026-05-01T14:12:07.16Z</time></trkpt><trkpt lat="44.3710433" lon="8.2887983"><ele>339.0</ele><time>2026-05-01T14:12:08.151Z</time></trkpt><trkpt lat="44.3709567" lon="8.28898"><ele>339.0</ele><time>2026-05-01T14:12:09.152Z</time></trkpt><trkpt lat="44.3708683" lon="8.2891633"><ele>339.0</ele><time>2026-05-01T14:12:10.154Z</time></trkpt><trkpt lat="44.3707733" lon="8.289355"><ele>339.0</ele><time>2026-05-01T14:12:11.155Z</time></trkpt><trkpt lat="44.3706883" lon="8.2895383"><ele>339.0</ele><time>2026-05-01T14:12:12.156Z</time></trkpt><trkpt lat="44.3706067" lon="8.2897217"><ele>339.0</ele><time>2026-05-01T14:12:13.158Z</time></trkpt><trkpt lat="44.3705283" lon="8.289905"><ele>339.0</ele><time>2026-05-01T14:12:14.156Z</time></trkpt><trkpt lat="44.3704367" lon="8.2900817"><ele>338.6666666666667</ele><time>2026-05-01T14:12:15.152Z</time></trkpt><trkpt lat="44.3703533" lon="8.2902583"><ele>338.33333333333337</ele><time>2026-05-01T14:12:16.155Z</time></trkpt><trkpt lat="44.3702667" lon="8.2904417"><ele>338.0</ele><time>2026-05-01T14:12:17.158Z</time></trkpt><trkpt lat="44.3701883" lon="8.2906217"><ele>338.0</ele><time>2026-05-01T14:12:18.153Z</time></trkpt><trkpt lat="44.3701067" lon="8.2908183"><ele>338.0</ele><time>2026-05-01T14:12:19.158Z</time></trkpt><trkpt lat="44.3700333" lon="8.2910333"><ele>338.0</ele><time>2026-05-01T14:12:20.156Z</time></trkpt><trkpt lat="44.3699567" lon="8.2912683"><ele>338.0</ele><time>2026-05-01T14:12:21.155Z</time></trkpt><trkpt lat="44.36989" lon="8.29151"><ele>338.0</ele><time>2026-05-01T14:12:22.152Z</time></trkpt><trkpt lat="44.3698267" lon="8.291755"><ele>338.0</ele><time>2026-05-01T14:12:23.153Z</time></trkpt><trkpt lat="44.369765" lon="8.2919967"><ele>338.0</ele><time>2026-05-01T14:12:24.157Z</time></trkpt><trkpt lat="44.3697083" lon="8.2922333"><ele>338.0</ele><time>2026-05-01T14:12:25.16Z</time></trkpt><trkpt lat="44.3696517" lon="8.292465"><ele>338.0</ele><time>2026-05-01T14:12:26.151Z</time></trkpt><trkpt lat="44.369595" lon="8.2926967"><ele>339.6666666666667</ele><time>2026-05-01T14:12:27.156Z</time></trkpt><trkpt lat="44.369545" lon="8.29292"><ele>341.3333333333333</ele><time>2026-05-01T14:12:28.153Z</time></trkpt><trkpt lat="44.3694917" lon="8.2931433"><ele>343.0</ele><time>2026-05-01T14:12:29.154Z</time></trkpt><trkpt lat="44.3694383" lon="8.2933667"><ele>343.0</ele><time>2026-05-01T14:12:30.153Z</time></trkpt><trkpt lat="44.369385" lon="8.29359"><ele>343.0</ele><time>2026-05-01T14:12:31.156Z</time></trkpt><trkpt lat="44.3693333" lon="8.293815"><ele>343.0</ele><time>2026-05-01T14:12:32.154Z</time></trkpt><trkpt lat="44.3692783" lon="8.2940417"><ele>342.66666666666663</ele><time>2026-05-01T14:12:33.151Z</time></trkpt><trkpt lat="44.36922" lon="8.29428"><ele>342.3333333333333</ele><time>2026-05-01T14:12:34.155Z</time></trkpt><trkpt lat="44.3691567" lon="8.29455"><ele>342.0</ele><time>2026-05-01T14:12:35.157Z</time></trkpt><trkpt lat="44.369085" lon="8.2948433"><ele>342.0</ele><time>2026-05-01T14:12:36.157Z</time></trkpt><trkpt lat="44.36901" lon="8.2951617"><ele>342.0</ele><time>2026-05-01T14:12:37.154Z</time></trkpt><trkpt lat="44.3689233" lon="8.2955017"><ele>346.0</ele><time>2026-05-01T14:12:38.156Z</time></trkpt><trkpt lat="44.3688267" lon="8.2958367"><ele>350.0</ele><time>2026-05-01T14:12:39.152Z</time></trkpt><trkpt lat="44.3687233" lon="8.2961583"><ele>350.5</ele><time>2026-05-01T14:12:40.161Z</time></trkpt><trkpt lat="44.3686117" lon="8.2964583"><ele>351.0</ele><time>2026-05-01T14:12:41.159Z</time></trkpt><trkpt lat="44.3684983" lon="8.29674"><ele>351.0</ele><time>2026-05-01T14:12:42.151Z</time></trkpt><trkpt lat="44.3683833" lon="8.297005"><ele>351.0</ele><time>2026-05-01T14:12:43.155Z</time></trkpt><trkpt lat="44.3682667" lon="8.2972433"><ele>351.0</ele><time>2026-05-01T14:12:44.152Z</time></trkpt><trkpt lat="44.36815" lon="8.2974633"><ele>351.3333333333333</ele><time>2026-05-01T14:12:45.152Z</time></trkpt><trkpt lat="44.3680267" lon="8.2976633"><ele>351.66666666666663</ele><time>2026-05-01T14:12:46.16Z</time></trkpt><trkpt lat="44.3679017" lon="8.297855"><ele>352.0</ele><time>2026-05-01T14:12:47.153Z</time></trkpt><trkpt lat="44.367775" lon="8.2980433"><ele>357.0</ele><time>2026-05-01T14:12:48.153Z</time></trkpt><trkpt lat="44.3676467" lon="8.2982267"><ele>362.0</ele><time>2026-05-01T14:12:49.157Z</time></trkpt><trkpt lat="44.3675067" lon="8.298405"><ele>367.0</ele><time>2026-05-01T14:12:50.152Z</time></trkpt><trkpt lat="44.3673667" lon="8.2985833"><ele>367.0</ele><time>2026-05-01T14:12:51.152Z</time></trkpt><trkpt lat="44.3672183" lon="8.2987517"><ele>367.0</ele><time>2026-05-01T14:12:52.155Z</time></trkpt><trkpt lat="44.367065" lon="8.2989067"><ele>367.0</ele><time>2026-05-01T14:12:53.159Z</time></trkpt><trkpt lat="44.3669117" lon="8.2990517"><ele>368.3333333333333</ele><time>2026-05-01T14:12:54.151Z</time></trkpt><trkpt lat="44.3667517" lon="8.2991867"><ele>369.6666666666667</ele><time>2026-05-01T14:12:55.152Z</time></trkpt><trkpt lat="44.3665933" lon="8.2993083"><ele>371.0</ele><time>2026-05-01T14:12:56.152Z</time></trkpt><trkpt lat="44.36643" lon="8.29942"><ele>372.6666666666667</ele><time>2026-05-01T14:12:57.151Z</time></trkpt><trkpt lat="44.366265" lon="8.29952"><ele>374.3333333333333</ele><time>2026-05-01T14:12:58.155Z</time></trkpt><trkpt lat="44.366105" lon="8.2995983"><ele>376.0</ele><time>2026-05-01T14:12:59.154Z</time></trkpt><trkpt lat="44.365945" lon="8.2996733"><ele>376.0</ele><time>2026-05-01T14:13:00.149Z</time></trkpt><trkpt lat="44.3657883" lon="8.2997467"><ele>376.0</ele><time>2026-05-01T14:13:01.151Z</time></trkpt><trkpt lat="44.3656283" lon="8.299805"><ele>376.0</ele><time>2026-05-01T14:13:02.151Z</time></trkpt><trkpt lat="44.3654733" lon="8.299865"><ele>374.0</ele><time>2026-05-01T14:13:03.152Z</time></trkpt><trkpt lat="44.36531" lon="8.2999167"><ele>372.0</ele><time>2026-05-01T14:13:04.154Z</time></trkpt><trkpt lat="44.36514" lon="8.2999483"><ele>370.0</ele><time>2026-05-01T14:13:05.153Z</time></trkpt><trkpt lat="44.3649683" lon="8.2999717"><ele>370.0</ele><time>2026-05-01T14:13:06.155Z</time></trkpt><trkpt lat="44.36479" lon="8.2999883"><ele>370.0</ele><time>2026-05-01T14:13:07.156Z</time></trkpt><trkpt lat="44.3646133" lon="8.3000033"><ele>370.0</ele><time>2026-05-01T14:13:08.156Z</time></trkpt><trkpt lat="44.3644417" lon="8.3000167"><ele>371.66666666666663</ele><time>2026-05-01T14:13:09.156Z</time></trkpt><trkpt lat="44.3642717" lon="8.3000317"><ele>373.3333333333333</ele><time>2026-05-01T14:13:10.158Z</time></trkpt><trkpt lat="44.364105" lon="8.3000433"><ele>375.0</ele><time>2026-05-01T14:13:11.155Z</time></trkpt><trkpt lat="44.36394" lon="8.3000483"><ele>377.0</ele><time>2026-05-01T14:13:12.154Z</time></trkpt><trkpt lat="44.36378" lon="8.3000567"><ele>379.0</ele><time>2026-05-01T14:13:13.158Z</time></trkpt><trkpt lat="44.3636167" lon="8.3000617"><ele>381.0</ele><time>2026-05-01T14:13:14.158Z</time></trkpt><trkpt lat="44.3634517" lon="8.300065"><ele>381.0</ele><time>2026-05-01T14:13:15.158Z</time></trkpt><trkpt lat="44.363295" lon="8.3000683"><ele>381.0</ele><time>2026-05-01T14:13:16.154Z</time></trkpt><trkpt lat="44.363135" lon="8.30008"><ele>381.0</ele><time>2026-05-01T14:13:17.16Z</time></trkpt><trkpt lat="44.36297" lon="8.3000883"><ele>384.0</ele><time>2026-05-01T14:13:18.154Z</time></trkpt><trkpt lat="44.3628083" lon="8.3000983"><ele>387.0</ele><time>2026-05-01T14:13:19.153Z</time></trkpt><trkpt lat="44.3626567" lon="8.3001133"><ele>390.0</ele><time>2026-05-01T14:13:20.158Z</time></trkpt><trkpt lat="44.3624983" lon="8.30014"><ele>390.0</ele><time>2026-05-01T14:13:21.154Z</time></trkpt><trkpt lat="44.3623417" lon="8.3001783"><ele>390.0</ele><time>2026-05-01T14:13:22.152Z</time></trkpt><trkpt lat="44.362185" lon="8.30022"><ele>390.0</ele><time>2026-05-01T14:13:23.152Z</time></trkpt><trkpt lat="44.3620317" lon="8.3002717"><ele>392.25</ele><time>2026-05-01T14:13:24.156Z</time></trkpt><trkpt lat="44.3618817" lon="8.300315"><ele>394.5</ele><time>2026-05-01T14:13:25.156Z</time></trkpt><trkpt lat="44.3617333" lon="8.300355"><ele>396.75</ele><time>2026-05-01T14:13:26.158Z</time></trkpt><trkpt lat="44.3615917" lon="8.3003983"><ele>399.0</ele><time>2026-05-01T14:13:27.157Z</time></trkpt><trkpt lat="44.3614483" lon="8.3004383"><ele>399.5</ele><time>2026-05-01T14:13:28.154Z</time></trkpt><trkpt lat="44.36131" lon="8.3004867"><ele>400.0</ele><time>2026-05-01T14:13:29.158Z</time></trkpt><trkpt lat="44.3611833" lon="8.300535"><ele>400.5</ele><time>2026-05-01T14:13:30.153Z</time></trkpt><trkpt lat="44.3610483" lon="8.3005883"><ele>401.0</ele><time>2026-05-01T14:13:31.155Z</time></trkpt><trkpt lat="44.3609133" lon="8.30063"><ele>401.0</ele><time>2026-05-01T14:13:32.157Z</time></trkpt><trkpt lat="44.36078" lon="8.3006667"><ele>401.0</ele><time>2026-05-01T14:13:33.154Z</time></trkpt><trkpt lat="44.36064" lon="8.3007017"><ele>401.0</ele><time>2026-05-01T14:13:34.158Z</time></trkpt><trkpt lat="44.3604783" lon="8.3007133"><ele>401.0</ele><time>2026-05-01T14:13:35.151Z</time></trkpt><trkpt lat="44.3603183" lon="8.3007217"><ele>403.66666666666663</ele><time>2026-05-01T14:13:36.157Z</time></trkpt><trkpt lat="44.36016" lon="8.3007233"><ele>406.33333333333337</ele><time>2026-05-01T14:13:37.154Z</time></trkpt><trkpt lat="44.3599983" lon="8.3007183"><ele>409.0</ele><time>2026-05-01T14:13:38.152Z</time></trkpt><trkpt lat="44.35984" lon="8.30072"><ele>418.33333333333337</ele><time>2026-05-01T14:13:39.153Z</time></trkpt><trkpt lat="44.3596817" lon="8.3007283"><ele>427.66666666666663</ele><time>2026-05-01T14:13:40.154Z</time></trkpt><trkpt lat="44.3595233" lon="8.3007283"><ele>437.0</ele><time>2026-05-01T14:13:41.154Z</time></trkpt><trkpt lat="44.3593633" lon="8.3007317"><ele>437.0</ele><time>2026-05-01T14:13:42.154Z</time></trkpt><trkpt lat="44.359205" lon="8.3007333"><ele>437.0</ele><time>2026-05-01T14:13:43.155Z</time></trkpt><trkpt lat="44.3472917" lon="8.3139783"><ele>415.3333333333333</ele><time>2026-05-01T14:15:16.154Z</time></trkpt><trkpt lat="44.3472217" lon="8.3141767"><ele>393.66666666666663</ele><time>2026-05-01T14:15:17.153Z</time></trkpt><trkpt lat="44.3471583" lon="8.3143883"><ele>372.0</ele><time>2026-05-01T14:15:18.152Z</time></trkpt><trkpt lat="44.3470917" lon="8.3146"><ele>373.6666666666667</ele><time>2026-05-01T14:15:19.15Z</time></trkpt><trkpt lat="44.3470117" lon="8.314815"><ele>375.33333333333337</ele><time>2026-05-01T14:15:20.155Z</time></trkpt><trkpt lat="44.3469283" lon="8.3150317"><ele>377.0</ele><time>2026-05-01T14:15:21.15Z</time></trkpt><trkpt lat="44.3468483" lon="8.3152517"><ele>377.0</ele><time>2026-05-01T14:15:22.155Z</time></trkpt><trkpt lat="44.346765" lon="8.315485"><ele>377.0</ele><time>2026-05-01T14:15:23.151Z</time></trkpt><trkpt lat="44.3466833" lon="8.31572"><ele>377.0</ele><time>2026-05-01T14:15:24.153Z</time></trkpt><trkpt lat="44.34662" lon="8.315975"><ele>378.0</ele><time>2026-05-01T14:15:25.154Z</time></trkpt><trkpt lat="44.3465517" lon="8.3162383"><ele>379.0</ele><time>2026-05-01T14:15:26.153Z</time></trkpt><trkpt lat="44.346475" lon="8.3165"><ele>380.0</ele><time>2026-05-01T14:15:27.154Z</time></trkpt><trkpt lat="44.3464233" lon="8.3167667"><ele>380.0</ele><time>2026-05-01T14:15:28.152Z</time></trkpt><trkpt lat="44.346375" lon="8.31703"><ele>380.0</ele><time>2026-05-01T14:15:29.154Z</time></trkpt><trkpt lat="44.346335" lon="8.3172883"><ele>380.0</ele><time>2026-05-01T14:15:30.153Z</time></trkpt><trkpt lat="44.346305" lon="8.3175367"><ele>380.0</ele><time>2026-05-01T14:15:31.156Z</time></trkpt><trkpt lat="44.34628" lon="8.3177733"><ele>380.0</ele><time>2026-05-01T14:15:32.154Z</time></trkpt><trkpt lat="44.3462567" lon="8.3180017"><ele>380.0</ele><time>2026-05-01T14:15:33.152Z</time></trkpt><trkpt lat="44.346235" lon="8.3182233"><ele>380.33333333333337</ele><time>2026-05-01T14:15:34.151Z</time></trkpt><trkpt lat="44.346215" lon="8.318445"><ele>380.6666666666667</ele><time>2026-05-01T14:15:35.154Z</time></trkpt><trkpt lat="44.3461933" lon="8.3186667"><ele>381.0</ele><time>2026-05-01T14:15:36.153Z</time></trkpt><trkpt lat="44.3461733" lon="8.3188933"><ele>381.3333333333333</ele><time>2026-05-01T14:15:37.158Z</time></trkpt><trkpt lat="44.346155" lon="8.3191217"><ele>381.66666666666663</ele><time>2026-05-01T14:15:38.151Z</time></trkpt><trkpt lat="44.3461333" lon="8.3193483"><ele>382.0</ele><time>2026-05-01T14:15:39.156Z</time></trkpt><trkpt lat="44.3461083" lon="8.319565"><ele>382.0</ele><time>2026-05-01T14:15:40.149Z</time></trkpt><trkpt lat="44.3460817" lon="8.3197767"><ele>382.0</ele><time>2026-05-01T14:15:41.156Z</time></trkpt><trkpt lat="44.34605" lon="8.3199717"><ele>382.0</ele><time>2026-05-01T14:15:42.157Z</time></trkpt><trkpt lat="44.3460183" lon="8.3201367"><ele>382.0</ele><time>2026-05-01T14:15:43.15Z</time></trkpt><trkpt lat="44.34598" lon="8.3202717"><ele>382.0</ele><time>2026-05-01T14:15:44.156Z</time></trkpt><trkpt lat="44.3459367" lon="8.3203833"><ele>382.0</ele><time>2026-05-01T14:15:45.152Z</time></trkpt><trkpt lat="44.3458917" lon="8.320475"><ele>382.0</ele><time>2026-05-01T14:15:46.157Z</time></trkpt><trkpt lat="44.3458483" lon="8.3205433"><ele>382.0</ele><time>2026-05-01T14:15:47.152Z</time></trkpt><trkpt lat="44.345775" lon="8.32062"><ele>382.0</ele><time>2026-05-01T14:15:49.154Z</time></trkpt><trkpt lat="44.345685" lon="8.320645"><ele>382.0</ele><time>2026-05-01T14:15:51.154Z</time></trkpt><trkpt lat="44.3455967" lon="8.3206717"><ele>386.0</ele><time>2026-05-01T14:15:53.152Z</time></trkpt><trkpt lat="44.3455183" lon="8.3207617"><ele>390.0</ele><time>2026-05-01T14:15:55.161Z</time></trkpt><trkpt lat="44.3454583" lon="8.3209167"><ele>394.0</ele><time>2026-05-01T14:15:57.153Z</time></trkpt><trkpt lat="44.3454267" lon="8.3210067"><ele>398.0</ele><time>2026-05-01T14:15:58.157Z</time></trkpt><trkpt lat="44.345385" lon="8.3210983"><ele>402.0</ele><time>2026-05-01T14:15:59.152Z</time></trkpt><trkpt lat="44.3453417" lon="8.3211967"><ele>402.0</ele><time>2026-05-01T14:16:00.151Z</time></trkpt><trkpt lat="44.3452867" lon="8.3213017"><ele>402.0</ele><time>2026-05-01T14:16:01.155Z</time></trkpt><trkpt lat="44.3452217" lon="8.3213983"><ele>402.0</ele><time>2026-05-01T14:16:02.152Z</time></trkpt><trkpt lat="44.3451483" lon="8.3214867"><ele>402.0</ele><time>2026-05-01T14:16:03.153Z</time></trkpt><trkpt lat="44.3450717" lon="8.32157"><ele>402.0</ele><time>2026-05-01T14:16:04.153Z</time></trkpt><trkpt lat="44.3449833" lon="8.321655"><ele>400.75</ele><time>2026-05-01T14:16:05.157Z</time></trkpt><trkpt lat="44.3448917" lon="8.32174"><ele>399.5</ele><time>2026-05-01T14:16:06.154Z</time></trkpt><trkpt lat="44.3447933" lon="8.32182"><ele>398.25</ele><time>2026-05-01T14:16:07.156Z</time></trkpt><trkpt lat="44.3446917" lon="8.3219117"><ele>397.0</ele><time>2026-05-01T14:16:08.156Z</time></trkpt><trkpt lat="44.3445867" lon="8.3220083"><ele>397.0</ele><time>2026-05-01T14:16:09.151Z</time></trkpt><trkpt lat="44.3444833" lon="8.32209"><ele>397.0</ele><time>2026-05-01T14:16:10.15Z</time></trkpt><trkpt lat="44.3443833" lon="8.322175"><ele>397.0</ele><time>2026-05-01T14:16:11.156Z</time></trkpt><trkpt lat="44.3442867" lon="8.322265"><ele>397.0</ele><time>2026-05-01T14:16:12.155Z</time></trkpt><trkpt lat="44.3441933" lon="8.322355"><ele>395.75</ele><time>2026-05-01T14:16:13.156Z</time></trkpt><trkpt lat="44.3441" lon="8.32245"><ele>394.5</ele><time>2026-05-01T14:16:14.153Z</time></trkpt><trkpt lat="44.3440033" lon="8.3225483"><ele>393.25</ele><time>2026-05-01T14:16:15.153Z</time></trkpt><trkpt lat="44.3439117" lon="8.3226433"><ele>392.0</ele><time>2026-05-01T14:16:16.152Z</time></trkpt><trkpt lat="44.3438083" lon="8.3227383"><ele>392.0</ele><time>2026-05-01T14:16:17.153Z</time></trkpt><trkpt lat="44.34371" lon="8.3228333"><ele>392.0</ele><time>2026-05-01T14:16:18.154Z</time></trkpt><trkpt lat="44.34362" lon="8.322925"><ele>392.0</ele><time>2026-05-01T14:16:19.155Z</time></trkpt><trkpt lat="44.3435333" lon="8.3230133"><ele>392.0</ele><time>2026-05-01T14:16:20.16Z</time></trkpt><trkpt lat="44.343455" lon="8.3231"><ele>392.0</ele><time>2026-05-01T14:16:21.155Z</time></trkpt><trkpt lat="44.3433783" lon="8.3231867"><ele>392.16666666666663</ele><time>2026-05-01T14:16:22.157Z</time></trkpt><trkpt lat="44.343305" lon="8.3232717"><ele>392.3333333333333</ele><time>2026-05-01T14:16:23.152Z</time></trkpt><trkpt lat="44.3432367" lon="8.323345"><ele>392.5</ele><time>2026-05-01T14:16:24.151Z</time></trkpt><trkpt lat="44.3431717" lon="8.323415"><ele>392.66666666666663</ele><time>2026-05-01T14:16:25.15Z</time></trkpt><trkpt lat="44.3430967" lon="8.3234817"><ele>392.8333333333333</ele><time>2026-05-01T14:16:26.152Z</time></trkpt><trkpt lat="44.3430217" lon="8.3235533"><ele>393.0</ele><time>2026-05-01T14:16:27.154Z</time></trkpt><trkpt lat="44.3429417" lon="8.323615"><ele>393.0</ele><time>2026-05-01T14:16:28.154Z</time></trkpt><trkpt lat="44.3428617" lon="8.3236767"><ele>393.0</ele><time>2026-05-01T14:16:29.159Z</time></trkpt><trkpt lat="44.34278" lon="8.3237167"><ele>393.0</ele><time>2026-05-01T14:16:30.154Z</time></trkpt><trkpt lat="44.3426867" lon="8.323725"><ele>393.0</ele><time>2026-05-01T14:16:31.155Z</time></trkpt><trkpt lat="44.3426" lon="8.3236917"><ele>393.0</ele><time>2026-05-01T14:16:32.151Z</time></trkpt><trkpt lat="44.3425083" lon="8.32366"><ele>393.0</ele><time>2026-05-01T14:16:33.151Z</time></trkpt><trkpt lat="44.34241" lon="8.3236683"><ele>393.0</ele><time>2026-05-01T14:16:34.153Z</time></trkpt><trkpt lat="44.3423133" lon="8.3237"><ele>393.0</ele><time>2026-05-01T14:16:35.155Z</time></trkpt><trkpt lat="44.34222" lon="8.323755"><ele>393.0</ele><time>2026-05-01T14:16:36.154Z</time></trkpt><trkpt lat="44.3421283" lon="8.3238333"><ele>393.0</ele><time>2026-05-01T14:16:37.154Z</time></trkpt><trkpt lat="44.3420433" lon="8.32394"><ele>390.75</ele><time>2026-05-01T14:16:38.152Z</time></trkpt><trkpt lat="44.34197" lon="8.324075"><ele>388.5</ele><time>2026-05-01T14:16:39.15Z</time></trkpt><trkpt lat="44.34192" lon="8.3242267"><ele>386.25</ele><time>2026-05-01T14:16:40.152Z</time></trkpt><trkpt lat="44.3418717" lon="8.3244"><ele>384.0</ele><time>2026-05-01T14:16:41.153Z</time></trkpt><trkpt lat="44.341825" lon="8.3245717"><ele>383.0</ele><time>2026-05-01T14:16:42.15Z</time></trkpt><trkpt lat="44.3417767" lon="8.324735"><ele>382.0</ele><time>2026-05-01T14:16:43.156Z</time></trkpt><trkpt lat="44.34172" lon="8.32487"><ele>381.0</ele><time>2026-05-01T14:16:44.153Z</time></trkpt><trkpt lat="44.3416467" lon="8.32499"><ele>380.0</ele><time>2026-05-01T14:16:45.152Z</time></trkpt><trkpt lat="44.3415567" lon="8.3250867"><ele>380.0</ele><time>2026-05-01T14:16:46.154Z</time></trkpt><trkpt lat="44.3414567" lon="8.3251883"><ele>380.0</ele><time>2026-05-01T14:16:47.156Z</time></trkpt><trkpt lat="44.34135" lon="8.325295"><ele>380.0</ele><time>2026-05-01T14:16:48.155Z</time></trkpt><trkpt lat="44.3412383" lon="8.3254067"><ele>380.0</ele><time>2026-05-01T14:16:49.16Z</time></trkpt><trkpt lat="44.341125" lon="8.32552"><ele>380.75</ele><time>2026-05-01T14:16:50.158Z</time></trkpt><trkpt lat="44.3410083" lon="8.3256333"><ele>381.5</ele><time>2026-05-01T14:16:51.157Z</time></trkpt><trkpt lat="44.3408917" lon="8.3257417"><ele>382.25</ele><time>2026-05-01T14:16:52.158Z</time></trkpt><trkpt lat="44.34077" lon="8.3258567"><ele>383.0</ele><time>2026-05-01T14:16:53.156Z</time></trkpt><trkpt lat="44.3406533" lon="8.3259817"><ele>383.0</ele><time>2026-05-01T14:16:54.157Z</time></trkpt><trkpt lat="44.3405317" lon="8.32611"><ele>383.0</ele><time>2026-05-01T14:16:55.152Z</time></trkpt><trkpt lat="44.3404" lon="8.3262367"><ele>383.0</ele><time>2026-05-01T14:16:56.159Z</time></trkpt><trkpt lat="44.340265" lon="8.326365"><ele>383.6666666666667</ele><time>2026-05-01T14:16:57.153Z</time></trkpt><trkpt lat="44.3401283" lon="8.326495"><ele>384.33333333333337</ele><time>2026-05-01T14:16:58.162Z</time></trkpt><trkpt lat="44.3400017" lon="8.3266233"><ele>385.0</ele><time>2026-05-01T14:16:59.154Z</time></trkpt><trkpt lat="44.33988" lon="8.3267583"><ele>385.0</ele><time>2026-05-01T14:17:00.154Z</time></trkpt><trkpt lat="44.33976" lon="8.326895"><ele>385.0</ele><time>2026-05-01T14:17:01.158Z</time></trkpt><trkpt lat="44.3396483" lon="8.3270317"><ele>385.0</ele><time>2026-05-01T14:17:02.157Z</time></trkpt><trkpt lat="44.3395167" lon="8.3271683"><ele>386.0</ele><time>2026-05-01T14:17:03.156Z</time></trkpt><trkpt lat="44.339375" lon="8.3272917"><ele>387.0</ele><time>2026-05-01T14:17:04.151Z</time></trkpt><trkpt lat="44.3392383" lon="8.327405"><ele>388.0</ele><time>2026-05-01T14:17:05.152Z</time></trkpt><trkpt lat="44.33912" lon="8.32754"><ele>388.0</ele><time>2026-05-01T14:17:06.157Z</time></trkpt><trkpt lat="44.3389867" lon="8.3276667"><ele>388.0</ele><time>2026-05-01T14:17:07.159Z</time></trkpt><trkpt lat="44.338855" lon="8.3277967"><ele>388.0</ele><time>2026-05-01T14:17:08.153Z</time></trkpt><trkpt lat="44.338735" lon="8.327935"><ele>388.0</ele><time>2026-05-01T14:17:09.152Z</time></trkpt><trkpt lat="44.3386067" lon="8.3280667"><ele>388.0</ele><time>2026-05-01T14:17:10.154Z</time></trkpt><trkpt lat="44.3384833" lon="8.3281917"><ele>388.0</ele><time>2026-05-01T14:17:11.153Z</time></trkpt><trkpt lat="44.3383567" lon="8.3283133"><ele>388.0</ele><time>2026-05-01T14:17:12.153Z</time></trkpt><trkpt lat="44.33823" lon="8.3284417"><ele>388.0</ele><time>2026-05-01T14:17:13.154Z</time></trkpt><trkpt lat="44.3381117" lon="8.32857"><ele>388.0</ele><time>2026-05-01T14:17:14.152Z</time></trkpt><trkpt lat="44.3380067" lon="8.3286933"><ele>388.0</ele><time>2026-05-01T14:17:15.158Z</time></trkpt><trkpt lat="44.3379133" lon="8.3288"><ele>388.0</ele><time>2026-05-01T14:17:16.15Z</time></trkpt><trkpt lat="44.33784" lon="8.3288967"><ele>388.0</ele><time>2026-05-01T14:17:17.153Z</time></trkpt><trkpt lat="44.3377617" lon="8.3290017"><ele>388.0</ele><time>2026-05-01T14:17:18.153Z</time></trkpt><trkpt lat="44.3376867" lon="8.3291167"><ele>388.0</ele><time>2026-05-01T14:17:19.152Z</time></trkpt><trkpt lat="44.3376183" lon="8.3292517"><ele>388.0</ele><time>2026-05-01T14:17:20.153Z</time></trkpt><trkpt lat="44.3375533" lon="8.329395"><ele>388.0</ele><time>2026-05-01T14:17:21.151Z</time></trkpt><trkpt lat="44.337495" lon="8.3295433"><ele>388.0</ele><time>2026-05-01T14:17:22.153Z</time></trkpt><trkpt lat="44.33744" lon="8.329695"><ele>388.0</ele><time>2026-05-01T14:17:23.157Z</time></trkpt><trkpt lat="44.3373883" lon="8.3298567"><ele>388.0</ele><time>2026-05-01T14:17:24.155Z</time></trkpt><trkpt lat="44.3373433" lon="8.3300217"><ele>389.25</ele><time>2026-05-01T14:17:25.153Z</time></trkpt><trkpt lat="44.3373033" lon="8.33019"><ele>390.5</ele><time>2026-05-01T14:17:26.152Z</time></trkpt><trkpt lat="44.3372533" lon="8.33037"><ele>391.75</ele><time>2026-05-01T14:17:27.154Z</time></trkpt><trkpt lat="44.3372183" lon="8.33055"><ele>393.0</ele><time>2026-05-01T14:17:28.152Z</time></trkpt><trkpt lat="44.3371867" lon="8.3307267"><ele>393.0</ele><time>2026-05-01T14:17:29.156Z</time></trkpt><trkpt lat="44.3371567" lon="8.3308917"><ele>393.0</ele><time>2026-05-01T14:17:30.151Z</time></trkpt><trkpt lat="44.3371317" lon="8.3310583"><ele>393.0</ele><time>2026-05-01T14:17:31.153Z</time></trkpt><trkpt lat="44.3371033" lon="8.3312283"><ele>393.0</ele><time>2026-05-01T14:17:32.153Z</time></trkpt><trkpt lat="44.3370733" lon="8.3313967"><ele>393.5</ele><time>2026-05-01T14:17:33.151Z</time></trkpt><trkpt lat="44.33705" lon="8.3315617"><ele>394.0</ele><time>2026-05-01T14:17:34.151Z</time></trkpt><trkpt lat="44.337025" lon="8.3317283"><ele>394.5</ele><time>2026-05-01T14:17:35.155Z</time></trkpt><trkpt lat="44.337" lon="8.3318983"><ele>395.0</ele><time>2026-05-01T14:17:36.154Z</time></trkpt><trkpt lat="44.3369783" lon="8.33206"><ele>395.0</ele><time>2026-05-01T14:17:37.152Z</time></trkpt><trkpt lat="44.3369533" lon="8.332215"><ele>395.0</ele><time>2026-05-01T14:17:38.152Z</time></trkpt><trkpt lat="44.3369283" lon="8.33238"><ele>395.0</ele><time>2026-05-01T14:17:39.15Z</time></trkpt><trkpt lat="44.3369033" lon="8.3325367"><ele>395.0</ele><time>2026-05-01T14:17:40.156Z</time></trkpt><trkpt lat="44.3368833" lon="8.3327017"><ele>395.8</ele><time>2026-05-01T14:17:41.157Z</time></trkpt><trkpt lat="44.336855" lon="8.3328567"><ele>396.6</ele><time>2026-05-01T14:17:42.156Z</time></trkpt><trkpt lat="44.3368267" lon="8.332995"><ele>397.4</ele><time>2026-05-01T14:17:43.152Z</time></trkpt><trkpt lat="44.3368067" lon="8.3331317"><ele>398.2</ele><time>2026-05-01T14:17:44.154Z</time></trkpt><trkpt lat="44.336785" lon="8.333265"><ele>399.0</ele><time>2026-05-01T14:17:45.154Z</time></trkpt><trkpt lat="44.3367617" lon="8.33339"><ele>399.4</ele><time>2026-05-01T14:17:46.151Z</time></trkpt><trkpt lat="44.336735" lon="8.333525"><ele>399.79999999999995</ele><time>2026-05-01T14:17:47.155Z</time></trkpt><trkpt lat="44.336695" lon="8.3336667"><ele>400.20000000000005</ele><time>2026-05-01T14:17:48.155Z</time></trkpt><trkpt lat="44.3366567" lon="8.3338183"><ele>400.6</ele><time>2026-05-01T14:17:49.154Z</time></trkpt><trkpt lat="44.3366183" lon="8.3339817"><ele>401.0</ele><time>2026-05-01T14:17:50.153Z</time></trkpt><trkpt lat="44.33658" lon="8.334145"><ele>402.0</ele><time>2026-05-01T14:17:51.155Z</time></trkpt><trkpt lat="44.3365417" lon="8.3343133"><ele>403.0</ele><time>2026-05-01T14:17:52.155Z</time></trkpt><trkpt lat="44.3365017" lon="8.3344833"><ele>404.0</ele><time>2026-05-01T14:17:53.155Z</time></trkpt><trkpt lat="44.3364617" lon="8.3346583"><ele>405.0</ele><time>2026-05-01T14:17:54.153Z</time></trkpt><trkpt lat="44.3364167" lon="8.33483"><ele>403.25</ele><time>2026-05-01T14:17:55.151Z</time></trkpt><trkpt lat="44.33637" lon="8.3350083"><ele>401.5</ele><time>2026-05-01T14:17:56.162Z</time></trkpt><trkpt lat="44.3363267" lon="8.33519"><ele>399.75</ele><time>2026-05-01T14:17:57.149Z</time></trkpt><trkpt lat="44.336265" lon="8.33536"><ele>398.0</ele><time>2026-05-01T14:17:58.158Z</time></trkpt><trkpt lat="44.3362167" lon="8.3355417"><ele>398.25</ele><time>2026-05-01T14:17:59.156Z</time></trkpt><trkpt lat="44.3361667" lon="8.33572"><ele>398.5</ele><time>2026-05-01T14:18:00.153Z</time></trkpt><trkpt lat="44.336125" lon="8.3358917"><ele>398.75</ele><time>2026-05-01T14:18:01.157Z</time></trkpt><trkpt lat="44.3360883" lon="8.3360533"><ele>399.0</ele><time>2026-05-01T14:18:02.154Z</time></trkpt><trkpt lat="44.33605" lon="8.33622"><ele>399.0</ele><time>2026-05-01T14:18:03.152Z</time></trkpt><trkpt lat="44.3360083" lon="8.3363833"><ele>399.0</ele><time>2026-05-01T14:18:04.155Z</time></trkpt><trkpt lat="44.33597" lon="8.3365417"><ele>399.0</ele><time>2026-05-01T14:18:05.155Z</time></trkpt><trkpt lat="44.335935" lon="8.336705"><ele>399.0</ele><time>2026-05-01T14:18:06.152Z</time></trkpt><trkpt lat="44.3358983" lon="8.33687"><ele>399.79999999999995</ele><time>2026-05-01T14:18:07.152Z</time></trkpt><trkpt lat="44.3358717" lon="8.3370283"><ele>400.59999999999997</ele><time>2026-05-01T14:18:08.152Z</time></trkpt><trkpt lat="44.335845" lon="8.3371783"><ele>401.4</ele><time>2026-05-01T14:18:09.151Z</time></trkpt><trkpt lat="44.3357967" lon="8.3373233"><ele>402.2</ele><time>2026-05-01T14:18:10.156Z</time></trkpt><trkpt lat="44.3357683" lon="8.337465"><ele>403.0</ele><time>2026-05-01T14:18:11.157Z</time></trkpt><trkpt lat="44.33576" lon="8.3376083"><ele>403.4</ele><time>2026-05-01T14:18:12.157Z</time></trkpt><trkpt lat="44.3357533" lon="8.3377517"><ele>403.79999999999995</ele><time>2026-05-01T14:18:13.153Z</time></trkpt><trkpt lat="44.3357533" lon="8.337905"><ele>404.2</ele><time>2026-05-01T14:18:14.157Z</time></trkpt><trkpt lat="44.3357467" lon="8.3380417"><ele>404.6</ele><time>2026-05-01T14:18:15.156Z</time></trkpt><trkpt lat="44.3357467" lon="8.3381733"><ele>405.0</ele><time>2026-05-01T14:18:16.154Z</time></trkpt><trkpt lat="44.3357483" lon="8.3383117"><ele>405.0</ele><time>2026-05-01T14:18:17.151Z</time></trkpt><trkpt lat="44.3357417" lon="8.3384483"><ele>405.0</ele><time>2026-05-01T14:18:18.157Z</time></trkpt><trkpt lat="44.335745" lon="8.338595"><ele>405.0</ele><time>2026-05-01T14:18:19.152Z</time></trkpt><trkpt lat="44.335755" lon="8.3387533"><ele>405.0</ele><time>2026-05-01T14:18:20.149Z</time></trkpt><trkpt lat="44.3357533" lon="8.338895"><ele>405.0</ele><time>2026-05-01T14:18:21.151Z</time></trkpt><trkpt lat="44.3357633" lon="8.3390417"><ele>405.4</ele><time>2026-05-01T14:18:22.153Z</time></trkpt><trkpt lat="44.3357617" lon="8.3392083"><ele>405.8</ele><time>2026-05-01T14:18:23.151Z</time></trkpt><trkpt lat="44.335775" lon="8.33937"><ele>406.20000000000005</ele><time>2026-05-01T14:18:24.155Z</time></trkpt><trkpt lat="44.3358" lon="8.33952"><ele>406.6</ele><time>2026-05-01T14:18:25.151Z</time></trkpt><trkpt lat="44.3358033" lon="8.339665"><ele>407.0</ele><time>2026-05-01T14:18:26.151Z</time></trkpt><trkpt lat="44.335795" lon="8.3398067"><ele>407.6</ele><time>2026-05-01T14:18:27.151Z</time></trkpt><trkpt lat="44.335775" lon="8.3399417"><ele>408.20000000000005</ele><time>2026-05-01T14:18:28.153Z</time></trkpt><trkpt lat="44.3357583" lon="8.34008"><ele>408.8</ele><time>2026-05-01T14:18:29.153Z</time></trkpt><trkpt lat="44.3357517" lon="8.3402233"><ele>409.4</ele><time>2026-05-01T14:18:30.154Z</time></trkpt><trkpt lat="44.33577" lon="8.340375"><ele>410.0</ele><time>2026-05-01T14:18:31.158Z</time></trkpt><trkpt lat="44.3357683" lon="8.3405033"><ele>409.8</ele><time>2026-05-01T14:18:32.156Z</time></trkpt><trkpt lat="44.33576" lon="8.3406117"><ele>409.6</ele><time>2026-05-01T14:18:33.152Z</time></trkpt><trkpt lat="44.3358033" lon="8.3407383"><ele>409.4</ele><time>2026-05-01T14:18:35.152Z</time></trkpt><trkpt lat="44.3358633" lon="8.3407883"><ele>409.2</ele><time>2026-05-01T14:18:36.154Z</time></trkpt><trkpt lat="44.335935" lon="8.340935"><ele>409.0</ele><time>2026-05-01T14:18:38.162Z</time></trkpt><trkpt lat="44.3360167" lon="8.3410667"><ele>409.0</ele><time>2026-05-01T14:18:40.154Z</time></trkpt><trkpt lat="44.3361017" lon="8.3411983"><ele>409.0</ele><time>2026-05-01T14:18:42.154Z</time></trkpt><trkpt lat="44.3362017" lon="8.3412933"><ele>409.0</ele><time>2026-05-01T14:18:44.155Z</time></trkpt><trkpt lat="44.33632" lon="8.341365"><ele>409.0</ele><time>2026-05-01T14:18:46.159Z</time></trkpt><trkpt lat="44.3363983" lon="8.341395"><ele>408.6666666666667</ele><time>2026-05-01T14:18:47.149Z</time></trkpt><trkpt lat="44.3364583" lon="8.3414217"><ele>408.33333333333337</ele><time>2026-05-01T14:18:48.152Z</time></trkpt><trkpt lat="44.3365233" lon="8.3414483"><ele>408.0</ele><time>2026-05-01T14:18:49.159Z</time></trkpt><trkpt lat="44.3365967" lon="8.341465"><ele>407.66666666666663</ele><time>2026-05-01T14:18:50.151Z</time></trkpt><trkpt lat="44.3366783" lon="8.3414517"><ele>407.3333333333333</ele><time>2026-05-01T14:18:51.151Z</time></trkpt><trkpt lat="44.3367667" lon="8.341455"><ele>407.0</ele><time>2026-05-01T14:18:52.152Z</time></trkpt><trkpt lat="44.3368433" lon="8.3414417"><ele>406.99999999999994</ele><time>2026-05-01T14:18:53.157Z</time></trkpt><trkpt lat="44.3369233" lon="8.341455"><ele>407.0</ele><time>2026-05-01T14:18:54.152Z</time></trkpt><trkpt lat="44.3370017" lon="8.3414917"><ele>407.0</ele><time>2026-05-01T14:18:55.151Z</time></trkpt><trkpt lat="44.3370617" lon="8.3415383"><ele>407.0</ele><time>2026-05-01T14:18:56.151Z</time></trkpt><trkpt lat="44.3371033" lon="8.3416567"><ele>406.99999999999994</ele><time>2026-05-01T14:18:57.153Z</time></trkpt><trkpt lat="44.33715" lon="8.3417733"><ele>407.0</ele><time>2026-05-01T14:18:58.151Z</time></trkpt><trkpt lat="44.337205" lon="8.3418967"><ele>408.40000000000003</ele><time>2026-05-01T14:18:59.158Z</time></trkpt><trkpt lat="44.3372633" lon="8.3420183"><ele>409.8</ele><time>2026-05-01T14:19:00.151Z</time></trkpt><trkpt lat="44.3373333" lon="8.342125"><ele>411.2</ele><time>2026-05-01T14:19:01.151Z</time></trkpt><trkpt lat="44.3374167" lon="8.3422183"><ele>412.6</ele><time>2026-05-01T14:19:02.152Z</time></trkpt><trkpt lat="44.33751" lon="8.342305"><ele>414.0</ele><time>2026-05-01T14:19:03.152Z</time></trkpt><trkpt lat="44.3376017" lon="8.3424"><ele>414.0</ele><time>2026-05-01T14:19:04.151Z</time></trkpt><trkpt lat="44.3376917" lon="8.3425"><ele>414.0</ele><time>2026-05-01T14:19:05.154Z</time></trkpt><trkpt lat="44.3377867" lon="8.3426067"><ele>414.0</ele><time>2026-05-01T14:19:06.151Z</time></trkpt><trkpt lat="44.3378817" lon="8.3427217"><ele>414.0</ele><time>2026-05-01T14:19:07.158Z</time></trkpt><trkpt lat="44.3379767" lon="8.3428417"><ele>414.0</ele><time>2026-05-01T14:19:08.151Z</time></trkpt><trkpt lat="44.33805" lon="8.3429833"><ele>414.0</ele><time>2026-05-01T14:19:09.15Z</time></trkpt><trkpt lat="44.3381067" lon="8.3431567"><ele>414.0</ele><time>2026-05-01T14:19:10.155Z</time></trkpt><trkpt lat="44.3381667" lon="8.34333"><ele>414.0</ele><time>2026-05-01T14:19:11.159Z</time></trkpt><trkpt lat="44.3382183" lon="8.3435133"><ele>414.25</ele><time>2026-05-01T14:19:12.16Z</time></trkpt><trkpt lat="44.3382883" lon="8.3436833"><ele>414.5</ele><time>2026-05-01T14:19:13.154Z</time></trkpt><trkpt lat="44.3383717" lon="8.3438583"><ele>414.75</ele><time>2026-05-01T14:19:14.157Z</time></trkpt><trkpt lat="44.3384517" lon="8.34403"><ele>415.0</ele><time>2026-05-01T14:19:15.153Z</time></trkpt><trkpt lat="44.3385367" lon="8.344205"><ele>415.0</ele><time>2026-05-01T14:19:16.154Z</time></trkpt><trkpt lat="44.3386217" lon="8.3443783"><ele>415.0</ele><time>2026-05-01T14:19:17.153Z</time></trkpt><trkpt lat="44.338705" lon="8.3445517"><ele>415.0</ele><time>2026-05-01T14:19:18.155Z</time></trkpt><trkpt lat="44.3387833" lon="8.34472"><ele>415.0</ele><time>2026-05-01T14:19:19.154Z</time></trkpt><trkpt lat="44.33886" lon="8.34488"><ele>417.0</ele><time>2026-05-01T14:19:20.158Z</time></trkpt><trkpt lat="44.3389333" lon="8.3450333"><ele>419.0</ele><time>2026-05-01T14:19:21.156Z</time></trkpt><trkpt lat="44.339005" lon="8.3451817"><ele>421.0</ele><time>2026-05-01T14:19:22.156Z</time></trkpt><trkpt lat="44.3390833" lon="8.3453267"><ele>423.0</ele><time>2026-05-01T14:19:23.153Z</time></trkpt><trkpt lat="44.33916" lon="8.3454717"><ele>421.75</ele><time>2026-05-01T14:19:24.154Z</time></trkpt><trkpt lat="44.3392383" lon="8.345605"><ele>420.5</ele><time>2026-05-01T14:19:25.152Z</time></trkpt><trkpt lat="44.3393217" lon="8.345715"><ele>419.25</ele><time>2026-05-01T14:19:26.158Z</time></trkpt><trkpt lat="44.3394083" lon="8.345815"><ele>418.0</ele><time>2026-05-01T14:19:27.151Z</time></trkpt><trkpt lat="44.3395117" lon="8.3458917"><ele>418.0</ele><time>2026-05-01T14:19:28.155Z</time></trkpt><trkpt lat="44.3396217" lon="8.3459633"><ele>418.0</ele><time>2026-05-01T14:19:29.154Z</time></trkpt><trkpt lat="44.339745" lon="8.346015"><ele>418.0</ele><time>2026-05-01T14:19:30.151Z</time></trkpt><trkpt lat="44.339875" lon="8.3460467"><ele>418.0</ele><time>2026-05-01T14:19:31.157Z</time></trkpt><trkpt lat="44.34001" lon="8.3460717"><ele>420.25</ele><time>2026-05-01T14:19:32.154Z</time></trkpt><trkpt lat="44.3401533" lon="8.34608"><ele>422.5</ele><time>2026-05-01T14:19:33.155Z</time></trkpt><trkpt lat="44.3403033" lon="8.34609"><ele>424.75</ele><time>2026-05-01T14:19:34.152Z</time></trkpt><trkpt lat="44.340445" lon="8.346105"><ele>427.0</ele><time>2026-05-01T14:19:35.154Z</time></trkpt><trkpt lat="44.34058" lon="8.346115"><ele>427.5</ele><time>2026-05-01T14:19:36.154Z</time></trkpt><trkpt lat="44.3407067" lon="8.34613"><ele>428.0</ele><time>2026-05-01T14:19:37.156Z</time></trkpt><trkpt lat="44.340825" lon="8.34615"><ele>428.5</ele><time>2026-05-01T14:19:38.152Z</time></trkpt><trkpt lat="44.3409417" lon="8.3461617"><ele>429.0</ele><time>2026-05-01T14:19:39.159Z</time></trkpt><trkpt lat="44.341055" lon="8.3461783"><ele>429.0</ele><time>2026-05-01T14:19:40.157Z</time></trkpt><trkpt lat="44.3411717" lon="8.346195"><ele>429.0</ele><time>2026-05-01T14:19:41.157Z</time></trkpt><trkpt lat="44.34129" lon="8.3462017"><ele>429.0</ele><time>2026-05-01T14:19:42.159Z</time></trkpt><trkpt lat="44.341415" lon="8.346205"><ele>429.0</ele><time>2026-05-01T14:19:43.156Z</time></trkpt><trkpt lat="44.341545" lon="8.3462067"><ele>428.25</ele><time>2026-05-01T14:19:44.151Z</time></trkpt><trkpt lat="44.341685" lon="8.3462067"><ele>427.5</ele><time>2026-05-01T14:19:45.151Z</time></trkpt><trkpt lat="44.3418233" lon="8.346215"><ele>426.75</ele><time>2026-05-01T14:19:46.153Z</time></trkpt><trkpt lat="44.3419617" lon="8.34623"><ele>426.0</ele><time>2026-05-01T14:19:47.16Z</time></trkpt><trkpt lat="44.342105" lon="8.3462467"><ele>428.0</ele><time>2026-05-01T14:19:48.153Z</time></trkpt><trkpt lat="44.34226" lon="8.3462717"><ele>430.0</ele><time>2026-05-01T14:19:49.152Z</time></trkpt><trkpt lat="44.3424217" lon="8.3463067"><ele>432.0</ele><time>2026-05-01T14:19:50.155Z</time></trkpt><trkpt lat="44.3425867" lon="8.3463483"><ele>434.33333333333337</ele><time>2026-05-01T14:19:51.152Z</time></trkpt><trkpt lat="44.34276" lon="8.3463967"><ele>436.6666666666667</ele><time>2026-05-01T14:19:52.151Z</time></trkpt><trkpt lat="44.342935" lon="8.3464583"><ele>439.0</ele><time>2026-05-01T14:19:53.159Z</time></trkpt><trkpt lat="44.3431133" lon="8.3465267"><ele>439.0</ele><time>2026-05-01T14:19:54.154Z</time></trkpt><trkpt lat="44.3432867" lon="8.34659"><ele>439.0</ele><time>2026-05-01T14:19:55.154Z</time></trkpt><trkpt lat="44.3434583" lon="8.34664"><ele>439.0</ele><time>2026-05-01T14:19:56.154Z</time></trkpt><trkpt lat="44.3436333" lon="8.3466783"><ele>439.0</ele><time>2026-05-01T14:19:57.153Z</time></trkpt><trkpt lat="44.3438" lon="8.3467067"><ele>439.0</ele><time>2026-05-01T14:19:58.161Z</time></trkpt><trkpt lat="44.34397" lon="8.3467217"><ele>439.0</ele><time>2026-05-01T14:19:59.155Z</time></trkpt><trkpt lat="44.3441367" lon="8.3467367"><ele>438.6666666666667</ele><time>2026-05-01T14:20:00.155Z</time></trkpt><trkpt lat="44.3443067" lon="8.346755"><ele>438.33333333333337</ele><time>2026-05-01T14:20:01.158Z</time></trkpt><trkpt lat="44.3444667" lon="8.3467683"><ele>438.0</ele><time>2026-05-01T14:20:02.155Z</time></trkpt><trkpt lat="44.3446267" lon="8.34679"><ele>439.5</ele><time>2026-05-01T14:20:03.157Z</time></trkpt><trkpt lat="44.3447783" lon="8.3468083"><ele>441.0</ele><time>2026-05-01T14:20:04.162Z</time></trkpt><trkpt lat="44.3449217" lon="8.3468083"><ele>442.5</ele><time>2026-05-01T14:20:05.155Z</time></trkpt><trkpt lat="44.34507" lon="8.3467967"><ele>444.0</ele><time>2026-05-01T14:20:06.156Z</time></trkpt><trkpt lat="44.3452167" lon="8.3467517"><ele>444.0</ele><time>2026-05-01T14:20:07.153Z</time></trkpt><trkpt lat="44.3453617" lon="8.34669"><ele>444.0</ele><time>2026-05-01T14:20:08.153Z</time></trkpt><trkpt lat="44.3455133" lon="8.346615"><ele>444.0</ele><time>2026-05-01T14:20:09.155Z</time></trkpt><trkpt lat="44.345665" lon="8.3465433"><ele>445.0</ele><time>2026-05-01T14:20:10.154Z</time></trkpt><trkpt lat="44.3458033" lon="8.3465067"><ele>446.0</ele><time>2026-05-01T14:20:11.162Z</time></trkpt><trkpt lat="44.345915" lon="8.3464883"><ele>447.0</ele><time>2026-05-01T14:20:12.156Z</time></trkpt><trkpt lat="44.3460317" lon="8.3465017"><ele>448.0</ele><time>2026-05-01T14:20:13.153Z</time></trkpt><trkpt lat="44.34614" lon="8.3465083"><ele>448.0</ele><time>2026-05-01T14:20:14.153Z</time></trkpt><trkpt lat="44.34625" lon="8.346505"><ele>447.99999999999994</ele><time>2026-05-01T14:20:15.154Z</time></trkpt><trkpt lat="44.3463333" lon="8.346455"><ele>447.99999999999994</ele><time>2026-05-01T14:20:16.155Z</time></trkpt><trkpt lat="44.3464017" lon="8.346395"><ele>448.0</ele><time>2026-05-01T14:20:17.155Z</time></trkpt><trkpt lat="44.346465" lon="8.34631"><ele>448.0</ele><time>2026-05-01T14:20:18.155Z</time></trkpt><trkpt lat="44.34652" lon="8.3462183"><ele>449.59999999999997</ele><time>2026-05-01T14:20:19.158Z</time></trkpt><trkpt lat="44.3465667" lon="8.3461083"><ele>451.19999999999993</ele><time>2026-05-01T14:20:20.154Z</time></trkpt><trkpt lat="44.3466217" lon="8.3460083"><ele>452.8</ele><time>2026-05-01T14:20:21.155Z</time></trkpt><trkpt lat="44.3466933" lon="8.3459283"><ele>454.4</ele><time>2026-05-01T14:20:22.152Z</time></trkpt><trkpt lat="44.3468033" lon="8.3458567"><ele>456.0</ele><time>2026-05-01T14:20:23.152Z</time></trkpt><trkpt lat="44.3469067" lon="8.3458017"><ele>456.0</ele><time>2026-05-01T14:20:24.15Z</time></trkpt><trkpt lat="44.347005" lon="8.3457633"><ele>456.0</ele><time>2026-05-01T14:20:25.153Z</time></trkpt><trkpt lat="44.347105" lon="8.3457367"><ele>456.0</ele><time>2026-05-01T14:20:26.155Z</time></trkpt><trkpt lat="44.3471983" lon="8.345785"><ele>456.0</ele><time>2026-05-01T14:20:27.152Z</time></trkpt><trkpt lat="44.3472833" lon="8.345855"><ele>456.0</ele><time>2026-05-01T14:20:28.15Z</time></trkpt><trkpt lat="44.3473733" lon="8.3459133"><ele>457.20000000000005</ele><time>2026-05-01T14:20:29.159Z</time></trkpt><trkpt lat="44.34746" lon="8.3459367"><ele>458.40000000000003</ele><time>2026-05-01T14:20:30.15Z</time></trkpt><trkpt lat="44.3475167" lon="8.3458917"><ele>459.6</ele><time>2026-05-01T14:20:31.151Z</time></trkpt><trkpt lat="44.3475767" lon="8.34569"><ele>460.8</ele><time>2026-05-01T14:20:33.154Z</time></trkpt><trkpt lat="44.347595" lon="8.345545"><ele>462.0</ele><time>2026-05-01T14:20:34.153Z</time></trkpt><trkpt lat="44.34762" lon="8.3454183"><ele>463.0</ele><time>2026-05-01T14:20:35.15Z</time></trkpt><trkpt lat="44.34767" lon="8.3453033"><ele>464.00000000000006</ele><time>2026-05-01T14:20:36.158Z</time></trkpt><trkpt lat="44.347725" lon="8.3451983"><ele>465.00000000000006</ele><time>2026-05-01T14:20:37.159Z</time></trkpt><trkpt lat="44.3477783" lon="8.345095"><ele>466.0</ele><time>2026-05-01T14:20:38.151Z</time></trkpt><trkpt lat="44.3478817" lon="8.344995"><ele>467.0</ele><time>2026-05-01T14:20:39.152Z</time></trkpt><trkpt lat="44.3479783" lon="8.344905"><ele>466.8</ele><time>2026-05-01T14:20:40.152Z</time></trkpt><trkpt lat="44.3480767" lon="8.34483"><ele>466.6</ele><time>2026-05-01T14:20:41.158Z</time></trkpt><trkpt lat="44.3481833" lon="8.3447717"><ele>466.40000000000003</ele><time>2026-05-01T14:20:42.153Z</time></trkpt><trkpt lat="44.34829" lon="8.34474"><ele>466.20000000000005</ele><time>2026-05-01T14:20:43.159Z</time></trkpt><trkpt lat="44.348385" lon="8.3447367"><ele>466.0</ele><time>2026-05-01T14:20:44.154Z</time></trkpt><trkpt lat="44.34849" lon="8.3447383"><ele>466.00000000000006</ele><time>2026-05-01T14:20:45.154Z</time></trkpt><trkpt lat="44.3485733" lon="8.3447183"><ele>466.0</ele><time>2026-05-01T14:20:46.156Z</time></trkpt><trkpt lat="44.3486533" lon="8.3446933"><ele>466.0</ele><time>2026-05-01T14:20:47.157Z</time></trkpt><trkpt lat="44.3487183" lon="8.344655"><ele>466.0</ele><time>2026-05-01T14:20:48.155Z</time></trkpt><trkpt lat="44.34873" lon="8.3445317"><ele>466.00000000000006</ele><time>2026-05-01T14:20:49.155Z</time></trkpt><trkpt lat="44.3487583" lon="8.3444217"><ele>466.0</ele><time>2026-05-01T14:20:50.153Z</time></trkpt><trkpt lat="44.34878" lon="8.3443083"><ele>466.4</ele><time>2026-05-01T14:20:51.154Z</time></trkpt><trkpt lat="44.34882" lon="8.3441783"><ele>466.8</ele><time>2026-05-01T14:20:52.155Z</time></trkpt><trkpt lat="44.34889" lon="8.3440717"><ele>467.19999999999993</ele><time>2026-05-01T14:20:53.161Z</time></trkpt><trkpt lat="44.3489633" lon="8.3439483"><ele>467.59999999999997</ele><time>2026-05-01T14:20:54.153Z</time></trkpt><trkpt lat="44.349055" lon="8.3438267"><ele>468.0</ele><time>2026-05-01T14:20:55.157Z</time></trkpt><trkpt lat="44.349165" lon="8.3437083"><ele>468.5</ele><time>2026-05-01T14:20:56.153Z</time></trkpt><trkpt lat="44.3492833" lon="8.3436067"><ele>469.0</ele><time>2026-05-01T14:20:57.152Z</time></trkpt><trkpt lat="44.349405" lon="8.3435133"><ele>469.5</ele><time>2026-05-01T14:20:58.152Z</time></trkpt><trkpt lat="44.3495333" lon="8.3434533"><ele>470.0</ele><time>2026-05-01T14:20:59.153Z</time></trkpt><trkpt lat="44.3496667" lon="8.3434183"><ele>469.2</ele><time>2026-05-01T14:21:00.156Z</time></trkpt><trkpt lat="44.349785" lon="8.3433817"><ele>468.4</ele><time>2026-05-01T14:21:01.154Z</time></trkpt><trkpt lat="44.3498883" lon="8.343375"><ele>467.6</ele><time>2026-05-01T14:21:02.153Z</time></trkpt><trkpt lat="44.34999" lon="8.3434067"><ele>466.8</ele><time>2026-05-01T14:21:03.158Z</time></trkpt><trkpt lat="44.3500867" lon="8.34346"><ele>466.0</ele><time>2026-05-01T14:21:04.156Z</time></trkpt><trkpt lat="44.3501917" lon="8.3435217"><ele>466.0</ele><time>2026-05-01T14:21:05.16Z</time></trkpt><trkpt lat="44.3502883" lon="8.3435783"><ele>466.0</ele><time>2026-05-01T14:21:06.152Z</time></trkpt><trkpt lat="44.350385" lon="8.3436067"><ele>466.0</ele><time>2026-05-01T14:21:07.155Z</time></trkpt><trkpt lat="44.3504883" lon="8.3436033"><ele>466.0</ele><time>2026-05-01T14:21:08.154Z</time></trkpt><trkpt lat="44.3506033" lon="8.343585"><ele>466.0</ele><time>2026-05-01T14:21:09.152Z</time></trkpt><trkpt lat="44.3507233" lon="8.3435733"><ele>465.5</ele><time>2026-05-01T14:21:10.15Z</time></trkpt><trkpt lat="44.3508567" lon="8.343555"><ele>465.0</ele><time>2026-05-01T14:21:11.153Z</time></trkpt><trkpt lat="44.350985" lon="8.3435267"><ele>464.5</ele><time>2026-05-01T14:21:12.154Z</time></trkpt><trkpt lat="44.351105" lon="8.3435017"><ele>464.0</ele><time>2026-05-01T14:21:13.154Z</time></trkpt><trkpt lat="44.35122" lon="8.3434883"><ele>464.0</ele><time>2026-05-01T14:21:14.152Z</time></trkpt><trkpt lat="44.3513283" lon="8.3435017"><ele>464.0</ele><time>2026-05-01T14:21:15.156Z</time></trkpt><trkpt lat="44.3514417" lon="8.3435317"><ele>464.0</ele><time>2026-05-01T14:21:16.153Z</time></trkpt><trkpt lat="44.35156" lon="8.34357"><ele>464.0</ele><time>2026-05-01T14:21:17.153Z</time></trkpt><trkpt lat="44.3516883" lon="8.3435967"><ele>463.0</ele><time>2026-05-01T14:21:18.153Z</time></trkpt><trkpt lat="44.351815" lon="8.34361"><ele>462.0</ele><time>2026-05-01T14:21:19.158Z</time></trkpt><trkpt lat="44.35194" lon="8.3435767"><ele>461.0</ele><time>2026-05-01T14:21:20.158Z</time></trkpt><trkpt lat="44.3520617" lon="8.3435267"><ele>460.0</ele><time>2026-05-01T14:21:21.154Z</time></trkpt><trkpt lat="44.352175" lon="8.34347"><ele>457.4</ele><time>2026-05-01T14:21:22.153Z</time></trkpt><trkpt lat="44.3522817" lon="8.3434283"><ele>454.8</ele><time>2026-05-01T14:21:23.154Z</time></trkpt><trkpt lat="44.3523817" lon="8.3434183"><ele>452.20000000000005</ele><time>2026-05-01T14:21:24.153Z</time></trkpt><trkpt lat="44.3524817" lon="8.34344"><ele>449.6</ele><time>2026-05-01T14:21:25.156Z</time></trkpt><trkpt lat="44.3525767" lon="8.3434967"><ele>447.0</ele><time>2026-05-01T14:21:26.158Z</time></trkpt><trkpt lat="44.352665" lon="8.34358"><ele>447.0</ele><time>2026-05-01T14:21:27.151Z</time></trkpt><trkpt lat="44.3527217" lon="8.3437167"><ele>447.0</ele><time>2026-05-01T14:21:28.154Z</time></trkpt><trkpt lat="44.3527717" lon="8.343875"><ele>447.0</ele><time>2026-05-01T14:21:29.153Z</time></trkpt><trkpt lat="44.3528367" lon="8.344055"><ele>447.0</ele><time>2026-05-01T14:21:30.155Z</time></trkpt><trkpt lat="44.3529067" lon="8.344215"><ele>447.0</ele><time>2026-05-01T14:21:31.154Z</time></trkpt><trkpt lat="44.3529767" lon="8.3443633"><ele>447.0</ele><time>2026-05-01T14:21:32.153Z</time></trkpt><trkpt lat="44.3530583" lon="8.3444683"><ele>447.0</ele><time>2026-05-01T14:21:33.151Z</time></trkpt><trkpt lat="44.3532" lon="8.34457"><ele>447.0</ele><time>2026-05-01T14:21:34.158Z</time></trkpt><trkpt lat="44.3533283" lon="8.344685"><ele>447.66666666666663</ele><time>2026-05-01T14:21:35.152Z</time></trkpt><trkpt lat="44.35348" lon="8.3448167"><ele>448.3333333333333</ele><time>2026-05-01T14:21:36.153Z</time></trkpt><trkpt lat="44.353625" lon="8.3449467"><ele>449.0</ele><time>2026-05-01T14:21:37.154Z</time></trkpt><trkpt lat="44.3537467" lon="8.3450767"><ele>449.0</ele><time>2026-05-01T14:21:38.155Z</time></trkpt><trkpt lat="44.3538667" lon="8.3451933"><ele>449.0</ele><time>2026-05-01T14:21:39.152Z</time></trkpt><trkpt lat="44.3539867" lon="8.3452967"><ele>449.0</ele><time>2026-05-01T14:21:40.152Z</time></trkpt><trkpt lat="44.3541117" lon="8.3454017"><ele>449.0</ele><time>2026-05-01T14:21:41.151Z</time></trkpt><trkpt lat="44.3542467" lon="8.3454767"><ele>448.5</ele><time>2026-05-01T14:21:42.159Z</time></trkpt><trkpt lat="44.3543767" lon="8.34555"><ele>448.0</ele><time>2026-05-01T14:21:43.154Z</time></trkpt><trkpt lat="44.354515" lon="8.3456133"><ele>447.5</ele><time>2026-05-01T14:21:44.151Z</time></trkpt><trkpt lat="44.3546483" lon="8.3456833"><ele>447.0</ele><time>2026-05-01T14:21:45.154Z</time></trkpt><trkpt lat="44.3547783" lon="8.3457583"><ele>450.0</ele><time>2026-05-01T14:21:46.15Z</time></trkpt><trkpt lat="44.35491" lon="8.3458183"><ele>453.0</ele><time>2026-05-01T14:21:47.155Z</time></trkpt><trkpt lat="44.35504" lon="8.34585"><ele>456.0</ele><time>2026-05-01T14:21:48.156Z</time></trkpt><trkpt lat="44.35516" lon="8.34587"><ele>459.0</ele><time>2026-05-01T14:21:49.153Z</time></trkpt><trkpt lat="44.35527" lon="8.3459117"><ele>459.0</ele><time>2026-05-01T14:21:50.154Z</time></trkpt><trkpt lat="44.3553617" lon="8.3459833"><ele>459.0</ele><time>2026-05-01T14:21:51.155Z</time></trkpt><trkpt lat="44.3554367" lon="8.3460933"><ele>459.0</ele><time>2026-05-01T14:21:52.154Z</time></trkpt><trkpt lat="44.3554983" lon="8.34625"><ele>459.0</ele><time>2026-05-01T14:21:53.154Z</time></trkpt><trkpt lat="44.355555" lon="8.34643"><ele>461.75</ele><time>2026-05-01T14:21:54.153Z</time></trkpt><trkpt lat="44.3556033" lon="8.3466"><ele>464.5</ele><time>2026-05-01T14:21:55.157Z</time></trkpt><trkpt lat="44.3556517" lon="8.3467517"><ele>467.25</ele><time>2026-05-01T14:21:56.154Z</time></trkpt><trkpt lat="44.3557133" lon="8.3468983"><ele>470.0</ele><time>2026-05-01T14:21:57.156Z</time></trkpt><trkpt lat="44.3557783" lon="8.3470233"><ele>470.0</ele><time>2026-05-01T14:21:58.155Z</time></trkpt><trkpt lat="44.355835" lon="8.34714"><ele>470.0</ele><time>2026-05-01T14:21:59.153Z</time></trkpt><trkpt lat="44.355895" lon="8.3472417"><ele>470.0</ele><time>2026-05-01T14:22:00.156Z</time></trkpt><trkpt lat="44.3559583" lon="8.3473483"><ele>470.0</ele><time>2026-05-01T14:22:01.156Z</time></trkpt><trkpt lat="44.356015" lon="8.3474717"><ele>470.0</ele><time>2026-05-01T14:22:02.153Z</time></trkpt><trkpt lat="44.3560583" lon="8.3475983"><ele>469.66666666666663</ele><time>2026-05-01T14:22:03.154Z</time></trkpt><trkpt lat="44.3560933" lon="8.347715"><ele>469.3333333333333</ele><time>2026-05-01T14:22:04.155Z</time></trkpt><trkpt lat="44.356135" lon="8.34782"><ele>469.0</ele><time>2026-05-01T14:22:05.16Z</time></trkpt><trkpt lat="44.3561767" lon="8.3479183"><ele>468.66666666666663</ele><time>2026-05-01T14:22:06.151Z</time></trkpt><trkpt lat="44.356225" lon="8.3480083"><ele>468.3333333333333</ele><time>2026-05-01T14:22:07.161Z</time></trkpt><trkpt lat="44.3562867" lon="8.3480967"><ele>468.0</ele><time>2026-05-01T14:22:08.152Z</time></trkpt><trkpt lat="44.356365" lon="8.3481817"><ele>468.79999999999995</ele><time>2026-05-01T14:22:09.155Z</time></trkpt><trkpt lat="44.35645" lon="8.3482633"><ele>469.59999999999997</ele><time>2026-05-01T14:22:10.154Z</time></trkpt><trkpt lat="44.3565383" lon="8.3483333"><ele>470.40000000000003</ele><time>2026-05-01T14:22:11.158Z</time></trkpt><trkpt lat="44.3566383" lon="8.3483883"><ele>471.20000000000005</ele><time>2026-05-01T14:22:12.152Z</time></trkpt><trkpt lat="44.3567367" lon="8.348435"><ele>472.0</ele><time>2026-05-01T14:22:13.158Z</time></trkpt><trkpt lat="44.35683" lon="8.3484533"><ele>472.0</ele><time>2026-05-01T14:22:14.153Z</time></trkpt><trkpt lat="44.3569233" lon="8.3484567"><ele>472.00000000000006</ele><time>2026-05-01T14:22:15.154Z</time></trkpt><trkpt lat="44.3570117" lon="8.348465"><ele>472.00000000000006</ele><time>2026-05-01T14:22:16.152Z</time></trkpt><trkpt lat="44.3571067" lon="8.3484883"><ele>472.0</ele><time>2026-05-01T14:22:17.15Z</time></trkpt><trkpt lat="44.3571933" lon="8.34855"><ele>472.0</ele><time>2026-05-01T14:22:18.152Z</time></trkpt><trkpt lat="44.3572883" lon="8.348625"><ele>471.25</ele><time>2026-05-01T14:22:19.152Z</time></trkpt><trkpt lat="44.3573817" lon="8.3487133"><ele>470.5</ele><time>2026-05-01T14:22:20.155Z</time></trkpt><trkpt lat="44.3574783" lon="8.3488183"><ele>469.75</ele><time>2026-05-01T14:22:21.152Z</time></trkpt><trkpt lat="44.3575583" lon="8.348955"><ele>469.0</ele><time>2026-05-01T14:22:22.154Z</time></trkpt><trkpt lat="44.3576517" lon="8.349085"><ele>466.75</ele><time>2026-05-01T14:22:23.153Z</time></trkpt><trkpt lat="44.3577417" lon="8.3492233"><ele>464.5</ele><time>2026-05-01T14:22:24.15Z</time></trkpt><trkpt lat="44.357825" lon="8.34938"><ele>462.25</ele><time>2026-05-01T14:22:25.156Z</time></trkpt><trkpt lat="44.3578967" lon="8.3495383"><ele>460.0</ele><time>2026-05-01T14:22:26.151Z</time></trkpt><trkpt lat="44.3579583" lon="8.34969"><ele>459.4</ele><time>2026-05-01T14:22:27.152Z</time></trkpt><trkpt lat="44.3580167" lon="8.3498333"><ele>458.8</ele><time>2026-05-01T14:22:28.152Z</time></trkpt><trkpt lat="44.35806" lon="8.34997"><ele>458.20000000000005</ele><time>2026-05-01T14:22:29.156Z</time></trkpt><trkpt lat="44.358105" lon="8.35008"><ele>457.6</ele><time>2026-05-01T14:22:30.15Z</time></trkpt><trkpt lat="44.3581417" lon="8.3501867"><ele>457.0</ele><time>2026-05-01T14:22:31.153Z</time></trkpt><trkpt lat="44.3581717" lon="8.3503167"><ele>457.0</ele><time>2026-05-01T14:22:32.157Z</time></trkpt><trkpt lat="44.3581883" lon="8.3504583"><ele>457.00000000000006</ele><time>2026-05-01T14:22:33.15Z</time></trkpt><trkpt lat="44.358205" lon="8.35061"><ele>457.00000000000006</ele><time>2026-05-01T14:22:34.156Z</time></trkpt><trkpt lat="44.358215" lon="8.3507617"><ele>457.0</ele><time>2026-05-01T14:22:35.156Z</time></trkpt><trkpt lat="44.3582217" lon="8.350925"><ele>457.0</ele><time>2026-05-01T14:22:36.152Z</time></trkpt><trkpt lat="44.3582183" lon="8.3510967"><ele>458.5</ele><time>2026-05-01T14:22:37.153Z</time></trkpt><trkpt lat="44.35821" lon="8.351275"><ele>460.0</ele><time>2026-05-01T14:22:38.156Z</time></trkpt><trkpt lat="44.3582" lon="8.3514633"><ele>461.5</ele><time>2026-05-01T14:22:39.152Z</time></trkpt><trkpt lat="44.3581867" lon="8.3516567"><ele>463.0</ele><time>2026-05-01T14:22:40.155Z</time></trkpt><trkpt lat="44.35817" lon="8.35184"><ele>464.4</ele><time>2026-05-01T14:22:41.152Z</time></trkpt><trkpt lat="44.35815" lon="8.3520033"><ele>465.79999999999995</ele><time>2026-05-01T14:22:42.153Z</time></trkpt><trkpt lat="44.358135" lon="8.3521433"><ele>467.2</ele><time>2026-05-01T14:22:43.15Z</time></trkpt><trkpt lat="44.3581317" lon="8.3522683"><ele>468.6</ele><time>2026-05-01T14:22:44.152Z</time></trkpt><trkpt lat="44.3581433" lon="8.3523817"><ele>470.0</ele><time>2026-05-01T14:22:45.153Z</time></trkpt><trkpt lat="44.3582" lon="8.3524617"><ele>470.0</ele><time>2026-05-01T14:22:46.15Z</time></trkpt><trkpt lat="44.3582767" lon="8.3525267"><ele>470.0</ele><time>2026-05-01T14:22:47.153Z</time></trkpt><trkpt lat="44.3583717" lon="8.3525667"><ele>470.0</ele><time>2026-05-01T14:22:48.154Z</time></trkpt><trkpt lat="44.3584967" lon="8.3525833"><ele>470.0</ele><time>2026-05-01T14:22:49.151Z</time></trkpt><trkpt lat="44.3586217" lon="8.35263"><ele>470.0</ele><time>2026-05-01T14:22:50.152Z</time></trkpt><trkpt lat="44.3587517" lon="8.3527017"><ele>471.75</ele><time>2026-05-01T14:22:51.154Z</time></trkpt><trkpt lat="44.3588817" lon="8.3527867"><ele>473.5</ele><time>2026-05-01T14:22:52.15Z</time></trkpt><trkpt lat="44.3590067" lon="8.35288"><ele>475.25</ele><time>2026-05-01T14:22:53.153Z</time></trkpt><trkpt lat="44.359115" lon="8.3529933"><ele>477.0</ele><time>2026-05-01T14:22:54.152Z</time></trkpt><trkpt lat="44.3592117" lon="8.3531133"><ele>477.0</ele><time>2026-05-01T14:22:55.151Z</time></trkpt><trkpt lat="44.3593033" lon="8.35323"><ele>477.0</ele><time>2026-05-01T14:22:56.154Z</time></trkpt><trkpt lat="44.3593933" lon="8.35334"><ele>477.0</ele><time>2026-05-01T14:22:57.156Z</time></trkpt><trkpt lat="44.3594967" lon="8.3534217"><ele>477.0</ele><time>2026-05-01T14:22:58.154Z</time></trkpt><trkpt lat="44.35961" lon="8.35348"><ele>483.25</ele><time>2026-05-01T14:22:59.156Z</time></trkpt><trkpt lat="44.3597367" lon="8.3535267"><ele>489.5</ele><time>2026-05-01T14:23:00.155Z</time></trkpt><trkpt lat="44.359875" lon="8.353585"><ele>495.75</ele><time>2026-05-01T14:23:01.156Z</time></trkpt><trkpt lat="44.360005" lon="8.3536683"><ele>502.0</ele><time>2026-05-01T14:23:02.154Z</time></trkpt><trkpt lat="44.3601233" lon="8.3537633"><ele>502.0</ele><time>2026-05-01T14:23:03.154Z</time></trkpt><trkpt lat="44.3602283" lon="8.35387"><ele>502.0</ele><time>2026-05-01T14:23:04.157Z</time></trkpt><trkpt lat="44.3603267" lon="8.353985"><ele>502.0</ele><time>2026-05-01T14:23:05.152Z</time></trkpt><trkpt lat="44.3604" lon="8.35413"><ele>502.0</ele><time>2026-05-01T14:23:06.151Z</time></trkpt><trkpt lat="44.360465" lon="8.354285"><ele>501.25</ele><time>2026-05-01T14:23:07.155Z</time></trkpt><trkpt lat="44.3605267" lon="8.3544467"><ele>500.5</ele><time>2026-05-01T14:23:08.153Z</time></trkpt><trkpt lat="44.3605767" lon="8.3546283"><ele>499.75</ele><time>2026-05-01T14:23:09.158Z</time></trkpt><trkpt lat="44.3606183" lon="8.3548233"><ele>499.0</ele><time>2026-05-01T14:23:10.153Z</time></trkpt><trkpt lat="44.3606817" lon="8.3550033"><ele>499.0</ele><time>2026-05-01T14:23:11.154Z</time></trkpt><trkpt lat="44.3607433" lon="8.3551917"><ele>499.0</ele><time>2026-05-01T14:23:12.158Z</time></trkpt><trkpt lat="44.3608083" lon="8.355385"><ele>499.0</ele><time>2026-05-01T14:23:13.155Z</time></trkpt><trkpt lat="44.3608817" lon="8.3555783"><ele>498.33333333333337</ele><time>2026-05-01T14:23:14.15Z</time></trkpt><trkpt lat="44.360965" lon="8.355775"><ele>497.66666666666663</ele><time>2026-05-01T14:23:15.152Z</time></trkpt><trkpt lat="44.3610717" lon="8.3559483"><ele>497.0</ele><time>2026-05-01T14:23:16.155Z</time></trkpt><trkpt lat="44.3611883" lon="8.35611"><ele>497.0</ele><time>2026-05-01T14:23:17.157Z</time></trkpt><trkpt lat="44.3613017" lon="8.35626"><ele>497.0</ele><time>2026-05-01T14:23:18.157Z</time></trkpt><trkpt lat="44.3613983" lon="8.3564017"><ele>497.0</ele><time>2026-05-01T14:23:19.157Z</time></trkpt><trkpt lat="44.3614683" lon="8.3565433"><ele>497.0</ele><time>2026-05-01T14:23:20.154Z</time></trkpt><trkpt lat="44.3615183" lon="8.3566967"><ele>500.5</ele><time>2026-05-01T14:23:21.149Z</time></trkpt><trkpt lat="44.3615517" lon="8.3568617"><ele>504.0</ele><time>2026-05-01T14:23:22.152Z</time></trkpt><trkpt lat="44.3615717" lon="8.357035"><ele>507.5</ele><time>2026-05-01T14:23:23.155Z</time></trkpt><trkpt lat="44.36158" lon="8.35723"><ele>511.0</ele><time>2026-05-01T14:23:24.152Z</time></trkpt><trkpt lat="44.361575" lon="8.35744"><ele>511.33333333333337</ele><time>2026-05-01T14:23:25.156Z</time></trkpt><trkpt lat="44.36157" lon="8.35767"><ele>511.66666666666663</ele><time>2026-05-01T14:23:26.152Z</time></trkpt><trkpt lat="44.361565" lon="8.3579183"><ele>512.0</ele><time>2026-05-01T14:23:27.154Z</time></trkpt><trkpt lat="44.3615567" lon="8.3581767"><ele>513.0</ele><time>2026-05-01T14:23:28.152Z</time></trkpt><trkpt lat="44.361545" lon="8.358435"><ele>514.0</ele><time>2026-05-01T14:23:29.152Z</time></trkpt><trkpt lat="44.3615383" lon="8.358695"><ele>515.0</ele><time>2026-05-01T14:23:30.153Z</time></trkpt><trkpt lat="44.3615317" lon="8.3589517"><ele>517.0</ele><time>2026-05-01T14:23:31.152Z</time></trkpt><trkpt lat="44.36153" lon="8.3592033"><ele>519.0</ele><time>2026-05-01T14:23:32.155Z</time></trkpt><trkpt lat="44.3615483" lon="8.359455"><ele>521.0</ele><time>2026-05-01T14:23:33.152Z</time></trkpt><trkpt lat="44.3615883" lon="8.3597133"><ele>523.3333333333333</ele><time>2026-05-01T14:23:34.153Z</time></trkpt><trkpt lat="44.3616483" lon="8.35998"><ele>525.6666666666666</ele><time>2026-05-01T14:23:35.159Z</time></trkpt><trkpt lat="44.361725" lon="8.3602467"><ele>528.0</ele><time>2026-05-01T14:23:36.155Z</time></trkpt><trkpt lat="44.3618083" lon="8.3605067"><ele>527.3333333333334</ele><time>2026-05-01T14:23:37.15Z</time></trkpt><trkpt lat="44.36189" lon="8.3607483"><ele>526.6666666666667</ele><time>2026-05-01T14:23:38.154Z</time></trkpt><trkpt lat="44.361965" lon="8.3609633"><ele>526.0</ele><time>2026-05-01T14:23:39.151Z</time></trkpt><trkpt lat="44.3620167" lon="8.3611617"><ele>526.0</ele><time>2026-05-01T14:23:40.153Z</time></trkpt><trkpt lat="44.36204" lon="8.361355"><ele>526.0</ele><time>2026-05-01T14:23:41.152Z</time></trkpt><trkpt lat="44.3620517" lon="8.3615317"><ele>526.0</ele><time>2026-05-01T14:23:42.157Z</time></trkpt><trkpt lat="44.36206" lon="8.3616967"><ele>526.0</ele><time>2026-05-01T14:23:43.152Z</time></trkpt><trkpt lat="44.3620833" lon="8.3618383"><ele>526.4</ele><time>2026-05-01T14:23:44.158Z</time></trkpt><trkpt lat="44.3621383" lon="8.3619383"><ele>526.8</ele><time>2026-05-01T14:23:45.159Z</time></trkpt><trkpt lat="44.36222" lon="8.3619883"><ele>527.1999999999999</ele><time>2026-05-01T14:23:46.153Z</time></trkpt><trkpt lat="44.3623233" lon="8.3620133"><ele>527.6</ele><time>2026-05-01T14:23:47.158Z</time></trkpt><trkpt lat="44.3624467" lon="8.3620267"><ele>528.0</ele><time>2026-05-01T14:23:48.158Z</time></trkpt><trkpt lat="44.362585" lon="8.36205"><ele>531.25</ele><time>2026-05-01T14:23:49.154Z</time></trkpt><trkpt lat="44.3627333" lon="8.362075"><ele>534.5</ele><time>2026-05-01T14:23:50.154Z</time></trkpt><trkpt lat="44.3628667" lon="8.3621317"><ele>537.75</ele><time>2026-05-01T14:23:51.151Z</time></trkpt><trkpt lat="44.3629867" lon="8.3622267"><ele>541.0</ele><time>2026-05-01T14:23:52.156Z</time></trkpt><trkpt lat="44.3631067" lon="8.36234"><ele>548.3333333333334</ele><time>2026-05-01T14:23:53.153Z</time></trkpt><trkpt lat="44.3632267" lon="8.3624833"><ele>555.6666666666666</ele><time>2026-05-01T14:23:54.157Z</time></trkpt><trkpt lat="44.3633383" lon="8.3626517"><ele>563.0</ele><time>2026-05-01T14:23:55.151Z</time></trkpt><trkpt lat="44.3634483" lon="8.3628333"><ele>563.0</ele><time>2026-05-01T14:23:56.153Z</time></trkpt><trkpt lat="44.3635567" lon="8.3630233"><ele>563.0</ele><time>2026-05-01T14:23:57.157Z</time></trkpt><trkpt lat="44.3636683" lon="8.3632217"><ele>563.0</ele><time>2026-05-01T14:23:58.152Z</time></trkpt><trkpt lat="44.3637817" lon="8.3634133"><ele>564.6666666666666</ele><time>2026-05-01T14:23:59.154Z</time></trkpt><trkpt lat="44.3638917" lon="8.3636033"><ele>566.3333333333334</ele><time>2026-05-01T14:24:00.15Z</time></trkpt><trkpt lat="44.364" lon="8.36379"><ele>568.0</ele><time>2026-05-01T14:24:01.152Z</time></trkpt><trkpt lat="44.3641067" lon="8.3639733"><ele>568.0</ele><time>2026-05-01T14:24:02.153Z</time></trkpt><trkpt lat="44.36421" lon="8.3641517"><ele>568.0</ele><time>2026-05-01T14:24:03.151Z</time></trkpt><trkpt lat="44.3643067" lon="8.3643367"><ele>568.0</ele><time>2026-05-01T14:24:04.154Z</time></trkpt><trkpt lat="44.364395" lon="8.36453"><ele>567.3333333333334</ele><time>2026-05-01T14:24:05.154Z</time></trkpt><trkpt lat="44.3644883" lon="8.36473"><ele>566.6666666666666</ele><time>2026-05-01T14:24:06.153Z</time></trkpt><trkpt lat="44.3645783" lon="8.364935"><ele>566.0</ele><time>2026-05-01T14:24:07.163Z</time></trkpt><trkpt lat="44.3646683" lon="8.3651317"><ele>567.3333333333333</ele><time>2026-05-01T14:24:08.156Z</time></trkpt><trkpt lat="44.3647483" lon="8.3653267"><ele>568.6666666666666</ele><time>2026-05-01T14:24:09.156Z</time></trkpt><trkpt lat="44.3648167" lon="8.3655183"><ele>570.0</ele><time>2026-05-01T14:24:10.151Z</time></trkpt><trkpt lat="44.36488" lon="8.3657017"><ele>570.75</ele><time>2026-05-01T14:24:11.156Z</time></trkpt><trkpt lat="44.364935" lon="8.3658833"><ele>571.5</ele><time>2026-05-01T14:24:12.155Z</time></trkpt><trkpt lat="44.3649917" lon="8.3660667"><ele>572.25</ele><time>2026-05-01T14:24:13.157Z</time></trkpt><trkpt lat="44.3650533" lon="8.3662367"><ele>573.0</ele><time>2026-05-01T14:24:14.152Z</time></trkpt><trkpt lat="44.3651467" lon="8.3663833"><ele>573.0</ele><time>2026-05-01T14:24:15.154Z</time></trkpt><trkpt lat="44.36526" lon="8.3665233"><ele>573.0</ele><time>2026-05-01T14:24:16.155Z</time></trkpt><trkpt lat="44.3653767" lon="8.36666"><ele>573.0</ele><time>2026-05-01T14:24:17.154Z</time></trkpt><trkpt lat="44.3655017" lon="8.36678"><ele>572.6666666666666</ele><time>2026-05-01T14:24:18.158Z</time></trkpt><trkpt lat="44.3656467" lon="8.36688"><ele>572.3333333333333</ele><time>2026-05-01T14:24:19.153Z</time></trkpt><trkpt lat="44.3658167" lon="8.3669633"><ele>572.0</ele><time>2026-05-01T14:24:20.155Z</time></trkpt><trkpt lat="44.3659983" lon="8.3670233"><ele>572.0</ele><time>2026-05-01T14:24:21.155Z</time></trkpt><trkpt lat="44.3661867" lon="8.367065"><ele>572.0</ele><time>2026-05-01T14:24:22.159Z</time></trkpt><trkpt lat="44.3663833" lon="8.3670983"><ele>572.0</ele><time>2026-05-01T14:24:23.155Z</time></trkpt><trkpt lat="44.3665717" lon="8.3671233"><ele>572.3333333333333</ele><time>2026-05-01T14:24:24.155Z</time></trkpt><trkpt lat="44.36678" lon="8.367145"><ele>572.6666666666666</ele><time>2026-05-01T14:24:25.156Z</time></trkpt><trkpt lat="44.36698" lon="8.3671667"><ele>573.0</ele><time>2026-05-01T14:24:26.152Z</time></trkpt><trkpt lat="44.3671717" lon="8.367195"><ele>576.0</ele><time>2026-05-01T14:24:27.157Z</time></trkpt><trkpt lat="44.367345" lon="8.3672083"><ele>579.0</ele><time>2026-05-01T14:24:28.152Z</time></trkpt><trkpt lat="44.3675117" lon="8.367235"><ele>582.0</ele><time>2026-05-01T14:24:29.157Z</time></trkpt><trkpt lat="44.36768" lon="8.3672683"><ele>582.0</ele><time>2026-05-01T14:24:30.161Z</time></trkpt><trkpt lat="44.3678667" lon="8.367325"><ele>582.0</ele><time>2026-05-01T14:24:31.15Z</time></trkpt><trkpt lat="44.3680117" lon="8.3673867"><ele>582.0</ele><time>2026-05-01T14:24:32.151Z</time></trkpt><trkpt lat="44.3681633" lon="8.367465"><ele>586.3333333333334</ele><time>2026-05-01T14:24:33.155Z</time></trkpt><trkpt lat="44.3683233" lon="8.3675517"><ele>590.6666666666667</ele><time>2026-05-01T14:24:34.151Z</time></trkpt><trkpt lat="44.368485" lon="8.367655"><ele>595.0</ele><time>2026-05-01T14:24:35.158Z</time></trkpt><trkpt lat="44.3686483" lon="8.3677483"><ele>595.0</ele><time>2026-05-01T14:24:36.153Z</time></trkpt><trkpt lat="44.3688033" lon="8.3678433"><ele>595.0</ele><time>2026-05-01T14:24:37.157Z</time></trkpt><trkpt lat="44.368945" lon="8.367965"><ele>595.0</ele><time>2026-05-01T14:24:38.15Z</time></trkpt><trkpt lat="44.36908" lon="8.3681"><ele>594.0</ele><time>2026-05-01T14:24:39.154Z</time></trkpt><trkpt lat="44.369215" lon="8.3682517"><ele>593.0</ele><time>2026-05-01T14:24:40.156Z</time></trkpt><trkpt lat="44.3693483" lon="8.3684117"><ele>592.0</ele><time>2026-05-01T14:24:41.153Z</time></trkpt><trkpt lat="44.3694967" lon="8.3685683"><ele>592.0</ele><time>2026-05-01T14:24:42.153Z</time></trkpt><trkpt lat="44.3696533" lon="8.36872"><ele>592.0</ele><time>2026-05-01T14:24:43.155Z</time></trkpt><trkpt lat="44.369825" lon="8.3688633"><ele>592.0</ele><time>2026-05-01T14:24:44.153Z</time></trkpt><trkpt lat="44.3699967" lon="8.369015"><ele>593.3333333333334</ele><time>2026-05-01T14:24:45.156Z</time></trkpt><trkpt lat="44.370165" lon="8.3691217"><ele>594.6666666666666</ele><time>2026-05-01T14:24:46.152Z</time></trkpt><trkpt lat="44.37033" lon="8.369205"><ele>596.0</ele><time>2026-05-01T14:24:47.151Z</time></trkpt><trkpt lat="44.3705017" lon="8.3692517"><ele>601.0</ele><time>2026-05-01T14:24:48.165Z</time></trkpt><trkpt lat="44.370665" lon="8.36929"><ele>606.0</ele><time>2026-05-01T14:24:49.155Z</time></trkpt><trkpt lat="44.3708083" lon="8.3693417"><ele>611.0</ele><time>2026-05-01T14:24:50.151Z</time></trkpt><trkpt lat="44.3709317" lon="8.3694233"><ele>611.0</ele><time>2026-05-01T14:24:51.159Z</time></trkpt><trkpt lat="44.3710467" lon="8.3695033"><ele>611.0</ele><time>2026-05-01T14:24:52.151Z</time></trkpt><trkpt lat="44.3711417" lon="8.3696117"><ele>611.0</ele><time>2026-05-01T14:24:53.157Z</time></trkpt><trkpt lat="44.3712183" lon="8.3697483"><ele>611.0</ele><time>2026-05-01T14:24:54.154Z</time></trkpt><trkpt lat="44.3712783" lon="8.369895"><ele>605.75</ele><time>2026-05-01T14:24:55.155Z</time></trkpt><trkpt lat="44.3713183" lon="8.3700633"><ele>600.5</ele><time>2026-05-01T14:24:56.153Z</time></trkpt><trkpt lat="44.3713367" lon="8.370245"><ele>595.25</ele><time>2026-05-01T14:24:57.153Z</time></trkpt><trkpt lat="44.3713283" lon="8.370425"><ele>590.0</ele><time>2026-05-01T14:24:58.151Z</time></trkpt><trkpt lat="44.3713117" lon="8.370595"><ele>590.0</ele><time>2026-05-01T14:24:59.156Z</time></trkpt><trkpt lat="44.3712917" lon="8.3707467"><ele>590.0</ele><time>2026-05-01T14:25:00.156Z</time></trkpt><trkpt lat="44.3712983" lon="8.3708567"><ele>590.0</ele><time>2026-05-01T14:25:01.161Z</time></trkpt><trkpt lat="44.371315" lon="8.3709683"><ele>590.0</ele><time>2026-05-01T14:25:02.159Z</time></trkpt><trkpt lat="44.371345" lon="8.3710767"><ele>590.0</ele><time>2026-05-01T14:25:03.159Z</time></trkpt><trkpt lat="44.37145" lon="8.371105"><ele>599.3333333333333</ele><time>2026-05-01T14:25:04.153Z</time></trkpt><trkpt lat="44.3715733" lon="8.37114"><ele>608.6666666666666</ele><time>2026-05-01T14:25:05.155Z</time></trkpt><trkpt lat="44.371725" lon="8.3711817"><ele>618.0</ele><time>2026-05-01T14:25:06.152Z</time></trkpt><trkpt lat="44.3718917" lon="8.37123"><ele>618.0</ele><time>2026-05-01T14:25:07.153Z</time></trkpt><trkpt lat="44.3720533" lon="8.371285"><ele>618.0</ele><time>2026-05-01T14:25:08.155Z</time></trkpt><trkpt lat="44.3722033" lon="8.3713567"><ele>618.0</ele><time>2026-05-01T14:25:09.155Z</time></trkpt><trkpt lat="44.3723533" lon="8.371415"><ele>616.3333333333334</ele><time>2026-05-01T14:25:10.156Z</time></trkpt><trkpt lat="44.3725067" lon="8.37147"><ele>614.6666666666667</ele><time>2026-05-01T14:25:11.151Z</time></trkpt><trkpt lat="44.3726733" lon="8.37151"><ele>613.0</ele><time>2026-05-01T14:25:12.152Z</time></trkpt><trkpt lat="44.3728267" lon="8.3715467"><ele>613.0</ele><time>2026-05-01T14:25:13.155Z</time></trkpt><trkpt lat="44.3729833" lon="8.37158"><ele>613.0</ele><time>2026-05-01T14:25:14.152Z</time></trkpt><trkpt lat="44.3731383" lon="8.3716283"><ele>613.0</ele><time>2026-05-01T14:25:15.152Z</time></trkpt><trkpt lat="44.37329" lon="8.3716917"><ele>613.0</ele><time>2026-05-01T14:25:16.154Z</time></trkpt><trkpt lat="44.37344" lon="8.3717683"><ele>613.0</ele><time>2026-05-01T14:25:17.163Z</time></trkpt><trkpt lat="44.3735783" lon="8.37187"><ele>613.0</ele><time>2026-05-01T14:25:18.154Z</time></trkpt><trkpt lat="44.3737167" lon="8.3719833"><ele>610.0</ele><time>2026-05-01T14:25:19.155Z</time></trkpt><trkpt lat="44.3738617" lon="8.3721133"><ele>607.0</ele><time>2026-05-01T14:25:20.152Z</time></trkpt><trkpt lat="44.3740283" lon="8.3722983"><ele>604.0</ele><time>2026-05-01T14:25:21.155Z</time></trkpt><trkpt lat="44.374205" lon="8.3724583"><ele>604.0</ele><time>2026-05-01T14:25:22.156Z</time></trkpt><trkpt lat="44.37439" lon="8.3726233"><ele>604.0</ele><time>2026-05-01T14:25:23.154Z</time></trkpt><trkpt lat="44.3745767" lon="8.372795"><ele>604.0</ele><time>2026-05-01T14:25:24.154Z</time></trkpt><trkpt lat="44.3747667" lon="8.3729517"><ele>605.0</ele><time>2026-05-01T14:25:25.152Z</time></trkpt><trkpt lat="44.3749433" lon="8.3731017"><ele>606.0</ele><time>2026-05-01T14:25:26.153Z</time></trkpt><trkpt lat="44.3750933" lon="8.3732567"><ele>607.0</ele><time>2026-05-01T14:25:27.156Z</time></trkpt><trkpt lat="44.375215" lon="8.373405"><ele>607.0</ele><time>2026-05-01T14:25:28.154Z</time></trkpt><trkpt lat="44.3753183" lon="8.3735583"><ele>607.0</ele><time>2026-05-01T14:25:29.158Z</time></trkpt><trkpt lat="44.3753983" lon="8.373715"><ele>607.0</ele><time>2026-05-01T14:25:30.152Z</time></trkpt><trkpt lat="44.375465" lon="8.37387"><ele>607.0</ele><time>2026-05-01T14:25:31.155Z</time></trkpt><trkpt lat="44.3755283" lon="8.3740167"><ele>611.25</ele><time>2026-05-01T14:25:32.154Z</time></trkpt><trkpt lat="44.3756017" lon="8.3741667"><ele>615.5</ele><time>2026-05-01T14:25:33.152Z</time></trkpt><trkpt lat="44.3757083" lon="8.3742683"><ele>619.75</ele><time>2026-05-01T14:25:34.154Z</time></trkpt><trkpt lat="44.375825" lon="8.3743533"><ele>624.0</ele><time>2026-05-01T14:25:35.158Z</time></trkpt><trkpt lat="44.3759567" lon="8.3744133"><ele>624.0</ele><time>2026-05-01T14:25:36.154Z</time></trkpt><trkpt lat="44.3761" lon="8.3744817"><ele>624.0</ele><time>2026-05-01T14:25:37.156Z</time></trkpt><trkpt lat="44.3762517" lon="8.3745633"><ele>624.0</ele><time>2026-05-01T14:25:38.155Z</time></trkpt><trkpt lat="44.3764017" lon="8.374665"><ele>624.3333333333334</ele><time>2026-05-01T14:25:39.153Z</time></trkpt><trkpt lat="44.3765433" lon="8.3747817"><ele>624.6666666666667</ele><time>2026-05-01T14:25:40.153Z</time></trkpt><trkpt lat="44.3766817" lon="8.3749167"><ele>625.0</ele><time>2026-05-01T14:25:41.153Z</time></trkpt><trkpt lat="44.3767883" lon="8.3750833"><ele>625.0</ele><time>2026-05-01T14:25:42.153Z</time></trkpt><trkpt lat="44.3768933" lon="8.3752633"><ele>625.0</ele><time>2026-05-01T14:25:43.152Z</time></trkpt><trkpt lat="44.3769833" lon="8.375475"><ele>625.0</ele><time>2026-05-01T14:25:44.153Z</time></trkpt><trkpt lat="44.3770867" lon="8.3756933"><ele>625.3333333333334</ele><time>2026-05-01T14:25:45.155Z</time></trkpt><trkpt lat="44.3771983" lon="8.375925"><ele>625.6666666666666</ele><time>2026-05-01T14:25:46.153Z</time></trkpt><trkpt lat="44.3773133" lon="8.3761617"><ele>626.0</ele><time>2026-05-01T14:25:47.156Z</time></trkpt><trkpt lat="44.37741" lon="8.3764117"><ele>627.0</ele><time>2026-05-01T14:25:48.155Z</time></trkpt><trkpt lat="44.3775017" lon="8.3766667"><ele>628.0</ele><time>2026-05-01T14:25:49.154Z</time></trkpt><trkpt lat="44.377595" lon="8.3769267"><ele>629.0</ele><time>2026-05-01T14:25:50.153Z</time></trkpt><trkpt lat="44.3776967" lon="8.3771833"><ele>628.6666666666666</ele><time>2026-05-01T14:25:51.152Z</time></trkpt><trkpt lat="44.3777833" lon="8.3774383"><ele>628.3333333333334</ele><time>2026-05-01T14:25:52.154Z</time></trkpt><trkpt lat="44.3778617" lon="8.3776783"><ele>628.0</ele><time>2026-05-01T14:25:53.15Z</time></trkpt><trkpt lat="44.37793" lon="8.3779083"><ele>627.25</ele><time>2026-05-01T14:25:54.151Z</time></trkpt><trkpt lat="44.377985" lon="8.378125"><ele>626.5</ele><time>2026-05-01T14:25:55.153Z</time></trkpt><trkpt lat="44.3780217" lon="8.3783233"><ele>625.75</ele><time>2026-05-01T14:25:56.161Z</time></trkpt><trkpt lat="44.3780567" lon="8.3785"><ele>625.0</ele><time>2026-05-01T14:25:57.153Z</time></trkpt><trkpt lat="44.3781033" lon="8.378645"><ele>627.5</ele><time>2026-05-01T14:25:58.158Z</time></trkpt><trkpt lat="44.3781817" lon="8.37875"><ele>630.0</ele><time>2026-05-01T14:25:59.154Z</time></trkpt><trkpt lat="44.378285" lon="8.3788433"><ele>632.5</ele><time>2026-05-01T14:26:00.154Z</time></trkpt><trkpt lat="44.378405" lon="8.3789167"><ele>635.0</ele><time>2026-05-01T14:26:01.155Z</time></trkpt><trkpt lat="44.378535" lon="8.37898"><ele>635.0</ele><time>2026-05-01T14:26:02.155Z</time></trkpt><trkpt lat="44.3786833" lon="8.3790367"><ele>635.0</ele><time>2026-05-01T14:26:03.153Z</time></trkpt><trkpt lat="44.37884" lon="8.3790933"><ele>635.0</ele><time>2026-05-01T14:26:04.156Z</time></trkpt><trkpt lat="44.378995" lon="8.3791583"><ele>638.3333333333333</ele><time>2026-05-01T14:26:05.152Z</time></trkpt><trkpt lat="44.3791383" lon="8.379215"><ele>641.6666666666666</ele><time>2026-05-01T14:26:06.154Z</time></trkpt><trkpt lat="44.3792933" lon="8.3792417"><ele>645.0</ele><time>2026-05-01T14:26:07.155Z</time></trkpt><trkpt lat="44.3794417" lon="8.3792733"><ele>645.0</ele><time>2026-05-01T14:26:08.156Z</time></trkpt><trkpt lat="44.3795783" lon="8.3792683"><ele>645.0</ele><time>2026-05-01T14:26:09.152Z</time></trkpt><trkpt lat="44.3797033" lon="8.37923"><ele>645.0</ele><time>2026-05-01T14:26:10.151Z</time></trkpt><trkpt lat="44.3798" lon="8.3791467"><ele>645.0</ele><time>2026-05-01T14:26:11.151Z</time></trkpt><trkpt lat="44.37989" lon="8.3790367"><ele>645.75</ele><time>2026-05-01T14:26:12.156Z</time></trkpt><trkpt lat="44.3799433" lon="8.3788817"><ele>646.5</ele><time>2026-05-01T14:26:13.152Z</time></trkpt><trkpt lat="44.3799733" lon="8.3787117"><ele>647.25</ele><time>2026-05-01T14:26:14.154Z</time></trkpt><trkpt lat="44.3799917" lon="8.37854"><ele>648.0</ele><time>2026-05-01T14:26:15.154Z</time></trkpt><trkpt lat="44.3799883" lon="8.378375"><ele>648.0</ele><time>2026-05-01T14:26:16.153Z</time></trkpt><trkpt lat="44.38" lon="8.3782333"><ele>648.0</ele><time>2026-05-01T14:26:17.154Z</time></trkpt><trkpt lat="44.3800417" lon="8.3781483"><ele>648.0</ele><time>2026-05-01T14:26:18.155Z</time></trkpt><trkpt lat="44.3800917" lon="8.378085"><ele>648.0</ele><time>2026-05-01T14:26:19.154Z</time></trkpt><trkpt lat="44.3801917" lon="8.37806"><ele>648.0</ele><time>2026-05-01T14:26:21.154Z</time></trkpt><trkpt lat="44.3803367" lon="8.3783733"><ele>648.0</ele><time>2026-05-01T14:26:23.157Z</time></trkpt><trkpt lat="44.3804317" lon="8.378505"><ele>648.0</ele><time>2026-05-01T14:26:24.156Z</time></trkpt><trkpt lat="44.38055" lon="8.3786417"><ele>648.0</ele><time>2026-05-01T14:26:25.152Z</time></trkpt><trkpt lat="44.3806817" lon="8.3787583"><ele>648.0</ele><time>2026-05-01T14:26:26.155Z</time></trkpt><trkpt lat="44.3808133" lon="8.3788817"><ele>653.25</ele><time>2026-05-01T14:26:27.152Z</time></trkpt><trkpt lat="44.38094" lon="8.37898"><ele>658.5</ele><time>2026-05-01T14:26:28.152Z</time></trkpt><trkpt lat="44.38106" lon="8.3790917"><ele>663.75</ele><time>2026-05-01T14:26:29.153Z</time></trkpt><trkpt lat="44.3811683" lon="8.379215"><ele>669.0</ele><time>2026-05-01T14:26:30.159Z</time></trkpt><trkpt lat="44.381265" lon="8.3793517"><ele>669.0</ele><time>2026-05-01T14:26:31.151Z</time></trkpt><trkpt lat="44.3813633" lon="8.379485"><ele>669.0</ele><time>2026-05-01T14:26:32.155Z</time></trkpt><trkpt lat="44.3814717" lon="8.3796133"><ele>669.0</ele><time>2026-05-01T14:26:33.157Z</time></trkpt><trkpt lat="44.38159" lon="8.37972"><ele>669.0</ele><time>2026-05-01T14:26:34.153Z</time></trkpt><trkpt lat="44.381695" lon="8.379805"><ele>669.0</ele><time>2026-05-01T14:26:35.153Z</time></trkpt><trkpt lat="44.3817717" lon="8.3799"><ele>669.0</ele><time>2026-05-01T14:26:36.153Z</time></trkpt><trkpt lat="44.3818417" lon="8.3800067"><ele>669.0</ele><time>2026-05-01T14:26:37.156Z</time></trkpt><trkpt lat="44.3818667" lon="8.38017"><ele>669.0</ele><time>2026-05-01T14:26:38.155Z</time></trkpt><trkpt lat="44.381895" lon="8.38032"><ele>669.0</ele><time>2026-05-01T14:26:39.154Z</time></trkpt><trkpt lat="44.38191" lon="8.3805217"><ele>673.0</ele><time>2026-05-01T14:26:40.151Z</time></trkpt><trkpt lat="44.38193" lon="8.380735"><ele>677.0</ele><time>2026-05-01T14:26:41.155Z</time></trkpt><trkpt lat="44.38199" lon="8.3809283"><ele>681.0</ele><time>2026-05-01T14:26:42.151Z</time></trkpt><trkpt lat="44.3820783" lon="8.3811067"><ele>681.0</ele><time>2026-05-01T14:26:43.152Z</time></trkpt><trkpt lat="44.3821767" lon="8.38127"><ele>681.0</ele><time>2026-05-01T14:26:44.153Z</time></trkpt><trkpt lat="44.3822867" lon="8.3814083"><ele>681.0</ele><time>2026-05-01T14:26:45.151Z</time></trkpt><trkpt lat="44.3823867" lon="8.381545"><ele>681.0</ele><time>2026-05-01T14:26:46.155Z</time></trkpt><trkpt lat="44.38247" lon="8.381695"><ele>679.75</ele><time>2026-05-01T14:26:47.152Z</time></trkpt><trkpt lat="44.3825683" lon="8.3818333"><ele>678.5</ele><time>2026-05-01T14:26:48.156Z</time></trkpt><trkpt lat="44.382665" lon="8.3819633"><ele>677.25</ele><time>2026-05-01T14:26:49.155Z</time></trkpt><trkpt lat="44.3827617" lon="8.38209"><ele>676.0</ele><time>2026-05-01T14:26:50.153Z</time></trkpt><trkpt lat="44.3828567" lon="8.382215"><ele>675.5</ele><time>2026-05-01T14:26:51.151Z</time></trkpt><trkpt lat="44.382945" lon="8.38234"><ele>675.0</ele><time>2026-05-01T14:26:52.156Z</time></trkpt><trkpt lat="44.3830333" lon="8.3824717"><ele>674.5</ele><time>2026-05-01T14:26:53.151Z</time></trkpt><trkpt lat="44.3831233" lon="8.3826167"><ele>674.0</ele><time>2026-05-01T14:26:54.156Z</time></trkpt><trkpt lat="44.38322" lon="8.3827433"><ele>674.0</ele><time>2026-05-01T14:26:55.152Z</time></trkpt><trkpt lat="44.38331" lon="8.382895"><ele>674.0</ele><time>2026-05-01T14:26:56.151Z</time></trkpt><trkpt lat="44.38342" lon="8.3830483"><ele>674.0</ele><time>2026-05-01T14:26:57.156Z</time></trkpt><trkpt lat="44.3835367" lon="8.38321"><ele>674.3333333333333</ele><time>2026-05-01T14:26:58.152Z</time></trkpt><trkpt lat="44.3836517" lon="8.3833867"><ele>674.6666666666666</ele><time>2026-05-01T14:26:59.155Z</time></trkpt><trkpt lat="44.383775" lon="8.383545"><ele>675.0</ele><time>2026-05-01T14:27:00.153Z</time></trkpt><trkpt lat="44.3838967" lon="8.38368"><ele>675.0</ele><time>2026-05-01T14:27:01.158Z</time></trkpt><trkpt lat="44.3839983" lon="8.3838"><ele>675.0</ele><time>2026-05-01T14:27:02.152Z</time></trkpt><trkpt lat="44.3841033" lon="8.383895"><ele>675.0</ele><time>2026-05-01T14:27:03.15Z</time></trkpt><trkpt lat="44.3842133" lon="8.383965"><ele>675.0</ele><time>2026-05-01T14:27:04.155Z</time></trkpt><trkpt lat="44.3843083" lon="8.384045"><ele>677.6666666666666</ele><time>2026-05-01T14:27:05.151Z</time></trkpt><trkpt lat="44.3843983" lon="8.3841133"><ele>680.3333333333334</ele><time>2026-05-01T14:27:06.151Z</time></trkpt><trkpt lat="44.3844633" lon="8.3841783"><ele>683.0</ele><time>2026-05-01T14:27:07.152Z</time></trkpt><trkpt lat="44.384525" lon="8.384235"><ele>685.6666666666667</ele><time>2026-05-01T14:27:08.152Z</time></trkpt><trkpt lat="44.3845617" lon="8.3843067"><ele>688.3333333333334</ele><time>2026-05-01T14:27:09.151Z</time></trkpt><trkpt lat="44.3845717" lon="8.3844833"><ele>691.0</ele><time>2026-05-01T14:27:11.155Z</time></trkpt><trkpt lat="44.3845367" lon="8.3845733"><ele>691.0</ele><time>2026-05-01T14:27:12.153Z</time></trkpt><trkpt lat="44.3844867" lon="8.3846517"><ele>691.0</ele><time>2026-05-01T14:27:13.151Z</time></trkpt><trkpt lat="44.384375" lon="8.3847567"><ele>691.0</ele><time>2026-05-01T14:27:15.155Z</time></trkpt><trkpt lat="44.3842767" lon="8.38479"><ele>691.0</ele><time>2026-05-01T14:27:16.157Z</time></trkpt><trkpt lat="44.3841233" lon="8.3847783"><ele>693.0</ele><time>2026-05-01T14:27:17.16Z</time></trkpt><trkpt lat="44.3839367" lon="8.3847433"><ele>695.0</ele><time>2026-05-01T14:27:18.154Z</time></trkpt><trkpt lat="44.38379" lon="8.384725"><ele>697.0</ele><time>2026-05-01T14:27:19.154Z</time></trkpt><trkpt lat="44.3836867" lon="8.3847467"><ele>699.0</ele><time>2026-05-01T14:27:20.153Z</time></trkpt><trkpt lat="44.3836067" lon="8.3847917"><ele>699.0</ele><time>2026-05-01T14:27:21.151Z</time></trkpt><trkpt lat="44.3835233" lon="8.3848617"><ele>699.0</ele><time>2026-05-01T14:27:22.161Z</time></trkpt><trkpt lat="44.3834783" lon="8.38497"><ele>699.0</ele><time>2026-05-01T14:27:23.155Z</time></trkpt><trkpt lat="44.38345" lon="8.3850933"><ele>699.0</ele><time>2026-05-01T14:27:24.156Z</time></trkpt><trkpt lat="44.3834633" lon="8.38525"><ele>699.0</ele><time>2026-05-01T14:27:25.149Z</time></trkpt><trkpt lat="44.3834833" lon="8.3854083"><ele>697.25</ele><time>2026-05-01T14:27:26.155Z</time></trkpt><trkpt lat="44.3835217" lon="8.3855667"><ele>695.5</ele><time>2026-05-01T14:27:27.158Z</time></trkpt><trkpt lat="44.3835933" lon="8.3857183"><ele>693.75</ele><time>2026-05-01T14:27:28.154Z</time></trkpt><trkpt lat="44.3836733" lon="8.3858733"><ele>692.0</ele><time>2026-05-01T14:27:29.155Z</time></trkpt><trkpt lat="44.3837567" lon="8.386045"><ele>692.0</ele><time>2026-05-01T14:27:30.153Z</time></trkpt><trkpt lat="44.3838283" lon="8.3862283"><ele>692.0</ele><time>2026-05-01T14:27:31.152Z</time></trkpt><trkpt lat="44.38388" lon="8.3864183"><ele>692.0</ele><time>2026-05-01T14:27:32.15Z</time></trkpt><trkpt lat="44.3839217" lon="8.3865983"><ele>692.0</ele><time>2026-05-01T14:27:33.162Z</time></trkpt><trkpt lat="44.3839633" lon="8.386765"><ele>694.75</ele><time>2026-05-01T14:27:34.15Z</time></trkpt><trkpt lat="44.3840133" lon="8.38693"><ele>697.5</ele><time>2026-05-01T14:27:35.154Z</time></trkpt><trkpt lat="44.3840833" lon="8.3870767"><ele>700.25</ele><time>2026-05-01T14:27:36.152Z</time></trkpt><trkpt lat="44.3841817" lon="8.3872033"><ele>703.0</ele><time>2026-05-01T14:27:37.156Z</time></trkpt><trkpt lat="44.3843" lon="8.3873283"><ele>703.0</ele><time>2026-05-01T14:27:38.154Z</time></trkpt><trkpt lat="44.3844283" lon="8.3874517"><ele>703.0</ele><time>2026-05-01T14:27:39.156Z</time></trkpt><trkpt lat="44.3845483" lon="8.3875867"><ele>703.0</ele><time>2026-05-01T14:27:40.151Z</time></trkpt><trkpt lat="44.384665" lon="8.3877367"><ele>705.6666666666667</ele><time>2026-05-01T14:27:41.151Z</time></trkpt><trkpt lat="44.3847833" lon="8.3878967"><ele>708.3333333333334</ele><time>2026-05-01T14:27:42.152Z</time></trkpt><trkpt lat="44.3848967" lon="8.38807"><ele>711.0</ele><time>2026-05-01T14:27:43.152Z</time></trkpt><trkpt lat="44.385005" lon="8.3882467"><ele>711.0</ele><time>2026-05-01T14:27:44.153Z</time></trkpt><trkpt lat="44.3851083" lon="8.3884183"><ele>711.0</ele><time>2026-05-01T14:27:45.152Z</time></trkpt><trkpt lat="44.3852033" lon="8.3885933"><ele>711.0</ele><time>2026-05-01T14:27:46.152Z</time></trkpt><trkpt lat="44.3852983" lon="8.3887733"><ele>706.3333333333334</ele><time>2026-05-01T14:27:47.156Z</time></trkpt><trkpt lat="44.3853967" lon="8.3889567"><ele>701.6666666666667</ele><time>2026-05-01T14:27:48.15Z</time></trkpt><trkpt lat="44.385475" lon="8.389155"><ele>697.0</ele><time>2026-05-01T14:27:49.149Z</time></trkpt><trkpt lat="44.3855467" lon="8.3893583"><ele>702.0</ele><time>2026-05-01T14:27:50.152Z</time></trkpt><trkpt lat="44.3856033" lon="8.3895533"><ele>707.0</ele><time>2026-05-01T14:27:51.155Z</time></trkpt><trkpt lat="44.3856417" lon="8.3897367"><ele>712.0</ele><time>2026-05-01T14:27:52.152Z</time></trkpt><trkpt lat="44.38565" lon="8.38993"><ele>717.0</ele><time>2026-05-01T14:27:53.152Z</time></trkpt><trkpt lat="44.3856433" lon="8.3901167"><ele>717.0</ele><time>2026-05-01T14:27:54.154Z</time></trkpt><trkpt lat="44.3856283" lon="8.39031"><ele>717.0</ele><time>2026-05-01T14:27:55.156Z</time></trkpt><trkpt lat="44.3856033" lon="8.3905117"><ele>717.0</ele><time>2026-05-01T14:27:56.154Z</time></trkpt><trkpt lat="44.3855733" lon="8.39072"><ele>717.0</ele><time>2026-05-01T14:27:57.154Z</time></trkpt><trkpt lat="44.3855183" lon="8.3909517"><ele>709.3333333333334</ele><time>2026-05-01T14:27:58.152Z</time></trkpt><trkpt lat="44.3854833" lon="8.3911567"><ele>701.6666666666667</ele><time>2026-05-01T14:27:59.153Z</time></trkpt><trkpt lat="44.3854483" lon="8.3913717"><ele>694.0</ele><time>2026-05-01T14:28:00.154Z</time></trkpt><trkpt lat="44.38542" lon="8.3915867"><ele>694.0</ele><time>2026-05-01T14:28:01.156Z</time></trkpt><trkpt lat="44.3854117" lon="8.3917883"><ele>694.0</ele><time>2026-05-01T14:28:02.158Z</time></trkpt><trkpt lat="44.385425" lon="8.3919617"><ele>694.0</ele><time>2026-05-01T14:28:03.151Z</time></trkpt><trkpt lat="44.3854633" lon="8.392125"><ele>694.0</ele><time>2026-05-01T14:28:04.153Z</time></trkpt><trkpt lat="44.3855217" lon="8.3922717"><ele>699.5</ele><time>2026-05-01T14:28:05.152Z</time></trkpt><trkpt lat="44.3855783" lon="8.39243"><ele>705.0</ele><time>2026-05-01T14:28:06.155Z</time></trkpt><trkpt lat="44.3856133" lon="8.3926"><ele>710.5</ele><time>2026-05-01T14:28:07.154Z</time></trkpt><trkpt lat="44.38562" lon="8.3927717"><ele>716.0</ele><time>2026-05-01T14:28:08.149Z</time></trkpt><trkpt lat="44.3856133" lon="8.392935"><ele>717.25</ele><time>2026-05-01T14:28:09.156Z</time></trkpt><trkpt lat="44.3855833" lon="8.3931"><ele>718.5</ele><time>2026-05-01T14:28:10.153Z</time></trkpt><trkpt lat="44.3855267" lon="8.3932533"><ele>719.75</ele><time>2026-05-01T14:28:11.15Z</time></trkpt><trkpt lat="44.3854567" lon="8.393395"><ele>721.0</ele><time>2026-05-01T14:28:12.155Z</time></trkpt><trkpt lat="44.3853783" lon="8.3935217"><ele>718.75</ele><time>2026-05-01T14:28:13.153Z</time></trkpt><trkpt lat="44.3852983" lon="8.393655"><ele>716.5</ele><time>2026-05-01T14:28:14.151Z</time></trkpt><trkpt lat="44.3852433" lon="8.39381"><ele>714.25</ele><time>2026-05-01T14:28:15.151Z</time></trkpt><trkpt lat="44.3852" lon="8.39398"><ele>712.0</ele><time>2026-05-01T14:28:16.152Z</time></trkpt><trkpt lat="44.3851517" lon="8.3941533"><ele>712.0</ele><time>2026-05-01T14:28:17.154Z</time></trkpt><trkpt lat="44.3850883" lon="8.3943283"><ele>712.0</ele><time>2026-05-01T14:28:18.153Z</time></trkpt><trkpt lat="44.38501" lon="8.394505"><ele>712.0</ele><time>2026-05-01T14:28:19.152Z</time></trkpt><trkpt lat="44.3849167" lon="8.39468"><ele>712.0</ele><time>2026-05-01T14:28:20.154Z</time></trkpt><trkpt lat="44.384835" lon="8.394865"><ele>709.6666666666667</ele><time>2026-05-01T14:28:21.158Z</time></trkpt><trkpt lat="44.3847417" lon="8.3950483"><ele>707.3333333333334</ele><time>2026-05-01T14:28:22.155Z</time></trkpt><trkpt lat="44.3846417" lon="8.3952317"><ele>705.0</ele><time>2026-05-01T14:28:23.155Z</time></trkpt><trkpt lat="44.38454" lon="8.3954067"><ele>702.3333333333334</ele><time>2026-05-01T14:28:24.158Z</time></trkpt><trkpt lat="44.3844283" lon="8.3955883"><ele>699.6666666666667</ele><time>2026-05-01T14:28:25.155Z</time></trkpt><trkpt lat="44.38433" lon="8.3957783"><ele>697.0</ele><time>2026-05-01T14:28:26.151Z</time></trkpt><trkpt lat="44.3842467" lon="8.3959717"><ele>697.0</ele><time>2026-05-01T14:28:27.156Z</time></trkpt><trkpt lat="44.3841733" lon="8.3961683"><ele>697.0</ele><time>2026-05-01T14:28:28.154Z</time></trkpt><trkpt lat="44.3840983" lon="8.39636"><ele>697.0</ele><time>2026-05-01T14:28:29.152Z</time></trkpt><trkpt lat="44.3840533" lon="8.3965367"><ele>697.0</ele><time>2026-05-01T14:28:30.149Z</time></trkpt><trkpt lat="44.38402" lon="8.3967167"><ele>697.5</ele><time>2026-05-01T14:28:31.155Z</time></trkpt><trkpt lat="44.3840167" lon="8.3968817"><ele>698.0</ele><time>2026-05-01T14:28:32.153Z</time></trkpt><trkpt lat="44.3840283" lon="8.3970467"><ele>698.5</ele><time>2026-05-01T14:28:33.157Z</time></trkpt><trkpt lat="44.3840833" lon="8.3971833"><ele>699.0</ele><time>2026-05-01T14:28:34.148Z</time></trkpt><trkpt lat="44.38416" lon="8.397305"><ele>699.0</ele><time>2026-05-01T14:28:35.151Z</time></trkpt><trkpt lat="44.3842583" lon="8.3974233"><ele>699.0</ele><time>2026-05-01T14:28:36.151Z</time></trkpt><trkpt lat="44.384365" lon="8.3975383"><ele>699.0</ele><time>2026-05-01T14:28:37.153Z</time></trkpt><trkpt lat="44.38447" lon="8.39768"><ele>699.0</ele><time>2026-05-01T14:28:38.152Z</time></trkpt><trkpt lat="44.38457" lon="8.3978317"><ele>699.0</ele><time>2026-05-01T14:28:39.154Z</time></trkpt><trkpt lat="44.3846567" lon="8.398"><ele>699.0</ele><time>2026-05-01T14:28:40.152Z</time></trkpt><trkpt lat="44.38474" lon="8.3981783"><ele>699.0</ele><time>2026-05-01T14:28:41.155Z</time></trkpt><trkpt lat="44.3848283" lon="8.39836"><ele>695.6666666666666</ele><time>2026-05-01T14:28:42.154Z</time></trkpt><trkpt lat="44.3849283" lon="8.3985317"><ele>692.3333333333333</ele><time>2026-05-01T14:28:43.154Z</time></trkpt><trkpt lat="44.3850183" lon="8.3987067"><ele>689.0</ele><time>2026-05-01T14:28:44.158Z</time></trkpt><trkpt lat="44.3850983" lon="8.3988817"><ele>689.0</ele><time>2026-05-01T14:28:45.153Z</time></trkpt><trkpt lat="44.3851633" lon="8.399055"><ele>689.0</ele><time>2026-05-01T14:28:46.158Z</time></trkpt><trkpt lat="44.3852067" lon="8.399235"><ele>689.0</ele><time>2026-05-01T14:28:47.156Z</time></trkpt><trkpt lat="44.38524" lon="8.3994117"><ele>689.0</ele><time>2026-05-01T14:28:48.156Z</time></trkpt><trkpt lat="44.3852617" lon="8.39959"><ele>688.0</ele><time>2026-05-01T14:28:49.161Z</time></trkpt><trkpt lat="44.385275" lon="8.3997517"><ele>687.0</ele><time>2026-05-01T14:28:50.161Z</time></trkpt><trkpt lat="44.38531" lon="8.3998867"><ele>686.0</ele><time>2026-05-01T14:28:51.161Z</time></trkpt><trkpt lat="44.3853667" lon="8.3999817"><ele>685.0</ele><time>2026-05-01T14:28:52.156Z</time></trkpt><trkpt lat="44.38546" lon="8.40004"><ele>684.0</ele><time>2026-05-01T14:28:53.158Z</time></trkpt><trkpt lat="44.3855683" lon="8.400065"><ele>680.75</ele><time>2026-05-01T14:28:54.155Z</time></trkpt><trkpt lat="44.38569" lon="8.4000617"><ele>677.5</ele><time>2026-05-01T14:28:55.151Z</time></trkpt><trkpt lat="44.3858167" lon="8.400055"><ele>674.25</ele><time>2026-05-01T14:28:56.156Z</time></trkpt><trkpt lat="44.385945" lon="8.4000467"><ele>671.0</ele><time>2026-05-01T14:28:57.152Z</time></trkpt><trkpt lat="44.3860717" lon="8.400055"><ele>671.0</ele><time>2026-05-01T14:28:58.155Z</time></trkpt><trkpt lat="44.3862033" lon="8.4000817"><ele>671.0</ele><time>2026-05-01T14:28:59.152Z</time></trkpt><trkpt lat="44.3863367" lon="8.4001217"><ele>671.0</ele><time>2026-05-01T14:29:00.153Z</time></trkpt><trkpt lat="44.38648" lon="8.4001533"><ele>671.0</ele><time>2026-05-01T14:29:01.153Z</time></trkpt><trkpt lat="44.386615" lon="8.400215"><ele>670.0</ele><time>2026-05-01T14:29:02.16Z</time></trkpt><trkpt lat="44.3867517" lon="8.4002833"><ele>669.0</ele><time>2026-05-01T14:29:03.154Z</time></trkpt><trkpt lat="44.3868883" lon="8.400355"><ele>668.0</ele><time>2026-05-01T14:29:04.154Z</time></trkpt><trkpt lat="44.3870283" lon="8.4004217"><ele>667.0</ele><time>2026-05-01T14:29:05.153Z</time></trkpt><trkpt lat="44.3871717" lon="8.40048"><ele>666.0</ele><time>2026-05-01T14:29:06.151Z</time></trkpt><trkpt lat="44.3873083" lon="8.4005217"><ele>665.0</ele><time>2026-05-01T14:29:07.163Z</time></trkpt><trkpt lat="44.3874383" lon="8.4005367"><ele>664.0</ele><time>2026-05-01T14:29:08.153Z</time></trkpt><trkpt lat="44.3875533" lon="8.4005383"><ele>663.0</ele><time>2026-05-01T14:29:09.156Z</time></trkpt><trkpt lat="44.3876533" lon="8.40052"><ele>663.0</ele><time>2026-05-01T14:29:10.154Z</time></trkpt><trkpt lat="44.3877567" lon="8.400505"><ele>663.0</ele><time>2026-05-01T14:29:11.154Z</time></trkpt><trkpt lat="44.3878583" lon="8.4004983"><ele>663.0</ele><time>2026-05-01T14:29:12.155Z</time></trkpt><trkpt lat="44.3879467" lon="8.4005183"><ele>663.0</ele><time>2026-05-01T14:29:13.153Z</time></trkpt><trkpt lat="44.3880367" lon="8.400545"><ele>663.0</ele><time>2026-05-01T14:29:14.156Z</time></trkpt><trkpt lat="44.3881233" lon="8.4006"><ele>662.0</ele><time>2026-05-01T14:29:15.152Z</time></trkpt><trkpt lat="44.3881967" lon="8.4006767"><ele>661.0</ele><time>2026-05-01T14:29:16.157Z</time></trkpt><trkpt lat="44.3882683" lon="8.4007717"><ele>660.0</ele><time>2026-05-01T14:29:17.154Z</time></trkpt><trkpt lat="44.388345" lon="8.4008767"><ele>659.0</ele><time>2026-05-01T14:29:18.153Z</time></trkpt><trkpt lat="44.3884033" lon="8.4010217"><ele>658.0</ele><time>2026-05-01T14:29:19.154Z</time></trkpt><trkpt lat="44.38847" lon="8.4011617"><ele>658.0</ele><time>2026-05-01T14:29:20.153Z</time></trkpt><trkpt lat="44.38855" lon="8.4012967"><ele>658.0</ele><time>2026-05-01T14:29:21.15Z</time></trkpt><trkpt lat="44.3886433" lon="8.4014267"><ele>658.0</ele><time>2026-05-01T14:29:22.153Z</time></trkpt><trkpt lat="44.3887467" lon="8.40155"><ele>658.0</ele><time>2026-05-01T14:29:23.151Z</time></trkpt><trkpt lat="44.3888533" lon="8.4016667"><ele>658.5</ele><time>2026-05-01T14:29:24.152Z</time></trkpt><trkpt lat="44.388965" lon="8.4017767"><ele>659.0</ele><time>2026-05-01T14:29:25.154Z</time></trkpt><trkpt lat="44.389075" lon="8.4018867"><ele>659.5</ele><time>2026-05-01T14:29:26.156Z</time></trkpt><trkpt lat="44.3891867" lon="8.4019983"><ele>660.0</ele><time>2026-05-01T14:29:27.158Z</time></trkpt><trkpt lat="44.3892983" lon="8.4021133"><ele>660.5</ele><time>2026-05-01T14:29:28.153Z</time></trkpt><trkpt lat="44.3894017" lon="8.402245"><ele>661.0</ele><time>2026-05-01T14:29:29.157Z</time></trkpt><trkpt lat="44.3895167" lon="8.4023633"><ele>661.5</ele><time>2026-05-01T14:29:30.153Z</time></trkpt><trkpt lat="44.38963" lon="8.4024783"><ele>662.0</ele><time>2026-05-01T14:29:31.153Z</time></trkpt><trkpt lat="44.38974" lon="8.4025917"><ele>660.75</ele><time>2026-05-01T14:29:32.153Z</time></trkpt><trkpt lat="44.3898333" lon="8.4027133"><ele>659.5</ele><time>2026-05-01T14:29:33.155Z</time></trkpt><trkpt lat="44.3899167" lon="8.40282"><ele>658.25</ele><time>2026-05-01T14:29:34.154Z</time></trkpt><trkpt lat="44.39" lon="8.402915"><ele>657.0</ele><time>2026-05-01T14:29:35.154Z</time></trkpt><trkpt lat="44.3900917" lon="8.40299"><ele>657.8</ele><time>2026-05-01T14:29:36.157Z</time></trkpt><trkpt lat="44.39018" lon="8.40306"><ele>658.6</ele><time>2026-05-01T14:29:37.155Z</time></trkpt><trkpt lat="44.3902733" lon="8.4031317"><ele>659.4</ele><time>2026-05-01T14:29:38.158Z</time></trkpt><trkpt lat="44.39037" lon="8.4032017"><ele>660.1999999999999</ele><time>2026-05-01T14:29:39.154Z</time></trkpt><trkpt lat="44.3904683" lon="8.4032717"><ele>661.0</ele><time>2026-05-01T14:29:40.157Z</time></trkpt><trkpt lat="44.390575" lon="8.403345"><ele>658.5</ele><time>2026-05-01T14:29:41.156Z</time></trkpt><trkpt lat="44.39068" lon="8.4034217"><ele>656.0</ele><time>2026-05-01T14:29:42.152Z</time></trkpt><trkpt lat="44.3907817" lon="8.4034967"><ele>653.5</ele><time>2026-05-01T14:29:43.154Z</time></trkpt><trkpt lat="44.39088" lon="8.403575"><ele>651.0</ele><time>2026-05-01T14:29:44.152Z</time></trkpt><trkpt lat="44.3909733" lon="8.4036483"><ele>651.0</ele><time>2026-05-01T14:29:45.154Z</time></trkpt><trkpt lat="44.3910667" lon="8.4037233"><ele>651.0</ele><time>2026-05-01T14:29:46.154Z</time></trkpt><trkpt lat="44.391155" lon="8.403795"><ele>651.0</ele><time>2026-05-01T14:29:47.151Z</time></trkpt><trkpt lat="44.391235" lon="8.403885"><ele>651.0</ele><time>2026-05-01T14:29:48.156Z</time></trkpt><trkpt lat="44.3913217" lon="8.4039817"><ele>651.0</ele><time>2026-05-01T14:29:49.159Z</time></trkpt><trkpt lat="44.3914067" lon="8.40407"><ele>651.25</ele><time>2026-05-01T14:29:50.156Z</time></trkpt><trkpt lat="44.39149" lon="8.4041683"><ele>651.5</ele><time>2026-05-01T14:29:51.153Z</time></trkpt><trkpt lat="44.39158" lon="8.4042667"><ele>651.75</ele><time>2026-05-01T14:29:52.156Z</time></trkpt><trkpt lat="44.3916617" lon="8.4043783"><ele>652.0</ele><time>2026-05-01T14:29:53.156Z</time></trkpt><trkpt lat="44.3917367" lon="8.4045"><ele>652.0</ele><time>2026-05-01T14:29:54.154Z</time></trkpt><trkpt lat="44.3918083" lon="8.404625"><ele>652.0</ele><time>2026-05-01T14:29:55.155Z</time></trkpt><trkpt lat="44.391875" lon="8.40476"><ele>652.0</ele><time>2026-05-01T14:29:56.152Z</time></trkpt><trkpt lat="44.39193" lon="8.40492"><ele>652.0</ele><time>2026-05-01T14:29:57.155Z</time></trkpt><trkpt lat="44.392005" lon="8.4050633"><ele>652.75</ele><time>2026-05-01T14:29:58.15Z</time></trkpt><trkpt lat="44.392085" lon="8.4052067"><ele>653.5</ele><time>2026-05-01T14:29:59.154Z</time></trkpt><trkpt lat="44.3921767" lon="8.4053433"><ele>654.25</ele><time>2026-05-01T14:30:00.159Z</time></trkpt><trkpt lat="44.3922817" lon="8.4054683"><ele>655.0</ele><time>2026-05-01T14:30:01.157Z</time></trkpt><trkpt lat="44.3923833" lon="8.4056"><ele>655.0</ele><time>2026-05-01T14:30:02.15Z</time></trkpt><trkpt lat="44.392495" lon="8.4057117"><ele>655.0</ele><time>2026-05-01T14:30:03.153Z</time></trkpt><trkpt lat="44.39261" lon="8.4058083"><ele>655.0</ele><time>2026-05-01T14:30:04.152Z</time></trkpt><trkpt lat="44.392735" lon="8.4058967"><ele>655.0</ele><time>2026-05-01T14:30:05.151Z</time></trkpt><trkpt lat="44.392865" lon="8.405985"><ele>655.0</ele><time>2026-05-01T14:30:06.152Z</time></trkpt><trkpt lat="44.3930033" lon="8.40607"><ele>655.0</ele><time>2026-05-01T14:30:07.153Z</time></trkpt><trkpt lat="44.3931417" lon="8.4061483"><ele>655.0</ele><time>2026-05-01T14:30:08.153Z</time></trkpt><trkpt lat="44.39328" lon="8.40621"><ele>655.0</ele><time>2026-05-01T14:30:09.151Z</time></trkpt><trkpt lat="44.3934083" lon="8.406275"><ele>655.25</ele><time>2026-05-01T14:30:10.152Z</time></trkpt><trkpt lat="44.393545" lon="8.4063133"><ele>655.5</ele><time>2026-05-01T14:30:11.157Z</time></trkpt><trkpt lat="44.393685" lon="8.406335"><ele>655.75</ele><time>2026-05-01T14:30:12.154Z</time></trkpt><trkpt lat="44.3938417" lon="8.406335"><ele>656.0</ele><time>2026-05-01T14:30:13.153Z</time></trkpt><trkpt lat="44.3939967" lon="8.4063333"><ele>656.0</ele><time>2026-05-01T14:30:14.151Z</time></trkpt><trkpt lat="44.3941283" lon="8.4063383"><ele>656.0</ele><time>2026-05-01T14:30:15.153Z</time></trkpt><trkpt lat="44.39428" lon="8.4063433"><ele>656.0</ele><time>2026-05-01T14:30:16.151Z</time></trkpt><trkpt lat="44.3944333" lon="8.406355"><ele>656.0</ele><time>2026-05-01T14:30:17.156Z</time></trkpt><trkpt lat="44.3945933" lon="8.4063783"><ele>654.5</ele><time>2026-05-01T14:30:18.159Z</time></trkpt><trkpt lat="44.39474" lon="8.40641"><ele>653.0</ele><time>2026-05-01T14:30:19.153Z</time></trkpt><trkpt lat="44.394875" lon="8.4064583"><ele>651.5</ele><time>2026-05-01T14:30:20.153Z</time></trkpt><trkpt lat="44.3950067" lon="8.4065183"><ele>650.0</ele><time>2026-05-01T14:30:21.152Z</time></trkpt><trkpt lat="44.39512" lon="8.40662"><ele>650.0</ele><time>2026-05-01T14:30:22.152Z</time></trkpt><trkpt lat="44.3952333" lon="8.40673"><ele>650.0</ele><time>2026-05-01T14:30:23.155Z</time></trkpt><trkpt lat="44.3953433" lon="8.40686"><ele>650.0</ele><time>2026-05-01T14:30:24.156Z</time></trkpt><trkpt lat="44.39546" lon="8.40699"><ele>650.0</ele><time>2026-05-01T14:30:25.152Z</time></trkpt><trkpt lat="44.3955733" lon="8.4071267"><ele>648.0</ele><time>2026-05-01T14:30:26.154Z</time></trkpt><trkpt lat="44.3956817" lon="8.407285"><ele>646.0</ele><time>2026-05-01T14:30:27.163Z</time></trkpt><trkpt lat="44.3957817" lon="8.4074467"><ele>644.0</ele><time>2026-05-01T14:30:28.155Z</time></trkpt><trkpt lat="44.3958733" lon="8.40762"><ele>644.0</ele><time>2026-05-01T14:30:29.154Z</time></trkpt><trkpt lat="44.39597" lon="8.4077883"><ele>644.0</ele><time>2026-05-01T14:30:30.155Z</time></trkpt><trkpt lat="44.3960417" lon="8.4079667"><ele>644.0</ele><time>2026-05-01T14:30:31.16Z</time></trkpt><trkpt lat="44.39612" lon="8.4081267"><ele>644.0</ele><time>2026-05-01T14:30:32.158Z</time></trkpt><trkpt lat="44.3962" lon="8.408265"><ele>642.5</ele><time>2026-05-01T14:30:33.154Z</time></trkpt><trkpt lat="44.3962817" lon="8.4083883"><ele>641.0</ele><time>2026-05-01T14:30:34.156Z</time></trkpt><trkpt lat="44.396375" lon="8.4084767"><ele>639.5</ele><time>2026-05-01T14:30:35.152Z</time></trkpt><trkpt lat="44.3964667" lon="8.408565"><ele>638.0</ele><time>2026-05-01T14:30:36.154Z</time></trkpt><trkpt lat="44.3966167" lon="8.40857"><ele>638.0</ele><time>2026-05-01T14:30:37.153Z</time></trkpt><trkpt lat="44.3967417" lon="8.4085933"><ele>638.0</ele><time>2026-05-01T14:30:38.155Z</time></trkpt><trkpt lat="44.3968567" lon="8.4085983"><ele>638.0</ele><time>2026-05-01T14:30:39.155Z</time></trkpt><trkpt lat="44.3969467" lon="8.40864"><ele>638.0</ele><time>2026-05-01T14:30:40.157Z</time></trkpt><trkpt lat="44.3970333" lon="8.40868"><ele>638.0</ele><time>2026-05-01T14:30:41.154Z</time></trkpt><trkpt lat="44.3971067" lon="8.4087333"><ele>637.4</ele><time>2026-05-01T14:30:42.157Z</time></trkpt><trkpt lat="44.3971617" lon="8.4088317"><ele>636.8</ele><time>2026-05-01T14:30:43.156Z</time></trkpt><trkpt lat="44.3972117" lon="8.4089467"><ele>636.2</ele><time>2026-05-01T14:30:44.152Z</time></trkpt><trkpt lat="44.3972717" lon="8.409055"><ele>635.6</ele><time>2026-05-01T14:30:45.153Z</time></trkpt><trkpt lat="44.397315" lon="8.4091883"><ele>635.0</ele><time>2026-05-01T14:30:46.156Z</time></trkpt><trkpt lat="44.397365" lon="8.40933"><ele>635.0</ele><time>2026-05-01T14:30:47.161Z</time></trkpt><trkpt lat="44.3973833" lon="8.4095017"><ele>635.0</ele><time>2026-05-01T14:30:48.155Z</time></trkpt><trkpt lat="44.3974" lon="8.4096867"><ele>635.0</ele><time>2026-05-01T14:30:49.153Z</time></trkpt><trkpt lat="44.39742" lon="8.4098717"><ele>635.0</ele><time>2026-05-01T14:30:50.152Z</time></trkpt><trkpt lat="44.3974383" lon="8.41005"><ele>634.75</ele><time>2026-05-01T14:30:51.155Z</time></trkpt><trkpt lat="44.3974283" lon="8.4102583"><ele>634.5</ele><time>2026-05-01T14:30:52.155Z</time></trkpt><trkpt lat="44.3974417" lon="8.41043"><ele>634.25</ele><time>2026-05-01T14:30:53.156Z</time></trkpt><trkpt lat="44.3974567" lon="8.410575"><ele>634.0</ele><time>2026-05-01T14:30:54.157Z</time></trkpt><trkpt lat="44.39747" lon="8.4107217"><ele>634.0</ele><time>2026-05-01T14:30:55.154Z</time></trkpt><trkpt lat="44.3975017" lon="8.4108483"><ele>634.0</ele><time>2026-05-01T14:30:56.156Z</time></trkpt><trkpt lat="44.3975617" lon="8.4109517"><ele>634.0</ele><time>2026-05-01T14:30:57.154Z</time></trkpt><trkpt lat="44.39764" lon="8.4110283"><ele>634.0</ele><time>2026-05-01T14:30:58.155Z</time></trkpt><trkpt lat="44.397735" lon="8.4110883"><ele>634.0</ele><time>2026-05-01T14:30:59.154Z</time></trkpt><trkpt lat="44.39787" lon="8.4110917"><ele>634.0</ele><time>2026-05-01T14:31:00.156Z</time></trkpt><trkpt lat="44.3979983" lon="8.4110883"><ele>634.0</ele><time>2026-05-01T14:31:01.154Z</time></trkpt><trkpt lat="44.3981417" lon="8.4110517"><ele>634.0</ele><time>2026-05-01T14:31:02.157Z</time></trkpt><trkpt lat="44.3982783" lon="8.4109933"><ele>634.0</ele><time>2026-05-01T14:31:03.151Z</time></trkpt><trkpt lat="44.398395" lon="8.410895"><ele>633.75</ele><time>2026-05-01T14:31:04.152Z</time></trkpt><trkpt lat="44.3985183" lon="8.4107583"><ele>633.5</ele><time>2026-05-01T14:31:05.151Z</time></trkpt><trkpt lat="44.3986283" lon="8.4106383"><ele>633.25</ele><time>2026-05-01T14:31:06.152Z</time></trkpt><trkpt lat="44.3987267" lon="8.4104917"><ele>633.0</ele><time>2026-05-01T14:31:07.154Z</time></trkpt><trkpt lat="44.3988167" lon="8.4103667"><ele>631.0</ele><time>2026-05-01T14:31:08.151Z</time></trkpt><trkpt lat="44.3988917" lon="8.41026"><ele>629.0</ele><time>2026-05-01T14:31:09.154Z</time></trkpt><trkpt lat="44.3989283" lon="8.4101183"><ele>627.0</ele><time>2026-05-01T14:31:10.153Z</time></trkpt><trkpt lat="44.3989983" lon="8.4100617"><ele>625.0</ele><time>2026-05-01T14:31:11.156Z</time></trkpt><trkpt lat="44.3990767" lon="8.410045"><ele>623.0</ele><time>2026-05-01T14:31:12.151Z</time></trkpt><trkpt lat="44.3991467" lon="8.4101317"><ele>623.0</ele><time>2026-05-01T14:31:13.153Z</time></trkpt><trkpt lat="44.399195" lon="8.4103383"><ele>623.0</ele><time>2026-05-01T14:31:14.153Z</time></trkpt><trkpt lat="44.3992617" lon="8.4105167"><ele>623.0</ele><time>2026-05-01T14:31:15.152Z</time></trkpt><trkpt lat="44.39933" lon="8.41071"><ele>623.0</ele><time>2026-05-01T14:31:16.155Z</time></trkpt><trkpt lat="44.3994033" lon="8.4109167"><ele>623.0</ele><time>2026-05-01T14:31:17.154Z</time></trkpt><trkpt lat="44.3994817" lon="8.411125"><ele>623.0</ele><time>2026-05-01T14:31:18.156Z</time></trkpt><trkpt lat="44.3995633" lon="8.4113317"><ele>623.6666666666666</ele><time>2026-05-01T14:31:19.156Z</time></trkpt><trkpt lat="44.399655" lon="8.4115367"><ele>624.3333333333334</ele><time>2026-05-01T14:31:20.153Z</time></trkpt><trkpt lat="44.3997517" lon="8.411735"><ele>625.0</ele><time>2026-05-01T14:31:21.152Z</time></trkpt><trkpt lat="44.39986" lon="8.4119183"><ele>622.0</ele><time>2026-05-01T14:31:22.155Z</time></trkpt><trkpt lat="44.3999733" lon="8.41208"><ele>619.0</ele><time>2026-05-01T14:31:23.159Z</time></trkpt><trkpt lat="44.40009" lon="8.41223"><ele>616.0</ele><time>2026-05-01T14:31:24.155Z</time></trkpt><trkpt lat="44.400205" lon="8.41236"><ele>616.0</ele><time>2026-05-01T14:31:25.156Z</time></trkpt><trkpt lat="44.40031" lon="8.4124683"><ele>616.0</ele><time>2026-05-01T14:31:26.154Z</time></trkpt><trkpt lat="44.4004117" lon="8.412535"><ele>616.0</ele><time>2026-05-01T14:31:27.154Z</time></trkpt><trkpt lat="44.4005117" lon="8.412555"><ele>616.0</ele><time>2026-05-01T14:31:28.154Z</time></trkpt><trkpt lat="44.400615" lon="8.412535"><ele>616.0</ele><time>2026-05-01T14:31:29.153Z</time></trkpt><trkpt lat="44.4007167" lon="8.4124783"><ele>617.0</ele><time>2026-05-01T14:31:30.151Z</time></trkpt><trkpt lat="44.400805" lon="8.4124133"><ele>618.0</ele><time>2026-05-01T14:31:31.155Z</time></trkpt><trkpt lat="44.4008867" lon="8.4123367"><ele>619.0</ele><time>2026-05-01T14:31:32.157Z</time></trkpt><trkpt lat="44.4009567" lon="8.4122433"><ele>620.0</ele><time>2026-05-01T14:31:33.156Z</time></trkpt><trkpt lat="44.401045" lon="8.4122033"><ele>621.0</ele><time>2026-05-01T14:31:34.158Z</time></trkpt><trkpt lat="44.4011367" lon="8.41216"><ele>620.8</ele><time>2026-05-01T14:31:35.155Z</time></trkpt><trkpt lat="44.4012217" lon="8.4121217"><ele>620.6</ele><time>2026-05-01T14:31:36.152Z</time></trkpt><trkpt lat="44.4013167" lon="8.4121033"><ele>620.4</ele><time>2026-05-01T14:31:37.157Z</time></trkpt><trkpt lat="44.40142" lon="8.4120933"><ele>620.2</ele><time>2026-05-01T14:31:38.152Z</time></trkpt><trkpt lat="44.4015317" lon="8.4120983"><ele>620.0</ele><time>2026-05-01T14:31:39.153Z</time></trkpt><trkpt lat="44.4016633" lon="8.4121383"><ele>618.6666666666666</ele><time>2026-05-01T14:31:40.156Z</time></trkpt><trkpt lat="44.4018333" lon="8.412295"><ele>617.3333333333334</ele><time>2026-05-01T14:31:41.154Z</time></trkpt><trkpt lat="44.4020267" lon="8.41245"><ele>616.0</ele><time>2026-05-01T14:31:42.155Z</time></trkpt><trkpt lat="44.4022183" lon="8.4126167"><ele>615.0</ele><time>2026-05-01T14:31:43.153Z</time></trkpt><trkpt lat="44.4024133" lon="8.4127717"><ele>614.0</ele><time>2026-05-01T14:31:44.157Z</time></trkpt><trkpt lat="44.402595" lon="8.4129067"><ele>613.0</ele><time>2026-05-01T14:31:45.158Z</time></trkpt><trkpt lat="44.40277" lon="8.413035"><ele>613.6666666666667</ele><time>2026-05-01T14:31:46.155Z</time></trkpt><trkpt lat="44.4029633" lon="8.4131517"><ele>614.3333333333334</ele><time>2026-05-01T14:31:47.153Z</time></trkpt><trkpt lat="44.4031417" lon="8.4132733"><ele>615.0</ele><time>2026-05-01T14:31:48.155Z</time></trkpt><trkpt lat="44.4033083" lon="8.4133967"><ele>615.0</ele><time>2026-05-01T14:31:49.152Z</time></trkpt><trkpt lat="44.4034717" lon="8.4135217"><ele>615.0</ele><time>2026-05-01T14:31:50.154Z</time></trkpt><trkpt lat="44.4036283" lon="8.4136467"><ele>615.0</ele><time>2026-05-01T14:31:51.155Z</time></trkpt><trkpt lat="44.4037933" lon="8.4137717"><ele>612.3333333333334</ele><time>2026-05-01T14:31:52.152Z</time></trkpt><trkpt lat="44.4039567" lon="8.4138817"><ele>609.6666666666667</ele><time>2026-05-01T14:31:53.155Z</time></trkpt><trkpt lat="44.4041083" lon="8.4139833"><ele>607.0</ele><time>2026-05-01T14:31:54.154Z</time></trkpt><trkpt lat="44.4042383" lon="8.4140733"><ele>607.0</ele><time>2026-05-01T14:31:55.15Z</time></trkpt><trkpt lat="44.4043567" lon="8.41416"><ele>607.0</ele><time>2026-05-01T14:31:56.156Z</time></trkpt><trkpt lat="44.4044667" lon="8.414245"><ele>607.0</ele><time>2026-05-01T14:31:57.162Z</time></trkpt><trkpt lat="44.4045933" lon="8.4142767"><ele>607.0</ele><time>2026-05-01T14:31:58.156Z</time></trkpt><trkpt lat="44.40472" lon="8.4142883"><ele>605.5</ele><time>2026-05-01T14:31:59.156Z</time></trkpt><trkpt lat="44.4048567" lon="8.4142917"><ele>604.0</ele><time>2026-05-01T14:32:00.155Z</time></trkpt><trkpt lat="44.4049917" lon="8.4143083"><ele>602.5</ele><time>2026-05-01T14:32:01.154Z</time></trkpt><trkpt lat="44.4051317" lon="8.4143333"><ele>601.0</ele><time>2026-05-01T14:32:02.154Z</time></trkpt><trkpt lat="44.4052567" lon="8.4144667"><ele>601.0</ele><time>2026-05-01T14:32:03.153Z</time></trkpt><trkpt lat="44.4053767" lon="8.414595"><ele>601.0</ele><time>2026-05-01T14:32:04.153Z</time></trkpt><trkpt lat="44.405485" lon="8.41476"><ele>601.0</ele><time>2026-05-01T14:32:05.153Z</time></trkpt><trkpt lat="44.4055917" lon="8.4149117"><ele>600.5</ele><time>2026-05-01T14:32:06.157Z</time></trkpt><trkpt lat="44.4056717" lon="8.415105"><ele>600.0</ele><time>2026-05-01T14:32:07.154Z</time></trkpt><trkpt lat="44.40575" lon="8.4152817"><ele>599.5</ele><time>2026-05-01T14:32:08.153Z</time></trkpt><trkpt lat="44.40583" lon="8.4154417"><ele>599.0</ele><time>2026-05-01T14:32:09.155Z</time></trkpt><trkpt lat="44.4058917" lon="8.4155917"><ele>599.0</ele><time>2026-05-01T14:32:10.154Z</time></trkpt><trkpt lat="44.4059383" lon="8.4157167"><ele>599.0</ele><time>2026-05-01T14:32:11.153Z</time></trkpt><trkpt lat="44.4059717" lon="8.4158167"><ele>599.0</ele><time>2026-05-01T14:32:12.152Z</time></trkpt><trkpt lat="44.4060017" lon="8.4159017"><ele>599.0</ele><time>2026-05-01T14:32:13.162Z</time></trkpt><trkpt lat="44.4060417" lon="8.4160317"><ele>599.0</ele><time>2026-05-01T14:32:15.157Z</time></trkpt><trkpt lat="44.4060817" lon="8.4161417"><ele>599.0</ele><time>2026-05-01T14:32:18.156Z</time></trkpt><trkpt lat="44.4060183" lon="8.4161633"><ele>599.0</ele><time>2026-05-01T14:34:10.154Z</time></trkpt><trkpt lat="44.4060167" lon="8.4160617"><ele>599.0</ele><time>2026-05-01T14:34:19.155Z</time></trkpt><trkpt lat="44.4060867" lon="8.4159917"><ele>599.0</ele><time>2026-05-01T14:34:22.156Z</time></trkpt><trkpt lat="44.406165" lon="8.4159817"><ele>599.0</ele><time>2026-05-01T14:34:26.151Z</time></trkpt><trkpt lat="44.4062067" lon="8.41607"><ele>599.0</ele><time>2026-05-01T14:34:32.153Z</time></trkpt><trkpt lat="44.4062217" lon="8.41616"><ele>599.0</ele><time>2026-05-01T14:34:35.153Z</time></trkpt><trkpt lat="44.4062783" lon="8.4162017"><ele>599.0</ele><time>2026-05-01T14:34:40.154Z</time></trkpt><trkpt lat="44.4063417" lon="8.4162117"><ele>598.6666666666666</ele><time>2026-05-01T14:34:46.156Z</time></trkpt><trkpt lat="44.4064017" lon="8.416255"><ele>598.3333333333333</ele><time>2026-05-01T14:34:50.154Z</time></trkpt><trkpt lat="44.4064633" lon="8.416295"><ele>598.0</ele><time>2026-05-01T14:34:53.153Z</time></trkpt><trkpt lat="44.406535" lon="8.4163533"><ele>597.6666666666666</ele><time>2026-05-01T14:34:57.155Z</time></trkpt><trkpt lat="44.406625" lon="8.41635"><ele>597.3333333333334</ele><time>2026-05-01T14:35:00.152Z</time></trkpt><trkpt lat="44.406715" lon="8.4163067"><ele>597.0</ele><time>2026-05-01T14:35:02.156Z</time></trkpt><trkpt lat="44.4068267" lon="8.4162467"><ele>596.0</ele><time>2026-05-01T14:35:04.155Z</time></trkpt><trkpt lat="44.40689" lon="8.4162317"><ele>595.0</ele><time>2026-05-01T14:35:05.159Z</time></trkpt><trkpt lat="44.406975" lon="8.41623"><ele>594.0</ele><time>2026-05-01T14:35:06.155Z</time></trkpt><trkpt lat="44.407065" lon="8.4162483"><ele>593.0</ele><time>2026-05-01T14:35:07.151Z</time></trkpt><trkpt lat="44.4071583" lon="8.416275"><ele>592.0</ele><time>2026-05-01T14:35:08.153Z</time></trkpt><trkpt lat="44.407255" lon="8.416285"><ele>591.0</ele><time>2026-05-01T14:35:09.153Z</time></trkpt><trkpt lat="44.4073683" lon="8.4162983"><ele>591.0</ele><time>2026-05-01T14:35:10.154Z</time></trkpt><trkpt lat="44.4074867" lon="8.416315"><ele>591.0</ele><time>2026-05-01T14:35:11.152Z</time></trkpt><trkpt lat="44.4076033" lon="8.41633"><ele>591.0</ele><time>2026-05-01T14:35:12.159Z</time></trkpt><trkpt lat="44.40773" lon="8.4163517"><ele>591.0</ele><time>2026-05-01T14:35:13.155Z</time></trkpt><trkpt lat="44.40786" lon="8.4163717"><ele>592.0</ele><time>2026-05-01T14:35:14.149Z</time></trkpt><trkpt lat="44.4079683" lon="8.4163783"><ele>593.0</ele><time>2026-05-01T14:35:15.151Z</time></trkpt><trkpt lat="44.40807" lon="8.416345"><ele>594.0</ele><time>2026-05-01T14:35:16.156Z</time></trkpt><trkpt lat="44.4081683" lon="8.4162833"><ele>595.0</ele><time>2026-05-01T14:35:17.151Z</time></trkpt><trkpt lat="44.4082683" lon="8.4162017"><ele>596.0</ele><time>2026-05-01T14:35:18.154Z</time></trkpt><trkpt lat="44.40835" lon="8.4160933"><ele>593.25</ele><time>2026-05-01T14:35:19.153Z</time></trkpt><trkpt lat="44.4084333" lon="8.4159783"><ele>590.5</ele><time>2026-05-01T14:35:20.151Z</time></trkpt><trkpt lat="44.4085133" lon="8.4158533"><ele>587.75</ele><time>2026-05-01T14:35:21.152Z</time></trkpt><trkpt lat="44.408585" lon="8.4157217"><ele>585.0</ele><time>2026-05-01T14:35:22.152Z</time></trkpt><trkpt lat="44.40866" lon="8.4155667"><ele>584.75</ele><time>2026-05-01T14:35:23.154Z</time></trkpt><trkpt lat="44.4087333" lon="8.415405"><ele>584.5</ele><time>2026-05-01T14:35:24.151Z</time></trkpt><trkpt lat="44.4088217" lon="8.41526"><ele>584.25</ele><time>2026-05-01T14:35:25.158Z</time></trkpt><trkpt lat="44.40893" lon="8.41512"><ele>584.0</ele><time>2026-05-01T14:35:26.154Z</time></trkpt><trkpt lat="44.4090433" lon="8.4149817"><ele>584.0</ele><time>2026-05-01T14:35:27.15Z</time></trkpt><trkpt lat="44.4091617" lon="8.4148533"><ele>584.0</ele><time>2026-05-01T14:35:28.15Z</time></trkpt><trkpt lat="44.4092833" lon="8.414735"><ele>584.0</ele><time>2026-05-01T14:35:29.153Z</time></trkpt><trkpt lat="44.40942" lon="8.4146217"><ele>581.6666666666666</ele><time>2026-05-01T14:35:30.156Z</time></trkpt><trkpt lat="44.4095617" lon="8.4145317"><ele>579.3333333333334</ele><time>2026-05-01T14:35:31.151Z</time></trkpt><trkpt lat="44.4097117" lon="8.4144583"><ele>577.0</ele><time>2026-05-01T14:35:32.152Z</time></trkpt><trkpt lat="44.4098583" lon="8.41438"><ele>577.0</ele><time>2026-05-01T14:35:33.154Z</time></trkpt><trkpt lat="44.4100183" lon="8.4142933"><ele>577.0</ele><time>2026-05-01T14:35:34.154Z</time></trkpt><trkpt lat="44.4101817" lon="8.4142017"><ele>577.0</ele><time>2026-05-01T14:35:35.157Z</time></trkpt><trkpt lat="44.4103433" lon="8.4141083"><ele>575.6666666666667</ele><time>2026-05-01T14:35:36.152Z</time></trkpt><trkpt lat="44.4104917" lon="8.414035"><ele>574.3333333333334</ele><time>2026-05-01T14:35:37.15Z</time></trkpt><trkpt lat="44.410645" lon="8.4139633"><ele>573.0</ele><time>2026-05-01T14:35:38.152Z</time></trkpt><trkpt lat="44.4107983" lon="8.4138883"><ele>573.25</ele><time>2026-05-01T14:35:39.153Z</time></trkpt><trkpt lat="44.41094" lon="8.413815"><ele>573.5</ele><time>2026-05-01T14:35:40.152Z</time></trkpt><trkpt lat="44.41108" lon="8.4137433"><ele>573.75</ele><time>2026-05-01T14:35:41.154Z</time></trkpt><trkpt lat="44.4112133" lon="8.4136667"><ele>574.0</ele><time>2026-05-01T14:35:42.151Z</time></trkpt><trkpt lat="44.41134" lon="8.4135933"><ele>571.75</ele><time>2026-05-01T14:35:43.151Z</time></trkpt><trkpt lat="44.4114767" lon="8.413515"><ele>569.5</ele><time>2026-05-01T14:35:44.153Z</time></trkpt><trkpt lat="44.4116017" lon="8.413445"><ele>567.25</ele><time>2026-05-01T14:35:45.152Z</time></trkpt><trkpt lat="44.4117317" lon="8.4133817"><ele>565.0</ele><time>2026-05-01T14:35:46.152Z</time></trkpt><trkpt lat="44.411855" lon="8.4133367"><ele>565.0</ele><time>2026-05-01T14:35:47.151Z</time></trkpt><trkpt lat="44.41197" lon="8.4133117"><ele>565.0</ele><time>2026-05-01T14:35:48.162Z</time></trkpt><trkpt lat="44.4120817" lon="8.413315"><ele>565.0</ele><time>2026-05-01T14:35:49.151Z</time></trkpt><trkpt lat="44.4121933" lon="8.4133517"><ele>565.0</ele><time>2026-05-01T14:35:50.153Z</time></trkpt><trkpt lat="44.4123167" lon="8.4134217"><ele>564.6666666666667</ele><time>2026-05-01T14:35:51.157Z</time></trkpt><trkpt lat="44.41245" lon="8.4135033"><ele>564.3333333333334</ele><time>2026-05-01T14:35:52.157Z</time></trkpt><trkpt lat="44.4125917" lon="8.4135983"><ele>564.0</ele><time>2026-05-01T14:35:53.158Z</time></trkpt><trkpt lat="44.412745" lon="8.4136983"><ele>564.0</ele><time>2026-05-01T14:35:54.152Z</time></trkpt><trkpt lat="44.4128967" lon="8.4137967"><ele>564.0</ele><time>2026-05-01T14:35:55.153Z</time></trkpt><trkpt lat="44.4130483" lon="8.413895"><ele>564.0</ele><time>2026-05-01T14:35:56.154Z</time></trkpt><trkpt lat="44.4131983" lon="8.4139967"><ele>563.6666666666666</ele><time>2026-05-01T14:35:57.158Z</time></trkpt><trkpt lat="44.41335" lon="8.414095"><ele>563.3333333333333</ele><time>2026-05-01T14:35:58.155Z</time></trkpt><trkpt lat="44.4134983" lon="8.4141917"><ele>563.0</ele><time>2026-05-01T14:35:59.154Z</time></trkpt><trkpt lat="44.4136483" lon="8.414285"><ele>563.0</ele><time>2026-05-01T14:36:00.152Z</time></trkpt><trkpt lat="44.4137933" lon="8.41438"><ele>563.0</ele><time>2026-05-01T14:36:01.159Z</time></trkpt><trkpt lat="44.4139383" lon="8.41448"><ele>563.0</ele><time>2026-05-01T14:36:02.15Z</time></trkpt><trkpt lat="44.4140817" lon="8.4145833"><ele>563.3333333333333</ele><time>2026-05-01T14:36:03.152Z</time></trkpt><trkpt lat="44.4142167" lon="8.4146917"><ele>563.6666666666666</ele><time>2026-05-01T14:36:04.151Z</time></trkpt><trkpt lat="44.4143517" lon="8.4147933"><ele>564.0</ele><time>2026-05-01T14:36:05.156Z</time></trkpt><trkpt lat="44.4144833" lon="8.414895"><ele>564.0</ele><time>2026-05-01T14:36:06.151Z</time></trkpt><trkpt lat="44.4146067" lon="8.41499"><ele>564.0</ele><time>2026-05-01T14:36:07.151Z</time></trkpt><trkpt lat="44.41473" lon="8.4150633"><ele>564.0</ele><time>2026-05-01T14:36:08.153Z</time></trkpt><trkpt lat="44.414855" lon="8.41512"><ele>564.0</ele><time>2026-05-01T14:36:09.155Z</time></trkpt><trkpt lat="44.414995" lon="8.4151833"><ele>566.75</ele><time>2026-05-01T14:36:10.148Z</time></trkpt><trkpt lat="44.4151383" lon="8.415255"><ele>569.5</ele><time>2026-05-01T14:36:11.156Z</time></trkpt><trkpt lat="44.415275" lon="8.4153283"><ele>572.25</ele><time>2026-05-01T14:36:12.153Z</time></trkpt><trkpt lat="44.415405" lon="8.4154117"><ele>575.0</ele><time>2026-05-01T14:36:13.155Z</time></trkpt><trkpt lat="44.41556" lon="8.4154533"><ele>571.6666666666666</ele><time>2026-05-01T14:36:14.151Z</time></trkpt><trkpt lat="44.4157217" lon="8.4154933"><ele>568.3333333333334</ele><time>2026-05-01T14:36:15.154Z</time></trkpt><trkpt lat="44.415885" lon="8.4155267"><ele>565.0</ele><time>2026-05-01T14:36:16.151Z</time></trkpt><trkpt lat="44.4160317" lon="8.415555"><ele>565.0</ele><time>2026-05-01T14:36:17.155Z</time></trkpt><trkpt lat="44.4161933" lon="8.4155783"><ele>565.0</ele><time>2026-05-01T14:36:18.152Z</time></trkpt><trkpt lat="44.4163633" lon="8.4155917"><ele>565.0</ele><time>2026-05-01T14:36:19.158Z</time></trkpt><trkpt lat="44.416535" lon="8.415625"><ele>567.0</ele><time>2026-05-01T14:36:20.159Z</time></trkpt><trkpt lat="44.4166917" lon="8.415685"><ele>569.0</ele><time>2026-05-01T14:36:21.155Z</time></trkpt><trkpt lat="44.4168183" lon="8.4157383"><ele>571.0</ele><time>2026-05-01T14:36:22.152Z</time></trkpt><trkpt lat="44.41693" lon="8.4158233"><ele>573.0</ele><time>2026-05-01T14:36:23.153Z</time></trkpt><trkpt lat="44.4170467" lon="8.41593"><ele>573.0</ele><time>2026-05-01T14:36:24.154Z</time></trkpt><trkpt lat="44.417145" lon="8.4160833"><ele>573.0</ele><time>2026-05-01T14:36:25.152Z</time></trkpt><trkpt lat="44.4172333" lon="8.4162567"><ele>573.0</ele><time>2026-05-01T14:36:26.153Z</time></trkpt><trkpt lat="44.41733" lon="8.41644"><ele>575.0</ele><time>2026-05-01T14:36:27.152Z</time></trkpt><trkpt lat="44.4174317" lon="8.41662"><ele>577.0</ele><time>2026-05-01T14:36:28.154Z</time></trkpt><trkpt lat="44.4175333" lon="8.4168133"><ele>579.0</ele><time>2026-05-01T14:36:29.154Z</time></trkpt><trkpt lat="44.4176217" lon="8.4170433"><ele>577.0</ele><time>2026-05-01T14:36:30.153Z</time></trkpt><trkpt lat="44.417715" lon="8.4172517"><ele>575.0</ele><time>2026-05-01T14:36:31.154Z</time></trkpt><trkpt lat="44.4178133" lon="8.4174383"><ele>573.0</ele><time>2026-05-01T14:36:32.155Z</time></trkpt><trkpt lat="44.417915" lon="8.4176167"><ele>576.3333333333334</ele><time>2026-05-01T14:36:33.154Z</time></trkpt><trkpt lat="44.4180267" lon="8.41779"><ele>579.6666666666667</ele><time>2026-05-01T14:36:34.155Z</time></trkpt><trkpt lat="44.418135" lon="8.4179717"><ele>583.0</ele><time>2026-05-01T14:36:35.151Z</time></trkpt><trkpt lat="44.4182433" lon="8.418145"><ele>583.0</ele><time>2026-05-01T14:36:36.154Z</time></trkpt><trkpt lat="44.4183533" lon="8.418315"><ele>583.0</ele><time>2026-05-01T14:36:37.153Z</time></trkpt><trkpt lat="44.4184517" lon="8.418505"><ele>583.0</ele><time>2026-05-01T14:36:38.153Z</time></trkpt><trkpt lat="44.4185417" lon="8.4187033"><ele>580.0</ele><time>2026-05-01T14:36:39.152Z</time></trkpt><trkpt lat="44.41863" lon="8.4189033"><ele>577.0</ele><time>2026-05-01T14:36:40.154Z</time></trkpt><trkpt lat="44.4187267" lon="8.419105"><ele>574.0</ele><time>2026-05-01T14:36:41.157Z</time></trkpt><trkpt lat="44.4188383" lon="8.41928"><ele>578.3333333333334</ele><time>2026-05-01T14:36:42.156Z</time></trkpt><trkpt lat="44.4189317" lon="8.4194817"><ele>582.6666666666666</ele><time>2026-05-01T14:36:43.154Z</time></trkpt><trkpt lat="44.4190217" lon="8.4196967"><ele>587.0</ele><time>2026-05-01T14:36:44.151Z</time></trkpt><trkpt lat="44.4191233" lon="8.4198883"><ele>587.0</ele><time>2026-05-01T14:36:45.152Z</time></trkpt><trkpt lat="44.4192167" lon="8.420055"><ele>587.0</ele><time>2026-05-01T14:36:46.151Z</time></trkpt><trkpt lat="44.4192883" lon="8.42022"><ele>587.0</ele><time>2026-05-01T14:36:47.153Z</time></trkpt><trkpt lat="44.4193583" lon="8.42038"><ele>587.0</ele><time>2026-05-01T14:36:48.157Z</time></trkpt><trkpt lat="44.4194233" lon="8.420545"><ele>586.2</ele><time>2026-05-01T14:36:49.152Z</time></trkpt><trkpt lat="44.4194983" lon="8.4206617"><ele>585.4000000000001</ele><time>2026-05-01T14:36:50.159Z</time></trkpt><trkpt lat="44.4195833" lon="8.4207283"><ele>584.5999999999999</ele><time>2026-05-01T14:36:51.155Z</time></trkpt><trkpt lat="44.4196767" lon="8.420755"><ele>583.8</ele><time>2026-05-01T14:36:52.155Z</time></trkpt><trkpt lat="44.4197683" lon="8.4207467"><ele>583.0</ele><time>2026-05-01T14:36:53.16Z</time></trkpt><trkpt lat="44.419865" lon="8.4207017"><ele>583.0</ele><time>2026-05-01T14:36:54.153Z</time></trkpt><trkpt lat="44.41996" lon="8.420635"><ele>583.0</ele><time>2026-05-01T14:36:55.159Z</time></trkpt><trkpt lat="44.4200483" lon="8.420525"><ele>583.0</ele><time>2026-05-01T14:36:56.155Z</time></trkpt><trkpt lat="44.4201333" lon="8.4203867"><ele>583.0</ele><time>2026-05-01T14:36:57.162Z</time></trkpt><trkpt lat="44.4202267" lon="8.42024"><ele>583.6666666666667</ele><time>2026-05-01T14:36:58.156Z</time></trkpt><trkpt lat="44.4203217" lon="8.42009"><ele>584.3333333333334</ele><time>2026-05-01T14:36:59.155Z</time></trkpt><trkpt lat="44.4204233" lon="8.4199183"><ele>585.0</ele><time>2026-05-01T14:37:00.153Z</time></trkpt><trkpt lat="44.42051" lon="8.4197317"><ele>587.0</ele><time>2026-05-01T14:37:01.158Z</time></trkpt><trkpt lat="44.420575" lon="8.4195217"><ele>589.0</ele><time>2026-05-01T14:37:02.152Z</time></trkpt><trkpt lat="44.4206183" lon="8.419325"><ele>591.0</ele><time>2026-05-01T14:37:03.153Z</time></trkpt><trkpt lat="44.4206383" lon="8.4191533"><ele>593.0</ele><time>2026-05-01T14:37:04.159Z</time></trkpt><trkpt lat="44.4206367" lon="8.41899"><ele>593.0</ele><time>2026-05-01T14:37:05.16Z</time></trkpt><trkpt lat="44.4205883" lon="8.4188417"><ele>593.0</ele><time>2026-05-01T14:37:06.155Z</time></trkpt><trkpt lat="44.4205167" lon="8.4187017"><ele>593.0</ele><time>2026-05-01T14:37:07.152Z</time></trkpt><trkpt lat="44.4204133" lon="8.4185583"><ele>593.0</ele><time>2026-05-01T14:37:08.154Z</time></trkpt><trkpt lat="44.420295" lon="8.4184067"><ele>594.0</ele><time>2026-05-01T14:37:09.153Z</time></trkpt><trkpt lat="44.4201817" lon="8.4182667"><ele>595.0</ele><time>2026-05-01T14:37:10.153Z</time></trkpt><trkpt lat="44.4200733" lon="8.4181483"><ele>596.0</ele><time>2026-05-01T14:37:11.152Z</time></trkpt><trkpt lat="44.41996" lon="8.4180617"><ele>597.0</ele><time>2026-05-01T14:37:12.158Z</time></trkpt><trkpt lat="44.419885" lon="8.4179517"><ele>597.0</ele><time>2026-05-01T14:37:13.159Z</time></trkpt><trkpt lat="44.419845" lon="8.417825"><ele>597.0</ele><time>2026-05-01T14:37:14.152Z</time></trkpt><trkpt lat="44.4198217" lon="8.4176917"><ele>597.0</ele><time>2026-05-01T14:37:15.155Z</time></trkpt><trkpt lat="44.4198233" lon="8.4175283"><ele>597.0</ele><time>2026-05-01T14:37:16.155Z</time></trkpt><trkpt lat="44.4198633" lon="8.41732"><ele>599.0</ele><time>2026-05-01T14:37:17.152Z</time></trkpt><trkpt lat="44.4199283" lon="8.4171317"><ele>601.0</ele><time>2026-05-01T14:37:18.156Z</time></trkpt><trkpt lat="44.42002" lon="8.4169367"><ele>603.0</ele><time>2026-05-01T14:37:19.15Z</time></trkpt><trkpt lat="44.420095" lon="8.4167617"><ele>603.0</ele><time>2026-05-01T14:37:20.157Z</time></trkpt><trkpt lat="44.4201583" lon="8.4165817"><ele>603.0</ele><time>2026-05-01T14:37:21.15Z</time></trkpt><trkpt lat="44.4202317" lon="8.416385"><ele>603.0</ele><time>2026-05-01T14:37:22.15Z</time></trkpt><trkpt lat="44.4203" lon="8.4161933"><ele>605.3333333333334</ele><time>2026-05-01T14:37:23.151Z</time></trkpt><trkpt lat="44.4203633" lon="8.416005"><ele>607.6666666666667</ele><time>2026-05-01T14:37:24.16Z</time></trkpt><trkpt lat="44.4204633" lon="8.4158217"><ele>610.0</ele><time>2026-05-01T14:37:25.154Z</time></trkpt><trkpt lat="44.420565" lon="8.4156783"><ele>609.25</ele><time>2026-05-01T14:37:26.154Z</time></trkpt><trkpt lat="44.4206583" lon="8.4155317"><ele>608.5</ele><time>2026-05-01T14:37:27.154Z</time></trkpt><trkpt lat="44.42075" lon="8.4154067"><ele>607.75</ele><time>2026-05-01T14:37:28.153Z</time></trkpt><trkpt lat="44.420845" lon="8.4153"><ele>607.0</ele><time>2026-05-01T14:37:29.152Z</time></trkpt><trkpt lat="44.4209417" lon="8.4152133"><ele>607.0</ele><time>2026-05-01T14:37:30.155Z</time></trkpt><trkpt lat="44.421075" lon="8.4152233"><ele>607.0</ele><time>2026-05-01T14:37:31.154Z</time></trkpt><trkpt lat="44.4212117" lon="8.415195"><ele>607.0</ele><time>2026-05-01T14:37:32.152Z</time></trkpt><trkpt lat="44.4213683" lon="8.4151817"><ele>607.0</ele><time>2026-05-01T14:37:33.151Z</time></trkpt><trkpt lat="44.4214983" lon="8.41518"><ele>604.2</ele><time>2026-05-01T14:37:34.153Z</time></trkpt><trkpt lat="44.4216167" lon="8.4151483"><ele>601.4000000000001</ele><time>2026-05-01T14:37:35.156Z</time></trkpt><trkpt lat="44.4217133" lon="8.41509"><ele>598.5999999999999</ele><time>2026-05-01T14:37:36.157Z</time></trkpt><trkpt lat="44.4218017" lon="8.4149967"><ele>595.8</ele><time>2026-05-01T14:37:37.152Z</time></trkpt><trkpt lat="44.4218717" lon="8.4148733"><ele>593.0</ele><time>2026-05-01T14:37:38.155Z</time></trkpt><trkpt lat="44.4219317" lon="8.4147117"><ele>594.5</ele><time>2026-05-01T14:37:39.16Z</time></trkpt><trkpt lat="44.4219817" lon="8.4145333"><ele>596.0</ele><time>2026-05-01T14:37:40.152Z</time></trkpt><trkpt lat="44.42202" lon="8.4143567"><ele>597.5</ele><time>2026-05-01T14:37:41.156Z</time></trkpt><trkpt lat="44.4220533" lon="8.4141817"><ele>599.0</ele><time>2026-05-01T14:37:42.15Z</time></trkpt><trkpt lat="44.4220917" lon="8.4140183"><ele>599.0</ele><time>2026-05-01T14:37:43.153Z</time></trkpt><trkpt lat="44.422135" lon="8.4138583"><ele>599.0</ele><time>2026-05-01T14:37:44.153Z</time></trkpt><trkpt lat="44.4221917" lon="8.4137433"><ele>599.0</ele><time>2026-05-01T14:37:45.15Z</time></trkpt><trkpt lat="44.4222567" lon="8.4136467"><ele>599.0</ele><time>2026-05-01T14:37:46.151Z</time></trkpt><trkpt lat="44.4223417" lon="8.4135817"><ele>599.0</ele><time>2026-05-01T14:37:47.152Z</time></trkpt><trkpt lat="44.4224517" lon="8.413535"><ele>596.0</ele><time>2026-05-01T14:37:48.157Z</time></trkpt><trkpt lat="44.4226067" lon="8.41354"><ele>593.0</ele><time>2026-05-01T14:37:49.153Z</time></trkpt><trkpt lat="44.4227767" lon="8.4135483"><ele>590.0</ele><time>2026-05-01T14:37:50.153Z</time></trkpt><trkpt lat="44.4229183" lon="8.4135383"><ele>589.5</ele><time>2026-05-01T14:37:51.153Z</time></trkpt><trkpt lat="44.4230567" lon="8.4134883"><ele>589.0</ele><time>2026-05-01T14:37:52.155Z</time></trkpt><trkpt lat="44.4231867" lon="8.4134117"><ele>588.5</ele><time>2026-05-01T14:37:53.154Z</time></trkpt><trkpt lat="44.4233183" lon="8.4133383"><ele>588.0</ele><time>2026-05-01T14:37:54.153Z</time></trkpt><trkpt lat="44.4234533" lon="8.4132817"><ele>588.0</ele><time>2026-05-01T14:37:55.153Z</time></trkpt><trkpt lat="44.4235933" lon="8.41325"><ele>588.0</ele><time>2026-05-01T14:37:56.156Z</time></trkpt><trkpt lat="44.4237417" lon="8.4132217"><ele>588.0</ele><time>2026-05-01T14:37:57.153Z</time></trkpt><trkpt lat="44.4238867" lon="8.41323"><ele>588.0</ele><time>2026-05-01T14:37:58.152Z</time></trkpt><trkpt lat="44.4240217" lon="8.41327"><ele>586.75</ele><time>2026-05-01T14:37:59.155Z</time></trkpt><trkpt lat="44.4241617" lon="8.413325"><ele>585.5</ele><time>2026-05-01T14:38:00.156Z</time></trkpt><trkpt lat="44.4242633" lon="8.41336"><ele>584.25</ele><time>2026-05-01T14:38:01.152Z</time></trkpt><trkpt lat="44.424385" lon="8.4133917"><ele>583.0</ele><time>2026-05-01T14:38:02.16Z</time></trkpt><trkpt lat="44.42452" lon="8.41339"><ele>581.5</ele><time>2026-05-01T14:38:03.151Z</time></trkpt><trkpt lat="44.4246517" lon="8.41338"><ele>580.0</ele><time>2026-05-01T14:38:04.154Z</time></trkpt><trkpt lat="44.4247933" lon="8.4133467"><ele>578.5</ele><time>2026-05-01T14:38:05.154Z</time></trkpt><trkpt lat="44.4249433" lon="8.4133083"><ele>577.0</ele><time>2026-05-01T14:38:06.151Z</time></trkpt><trkpt lat="44.425095" lon="8.4132733"><ele>577.0</ele><time>2026-05-01T14:38:07.155Z</time></trkpt><trkpt lat="44.4252433" lon="8.4132583"><ele>577.0</ele><time>2026-05-01T14:38:08.156Z</time></trkpt><trkpt lat="44.4253767" lon="8.41325"><ele>577.0</ele><time>2026-05-01T14:38:09.149Z</time></trkpt><trkpt lat="44.4254967" lon="8.413255"><ele>577.0</ele><time>2026-05-01T14:38:10.154Z</time></trkpt><trkpt lat="44.4256133" lon="8.4132967"><ele>577.0</ele><time>2026-05-01T14:38:11.156Z</time></trkpt><trkpt lat="44.4257267" lon="8.4133733"><ele>577.0</ele><time>2026-05-01T14:38:12.153Z</time></trkpt><trkpt lat="44.425835" lon="8.4134767"><ele>577.0</ele><time>2026-05-01T14:38:13.151Z</time></trkpt><trkpt lat="44.4259467" lon="8.413595"><ele>577.0</ele><time>2026-05-01T14:38:14.155Z</time></trkpt><trkpt lat="44.4260717" lon="8.4137233"><ele>573.6666666666667</ele><time>2026-05-01T14:38:15.151Z</time></trkpt><trkpt lat="44.4262083" lon="8.41385"><ele>570.3333333333334</ele><time>2026-05-01T14:38:16.149Z</time></trkpt><trkpt lat="44.426355" lon="8.4139717"><ele>567.0</ele><time>2026-05-01T14:38:17.153Z</time></trkpt><trkpt lat="44.4264967" lon="8.4140867"><ele>567.0</ele><time>2026-05-01T14:38:18.151Z</time></trkpt><trkpt lat="44.426625" lon="8.4141783"><ele>567.0</ele><time>2026-05-01T14:38:19.153Z</time></trkpt><trkpt lat="44.4267417" lon="8.4142283"><ele>567.0</ele><time>2026-05-01T14:38:20.154Z</time></trkpt><trkpt lat="44.426845" lon="8.4142767"><ele>567.0</ele><time>2026-05-01T14:38:21.152Z</time></trkpt><trkpt lat="44.426935" lon="8.4143367"><ele>567.0</ele><time>2026-05-01T14:38:22.15Z</time></trkpt><trkpt lat="44.4270133" lon="8.4144167"><ele>567.0</ele><time>2026-05-01T14:38:23.151Z</time></trkpt><trkpt lat="44.4270667" lon="8.4145317"><ele>567.0</ele><time>2026-05-01T14:38:24.152Z</time></trkpt><trkpt lat="44.427055" lon="8.4147083"><ele>567.0</ele><time>2026-05-01T14:38:25.157Z</time></trkpt><trkpt lat="44.42707" lon="8.414815"><ele>567.0</ele><time>2026-05-01T14:38:26.154Z</time></trkpt><trkpt lat="44.4270633" lon="8.4149417"><ele>566.5</ele><time>2026-05-01T14:38:28.158Z</time></trkpt><trkpt lat="44.42708" lon="8.4150433"><ele>566.0</ele><time>2026-05-01T14:38:30.158Z</time></trkpt><trkpt lat="44.4270883" lon="8.4151783"><ele>565.5</ele><time>2026-05-01T14:38:32.159Z</time></trkpt><trkpt lat="44.4270933" lon="8.415315"><ele>565.0</ele><time>2026-05-01T14:38:34.154Z</time></trkpt><trkpt lat="44.42716" lon="8.4153833"><ele>564.5</ele><time>2026-05-01T14:38:37.153Z</time></trkpt><trkpt lat="44.427235" lon="8.415415"><ele>564.0</ele><time>2026-05-01T14:38:40.156Z</time></trkpt><trkpt lat="44.4273033" lon="8.41538"><ele>564.0</ele><time>2026-05-01T14:38:44.154Z</time></trkpt><trkpt lat="44.4272333" lon="8.4153383"><ele>564.0</ele><time>2026-05-01T14:42:40.156Z</time></trkpt><trkpt lat="44.4271567" lon="8.4153383"><ele>564.0</ele><time>2026-05-01T14:42:43.155Z</time></trkpt><trkpt lat="44.4270967" lon="8.4153883"><ele>564.0</ele><time>2026-05-01T14:42:46.154Z</time></trkpt><trkpt lat="44.42706" lon="8.4155167"><ele>564.0</ele><time>2026-05-01T14:42:49.155Z</time></trkpt><trkpt lat="44.4270667" lon="8.4156883"><ele>564.0</ele><time>2026-05-01T14:42:51.155Z</time></trkpt><trkpt lat="44.42707" lon="8.4157983"><ele>562.0</ele><time>2026-05-01T14:42:52.152Z</time></trkpt><trkpt lat="44.4270733" lon="8.4159333"><ele>560.0</ele><time>2026-05-01T14:42:53.154Z</time></trkpt><trkpt lat="44.42708" lon="8.416085"><ele>558.0</ele><time>2026-05-01T14:42:54.159Z</time></trkpt><trkpt lat="44.427075" lon="8.4162667"><ele>556.0</ele><time>2026-05-01T14:42:55.155Z</time></trkpt><trkpt lat="44.4270817" lon="8.4164433"><ele>556.75</ele><time>2026-05-01T14:42:56.157Z</time></trkpt><trkpt lat="44.4270933" lon="8.416615"><ele>557.5</ele><time>2026-05-01T14:42:57.152Z</time></trkpt><trkpt lat="44.4271067" lon="8.4167833"><ele>558.25</ele><time>2026-05-01T14:42:58.157Z</time></trkpt><trkpt lat="44.427125" lon="8.4169367"><ele>559.0</ele><time>2026-05-01T14:42:59.154Z</time></trkpt><trkpt lat="44.4271533" lon="8.41707"><ele>560.6</ele><time>2026-05-01T14:43:00.152Z</time></trkpt><trkpt lat="44.4271967" lon="8.41719"><ele>562.2</ele><time>2026-05-01T14:43:01.155Z</time></trkpt><trkpt lat="44.4272667" lon="8.4172867"><ele>563.8000000000001</ele><time>2026-05-01T14:43:02.152Z</time></trkpt><trkpt lat="44.4273617" lon="8.4173633"><ele>565.4</ele><time>2026-05-01T14:43:03.152Z</time></trkpt><trkpt lat="44.4274717" lon="8.4174333"><ele>567.0</ele><time>2026-05-01T14:43:04.155Z</time></trkpt><trkpt lat="44.427585" lon="8.4174983"><ele>567.0</ele><time>2026-05-01T14:43:05.154Z</time></trkpt><trkpt lat="44.427695" lon="8.4175633"><ele>567.0</ele><time>2026-05-01T14:43:06.157Z</time></trkpt><trkpt lat="44.4277933" lon="8.41763"><ele>567.0</ele><time>2026-05-01T14:43:07.154Z</time></trkpt><trkpt lat="44.42788" lon="8.4177083"><ele>567.0</ele><time>2026-05-01T14:43:08.153Z</time></trkpt><trkpt lat="44.4279533" lon="8.417805"><ele>567.0</ele><time>2026-05-01T14:43:09.153Z</time></trkpt><trkpt lat="44.42799" lon="8.4179367"><ele>565.25</ele><time>2026-05-01T14:43:10.152Z</time></trkpt><trkpt lat="44.4280167" lon="8.418055"><ele>563.5</ele><time>2026-05-01T14:43:11.158Z</time></trkpt><trkpt lat="44.4280117" lon="8.4182267"><ele>561.75</ele><time>2026-05-01T14:43:12.153Z</time></trkpt><trkpt lat="44.427995" lon="8.4184317"><ele>560.0</ele><time>2026-05-01T14:43:13.154Z</time></trkpt><trkpt lat="44.4279967" lon="8.4186083"><ele>560.0</ele><time>2026-05-01T14:43:14.152Z</time></trkpt><trkpt lat="44.4280017" lon="8.418795"><ele>560.0</ele><time>2026-05-01T14:43:15.151Z</time></trkpt><trkpt lat="44.4280167" lon="8.4189767"><ele>560.0</ele><time>2026-05-01T14:43:16.156Z</time></trkpt><trkpt lat="44.42805" lon="8.4191467"><ele>560.0</ele><time>2026-05-01T14:43:17.152Z</time></trkpt><trkpt lat="44.428095" lon="8.4193067"><ele>562.25</ele><time>2026-05-01T14:43:18.155Z</time></trkpt><trkpt lat="44.4281467" lon="8.4194583"><ele>564.5</ele><time>2026-05-01T14:43:19.151Z</time></trkpt><trkpt lat="44.4282217" lon="8.4195833"><ele>566.75</ele><time>2026-05-01T14:43:20.151Z</time></trkpt><trkpt lat="44.4283033" lon="8.4197017"><ele>569.0</ele><time>2026-05-01T14:43:21.151Z</time></trkpt><trkpt lat="44.4284" lon="8.4197883"><ele>571.0</ele><time>2026-05-01T14:43:22.154Z</time></trkpt><trkpt lat="44.4285067" lon="8.4198533"><ele>573.0</ele><time>2026-05-01T14:43:23.152Z</time></trkpt><trkpt lat="44.4286267" lon="8.4198783"><ele>575.0</ele><time>2026-05-01T14:43:24.152Z</time></trkpt><trkpt lat="44.42873" lon="8.41994"><ele>577.0</ele><time>2026-05-01T14:43:25.155Z</time></trkpt><trkpt lat="44.428835" lon="8.419995"><ele>577.0</ele><time>2026-05-01T14:43:26.153Z</time></trkpt><trkpt lat="44.42894" lon="8.42003"><ele>577.0</ele><time>2026-05-01T14:43:27.155Z</time></trkpt><trkpt lat="44.4290433" lon="8.4200433"><ele>577.0</ele><time>2026-05-01T14:43:28.152Z</time></trkpt><trkpt lat="44.4291433" lon="8.4200283"><ele>577.0</ele><time>2026-05-01T14:43:29.156Z</time></trkpt><trkpt lat="44.429245" lon="8.41997"><ele>577.0</ele><time>2026-05-01T14:43:30.154Z</time></trkpt><trkpt lat="44.42935" lon="8.4198933"><ele>577.0</ele><time>2026-05-01T14:43:31.157Z</time></trkpt><trkpt lat="44.4294633" lon="8.4198167"><ele>577.0</ele><time>2026-05-01T14:43:32.154Z</time></trkpt><trkpt lat="44.4295817" lon="8.4197367"><ele>577.0</ele><time>2026-05-01T14:43:33.155Z</time></trkpt><trkpt lat="44.4297017" lon="8.4196517"><ele>577.0</ele><time>2026-05-01T14:43:34.153Z</time></trkpt><trkpt lat="44.4298167" lon="8.4195867"><ele>577.8000000000001</ele><time>2026-05-01T14:43:35.155Z</time></trkpt><trkpt lat="44.4299267" lon="8.41954"><ele>578.6</ele><time>2026-05-01T14:43:36.154Z</time></trkpt><trkpt lat="44.43003" lon="8.4195233"><ele>579.4000000000001</ele><time>2026-05-01T14:43:37.158Z</time></trkpt><trkpt lat="44.4301167" lon="8.4195483"><ele>580.2</ele><time>2026-05-01T14:43:38.152Z</time></trkpt><trkpt lat="44.430195" lon="8.41961"><ele>581.0</ele><time>2026-05-01T14:43:39.156Z</time></trkpt><trkpt lat="44.43026" lon="8.41971"><ele>581.0</ele><time>2026-05-01T14:43:40.154Z</time></trkpt><trkpt lat="44.4302867" lon="8.419885"><ele>581.0</ele><time>2026-05-01T14:43:41.154Z</time></trkpt><trkpt lat="44.43031" lon="8.4200783"><ele>581.0</ele><time>2026-05-01T14:43:42.154Z</time></trkpt><trkpt lat="44.430335" lon="8.420275"><ele>581.0</ele><time>2026-05-01T14:43:43.157Z</time></trkpt><trkpt lat="44.4303683" lon="8.4204683"><ele>580.0</ele><time>2026-05-01T14:43:44.154Z</time></trkpt><trkpt lat="44.4304133" lon="8.42066"><ele>579.0</ele><time>2026-05-01T14:43:45.151Z</time></trkpt><trkpt lat="44.4304733" lon="8.4208533"><ele>578.0</ele><time>2026-05-01T14:43:46.153Z</time></trkpt><trkpt lat="44.4305567" lon="8.421025"><ele>577.0</ele><time>2026-05-01T14:43:47.152Z</time></trkpt><trkpt lat="44.430655" lon="8.4211767"><ele>573.6666666666667</ele><time>2026-05-01T14:43:48.149Z</time></trkpt><trkpt lat="44.43076" lon="8.4213267"><ele>570.3333333333334</ele><time>2026-05-01T14:43:49.155Z</time></trkpt><trkpt lat="44.4308783" lon="8.4214583"><ele>567.0</ele><time>2026-05-01T14:43:50.153Z</time></trkpt><trkpt lat="44.4310017" lon="8.4215833"><ele>567.0</ele><time>2026-05-01T14:43:51.158Z</time></trkpt><trkpt lat="44.4311267" lon="8.421705"><ele>567.0</ele><time>2026-05-01T14:43:52.158Z</time></trkpt><trkpt lat="44.4312467" lon="8.4218167"><ele>567.0</ele><time>2026-05-01T14:43:53.155Z</time></trkpt><trkpt lat="44.431345" lon="8.4219583"><ele>567.0</ele><time>2026-05-01T14:43:54.151Z</time></trkpt><trkpt lat="44.4314317" lon="8.42212"><ele>568.25</ele><time>2026-05-01T14:43:55.158Z</time></trkpt><trkpt lat="44.4315117" lon="8.4222883"><ele>569.5</ele><time>2026-05-01T14:43:56.16Z</time></trkpt><trkpt lat="44.4315917" lon="8.422445"><ele>570.75</ele><time>2026-05-01T14:43:57.155Z</time></trkpt><trkpt lat="44.431665" lon="8.4225917"><ele>572.0</ele><time>2026-05-01T14:43:58.154Z</time></trkpt><trkpt lat="44.4317467" lon="8.4227133"><ele>572.0</ele><time>2026-05-01T14:43:59.156Z</time></trkpt><trkpt lat="44.4318583" lon="8.4227867"><ele>572.0</ele><time>2026-05-01T14:44:00.158Z</time></trkpt><trkpt lat="44.4319767" lon="8.4228633"><ele>572.0</ele><time>2026-05-01T14:44:01.153Z</time></trkpt><trkpt lat="44.4321117" lon="8.4229333"><ele>572.0</ele><time>2026-05-01T14:44:02.151Z</time></trkpt><trkpt lat="44.4322517" lon="8.4230067"><ele>571.5</ele><time>2026-05-01T14:44:03.152Z</time></trkpt><trkpt lat="44.4323867" lon="8.4230783"><ele>571.0</ele><time>2026-05-01T14:44:04.152Z</time></trkpt><trkpt lat="44.432515" lon="8.423145"><ele>570.5</ele><time>2026-05-01T14:44:05.157Z</time></trkpt><trkpt lat="44.432635" lon="8.4232133"><ele>570.0</ele><time>2026-05-01T14:44:06.15Z</time></trkpt><trkpt lat="44.432755" lon="8.4232833"><ele>570.0</ele><time>2026-05-01T14:44:07.152Z</time></trkpt><trkpt lat="44.43286" lon="8.42337"><ele>570.0</ele><time>2026-05-01T14:44:08.151Z</time></trkpt><trkpt lat="44.432965" lon="8.4234533"><ele>570.0</ele><time>2026-05-01T14:44:09.156Z</time></trkpt><trkpt lat="44.4330683" lon="8.4235433"><ele>570.0</ele><time>2026-05-01T14:44:10.152Z</time></trkpt><trkpt lat="44.4331767" lon="8.4236233"><ele>568.5</ele><time>2026-05-01T14:44:11.153Z</time></trkpt><trkpt lat="44.4332933" lon="8.4236933"><ele>567.0</ele><time>2026-05-01T14:44:12.149Z</time></trkpt><trkpt lat="44.4334183" lon="8.4237733"><ele>565.5</ele><time>2026-05-01T14:44:13.153Z</time></trkpt><trkpt lat="44.4335433" lon="8.4238733"><ele>564.0</ele><time>2026-05-01T14:44:14.151Z</time></trkpt><trkpt lat="44.4336617" lon="8.424"><ele>564.0</ele><time>2026-05-01T14:44:15.154Z</time></trkpt><trkpt lat="44.4337717" lon="8.42414"><ele>564.0</ele><time>2026-05-01T14:44:16.15Z</time></trkpt><trkpt lat="44.4338767" lon="8.42429"><ele>564.0</ele><time>2026-05-01T14:44:17.153Z</time></trkpt><trkpt lat="44.4339883" lon="8.4244317"><ele>564.0</ele><time>2026-05-01T14:44:18.151Z</time></trkpt><trkpt lat="44.4341117" lon="8.42455"><ele>564.75</ele><time>2026-05-01T14:44:19.152Z</time></trkpt><trkpt lat="44.434245" lon="8.424665"><ele>565.5</ele><time>2026-05-01T14:44:20.152Z</time></trkpt><trkpt lat="44.4343683" lon="8.4247717"><ele>566.25</ele><time>2026-05-01T14:44:21.154Z</time></trkpt><trkpt lat="44.43447" lon="8.4248917"><ele>567.0</ele><time>2026-05-01T14:44:22.157Z</time></trkpt><trkpt lat="44.4345367" lon="8.42503"><ele>567.0</ele><time>2026-05-01T14:44:23.159Z</time></trkpt><trkpt lat="44.4345917" lon="8.4251833"><ele>567.0</ele><time>2026-05-01T14:44:24.152Z</time></trkpt><trkpt lat="44.4346633" lon="8.4253167"><ele>567.0</ele><time>2026-05-01T14:44:25.152Z</time></trkpt><trkpt lat="44.434745" lon="8.4254533"><ele>567.0</ele><time>2026-05-01T14:44:26.154Z</time></trkpt><trkpt lat="44.4348433" lon="8.4255783"><ele>568.75</ele><time>2026-05-01T14:44:27.153Z</time></trkpt><trkpt lat="44.43495" lon="8.4256967"><ele>570.5</ele><time>2026-05-01T14:44:28.154Z</time></trkpt><trkpt lat="44.4350667" lon="8.4258017"><ele>572.25</ele><time>2026-05-01T14:44:29.155Z</time></trkpt><trkpt lat="44.43519" lon="8.4258933"><ele>574.0</ele><time>2026-05-01T14:44:30.157Z</time></trkpt><trkpt lat="44.435315" lon="8.4259917"><ele>574.0</ele><time>2026-05-01T14:44:31.156Z</time></trkpt><trkpt lat="44.4354317" lon="8.426095"><ele>574.0</ele><time>2026-05-01T14:44:32.153Z</time></trkpt><trkpt lat="44.43552" lon="8.42624"><ele>574.0</ele><time>2026-05-01T14:44:33.153Z</time></trkpt><trkpt lat="44.4355833" lon="8.4264117"><ele>574.0</ele><time>2026-05-01T14:44:34.156Z</time></trkpt><trkpt lat="44.435635" lon="8.426615"><ele>574.0</ele><time>2026-05-01T14:44:35.156Z</time></trkpt><trkpt lat="44.4356883" lon="8.4268333"><ele>574.0</ele><time>2026-05-01T14:44:36.154Z</time></trkpt><trkpt lat="44.4357317" lon="8.4270683"><ele>574.0</ele><time>2026-05-01T14:44:37.157Z</time></trkpt><trkpt lat="44.4357733" lon="8.4273017"><ele>573.6666666666667</ele><time>2026-05-01T14:44:38.156Z</time></trkpt><trkpt lat="44.435815" lon="8.427535"><ele>573.3333333333334</ele><time>2026-05-01T14:44:39.158Z</time></trkpt><trkpt lat="44.43585" lon="8.4277817"><ele>573.0</ele><time>2026-05-01T14:44:40.152Z</time></trkpt><trkpt lat="44.43589" lon="8.4280167"><ele>573.0</ele><time>2026-05-01T14:44:41.153Z</time></trkpt><trkpt lat="44.4359283" lon="8.4282567"><ele>573.0</ele><time>2026-05-01T14:44:42.156Z</time></trkpt><trkpt lat="44.4359833" lon="8.4284817"><ele>573.0</ele><time>2026-05-01T14:44:43.153Z</time></trkpt><trkpt lat="44.4360533" lon="8.4287017"><ele>575.6666666666666</ele><time>2026-05-01T14:44:44.151Z</time></trkpt><trkpt lat="44.436145" lon="8.4289117"><ele>578.3333333333333</ele><time>2026-05-01T14:44:45.151Z</time></trkpt><trkpt lat="44.4362567" lon="8.4291117"><ele>581.0</ele><time>2026-05-01T14:44:46.151Z</time></trkpt><trkpt lat="44.4363833" lon="8.4293033"><ele>581.0</ele><time>2026-05-01T14:44:47.154Z</time></trkpt><trkpt lat="44.436515" lon="8.4294817"><ele>581.0</ele><time>2026-05-01T14:44:48.151Z</time></trkpt><trkpt lat="44.43664" lon="8.4296467"><ele>581.0</ele><time>2026-05-01T14:44:49.151Z</time></trkpt><trkpt lat="44.436755" lon="8.4298033"><ele>574.0</ele><time>2026-05-01T14:44:50.152Z</time></trkpt><trkpt lat="44.4368517" lon="8.42997"><ele>567.0</ele><time>2026-05-01T14:44:51.155Z</time></trkpt><trkpt lat="44.4369383" lon="8.4301633"><ele>560.0</ele><time>2026-05-01T14:44:52.152Z</time></trkpt><trkpt lat="44.43701" lon="8.4303733"><ele>561.5</ele><time>2026-05-01T14:44:53.151Z</time></trkpt><trkpt lat="44.4370733" lon="8.4305867"><ele>563.0</ele><time>2026-05-01T14:44:54.153Z</time></trkpt><trkpt lat="44.4371283" lon="8.4307767"><ele>564.5</ele><time>2026-05-01T14:44:55.154Z</time></trkpt><trkpt lat="44.4371583" lon="8.4309483"><ele>566.0</ele><time>2026-05-01T14:44:56.154Z</time></trkpt><trkpt lat="44.4371617" lon="8.4311317"><ele>558.5</ele><time>2026-05-01T14:44:57.153Z</time></trkpt><trkpt lat="44.4371333" lon="8.4313217"><ele>551.0</ele><time>2026-05-01T14:44:58.155Z</time></trkpt><trkpt lat="44.4371033" lon="8.4315067"><ele>543.5</ele><time>2026-05-01T14:44:59.151Z</time></trkpt><trkpt lat="44.43707" lon="8.4317033"><ele>536.0</ele><time>2026-05-01T14:45:00.154Z</time></trkpt><trkpt lat="44.4370383" lon="8.43191"><ele>536.0</ele><time>2026-05-01T14:45:01.153Z</time></trkpt><trkpt lat="44.4370017" lon="8.4321317"><ele>536.0</ele><time>2026-05-01T14:45:02.153Z</time></trkpt><trkpt lat="44.4369633" lon="8.432355"><ele>536.0</ele><time>2026-05-01T14:45:03.15Z</time></trkpt><trkpt lat="44.43692" lon="8.43258"><ele>534.6666666666666</ele><time>2026-05-01T14:45:04.158Z</time></trkpt><trkpt lat="44.4368783" lon="8.4328083"><ele>533.3333333333334</ele><time>2026-05-01T14:45:05.155Z</time></trkpt><trkpt lat="44.4368333" lon="8.433035"><ele>532.0</ele><time>2026-05-01T14:45:06.151Z</time></trkpt><trkpt lat="44.4367883" lon="8.4332583"><ele>532.0</ele><time>2026-05-01T14:45:07.151Z</time></trkpt><trkpt lat="44.4367417" lon="8.433485"><ele>532.0</ele><time>2026-05-01T14:45:08.153Z</time></trkpt><trkpt lat="44.4366967" lon="8.4337083"><ele>532.0</ele><time>2026-05-01T14:45:09.152Z</time></trkpt><trkpt lat="44.4366517" lon="8.4339283"><ele>531.0</ele><time>2026-05-01T14:45:10.152Z</time></trkpt><trkpt lat="44.436595" lon="8.4341383"><ele>530.0</ele><time>2026-05-01T14:45:11.151Z</time></trkpt><trkpt lat="44.4365317" lon="8.4343467"><ele>529.0</ele><time>2026-05-01T14:45:12.152Z</time></trkpt><trkpt lat="44.43647" lon="8.4345333"><ele>525.25</ele><time>2026-05-01T14:45:13.161Z</time></trkpt><trkpt lat="44.4364067" lon="8.4347067"><ele>521.5</ele><time>2026-05-01T14:45:14.155Z</time></trkpt><trkpt lat="44.4363417" lon="8.434855"><ele>517.75</ele><time>2026-05-01T14:45:15.153Z</time></trkpt><trkpt lat="44.4362833" lon="8.4349967"><ele>514.0</ele><time>2026-05-01T14:45:16.153Z</time></trkpt><trkpt lat="44.4362483" lon="8.4351317"><ele>514.0</ele><time>2026-05-01T14:45:17.157Z</time></trkpt><trkpt lat="44.4362283" lon="8.4352483"><ele>514.0</ele><time>2026-05-01T14:45:18.154Z</time></trkpt><trkpt lat="44.4362217" lon="8.4353633"><ele>514.0</ele><time>2026-05-01T14:45:19.154Z</time></trkpt><trkpt lat="44.436235" lon="8.4354617"><ele>514.0</ele><time>2026-05-01T14:45:20.153Z</time></trkpt><trkpt lat="44.43632" lon="8.4355683"><ele>514.0</ele><time>2026-05-01T14:45:22.154Z</time></trkpt><trkpt lat="44.4364417" lon="8.435445"><ele>514.0</ele><time>2026-05-01T14:45:23.156Z</time></trkpt><trkpt lat="44.4365417" lon="8.4353483"><ele>514.0</ele><time>2026-05-01T14:45:24.154Z</time></trkpt><trkpt lat="44.4366133" lon="8.4352"><ele>514.0</ele><time>2026-05-01T14:45:25.152Z</time></trkpt><trkpt lat="44.4366783" lon="8.4350483"><ele>514.0</ele><time>2026-05-01T14:45:26.152Z</time></trkpt><trkpt lat="44.43674" lon="8.434905"><ele>514.0</ele><time>2026-05-01T14:45:27.153Z</time></trkpt><trkpt lat="44.4368117" lon="8.4347833"><ele>514.0</ele><time>2026-05-01T14:45:28.152Z</time></trkpt><trkpt lat="44.4368983" lon="8.434685"><ele>514.0</ele><time>2026-05-01T14:45:29.157Z</time></trkpt><trkpt lat="44.4369817" lon="8.4345783"><ele>514.0</ele><time>2026-05-01T14:45:30.153Z</time></trkpt><trkpt lat="44.4370567" lon="8.4344583"><ele>517.75</ele><time>2026-05-01T14:45:31.158Z</time></trkpt><trkpt lat="44.437125" lon="8.4343167"><ele>521.5</ele><time>2026-05-01T14:45:32.153Z</time></trkpt><trkpt lat="44.4372" lon="8.434165"><ele>525.25</ele><time>2026-05-01T14:45:33.155Z</time></trkpt><trkpt lat="44.43729" lon="8.43401"><ele>529.0</ele><time>2026-05-01T14:45:34.155Z</time></trkpt><trkpt lat="44.4373867" lon="8.43385"><ele>523.0</ele><time>2026-05-01T14:45:35.156Z</time></trkpt><trkpt lat="44.4374917" lon="8.4336933"><ele>517.0</ele><time>2026-05-01T14:45:36.155Z</time></trkpt><trkpt lat="44.4375967" lon="8.4335433"><ele>511.0</ele><time>2026-05-01T14:45:37.157Z</time></trkpt><trkpt lat="44.4377033" lon="8.4334"><ele>511.0</ele><time>2026-05-01T14:45:38.154Z</time></trkpt><trkpt lat="44.437815" lon="8.4332683"><ele>511.0</ele><time>2026-05-01T14:45:39.154Z</time></trkpt><trkpt lat="44.437935" lon="8.4331517"><ele>511.0</ele><time>2026-05-01T14:45:40.152Z</time></trkpt><trkpt lat="44.43806" lon="8.43305"><ele>511.0</ele><time>2026-05-01T14:45:41.154Z</time></trkpt><trkpt lat="44.438185" lon="8.4329483"><ele>507.0</ele><time>2026-05-01T14:45:42.153Z</time></trkpt><trkpt lat="44.4383167" lon="8.432845"><ele>503.0</ele><time>2026-05-01T14:45:43.154Z</time></trkpt><trkpt lat="44.43845" lon="8.4327467"><ele>499.0</ele><time>2026-05-01T14:45:44.155Z</time></trkpt><trkpt lat="44.438585" lon="8.4326567"><ele>499.0</ele><time>2026-05-01T14:45:45.157Z</time></trkpt><trkpt lat="44.4387267" lon="8.4325817"><ele>499.0</ele><time>2026-05-01T14:45:46.156Z</time></trkpt><trkpt lat="44.438855" lon="8.4325083"><ele>499.0</ele><time>2026-05-01T14:45:47.159Z</time></trkpt><trkpt lat="44.43898" lon="8.432455"><ele>499.0</ele><time>2026-05-01T14:45:48.155Z</time></trkpt><trkpt lat="44.4391083" lon="8.43242"><ele>494.25</ele><time>2026-05-01T14:45:49.154Z</time></trkpt><trkpt lat="44.4392367" lon="8.4324117"><ele>489.5</ele><time>2026-05-01T14:45:50.156Z</time></trkpt><trkpt lat="44.43937" lon="8.4323917"><ele>484.75</ele><time>2026-05-01T14:45:51.152Z</time></trkpt><trkpt lat="44.439505" lon="8.4323483"><ele>480.0</ele><time>2026-05-01T14:45:52.16Z</time></trkpt><trkpt lat="44.4396417" lon="8.4322983"><ele>480.0</ele><time>2026-05-01T14:45:53.156Z</time></trkpt><trkpt lat="44.4397783" lon="8.432225"><ele>480.0</ele><time>2026-05-01T14:45:54.152Z</time></trkpt><trkpt lat="44.43991" lon="8.4321467"><ele>480.0</ele><time>2026-05-01T14:45:55.151Z</time></trkpt><trkpt lat="44.4400433" lon="8.4320917"><ele>480.0</ele><time>2026-05-01T14:45:56.152Z</time></trkpt><trkpt lat="44.4401767" lon="8.43207"><ele>480.0</ele><time>2026-05-01T14:45:57.152Z</time></trkpt><trkpt lat="44.4403217" lon="8.4320533"><ele>480.0</ele><time>2026-05-01T14:45:58.152Z</time></trkpt><trkpt lat="44.4404683" lon="8.4320533"><ele>480.0</ele><time>2026-05-01T14:45:59.153Z</time></trkpt><trkpt lat="44.44061" lon="8.4320917"><ele>480.0</ele><time>2026-05-01T14:46:00.152Z</time></trkpt><trkpt lat="44.4407483" lon="8.4321267"><ele>474.75</ele><time>2026-05-01T14:46:01.153Z</time></trkpt><trkpt lat="44.440865" lon="8.4321717"><ele>469.5</ele><time>2026-05-01T14:46:02.152Z</time></trkpt><trkpt lat="44.4409733" lon="8.4322283"><ele>464.25</ele><time>2026-05-01T14:46:03.157Z</time></trkpt><trkpt lat="44.4410817" lon="8.4323367"><ele>459.0</ele><time>2026-05-01T14:46:04.149Z</time></trkpt><trkpt lat="44.4411733" lon="8.4324583"><ele>459.0</ele><time>2026-05-01T14:46:05.155Z</time></trkpt><trkpt lat="44.4412683" lon="8.4326067"><ele>459.0</ele><time>2026-05-01T14:46:06.15Z</time></trkpt><trkpt lat="44.44137" lon="8.432765"><ele>459.0</ele><time>2026-05-01T14:46:07.156Z</time></trkpt><trkpt lat="44.4414767" lon="8.4329267"><ele>455.0</ele><time>2026-05-01T14:46:08.156Z</time></trkpt><trkpt lat="44.44158" lon="8.433105"><ele>451.0</ele><time>2026-05-01T14:46:09.153Z</time></trkpt><trkpt lat="44.4416933" lon="8.4332733"><ele>447.0</ele><time>2026-05-01T14:46:10.155Z</time></trkpt><trkpt lat="44.4418083" lon="8.4334317"><ele>447.0</ele><time>2026-05-01T14:46:11.16Z</time></trkpt><trkpt lat="44.4419283" lon="8.4335633"><ele>447.0</ele><time>2026-05-01T14:46:12.155Z</time></trkpt><trkpt lat="44.4420417" lon="8.4336733"><ele>447.0</ele><time>2026-05-01T14:46:13.156Z</time></trkpt><trkpt lat="44.4421583" lon="8.4337567"><ele>447.0</ele><time>2026-05-01T14:46:14.152Z</time></trkpt><trkpt lat="44.4422717" lon="8.4338283"><ele>444.75</ele><time>2026-05-01T14:46:15.155Z</time></trkpt><trkpt lat="44.442395" lon="8.43388"><ele>442.5</ele><time>2026-05-01T14:46:16.159Z</time></trkpt><trkpt lat="44.442525" lon="8.433945"><ele>440.25</ele><time>2026-05-01T14:46:17.151Z</time></trkpt><trkpt lat="44.44266" lon="8.43401"><ele>438.0</ele><time>2026-05-01T14:46:18.15Z</time></trkpt><trkpt lat="44.4427967" lon="8.4340733"><ele>438.0</ele><time>2026-05-01T14:46:19.154Z</time></trkpt><trkpt lat="44.44292" lon="8.4341333"><ele>438.0</ele><time>2026-05-01T14:46:20.155Z</time></trkpt><trkpt lat="44.4430283" lon="8.43419"><ele>438.0</ele><time>2026-05-01T14:46:21.159Z</time></trkpt><trkpt lat="44.44313" lon="8.4342483"><ele>438.0</ele><time>2026-05-01T14:46:22.153Z</time></trkpt><trkpt lat="44.4432383" lon="8.4342933"><ele>436.5</ele><time>2026-05-01T14:46:23.155Z</time></trkpt><trkpt lat="44.4433483" lon="8.4343333"><ele>435.0</ele><time>2026-05-01T14:46:24.155Z</time></trkpt><trkpt lat="44.4434717" lon="8.4343683"><ele>433.5</ele><time>2026-05-01T14:46:25.157Z</time></trkpt><trkpt lat="44.4436083" lon="8.4344"><ele>432.0</ele><time>2026-05-01T14:46:26.155Z</time></trkpt><trkpt lat="44.44375" lon="8.43442"><ele>431.5</ele><time>2026-05-01T14:46:27.158Z</time></trkpt><trkpt lat="44.4438817" lon="8.4344383"><ele>431.0</ele><time>2026-05-01T14:46:28.155Z</time></trkpt><trkpt lat="44.4439983" lon="8.4344533"><ele>430.5</ele><time>2026-05-01T14:46:29.152Z</time></trkpt><trkpt lat="44.4441117" lon="8.4344683"><ele>430.0</ele><time>2026-05-01T14:46:30.154Z</time></trkpt><trkpt lat="44.4442117" lon="8.4344917"><ele>430.00000000000006</ele><time>2026-05-01T14:46:31.158Z</time></trkpt><trkpt lat="44.4442933" lon="8.4345233"><ele>430.0</ele><time>2026-05-01T14:46:32.153Z</time></trkpt><trkpt lat="44.4443667" lon="8.43456"><ele>430.0</ele><time>2026-05-01T14:46:33.153Z</time></trkpt><trkpt lat="44.4444283" lon="8.4346"><ele>430.0</ele><time>2026-05-01T14:46:34.156Z</time></trkpt><trkpt lat="44.444505" lon="8.4346683"><ele>430.00000000000006</ele><time>2026-05-01T14:46:36.151Z</time></trkpt><trkpt lat="44.4445267" lon="8.4347583"><ele>430.0</ele><time>2026-05-01T14:46:38.153Z</time></trkpt><trkpt lat="44.4444917" lon="8.4348717"><ele>429.6666666666667</ele><time>2026-05-01T14:46:40.155Z</time></trkpt><trkpt lat="44.4444433" lon="8.4349333"><ele>429.33333333333337</ele><time>2026-05-01T14:46:41.157Z</time></trkpt><trkpt lat="44.4443733" lon="8.4350133"><ele>429.0</ele><time>2026-05-01T14:46:42.153Z</time></trkpt><trkpt lat="44.4443067" lon="8.4350983"><ele>428.66666666666663</ele><time>2026-05-01T14:46:43.156Z</time></trkpt><trkpt lat="44.44425" lon="8.43517"><ele>428.3333333333333</ele><time>2026-05-01T14:46:44.154Z</time></trkpt><trkpt lat="44.44419" lon="8.435245"><ele>428.0</ele><time>2026-05-01T14:46:45.153Z</time></trkpt><trkpt lat="44.4441267" lon="8.4353167"><ele>428.0</ele><time>2026-05-01T14:46:46.153Z</time></trkpt><trkpt lat="44.4440617" lon="8.4353883"><ele>427.99999999999994</ele><time>2026-05-01T14:46:47.154Z</time></trkpt><trkpt lat="44.4439933" lon="8.43548"><ele>427.99999999999994</ele><time>2026-05-01T14:46:48.153Z</time></trkpt><trkpt lat="44.4439183" lon="8.4355667"><ele>428.0</ele><time>2026-05-01T14:46:49.153Z</time></trkpt><trkpt lat="44.4438383" lon="8.4356567"><ele>428.0</ele><time>2026-05-01T14:46:50.152Z</time></trkpt><trkpt lat="44.4437517" lon="8.4357533"><ele>428.5</ele><time>2026-05-01T14:46:51.15Z</time></trkpt><trkpt lat="44.4436617" lon="8.4358533"><ele>429.0</ele><time>2026-05-01T14:46:52.153Z</time></trkpt><trkpt lat="44.4435817" lon="8.4359617"><ele>429.5</ele><time>2026-05-01T14:46:53.154Z</time></trkpt><trkpt lat="44.4434967" lon="8.4360683"><ele>430.0</ele><time>2026-05-01T14:46:54.152Z</time></trkpt><trkpt lat="44.443405" lon="8.4361683"><ele>430.0</ele><time>2026-05-01T14:46:55.154Z</time></trkpt><trkpt lat="44.443325" lon="8.436285"><ele>430.0</ele><time>2026-05-01T14:46:56.154Z</time></trkpt><trkpt lat="44.4432383" lon="8.4363933"><ele>430.0</ele><time>2026-05-01T14:46:57.154Z</time></trkpt><trkpt lat="44.443145" lon="8.4364933"><ele>430.0</ele><time>2026-05-01T14:46:58.156Z</time></trkpt><trkpt lat="44.4430483" lon="8.43659"><ele>431.25</ele><time>2026-05-01T14:46:59.157Z</time></trkpt><trkpt lat="44.4429467" lon="8.4366767"><ele>432.5</ele><time>2026-05-01T14:47:00.151Z</time></trkpt><trkpt lat="44.4428383" lon="8.43676"><ele>433.75</ele><time>2026-05-01T14:47:01.154Z</time></trkpt><trkpt lat="44.4427283" lon="8.436845"><ele>435.0</ele><time>2026-05-01T14:47:02.154Z</time></trkpt><trkpt lat="44.4426233" lon="8.4369383"><ele>435.0</ele><time>2026-05-01T14:47:03.151Z</time></trkpt><trkpt lat="44.4425183" lon="8.4370333"><ele>435.0</ele><time>2026-05-01T14:47:04.151Z</time></trkpt><trkpt lat="44.442405" lon="8.4371267"><ele>435.0</ele><time>2026-05-01T14:47:05.154Z</time></trkpt><trkpt lat="44.4423" lon="8.4372283"><ele>435.0</ele><time>2026-05-01T14:47:06.15Z</time></trkpt><trkpt lat="44.442195" lon="8.4373267"><ele>435.25</ele><time>2026-05-01T14:47:07.157Z</time></trkpt><trkpt lat="44.442085" lon="8.4374167"><ele>435.5</ele><time>2026-05-01T14:47:08.159Z</time></trkpt><trkpt lat="44.441975" lon="8.4375033"><ele>435.75</ele><time>2026-05-01T14:47:09.153Z</time></trkpt><trkpt lat="44.4418717" lon="8.4375967"><ele>436.0</ele><time>2026-05-01T14:47:10.154Z</time></trkpt><trkpt lat="44.441755" lon="8.4376833"><ele>436.0</ele><time>2026-05-01T14:47:11.154Z</time></trkpt><trkpt lat="44.44164" lon="8.437775"><ele>436.0</ele><time>2026-05-01T14:47:12.156Z</time></trkpt><trkpt lat="44.4415333" lon="8.4378733"><ele>436.0</ele><time>2026-05-01T14:47:13.15Z</time></trkpt><trkpt lat="44.4414233" lon="8.43797"><ele>436.0</ele><time>2026-05-01T14:47:14.151Z</time></trkpt><trkpt lat="44.4413083" lon="8.4380617"><ele>435.0</ele><time>2026-05-01T14:47:15.152Z</time></trkpt><trkpt lat="44.4411967" lon="8.4381617"><ele>434.0</ele><time>2026-05-01T14:47:16.15Z</time></trkpt><trkpt lat="44.441085" lon="8.438275"><ele>433.0</ele><time>2026-05-01T14:47:17.155Z</time></trkpt><trkpt lat="44.4409717" lon="8.438405"><ele>432.0</ele><time>2026-05-01T14:47:18.153Z</time></trkpt><trkpt lat="44.44085" lon="8.438535"><ele>432.0</ele><time>2026-05-01T14:47:19.152Z</time></trkpt><trkpt lat="44.440735" lon="8.4386817"><ele>432.0</ele><time>2026-05-01T14:47:20.154Z</time></trkpt><trkpt lat="44.44062" lon="8.4388383"><ele>432.0</ele><time>2026-05-01T14:47:21.152Z</time></trkpt><trkpt lat="44.4405017" lon="8.4389933"><ele>431.33333333333337</ele><time>2026-05-01T14:47:22.153Z</time></trkpt><trkpt lat="44.4403833" lon="8.4391517"><ele>430.6666666666667</ele><time>2026-05-01T14:47:23.154Z</time></trkpt><trkpt lat="44.44026" lon="8.439315"><ele>430.0</ele><time>2026-05-01T14:47:24.154Z</time></trkpt><trkpt lat="44.4401367" lon="8.4394817"><ele>431.33333333333337</ele><time>2026-05-01T14:47:25.149Z</time></trkpt><trkpt lat="44.4400117" lon="8.439645"><ele>432.66666666666663</ele><time>2026-05-01T14:47:26.153Z</time></trkpt><trkpt lat="44.439885" lon="8.43981"><ele>434.0</ele><time>2026-05-01T14:47:27.155Z</time></trkpt><trkpt lat="44.4397583" lon="8.439975"><ele>433.66666666666663</ele><time>2026-05-01T14:47:28.152Z</time></trkpt><trkpt lat="44.4396333" lon="8.4401367"><ele>433.33333333333337</ele><time>2026-05-01T14:47:29.152Z</time></trkpt><trkpt lat="44.43951" lon="8.4403"><ele>433.0</ele><time>2026-05-01T14:47:30.151Z</time></trkpt><trkpt lat="44.4393833" lon="8.440465"><ele>434.0</ele><time>2026-05-01T14:47:31.154Z</time></trkpt><trkpt lat="44.4392583" lon="8.4406383"><ele>435.0</ele><time>2026-05-01T14:47:32.155Z</time></trkpt><trkpt lat="44.4391383" lon="8.4408033"><ele>436.0</ele><time>2026-05-01T14:47:33.151Z</time></trkpt><trkpt lat="44.4390283" lon="8.44097"><ele>436.0</ele><time>2026-05-01T14:47:34.153Z</time></trkpt><trkpt lat="44.4389233" lon="8.4411383"><ele>436.0</ele><time>2026-05-01T14:47:35.154Z</time></trkpt><trkpt lat="44.438835" lon="8.4413117"><ele>436.0</ele><time>2026-05-01T14:47:36.157Z</time></trkpt><trkpt lat="44.43877" lon="8.441485"><ele>436.0</ele><time>2026-05-01T14:47:37.155Z</time></trkpt><trkpt lat="44.43872" lon="8.4416633"><ele>436.0</ele><time>2026-05-01T14:47:38.15Z</time></trkpt><trkpt lat="44.438685" lon="8.4418433"><ele>436.0</ele><time>2026-05-01T14:47:39.153Z</time></trkpt><trkpt lat="44.4386667" lon="8.4420367"><ele>436.0</ele><time>2026-05-01T14:47:40.158Z</time></trkpt><trkpt lat="44.4386567" lon="8.4422467"><ele>436.0</ele><time>2026-05-01T14:47:41.155Z</time></trkpt><trkpt lat="44.438645" lon="8.4424633"><ele>436.0</ele><time>2026-05-01T14:47:42.154Z</time></trkpt><trkpt lat="44.4386333" lon="8.4426917"><ele>436.0</ele><time>2026-05-01T14:47:43.155Z</time></trkpt><trkpt lat="44.438615" lon="8.4429233"><ele>436.6666666666667</ele><time>2026-05-01T14:47:44.16Z</time></trkpt><trkpt lat="44.43859" lon="8.4431567"><ele>437.33333333333337</ele><time>2026-05-01T14:47:45.153Z</time></trkpt><trkpt lat="44.4385533" lon="8.4433933"><ele>438.0</ele><time>2026-05-01T14:47:46.153Z</time></trkpt><trkpt lat="44.43851" lon="8.4436283"><ele>439.33333333333337</ele><time>2026-05-01T14:47:47.152Z</time></trkpt><trkpt lat="44.4384417" lon="8.4438617"><ele>440.6666666666667</ele><time>2026-05-01T14:47:48.153Z</time></trkpt><trkpt lat="44.4383567" lon="8.4440917"><ele>442.0</ele><time>2026-05-01T14:47:49.151Z</time></trkpt><trkpt lat="44.4382567" lon="8.4443117"><ele>442.0</ele><time>2026-05-01T14:47:50.152Z</time></trkpt><trkpt lat="44.4381483" lon="8.4445233"><ele>442.0</ele><time>2026-05-01T14:47:51.152Z</time></trkpt><trkpt lat="44.4380367" lon="8.4447267"><ele>442.0</ele><time>2026-05-01T14:47:52.151Z</time></trkpt><trkpt lat="44.43793" lon="8.4449283"><ele>442.33333333333337</ele><time>2026-05-01T14:47:53.156Z</time></trkpt><trkpt lat="44.4378267" lon="8.44513"><ele>442.66666666666663</ele><time>2026-05-01T14:47:54.155Z</time></trkpt><trkpt lat="44.437735" lon="8.4453333"><ele>443.0</ele><time>2026-05-01T14:47:55.154Z</time></trkpt><trkpt lat="44.4376533" lon="8.4455333"><ele>443.0</ele><time>2026-05-01T14:47:56.154Z</time></trkpt><trkpt lat="44.437585" lon="8.4457483"><ele>443.0</ele><time>2026-05-01T14:47:57.153Z</time></trkpt><trkpt lat="44.437515" lon="8.4459633"><ele>443.0</ele><time>2026-05-01T14:47:58.155Z</time></trkpt><trkpt lat="44.43744" lon="8.4461733"><ele>445.3333333333333</ele><time>2026-05-01T14:47:59.159Z</time></trkpt><trkpt lat="44.4373667" lon="8.4463867"><ele>447.66666666666663</ele><time>2026-05-01T14:48:00.156Z</time></trkpt><trkpt lat="44.43729" lon="8.4465933"><ele>450.0</ele><time>2026-05-01T14:48:01.158Z</time></trkpt><trkpt lat="44.4372083" lon="8.44679"><ele>450.33333333333337</ele><time>2026-05-01T14:48:02.158Z</time></trkpt><trkpt lat="44.437125" lon="8.44699"><ele>450.6666666666667</ele><time>2026-05-01T14:48:03.154Z</time></trkpt><trkpt lat="44.4370417" lon="8.4471733"><ele>451.0</ele><time>2026-05-01T14:48:04.155Z</time></trkpt><trkpt lat="44.4369617" lon="8.4473483"><ele>452.5</ele><time>2026-05-01T14:48:05.153Z</time></trkpt><trkpt lat="44.4368883" lon="8.4475183"><ele>454.0</ele><time>2026-05-01T14:48:06.153Z</time></trkpt><trkpt lat="44.436815" lon="8.44769"><ele>455.5</ele><time>2026-05-01T14:48:07.161Z</time></trkpt><trkpt lat="44.4367383" lon="8.4478717"><ele>457.0</ele><time>2026-05-01T14:48:08.155Z</time></trkpt><trkpt lat="44.4366567" lon="8.448065"><ele>459.0</ele><time>2026-05-01T14:48:09.153Z</time></trkpt><trkpt lat="44.4365883" lon="8.4482467"><ele>461.0</ele><time>2026-05-01T14:48:10.154Z</time></trkpt><trkpt lat="44.4365033" lon="8.4484383"><ele>463.0</ele><time>2026-05-01T14:48:11.157Z</time></trkpt><trkpt lat="44.4364217" lon="8.4486483"><ele>466.0</ele><time>2026-05-01T14:48:12.152Z</time></trkpt><trkpt lat="44.4363417" lon="8.4488583"><ele>469.0</ele><time>2026-05-01T14:48:13.158Z</time></trkpt><trkpt lat="44.436265" lon="8.44907"><ele>472.0</ele><time>2026-05-01T14:48:14.152Z</time></trkpt><trkpt lat="44.43618" lon="8.4492883"><ele>473.33333333333337</ele><time>2026-05-01T14:48:15.154Z</time></trkpt><trkpt lat="44.4360983" lon="8.4495083"><ele>474.66666666666663</ele><time>2026-05-01T14:48:16.152Z</time></trkpt><trkpt lat="44.436025" lon="8.4497367"><ele>476.0</ele><time>2026-05-01T14:48:17.152Z</time></trkpt><trkpt lat="44.4359783" lon="8.4499867"><ele>477.0</ele><time>2026-05-01T14:48:18.152Z</time></trkpt><trkpt lat="44.435955" lon="8.45025"><ele>478.0</ele><time>2026-05-01T14:48:19.155Z</time></trkpt><trkpt lat="44.43593" lon="8.4505267"><ele>479.0</ele><time>2026-05-01T14:48:20.151Z</time></trkpt><trkpt lat="44.43591" lon="8.4507917"><ele>479.0</ele><time>2026-05-01T14:48:21.149Z</time></trkpt><trkpt lat="44.4358733" lon="8.4510483"><ele>479.0</ele><time>2026-05-01T14:48:22.152Z</time></trkpt><trkpt lat="44.435835" lon="8.45129"><ele>479.0</ele><time>2026-05-01T14:48:23.156Z</time></trkpt><trkpt lat="44.43578" lon="8.4515267"><ele>479.0</ele><time>2026-05-01T14:48:24.151Z</time></trkpt><trkpt lat="44.4356967" lon="8.451745"><ele>479.0</ele><time>2026-05-01T14:48:25.161Z</time></trkpt><trkpt lat="44.4355967" lon="8.4519533"><ele>479.0</ele><time>2026-05-01T14:48:26.152Z</time></trkpt><trkpt lat="44.435495" lon="8.4521583"><ele>475.66666666666663</ele><time>2026-05-01T14:48:27.157Z</time></trkpt><trkpt lat="44.4353683" lon="8.4523617"><ele>472.33333333333337</ele><time>2026-05-01T14:48:28.15Z</time></trkpt><trkpt lat="44.4352267" lon="8.452555"><ele>469.0</ele><time>2026-05-01T14:48:29.158Z</time></trkpt><trkpt lat="44.4350833" lon="8.4527483"><ele>469.0</ele><time>2026-05-01T14:48:30.152Z</time></trkpt><trkpt lat="44.4349383" lon="8.4529483"><ele>469.0</ele><time>2026-05-01T14:48:31.152Z</time></trkpt><trkpt lat="44.43479" lon="8.4531567"><ele>469.0</ele><time>2026-05-01T14:48:32.15Z</time></trkpt><trkpt lat="44.4346367" lon="8.4533683"><ele>467.33333333333337</ele><time>2026-05-01T14:48:33.158Z</time></trkpt><trkpt lat="44.4344767" lon="8.4535817"><ele>465.66666666666663</ele><time>2026-05-01T14:48:34.152Z</time></trkpt><trkpt lat="44.4343117" lon="8.4537933"><ele>464.0</ele><time>2026-05-01T14:48:35.151Z</time></trkpt><trkpt lat="44.4341433" lon="8.4539983"><ele>464.0</ele><time>2026-05-01T14:48:36.151Z</time></trkpt><trkpt lat="44.4339717" lon="8.4541917"><ele>464.0</ele><time>2026-05-01T14:48:37.154Z</time></trkpt><trkpt lat="44.4337933" lon="8.4543667"><ele>464.0</ele><time>2026-05-01T14:48:38.151Z</time></trkpt><trkpt lat="44.4336083" lon="8.4545333"><ele>465.3333333333333</ele><time>2026-05-01T14:48:39.153Z</time></trkpt><trkpt lat="44.4334267" lon="8.4546933"><ele>466.66666666666663</ele><time>2026-05-01T14:48:40.155Z</time></trkpt><trkpt lat="44.4332517" lon="8.4548517"><ele>468.0</ele><time>2026-05-01T14:48:41.152Z</time></trkpt><trkpt lat="44.4330767" lon="8.4550067"><ele>467.66666666666663</ele><time>2026-05-01T14:48:42.155Z</time></trkpt><trkpt lat="44.4329033" lon="8.4551583"><ele>467.3333333333333</ele><time>2026-05-01T14:48:43.155Z</time></trkpt><trkpt lat="44.43274" lon="8.4553083"><ele>467.0</ele><time>2026-05-01T14:48:44.151Z</time></trkpt><trkpt lat="44.4325917" lon="8.4554667"><ele>467.0</ele><time>2026-05-01T14:48:45.155Z</time></trkpt><trkpt lat="44.4324633" lon="8.4556383"><ele>467.0</ele><time>2026-05-01T14:48:46.152Z</time></trkpt><trkpt lat="44.4323633" lon="8.4558317"><ele>467.0</ele><time>2026-05-01T14:48:47.153Z</time></trkpt><trkpt lat="44.4322767" lon="8.4560483"><ele>467.66666666666663</ele><time>2026-05-01T14:48:48.153Z</time></trkpt><trkpt lat="44.4321917" lon="8.456295"><ele>468.33333333333337</ele><time>2026-05-01T14:48:49.154Z</time></trkpt><trkpt lat="44.4321" lon="8.4565683"><ele>469.0</ele><time>2026-05-01T14:48:50.156Z</time></trkpt><trkpt lat="44.4320083" lon="8.4568517"><ele>469.0</ele><time>2026-05-01T14:48:51.154Z</time></trkpt><trkpt lat="44.431915" lon="8.4571317"><ele>469.0</ele><time>2026-05-01T14:48:52.176Z</time></trkpt><trkpt lat="44.43182" lon="8.4573867"><ele>469.0</ele><time>2026-05-01T14:48:53.157Z</time></trkpt><trkpt lat="44.4317067" lon="8.4576083"><ele>469.0</ele><time>2026-05-01T14:48:54.163Z</time></trkpt><trkpt lat="44.4315783" lon="8.4578033"><ele>469.0</ele><time>2026-05-01T14:48:55.157Z</time></trkpt><trkpt lat="44.4314433" lon="8.4579733"><ele>469.0</ele><time>2026-05-01T14:48:56.153Z</time></trkpt><trkpt lat="44.4313" lon="8.4581233"><ele>470.33333333333337</ele><time>2026-05-01T14:48:57.152Z</time></trkpt><trkpt lat="44.4311617" lon="8.4582483"><ele>471.66666666666663</ele><time>2026-05-01T14:48:58.157Z</time></trkpt><trkpt lat="44.43103" lon="8.458345"><ele>473.0</ele><time>2026-05-01T14:48:59.152Z</time></trkpt><trkpt lat="44.4309067" lon="8.4584317"><ele>473.0</ele><time>2026-05-01T14:49:00.153Z</time></trkpt><trkpt lat="44.430785" lon="8.4585"><ele>473.0</ele><time>2026-05-01T14:49:01.151Z</time></trkpt><trkpt lat="44.4306667" lon="8.4585467"><ele>473.0</ele><time>2026-05-01T14:49:02.153Z</time></trkpt><trkpt lat="44.4305433" lon="8.458585"><ele>473.0</ele><time>2026-05-01T14:49:03.152Z</time></trkpt><trkpt lat="44.430425" lon="8.4586467"><ele>473.25</ele><time>2026-05-01T14:49:04.15Z</time></trkpt><trkpt lat="44.430315" lon="8.4587333"><ele>473.5</ele><time>2026-05-01T14:49:05.154Z</time></trkpt><trkpt lat="44.4302067" lon="8.458845"><ele>473.75</ele><time>2026-05-01T14:49:06.153Z</time></trkpt><trkpt lat="44.430115" lon="8.4589833"><ele>474.0</ele><time>2026-05-01T14:49:07.151Z</time></trkpt><trkpt lat="44.4300283" lon="8.4591317"><ele>474.0</ele><time>2026-05-01T14:49:08.154Z</time></trkpt><trkpt lat="44.4299667" lon="8.4593417"><ele>474.0</ele><time>2026-05-01T14:49:09.152Z</time></trkpt><trkpt lat="44.4299033" lon="8.4595767"><ele>474.0</ele><time>2026-05-01T14:49:10.154Z</time></trkpt><trkpt lat="44.429835" lon="8.459825"><ele>476.33333333333337</ele><time>2026-05-01T14:49:11.153Z</time></trkpt><trkpt lat="44.42976" lon="8.4600917"><ele>478.6666666666667</ele><time>2026-05-01T14:49:12.151Z</time></trkpt><trkpt lat="44.4296883" lon="8.46036"><ele>481.0</ele><time>2026-05-01T14:49:13.153Z</time></trkpt><trkpt lat="44.4296183" lon="8.4606283"><ele>482.33333333333337</ele><time>2026-05-01T14:49:14.153Z</time></trkpt><trkpt lat="44.4295533" lon="8.4608883"><ele>483.66666666666663</ele><time>2026-05-01T14:49:15.154Z</time></trkpt><trkpt lat="44.4294983" lon="8.4611467"><ele>485.0</ele><time>2026-05-01T14:49:16.151Z</time></trkpt><trkpt lat="44.4294533" lon="8.4613983"><ele>486.3333333333333</ele><time>2026-05-01T14:49:17.155Z</time></trkpt><trkpt lat="44.4294167" lon="8.46165"><ele>487.66666666666663</ele><time>2026-05-01T14:49:18.152Z</time></trkpt><trkpt lat="44.4293883" lon="8.4618933"><ele>489.0</ele><time>2026-05-01T14:49:19.156Z</time></trkpt><trkpt lat="44.4293667" lon="8.46213"><ele>490.66666666666663</ele><time>2026-05-01T14:49:20.151Z</time></trkpt><trkpt lat="44.429345" lon="8.4623583"><ele>492.3333333333333</ele><time>2026-05-01T14:49:21.154Z</time></trkpt><trkpt lat="44.4293283" lon="8.4625767"><ele>494.0</ele><time>2026-05-01T14:49:22.155Z</time></trkpt><trkpt lat="44.4293133" lon="8.4627867"><ele>493.25</ele><time>2026-05-01T14:49:23.162Z</time></trkpt><trkpt lat="44.4293117" lon="8.4629933"><ele>492.5</ele><time>2026-05-01T14:49:24.154Z</time></trkpt><trkpt lat="44.4293183" lon="8.4631983"><ele>491.75</ele><time>2026-05-01T14:49:25.156Z</time></trkpt><trkpt lat="44.4293567" lon="8.4634033"><ele>491.0</ele><time>2026-05-01T14:49:26.154Z</time></trkpt><trkpt lat="44.4293867" lon="8.4636133"><ele>491.0</ele><time>2026-05-01T14:49:27.152Z</time></trkpt><trkpt lat="44.429415" lon="8.4638383"><ele>491.0</ele><time>2026-05-01T14:49:28.153Z</time></trkpt><trkpt lat="44.42945" lon="8.46408"><ele>491.0</ele><time>2026-05-01T14:49:29.158Z</time></trkpt><trkpt lat="44.4294817" lon="8.4643283"><ele>491.0</ele><time>2026-05-01T14:49:30.159Z</time></trkpt><trkpt lat="44.429515" lon="8.4645867"><ele>491.0</ele><time>2026-05-01T14:49:31.159Z</time></trkpt><trkpt lat="44.4295517" lon="8.464845"><ele>491.0</ele><time>2026-05-01T14:49:32.15Z</time></trkpt><trkpt lat="44.429585" lon="8.4650933"><ele>491.3333333333333</ele><time>2026-05-01T14:49:33.157Z</time></trkpt><trkpt lat="44.4296167" lon="8.4653333"><ele>491.66666666666663</ele><time>2026-05-01T14:49:34.157Z</time></trkpt><trkpt lat="44.429645" lon="8.465565"><ele>492.0</ele><time>2026-05-01T14:49:35.157Z</time></trkpt><trkpt lat="44.4296683" lon="8.4657867"><ele>492.0</ele><time>2026-05-01T14:49:36.156Z</time></trkpt><trkpt lat="44.4296883" lon="8.46601"><ele>492.0</ele><time>2026-05-01T14:49:37.159Z</time></trkpt><trkpt lat="44.429705" lon="8.466225"><ele>492.0</ele><time>2026-05-01T14:49:38.152Z</time></trkpt><trkpt lat="44.4297217" lon="8.46644"><ele>492.0</ele><time>2026-05-01T14:49:39.153Z</time></trkpt><trkpt lat="44.4297333" lon="8.4666467"><ele>492.0</ele><time>2026-05-01T14:49:40.157Z</time></trkpt><trkpt lat="44.4297417" lon="8.4668533"><ele>492.0</ele><time>2026-05-01T14:49:41.15Z</time></trkpt><trkpt lat="44.42974" lon="8.4670583"><ele>492.0</ele><time>2026-05-01T14:49:42.153Z</time></trkpt><trkpt lat="44.42973" lon="8.4672633"><ele>492.0</ele><time>2026-05-01T14:49:43.151Z</time></trkpt><trkpt lat="44.4297067" lon="8.4674617"><ele>492.0</ele><time>2026-05-01T14:49:44.152Z</time></trkpt><trkpt lat="44.4296717" lon="8.4676617"><ele>492.0</ele><time>2026-05-01T14:49:45.155Z</time></trkpt><trkpt lat="44.4296233" lon="8.4678667"><ele>492.0</ele><time>2026-05-01T14:49:46.154Z</time></trkpt><trkpt lat="44.4295667" lon="8.4680767"><ele>493.0</ele><time>2026-05-01T14:49:47.152Z</time></trkpt><trkpt lat="44.4294983" lon="8.4682983"><ele>494.0</ele><time>2026-05-01T14:49:48.153Z</time></trkpt><trkpt lat="44.4294183" lon="8.4685367"><ele>495.0</ele><time>2026-05-01T14:49:49.148Z</time></trkpt><trkpt lat="44.4293283" lon="8.4687817"><ele>495.0</ele><time>2026-05-01T14:49:50.152Z</time></trkpt><trkpt lat="44.429225" lon="8.4690183"><ele>495.0</ele><time>2026-05-01T14:49:51.151Z</time></trkpt><trkpt lat="44.429135" lon="8.4692617"><ele>495.0</ele><time>2026-05-01T14:49:52.156Z</time></trkpt><trkpt lat="44.42905" lon="8.4694917"><ele>494.66666666666663</ele><time>2026-05-01T14:49:53.151Z</time></trkpt><trkpt lat="44.4289817" lon="8.4697183"><ele>494.3333333333333</ele><time>2026-05-01T14:49:54.155Z</time></trkpt><trkpt lat="44.4289317" lon="8.4699467"><ele>494.0</ele><time>2026-05-01T14:49:55.151Z</time></trkpt><trkpt lat="44.428905" lon="8.47018"><ele>494.0</ele><time>2026-05-01T14:49:56.156Z</time></trkpt><trkpt lat="44.4288883" lon="8.47042"><ele>494.0</ele><time>2026-05-01T14:49:57.156Z</time></trkpt><trkpt lat="44.4288817" lon="8.4706567"><ele>494.0</ele><time>2026-05-01T14:49:58.152Z</time></trkpt><trkpt lat="44.42888" lon="8.4708917"><ele>494.66666666666663</ele><time>2026-05-01T14:49:59.154Z</time></trkpt><trkpt lat="44.4288833" lon="8.4711167"><ele>495.33333333333337</ele><time>2026-05-01T14:50:00.153Z</time></trkpt><trkpt lat="44.428885" lon="8.4713417"><ele>496.0</ele><time>2026-05-01T14:50:01.157Z</time></trkpt><trkpt lat="44.428895" lon="8.47156"><ele>496.0</ele><time>2026-05-01T14:50:02.155Z</time></trkpt><trkpt lat="44.42891" lon="8.47177"><ele>496.0</ele><time>2026-05-01T14:50:03.15Z</time></trkpt><trkpt lat="44.4289267" lon="8.4719667"><ele>496.0</ele><time>2026-05-01T14:50:04.151Z</time></trkpt><trkpt lat="44.4289483" lon="8.4721617"><ele>496.0</ele><time>2026-05-01T14:50:05.156Z</time></trkpt><trkpt lat="44.4289683" lon="8.4723467"><ele>496.6</ele><time>2026-05-01T14:50:06.154Z</time></trkpt><trkpt lat="44.4289867" lon="8.47252"><ele>497.20000000000005</ele><time>2026-05-01T14:50:07.155Z</time></trkpt><trkpt lat="44.4290017" lon="8.472685"><ele>497.79999999999995</ele><time>2026-05-01T14:50:08.154Z</time></trkpt><trkpt lat="44.4290167" lon="8.4728317"><ele>498.4</ele><time>2026-05-01T14:50:09.153Z</time></trkpt><trkpt lat="44.4290183" lon="8.47296"><ele>499.0</ele><time>2026-05-01T14:50:10.157Z</time></trkpt><trkpt lat="44.42902" lon="8.4730817"><ele>499.6</ele><time>2026-05-01T14:50:11.15Z</time></trkpt><trkpt lat="44.42902" lon="8.4731883"><ele>500.2</ele><time>2026-05-01T14:50:12.151Z</time></trkpt><trkpt lat="44.4290367" lon="8.4733483"><ele>500.80000000000007</ele><time>2026-05-01T14:50:14.155Z</time></trkpt><trkpt lat="44.429055" lon="8.4735"><ele>501.40000000000003</ele><time>2026-05-01T14:50:16.16Z</time></trkpt><trkpt lat="44.4291267" lon="8.4736333"><ele>502.0</ele><time>2026-05-01T14:50:18.154Z</time></trkpt><trkpt lat="44.4292183" lon="8.4736617"><ele>502.0</ele><time>2026-05-01T14:50:19.152Z</time></trkpt><trkpt lat="44.429315" lon="8.473695"><ele>502.0</ele><time>2026-05-01T14:50:20.152Z</time></trkpt><trkpt lat="44.4294433" lon="8.47375"><ele>502.0</ele><time>2026-05-01T14:50:21.151Z</time></trkpt><trkpt lat="44.4295817" lon="8.4738067"><ele>502.0</ele><time>2026-05-01T14:50:22.152Z</time></trkpt><trkpt lat="44.42973" lon="8.4738733"><ele>501.33333333333337</ele><time>2026-05-01T14:50:23.155Z</time></trkpt><trkpt lat="44.4298883" lon="8.473945"><ele>500.66666666666663</ele><time>2026-05-01T14:50:24.155Z</time></trkpt><trkpt lat="44.4300417" lon="8.4740167"><ele>500.0</ele><time>2026-05-01T14:50:25.162Z</time></trkpt><trkpt lat="44.4301783" lon="8.474085"><ele>500.0</ele><time>2026-05-01T14:50:26.153Z</time></trkpt><trkpt lat="44.43031" lon="8.4741867"><ele>500.0</ele><time>2026-05-01T14:50:27.154Z</time></trkpt><trkpt lat="44.4304333" lon="8.4743083"><ele>500.0</ele><time>2026-05-01T14:50:28.151Z</time></trkpt><trkpt lat="44.4305567" lon="8.47445"><ele>502.3333333333333</ele><time>2026-05-01T14:50:29.15Z</time></trkpt><trkpt lat="44.4306817" lon="8.4746017"><ele>504.66666666666663</ele><time>2026-05-01T14:50:30.16Z</time></trkpt><trkpt lat="44.4307967" lon="8.4747583"><ele>507.0</ele><time>2026-05-01T14:50:31.153Z</time></trkpt><trkpt lat="44.430905" lon="8.4748983"><ele>507.0</ele><time>2026-05-01T14:50:32.158Z</time></trkpt><trkpt lat="44.4310067" lon="8.47503"><ele>507.0</ele><time>2026-05-01T14:50:33.15Z</time></trkpt><trkpt lat="44.431095" lon="8.475175"><ele>507.0</ele><time>2026-05-01T14:50:34.153Z</time></trkpt><trkpt lat="44.431165" lon="8.47533"><ele>507.0</ele><time>2026-05-01T14:50:35.152Z</time></trkpt><trkpt lat="44.4312233" lon="8.4755067"><ele>508.66666666666663</ele><time>2026-05-01T14:50:36.153Z</time></trkpt><trkpt lat="44.4312817" lon="8.475715"><ele>510.3333333333333</ele><time>2026-05-01T14:50:37.155Z</time></trkpt><trkpt lat="44.4313583" lon="8.4759217"><ele>512.0</ele><time>2026-05-01T14:50:38.153Z</time></trkpt><trkpt lat="44.4314567" lon="8.4761117"><ele>512.25</ele><time>2026-05-01T14:50:39.15Z</time></trkpt><trkpt lat="44.4315417" lon="8.4762917"><ele>512.5</ele><time>2026-05-01T14:50:40.154Z</time></trkpt><trkpt lat="44.431605" lon="8.4764567"><ele>512.75</ele><time>2026-05-01T14:50:41.155Z</time></trkpt><trkpt lat="44.43163" lon="8.4766267"><ele>513.0</ele><time>2026-05-01T14:50:42.153Z</time></trkpt><trkpt lat="44.4316233" lon="8.4768017"><ele>513.0</ele><time>2026-05-01T14:50:43.161Z</time></trkpt><trkpt lat="44.43157" lon="8.4769767"><ele>513.0</ele><time>2026-05-01T14:50:44.152Z</time></trkpt><trkpt lat="44.4314983" lon="8.4771333"><ele>513.0</ele><time>2026-05-01T14:50:45.154Z</time></trkpt><trkpt lat="44.43143" lon="8.4773"><ele>513.0</ele><time>2026-05-01T14:50:46.153Z</time></trkpt><trkpt lat="44.4313817" lon="8.4774967"><ele>515.3333333333334</ele><time>2026-05-01T14:50:47.16Z</time></trkpt><trkpt lat="44.431365" lon="8.4777117"><ele>517.6666666666667</ele><time>2026-05-01T14:50:48.154Z</time></trkpt><trkpt lat="44.4313733" lon="8.4779367"><ele>520.0</ele><time>2026-05-01T14:50:49.153Z</time></trkpt><trkpt lat="44.4314083" lon="8.4781617"><ele>519.6666666666667</ele><time>2026-05-01T14:50:50.151Z</time></trkpt><trkpt lat="44.4314617" lon="8.4783883"><ele>519.3333333333334</ele><time>2026-05-01T14:50:51.154Z</time></trkpt><trkpt lat="44.431535" lon="8.4786067"><ele>519.0</ele><time>2026-05-01T14:50:52.153Z</time></trkpt><trkpt lat="44.4316233" lon="8.4788"><ele>519.0</ele><time>2026-05-01T14:50:53.156Z</time></trkpt><trkpt lat="44.4317233" lon="8.4789633"><ele>519.0</ele><time>2026-05-01T14:50:54.152Z</time></trkpt><trkpt lat="44.4318317" lon="8.4790967"><ele>519.0</ele><time>2026-05-01T14:50:55.157Z</time></trkpt><trkpt lat="44.4319483" lon="8.4792017"><ele>519.0</ele><time>2026-05-01T14:50:56.154Z</time></trkpt><trkpt lat="44.4320733" lon="8.479285"><ele>520.0</ele><time>2026-05-01T14:50:57.152Z</time></trkpt><trkpt lat="44.432205" lon="8.4793583"><ele>521.0</ele><time>2026-05-01T14:50:58.155Z</time></trkpt><trkpt lat="44.4323467" lon="8.4794117"><ele>522.0</ele><time>2026-05-01T14:50:59.152Z</time></trkpt><trkpt lat="44.4324867" lon="8.47945"><ele>523.0</ele><time>2026-05-01T14:51:00.159Z</time></trkpt><trkpt lat="44.432625" lon="8.47948"><ele>523.0</ele><time>2026-05-01T14:51:01.154Z</time></trkpt><trkpt lat="44.4327617" lon="8.47951"><ele>523.0</ele><time>2026-05-01T14:51:02.158Z</time></trkpt><trkpt lat="44.432895" lon="8.4795417"><ele>523.0</ele><time>2026-05-01T14:51:03.156Z</time></trkpt><trkpt lat="44.43303" lon="8.4795767"><ele>523.0</ele><time>2026-05-01T14:51:04.158Z</time></trkpt><trkpt lat="44.4331733" lon="8.4796167"><ele>524.6666666666667</ele><time>2026-05-01T14:51:05.153Z</time></trkpt><trkpt lat="44.43332" lon="8.4796667"><ele>526.3333333333334</ele><time>2026-05-01T14:51:06.154Z</time></trkpt><trkpt lat="44.43347" lon="8.4797283"><ele>528.0</ele><time>2026-05-01T14:51:07.159Z</time></trkpt><trkpt lat="44.4336167" lon="8.4798033"><ele>528.0</ele><time>2026-05-01T14:51:08.153Z</time></trkpt><trkpt lat="44.433755" lon="8.479885"><ele>528.0</ele><time>2026-05-01T14:51:09.157Z</time></trkpt><trkpt lat="44.4338867" lon="8.4799633"><ele>528.0</ele><time>2026-05-01T14:51:10.154Z</time></trkpt><trkpt lat="44.4340117" lon="8.4800433"><ele>528.0</ele><time>2026-05-01T14:51:11.153Z</time></trkpt><trkpt lat="44.43413" lon="8.480125"><ele>528.0</ele><time>2026-05-01T14:51:12.153Z</time></trkpt><trkpt lat="44.434245" lon="8.4802083"><ele>528.0</ele><time>2026-05-01T14:51:13.153Z</time></trkpt><trkpt lat="44.4343617" lon="8.4802917"><ele>528.0</ele><time>2026-05-01T14:51:14.154Z</time></trkpt><trkpt lat="44.4344767" lon="8.4803733"><ele>528.0</ele><time>2026-05-01T14:51:15.155Z</time></trkpt><trkpt lat="44.4345967" lon="8.4804567"><ele>525.75</ele><time>2026-05-01T14:51:16.155Z</time></trkpt><trkpt lat="44.4347117" lon="8.48054"><ele>523.5</ele><time>2026-05-01T14:51:17.157Z</time></trkpt><trkpt lat="44.4348233" lon="8.48062"><ele>521.25</ele><time>2026-05-01T14:51:18.153Z</time></trkpt><trkpt lat="44.43493" lon="8.4806933"><ele>519.0</ele><time>2026-05-01T14:51:19.152Z</time></trkpt><trkpt lat="44.4350333" lon="8.480775"><ele>519.0</ele><time>2026-05-01T14:51:20.153Z</time></trkpt><trkpt lat="44.4351367" lon="8.48085"><ele>519.0</ele><time>2026-05-01T14:51:21.155Z</time></trkpt><trkpt lat="44.43524" lon="8.4809317"><ele>519.0</ele><time>2026-05-01T14:51:22.151Z</time></trkpt><trkpt lat="44.435345" lon="8.4810083"><ele>519.0</ele><time>2026-05-01T14:51:23.153Z</time></trkpt><trkpt lat="44.4354517" lon="8.4810883"><ele>519.0</ele><time>2026-05-01T14:51:24.155Z</time></trkpt><trkpt lat="44.4355583" lon="8.48116"><ele>519.0</ele><time>2026-05-01T14:51:25.153Z</time></trkpt><trkpt lat="44.4356667" lon="8.481235"><ele>519.0</ele><time>2026-05-01T14:51:26.152Z</time></trkpt><trkpt lat="44.4357867" lon="8.4813167"><ele>519.0</ele><time>2026-05-01T14:51:27.153Z</time></trkpt><trkpt lat="44.4359083" lon="8.4814067"><ele>517.3333333333334</ele><time>2026-05-01T14:51:28.16Z</time></trkpt><trkpt lat="44.43604" lon="8.481505"><ele>515.6666666666667</ele><time>2026-05-01T14:51:29.152Z</time></trkpt><trkpt lat="44.436175" lon="8.4816067"><ele>514.0</ele><time>2026-05-01T14:51:30.151Z</time></trkpt><trkpt lat="44.436315" lon="8.4817067"><ele>514.0</ele><time>2026-05-01T14:51:31.155Z</time></trkpt><trkpt lat="44.43645" lon="8.4818033"><ele>514.0</ele><time>2026-05-01T14:51:32.153Z</time></trkpt><trkpt lat="44.43658" lon="8.4818983"><ele>514.0</ele><time>2026-05-01T14:51:33.158Z</time></trkpt><trkpt lat="44.4367133" lon="8.4819817"><ele>514.0</ele><time>2026-05-01T14:51:34.155Z</time></trkpt><trkpt lat="44.43685" lon="8.4820583"><ele>514.5</ele><time>2026-05-01T14:51:35.152Z</time></trkpt><trkpt lat="44.4369883" lon="8.48213"><ele>515.0</ele><time>2026-05-01T14:51:36.152Z</time></trkpt><trkpt lat="44.4371283" lon="8.4822017"><ele>515.5</ele><time>2026-05-01T14:51:37.155Z</time></trkpt><trkpt lat="44.437265" lon="8.4822717"><ele>516.0</ele><time>2026-05-01T14:51:38.151Z</time></trkpt><trkpt lat="44.4374033" lon="8.4823433"><ele>514.6666666666666</ele><time>2026-05-01T14:51:39.154Z</time></trkpt><trkpt lat="44.4375417" lon="8.482415"><ele>513.3333333333333</ele><time>2026-05-01T14:51:40.153Z</time></trkpt><trkpt lat="44.4376867" lon="8.482485"><ele>512.0</ele><time>2026-05-01T14:51:41.153Z</time></trkpt><trkpt lat="44.4378283" lon="8.4825567"><ele>512.6666666666666</ele><time>2026-05-01T14:51:42.157Z</time></trkpt><trkpt lat="44.4379717" lon="8.4826333"><ele>513.3333333333334</ele><time>2026-05-01T14:51:43.152Z</time></trkpt><trkpt lat="44.4381367" lon="8.4827233"><ele>514.0</ele><time>2026-05-01T14:51:44.158Z</time></trkpt><trkpt lat="44.4383367" lon="8.4828167"><ele>512.0</ele><time>2026-05-01T14:51:45.155Z</time></trkpt><trkpt lat="44.43856" lon="8.4829417"><ele>510.0</ele><time>2026-05-01T14:51:46.154Z</time></trkpt><trkpt lat="44.4387967" lon="8.4830733"><ele>510.5</ele><time>2026-05-01T14:51:47.152Z</time></trkpt><trkpt lat="44.43904" lon="8.4832067"><ele>511.0</ele><time>2026-05-01T14:51:48.154Z</time></trkpt><trkpt lat="44.4392733" lon="8.4833383"><ele>511.0</ele><time>2026-05-01T14:51:49.155Z</time></trkpt><trkpt lat="44.4395017" lon="8.4834583"><ele>511.0</ele><time>2026-05-01T14:51:50.152Z</time></trkpt><trkpt lat="44.4397167" lon="8.4835683"><ele>511.0</ele><time>2026-05-01T14:51:51.152Z</time></trkpt><trkpt lat="44.4399217" lon="8.4836717"><ele>511.0</ele><time>2026-05-01T14:51:52.152Z</time></trkpt><trkpt lat="44.4401167" lon="8.4837733"><ele>511.0</ele><time>2026-05-01T14:51:53.155Z</time></trkpt><trkpt lat="44.4403" lon="8.4838733"><ele>509.33333333333337</ele><time>2026-05-01T14:51:54.152Z</time></trkpt><trkpt lat="44.4404767" lon="8.4839733"><ele>507.66666666666663</ele><time>2026-05-01T14:51:55.154Z</time></trkpt><trkpt lat="44.4406483" lon="8.4840633"><ele>506.0</ele><time>2026-05-01T14:51:56.152Z</time></trkpt><trkpt lat="44.4408183" lon="8.48414"><ele>506.0</ele><time>2026-05-01T14:51:57.15Z</time></trkpt><trkpt lat="44.44098" lon="8.4842183"><ele>506.0</ele><time>2026-05-01T14:51:58.152Z</time></trkpt><trkpt lat="44.4411433" lon="8.4842883"><ele>506.0</ele><time>2026-05-01T14:51:59.153Z</time></trkpt><trkpt lat="44.4413117" lon="8.4843417"><ele>506.3333333333333</ele><time>2026-05-01T14:52:00.161Z</time></trkpt><trkpt lat="44.4414867" lon="8.48437"><ele>506.66666666666663</ele><time>2026-05-01T14:52:01.155Z</time></trkpt><trkpt lat="44.4416583" lon="8.4843867"><ele>507.0</ele><time>2026-05-01T14:52:02.153Z</time></trkpt><trkpt lat="44.4418267" lon="8.484385"><ele>507.0</ele><time>2026-05-01T14:52:03.153Z</time></trkpt><trkpt lat="44.4419917" lon="8.4843783"><ele>507.0</ele><time>2026-05-01T14:52:04.153Z</time></trkpt><trkpt lat="44.442155" lon="8.4843683"><ele>507.0</ele><time>2026-05-01T14:52:05.155Z</time></trkpt><trkpt lat="44.4423133" lon="8.4843583"><ele>507.0</ele><time>2026-05-01T14:52:06.153Z</time></trkpt><trkpt lat="44.4424683" lon="8.484355"><ele>507.0</ele><time>2026-05-01T14:52:07.156Z</time></trkpt><trkpt lat="44.4426217" lon="8.4843533"><ele>507.0</ele><time>2026-05-01T14:52:08.151Z</time></trkpt><trkpt lat="44.4427733" lon="8.4843483"><ele>507.0</ele><time>2026-05-01T14:52:09.151Z</time></trkpt><trkpt lat="44.4429267" lon="8.484345"><ele>507.0</ele><time>2026-05-01T14:52:10.157Z</time></trkpt><trkpt lat="44.4430833" lon="8.4843383"><ele>507.0</ele><time>2026-05-01T14:52:11.152Z</time></trkpt><trkpt lat="44.4432467" lon="8.4843317"><ele>506.33333333333337</ele><time>2026-05-01T14:52:12.154Z</time></trkpt><trkpt lat="44.443405" lon="8.4843033"><ele>505.6666666666667</ele><time>2026-05-01T14:52:13.157Z</time></trkpt><trkpt lat="44.4435617" lon="8.4842533"><ele>505.0</ele><time>2026-05-01T14:52:14.156Z</time></trkpt><trkpt lat="44.443715" lon="8.4841833"><ele>506.6666666666667</ele><time>2026-05-01T14:52:15.155Z</time></trkpt><trkpt lat="44.44386" lon="8.484085"><ele>508.33333333333337</ele><time>2026-05-01T14:52:16.154Z</time></trkpt><trkpt lat="44.444005" lon="8.48395"><ele>510.0</ele><time>2026-05-01T14:52:17.151Z</time></trkpt><trkpt lat="44.4441633" lon="8.4837767"><ele>505.5</ele><time>2026-05-01T14:52:18.157Z</time></trkpt><trkpt lat="44.4443367" lon="8.4835667"><ele>501.0</ele><time>2026-05-01T14:52:19.151Z</time></trkpt><trkpt lat="44.4445267" lon="8.4833317"><ele>500.0</ele><time>2026-05-01T14:52:20.152Z</time></trkpt><trkpt lat="44.4447167" lon="8.4830917"><ele>499.0</ele><time>2026-05-01T14:52:21.155Z</time></trkpt><trkpt lat="44.444905" lon="8.4828567"><ele>499.0</ele><time>2026-05-01T14:52:22.15Z</time></trkpt><trkpt lat="44.4450833" lon="8.48262"><ele>499.0</ele><time>2026-05-01T14:52:23.157Z</time></trkpt><trkpt lat="44.4452533" lon="8.4823867"><ele>499.0</ele><time>2026-05-01T14:52:24.152Z</time></trkpt><trkpt lat="44.4454167" lon="8.4821533"><ele>499.0</ele><time>2026-05-01T14:52:25.153Z</time></trkpt><trkpt lat="44.44557" lon="8.48191"><ele>495.5</ele><time>2026-05-01T14:52:26.153Z</time></trkpt><trkpt lat="44.4457167" lon="8.48166"><ele>492.0</ele><time>2026-05-01T14:52:27.156Z</time></trkpt><trkpt lat="44.4458533" lon="8.4813967"><ele>490.0</ele><time>2026-05-01T14:52:28.158Z</time></trkpt><trkpt lat="44.4459817" lon="8.4811217"><ele>488.0</ele><time>2026-05-01T14:52:29.161Z</time></trkpt><trkpt lat="44.446105" lon="8.480835"><ele>488.0</ele><time>2026-05-01T14:52:30.154Z</time></trkpt><trkpt lat="44.4462267" lon="8.4805433"><ele>488.0</ele><time>2026-05-01T14:52:31.157Z</time></trkpt><trkpt lat="44.446345" lon="8.4802567"><ele>489.0</ele><time>2026-05-01T14:52:32.151Z</time></trkpt><trkpt lat="44.446465" lon="8.4799733"><ele>490.0</ele><time>2026-05-01T14:52:33.161Z</time></trkpt><trkpt lat="44.4465817" lon="8.47969"><ele>488.33333333333337</ele><time>2026-05-01T14:52:34.153Z</time></trkpt><trkpt lat="44.4467083" lon="8.479435"><ele>486.66666666666663</ele><time>2026-05-01T14:52:35.157Z</time></trkpt><trkpt lat="44.4468467" lon="8.479205"><ele>485.0</ele><time>2026-05-01T14:52:36.151Z</time></trkpt><trkpt lat="44.446975" lon="8.4789683"><ele>486.0</ele><time>2026-05-01T14:52:37.153Z</time></trkpt><trkpt lat="44.4471117" lon="8.47874"><ele>487.0</ele><time>2026-05-01T14:52:38.155Z</time></trkpt><trkpt lat="44.447245" lon="8.4785067"><ele>488.0</ele><time>2026-05-01T14:52:39.153Z</time></trkpt><trkpt lat="44.447395" lon="8.4783"><ele>484.3333333333333</ele><time>2026-05-01T14:52:40.154Z</time></trkpt><trkpt lat="44.4475467" lon="8.4781"><ele>480.66666666666663</ele><time>2026-05-01T14:52:41.153Z</time></trkpt><trkpt lat="44.4476967" lon="8.477905"><ele>477.0</ele><time>2026-05-01T14:52:42.153Z</time></trkpt><trkpt lat="44.4478367" lon="8.4776983"><ele>473.0</ele><time>2026-05-01T14:52:43.156Z</time></trkpt><trkpt lat="44.4479483" lon="8.47748"><ele>469.0</ele><time>2026-05-01T14:52:44.151Z</time></trkpt><trkpt lat="44.448055" lon="8.4772933"><ele>465.0</ele><time>2026-05-01T14:52:45.155Z</time></trkpt><trkpt lat="44.448165" lon="8.477145"><ele>462.25</ele><time>2026-05-01T14:52:46.15Z</time></trkpt><trkpt lat="44.448275" lon="8.4770267"><ele>459.5</ele><time>2026-05-01T14:52:47.153Z</time></trkpt><trkpt lat="44.4483983" lon="8.47695"><ele>456.75</ele><time>2026-05-01T14:52:48.158Z</time></trkpt><trkpt lat="44.448535" lon="8.47691"><ele>454.0</ele><time>2026-05-01T14:52:49.153Z</time></trkpt><trkpt lat="44.4486767" lon="8.4769033"><ele>455.0</ele><time>2026-05-01T14:52:50.158Z</time></trkpt><trkpt lat="44.4488317" lon="8.476915"><ele>456.0</ele><time>2026-05-01T14:52:51.153Z</time></trkpt><trkpt lat="44.44899" lon="8.4769733"><ele>457.0</ele><time>2026-05-01T14:52:52.153Z</time></trkpt><trkpt lat="44.449145" lon="8.4770667"><ele>459.6666666666667</ele><time>2026-05-01T14:52:53.157Z</time></trkpt><trkpt lat="44.44928" lon="8.4772217"><ele>462.33333333333337</ele><time>2026-05-01T14:52:54.155Z</time></trkpt><trkpt lat="44.4494117" lon="8.47739"><ele>465.0</ele><time>2026-05-01T14:52:55.156Z</time></trkpt><trkpt lat="44.4495667" lon="8.4775133"><ele>463.0</ele><time>2026-05-01T14:52:56.157Z</time></trkpt><trkpt lat="44.4497367" lon="8.4776283"><ele>461.0</ele><time>2026-05-01T14:52:57.15Z</time></trkpt><trkpt lat="44.44991" lon="8.477755"><ele>459.0</ele><time>2026-05-01T14:52:58.152Z</time></trkpt><trkpt lat="44.45009" lon="8.4778717"><ele>457.33333333333337</ele><time>2026-05-01T14:52:59.153Z</time></trkpt><trkpt lat="44.450265" lon="8.478005"><ele>455.6666666666667</ele><time>2026-05-01T14:53:00.155Z</time></trkpt><trkpt lat="44.450445" lon="8.4781333"><ele>454.0</ele><time>2026-05-01T14:53:01.156Z</time></trkpt><trkpt lat="44.4506333" lon="8.4782367"><ele>454.0</ele><time>2026-05-01T14:53:02.153Z</time></trkpt><trkpt lat="44.45081" lon="8.4783617"><ele>454.0</ele><time>2026-05-01T14:53:03.153Z</time></trkpt><trkpt lat="44.4509883" lon="8.4784717"><ele>454.0</ele><time>2026-05-01T14:53:04.155Z</time></trkpt><trkpt lat="44.45116" lon="8.4785883"><ele>454.6666666666667</ele><time>2026-05-01T14:53:05.152Z</time></trkpt><trkpt lat="44.451325" lon="8.47869"><ele>455.33333333333337</ele><time>2026-05-01T14:53:06.157Z</time></trkpt><trkpt lat="44.4514867" lon="8.47877"><ele>456.0</ele><time>2026-05-01T14:53:07.155Z</time></trkpt><trkpt lat="44.45164" lon="8.4788133"><ele>456.0</ele><time>2026-05-01T14:53:08.152Z</time></trkpt><trkpt lat="44.451785" lon="8.47882"><ele>456.0</ele><time>2026-05-01T14:53:09.151Z</time></trkpt><trkpt lat="44.45192" lon="8.47878"><ele>456.0</ele><time>2026-05-01T14:53:10.152Z</time></trkpt><trkpt lat="44.4520517" lon="8.4787083"><ele>456.0</ele><time>2026-05-01T14:53:11.151Z</time></trkpt><trkpt lat="44.4521867" lon="8.4786133"><ele>453.66666666666663</ele><time>2026-05-01T14:53:12.153Z</time></trkpt><trkpt lat="44.4523267" lon="8.4785183"><ele>451.3333333333333</ele><time>2026-05-01T14:53:13.151Z</time></trkpt><trkpt lat="44.452465" lon="8.4784233"><ele>449.0</ele><time>2026-05-01T14:53:14.157Z</time></trkpt><trkpt lat="44.4526183" lon="8.47838"><ele>449.0</ele><time>2026-05-01T14:53:15.156Z</time></trkpt><trkpt lat="44.452765" lon="8.4783467"><ele>449.0</ele><time>2026-05-01T14:53:16.155Z</time></trkpt><trkpt lat="44.4529083" lon="8.4783333"><ele>449.0</ele><time>2026-05-01T14:53:17.156Z</time></trkpt><trkpt lat="44.453045" lon="8.47834"><ele>449.0</ele><time>2026-05-01T14:53:18.158Z</time></trkpt><trkpt lat="44.45317" lon="8.4783867"><ele>448.0</ele><time>2026-05-01T14:53:19.151Z</time></trkpt><trkpt lat="44.4532717" lon="8.4785267"><ele>447.0</ele><time>2026-05-01T14:53:20.152Z</time></trkpt><trkpt lat="44.453355" lon="8.4787317"><ele>446.0</ele><time>2026-05-01T14:53:21.155Z</time></trkpt><trkpt lat="44.4534533" lon="8.478955"><ele>443.66666666666663</ele><time>2026-05-01T14:53:22.153Z</time></trkpt><trkpt lat="44.4535917" lon="8.4791433"><ele>441.33333333333337</ele><time>2026-05-01T14:53:23.154Z</time></trkpt><trkpt lat="44.45376" lon="8.4792883"><ele>439.0</ele><time>2026-05-01T14:53:24.152Z</time></trkpt><trkpt lat="44.4539267" lon="8.479435"><ele>439.0</ele><time>2026-05-01T14:53:25.151Z</time></trkpt><trkpt lat="44.4540817" lon="8.4795667"><ele>439.0</ele><time>2026-05-01T14:53:26.156Z</time></trkpt><trkpt lat="44.4542267" lon="8.4796783"><ele>439.0</ele><time>2026-05-01T14:53:27.154Z</time></trkpt><trkpt lat="44.4543883" lon="8.4797567"><ele>439.0</ele><time>2026-05-01T14:53:28.153Z</time></trkpt><trkpt lat="44.45456" lon="8.4798233"><ele>439.0</ele><time>2026-05-01T14:53:29.152Z</time></trkpt><trkpt lat="44.4547283" lon="8.479905"><ele>439.0</ele><time>2026-05-01T14:53:30.152Z</time></trkpt><trkpt lat="44.4548917" lon="8.479985"><ele>439.0</ele><time>2026-05-01T14:53:31.153Z</time></trkpt><trkpt lat="44.4550533" lon="8.480065"><ele>439.0</ele><time>2026-05-01T14:53:32.151Z</time></trkpt><trkpt lat="44.4551883" lon="8.4801433"><ele>439.0</ele><time>2026-05-01T14:53:33.154Z</time></trkpt><trkpt lat="44.4553133" lon="8.48016"><ele>439.0</ele><time>2026-05-01T14:53:34.151Z</time></trkpt><trkpt lat="44.4554317" lon="8.4801517"><ele>437.5</ele><time>2026-05-01T14:53:35.151Z</time></trkpt><trkpt lat="44.4555467" lon="8.4801067"><ele>436.0</ele><time>2026-05-01T14:53:36.155Z</time></trkpt><trkpt lat="44.4556617" lon="8.4800433"><ele>434.5</ele><time>2026-05-01T14:53:37.153Z</time></trkpt><trkpt lat="44.455785" lon="8.4799983"><ele>433.0</ele><time>2026-05-01T14:53:38.158Z</time></trkpt><trkpt lat="44.455915" lon="8.479955"><ele>433.0</ele><time>2026-05-01T14:53:39.148Z</time></trkpt><trkpt lat="44.45605" lon="8.4799567"><ele>433.0</ele><time>2026-05-01T14:53:40.153Z</time></trkpt><trkpt lat="44.4562067" lon="8.480015"><ele>433.0</ele><time>2026-05-01T14:53:41.153Z</time></trkpt><trkpt lat="44.45636" lon="8.48006"><ele>430.0</ele><time>2026-05-01T14:53:42.153Z</time></trkpt><trkpt lat="44.45652" lon="8.4801083"><ele>427.0</ele><time>2026-05-01T14:53:43.159Z</time></trkpt><trkpt lat="44.4566883" lon="8.4802"><ele>424.0</ele><time>2026-05-01T14:53:44.157Z</time></trkpt><trkpt lat="44.4568617" lon="8.4803067"><ele>424.0</ele><time>2026-05-01T14:53:45.153Z</time></trkpt><trkpt lat="44.4570133" lon="8.480385"><ele>424.0</ele><time>2026-05-01T14:53:46.153Z</time></trkpt><trkpt lat="44.4571617" lon="8.4804217"><ele>424.0</ele><time>2026-05-01T14:53:47.152Z</time></trkpt><trkpt lat="44.4573083" lon="8.480415"><ele>423.5</ele><time>2026-05-01T14:53:48.151Z</time></trkpt><trkpt lat="44.4574383" lon="8.4803517"><ele>423.0</ele><time>2026-05-01T14:53:49.155Z</time></trkpt><trkpt lat="44.4575683" lon="8.4802433"><ele>422.5</ele><time>2026-05-01T14:53:50.151Z</time></trkpt><trkpt lat="44.4576767" lon="8.4801017"><ele>422.0</ele><time>2026-05-01T14:53:51.156Z</time></trkpt><trkpt lat="44.45779" lon="8.47998"><ele>422.0</ele><time>2026-05-01T14:53:52.153Z</time></trkpt><trkpt lat="44.45792" lon="8.4799017"><ele>422.0</ele><time>2026-05-01T14:53:53.154Z</time></trkpt><trkpt lat="44.4580583" lon="8.4798717"><ele>422.0</ele><time>2026-05-01T14:53:54.152Z</time></trkpt><trkpt lat="44.4582083" lon="8.479835"><ele>422.0</ele><time>2026-05-01T14:53:55.152Z</time></trkpt><trkpt lat="44.458355" lon="8.4798033"><ele>422.0</ele><time>2026-05-01T14:53:56.151Z</time></trkpt><trkpt lat="44.4585017" lon="8.4797433"><ele>422.0</ele><time>2026-05-01T14:53:57.151Z</time></trkpt><trkpt lat="44.4586233" lon="8.4796967"><ele>422.0</ele><time>2026-05-01T14:53:58.152Z</time></trkpt><trkpt lat="44.4587267" lon="8.4796783"><ele>422.0</ele><time>2026-05-01T14:53:59.158Z</time></trkpt><trkpt lat="44.45884" lon="8.4797367"><ele>423.66666666666663</ele><time>2026-05-01T14:54:00.155Z</time></trkpt><trkpt lat="44.4589533" lon="8.4798567"><ele>425.33333333333337</ele><time>2026-05-01T14:54:01.156Z</time></trkpt><trkpt lat="44.4590833" lon="8.47999"><ele>427.0</ele><time>2026-05-01T14:54:02.156Z</time></trkpt><trkpt lat="44.459215" lon="8.4801333"><ele>427.0</ele><time>2026-05-01T14:54:03.155Z</time></trkpt><trkpt lat="44.4593533" lon="8.48028"><ele>427.0</ele><time>2026-05-01T14:54:04.15Z</time></trkpt><trkpt lat="44.4594733" lon="8.4804333"><ele>427.0</ele><time>2026-05-01T14:54:05.152Z</time></trkpt><trkpt lat="44.45961" lon="8.4805567"><ele>426.5</ele><time>2026-05-01T14:54:06.153Z</time></trkpt><trkpt lat="44.45972" lon="8.4807033"><ele>426.0</ele><time>2026-05-01T14:54:07.152Z</time></trkpt><trkpt lat="44.4598117" lon="8.48082"><ele>425.5</ele><time>2026-05-01T14:54:08.156Z</time></trkpt><trkpt lat="44.459895" lon="8.4809333"><ele>425.0</ele><time>2026-05-01T14:54:09.157Z</time></trkpt><trkpt lat="44.45996" lon="8.481065"><ele>425.0</ele><time>2026-05-01T14:54:10.149Z</time></trkpt><trkpt lat="44.460015" lon="8.4812233"><ele>425.0</ele><time>2026-05-01T14:54:11.154Z</time></trkpt><trkpt lat="44.4600983" lon="8.4813567"><ele>425.0</ele><time>2026-05-01T14:54:12.15Z</time></trkpt><trkpt lat="44.4602" lon="8.4815"><ele>425.0</ele><time>2026-05-01T14:54:13.155Z</time></trkpt><trkpt lat="44.4603467" lon="8.4815933"><ele>420.0</ele><time>2026-05-01T14:54:14.152Z</time></trkpt><trkpt lat="44.4604983" lon="8.48167"><ele>415.0</ele><time>2026-05-01T14:54:15.151Z</time></trkpt><trkpt lat="44.4606683" lon="8.4817383"><ele>410.0</ele><time>2026-05-01T14:54:16.154Z</time></trkpt><trkpt lat="44.4608417" lon="8.4818267"><ele>410.0</ele><time>2026-05-01T14:54:17.152Z</time></trkpt><trkpt lat="44.4610033" lon="8.4819367"><ele>410.0</ele><time>2026-05-01T14:54:18.154Z</time></trkpt><trkpt lat="44.461165" lon="8.48205"><ele>410.0</ele><time>2026-05-01T14:54:19.155Z</time></trkpt><trkpt lat="44.4613483" lon="8.4821433"><ele>411.0</ele><time>2026-05-01T14:54:20.153Z</time></trkpt><trkpt lat="44.46153" lon="8.4822183"><ele>412.0</ele><time>2026-05-01T14:54:21.153Z</time></trkpt><trkpt lat="44.46172" lon="8.48227"><ele>413.0</ele><time>2026-05-01T14:54:22.156Z</time></trkpt><trkpt lat="44.4619083" lon="8.4823233"><ele>413.0</ele><time>2026-05-01T14:54:23.155Z</time></trkpt><trkpt lat="44.462085" lon="8.4823783"><ele>413.0</ele><time>2026-05-01T14:54:24.15Z</time></trkpt><trkpt lat="44.4622617" lon="8.4824367"><ele>413.0</ele><time>2026-05-01T14:54:25.156Z</time></trkpt><trkpt lat="44.4624333" lon="8.4824867"><ele>410.66666666666663</ele><time>2026-05-01T14:54:26.154Z</time></trkpt><trkpt lat="44.4625933" lon="8.4825317"><ele>408.33333333333337</ele><time>2026-05-01T14:54:27.153Z</time></trkpt><trkpt lat="44.4627467" lon="8.4825833"><ele>406.0</ele><time>2026-05-01T14:54:28.154Z</time></trkpt><trkpt lat="44.4628667" lon="8.4826517"><ele>404.75</ele><time>2026-05-01T14:54:29.155Z</time></trkpt><trkpt lat="44.46299" lon="8.4826683"><ele>403.5</ele><time>2026-05-01T14:54:30.151Z</time></trkpt><trkpt lat="44.4631283" lon="8.4826983"><ele>402.25</ele><time>2026-05-01T14:54:31.154Z</time></trkpt><trkpt lat="44.4632883" lon="8.4827333"><ele>401.0</ele><time>2026-05-01T14:54:32.15Z</time></trkpt><trkpt lat="44.4634483" lon="8.4827717"><ele>401.0</ele><time>2026-05-01T14:54:33.156Z</time></trkpt><trkpt lat="44.4636117" lon="8.4828"><ele>401.0</ele><time>2026-05-01T14:54:34.152Z</time></trkpt><trkpt lat="44.463775" lon="8.4828267"><ele>401.0</ele><time>2026-05-01T14:54:35.151Z</time></trkpt><trkpt lat="44.46394" lon="8.4828383"><ele>400.66666666666663</ele><time>2026-05-01T14:54:36.153Z</time></trkpt><trkpt lat="44.464085" lon="8.482715"><ele>400.33333333333337</ele><time>2026-05-01T14:54:37.151Z</time></trkpt><trkpt lat="44.46424" lon="8.4826617"><ele>400.0</ele><time>2026-05-01T14:54:38.153Z</time></trkpt><trkpt lat="44.464385" lon="8.48259"><ele>400.0</ele><time>2026-05-01T14:54:39.152Z</time></trkpt><trkpt lat="44.4645033" lon="8.4825183"><ele>400.0</ele><time>2026-05-01T14:54:40.152Z</time></trkpt><trkpt lat="44.464605" lon="8.4824717"><ele>400.0</ele><time>2026-05-01T14:54:41.152Z</time></trkpt><trkpt lat="44.4646967" lon="8.4824383"><ele>400.0</ele><time>2026-05-01T14:54:42.154Z</time></trkpt><trkpt lat="44.46479" lon="8.48242"><ele>400.0</ele><time>2026-05-01T14:54:43.155Z</time></trkpt><trkpt lat="44.4648933" lon="8.482415"><ele>399.8</ele><time>2026-05-01T14:54:44.156Z</time></trkpt><trkpt lat="44.4650067" lon="8.48241"><ele>399.6</ele><time>2026-05-01T14:54:45.156Z</time></trkpt><trkpt lat="44.4651217" lon="8.4824133"><ele>399.4</ele><time>2026-05-01T14:54:46.15Z</time></trkpt><trkpt lat="44.4652367" lon="8.482405"><ele>399.2</ele><time>2026-05-01T14:54:47.152Z</time></trkpt><trkpt lat="44.4653417" lon="8.482405"><ele>399.0</ele><time>2026-05-01T14:54:48.152Z</time></trkpt><trkpt lat="44.465435" lon="8.4824217"><ele>397.0</ele><time>2026-05-01T14:54:49.156Z</time></trkpt><trkpt lat="44.46554" lon="8.4824783"><ele>395.0</ele><time>2026-05-01T14:54:50.153Z</time></trkpt><trkpt lat="44.465635" lon="8.4826017"><ele>393.0</ele><time>2026-05-01T14:54:51.155Z</time></trkpt><trkpt lat="44.465715" lon="8.48278"><ele>391.0</ele><time>2026-05-01T14:54:52.156Z</time></trkpt><trkpt lat="44.4658583" lon="8.4829683"><ele>391.0</ele><time>2026-05-01T14:54:53.152Z</time></trkpt><trkpt lat="44.46599" lon="8.48311"><ele>391.0</ele><time>2026-05-01T14:54:54.152Z</time></trkpt><trkpt lat="44.4661217" lon="8.4832617"><ele>391.0</ele><time>2026-05-01T14:54:55.152Z</time></trkpt><trkpt lat="44.4662617" lon="8.48341"><ele>392.6666666666667</ele><time>2026-05-01T14:54:56.154Z</time></trkpt><trkpt lat="44.4664033" lon="8.483555"><ele>394.33333333333337</ele><time>2026-05-01T14:54:57.151Z</time></trkpt><trkpt lat="44.466545" lon="8.4837017"><ele>396.0</ele><time>2026-05-01T14:54:58.156Z</time></trkpt><trkpt lat="44.4666867" lon="8.4838317"><ele>396.0</ele><time>2026-05-01T14:54:59.156Z</time></trkpt><trkpt lat="44.4668267" lon="8.4839633"><ele>396.0</ele><time>2026-05-01T14:55:00.151Z</time></trkpt><trkpt lat="44.4669633" lon="8.4840683"><ele>396.0</ele><time>2026-05-01T14:55:01.153Z</time></trkpt><trkpt lat="44.4670933" lon="8.484175"><ele>393.0</ele><time>2026-05-01T14:55:02.15Z</time></trkpt><trkpt lat="44.467225" lon="8.4842633"><ele>390.0</ele><time>2026-05-01T14:55:03.151Z</time></trkpt><trkpt lat="44.4673533" lon="8.4843483"><ele>387.0</ele><time>2026-05-01T14:55:04.153Z</time></trkpt><trkpt lat="44.467485" lon="8.4844383"><ele>384.0</ele><time>2026-05-01T14:55:05.152Z</time></trkpt><trkpt lat="44.4676167" lon="8.4845267"><ele>386.25</ele><time>2026-05-01T14:55:06.154Z</time></trkpt><trkpt lat="44.4677467" lon="8.4846067"><ele>388.5</ele><time>2026-05-01T14:55:07.154Z</time></trkpt><trkpt lat="44.4678783" lon="8.4846717"><ele>390.75</ele><time>2026-05-01T14:55:08.154Z</time></trkpt><trkpt lat="44.468015" lon="8.48471"><ele>393.0</ele><time>2026-05-01T14:55:09.157Z</time></trkpt><trkpt lat="44.46816" lon="8.4847083"><ele>393.0</ele><time>2026-05-01T14:55:10.157Z</time></trkpt><trkpt lat="44.4683" lon="8.4846867"><ele>393.0</ele><time>2026-05-01T14:55:11.16Z</time></trkpt><trkpt lat="44.4684383" lon="8.4846483"><ele>393.0</ele><time>2026-05-01T14:55:12.154Z</time></trkpt><trkpt lat="44.4685717" lon="8.48461"><ele>393.0</ele><time>2026-05-01T14:55:13.153Z</time></trkpt><trkpt lat="44.4686883" lon="8.4845683"><ele>390.4</ele><time>2026-05-01T14:55:14.157Z</time></trkpt><trkpt lat="44.4687967" lon="8.4845233"><ele>387.79999999999995</ele><time>2026-05-01T14:55:15.159Z</time></trkpt><trkpt lat="44.4689" lon="8.4844867"><ele>385.2</ele><time>2026-05-01T14:55:16.153Z</time></trkpt><trkpt lat="44.4690017" lon="8.484455"><ele>382.6</ele><time>2026-05-01T14:55:17.152Z</time></trkpt><trkpt lat="44.4691017" lon="8.48443"><ele>380.0</ele><time>2026-05-01T14:55:18.155Z</time></trkpt><trkpt lat="44.4692" lon="8.484405"><ele>380.0</ele><time>2026-05-01T14:55:19.159Z</time></trkpt><trkpt lat="44.469305" lon="8.4843783"><ele>380.0</ele><time>2026-05-01T14:55:20.154Z</time></trkpt><trkpt lat="44.46941" lon="8.484345"><ele>380.0</ele><time>2026-05-01T14:55:21.152Z</time></trkpt><trkpt lat="44.4695217" lon="8.4843117"><ele>380.0</ele><time>2026-05-01T14:55:22.152Z</time></trkpt><trkpt lat="44.4696417" lon="8.4842767"><ele>380.5</ele><time>2026-05-01T14:55:23.151Z</time></trkpt><trkpt lat="44.4697633" lon="8.484245"><ele>381.0</ele><time>2026-05-01T14:55:24.154Z</time></trkpt><trkpt lat="44.4698817" lon="8.4842167"><ele>381.5</ele><time>2026-05-01T14:55:25.155Z</time></trkpt><trkpt lat="44.4700017" lon="8.4842017"><ele>382.0</ele><time>2026-05-01T14:55:26.156Z</time></trkpt><trkpt lat="44.470125" lon="8.4841917"><ele>382.0</ele><time>2026-05-01T14:55:27.153Z</time></trkpt><trkpt lat="44.4702417" lon="8.4841917"><ele>382.0</ele><time>2026-05-01T14:55:28.153Z</time></trkpt><trkpt lat="44.470355" lon="8.4842117"><ele>382.0</ele><time>2026-05-01T14:55:29.157Z</time></trkpt><trkpt lat="44.4704717" lon="8.48423"><ele>382.0</ele><time>2026-05-01T14:55:30.154Z</time></trkpt><trkpt lat="44.47059" lon="8.4842567"><ele>381.25</ele><time>2026-05-01T14:55:31.154Z</time></trkpt><trkpt lat="44.47071" lon="8.4842767"><ele>380.5</ele><time>2026-05-01T14:55:32.154Z</time></trkpt><trkpt lat="44.47083" lon="8.4843017"><ele>379.75</ele><time>2026-05-01T14:55:33.15Z</time></trkpt><trkpt lat="44.4709517" lon="8.4843317"><ele>379.0</ele><time>2026-05-01T14:55:34.158Z</time></trkpt><trkpt lat="44.4710667" lon="8.484365"><ele>379.0</ele><time>2026-05-01T14:55:35.151Z</time></trkpt><trkpt lat="44.4711917" lon="8.4844267"><ele>379.0</ele><time>2026-05-01T14:55:36.15Z</time></trkpt><trkpt lat="44.47131" lon="8.484515"><ele>379.0</ele><time>2026-05-01T14:55:37.155Z</time></trkpt><trkpt lat="44.4714317" lon="8.4846167"><ele>379.0</ele><time>2026-05-01T14:55:38.151Z</time></trkpt><trkpt lat="44.4715633" lon="8.4847333"><ele>378.66666666666663</ele><time>2026-05-01T14:55:39.153Z</time></trkpt><trkpt lat="44.471695" lon="8.4848567"><ele>378.3333333333333</ele><time>2026-05-01T14:55:40.155Z</time></trkpt><trkpt lat="44.4718233" lon="8.484985"><ele>378.0</ele><time>2026-05-01T14:55:41.154Z</time></trkpt><trkpt lat="44.4719517" lon="8.4851133"><ele>378.0</ele><time>2026-05-01T14:55:42.154Z</time></trkpt><trkpt lat="44.4720767" lon="8.48524"><ele>378.0</ele><time>2026-05-01T14:55:43.152Z</time></trkpt><trkpt lat="44.4722017" lon="8.48537"><ele>378.0</ele><time>2026-05-01T14:55:44.153Z</time></trkpt><trkpt lat="44.4723333" lon="8.48549"><ele>377.75</ele><time>2026-05-01T14:55:45.152Z</time></trkpt><trkpt lat="44.4724567" lon="8.4856"><ele>377.5</ele><time>2026-05-01T14:55:46.153Z</time></trkpt><trkpt lat="44.4725833" lon="8.4857117"><ele>377.25</ele><time>2026-05-01T14:55:47.154Z</time></trkpt><trkpt lat="44.472705" lon="8.48582"><ele>377.0</ele><time>2026-05-01T14:55:48.159Z</time></trkpt><trkpt lat="44.4728317" lon="8.4859317"><ele>378.0</ele><time>2026-05-01T14:55:49.153Z</time></trkpt><trkpt lat="44.47296" lon="8.4860483"><ele>379.0</ele><time>2026-05-01T14:55:50.157Z</time></trkpt><trkpt lat="44.473085" lon="8.486165"><ele>380.0</ele><time>2026-05-01T14:55:51.152Z</time></trkpt><trkpt lat="44.473215" lon="8.48628"><ele>380.0</ele><time>2026-05-01T14:55:52.155Z</time></trkpt><trkpt lat="44.473355" lon="8.4863883"><ele>380.0</ele><time>2026-05-01T14:55:53.152Z</time></trkpt><trkpt lat="44.4734967" lon="8.4864983"><ele>380.0</ele><time>2026-05-01T14:55:54.151Z</time></trkpt><trkpt lat="44.4736367" lon="8.4866117"><ele>376.0</ele><time>2026-05-01T14:55:55.151Z</time></trkpt><trkpt lat="44.47378" lon="8.486725"><ele>372.0</ele><time>2026-05-01T14:55:56.159Z</time></trkpt><trkpt lat="44.4739217" lon="8.48684"><ele>368.0</ele><time>2026-05-01T14:55:57.153Z</time></trkpt><trkpt lat="44.4740617" lon="8.486955"><ele>368.0</ele><time>2026-05-01T14:55:58.158Z</time></trkpt><trkpt lat="44.4741967" lon="8.487075"><ele>368.0</ele><time>2026-05-01T14:55:59.159Z</time></trkpt><trkpt lat="44.4743317" lon="8.48717"><ele>368.0</ele><time>2026-05-01T14:56:00.155Z</time></trkpt><trkpt lat="44.4744683" lon="8.48723"><ele>369.75</ele><time>2026-05-01T14:56:01.151Z</time></trkpt><trkpt lat="44.4745983" lon="8.4872433"><ele>371.5</ele><time>2026-05-01T14:56:02.156Z</time></trkpt><trkpt lat="44.4747217" lon="8.4872317"><ele>373.25</ele><time>2026-05-01T14:56:03.149Z</time></trkpt><trkpt lat="44.47484" lon="8.4871933"><ele>375.0</ele><time>2026-05-01T14:56:04.152Z</time></trkpt><trkpt lat="44.474965" lon="8.4871533"><ele>375.0</ele><time>2026-05-01T14:56:05.153Z</time></trkpt><trkpt lat="44.4750917" lon="8.4871233"><ele>375.0</ele><time>2026-05-01T14:56:06.151Z</time></trkpt><trkpt lat="44.47522" lon="8.487085"><ele>375.0</ele><time>2026-05-01T14:56:07.154Z</time></trkpt><trkpt lat="44.4753417" lon="8.4870533"><ele>375.0</ele><time>2026-05-01T14:56:08.15Z</time></trkpt><trkpt lat="44.4754517" lon="8.48702"><ele>373.25</ele><time>2026-05-01T14:56:09.151Z</time></trkpt><trkpt lat="44.4755517" lon="8.486965"><ele>371.5</ele><time>2026-05-01T14:56:10.157Z</time></trkpt><trkpt lat="44.47565" lon="8.4869183"><ele>369.75</ele><time>2026-05-01T14:56:11.153Z</time></trkpt><trkpt lat="44.4757467" lon="8.486825"><ele>368.0</ele><time>2026-05-01T14:56:12.15Z</time></trkpt><trkpt lat="44.4758433" lon="8.4867167"><ele>368.0</ele><time>2026-05-01T14:56:13.151Z</time></trkpt><trkpt lat="44.4759417" lon="8.48659"><ele>368.0</ele><time>2026-05-01T14:56:14.149Z</time></trkpt><trkpt lat="44.47604" lon="8.4864583"><ele>368.0</ele><time>2026-05-01T14:56:15.153Z</time></trkpt><trkpt lat="44.4761383" lon="8.486325"><ele>368.0</ele><time>2026-05-01T14:56:16.153Z</time></trkpt><trkpt lat="44.4762317" lon="8.4862033"><ele>367.0</ele><time>2026-05-01T14:56:17.156Z</time></trkpt><trkpt lat="44.47632" lon="8.4860867"><ele>366.0</ele><time>2026-05-01T14:56:18.15Z</time></trkpt><trkpt lat="44.4764033" lon="8.4859717"><ele>365.0</ele><time>2026-05-01T14:56:19.16Z</time></trkpt><trkpt lat="44.4764917" lon="8.4858633"><ele>364.0</ele><time>2026-05-01T14:56:20.159Z</time></trkpt><trkpt lat="44.4765883" lon="8.4857667"><ele>364.0</ele><time>2026-05-01T14:56:21.153Z</time></trkpt><trkpt lat="44.4766933" lon="8.4856933"><ele>364.0</ele><time>2026-05-01T14:56:22.161Z</time></trkpt><trkpt lat="44.476805" lon="8.4856567"><ele>364.0</ele><time>2026-05-01T14:56:23.153Z</time></trkpt><trkpt lat="44.476915" lon="8.4856633"><ele>364.0</ele><time>2026-05-01T14:56:24.155Z</time></trkpt><trkpt lat="44.4770283" lon="8.485695"><ele>364.25</ele><time>2026-05-01T14:56:25.153Z</time></trkpt><trkpt lat="44.4771383" lon="8.48575"><ele>364.5</ele><time>2026-05-01T14:56:26.157Z</time></trkpt><trkpt lat="44.4772417" lon="8.485825"><ele>364.75</ele><time>2026-05-01T14:56:27.158Z</time></trkpt><trkpt lat="44.4773433" lon="8.4859033"><ele>365.0</ele><time>2026-05-01T14:56:28.159Z</time></trkpt><trkpt lat="44.477455" lon="8.4859867"><ele>365.0</ele><time>2026-05-01T14:56:29.155Z</time></trkpt><trkpt lat="44.4775483" lon="8.4860717"><ele>365.0</ele><time>2026-05-01T14:56:30.153Z</time></trkpt><trkpt lat="44.4776267" lon="8.4861667"><ele>365.0</ele><time>2026-05-01T14:56:31.155Z</time></trkpt><trkpt lat="44.4776917" lon="8.4862633"><ele>365.0</ele><time>2026-05-01T14:56:32.159Z</time></trkpt><trkpt lat="44.4777567" lon="8.4863667"><ele>365.0</ele><time>2026-05-01T14:56:33.152Z</time></trkpt><trkpt lat="44.4778083" lon="8.486495"><ele>364.75</ele><time>2026-05-01T14:56:34.155Z</time></trkpt><trkpt lat="44.4778617" lon="8.4866383"><ele>364.5</ele><time>2026-05-01T14:56:35.154Z</time></trkpt><trkpt lat="44.477905" lon="8.486835"><ele>364.25</ele><time>2026-05-01T14:56:36.154Z</time></trkpt><trkpt lat="44.4779583" lon="8.487025"><ele>364.0</ele><time>2026-05-01T14:56:37.153Z</time></trkpt><trkpt lat="44.4780067" lon="8.4872033"><ele>367.0</ele><time>2026-05-01T14:56:38.154Z</time></trkpt><trkpt lat="44.47805" lon="8.4873717"><ele>370.0</ele><time>2026-05-01T14:56:39.152Z</time></trkpt><trkpt lat="44.4780817" lon="8.4875467"><ele>373.0</ele><time>2026-05-01T14:56:40.151Z</time></trkpt><trkpt lat="44.4781033" lon="8.4877233"><ele>376.0</ele><time>2026-05-01T14:56:41.158Z</time></trkpt><trkpt lat="44.4781167" lon="8.4878967"><ele>376.4</ele><time>2026-05-01T14:56:42.152Z</time></trkpt><trkpt lat="44.47813" lon="8.4880667"><ele>376.8</ele><time>2026-05-01T14:56:43.159Z</time></trkpt><trkpt lat="44.478135" lon="8.48823"><ele>377.2</ele><time>2026-05-01T14:56:44.152Z</time></trkpt><trkpt lat="44.4781433" lon="8.4883817"><ele>377.59999999999997</ele><time>2026-05-01T14:56:45.153Z</time></trkpt><trkpt lat="44.47816" lon="8.4885"><ele>378.0</ele><time>2026-05-01T14:56:46.152Z</time></trkpt><trkpt lat="44.4781833" lon="8.4886133"><ele>378.0</ele><time>2026-05-01T14:56:47.155Z</time></trkpt><trkpt lat="44.4782383" lon="8.4886917"><ele>378.0</ele><time>2026-05-01T14:56:48.158Z</time></trkpt><trkpt lat="44.478305" lon="8.4887417"><ele>378.0</ele><time>2026-05-01T14:56:49.156Z</time></trkpt><trkpt lat="44.4783633" lon="8.488785"><ele>378.0</ele><time>2026-05-01T14:56:50.156Z</time></trkpt><trkpt lat="44.47843" lon="8.4888133"><ele>378.0</ele><time>2026-05-01T14:56:51.156Z</time></trkpt><trkpt lat="44.4785017" lon="8.4888467"><ele>378.0</ele><time>2026-05-01T14:56:52.154Z</time></trkpt><trkpt lat="44.4785983" lon="8.48884"><ele>379.0</ele><time>2026-05-01T14:56:53.161Z</time></trkpt><trkpt lat="44.4787083" lon="8.4888383"><ele>380.0</ele><time>2026-05-01T14:56:54.154Z</time></trkpt><trkpt lat="44.4788083" lon="8.4888467"><ele>381.0</ele><time>2026-05-01T14:56:55.155Z</time></trkpt><trkpt lat="44.4788883" lon="8.48887"><ele>382.0</ele><time>2026-05-01T14:56:56.155Z</time></trkpt><trkpt lat="44.4789617" lon="8.48891"><ele>383.0</ele><time>2026-05-01T14:56:57.151Z</time></trkpt><trkpt lat="44.4790267" lon="8.4889617"><ele>384.0</ele><time>2026-05-01T14:56:58.15Z</time></trkpt><trkpt lat="44.479075" lon="8.489035"><ele>384.4</ele><time>2026-05-01T14:56:59.153Z</time></trkpt><trkpt lat="44.4791167" lon="8.4891283"><ele>384.79999999999995</ele><time>2026-05-01T14:57:00.151Z</time></trkpt><trkpt lat="44.4791583" lon="8.4892133"><ele>385.20000000000005</ele><time>2026-05-01T14:57:01.15Z</time></trkpt><trkpt lat="44.4791983" lon="8.4893017"><ele>385.6</ele><time>2026-05-01T14:57:02.151Z</time></trkpt><trkpt lat="44.4792517" lon="8.48944"><ele>386.0</ele><time>2026-05-01T14:57:04.151Z</time></trkpt><trkpt lat="44.4792633" lon="8.48962"><ele>386.6</ele><time>2026-05-01T14:57:06.159Z</time></trkpt><trkpt lat="44.47925" lon="8.489805"><ele>387.20000000000005</ele><time>2026-05-01T14:57:07.165Z</time></trkpt><trkpt lat="44.4792867" lon="8.489945"><ele>387.79999999999995</ele><time>2026-05-01T14:57:08.151Z</time></trkpt><trkpt lat="44.4793417" lon="8.4900517"><ele>388.4</ele><time>2026-05-01T14:57:09.152Z</time></trkpt><trkpt lat="44.4794067" lon="8.4901417"><ele>389.0</ele><time>2026-05-01T14:57:10.153Z</time></trkpt><trkpt lat="44.4794783" lon="8.4901817"><ele>389.0</ele><time>2026-05-01T14:57:11.153Z</time></trkpt><trkpt lat="44.47956" lon="8.49022"><ele>389.0</ele><time>2026-05-01T14:57:12.154Z</time></trkpt><trkpt lat="44.47965" lon="8.490245"><ele>389.0</ele><time>2026-05-01T14:57:13.157Z</time></trkpt><trkpt lat="44.4797583" lon="8.4902267"><ele>389.0</ele><time>2026-05-01T14:57:14.154Z</time></trkpt><trkpt lat="44.4798617" lon="8.49021"><ele>389.0</ele><time>2026-05-01T14:57:15.152Z</time></trkpt><trkpt lat="44.4799483" lon="8.4902"><ele>386.0</ele><time>2026-05-01T14:57:16.153Z</time></trkpt><trkpt lat="44.4800717" lon="8.49018"><ele>383.0</ele><time>2026-05-01T14:57:17.15Z</time></trkpt><trkpt lat="44.4802067" lon="8.4901717"><ele>380.0</ele><time>2026-05-01T14:57:18.152Z</time></trkpt><trkpt lat="44.480355" lon="8.4901683"><ele>377.0</ele><time>2026-05-01T14:57:19.152Z</time></trkpt><trkpt lat="44.4805033" lon="8.4901817"><ele>374.33333333333337</ele><time>2026-05-01T14:57:20.157Z</time></trkpt><trkpt lat="44.4806617" lon="8.490185"><ele>371.6666666666667</ele><time>2026-05-01T14:57:21.151Z</time></trkpt><trkpt lat="44.480815" lon="8.490195"><ele>369.0</ele><time>2026-05-01T14:57:22.15Z</time></trkpt><trkpt lat="44.4809683" lon="8.490205"><ele>369.0</ele><time>2026-05-01T14:57:23.157Z</time></trkpt><trkpt lat="44.48112" lon="8.49021"><ele>369.0</ele><time>2026-05-01T14:57:24.155Z</time></trkpt><trkpt lat="44.4812567" lon="8.490215"><ele>369.0</ele><time>2026-05-01T14:57:25.156Z</time></trkpt><trkpt lat="44.4813867" lon="8.4902283"><ele>369.0</ele><time>2026-05-01T14:57:26.154Z</time></trkpt><trkpt lat="44.4815083" lon="8.490275"><ele>369.25</ele><time>2026-05-01T14:57:27.155Z</time></trkpt><trkpt lat="44.4816183" lon="8.4903633"><ele>369.5</ele><time>2026-05-01T14:57:28.154Z</time></trkpt><trkpt lat="44.4817117" lon="8.4904983"><ele>369.75</ele><time>2026-05-01T14:57:29.152Z</time></trkpt><trkpt lat="44.4817967" lon="8.4906633"><ele>370.0</ele><time>2026-05-01T14:57:30.152Z</time></trkpt><trkpt lat="44.4818667" lon="8.490855"><ele>371.66666666666663</ele><time>2026-05-01T14:57:31.159Z</time></trkpt><trkpt lat="44.4819167" lon="8.49106"><ele>373.3333333333333</ele><time>2026-05-01T14:57:32.15Z</time></trkpt><trkpt lat="44.4819417" lon="8.49128"><ele>375.0</ele><time>2026-05-01T14:57:33.152Z</time></trkpt><trkpt lat="44.48196" lon="8.4915"><ele>375.3333333333333</ele><time>2026-05-01T14:57:34.152Z</time></trkpt><trkpt lat="44.48198" lon="8.4917183"><ele>375.66666666666663</ele><time>2026-05-01T14:57:35.153Z</time></trkpt><trkpt lat="44.482" lon="8.491935"><ele>376.0</ele><time>2026-05-01T14:57:36.155Z</time></trkpt><trkpt lat="44.482025" lon="8.4921433"><ele>375.25</ele><time>2026-05-01T14:57:37.155Z</time></trkpt><trkpt lat="44.4820533" lon="8.4923333"><ele>374.5</ele><time>2026-05-01T14:57:38.15Z</time></trkpt><trkpt lat="44.4820833" lon="8.4925"><ele>373.75</ele><time>2026-05-01T14:57:39.154Z</time></trkpt><trkpt lat="44.4821467" lon="8.4926367"><ele>373.0</ele><time>2026-05-01T14:57:40.151Z</time></trkpt><trkpt lat="44.4822533" lon="8.4927433"><ele>373.0</ele><time>2026-05-01T14:57:41.151Z</time></trkpt><trkpt lat="44.48238" lon="8.4928317"><ele>373.0</ele><time>2026-05-01T14:57:42.151Z</time></trkpt><trkpt lat="44.48252" lon="8.4929033"><ele>373.0</ele><time>2026-05-01T14:57:43.154Z</time></trkpt><trkpt lat="44.4826567" lon="8.4929667"><ele>373.0</ele><time>2026-05-01T14:57:44.149Z</time></trkpt><trkpt lat="44.4828" lon="8.4930117"><ele>376.75</ele><time>2026-05-01T14:57:45.154Z</time></trkpt><trkpt lat="44.4829433" lon="8.4930467"><ele>380.5</ele><time>2026-05-01T14:57:46.153Z</time></trkpt><trkpt lat="44.48308" lon="8.4930733"><ele>384.25</ele><time>2026-05-01T14:57:47.153Z</time></trkpt><trkpt lat="44.4832033" lon="8.49311"><ele>388.0</ele><time>2026-05-01T14:57:48.156Z</time></trkpt><trkpt lat="44.4833133" lon="8.4931617"><ele>388.0</ele><time>2026-05-01T14:57:49.157Z</time></trkpt><trkpt lat="44.4833967" lon="8.493245"><ele>388.0</ele><time>2026-05-01T14:57:50.156Z</time></trkpt><trkpt lat="44.483455" lon="8.49336"><ele>388.0</ele><time>2026-05-01T14:57:51.153Z</time></trkpt><trkpt lat="44.4835033" lon="8.493485"><ele>388.0</ele><time>2026-05-01T14:57:52.156Z</time></trkpt><trkpt lat="44.483525" lon="8.4936417"><ele>388.0</ele><time>2026-05-01T14:57:53.155Z</time></trkpt><trkpt lat="44.483545" lon="8.4937967"><ele>387.4</ele><time>2026-05-01T14:57:54.153Z</time></trkpt><trkpt lat="44.4835617" lon="8.4939367"><ele>386.79999999999995</ele><time>2026-05-01T14:57:55.156Z</time></trkpt><trkpt lat="44.4835883" lon="8.4940867"><ele>386.2</ele><time>2026-05-01T14:57:56.154Z</time></trkpt><trkpt lat="44.4836283" lon="8.494225"><ele>385.6</ele><time>2026-05-01T14:57:57.154Z</time></trkpt><trkpt lat="44.4836917" lon="8.49435"><ele>385.0</ele><time>2026-05-01T14:57:58.152Z</time></trkpt><trkpt lat="44.4837867" lon="8.4944417"><ele>385.75</ele><time>2026-05-01T14:57:59.154Z</time></trkpt><trkpt lat="44.48389" lon="8.4945417"><ele>386.5</ele><time>2026-05-01T14:58:00.151Z</time></trkpt><trkpt lat="44.483995" lon="8.4946367"><ele>387.25</ele><time>2026-05-01T14:58:01.152Z</time></trkpt><trkpt lat="44.48409" lon="8.4947383"><ele>388.0</ele><time>2026-05-01T14:58:02.153Z</time></trkpt><trkpt lat="44.4841833" lon="8.494835"><ele>388.0</ele><time>2026-05-01T14:58:03.152Z</time></trkpt><trkpt lat="44.484285" lon="8.4949083"><ele>388.0</ele><time>2026-05-01T14:58:04.152Z</time></trkpt><trkpt lat="44.4843933" lon="8.4949533"><ele>388.0</ele><time>2026-05-01T14:58:05.153Z</time></trkpt><trkpt lat="44.48451" lon="8.494975"><ele>388.0</ele><time>2026-05-01T14:58:06.154Z</time></trkpt><trkpt lat="44.4846183" lon="8.4950033"><ele>390.59999999999997</ele><time>2026-05-01T14:58:07.155Z</time></trkpt><trkpt lat="44.4847183" lon="8.4950483"><ele>393.2</ele><time>2026-05-01T14:58:08.153Z</time></trkpt><trkpt lat="44.4848" lon="8.495125"><ele>395.8</ele><time>2026-05-01T14:58:09.155Z</time></trkpt><trkpt lat="44.4848617" lon="8.495225"><ele>398.4</ele><time>2026-05-01T14:58:10.153Z</time></trkpt><trkpt lat="44.4849017" lon="8.4953467"><ele>401.0</ele><time>2026-05-01T14:58:11.153Z</time></trkpt><trkpt lat="44.484905" lon="8.495485"><ele>401.0</ele><time>2026-05-01T14:58:12.158Z</time></trkpt><trkpt lat="44.484905" lon="8.4956283"><ele>401.0</ele><time>2026-05-01T14:58:13.154Z</time></trkpt><trkpt lat="44.4848833" lon="8.495795"><ele>401.0</ele><time>2026-05-01T14:58:14.153Z</time></trkpt><trkpt lat="44.4848767" lon="8.4959417"><ele>401.0</ele><time>2026-05-01T14:58:15.157Z</time></trkpt><trkpt lat="44.484895" lon="8.4961"><ele>401.0</ele><time>2026-05-01T14:58:16.154Z</time></trkpt><trkpt lat="44.4849517" lon="8.4962467"><ele>401.0</ele><time>2026-05-01T14:58:17.154Z</time></trkpt><trkpt lat="44.48503" lon="8.496385"><ele>401.0</ele><time>2026-05-01T14:58:18.156Z</time></trkpt><trkpt lat="44.48512" lon="8.4965183"><ele>401.0</ele><time>2026-05-01T14:58:19.157Z</time></trkpt><trkpt lat="44.48522" lon="8.4966433"><ele>401.0</ele><time>2026-05-01T14:58:20.154Z</time></trkpt><trkpt lat="44.485335" lon="8.4967517"><ele>403.5</ele><time>2026-05-01T14:58:21.155Z</time></trkpt><trkpt lat="44.4854617" lon="8.496845"><ele>406.0</ele><time>2026-05-01T14:58:22.155Z</time></trkpt><trkpt lat="44.485595" lon="8.496925"><ele>408.5</ele><time>2026-05-01T14:58:23.158Z</time></trkpt><trkpt lat="44.485735" lon="8.4970017"><ele>411.0</ele><time>2026-05-01T14:58:24.153Z</time></trkpt><trkpt lat="44.4858817" lon="8.4970633"><ele>411.0</ele><time>2026-05-01T14:58:25.156Z</time></trkpt><trkpt lat="44.4860233" lon="8.4971167"><ele>411.0</ele><time>2026-05-01T14:58:26.157Z</time></trkpt><trkpt lat="44.48617" lon="8.4971567"><ele>411.0</ele><time>2026-05-01T14:58:27.151Z</time></trkpt><trkpt lat="44.4863167" lon="8.4972"><ele>411.0</ele><time>2026-05-01T14:58:28.153Z</time></trkpt><trkpt lat="44.4864633" lon="8.4972133"><ele>411.75</ele><time>2026-05-01T14:58:29.151Z</time></trkpt><trkpt lat="44.486605" lon="8.4972067"><ele>412.5</ele><time>2026-05-01T14:58:30.148Z</time></trkpt><trkpt lat="44.4867533" lon="8.4971817"><ele>413.25</ele><time>2026-05-01T14:58:31.154Z</time></trkpt><trkpt lat="44.4868883" lon="8.497145"><ele>414.0</ele><time>2026-05-01T14:58:32.156Z</time></trkpt><trkpt lat="44.4870117" lon="8.497085"><ele>412.5</ele><time>2026-05-01T14:58:33.156Z</time></trkpt><trkpt lat="44.48713" lon="8.4970283"><ele>411.0</ele><time>2026-05-01T14:58:34.157Z</time></trkpt><trkpt lat="44.487235" lon="8.4969833"><ele>409.5</ele><time>2026-05-01T14:58:35.158Z</time></trkpt><trkpt lat="44.48734" lon="8.4969383"><ele>408.0</ele><time>2026-05-01T14:58:36.154Z</time></trkpt><trkpt lat="44.48746" lon="8.4969417"><ele>408.0</ele><time>2026-05-01T14:58:37.156Z</time></trkpt><trkpt lat="44.4875767" lon="8.49693"><ele>408.0</ele><time>2026-05-01T14:58:38.153Z</time></trkpt><trkpt lat="44.48768" lon="8.4969583"><ele>408.0</ele><time>2026-05-01T14:58:39.154Z</time></trkpt><trkpt lat="44.4877817" lon="8.4970117"><ele>408.0</ele><time>2026-05-01T14:58:40.15Z</time></trkpt><trkpt lat="44.4878767" lon="8.4970617"><ele>408.0</ele><time>2026-05-01T14:58:41.15Z</time></trkpt><trkpt lat="44.487965" lon="8.4971367"><ele>408.6666666666667</ele><time>2026-05-01T14:58:42.154Z</time></trkpt><trkpt lat="44.488025" lon="8.497235"><ele>409.33333333333337</ele><time>2026-05-01T14:58:43.15Z</time></trkpt><trkpt lat="44.4880767" lon="8.4973283"><ele>410.0</ele><time>2026-05-01T14:58:44.151Z</time></trkpt><trkpt lat="44.48813" lon="8.4973983"><ele>410.6666666666667</ele><time>2026-05-01T14:58:45.151Z</time></trkpt><trkpt lat="44.4881833" lon="8.497475"><ele>411.33333333333337</ele><time>2026-05-01T14:58:46.153Z</time></trkpt><trkpt lat="44.488235" lon="8.49753"><ele>412.0</ele><time>2026-05-01T14:58:47.155Z</time></trkpt><trkpt lat="44.4883083" lon="8.4975333"><ele>412.0</ele><time>2026-05-01T14:58:48.153Z</time></trkpt><trkpt lat="44.4884" lon="8.4973817"><ele>412.0</ele><time>2026-05-01T14:58:49.158Z</time></trkpt><trkpt lat="44.4884667" lon="8.4972717"><ele>412.0</ele><time>2026-05-01T14:58:50.152Z</time></trkpt><trkpt lat="44.4885483" lon="8.497195"><ele>412.0</ele><time>2026-05-01T14:58:51.155Z</time></trkpt><trkpt lat="44.488625" lon="8.497155"><ele>412.0</ele><time>2026-05-01T14:58:52.154Z</time></trkpt><trkpt lat="44.4887083" lon="8.4971733"><ele>408.0</ele><time>2026-05-01T14:58:53.155Z</time></trkpt><trkpt lat="44.4887933" lon="8.4973083"><ele>404.0</ele><time>2026-05-01T14:58:54.152Z</time></trkpt><trkpt lat="44.4888567" lon="8.4974167"><ele>400.0</ele><time>2026-05-01T14:58:55.154Z</time></trkpt><trkpt lat="44.4889267" lon="8.4975483"><ele>396.0</ele><time>2026-05-01T14:58:56.155Z</time></trkpt><trkpt lat="44.4889983" lon="8.497665"><ele>396.0</ele><time>2026-05-01T14:58:57.153Z</time></trkpt><trkpt lat="44.4890683" lon="8.49775"><ele>396.0</ele><time>2026-05-01T14:58:58.154Z</time></trkpt><trkpt lat="44.4891417" lon="8.4978333"><ele>396.0</ele><time>2026-05-01T14:58:59.152Z</time></trkpt><trkpt lat="44.4892517" lon="8.4978383"><ele>396.0</ele><time>2026-05-01T14:59:00.153Z</time></trkpt><trkpt lat="44.489365" lon="8.4978217"><ele>396.0</ele><time>2026-05-01T14:59:01.154Z</time></trkpt><trkpt lat="44.4894717" lon="8.4977617"><ele>396.0</ele><time>2026-05-01T14:59:02.153Z</time></trkpt><trkpt lat="44.4895683" lon="8.4976633"><ele>396.0</ele><time>2026-05-01T14:59:03.154Z</time></trkpt><trkpt lat="44.48966" lon="8.4975383"><ele>396.0</ele><time>2026-05-01T14:59:04.15Z</time></trkpt><trkpt lat="44.48975" lon="8.4974083"><ele>396.0</ele><time>2026-05-01T14:59:05.156Z</time></trkpt><trkpt lat="44.4898383" lon="8.4972883"><ele>395.6</ele><time>2026-05-01T14:59:06.155Z</time></trkpt><trkpt lat="44.48993" lon="8.4971933"><ele>395.20000000000005</ele><time>2026-05-01T14:59:07.157Z</time></trkpt><trkpt lat="44.4900333" lon="8.4971217"><ele>394.79999999999995</ele><time>2026-05-01T14:59:08.151Z</time></trkpt><trkpt lat="44.49014" lon="8.4970833"><ele>394.4</ele><time>2026-05-01T14:59:09.152Z</time></trkpt><trkpt lat="44.49025" lon="8.4970817"><ele>394.0</ele><time>2026-05-01T14:59:10.154Z</time></trkpt><trkpt lat="44.49036" lon="8.4970733"><ele>392.2</ele><time>2026-05-01T14:59:11.15Z</time></trkpt><trkpt lat="44.4904733" lon="8.4970217"><ele>390.4</ele><time>2026-05-01T14:59:12.151Z</time></trkpt><trkpt lat="44.4905683" lon="8.4969517"><ele>388.6</ele><time>2026-05-01T14:59:13.154Z</time></trkpt><trkpt lat="44.4906267" lon="8.4968367"><ele>386.8</ele><time>2026-05-01T14:59:14.152Z</time></trkpt><trkpt lat="44.490665" lon="8.4967017"><ele>385.0</ele><time>2026-05-01T14:59:15.154Z</time></trkpt><trkpt lat="44.490685" lon="8.49657"><ele>385.00000000000006</ele><time>2026-05-01T14:59:16.154Z</time></trkpt><trkpt lat="44.4907117" lon="8.496455"><ele>385.0</ele><time>2026-05-01T14:59:17.154Z</time></trkpt><trkpt lat="44.4907433" lon="8.4963533"><ele>385.0</ele><time>2026-05-01T14:59:18.159Z</time></trkpt><trkpt lat="44.4907883" lon="8.4962717"><ele>385.0</ele><time>2026-05-01T14:59:19.153Z</time></trkpt><trkpt lat="44.4908567" lon="8.496225"><ele>385.00000000000006</ele><time>2026-05-01T14:59:20.152Z</time></trkpt><trkpt lat="44.490935" lon="8.4961917"><ele>385.0</ele><time>2026-05-01T14:59:21.154Z</time></trkpt><trkpt lat="44.4910367" lon="8.49622"><ele>385.00000000000006</ele><time>2026-05-01T14:59:22.153Z</time></trkpt><trkpt lat="44.4911267" lon="8.4962483"><ele>385.0</ele><time>2026-05-01T14:59:23.154Z</time></trkpt><trkpt lat="44.4912117" lon="8.4962883"><ele>385.0</ele><time>2026-05-01T14:59:24.16Z</time></trkpt><trkpt lat="44.4912833" lon="8.49634"><ele>385.0</ele><time>2026-05-01T14:59:25.156Z</time></trkpt><trkpt lat="44.49135" lon="8.4963933"><ele>385.00000000000006</ele><time>2026-05-01T14:59:26.156Z</time></trkpt><trkpt lat="44.4913967" lon="8.496465"><ele>385.0</ele><time>2026-05-01T14:59:27.154Z</time></trkpt><trkpt lat="44.4914483" lon="8.49653"><ele>383.6666666666667</ele><time>2026-05-01T14:59:28.156Z</time></trkpt><trkpt lat="44.4914933" lon="8.496625"><ele>382.33333333333337</ele><time>2026-05-01T14:59:29.157Z</time></trkpt><trkpt lat="44.4915633" lon="8.4967117"><ele>381.0</ele><time>2026-05-01T14:59:30.153Z</time></trkpt><trkpt lat="44.4916367" lon="8.49679"><ele>379.6666666666667</ele><time>2026-05-01T14:59:31.154Z</time></trkpt><trkpt lat="44.4917033" lon="8.49683"><ele>378.33333333333337</ele><time>2026-05-01T14:59:32.151Z</time></trkpt><trkpt lat="44.4917667" lon="8.4968817"><ele>377.0</ele><time>2026-05-01T14:59:33.152Z</time></trkpt><trkpt lat="44.4918367" lon="8.4969067"><ele>377.0</ele><time>2026-05-01T14:59:34.153Z</time></trkpt><trkpt lat="44.4919167" lon="8.4969117"><ele>377.0</ele><time>2026-05-01T14:59:35.156Z</time></trkpt><trkpt lat="44.4920083" lon="8.4969067"><ele>377.0</ele><time>2026-05-01T14:59:36.152Z</time></trkpt><trkpt lat="44.49211" lon="8.4968583"><ele>377.0</ele><time>2026-05-01T14:59:37.153Z</time></trkpt><trkpt lat="44.4921833" lon="8.496735"><ele>377.0</ele><time>2026-05-01T14:59:38.154Z</time></trkpt><trkpt lat="44.4922567" lon="8.4966383"><ele>376.6</ele><time>2026-05-01T14:59:39.152Z</time></trkpt><trkpt lat="44.4923317" lon="8.4965633"><ele>376.20000000000005</ele><time>2026-05-01T14:59:40.156Z</time></trkpt><trkpt lat="44.49241" lon="8.49651"><ele>375.8</ele><time>2026-05-01T14:59:41.157Z</time></trkpt><trkpt lat="44.4924933" lon="8.49649"><ele>375.4</ele><time>2026-05-01T14:59:42.158Z</time></trkpt><trkpt lat="44.4925817" lon="8.4965417"><ele>375.0</ele><time>2026-05-01T14:59:43.152Z</time></trkpt><trkpt lat="44.4926633" lon="8.4966"><ele>375.0</ele><time>2026-05-01T14:59:44.154Z</time></trkpt><trkpt lat="44.4927367" lon="8.496675"><ele>375.0</ele><time>2026-05-01T14:59:45.156Z</time></trkpt><trkpt lat="44.4928117" lon="8.49675"><ele>375.0</ele><time>2026-05-01T14:59:46.16Z</time></trkpt><trkpt lat="44.4928867" lon="8.496815"><ele>375.0</ele><time>2026-05-01T14:59:47.156Z</time></trkpt><trkpt lat="44.4929617" lon="8.4968617"><ele>375.0</ele><time>2026-05-01T14:59:48.155Z</time></trkpt><trkpt lat="44.493035" lon="8.4968833"><ele>375.0</ele><time>2026-05-01T14:59:49.157Z</time></trkpt><trkpt lat="44.493155" lon="8.4968917"><ele>373.6666666666667</ele><time>2026-05-01T14:59:51.153Z</time></trkpt><trkpt lat="44.493225" lon="8.49685"><ele>372.3333333333333</ele><time>2026-05-01T14:59:53.156Z</time></trkpt><trkpt lat="44.4932167" lon="8.49675"><ele>371.0</ele><time>2026-05-01T14:59:57.155Z</time></trkpt><trkpt lat="44.4931583" lon="8.4967983"><ele>369.66666666666663</ele><time>2026-05-01T15:00:01.154Z</time></trkpt><trkpt lat="44.493115" lon="8.4968683"><ele>368.3333333333333</ele><time>2026-05-01T15:00:04.153Z</time></trkpt><trkpt lat="44.49301" lon="8.4968967"><ele>367.0</ele><time>2026-05-01T15:00:06.157Z</time></trkpt><trkpt lat="44.4929333" lon="8.4968767"><ele>368.6</ele><time>2026-05-01T15:00:07.158Z</time></trkpt><trkpt lat="44.4928367" lon="8.496815"><ele>370.20000000000005</ele><time>2026-05-01T15:00:08.156Z</time></trkpt><trkpt lat="44.4927433" lon="8.4967383"><ele>371.8</ele><time>2026-05-01T15:00:09.157Z</time></trkpt><trkpt lat="44.49265" lon="8.4966383"><ele>373.4</ele><time>2026-05-01T15:00:10.15Z</time></trkpt><trkpt lat="44.4925617" lon="8.4965567"><ele>375.0</ele><time>2026-05-01T15:00:11.154Z</time></trkpt><trkpt lat="44.492475" lon="8.4964967"><ele>375.0</ele><time>2026-05-01T15:00:12.154Z</time></trkpt><trkpt lat="44.4923933" lon="8.4964733"><ele>375.0</ele><time>2026-05-01T15:00:13.153Z</time></trkpt><trkpt lat="44.4923083" lon="8.49648"><ele>375.0</ele><time>2026-05-01T15:00:14.155Z</time></trkpt><trkpt lat="44.492235" lon="8.4965483"><ele>375.0</ele><time>2026-05-01T15:00:15.155Z</time></trkpt><trkpt lat="44.4921683" lon="8.4966517"><ele>375.0</ele><time>2026-05-01T15:00:16.154Z</time></trkpt><trkpt lat="44.492095" lon="8.4967517"><ele>375.4</ele><time>2026-05-01T15:00:17.156Z</time></trkpt><trkpt lat="44.4920083" lon="8.4968283"><ele>375.8</ele><time>2026-05-01T15:00:18.152Z</time></trkpt><trkpt lat="44.4919133" lon="8.4968833"><ele>376.20000000000005</ele><time>2026-05-01T15:00:19.153Z</time></trkpt><trkpt lat="44.4918117" lon="8.4969267"><ele>376.6</ele><time>2026-05-01T15:00:20.153Z</time></trkpt><trkpt lat="44.491715" lon="8.4969683"><ele>377.0</ele><time>2026-05-01T15:00:21.153Z</time></trkpt><trkpt lat="44.491625" lon="8.4970083"><ele>377.0</ele><time>2026-05-01T15:00:22.153Z</time></trkpt><trkpt lat="44.49154" lon="8.49704"><ele>377.0</ele><time>2026-05-01T15:00:23.154Z</time></trkpt><trkpt lat="44.4914567" lon="8.49705"><ele>377.0</ele><time>2026-05-01T15:00:24.152Z</time></trkpt><trkpt lat="44.491375" lon="8.497045"><ele>377.0</ele><time>2026-05-01T15:00:25.156Z</time></trkpt><trkpt lat="44.4913" lon="8.4970267"><ele>377.0</ele><time>2026-05-01T15:00:26.157Z</time></trkpt><trkpt lat="44.491235" lon="8.496945"><ele>377.0</ele><time>2026-05-01T15:00:27.15Z</time></trkpt><trkpt lat="44.4911833" lon="8.4968683"><ele>378.6</ele><time>2026-05-01T15:00:28.151Z</time></trkpt><trkpt lat="44.4911967" lon="8.4966967"><ele>380.20000000000005</ele><time>2026-05-01T15:00:29.158Z</time></trkpt><trkpt lat="44.491135" lon="8.4965933"><ele>381.8</ele><time>2026-05-01T15:00:30.152Z</time></trkpt><trkpt lat="44.49106" lon="8.4964967"><ele>383.4</ele><time>2026-05-01T15:00:31.155Z</time></trkpt><trkpt lat="44.4909633" lon="8.496435"><ele>385.0</ele><time>2026-05-01T15:00:32.153Z</time></trkpt><trkpt lat="44.4908567" lon="8.4964067"><ele>385.00000000000006</ele><time>2026-05-01T15:00:33.153Z</time></trkpt><trkpt lat="44.490755" lon="8.4963967"><ele>385.0</ele><time>2026-05-01T15:00:34.156Z</time></trkpt><trkpt lat="44.49067" lon="8.4964083"><ele>385.0</ele><time>2026-05-01T15:00:35.157Z</time></trkpt><trkpt lat="44.4906183" lon="8.49647"><ele>385.0</ele><time>2026-05-01T15:00:36.16Z</time></trkpt><trkpt lat="44.490575" lon="8.4965667"><ele>385.00000000000006</ele><time>2026-05-01T15:00:37.152Z</time></trkpt><trkpt lat="44.4905683" lon="8.4967133"><ele>385.0</ele><time>2026-05-01T15:00:38.153Z</time></trkpt><trkpt lat="44.4905317" lon="8.49683"><ele>385.0</ele><time>2026-05-01T15:00:39.15Z</time></trkpt><trkpt lat="44.490475" lon="8.4969333"><ele>385.0</ele><time>2026-05-01T15:00:40.151Z</time></trkpt><trkpt lat="44.4904017" lon="8.4970133"><ele>385.0</ele><time>2026-05-01T15:00:41.153Z</time></trkpt><trkpt lat="44.4903133" lon="8.4970583"><ele>385.0</ele><time>2026-05-01T15:00:42.154Z</time></trkpt><trkpt lat="44.4902117" lon="8.4970783"><ele>385.0</ele><time>2026-05-01T15:00:43.152Z</time></trkpt><trkpt lat="44.4900983" lon="8.4971083"><ele>387.25</ele><time>2026-05-01T15:00:44.154Z</time></trkpt><trkpt lat="44.4899883" lon="8.4971667"><ele>389.5</ele><time>2026-05-01T15:00:45.15Z</time></trkpt><trkpt lat="44.4898767" lon="8.497245"><ele>391.75</ele><time>2026-05-01T15:00:46.153Z</time></trkpt><trkpt lat="44.489775" lon="8.4973717"><ele>394.0</ele><time>2026-05-01T15:00:47.152Z</time></trkpt><trkpt lat="44.4896833" lon="8.4975133"><ele>394.5</ele><time>2026-05-01T15:00:48.154Z</time></trkpt><trkpt lat="44.4895917" lon="8.4976517"><ele>395.0</ele><time>2026-05-01T15:00:49.157Z</time></trkpt><trkpt lat="44.4894917" lon="8.49776"><ele>395.5</ele><time>2026-05-01T15:00:50.155Z</time></trkpt><trkpt lat="44.4893833" lon="8.4978133"><ele>396.0</ele><time>2026-05-01T15:00:51.15Z</time></trkpt><trkpt lat="44.489275" lon="8.4978333"><ele>396.0</ele><time>2026-05-01T15:00:52.153Z</time></trkpt><trkpt lat="44.4891683" lon="8.4977867"><ele>396.0</ele><time>2026-05-01T15:00:53.159Z</time></trkpt><trkpt lat="44.489075" lon="8.497695"><ele>396.0</ele><time>2026-05-01T15:00:54.154Z</time></trkpt><trkpt lat="44.4890017" lon="8.4975667"><ele>396.0</ele><time>2026-05-01T15:00:55.154Z</time></trkpt><trkpt lat="44.4889267" lon="8.4974367"><ele>396.0</ele><time>2026-05-01T15:00:56.156Z</time></trkpt><trkpt lat="44.4888567" lon="8.4973267"><ele>396.0</ele><time>2026-05-01T15:00:57.152Z</time></trkpt><trkpt lat="44.488775" lon="8.4972433"><ele>396.0</ele><time>2026-05-01T15:00:58.15Z</time></trkpt><trkpt lat="44.4886817" lon="8.4971967"><ele>396.0</ele><time>2026-05-01T15:00:59.153Z</time></trkpt><trkpt lat="44.4885783" lon="8.4972017"><ele>396.0</ele><time>2026-05-01T15:01:00.152Z</time></trkpt><trkpt lat="44.4884583" lon="8.49729"><ele>399.20000000000005</ele><time>2026-05-01T15:01:01.155Z</time></trkpt><trkpt lat="44.4883617" lon="8.4973817"><ele>402.40000000000003</ele><time>2026-05-01T15:01:02.15Z</time></trkpt><trkpt lat="44.4882667" lon="8.4974517"><ele>405.6</ele><time>2026-05-01T15:01:03.152Z</time></trkpt><trkpt lat="44.4881667" lon="8.4974683"><ele>408.8</ele><time>2026-05-01T15:01:04.15Z</time></trkpt><trkpt lat="44.4880583" lon="8.497465"><ele>412.0</ele><time>2026-05-01T15:01:05.153Z</time></trkpt><trkpt lat="44.4879567" lon="8.4974533"><ele>411.20000000000005</ele><time>2026-05-01T15:01:06.149Z</time></trkpt><trkpt lat="44.4878667" lon="8.4973983"><ele>410.4</ele><time>2026-05-01T15:01:07.153Z</time></trkpt><trkpt lat="44.4877717" lon="8.4973383"><ele>409.6</ele><time>2026-05-01T15:01:08.154Z</time></trkpt><trkpt lat="44.4876933" lon="8.497235"><ele>408.79999999999995</ele><time>2026-05-01T15:01:09.155Z</time></trkpt><trkpt lat="44.4875967" lon="8.4971483"><ele>408.0</ele><time>2026-05-01T15:01:10.155Z</time></trkpt><trkpt lat="44.4875067" lon="8.4970483"><ele>408.0</ele><time>2026-05-01T15:01:11.154Z</time></trkpt><trkpt lat="44.4874017" lon="8.496975"><ele>408.0</ele><time>2026-05-01T15:01:12.152Z</time></trkpt><trkpt lat="44.4872883" lon="8.4969017"><ele>408.0</ele><time>2026-05-01T15:01:13.152Z</time></trkpt><trkpt lat="44.487155" lon="8.4969183"><ele>408.0</ele><time>2026-05-01T15:01:14.153Z</time></trkpt><trkpt lat="44.48702" lon="8.4969383"><ele>409.5</ele><time>2026-05-01T15:01:15.153Z</time></trkpt><trkpt lat="44.4868833" lon="8.496975"><ele>411.0</ele><time>2026-05-01T15:01:16.152Z</time></trkpt><trkpt lat="44.4867483" lon="8.4970367"><ele>412.5</ele><time>2026-05-01T15:01:17.154Z</time></trkpt><trkpt lat="44.486625" lon="8.49709"><ele>414.0</ele><time>2026-05-01T15:01:18.159Z</time></trkpt><trkpt lat="44.4864933" lon="8.4971367"><ele>414.0</ele><time>2026-05-01T15:01:19.154Z</time></trkpt><trkpt lat="44.4863617" lon="8.4971867"><ele>414.0</ele><time>2026-05-01T15:01:20.156Z</time></trkpt><trkpt lat="44.48622" lon="8.4972"><ele>414.0</ele><time>2026-05-01T15:01:21.151Z</time></trkpt><trkpt lat="44.4860767" lon="8.497135"><ele>414.0</ele><time>2026-05-01T15:01:22.156Z</time></trkpt><trkpt lat="44.4859267" lon="8.49706"><ele>413.0</ele><time>2026-05-01T15:01:23.151Z</time></trkpt><trkpt lat="44.4857717" lon="8.4969833"><ele>412.0</ele><time>2026-05-01T15:01:24.154Z</time></trkpt><trkpt lat="44.4856233" lon="8.4968933"><ele>411.0</ele><time>2026-05-01T15:01:25.157Z</time></trkpt><trkpt lat="44.4854767" lon="8.4967967"><ele>407.66666666666663</ele><time>2026-05-01T15:01:26.153Z</time></trkpt><trkpt lat="44.4853367" lon="8.4966983"><ele>404.3333333333333</ele><time>2026-05-01T15:01:27.151Z</time></trkpt><trkpt lat="44.4852083" lon="8.496585"><ele>401.0</ele><time>2026-05-01T15:01:28.152Z</time></trkpt><trkpt lat="44.4850933" lon="8.4964617"><ele>401.0</ele><time>2026-05-01T15:01:29.156Z</time></trkpt><trkpt lat="44.484995" lon="8.49633"><ele>401.0</ele><time>2026-05-01T15:01:30.151Z</time></trkpt><trkpt lat="44.4849033" lon="8.4962083"><ele>401.0</ele><time>2026-05-01T15:01:31.155Z</time></trkpt><trkpt lat="44.4848217" lon="8.4960917"><ele>401.0</ele><time>2026-05-01T15:01:32.152Z</time></trkpt><trkpt lat="44.4847583" lon="8.4959583"><ele>401.0</ele><time>2026-05-01T15:01:33.154Z</time></trkpt><trkpt lat="44.4847817" lon="8.4957833"><ele>401.0</ele><time>2026-05-01T15:01:34.152Z</time></trkpt><trkpt lat="44.4848283" lon="8.49557"><ele>401.0</ele><time>2026-05-01T15:01:35.155Z</time></trkpt><trkpt lat="44.4848467" lon="8.495385"><ele>401.0</ele><time>2026-05-01T15:01:36.153Z</time></trkpt><trkpt lat="44.4848333" lon="8.4952283"><ele>401.0</ele><time>2026-05-01T15:01:37.156Z</time></trkpt><trkpt lat="44.484785" lon="8.4951067"><ele>401.0</ele><time>2026-05-01T15:01:38.154Z</time></trkpt><trkpt lat="44.484715" lon="8.49501"><ele>401.0</ele><time>2026-05-01T15:01:39.154Z</time></trkpt><trkpt lat="44.484625" lon="8.4949417"><ele>401.0</ele><time>2026-05-01T15:01:40.154Z</time></trkpt><trkpt lat="44.484495" lon="8.494915"><ele>401.0</ele><time>2026-05-01T15:01:41.154Z</time></trkpt><trkpt lat="44.4843833" lon="8.4948867"><ele>399.25</ele><time>2026-05-01T15:01:42.15Z</time></trkpt><trkpt lat="44.48427" lon="8.4948367"><ele>397.5</ele><time>2026-05-01T15:01:43.155Z</time></trkpt><trkpt lat="44.4841533" lon="8.4947583"><ele>395.75</ele><time>2026-05-01T15:01:44.15Z</time></trkpt><trkpt lat="44.484045" lon="8.4946433"><ele>394.0</ele><time>2026-05-01T15:01:45.152Z</time></trkpt><trkpt lat="44.4839283" lon="8.4945183"><ele>394.0</ele><time>2026-05-01T15:01:46.151Z</time></trkpt><trkpt lat="44.4838083" lon="8.494415"><ele>394.0</ele><time>2026-05-01T15:01:47.158Z</time></trkpt><trkpt lat="44.4836933" lon="8.4943267"><ele>394.0</ele><time>2026-05-01T15:01:48.161Z</time></trkpt><trkpt lat="44.483595" lon="8.4942433"><ele>394.0</ele><time>2026-05-01T15:01:49.158Z</time></trkpt><trkpt lat="44.4835283" lon="8.494145"><ele>392.5</ele><time>2026-05-01T15:01:50.152Z</time></trkpt><trkpt lat="44.483485" lon="8.4940317"><ele>391.0</ele><time>2026-05-01T15:01:51.155Z</time></trkpt><trkpt lat="44.48347" lon="8.493865"><ele>389.5</ele><time>2026-05-01T15:01:52.156Z</time></trkpt><trkpt lat="44.48345" lon="8.493695"><ele>388.0</ele><time>2026-05-01T15:01:53.151Z</time></trkpt><trkpt lat="44.4834333" lon="8.4935133"><ele>388.0</ele><time>2026-05-01T15:01:54.154Z</time></trkpt><trkpt lat="44.483405" lon="8.4933333"><ele>388.0</ele><time>2026-05-01T15:01:55.153Z</time></trkpt><trkpt lat="44.4833533" lon="8.49318"><ele>388.0</ele><time>2026-05-01T15:01:56.154Z</time></trkpt><trkpt lat="44.483285" lon="8.4930667"><ele>388.0</ele><time>2026-05-01T15:01:57.151Z</time></trkpt><trkpt lat="44.4831967" lon="8.4929867"><ele>388.0</ele><time>2026-05-01T15:01:58.151Z</time></trkpt><trkpt lat="44.4830833" lon="8.4929433"><ele>388.0</ele><time>2026-05-01T15:01:59.153Z</time></trkpt><trkpt lat="44.4829533" lon="8.4929183"><ele>388.0</ele><time>2026-05-01T15:02:00.152Z</time></trkpt><trkpt lat="44.4828183" lon="8.4928917"><ele>388.0</ele><time>2026-05-01T15:02:01.157Z</time></trkpt><trkpt lat="44.4826767" lon="8.4928433"><ele>388.0</ele><time>2026-05-01T15:02:02.154Z</time></trkpt><trkpt lat="44.482535" lon="8.4927933"><ele>388.0</ele><time>2026-05-01T15:02:03.154Z</time></trkpt><trkpt lat="44.4823983" lon="8.4927217"><ele>388.0</ele><time>2026-05-01T15:02:04.153Z</time></trkpt><trkpt lat="44.4822717" lon="8.4926433"><ele>388.0</ele><time>2026-05-01T15:02:05.151Z</time></trkpt><trkpt lat="44.4821733" lon="8.4925367"><ele>388.0</ele><time>2026-05-01T15:02:06.151Z</time></trkpt><trkpt lat="44.482105" lon="8.49239"><ele>388.0</ele><time>2026-05-01T15:02:07.151Z</time></trkpt><trkpt lat="44.48206" lon="8.492225"><ele>388.0</ele><time>2026-05-01T15:02:08.151Z</time></trkpt><trkpt lat="44.4820283" lon="8.4920417"><ele>388.0</ele><time>2026-05-01T15:02:09.151Z</time></trkpt><trkpt lat="44.482015" lon="8.4918417"><ele>384.0</ele><time>2026-05-01T15:02:10.154Z</time></trkpt><trkpt lat="44.482" lon="8.4916433"><ele>380.0</ele><time>2026-05-01T15:02:11.153Z</time></trkpt><trkpt lat="44.481985" lon="8.4914317"><ele>376.0</ele><time>2026-05-01T15:02:12.154Z</time></trkpt><trkpt lat="44.4819683" lon="8.4912133"><ele>375.66666666666663</ele><time>2026-05-01T15:02:13.154Z</time></trkpt><trkpt lat="44.4819417" lon="8.4909933"><ele>375.3333333333333</ele><time>2026-05-01T15:02:14.158Z</time></trkpt><trkpt lat="44.4818917" lon="8.49078"><ele>375.0</ele><time>2026-05-01T15:02:15.154Z</time></trkpt><trkpt lat="44.48183" lon="8.49059"><ele>375.0</ele><time>2026-05-01T15:02:16.156Z</time></trkpt><trkpt lat="44.481755" lon="8.4904333"><ele>375.0</ele><time>2026-05-01T15:02:17.154Z</time></trkpt><trkpt lat="44.48167" lon="8.4903133"><ele>375.0</ele><time>2026-05-01T15:02:18.158Z</time></trkpt><trkpt lat="44.48158" lon="8.4902167"><ele>375.0</ele><time>2026-05-01T15:02:19.155Z</time></trkpt><trkpt lat="44.4814767" lon="8.49015"><ele>373.75</ele><time>2026-05-01T15:02:20.153Z</time></trkpt><trkpt lat="44.4813567" lon="8.490125"><ele>372.5</ele><time>2026-05-01T15:02:21.158Z</time></trkpt><trkpt lat="44.481225" lon="8.4901183"><ele>371.25</ele><time>2026-05-01T15:02:22.157Z</time></trkpt><trkpt lat="44.48109" lon="8.4901183"><ele>370.0</ele><time>2026-05-01T15:02:23.154Z</time></trkpt><trkpt lat="44.4809567" lon="8.4901217"><ele>369.75</ele><time>2026-05-01T15:02:24.156Z</time></trkpt><trkpt lat="44.4808283" lon="8.490125"><ele>369.5</ele><time>2026-05-01T15:02:25.158Z</time></trkpt><trkpt lat="44.4807" lon="8.49013"><ele>369.25</ele><time>2026-05-01T15:02:26.155Z</time></trkpt><trkpt lat="44.48058" lon="8.4901333"><ele>369.0</ele><time>2026-05-01T15:02:27.158Z</time></trkpt><trkpt lat="44.4804617" lon="8.4901383"><ele>370.6</ele><time>2026-05-01T15:02:28.158Z</time></trkpt><trkpt lat="44.4803483" lon="8.4901417"><ele>372.2</ele><time>2026-05-01T15:02:29.157Z</time></trkpt><trkpt lat="44.4802417" lon="8.4901383"><ele>373.8</ele><time>2026-05-01T15:02:30.158Z</time></trkpt><trkpt lat="44.4801433" lon="8.4901433"><ele>375.40000000000003</ele><time>2026-05-01T15:02:31.159Z</time></trkpt><trkpt lat="44.4800433" lon="8.4901483"><ele>377.0</ele><time>2026-05-01T15:02:32.154Z</time></trkpt><trkpt lat="44.4799483" lon="8.490145"><ele>377.0</ele><time>2026-05-01T15:02:33.152Z</time></trkpt><trkpt lat="44.47986" lon="8.4901417"><ele>377.0</ele><time>2026-05-01T15:02:34.153Z</time></trkpt><trkpt lat="44.4797767" lon="8.49015"><ele>377.0</ele><time>2026-05-01T15:02:35.154Z</time></trkpt><trkpt lat="44.4796933" lon="8.4901517"><ele>377.0</ele><time>2026-05-01T15:02:36.153Z</time></trkpt><trkpt lat="44.4796217" lon="8.4901533"><ele>377.0</ele><time>2026-05-01T15:02:37.156Z</time></trkpt><trkpt lat="44.4795583" lon="8.490155"><ele>377.0</ele><time>2026-05-01T15:02:38.152Z</time></trkpt><trkpt lat="44.4794717" lon="8.490155"><ele>379.20000000000005</ele><time>2026-05-01T15:02:40.156Z</time></trkpt><trkpt lat="44.4794017" lon="8.4901867"><ele>381.4</ele><time>2026-05-01T15:02:42.151Z</time></trkpt><trkpt lat="44.479365" lon="8.4903033"><ele>383.6</ele><time>2026-05-01T15:02:44.151Z</time></trkpt><trkpt lat="44.4793867" lon="8.4904467"><ele>385.79999999999995</ele><time>2026-05-01T15:02:45.156Z</time></trkpt><trkpt lat="44.4794083" lon="8.4905767"><ele>388.0</ele><time>2026-05-01T15:02:46.155Z</time></trkpt><trkpt lat="44.47943" lon="8.4907233"><ele>388.0</ele><time>2026-05-01T15:02:47.153Z</time></trkpt><trkpt lat="44.479455" lon="8.4908833"><ele>388.0</ele><time>2026-05-01T15:02:48.155Z</time></trkpt><trkpt lat="44.47948" lon="8.4910417"><ele>388.0</ele><time>2026-05-01T15:02:49.153Z</time></trkpt><trkpt lat="44.479505" lon="8.491205"><ele>388.0</ele><time>2026-05-01T15:02:50.154Z</time></trkpt><trkpt lat="44.479535" lon="8.491375"><ele>388.25</ele><time>2026-05-01T15:02:51.152Z</time></trkpt><trkpt lat="44.4795817" lon="8.4915467"><ele>388.5</ele><time>2026-05-01T15:02:52.154Z</time></trkpt><trkpt lat="44.4796133" lon="8.4917233"><ele>388.75</ele><time>2026-05-01T15:02:53.156Z</time></trkpt><trkpt lat="44.47966" lon="8.4918983"><ele>389.0</ele><time>2026-05-01T15:02:54.154Z</time></trkpt><trkpt lat="44.4797" lon="8.492075"><ele>387.75</ele><time>2026-05-01T15:02:55.154Z</time></trkpt><trkpt lat="44.47974" lon="8.4922583"><ele>386.5</ele><time>2026-05-01T15:02:56.155Z</time></trkpt><trkpt lat="44.4797883" lon="8.4924333"><ele>385.25</ele><time>2026-05-01T15:02:57.154Z</time></trkpt><trkpt lat="44.4798283" lon="8.4926067"><ele>384.0</ele><time>2026-05-01T15:02:58.158Z</time></trkpt><trkpt lat="44.4798683" lon="8.492785"><ele>385.5</ele><time>2026-05-01T15:02:59.152Z</time></trkpt><trkpt lat="44.479905" lon="8.4929633"><ele>387.0</ele><time>2026-05-01T15:03:00.152Z</time></trkpt><trkpt lat="44.4799517" lon="8.4931517"><ele>388.5</ele><time>2026-05-01T15:03:01.153Z</time></trkpt><trkpt lat="44.4800017" lon="8.4933433"><ele>390.0</ele><time>2026-05-01T15:03:02.152Z</time></trkpt><trkpt lat="44.4800567" lon="8.4935383"><ele>390.0</ele><time>2026-05-01T15:03:03.153Z</time></trkpt><trkpt lat="44.48012" lon="8.49373"><ele>390.0</ele><time>2026-05-01T15:03:04.151Z</time></trkpt><trkpt lat="44.4802067" lon="8.4939017"><ele>390.0</ele><time>2026-05-01T15:03:05.156Z</time></trkpt><trkpt lat="44.480305" lon="8.494065"><ele>386.6666666666667</ele><time>2026-05-01T15:03:06.157Z</time></trkpt><trkpt lat="44.4804233" lon="8.4942"><ele>383.33333333333337</ele><time>2026-05-01T15:03:07.153Z</time></trkpt><trkpt lat="44.4805567" lon="8.49432"><ele>380.0</ele><time>2026-05-01T15:03:08.152Z</time></trkpt><trkpt lat="44.48069" lon="8.4944517"><ele>385.0</ele><time>2026-05-01T15:03:09.153Z</time></trkpt><trkpt lat="44.4808267" lon="8.4945883"><ele>390.0</ele><time>2026-05-01T15:03:10.151Z</time></trkpt><trkpt lat="44.4809733" lon="8.49471"><ele>395.0</ele><time>2026-05-01T15:03:11.149Z</time></trkpt><trkpt lat="44.48112" lon="8.49484"><ele>395.0</ele><time>2026-05-01T15:03:12.153Z</time></trkpt><trkpt lat="44.48126" lon="8.49498"><ele>395.0</ele><time>2026-05-01T15:03:13.149Z</time></trkpt><trkpt lat="44.481385" lon="8.49514"><ele>395.0</ele><time>2026-05-01T15:03:14.153Z</time></trkpt><trkpt lat="44.481505" lon="8.4953117"><ele>391.66666666666663</ele><time>2026-05-01T15:03:15.151Z</time></trkpt><trkpt lat="44.481615" lon="8.495505"><ele>388.33333333333337</ele><time>2026-05-01T15:03:16.15Z</time></trkpt><trkpt lat="44.4817167" lon="8.4957117"><ele>385.0</ele><time>2026-05-01T15:03:17.151Z</time></trkpt><trkpt lat="44.4818133" lon="8.49592"><ele>385.0</ele><time>2026-05-01T15:03:18.156Z</time></trkpt><trkpt lat="44.48191" lon="8.4961217"><ele>385.0</ele><time>2026-05-01T15:03:19.153Z</time></trkpt><trkpt lat="44.4820017" lon="8.4963267"><ele>385.0</ele><time>2026-05-01T15:03:20.152Z</time></trkpt><trkpt lat="44.4820917" lon="8.4965317"><ele>384.6666666666667</ele><time>2026-05-01T15:03:21.155Z</time></trkpt><trkpt lat="44.4821667" lon="8.4967517"><ele>384.33333333333337</ele><time>2026-05-01T15:03:22.15Z</time></trkpt><trkpt lat="44.4822417" lon="8.4969767"><ele>384.0</ele><time>2026-05-01T15:03:23.153Z</time></trkpt><trkpt lat="44.4823167" lon="8.4972067"><ele>384.0</ele><time>2026-05-01T15:03:24.154Z</time></trkpt><trkpt lat="44.4823867" lon="8.4974383"><ele>384.0</ele><time>2026-05-01T15:03:25.155Z</time></trkpt><trkpt lat="44.4824567" lon="8.4976683"><ele>384.0</ele><time>2026-05-01T15:03:26.155Z</time></trkpt><trkpt lat="44.48253" lon="8.4978933"><ele>384.66666666666663</ele><time>2026-05-01T15:03:27.15Z</time></trkpt><trkpt lat="44.482605" lon="8.4981067"><ele>385.3333333333333</ele><time>2026-05-01T15:03:28.156Z</time></trkpt><trkpt lat="44.4826833" lon="8.4983167"><ele>386.0</ele><time>2026-05-01T15:03:29.153Z</time></trkpt><trkpt lat="44.4827617" lon="8.49853"><ele>386.0</ele><time>2026-05-01T15:03:30.153Z</time></trkpt><trkpt lat="44.48285" lon="8.4987317"><ele>386.0</ele><time>2026-05-01T15:03:31.157Z</time></trkpt><trkpt lat="44.4829467" lon="8.4989283"><ele>386.0</ele><time>2026-05-01T15:03:32.155Z</time></trkpt><trkpt lat="44.483045" lon="8.4991283"><ele>385.66666666666663</ele><time>2026-05-01T15:03:33.153Z</time></trkpt><trkpt lat="44.4831433" lon="8.4993267"><ele>385.33333333333337</ele><time>2026-05-01T15:03:34.155Z</time></trkpt><trkpt lat="44.483235" lon="8.499525"><ele>385.0</ele><time>2026-05-01T15:03:35.156Z</time></trkpt><trkpt lat="44.48332" lon="8.4997083"><ele>385.0</ele><time>2026-05-01T15:03:36.15Z</time></trkpt><trkpt lat="44.4833917" lon="8.49989"><ele>385.0</ele><time>2026-05-01T15:03:37.151Z</time></trkpt><trkpt lat="44.483445" lon="8.5000717"><ele>385.0</ele><time>2026-05-01T15:03:38.151Z</time></trkpt><trkpt lat="44.483475" lon="8.5002733"><ele>385.0</ele><time>2026-05-01T15:03:39.151Z</time></trkpt><trkpt lat="44.4834917" lon="8.50049"><ele>385.0</ele><time>2026-05-01T15:03:40.154Z</time></trkpt><trkpt lat="44.483505" lon="8.5007217"><ele>385.0</ele><time>2026-05-01T15:03:41.153Z</time></trkpt><trkpt lat="44.483525" lon="8.5009533"><ele>385.0</ele><time>2026-05-01T15:03:42.152Z</time></trkpt><trkpt lat="44.4835483" lon="8.50117"><ele>385.0</ele><time>2026-05-01T15:03:43.156Z</time></trkpt><trkpt lat="44.483595" lon="8.5013583"><ele>385.0</ele><time>2026-05-01T15:03:44.155Z</time></trkpt><trkpt lat="44.4836683" lon="8.5015283"><ele>385.0</ele><time>2026-05-01T15:03:45.154Z</time></trkpt><trkpt lat="44.483765" lon="8.5016767"><ele>385.0</ele><time>2026-05-01T15:03:46.151Z</time></trkpt><trkpt lat="44.48386" lon="8.50182"><ele>385.0</ele><time>2026-05-01T15:03:47.155Z</time></trkpt><trkpt lat="44.483935" lon="8.5019817"><ele>385.0</ele><time>2026-05-01T15:03:48.156Z</time></trkpt><trkpt lat="44.483985" lon="8.5021617"><ele>385.0</ele><time>2026-05-01T15:03:49.153Z</time></trkpt><trkpt lat="44.48403" lon="8.50236"><ele>385.0</ele><time>2026-05-01T15:03:50.157Z</time></trkpt><trkpt lat="44.4840617" lon="8.502575"><ele>385.75</ele><time>2026-05-01T15:03:51.152Z</time></trkpt><trkpt lat="44.4840983" lon="8.50278"><ele>386.5</ele><time>2026-05-01T15:03:52.153Z</time></trkpt><trkpt lat="44.48412" lon="8.5029833"><ele>387.25</ele><time>2026-05-01T15:03:53.156Z</time></trkpt><trkpt lat="44.4841183" lon="8.5031733"><ele>388.0</ele><time>2026-05-01T15:03:54.154Z</time></trkpt><trkpt lat="44.4840917" lon="8.5033367"><ele>388.59999999999997</ele><time>2026-05-01T15:03:55.156Z</time></trkpt><trkpt lat="44.4840617" lon="8.5034917"><ele>389.2</ele><time>2026-05-01T15:03:56.155Z</time></trkpt><trkpt lat="44.484045" lon="8.5036467"><ele>389.8</ele><time>2026-05-01T15:03:57.155Z</time></trkpt><trkpt lat="44.4840617" lon="8.5037917"><ele>390.4</ele><time>2026-05-01T15:03:58.152Z</time></trkpt><trkpt lat="44.48412" lon="8.503915"><ele>391.0</ele><time>2026-05-01T15:03:59.158Z</time></trkpt><trkpt lat="44.4841967" lon="8.5040383"><ele>390.75</ele><time>2026-05-01T15:04:00.151Z</time></trkpt><trkpt lat="44.4843033" lon="8.5041583"><ele>390.5</ele><time>2026-05-01T15:04:01.151Z</time></trkpt><trkpt lat="44.4844633" lon="8.5041917"><ele>390.25</ele><time>2026-05-01T15:04:02.15Z</time></trkpt><trkpt lat="44.4845917" lon="8.5042"><ele>390.0</ele><time>2026-05-01T15:04:03.154Z</time></trkpt><trkpt lat="44.4847117" lon="8.5041733"><ele>390.0</ele><time>2026-05-01T15:04:04.152Z</time></trkpt><trkpt lat="44.48482" lon="8.5041117"><ele>390.0</ele><time>2026-05-01T15:04:05.154Z</time></trkpt><trkpt lat="44.4849" lon="8.5040283"><ele>390.0</ele><time>2026-05-01T15:04:06.153Z</time></trkpt><trkpt lat="44.4849733" lon="8.503915"><ele>390.0</ele><time>2026-05-01T15:04:07.152Z</time></trkpt><trkpt lat="44.4850483" lon="8.5037983"><ele>390.0</ele><time>2026-05-01T15:04:08.157Z</time></trkpt><trkpt lat="44.4851317" lon="8.503715"><ele>390.0</ele><time>2026-05-01T15:04:09.159Z</time></trkpt><trkpt lat="44.485215" lon="8.5037033"><ele>390.0</ele><time>2026-05-01T15:04:10.156Z</time></trkpt><trkpt lat="44.4852983" lon="8.5037133"><ele>390.0</ele><time>2026-05-01T15:04:11.151Z</time></trkpt><trkpt lat="44.4853817" lon="8.503745"><ele>390.0</ele><time>2026-05-01T15:04:12.154Z</time></trkpt><trkpt lat="44.4854617" lon="8.503805"><ele>390.0</ele><time>2026-05-01T15:04:13.159Z</time></trkpt><trkpt lat="44.4855517" lon="8.5039133"><ele>390.0</ele><time>2026-05-01T15:04:14.156Z</time></trkpt><trkpt lat="44.485655" lon="8.5040483"><ele>390.0</ele><time>2026-05-01T15:04:15.157Z</time></trkpt><trkpt lat="44.4857733" lon="8.5042333"><ele>390.0</ele><time>2026-05-01T15:04:16.153Z</time></trkpt><trkpt lat="44.4859117" lon="8.504425"><ele>390.0</ele><time>2026-05-01T15:04:17.156Z</time></trkpt><trkpt lat="44.4860467" lon="8.5046083"><ele>390.0</ele><time>2026-05-01T15:04:18.155Z</time></trkpt><trkpt lat="44.4861783" lon="8.50478"><ele>390.0</ele><time>2026-05-01T15:04:19.156Z</time></trkpt><trkpt lat="44.486295" lon="8.5049483"><ele>390.0</ele><time>2026-05-01T15:04:20.153Z</time></trkpt><trkpt lat="44.4864067" lon="8.5050767"><ele>390.0</ele><time>2026-05-01T15:04:21.156Z</time></trkpt><trkpt lat="44.48652" lon="8.5051567"><ele>390.0</ele><time>2026-05-01T15:04:22.152Z</time></trkpt><trkpt lat="44.48663" lon="8.5051867"><ele>390.0</ele><time>2026-05-01T15:04:23.153Z</time></trkpt><trkpt lat="44.4867333" lon="8.5051667"><ele>390.0</ele><time>2026-05-01T15:04:24.153Z</time></trkpt><trkpt lat="44.4868167" lon="8.5050783"><ele>390.0</ele><time>2026-05-01T15:04:25.153Z</time></trkpt><trkpt lat="44.4869017" lon="8.50496"><ele>390.0</ele><time>2026-05-01T15:04:26.153Z</time></trkpt><trkpt lat="44.4869933" lon="8.5048433"><ele>390.0</ele><time>2026-05-01T15:04:27.152Z</time></trkpt><trkpt lat="44.4870983" lon="8.5047533"><ele>390.75</ele><time>2026-05-01T15:04:28.153Z</time></trkpt><trkpt lat="44.4872183" lon="8.504705"><ele>391.5</ele><time>2026-05-01T15:04:29.157Z</time></trkpt><trkpt lat="44.48736" lon="8.5047033"><ele>392.25</ele><time>2026-05-01T15:04:30.154Z</time></trkpt><trkpt lat="44.4875" lon="8.504745"><ele>393.0</ele><time>2026-05-01T15:04:31.153Z</time></trkpt><trkpt lat="44.4876283" lon="8.5048267"><ele>393.0</ele><time>2026-05-01T15:04:32.152Z</time></trkpt><trkpt lat="44.48776" lon="8.504935"><ele>393.0</ele><time>2026-05-01T15:04:33.154Z</time></trkpt><trkpt lat="44.4878933" lon="8.50506"><ele>393.0</ele><time>2026-05-01T15:04:34.151Z</time></trkpt><trkpt lat="44.48803" lon="8.5051867"><ele>393.66666666666663</ele><time>2026-05-01T15:04:35.155Z</time></trkpt><trkpt lat="44.488175" lon="8.5053233"><ele>394.3333333333333</ele><time>2026-05-01T15:04:36.151Z</time></trkpt><trkpt lat="44.4883283" lon="8.5054667"><ele>395.0</ele><time>2026-05-01T15:04:37.157Z</time></trkpt><trkpt lat="44.4884933" lon="8.5056"><ele>395.0</ele><time>2026-05-01T15:04:38.153Z</time></trkpt><trkpt lat="44.48866" lon="8.50573"><ele>395.0</ele><time>2026-05-01T15:04:39.158Z</time></trkpt><trkpt lat="44.48881" lon="8.505865"><ele>395.0</ele><time>2026-05-01T15:04:40.154Z</time></trkpt><trkpt lat="44.488935" lon="8.5060217"><ele>396.0</ele><time>2026-05-01T15:04:41.156Z</time></trkpt><trkpt lat="44.4890483" lon="8.5061983"><ele>397.0</ele><time>2026-05-01T15:04:42.161Z</time></trkpt><trkpt lat="44.4891517" lon="8.5064033"><ele>398.0</ele><time>2026-05-01T15:04:43.15Z</time></trkpt><trkpt lat="44.4892383" lon="8.5066367"><ele>398.0</ele><time>2026-05-01T15:04:44.152Z</time></trkpt><trkpt lat="44.4893283" lon="8.5068783"><ele>398.0</ele><time>2026-05-01T15:04:45.152Z</time></trkpt><trkpt lat="44.4894317" lon="8.50712"><ele>398.0</ele><time>2026-05-01T15:04:46.152Z</time></trkpt><trkpt lat="44.4895383" lon="8.50737"><ele>401.3333333333333</ele><time>2026-05-01T15:04:47.152Z</time></trkpt><trkpt lat="44.4896467" lon="8.5076317"><ele>404.66666666666663</ele><time>2026-05-01T15:04:48.154Z</time></trkpt><trkpt lat="44.4897533" lon="8.5079"><ele>408.0</ele><time>2026-05-01T15:04:49.153Z</time></trkpt><trkpt lat="44.4898583" lon="8.5081667"><ele>408.0</ele><time>2026-05-01T15:04:50.153Z</time></trkpt><trkpt lat="44.4899583" lon="8.508425"><ele>408.0</ele><time>2026-05-01T15:04:51.152Z</time></trkpt><trkpt lat="44.49004" lon="8.5086883"><ele>408.0</ele><time>2026-05-01T15:04:52.154Z</time></trkpt><trkpt lat="44.4900983" lon="8.5089567"><ele>408.33333333333337</ele><time>2026-05-01T15:04:53.154Z</time></trkpt><trkpt lat="44.4901417" lon="8.5092117"><ele>408.6666666666667</ele><time>2026-05-01T15:04:54.15Z</time></trkpt><trkpt lat="44.4902" lon="8.50946"><ele>409.0</ele><time>2026-05-01T15:04:55.153Z</time></trkpt><trkpt lat="44.4902767" lon="8.50969"><ele>411.0</ele><time>2026-05-01T15:04:56.154Z</time></trkpt><trkpt lat="44.4903867" lon="8.5098883"><ele>413.0</ele><time>2026-05-01T15:04:57.158Z</time></trkpt><trkpt lat="44.49051" lon="8.5100783"><ele>415.0</ele><time>2026-05-01T15:04:58.156Z</time></trkpt><trkpt lat="44.4906333" lon="8.510265"><ele>414.6666666666667</ele><time>2026-05-01T15:04:59.153Z</time></trkpt><trkpt lat="44.4907583" lon="8.5104517"><ele>414.33333333333337</ele><time>2026-05-01T15:05:00.152Z</time></trkpt><trkpt lat="44.490885" lon="8.5106367"><ele>414.0</ele><time>2026-05-01T15:05:01.154Z</time></trkpt><trkpt lat="44.4910083" lon="8.5108267"><ele>414.0</ele><time>2026-05-01T15:05:02.154Z</time></trkpt><trkpt lat="44.491115" lon="8.51103"><ele>414.0</ele><time>2026-05-01T15:05:03.157Z</time></trkpt><trkpt lat="44.4912367" lon="8.511215"><ele>414.0</ele><time>2026-05-01T15:05:04.155Z</time></trkpt><trkpt lat="44.4913567" lon="8.5114017"><ele>414.66666666666663</ele><time>2026-05-01T15:05:05.154Z</time></trkpt><trkpt lat="44.49148" lon="8.511585"><ele>415.3333333333333</ele><time>2026-05-01T15:05:06.151Z</time></trkpt><trkpt lat="44.4916083" lon="8.5117633"><ele>416.0</ele><time>2026-05-01T15:05:07.151Z</time></trkpt><trkpt lat="44.4917317" lon="8.5119333"><ele>415.25</ele><time>2026-05-01T15:05:08.149Z</time></trkpt><trkpt lat="44.4918417" lon="8.5120933"><ele>414.5</ele><time>2026-05-01T15:05:09.154Z</time></trkpt><trkpt lat="44.49194" lon="8.5122467"><ele>413.75</ele><time>2026-05-01T15:05:10.152Z</time></trkpt><trkpt lat="44.4920333" lon="8.5123833"><ele>413.0</ele><time>2026-05-01T15:05:11.152Z</time></trkpt><trkpt lat="44.4921167" lon="8.51253"><ele>414.75</ele><time>2026-05-01T15:05:12.151Z</time></trkpt><trkpt lat="44.4921983" lon="8.5126833"><ele>416.5</ele><time>2026-05-01T15:05:13.155Z</time></trkpt><trkpt lat="44.4922767" lon="8.5128633"><ele>418.25</ele><time>2026-05-01T15:05:14.155Z</time></trkpt><trkpt lat="44.4923617" lon="8.5130483"><ele>420.0</ele><time>2026-05-01T15:05:15.153Z</time></trkpt><trkpt lat="44.4924517" lon="8.5132433"><ele>420.0</ele><time>2026-05-01T15:05:16.152Z</time></trkpt><trkpt lat="44.49254" lon="8.51345"><ele>420.0</ele><time>2026-05-01T15:05:17.154Z</time></trkpt><trkpt lat="44.4926183" lon="8.5136683"><ele>420.0</ele><time>2026-05-01T15:05:18.159Z</time></trkpt><trkpt lat="44.4926933" lon="8.5138833"><ele>419.33333333333337</ele><time>2026-05-01T15:05:19.155Z</time></trkpt><trkpt lat="44.4927567" lon="8.5141067"><ele>418.6666666666667</ele><time>2026-05-01T15:05:20.157Z</time></trkpt><trkpt lat="44.4928167" lon="8.5143267"><ele>418.0</ele><time>2026-05-01T15:05:21.155Z</time></trkpt><trkpt lat="44.4928683" lon="8.514535"><ele>418.59999999999997</ele><time>2026-05-01T15:05:22.154Z</time></trkpt><trkpt lat="44.4929117" lon="8.51471"><ele>419.2</ele><time>2026-05-01T15:05:23.153Z</time></trkpt><trkpt lat="44.4929583" lon="8.5148383"><ele>419.8</ele><time>2026-05-01T15:05:24.153Z</time></trkpt><trkpt lat="44.4930333" lon="8.5149383"><ele>420.4</ele><time>2026-05-01T15:05:25.154Z</time></trkpt><trkpt lat="44.4931183" lon="8.515015"><ele>421.0</ele><time>2026-05-01T15:05:26.158Z</time></trkpt><trkpt lat="44.4932367" lon="8.515055"><ele>422.33333333333337</ele><time>2026-05-01T15:05:27.155Z</time></trkpt><trkpt lat="44.4933883" lon="8.5150817"><ele>423.66666666666663</ele><time>2026-05-01T15:05:28.153Z</time></trkpt><trkpt lat="44.4935433" lon="8.5151117"><ele>425.0</ele><time>2026-05-01T15:05:29.155Z</time></trkpt><trkpt lat="44.493695" lon="8.5151467"><ele>426.25</ele><time>2026-05-01T15:05:30.158Z</time></trkpt><trkpt lat="44.4938433" lon="8.5152017"><ele>427.5</ele><time>2026-05-01T15:05:31.154Z</time></trkpt><trkpt lat="44.493975" lon="8.5152967"><ele>428.75</ele><time>2026-05-01T15:05:32.155Z</time></trkpt><trkpt lat="44.4940867" lon="8.5154233"><ele>430.0</ele><time>2026-05-01T15:05:33.155Z</time></trkpt><trkpt lat="44.4941717" lon="8.5155833"><ele>430.0</ele><time>2026-05-01T15:05:34.153Z</time></trkpt><trkpt lat="44.494245" lon="8.5157633"><ele>430.0</ele><time>2026-05-01T15:05:35.152Z</time></trkpt><trkpt lat="44.494315" lon="8.5159633"><ele>430.0</ele><time>2026-05-01T15:05:36.157Z</time></trkpt><trkpt lat="44.494405" lon="8.5161617"><ele>428.0</ele><time>2026-05-01T15:05:37.154Z</time></trkpt><trkpt lat="44.4945117" lon="8.516365"><ele>426.0</ele><time>2026-05-01T15:05:38.153Z</time></trkpt><trkpt lat="44.4946317" lon="8.5165733"><ele>424.0</ele><time>2026-05-01T15:05:39.158Z</time></trkpt><trkpt lat="44.4947583" lon="8.51678"><ele>426.33333333333337</ele><time>2026-05-01T15:05:40.156Z</time></trkpt><trkpt lat="44.4948817" lon="8.516995"><ele>428.66666666666663</ele><time>2026-05-01T15:05:41.161Z</time></trkpt><trkpt lat="44.4949867" lon="8.5172383"><ele>431.0</ele><time>2026-05-01T15:05:42.153Z</time></trkpt><trkpt lat="44.49508" lon="8.517495"><ele>431.0</ele><time>2026-05-01T15:05:43.156Z</time></trkpt><trkpt lat="44.49517" lon="8.5177633"><ele>431.0</ele><time>2026-05-01T15:05:44.157Z</time></trkpt><trkpt lat="44.4952617" lon="8.518035"><ele>431.0</ele><time>2026-05-01T15:05:45.157Z</time></trkpt><trkpt lat="44.495355" lon="8.51831"><ele>432.3333333333333</ele><time>2026-05-01T15:05:46.157Z</time></trkpt><trkpt lat="44.4954483" lon="8.5185783"><ele>433.66666666666663</ele><time>2026-05-01T15:05:47.158Z</time></trkpt><trkpt lat="44.4955383" lon="8.5188383"><ele>435.0</ele><time>2026-05-01T15:05:48.159Z</time></trkpt><trkpt lat="44.4956283" lon="8.5190933"><ele>435.0</ele><time>2026-05-01T15:05:49.155Z</time></trkpt><trkpt lat="44.4957133" lon="8.5193333"><ele>435.0</ele><time>2026-05-01T15:05:50.151Z</time></trkpt><trkpt lat="44.4957933" lon="8.519555"><ele>435.0</ele><time>2026-05-01T15:05:51.151Z</time></trkpt><trkpt lat="44.4958617" lon="8.5197633"><ele>434.33333333333337</ele><time>2026-05-01T15:05:52.154Z</time></trkpt><trkpt lat="44.49591" lon="8.5199633"><ele>433.6666666666667</ele><time>2026-05-01T15:05:53.154Z</time></trkpt><trkpt lat="44.4959267" lon="8.52018"><ele>433.0</ele><time>2026-05-01T15:05:54.154Z</time></trkpt><trkpt lat="44.4959267" lon="8.5204017"><ele>433.0</ele><time>2026-05-01T15:05:55.152Z</time></trkpt><trkpt lat="44.4959233" lon="8.520635"><ele>433.0</ele><time>2026-05-01T15:05:56.151Z</time></trkpt><trkpt lat="44.4959233" lon="8.5208667"><ele>433.0</ele><time>2026-05-01T15:05:57.152Z</time></trkpt><trkpt lat="44.4959117" lon="8.5210917"><ele>433.0</ele><time>2026-05-01T15:05:58.155Z</time></trkpt><trkpt lat="44.4958867" lon="8.5213117"><ele>433.0</ele><time>2026-05-01T15:05:59.155Z</time></trkpt><trkpt lat="44.4958433" lon="8.5215217"><ele>433.0</ele><time>2026-05-01T15:06:00.153Z</time></trkpt><trkpt lat="44.4957867" lon="8.5217133"><ele>433.0</ele><time>2026-05-01T15:06:01.156Z</time></trkpt><trkpt lat="44.495725" lon="8.5218867"><ele>433.0</ele><time>2026-05-01T15:06:02.157Z</time></trkpt><trkpt lat="44.495655" lon="8.522025"><ele>433.0</ele><time>2026-05-01T15:06:03.153Z</time></trkpt><trkpt lat="44.4955733" lon="8.52212"><ele>433.0</ele><time>2026-05-01T15:06:04.151Z</time></trkpt><trkpt lat="44.4954683" lon="8.52217"><ele>433.0</ele><time>2026-05-01T15:06:05.15Z</time></trkpt><trkpt lat="44.49535" lon="8.5222017"><ele>433.0</ele><time>2026-05-01T15:06:06.151Z</time></trkpt><trkpt lat="44.49523" lon="8.5222317"><ele>433.0</ele><time>2026-05-01T15:06:07.153Z</time></trkpt><trkpt lat="44.4951183" lon="8.5222867"><ele>433.0</ele><time>2026-05-01T15:06:08.152Z</time></trkpt><trkpt lat="44.495025" lon="8.5223783"><ele>433.0</ele><time>2026-05-01T15:06:09.153Z</time></trkpt><trkpt lat="44.4949533" lon="8.5225133"><ele>433.0</ele><time>2026-05-01T15:06:10.154Z</time></trkpt><trkpt lat="44.4948967" lon="8.5226783"><ele>433.0</ele><time>2026-05-01T15:06:11.154Z</time></trkpt><trkpt lat="44.494845" lon="8.52287"><ele>433.0</ele><time>2026-05-01T15:06:12.15Z</time></trkpt><trkpt lat="44.4947917" lon="8.5230867"><ele>434.6666666666667</ele><time>2026-05-01T15:06:13.155Z</time></trkpt><trkpt lat="44.4947417" lon="8.5233183"><ele>436.33333333333337</ele><time>2026-05-01T15:06:14.154Z</time></trkpt><trkpt lat="44.4946983" lon="8.5235767"><ele>438.0</ele><time>2026-05-01T15:06:15.153Z</time></trkpt><trkpt lat="44.4946767" lon="8.5238533"><ele>439.0</ele><time>2026-05-01T15:06:16.152Z</time></trkpt><trkpt lat="44.4946583" lon="8.5241267"><ele>440.0</ele><time>2026-05-01T15:06:17.157Z</time></trkpt><trkpt lat="44.494635" lon="8.5243867"><ele>441.0</ele><time>2026-05-01T15:06:18.153Z</time></trkpt><trkpt lat="44.4946083" lon="8.5246133"><ele>442.25</ele><time>2026-05-01T15:06:19.151Z</time></trkpt><trkpt lat="44.4945617" lon="8.5248217"><ele>443.5</ele><time>2026-05-01T15:06:20.154Z</time></trkpt><trkpt lat="44.4944917" lon="8.5249983"><ele>444.75</ele><time>2026-05-01T15:06:21.154Z</time></trkpt><trkpt lat="44.4944" lon="8.52515"><ele>446.0</ele><time>2026-05-01T15:06:22.153Z</time></trkpt><trkpt lat="44.494315" lon="8.525285"><ele>448.0</ele><time>2026-05-01T15:06:23.153Z</time></trkpt><trkpt lat="44.494255" lon="8.52543"><ele>450.0</ele><time>2026-05-01T15:06:24.154Z</time></trkpt><trkpt lat="44.4942267" lon="8.5255983"><ele>452.0</ele><time>2026-05-01T15:06:25.156Z</time></trkpt><trkpt lat="44.4942167" lon="8.5257817"><ele>454.0</ele><time>2026-05-01T15:06:26.15Z</time></trkpt><trkpt lat="44.4942183" lon="8.525965"><ele>454.0</ele><time>2026-05-01T15:06:27.153Z</time></trkpt><trkpt lat="44.4942433" lon="8.5261417"><ele>454.0</ele><time>2026-05-01T15:06:28.152Z</time></trkpt><trkpt lat="44.49428" lon="8.52629"><ele>454.0</ele><time>2026-05-01T15:06:29.151Z</time></trkpt><trkpt lat="44.49433" lon="8.5264267"><ele>454.0</ele><time>2026-05-01T15:06:30.157Z</time></trkpt><trkpt lat="44.4943833" lon="8.5265633"><ele>454.5</ele><time>2026-05-01T15:06:31.151Z</time></trkpt><trkpt lat="44.494435" lon="8.526725"><ele>455.0</ele><time>2026-05-01T15:06:32.153Z</time></trkpt><trkpt lat="44.4944817" lon="8.526945"><ele>455.5</ele><time>2026-05-01T15:06:33.151Z</time></trkpt><trkpt lat="44.4944933" lon="8.5271567"><ele>456.0</ele><time>2026-05-01T15:06:34.154Z</time></trkpt><trkpt lat="44.494505" lon="8.5273533"><ele>457.0</ele><time>2026-05-01T15:06:35.154Z</time></trkpt><trkpt lat="44.49449" lon="8.5275533"><ele>458.0</ele><time>2026-05-01T15:06:36.153Z</time></trkpt><trkpt lat="44.494415" lon="8.5277217"><ele>459.0</ele><time>2026-05-01T15:06:37.16Z</time></trkpt><trkpt lat="44.4943333" lon="8.5278833"><ele>460.0</ele><time>2026-05-01T15:06:38.157Z</time></trkpt><trkpt lat="44.4942533" lon="8.5280417"><ele>462.25</ele><time>2026-05-01T15:06:39.153Z</time></trkpt><trkpt lat="44.4941667" lon="8.5281967"><ele>464.5</ele><time>2026-05-01T15:06:40.155Z</time></trkpt><trkpt lat="44.4940567" lon="8.52832"><ele>466.75</ele><time>2026-05-01T15:06:41.157Z</time></trkpt><trkpt lat="44.4939917" lon="8.52847"><ele>469.0</ele><time>2026-05-01T15:06:42.154Z</time></trkpt><trkpt lat="44.4939667" lon="8.5285983"><ele>469.0</ele><time>2026-05-01T15:06:43.152Z</time></trkpt><trkpt lat="44.4939567" lon="8.528715"><ele>469.0</ele><time>2026-05-01T15:06:44.153Z</time></trkpt><trkpt lat="44.4939967" lon="8.5288833"><ele>469.0</ele><time>2026-05-01T15:06:45.153Z</time></trkpt><trkpt lat="44.4940567" lon="8.5290583"><ele>469.0</ele><time>2026-05-01T15:06:46.15Z</time></trkpt><trkpt lat="44.494135" lon="8.5292283"><ele>471.0</ele><time>2026-05-01T15:06:47.155Z</time></trkpt><trkpt lat="44.49422" lon="8.5294217"><ele>473.0</ele><time>2026-05-01T15:06:48.153Z</time></trkpt><trkpt lat="44.4943083" lon="8.5296267"><ele>475.0</ele><time>2026-05-01T15:06:49.152Z</time></trkpt><trkpt lat="44.4943817" lon="8.52981"><ele>475.0</ele><time>2026-05-01T15:06:50.152Z</time></trkpt><trkpt lat="44.4944517" lon="8.5299717"><ele>475.0</ele><time>2026-05-01T15:06:51.153Z</time></trkpt><trkpt lat="44.4945267" lon="8.5301267"><ele>475.0</ele><time>2026-05-01T15:06:52.152Z</time></trkpt><trkpt lat="44.4946283" lon="8.5302317"><ele>475.0</ele><time>2026-05-01T15:06:53.156Z</time></trkpt><trkpt lat="44.4947433" lon="8.5303333"><ele>477.0</ele><time>2026-05-01T15:06:54.153Z</time></trkpt><trkpt lat="44.4948667" lon="8.5304417"><ele>479.0</ele><time>2026-05-01T15:06:55.154Z</time></trkpt><trkpt lat="44.494985" lon="8.5305733"><ele>481.0</ele><time>2026-05-01T15:06:56.153Z</time></trkpt><trkpt lat="44.4951083" lon="8.5307083"><ele>481.0</ele><time>2026-05-01T15:06:57.153Z</time></trkpt><trkpt lat="44.4952317" lon="8.530845"><ele>481.0</ele><time>2026-05-01T15:06:58.153Z</time></trkpt><trkpt lat="44.4953567" lon="8.5309667"><ele>481.0</ele><time>2026-05-01T15:06:59.156Z</time></trkpt><trkpt lat="44.495475" lon="8.5310717"><ele>481.0</ele><time>2026-05-01T15:07:00.152Z</time></trkpt><trkpt lat="44.4955817" lon="8.5311733"><ele>483.6</ele><time>2026-05-01T15:07:01.155Z</time></trkpt><trkpt lat="44.4956667" lon="8.5312767"><ele>486.20000000000005</ele><time>2026-05-01T15:07:02.155Z</time></trkpt><trkpt lat="44.4957317" lon="8.5313683"><ele>488.79999999999995</ele><time>2026-05-01T15:07:03.154Z</time></trkpt><trkpt lat="44.4957733" lon="8.53149"><ele>491.4</ele><time>2026-05-01T15:07:04.151Z</time></trkpt><trkpt lat="44.4958" lon="8.531595"><ele>494.0</ele><time>2026-05-01T15:07:05.154Z</time></trkpt><trkpt lat="44.4957917" lon="8.5317167"><ele>494.0</ele><time>2026-05-01T15:07:06.152Z</time></trkpt><trkpt lat="44.49581" lon="8.53183"><ele>494.0</ele><time>2026-05-01T15:07:07.155Z</time></trkpt><trkpt lat="44.4958217" lon="8.5319683"><ele>494.0</ele><time>2026-05-01T15:07:08.155Z</time></trkpt><trkpt lat="44.495745" lon="8.5321417"><ele>494.0</ele><time>2026-05-01T15:07:09.151Z</time></trkpt><trkpt lat="44.4957217" lon="8.5322667"><ele>494.0</ele><time>2026-05-01T15:07:10.154Z</time></trkpt><trkpt lat="44.4957017" lon="8.53238"><ele>494.4</ele><time>2026-05-01T15:07:11.154Z</time></trkpt><trkpt lat="44.4956917" lon="8.532495"><ele>494.79999999999995</ele><time>2026-05-01T15:07:12.157Z</time></trkpt><trkpt lat="44.49569" lon="8.5326233"><ele>495.20000000000005</ele><time>2026-05-01T15:07:13.155Z</time></trkpt><trkpt lat="44.4956767" lon="8.5327617"><ele>495.6</ele><time>2026-05-01T15:07:14.16Z</time></trkpt><trkpt lat="44.4956567" lon="8.5329033"><ele>496.0</ele><time>2026-05-01T15:07:15.155Z</time></trkpt><trkpt lat="44.4956283" lon="8.53304"><ele>497.75</ele><time>2026-05-01T15:07:16.153Z</time></trkpt><trkpt lat="44.4955933" lon="8.5331967"><ele>499.5</ele><time>2026-05-01T15:07:17.152Z</time></trkpt><trkpt lat="44.495565" lon="8.5333517"><ele>501.25</ele><time>2026-05-01T15:07:18.153Z</time></trkpt><trkpt lat="44.4955567" lon="8.5335083"><ele>503.0</ele><time>2026-05-01T15:07:19.153Z</time></trkpt><trkpt lat="44.49558" lon="8.533685"><ele>503.25</ele><time>2026-05-01T15:07:20.151Z</time></trkpt><trkpt lat="44.49561" lon="8.5338467"><ele>503.5</ele><time>2026-05-01T15:07:21.154Z</time></trkpt><trkpt lat="44.49563" lon="8.5340117"><ele>503.75</ele><time>2026-05-01T15:07:22.153Z</time></trkpt><trkpt lat="44.4956817" lon="8.534165"><ele>504.0</ele><time>2026-05-01T15:07:23.153Z</time></trkpt><trkpt lat="44.4957583" lon="8.534315"><ele>504.0</ele><time>2026-05-01T15:07:24.154Z</time></trkpt><trkpt lat="44.49585" lon="8.534455"><ele>504.0</ele><time>2026-05-01T15:07:25.154Z</time></trkpt><trkpt lat="44.495955" lon="8.5345983"><ele>504.0</ele><time>2026-05-01T15:07:26.152Z</time></trkpt><trkpt lat="44.49607" lon="8.5347283"><ele>504.0</ele><time>2026-05-01T15:07:27.155Z</time></trkpt><trkpt lat="44.4962" lon="8.5348367"><ele>504.0</ele><time>2026-05-01T15:07:28.154Z</time></trkpt><trkpt lat="44.4963217" lon="8.5349167"><ele>504.0</ele><time>2026-05-01T15:07:29.155Z</time></trkpt><trkpt lat="44.49643" lon="8.5349433"><ele>504.0</ele><time>2026-05-01T15:07:30.156Z</time></trkpt><trkpt lat="44.4965333" lon="8.53494"><ele>504.0</ele><time>2026-05-01T15:07:31.152Z</time></trkpt><trkpt lat="44.4966233" lon="8.534895"><ele>504.0</ele><time>2026-05-01T15:07:32.155Z</time></trkpt><trkpt lat="44.496685" lon="8.53481"><ele>504.0</ele><time>2026-05-01T15:07:33.156Z</time></trkpt><trkpt lat="44.4967333" lon="8.5346883"><ele>504.0</ele><time>2026-05-01T15:07:34.153Z</time></trkpt><trkpt lat="44.496755" lon="8.5345167"><ele>504.0</ele><time>2026-05-01T15:07:35.155Z</time></trkpt><trkpt lat="44.49681" lon="8.534375"><ele>504.0</ele><time>2026-05-01T15:07:36.15Z</time></trkpt><trkpt lat="44.4968667" lon="8.53425"><ele>504.0</ele><time>2026-05-01T15:07:37.155Z</time></trkpt><trkpt lat="44.496945" lon="8.534175"><ele>506.2</ele><time>2026-05-01T15:07:38.156Z</time></trkpt><trkpt lat="44.4970433" lon="8.5341433"><ele>508.4</ele><time>2026-05-01T15:07:39.154Z</time></trkpt><trkpt lat="44.4971417" lon="8.5340967"><ele>510.6</ele><time>2026-05-01T15:07:40.158Z</time></trkpt><trkpt lat="44.497245" lon="8.5340367"><ele>512.8</ele><time>2026-05-01T15:07:41.161Z</time></trkpt><trkpt lat="44.4973467" lon="8.53399"><ele>515.0</ele><time>2026-05-01T15:07:42.154Z</time></trkpt><trkpt lat="44.4974617" lon="8.5339783"><ele>515.0</ele><time>2026-05-01T15:07:43.155Z</time></trkpt><trkpt lat="44.4975767" lon="8.5340167"><ele>515.0</ele><time>2026-05-01T15:07:44.155Z</time></trkpt><trkpt lat="44.4977" lon="8.5340717"><ele>515.0</ele><time>2026-05-01T15:07:45.152Z</time></trkpt><trkpt lat="44.4978217" lon="8.5341483"><ele>515.0</ele><time>2026-05-01T15:07:46.152Z</time></trkpt><trkpt lat="44.4979433" lon="8.534245"><ele>514.75</ele><time>2026-05-01T15:07:47.156Z</time></trkpt><trkpt lat="44.4980533" lon="8.5343633"><ele>514.5</ele><time>2026-05-01T15:07:48.152Z</time></trkpt><trkpt lat="44.4981567" lon="8.5345017"><ele>514.25</ele><time>2026-05-01T15:07:49.162Z</time></trkpt><trkpt lat="44.4982467" lon="8.5346633"><ele>514.0</ele><time>2026-05-01T15:07:50.154Z</time></trkpt><trkpt lat="44.4983117" lon="8.53485"><ele>516.3333333333334</ele><time>2026-05-01T15:07:51.156Z</time></trkpt><trkpt lat="44.4983533" lon="8.53506"><ele>518.6666666666666</ele><time>2026-05-01T15:07:52.153Z</time></trkpt><trkpt lat="44.4983817" lon="8.5352833"><ele>521.0</ele><time>2026-05-01T15:07:53.154Z</time></trkpt><trkpt lat="44.4984017" lon="8.5355183"><ele>521.3333333333333</ele><time>2026-05-01T15:07:54.155Z</time></trkpt><trkpt lat="44.4984183" lon="8.5357633"><ele>521.6666666666666</ele><time>2026-05-01T15:07:55.153Z</time></trkpt><trkpt lat="44.4984217" lon="8.5360017"><ele>522.0</ele><time>2026-05-01T15:07:56.157Z</time></trkpt><trkpt lat="44.4984083" lon="8.5362433"><ele>524.6666666666666</ele><time>2026-05-01T15:07:57.151Z</time></trkpt><trkpt lat="44.4984" lon="8.5364967"><ele>527.3333333333333</ele><time>2026-05-01T15:07:58.157Z</time></trkpt><trkpt lat="44.4983983" lon="8.5367417"><ele>530.0</ele><time>2026-05-01T15:07:59.156Z</time></trkpt><trkpt lat="44.4983967" lon="8.5369717"><ele>531.25</ele><time>2026-05-01T15:08:00.159Z</time></trkpt><trkpt lat="44.4983967" lon="8.53718"><ele>532.5</ele><time>2026-05-01T15:08:01.151Z</time></trkpt><trkpt lat="44.4984167" lon="8.5373717"><ele>533.75</ele><time>2026-05-01T15:08:02.159Z</time></trkpt><trkpt lat="44.4984667" lon="8.53754"><ele>535.0</ele><time>2026-05-01T15:08:03.153Z</time></trkpt><trkpt lat="44.498525" lon="8.537695"><ele>535.0</ele><time>2026-05-01T15:08:04.152Z</time></trkpt><trkpt lat="44.4985683" lon="8.5378683"><ele>535.0</ele><time>2026-05-01T15:08:05.152Z</time></trkpt><trkpt lat="44.4985783" lon="8.53805"><ele>535.0</ele><time>2026-05-01T15:08:06.151Z</time></trkpt><trkpt lat="44.49857" lon="8.5382133"><ele>535.0</ele><time>2026-05-01T15:08:07.155Z</time></trkpt><trkpt lat="44.4985717" lon="8.5383783"><ele>534.5</ele><time>2026-05-01T15:08:08.155Z</time></trkpt><trkpt lat="44.4986067" lon="8.538535"><ele>534.0</ele><time>2026-05-01T15:08:09.152Z</time></trkpt><trkpt lat="44.4986683" lon="8.5386883"><ele>533.5</ele><time>2026-05-01T15:08:10.154Z</time></trkpt><trkpt lat="44.498745" lon="8.5388433"><ele>533.0</ele><time>2026-05-01T15:08:11.152Z</time></trkpt><trkpt lat="44.49882" lon="8.5389933"><ele>535.25</ele><time>2026-05-01T15:08:12.152Z</time></trkpt><trkpt lat="44.4988917" lon="8.5391433"><ele>537.5</ele><time>2026-05-01T15:08:13.156Z</time></trkpt><trkpt lat="44.4989533" lon="8.5393017"><ele>539.75</ele><time>2026-05-01T15:08:14.155Z</time></trkpt><trkpt lat="44.4990067" lon="8.5394617"><ele>542.0</ele><time>2026-05-01T15:08:15.151Z</time></trkpt><trkpt lat="44.4990583" lon="8.5396183"><ele>543.0</ele><time>2026-05-01T15:08:16.151Z</time></trkpt><trkpt lat="44.499115" lon="8.5397667"><ele>544.0</ele><time>2026-05-01T15:08:17.155Z</time></trkpt><trkpt lat="44.4991633" lon="8.539915"><ele>545.0</ele><time>2026-05-01T15:08:18.156Z</time></trkpt><trkpt lat="44.4992083" lon="8.5400617"><ele>546.0</ele><time>2026-05-01T15:08:19.153Z</time></trkpt><trkpt lat="44.4992517" lon="8.5402017"><ele>546.0</ele><time>2026-05-01T15:08:20.15Z</time></trkpt><trkpt lat="44.4992917" lon="8.5403383"><ele>546.0</ele><time>2026-05-01T15:08:21.15Z</time></trkpt><trkpt lat="44.4993183" lon="8.54048"><ele>546.0</ele><time>2026-05-01T15:08:22.152Z</time></trkpt><trkpt lat="44.4993317" lon="8.5406233"><ele>546.0</ele><time>2026-05-01T15:08:23.154Z</time></trkpt><trkpt lat="44.4993233" lon="8.5407667"><ele>546.0</ele><time>2026-05-01T15:08:24.151Z</time></trkpt><trkpt lat="44.499305" lon="8.5409067"><ele>546.8</ele><time>2026-05-01T15:08:25.158Z</time></trkpt><trkpt lat="44.49928" lon="8.5410367"><ele>547.6</ele><time>2026-05-01T15:08:26.154Z</time></trkpt><trkpt lat="44.4992517" lon="8.54116"><ele>548.4</ele><time>2026-05-01T15:08:27.153Z</time></trkpt><trkpt lat="44.4992317" lon="8.5412867"><ele>549.2</ele><time>2026-05-01T15:08:28.156Z</time></trkpt><trkpt lat="44.49922" lon="8.5414183"><ele>550.0</ele><time>2026-05-01T15:08:29.155Z</time></trkpt><trkpt lat="44.4992283" lon="8.5415617"><ele>550.8</ele><time>2026-05-01T15:08:30.157Z</time></trkpt><trkpt lat="44.49925" lon="8.541705"><ele>551.6</ele><time>2026-05-01T15:08:31.154Z</time></trkpt><trkpt lat="44.4992867" lon="8.5418467"><ele>552.4</ele><time>2026-05-01T15:08:32.151Z</time></trkpt><trkpt lat="44.499335" lon="8.54198"><ele>553.2</ele><time>2026-05-01T15:08:33.151Z</time></trkpt><trkpt lat="44.4993967" lon="8.5421083"><ele>554.0</ele><time>2026-05-01T15:08:34.154Z</time></trkpt><trkpt lat="44.4994733" lon="8.5422233"><ele>554.0</ele><time>2026-05-01T15:08:35.153Z</time></trkpt><trkpt lat="44.4995517" lon="8.5423383"><ele>554.0</ele><time>2026-05-01T15:08:36.153Z</time></trkpt><trkpt lat="44.4996267" lon="8.5424533"><ele>554.0</ele><time>2026-05-01T15:08:37.154Z</time></trkpt><trkpt lat="44.499695" lon="8.542565"><ele>554.0</ele><time>2026-05-01T15:08:38.154Z</time></trkpt><trkpt lat="44.4997483" lon="8.5426933"><ele>554.0</ele><time>2026-05-01T15:08:39.151Z</time></trkpt><trkpt lat="44.4997983" lon="8.5428317"><ele>559.25</ele><time>2026-05-01T15:08:40.152Z</time></trkpt><trkpt lat="44.4998433" lon="8.5429917"><ele>564.5</ele><time>2026-05-01T15:08:41.157Z</time></trkpt><trkpt lat="44.4998917" lon="8.5431833"><ele>569.75</ele><time>2026-05-01T15:08:42.153Z</time></trkpt><trkpt lat="44.4999433" lon="8.5434"><ele>575.0</ele><time>2026-05-01T15:08:43.155Z</time></trkpt><trkpt lat="44.499985" lon="8.5436417"><ele>576.6666666666666</ele><time>2026-05-01T15:08:44.152Z</time></trkpt><trkpt lat="44.5000167" lon="8.5438867"><ele>578.3333333333334</ele><time>2026-05-01T15:08:45.151Z</time></trkpt><trkpt lat="44.500035" lon="8.544105"><ele>580.0</ele><time>2026-05-01T15:08:46.153Z</time></trkpt><trkpt lat="44.5000417" lon="8.5442983"><ele>580.0</ele><time>2026-05-01T15:08:47.158Z</time></trkpt><trkpt lat="44.5000317" lon="8.544445"><ele>580.0</ele><time>2026-05-01T15:08:48.152Z</time></trkpt><trkpt lat="44.4999967" lon="8.5445733"><ele>580.0</ele><time>2026-05-01T15:08:49.157Z</time></trkpt><trkpt lat="44.4999433" lon="8.54468"><ele>580.0</ele><time>2026-05-01T15:08:50.15Z</time></trkpt><trkpt lat="44.4998633" lon="8.5447583"><ele>580.0</ele><time>2026-05-01T15:08:51.161Z</time></trkpt><trkpt lat="44.49977" lon="8.5447983"><ele>582.2</ele><time>2026-05-01T15:08:52.152Z</time></trkpt><trkpt lat="44.4996617" lon="8.544795"><ele>584.4</ele><time>2026-05-01T15:08:53.154Z</time></trkpt><trkpt lat="44.4995583" lon="8.5448083"><ele>586.6</ele><time>2026-05-01T15:08:54.157Z</time></trkpt><trkpt lat="44.49945" lon="8.5448617"><ele>588.8</ele><time>2026-05-01T15:08:55.152Z</time></trkpt><trkpt lat="44.49934" lon="8.5449017"><ele>591.0</ele><time>2026-05-01T15:08:56.157Z</time></trkpt><trkpt lat="44.4992267" lon="8.544925"><ele>591.4</ele><time>2026-05-01T15:08:57.152Z</time></trkpt><trkpt lat="44.4991167" lon="8.5449117"><ele>591.8</ele><time>2026-05-01T15:08:58.153Z</time></trkpt><trkpt lat="44.4990067" lon="8.5448767"><ele>592.1999999999999</ele><time>2026-05-01T15:08:59.153Z</time></trkpt><trkpt lat="44.4989067" lon="8.544805"><ele>592.6</ele><time>2026-05-01T15:09:00.155Z</time></trkpt><trkpt lat="44.498825" lon="8.5447"><ele>593.0</ele><time>2026-05-01T15:09:01.157Z</time></trkpt><trkpt lat="44.4987333" lon="8.5446367"><ele>593.0</ele><time>2026-05-01T15:09:02.154Z</time></trkpt><trkpt lat="44.4986467" lon="8.5445967"><ele>593.0</ele><time>2026-05-01T15:09:03.157Z</time></trkpt><trkpt lat="44.498555" lon="8.5446"><ele>593.0</ele><time>2026-05-01T15:09:04.15Z</time></trkpt><trkpt lat="44.49846" lon="8.5446233"><ele>593.0</ele><time>2026-05-01T15:09:05.151Z</time></trkpt><trkpt lat="44.498365" lon="8.5447117"><ele>593.0</ele><time>2026-05-01T15:09:06.158Z</time></trkpt><trkpt lat="44.4982567" lon="8.54484"><ele>593.0</ele><time>2026-05-01T15:09:07.153Z</time></trkpt><trkpt lat="44.498145" lon="8.5449833"><ele>593.0</ele><time>2026-05-01T15:09:08.152Z</time></trkpt><trkpt lat="44.4980383" lon="8.5451317"><ele>593.0</ele><time>2026-05-01T15:09:09.153Z</time></trkpt><trkpt lat="44.497945" lon="8.5452783"><ele>593.0</ele><time>2026-05-01T15:09:10.151Z</time></trkpt><trkpt lat="44.4978617" lon="8.545395"><ele>594.0</ele><time>2026-05-01T15:09:11.153Z</time></trkpt><trkpt lat="44.4977983" lon="8.54548"><ele>595.0</ele><time>2026-05-01T15:09:12.156Z</time></trkpt><trkpt lat="44.4977667" lon="8.5455817"><ele>596.0</ele><time>2026-05-01T15:09:14.153Z</time></trkpt><trkpt lat="44.4978233" lon="8.5456267"><ele>597.0</ele><time>2026-05-01T15:09:16.157Z</time></trkpt><trkpt lat="44.4979583" lon="8.5455967"><ele>598.0</ele><time>2026-05-01T15:09:18.152Z</time></trkpt><trkpt lat="44.4980983" lon="8.5455117"><ele>598.5</ele><time>2026-05-01T15:09:19.156Z</time></trkpt><trkpt lat="44.4982217" lon="8.5454633"><ele>599.0</ele><time>2026-05-01T15:09:20.152Z</time></trkpt><trkpt lat="44.49835" lon="8.545435"><ele>599.5</ele><time>2026-05-01T15:09:21.152Z</time></trkpt><trkpt lat="44.4984833" lon="8.5454433"><ele>600.0</ele><time>2026-05-01T15:09:22.151Z</time></trkpt><trkpt lat="44.4986183" lon="8.5454833"><ele>601.6666666666666</ele><time>2026-05-01T15:09:23.154Z</time></trkpt><trkpt lat="44.4987567" lon="8.545545"><ele>603.3333333333333</ele><time>2026-05-01T15:09:24.156Z</time></trkpt><trkpt lat="44.4988967" lon="8.545625"><ele>605.0</ele><time>2026-05-01T15:09:25.156Z</time></trkpt><trkpt lat="44.4990467" lon="8.5457083"><ele>605.0</ele><time>2026-05-01T15:09:26.153Z</time></trkpt><trkpt lat="44.4991883" lon="8.5457917"><ele>605.0</ele><time>2026-05-01T15:09:27.155Z</time></trkpt><trkpt lat="44.49933" lon="8.5458517"><ele>605.0</ele><time>2026-05-01T15:09:28.15Z</time></trkpt><trkpt lat="44.4994617" lon="8.5458883"><ele>605.0</ele><time>2026-05-01T15:09:29.154Z</time></trkpt><trkpt lat="44.4995883" lon="8.5459017"><ele>603.5</ele><time>2026-05-01T15:09:30.15Z</time></trkpt><trkpt lat="44.4997083" lon="8.5458833"><ele>602.0</ele><time>2026-05-01T15:09:31.159Z</time></trkpt><trkpt lat="44.49983" lon="8.5458267"><ele>600.5</ele><time>2026-05-01T15:09:32.152Z</time></trkpt><trkpt lat="44.4999517" lon="8.54573"><ele>599.0</ele><time>2026-05-01T15:09:33.152Z</time></trkpt><trkpt lat="44.5000717" lon="8.5456083"><ele>599.0</ele><time>2026-05-01T15:09:34.154Z</time></trkpt><trkpt lat="44.5001883" lon="8.545445"><ele>599.0</ele><time>2026-05-01T15:09:35.156Z</time></trkpt><trkpt lat="44.5003083" lon="8.5452717"><ele>599.0</ele><time>2026-05-01T15:09:36.154Z</time></trkpt><trkpt lat="44.5004383" lon="8.545105"><ele>599.3333333333333</ele><time>2026-05-01T15:09:37.157Z</time></trkpt><trkpt lat="44.500575" lon="8.5449367"><ele>599.6666666666666</ele><time>2026-05-01T15:09:38.153Z</time></trkpt><trkpt lat="44.50072" lon="8.5447783"><ele>600.0</ele><time>2026-05-01T15:09:39.151Z</time></trkpt><trkpt lat="44.5008683" lon="8.54462"><ele>599.3333333333334</ele><time>2026-05-01T15:09:40.152Z</time></trkpt><trkpt lat="44.5010217" lon="8.5444567"><ele>598.6666666666667</ele><time>2026-05-01T15:09:41.154Z</time></trkpt><trkpt lat="44.501165" lon="8.54429"><ele>598.0</ele><time>2026-05-01T15:09:42.159Z</time></trkpt><trkpt lat="44.5013" lon="8.544125"><ele>604.3333333333334</ele><time>2026-05-01T15:09:43.154Z</time></trkpt><trkpt lat="44.50143" lon="8.5439767"><ele>610.6666666666666</ele><time>2026-05-01T15:09:44.152Z</time></trkpt><trkpt lat="44.501555" lon="8.5438533"><ele>617.0</ele><time>2026-05-01T15:09:45.153Z</time></trkpt><trkpt lat="44.50168" lon="8.5437533"><ele>619.75</ele><time>2026-05-01T15:09:46.152Z</time></trkpt><trkpt lat="44.5018117" lon="8.5436933"><ele>622.5</ele><time>2026-05-01T15:09:47.154Z</time></trkpt><trkpt lat="44.5019333" lon="8.54363"><ele>625.25</ele><time>2026-05-01T15:09:48.155Z</time></trkpt><trkpt lat="44.5020483" lon="8.5435517"><ele>628.0</ele><time>2026-05-01T15:09:49.153Z</time></trkpt><trkpt lat="44.5021583" lon="8.5434483"><ele>628.0</ele><time>2026-05-01T15:09:50.152Z</time></trkpt><trkpt lat="44.5022633" lon="8.5433217"><ele>628.0</ele><time>2026-05-01T15:09:51.149Z</time></trkpt><trkpt lat="44.5023617" lon="8.543175"><ele>628.0</ele><time>2026-05-01T15:09:52.157Z</time></trkpt><trkpt lat="44.5024583" lon="8.5430083"><ele>628.0</ele><time>2026-05-01T15:09:53.157Z</time></trkpt><trkpt lat="44.5025367" lon="8.54282"><ele>624.6666666666667</ele><time>2026-05-01T15:09:54.155Z</time></trkpt><trkpt lat="44.5026" lon="8.5426117"><ele>621.3333333333334</ele><time>2026-05-01T15:09:55.153Z</time></trkpt><trkpt lat="44.5026583" lon="8.542375"><ele>618.0</ele><time>2026-05-01T15:09:56.157Z</time></trkpt><trkpt lat="44.502715" lon="8.5421217"><ele>616.3333333333334</ele><time>2026-05-01T15:09:57.154Z</time></trkpt><trkpt lat="44.502775" lon="8.5418583"><ele>614.6666666666667</ele><time>2026-05-01T15:09:58.152Z</time></trkpt><trkpt lat="44.50284" lon="8.5415933"><ele>613.0</ele><time>2026-05-01T15:09:59.153Z</time></trkpt><trkpt lat="44.5029117" lon="8.5413167"><ele>624.0</ele><time>2026-05-01T15:10:00.153Z</time></trkpt><trkpt lat="44.502985" lon="8.5410433"><ele>635.0</ele><time>2026-05-01T15:10:01.157Z</time></trkpt><trkpt lat="44.5030583" lon="8.5407717"><ele>646.0</ele><time>2026-05-01T15:10:02.153Z</time></trkpt><trkpt lat="44.5031233" lon="8.5404883"><ele>646.3333333333334</ele><time>2026-05-01T15:10:03.151Z</time></trkpt><trkpt lat="44.50317" lon="8.5401967"><ele>646.6666666666666</ele><time>2026-05-01T15:10:04.16Z</time></trkpt><trkpt lat="44.5032067" lon="8.5399083"><ele>647.0</ele><time>2026-05-01T15:10:05.154Z</time></trkpt><trkpt lat="44.50324" lon="8.53961"><ele>647.3333333333333</ele><time>2026-05-01T15:10:06.152Z</time></trkpt><trkpt lat="44.5032717" lon="8.539305"><ele>647.6666666666666</ele><time>2026-05-01T15:10:07.151Z</time></trkpt><trkpt lat="44.5033017" lon="8.5390033"><ele>648.0</ele><time>2026-05-01T15:10:08.15Z</time></trkpt><trkpt lat="44.5033383" lon="8.5387033"><ele>648.6666666666666</ele><time>2026-05-01T15:10:09.151Z</time></trkpt><trkpt lat="44.503385" lon="8.5384117"><ele>649.3333333333333</ele><time>2026-05-01T15:10:10.151Z</time></trkpt><trkpt lat="44.5034333" lon="8.5381333"><ele>650.0</ele><time>2026-05-01T15:10:11.155Z</time></trkpt><trkpt lat="44.5034717" lon="8.5378833"><ele>651.0</ele><time>2026-05-01T15:10:12.152Z</time></trkpt><trkpt lat="44.5034983" lon="8.53765"><ele>652.0</ele><time>2026-05-01T15:10:13.15Z</time></trkpt><trkpt lat="44.5035217" lon="8.5374483"><ele>653.0</ele><time>2026-05-01T15:10:14.158Z</time></trkpt><trkpt lat="44.503545" lon="8.5372783"><ele>654.0</ele><time>2026-05-01T15:10:15.152Z</time></trkpt><trkpt lat="44.5035817" lon="8.5371517"><ele>654.0</ele><time>2026-05-01T15:10:16.154Z</time></trkpt><trkpt lat="44.5036417" lon="8.5370783"><ele>654.0</ele><time>2026-05-01T15:10:17.154Z</time></trkpt><trkpt lat="44.5037067" lon="8.5370167"><ele>654.0</ele><time>2026-05-01T15:10:18.152Z</time></trkpt><trkpt lat="44.5037867" lon="8.536975"><ele>654.0</ele><time>2026-05-01T15:10:19.152Z</time></trkpt><trkpt lat="44.5039" lon="8.536985"><ele>654.0</ele><time>2026-05-01T15:10:20.153Z</time></trkpt><trkpt lat="44.5040017" lon="8.53696"><ele>658.2</ele><time>2026-05-01T15:10:21.152Z</time></trkpt><trkpt lat="44.5040867" lon="8.5369117"><ele>662.4000000000001</ele><time>2026-05-01T15:10:22.155Z</time></trkpt><trkpt lat="44.5041567" lon="8.5368533"><ele>666.6</ele><time>2026-05-01T15:10:23.153Z</time></trkpt><trkpt lat="44.5041983" lon="8.5367367"><ele>670.8</ele><time>2026-05-01T15:10:24.157Z</time></trkpt><trkpt lat="44.5042383" lon="8.5366133"><ele>675.0</ele><time>2026-05-01T15:10:25.153Z</time></trkpt><trkpt lat="44.50426" lon="8.5364717"><ele>675.0</ele><time>2026-05-01T15:10:26.151Z</time></trkpt><trkpt lat="44.5043" lon="8.536355"><ele>675.0</ele><time>2026-05-01T15:10:27.154Z</time></trkpt><trkpt lat="44.50436" lon="8.53626"><ele>675.0</ele><time>2026-05-01T15:10:28.151Z</time></trkpt><trkpt lat="44.504445" lon="8.5361933"><ele>675.0</ele><time>2026-05-01T15:10:29.157Z</time></trkpt><trkpt lat="44.5045517" lon="8.5361233"><ele>675.0</ele><time>2026-05-01T15:10:30.153Z</time></trkpt><trkpt lat="44.50468" lon="8.5360533"><ele>679.0</ele><time>2026-05-01T15:10:31.151Z</time></trkpt><trkpt lat="44.5048233" lon="8.53598"><ele>683.0</ele><time>2026-05-01T15:10:32.152Z</time></trkpt><trkpt lat="44.504985" lon="8.5359"><ele>687.0</ele><time>2026-05-01T15:10:33.154Z</time></trkpt><trkpt lat="44.5051533" lon="8.53583"><ele>687.0</ele><time>2026-05-01T15:10:34.154Z</time></trkpt><trkpt lat="44.5053117" lon="8.53575"><ele>687.0</ele><time>2026-05-01T15:10:35.157Z</time></trkpt><trkpt lat="44.5054633" lon="8.5356967"><ele>687.0</ele><time>2026-05-01T15:10:36.149Z</time></trkpt><trkpt lat="44.5056" lon="8.53566"><ele>688.4000000000001</ele><time>2026-05-01T15:10:37.155Z</time></trkpt><trkpt lat="44.5057083" lon="8.5356667"><ele>689.8000000000001</ele><time>2026-05-01T15:10:38.15Z</time></trkpt><trkpt lat="44.5058033" lon="8.5357017"><ele>691.2</ele><time>2026-05-01T15:10:39.152Z</time></trkpt><trkpt lat="44.505895" lon="8.53578"><ele>692.6</ele><time>2026-05-01T15:10:40.152Z</time></trkpt><trkpt lat="44.5059767" lon="8.5358933"><ele>694.0</ele><time>2026-05-01T15:10:41.159Z</time></trkpt><trkpt lat="44.5060517" lon="8.5360267"><ele>694.0</ele><time>2026-05-01T15:10:42.155Z</time></trkpt><trkpt lat="44.5061317" lon="8.5361817"><ele>694.0</ele><time>2026-05-01T15:10:43.152Z</time></trkpt><trkpt lat="44.5062183" lon="8.53634"><ele>694.0</ele><time>2026-05-01T15:10:44.152Z</time></trkpt><trkpt lat="44.50631" lon="8.5364933"><ele>694.0</ele><time>2026-05-01T15:10:45.152Z</time></trkpt><trkpt lat="44.5064117" lon="8.5366217"><ele>696.25</ele><time>2026-05-01T15:10:46.153Z</time></trkpt><trkpt lat="44.50652" lon="8.53673"><ele>698.5</ele><time>2026-05-01T15:10:47.154Z</time></trkpt><trkpt lat="44.5066433" lon="8.5367967"><ele>700.75</ele><time>2026-05-01T15:10:48.152Z</time></trkpt><trkpt lat="44.5067733" lon="8.536845"><ele>703.0</ele><time>2026-05-01T15:10:49.155Z</time></trkpt><trkpt lat="44.506905" lon="8.5368983"><ele>703.0</ele><time>2026-05-01T15:10:50.154Z</time></trkpt><trkpt lat="44.5070333" lon="8.53697"><ele>703.0</ele><time>2026-05-01T15:10:51.151Z</time></trkpt><trkpt lat="44.5071533" lon="8.5370817"><ele>703.0</ele><time>2026-05-01T15:10:52.153Z</time></trkpt><trkpt lat="44.50726" lon="8.5372183"><ele>703.0</ele><time>2026-05-01T15:10:53.156Z</time></trkpt><trkpt lat="44.507355" lon="8.5373783"><ele>705.0</ele><time>2026-05-01T15:10:54.152Z</time></trkpt><trkpt lat="44.507445" lon="8.5375583"><ele>707.0</ele><time>2026-05-01T15:10:55.153Z</time></trkpt><trkpt lat="44.5075367" lon="8.53775"><ele>709.0</ele><time>2026-05-01T15:10:56.151Z</time></trkpt><trkpt lat="44.5076383" lon="8.53794"><ele>709.6666666666667</ele><time>2026-05-01T15:10:57.152Z</time></trkpt><trkpt lat="44.50775" lon="8.53813"><ele>710.3333333333334</ele><time>2026-05-01T15:10:58.155Z</time></trkpt><trkpt lat="44.5078683" lon="8.5383183"><ele>711.0</ele><time>2026-05-01T15:10:59.155Z</time></trkpt><trkpt lat="44.507995" lon="8.538495"><ele>713.0</ele><time>2026-05-01T15:11:00.152Z</time></trkpt><trkpt lat="44.5081317" lon="8.5386667"><ele>715.0</ele><time>2026-05-01T15:11:01.159Z</time></trkpt><trkpt lat="44.5082783" lon="8.5388317"><ele>717.0</ele><time>2026-05-01T15:11:02.158Z</time></trkpt><trkpt lat="44.5084233" lon="8.53898"><ele>719.0</ele><time>2026-05-01T15:11:03.152Z</time></trkpt><trkpt lat="44.5085583" lon="8.5391083"><ele>721.0</ele><time>2026-05-01T15:11:04.153Z</time></trkpt><trkpt lat="44.50869" lon="8.5392083"><ele>723.0</ele><time>2026-05-01T15:11:05.154Z</time></trkpt><trkpt lat="44.50882" lon="8.5392817"><ele>725.0</ele><time>2026-05-01T15:11:06.156Z</time></trkpt><trkpt lat="44.5089533" lon="8.5393183"><ele>727.0</ele><time>2026-05-01T15:11:07.153Z</time></trkpt><trkpt lat="44.5090917" lon="8.5393233"><ele>729.0</ele><time>2026-05-01T15:11:08.156Z</time></trkpt><trkpt lat="44.5092317" lon="8.5392983"><ele>731.0</ele><time>2026-05-01T15:11:09.157Z</time></trkpt><trkpt lat="44.509375" lon="8.5392533"><ele>731.0</ele><time>2026-05-01T15:11:10.155Z</time></trkpt><trkpt lat="44.5095217" lon="8.5391933"><ele>731.0</ele><time>2026-05-01T15:11:11.154Z</time></trkpt><trkpt lat="44.50967" lon="8.5391333"><ele>731.0</ele><time>2026-05-01T15:11:12.158Z</time></trkpt><trkpt lat="44.5098183" lon="8.5390883"><ele>732.6666666666666</ele><time>2026-05-01T15:11:13.152Z</time></trkpt><trkpt lat="44.50998" lon="8.5390583"><ele>734.3333333333334</ele><time>2026-05-01T15:11:14.155Z</time></trkpt><trkpt lat="44.510155" lon="8.53904"><ele>736.0</ele><time>2026-05-01T15:11:15.153Z</time></trkpt><trkpt lat="44.51033" lon="8.5390267"><ele>737.0</ele><time>2026-05-01T15:11:16.153Z</time></trkpt><trkpt lat="44.5105017" lon="8.539015"><ele>738.0</ele><time>2026-05-01T15:11:17.155Z</time></trkpt><trkpt lat="44.51067" lon="8.5390067"><ele>739.0</ele><time>2026-05-01T15:11:18.152Z</time></trkpt><trkpt lat="44.5108317" lon="8.5389783"><ele>739.0</ele><time>2026-05-01T15:11:19.154Z</time></trkpt><trkpt lat="44.5109933" lon="8.5389317"><ele>739.0</ele><time>2026-05-01T15:11:20.153Z</time></trkpt><trkpt lat="44.5111517" lon="8.5388517"><ele>739.0</ele><time>2026-05-01T15:11:21.154Z</time></trkpt><trkpt lat="44.5113017" lon="8.5387667"><ele>738.0</ele><time>2026-05-01T15:11:22.156Z</time></trkpt><trkpt lat="44.5114517" lon="8.5386983"><ele>737.0</ele><time>2026-05-01T15:11:23.155Z</time></trkpt><trkpt lat="44.511605" lon="8.5386583"><ele>736.0</ele><time>2026-05-01T15:11:24.157Z</time></trkpt><trkpt lat="44.5117733" lon="8.53863"><ele>736.0</ele><time>2026-05-01T15:11:25.155Z</time></trkpt><trkpt lat="44.5119483" lon="8.5385983"><ele>736.0</ele><time>2026-05-01T15:11:26.154Z</time></trkpt><trkpt lat="44.5121233" lon="8.538555"><ele>736.0</ele><time>2026-05-01T15:11:27.155Z</time></trkpt><trkpt lat="44.5122983" lon="8.5385033"><ele>736.3333333333334</ele><time>2026-05-01T15:11:28.154Z</time></trkpt><trkpt lat="44.51247" lon="8.5384583"><ele>736.6666666666666</ele><time>2026-05-01T15:11:29.154Z</time></trkpt><trkpt lat="44.5126333" lon="8.53843"><ele>737.0</ele><time>2026-05-01T15:11:30.157Z</time></trkpt><trkpt lat="44.5127767" lon="8.538425"><ele>737.0</ele><time>2026-05-01T15:11:31.155Z</time></trkpt><trkpt lat="44.5129" lon="8.5384567"><ele>737.0</ele><time>2026-05-01T15:11:32.15Z</time></trkpt><trkpt lat="44.5130133" lon="8.5385267"><ele>737.0</ele><time>2026-05-01T15:11:33.152Z</time></trkpt><trkpt lat="44.5131217" lon="8.53864"><ele>737.0</ele><time>2026-05-01T15:11:34.157Z</time></trkpt><trkpt lat="44.51324" lon="8.5387683"><ele>738.6666666666666</ele><time>2026-05-01T15:11:35.157Z</time></trkpt><trkpt lat="44.5133717" lon="8.5389083"><ele>740.3333333333334</ele><time>2026-05-01T15:11:36.152Z</time></trkpt><trkpt lat="44.5135083" lon="8.5390533"><ele>742.0</ele><time>2026-05-01T15:11:37.155Z</time></trkpt><trkpt lat="44.5136367" lon="8.5392133"><ele>744.0</ele><time>2026-05-01T15:11:38.15Z</time></trkpt><trkpt lat="44.513755" lon="8.5393717"><ele>746.0</ele><time>2026-05-01T15:11:39.156Z</time></trkpt><trkpt lat="44.513855" lon="8.5395483"><ele>748.0</ele><time>2026-05-01T15:11:40.153Z</time></trkpt><trkpt lat="44.51394" lon="8.5397217"><ele>748.0</ele><time>2026-05-01T15:11:41.152Z</time></trkpt><trkpt lat="44.514025" lon="8.5398633"><ele>748.0</ele><time>2026-05-01T15:11:42.152Z</time></trkpt><trkpt lat="44.5141333" lon="8.53996"><ele>748.0</ele><time>2026-05-01T15:11:43.15Z</time></trkpt><trkpt lat="44.5142567" lon="8.540035"><ele>748.0</ele><time>2026-05-01T15:11:44.159Z</time></trkpt><trkpt lat="44.514395" lon="8.540095"><ele>748.0</ele><time>2026-05-01T15:11:45.154Z</time></trkpt><trkpt lat="44.5145367" lon="8.5401517"><ele>748.0</ele><time>2026-05-01T15:11:46.152Z</time></trkpt><trkpt lat="44.5146833" lon="8.5402117"><ele>748.0</ele><time>2026-05-01T15:11:47.154Z</time></trkpt><trkpt lat="44.5148317" lon="8.54028"><ele>748.3333333333334</ele><time>2026-05-01T15:11:48.157Z</time></trkpt><trkpt lat="44.5149833" lon="8.5403483"><ele>748.6666666666666</ele><time>2026-05-01T15:11:49.16Z</time></trkpt><trkpt lat="44.5151317" lon="8.5404133"><ele>749.0</ele><time>2026-05-01T15:11:50.155Z</time></trkpt><trkpt lat="44.5152767" lon="8.5404617"><ele>749.5</ele><time>2026-05-01T15:11:51.156Z</time></trkpt><trkpt lat="44.5154183" lon="8.5404767"><ele>750.0</ele><time>2026-05-01T15:11:52.156Z</time></trkpt><trkpt lat="44.51556" lon="8.5404533"><ele>750.5</ele><time>2026-05-01T15:11:53.152Z</time></trkpt><trkpt lat="44.515695" lon="8.5403867"><ele>751.0</ele><time>2026-05-01T15:11:54.153Z</time></trkpt><trkpt lat="44.5158133" lon="8.5402783"><ele>751.75</ele><time>2026-05-01T15:11:55.153Z</time></trkpt><trkpt lat="44.5159167" lon="8.5401333"><ele>752.5</ele><time>2026-05-01T15:11:56.152Z</time></trkpt><trkpt lat="44.5160083" lon="8.5399617"><ele>753.25</ele><time>2026-05-01T15:11:57.152Z</time></trkpt><trkpt lat="44.516085" lon="8.5397833"><ele>754.0</ele><time>2026-05-01T15:11:58.151Z</time></trkpt><trkpt lat="44.5161283" lon="8.5395983"><ele>752.75</ele><time>2026-05-01T15:11:59.153Z</time></trkpt><trkpt lat="44.51614" lon="8.5394033"><ele>751.5</ele><time>2026-05-01T15:12:00.154Z</time></trkpt><trkpt lat="44.5161317" lon="8.5392217"><ele>750.25</ele><time>2026-05-01T15:12:01.153Z</time></trkpt><trkpt lat="44.5161283" lon="8.5390717"><ele>749.0</ele><time>2026-05-01T15:12:02.16Z</time></trkpt><trkpt lat="44.51615" lon="8.5389567"><ele>749.0</ele><time>2026-05-01T15:12:03.153Z</time></trkpt><trkpt lat="44.5161833" lon="8.5388567"><ele>749.0</ele><time>2026-05-01T15:12:04.153Z</time></trkpt><trkpt lat="44.5162283" lon="8.5387683"><ele>749.0</ele><time>2026-05-01T15:12:05.153Z</time></trkpt><trkpt lat="44.5163533" lon="8.5387633"><ele>749.0</ele><time>2026-05-01T15:12:06.155Z</time></trkpt><trkpt lat="44.51648" lon="8.5387317"><ele>749.0</ele><time>2026-05-01T15:12:07.153Z</time></trkpt><trkpt lat="44.5166133" lon="8.5386817"><ele>750.3333333333333</ele><time>2026-05-01T15:12:08.154Z</time></trkpt><trkpt lat="44.5167483" lon="8.5386017"><ele>751.6666666666666</ele><time>2026-05-01T15:12:09.151Z</time></trkpt><trkpt lat="44.5168867" lon="8.5384867"><ele>753.0</ele><time>2026-05-01T15:12:10.151Z</time></trkpt><trkpt lat="44.51702" lon="8.5383483"><ele>756.6666666666666</ele><time>2026-05-01T15:12:11.155Z</time></trkpt><trkpt lat="44.51715" lon="8.5382083"><ele>760.3333333333333</ele><time>2026-05-01T15:12:12.152Z</time></trkpt><trkpt lat="44.517275" lon="8.5380717"><ele>764.0</ele><time>2026-05-01T15:12:13.156Z</time></trkpt><trkpt lat="44.5173983" lon="8.5379333"><ele>762.75</ele><time>2026-05-01T15:12:14.152Z</time></trkpt><trkpt lat="44.5175167" lon="8.5377967"><ele>761.5</ele><time>2026-05-01T15:12:15.157Z</time></trkpt><trkpt lat="44.5176233" lon="8.5376633"><ele>760.25</ele><time>2026-05-01T15:12:16.152Z</time></trkpt><trkpt lat="44.517705" lon="8.53753"><ele>759.0</ele><time>2026-05-01T15:12:17.156Z</time></trkpt><trkpt lat="44.517765" lon="8.5373933"><ele>759.0</ele><time>2026-05-01T15:12:18.154Z</time></trkpt><trkpt lat="44.517795" lon="8.5372367"><ele>759.0</ele><time>2026-05-01T15:12:19.154Z</time></trkpt><trkpt lat="44.517795" lon="8.5370717"><ele>759.0</ele><time>2026-05-01T15:12:20.155Z</time></trkpt><trkpt lat="44.51778" lon="8.53691"><ele>759.0</ele><time>2026-05-01T15:12:21.156Z</time></trkpt><trkpt lat="44.51777" lon="8.5367617"><ele>758.8000000000001</ele><time>2026-05-01T15:12:22.15Z</time></trkpt><trkpt lat="44.5177617" lon="8.5366217"><ele>758.6</ele><time>2026-05-01T15:12:23.151Z</time></trkpt><trkpt lat="44.5177933" lon="8.5364833"><ele>758.4</ele><time>2026-05-01T15:12:24.15Z</time></trkpt><trkpt lat="44.5178433" lon="8.5363433"><ele>758.2</ele><time>2026-05-01T15:12:25.152Z</time></trkpt><trkpt lat="44.5179083" lon="8.5362033"><ele>758.0</ele><time>2026-05-01T15:12:26.152Z</time></trkpt><trkpt lat="44.5179767" lon="8.5360867"><ele>756.8</ele><time>2026-05-01T15:12:27.155Z</time></trkpt><trkpt lat="44.518055" lon="8.53601"><ele>755.5999999999999</ele><time>2026-05-01T15:12:28.152Z</time></trkpt><trkpt lat="44.5181267" lon="8.5359467"><ele>754.4000000000001</ele><time>2026-05-01T15:12:29.152Z</time></trkpt><trkpt lat="44.5182267" lon="8.5359683"><ele>753.2</ele><time>2026-05-01T15:12:30.15Z</time></trkpt><trkpt lat="44.5183233" lon="8.5359867"><ele>752.0</ele><time>2026-05-01T15:12:31.156Z</time></trkpt><trkpt lat="44.51841" lon="8.5360367"><ele>752.0</ele><time>2026-05-01T15:12:32.154Z</time></trkpt><trkpt lat="44.51844" lon="8.5361683"><ele>752.0</ele><time>2026-05-01T15:12:33.155Z</time></trkpt><trkpt lat="44.518475" lon="8.5362817"><ele>752.0</ele><time>2026-05-01T15:12:34.153Z</time></trkpt><trkpt lat="44.5185033" lon="8.5364283"><ele>752.0</ele><time>2026-05-01T15:12:35.158Z</time></trkpt><trkpt lat="44.5185517" lon="8.5365467"><ele>752.0</ele><time>2026-05-01T15:12:36.155Z</time></trkpt><trkpt lat="44.5186317" lon="8.5366283"><ele>750.8</ele><time>2026-05-01T15:12:37.153Z</time></trkpt><trkpt lat="44.5187283" lon="8.5366867"><ele>749.6</ele><time>2026-05-01T15:12:38.149Z</time></trkpt><trkpt lat="44.51884" lon="8.5367067"><ele>748.4</ele><time>2026-05-01T15:12:39.157Z</time></trkpt><trkpt lat="44.518955" lon="8.5367133"><ele>747.1999999999999</ele><time>2026-05-01T15:12:40.152Z</time></trkpt><trkpt lat="44.51907" lon="8.5367"><ele>746.0</ele><time>2026-05-01T15:12:41.156Z</time></trkpt><trkpt lat="44.5191717" lon="8.53665"><ele>746.0</ele><time>2026-05-01T15:12:42.155Z</time></trkpt><trkpt lat="44.51925" lon="8.5365617"><ele>746.0</ele><time>2026-05-01T15:12:43.155Z</time></trkpt><trkpt lat="44.519315" lon="8.536435"><ele>746.0</ele><time>2026-05-01T15:12:44.151Z</time></trkpt><trkpt lat="44.5193667" lon="8.536285"><ele>746.0</ele><time>2026-05-01T15:12:45.151Z</time></trkpt><trkpt lat="44.5194083" lon="8.5361117"><ele>744.75</ele><time>2026-05-01T15:12:46.154Z</time></trkpt><trkpt lat="44.5194433" lon="8.535925"><ele>743.5</ele><time>2026-05-01T15:12:47.155Z</time></trkpt><trkpt lat="44.5194667" lon="8.5357367"><ele>742.25</ele><time>2026-05-01T15:12:48.155Z</time></trkpt><trkpt lat="44.51947" lon="8.53555"><ele>741.0</ele><time>2026-05-01T15:12:49.151Z</time></trkpt><trkpt lat="44.5194567" lon="8.5353533"><ele>738.75</ele><time>2026-05-01T15:12:50.154Z</time></trkpt><trkpt lat="44.5194317" lon="8.5351533"><ele>736.5</ele><time>2026-05-01T15:12:51.151Z</time></trkpt><trkpt lat="44.5194067" lon="8.534955"><ele>734.25</ele><time>2026-05-01T15:12:52.155Z</time></trkpt><trkpt lat="44.51938" lon="8.5347567"><ele>732.0</ele><time>2026-05-01T15:12:53.161Z</time></trkpt><trkpt lat="44.5193583" lon="8.5345717"><ele>731.6666666666666</ele><time>2026-05-01T15:12:54.153Z</time></trkpt><trkpt lat="44.5193583" lon="8.5344283"><ele>731.3333333333334</ele><time>2026-05-01T15:12:55.156Z</time></trkpt><trkpt lat="44.5193833" lon="8.534315"><ele>731.0</ele><time>2026-05-01T15:12:56.151Z</time></trkpt><trkpt lat="44.519425" lon="8.53422"><ele>730.6666666666667</ele><time>2026-05-01T15:12:57.155Z</time></trkpt><trkpt lat="44.5194883" lon="8.5341467"><ele>730.3333333333334</ele><time>2026-05-01T15:12:58.16Z</time></trkpt><trkpt lat="44.51957" lon="8.5340917"><ele>730.0</ele><time>2026-05-01T15:12:59.157Z</time></trkpt><trkpt lat="44.5196883" lon="8.5340683"><ele>730.2</ele><time>2026-05-01T15:13:00.153Z</time></trkpt><trkpt lat="44.5197867" lon="8.534025"><ele>730.4</ele><time>2026-05-01T15:13:01.157Z</time></trkpt><trkpt lat="44.51986" lon="8.533945"><ele>730.5999999999999</ele><time>2026-05-01T15:13:02.156Z</time></trkpt><trkpt lat="44.5199217" lon="8.5338633"><ele>730.8</ele><time>2026-05-01T15:13:03.153Z</time></trkpt><trkpt lat="44.5199567" lon="8.53377"><ele>731.0</ele><time>2026-05-01T15:13:04.152Z</time></trkpt><trkpt lat="44.51993" lon="8.5336117"><ele>731.0</ele><time>2026-05-01T15:13:05.153Z</time></trkpt><trkpt lat="44.5199167" lon="8.5334717"><ele>731.0</ele><time>2026-05-01T15:13:06.153Z</time></trkpt><trkpt lat="44.5199233" lon="8.5333417"><ele>731.0</ele><time>2026-05-01T15:13:07.154Z</time></trkpt><trkpt lat="44.5199617" lon="8.5332133"><ele>731.0</ele><time>2026-05-01T15:13:08.15Z</time></trkpt><trkpt lat="44.52004" lon="8.5330967"><ele>731.0</ele><time>2026-05-01T15:13:09.153Z</time></trkpt><trkpt lat="44.5201167" lon="8.5329717"><ele>730.1999999999999</ele><time>2026-05-01T15:13:10.152Z</time></trkpt><trkpt lat="44.52018" lon="8.5328417"><ele>729.4</ele><time>2026-05-01T15:13:11.157Z</time></trkpt><trkpt lat="44.52022" lon="8.5327033"><ele>728.6</ele><time>2026-05-01T15:13:12.151Z</time></trkpt><trkpt lat="44.5202583" lon="8.53256"><ele>727.8</ele><time>2026-05-01T15:13:13.149Z</time></trkpt><trkpt lat="44.52031" lon="8.5324167"><ele>727.0</ele><time>2026-05-01T15:13:14.154Z</time></trkpt><trkpt lat="44.5203833" lon="8.5322967"><ele>727.75</ele><time>2026-05-01T15:13:15.154Z</time></trkpt><trkpt lat="44.5204867" lon="8.5322017"><ele>728.5</ele><time>2026-05-01T15:13:16.152Z</time></trkpt><trkpt lat="44.520605" lon="8.5321167"><ele>729.25</ele><time>2026-05-01T15:13:17.154Z</time></trkpt><trkpt lat="44.5207133" lon="8.5320083"><ele>730.0</ele><time>2026-05-01T15:13:18.154Z</time></trkpt><trkpt lat="44.52082" lon="8.5318933"><ele>727.8</ele><time>2026-05-01T15:13:19.159Z</time></trkpt><trkpt lat="44.52091" lon="8.5317883"><ele>725.6</ele><time>2026-05-01T15:13:20.158Z</time></trkpt><trkpt lat="44.52098" lon="8.531705"><ele>723.4000000000001</ele><time>2026-05-01T15:13:21.153Z</time></trkpt><trkpt lat="44.5210383" lon="8.5316683"><ele>721.2</ele><time>2026-05-01T15:13:22.153Z</time></trkpt><trkpt lat="44.5211483" lon="8.5317417"><ele>719.0</ele><time>2026-05-01T15:13:24.152Z</time></trkpt><trkpt lat="44.5211983" lon="8.53182"><ele>716.0</ele><time>2026-05-01T15:13:25.155Z</time></trkpt><trkpt lat="44.5212383" lon="8.5319883"><ele>713.0</ele><time>2026-05-01T15:13:26.151Z</time></trkpt><trkpt lat="44.5212817" lon="8.5321667"><ele>710.0</ele><time>2026-05-01T15:13:27.152Z</time></trkpt><trkpt lat="44.521325" lon="8.5323367"><ele>707.0</ele><time>2026-05-01T15:13:28.153Z</time></trkpt><trkpt lat="44.5213817" lon="8.5324833"><ele>707.0</ele><time>2026-05-01T15:13:29.151Z</time></trkpt><trkpt lat="44.521455" lon="8.5326083"><ele>707.0</ele><time>2026-05-01T15:13:30.152Z</time></trkpt><trkpt lat="44.521545" lon="8.532715"><ele>707.0</ele><time>2026-05-01T15:13:31.151Z</time></trkpt><trkpt lat="44.5216217" lon="8.5328383"><ele>707.0</ele><time>2026-05-01T15:13:32.152Z</time></trkpt><trkpt lat="44.52168" lon="8.5329883"><ele>708.6</ele><time>2026-05-01T15:13:33.152Z</time></trkpt><trkpt lat="44.52173" lon="8.5331233"><ele>710.2</ele><time>2026-05-01T15:13:34.152Z</time></trkpt><trkpt lat="44.5217733" lon="8.5332367"><ele>711.8</ele><time>2026-05-01T15:13:35.154Z</time></trkpt><trkpt lat="44.521815" lon="8.53332"><ele>713.4</ele><time>2026-05-01T15:13:36.153Z</time></trkpt><trkpt lat="44.52189" lon="8.5333133"><ele>715.0</ele><time>2026-05-01T15:13:37.154Z</time></trkpt><trkpt lat="44.5219917" lon="8.5332617"><ele>715.0</ele><time>2026-05-01T15:13:39.149Z</time></trkpt><trkpt lat="44.5219733" lon="8.5331617"><ele>715.0</ele><time>2026-05-01T15:13:40.156Z</time></trkpt><trkpt lat="44.5219483" lon="8.53307"><ele>715.0</ele><time>2026-05-01T15:13:41.151Z</time></trkpt><trkpt lat="44.5219183" lon="8.5329633"><ele>715.0</ele><time>2026-05-01T15:13:42.156Z</time></trkpt><trkpt lat="44.52187" lon="8.5328467"><ele>715.0</ele><time>2026-05-01T15:13:43.153Z</time></trkpt><trkpt lat="44.521805" lon="8.5327167"><ele>715.0</ele><time>2026-05-01T15:13:44.153Z</time></trkpt><trkpt lat="44.5217067" lon="8.5325483"><ele>713.0</ele><time>2026-05-01T15:13:45.151Z</time></trkpt><trkpt lat="44.52162" lon="8.5324083"><ele>711.0</ele><time>2026-05-01T15:13:46.157Z</time></trkpt><trkpt lat="44.521545" lon="8.5322683"><ele>709.0</ele><time>2026-05-01T15:13:47.152Z</time></trkpt><trkpt lat="44.5214917" lon="8.5321183"><ele>707.0</ele><time>2026-05-01T15:13:48.152Z</time></trkpt><trkpt lat="44.5214533" lon="8.53197"><ele>706.2</ele><time>2026-05-01T15:13:49.155Z</time></trkpt><trkpt lat="44.5214367" lon="8.531835"><ele>705.4000000000001</ele><time>2026-05-01T15:13:50.153Z</time></trkpt><trkpt lat="44.5214417" lon="8.5317117"><ele>704.5999999999999</ele><time>2026-05-01T15:13:51.153Z</time></trkpt><trkpt lat="44.5214433" lon="8.53162"><ele>703.8</ele><time>2026-05-01T15:13:52.155Z</time></trkpt><trkpt lat="44.5214733" lon="8.531485"><ele>703.0</ele><time>2026-05-01T15:13:54.155Z</time></trkpt><trkpt lat="44.5217" lon="8.5316267"><ele>703.0</ele><time>2026-05-01T15:13:56.158Z</time></trkpt><trkpt lat="44.52181" lon="8.5316867"><ele>703.0</ele><time>2026-05-01T15:13:57.155Z</time></trkpt><trkpt lat="44.5219367" lon="8.531725"><ele>703.0</ele><time>2026-05-01T15:13:58.152Z</time></trkpt><trkpt lat="44.5220717" lon="8.5317483"><ele>703.0</ele><time>2026-05-01T15:13:59.151Z</time></trkpt><trkpt lat="44.522215" lon="8.53178"><ele>696.3333333333334</ele><time>2026-05-01T15:14:00.156Z</time></trkpt><trkpt lat="44.5223667" lon="8.5318233"><ele>689.6666666666666</ele><time>2026-05-01T15:14:01.155Z</time></trkpt><trkpt lat="44.5225217" lon="8.531895"><ele>683.0</ele><time>2026-05-01T15:14:02.151Z</time></trkpt><trkpt lat="44.5226733" lon="8.531965"><ele>683.0</ele><time>2026-05-01T15:14:03.152Z</time></trkpt><trkpt lat="44.5228267" lon="8.532055"><ele>683.0</ele><time>2026-05-01T15:14:04.155Z</time></trkpt><trkpt lat="44.522975" lon="8.53214"><ele>683.0</ele><time>2026-05-01T15:14:05.151Z</time></trkpt><trkpt lat="44.523125" lon="8.5322233"><ele>681.0</ele><time>2026-05-01T15:14:06.152Z</time></trkpt><trkpt lat="44.5232683" lon="8.53231"><ele>679.0</ele><time>2026-05-01T15:14:07.154Z</time></trkpt><trkpt lat="44.52341" lon="8.5323983"><ele>677.0</ele><time>2026-05-01T15:14:08.15Z</time></trkpt><trkpt lat="44.5235417" lon="8.5324867"><ele>677.0</ele><time>2026-05-01T15:14:09.151Z</time></trkpt><trkpt lat="44.5236617" lon="8.5325717"><ele>677.0</ele><time>2026-05-01T15:14:10.153Z</time></trkpt><trkpt lat="44.5237767" lon="8.5326217"><ele>677.0</ele><time>2026-05-01T15:14:11.152Z</time></trkpt><trkpt lat="44.52388" lon="8.5326333"><ele>677.0</ele><time>2026-05-01T15:14:12.157Z</time></trkpt><trkpt lat="44.5239733" lon="8.532595"><ele>679.0</ele><time>2026-05-01T15:14:13.155Z</time></trkpt><trkpt lat="44.52406" lon="8.5325183"><ele>681.0</ele><time>2026-05-01T15:14:14.155Z</time></trkpt><trkpt lat="44.5241383" lon="8.5323933"><ele>683.0</ele><time>2026-05-01T15:14:15.152Z</time></trkpt><trkpt lat="44.5242117" lon="8.5322667"><ele>685.0</ele><time>2026-05-01T15:14:16.154Z</time></trkpt><trkpt lat="44.5242783" lon="8.5321567"><ele>687.0</ele><time>2026-05-01T15:14:17.16Z</time></trkpt><trkpt lat="44.5243517" lon="8.532075"><ele>687.2</ele><time>2026-05-01T15:14:18.153Z</time></trkpt><trkpt lat="44.52443" lon="8.53202"><ele>687.4000000000001</ele><time>2026-05-01T15:14:19.154Z</time></trkpt><trkpt lat="44.5245067" lon="8.5319833"><ele>687.5999999999999</ele><time>2026-05-01T15:14:20.154Z</time></trkpt><trkpt lat="44.5246" lon="8.5319733"><ele>687.8</ele><time>2026-05-01T15:14:21.154Z</time></trkpt><trkpt lat="44.5247317" lon="8.5320033"><ele>688.0</ele><time>2026-05-01T15:14:22.153Z</time></trkpt><trkpt lat="44.5248733" lon="8.5320217"><ele>688.0</ele><time>2026-05-01T15:14:23.153Z</time></trkpt><trkpt lat="44.5250283" lon="8.5320083"><ele>688.0</ele><time>2026-05-01T15:14:24.151Z</time></trkpt><trkpt lat="44.5251883" lon="8.5319717"><ele>688.0</ele><time>2026-05-01T15:14:25.157Z</time></trkpt><trkpt lat="44.5253417" lon="8.5319367"><ele>689.0</ele><time>2026-05-01T15:14:26.154Z</time></trkpt><trkpt lat="44.525495" lon="8.53193"><ele>690.0</ele><time>2026-05-01T15:14:27.152Z</time></trkpt><trkpt lat="44.5256417" lon="8.5319417"><ele>691.0</ele><time>2026-05-01T15:14:28.153Z</time></trkpt><trkpt lat="44.52579" lon="8.53198"><ele>691.0</ele><time>2026-05-01T15:14:29.152Z</time></trkpt><trkpt lat="44.5259433" lon="8.5320183"><ele>691.0</ele><time>2026-05-01T15:14:30.154Z</time></trkpt><trkpt lat="44.5261" lon="8.532065"><ele>691.0</ele><time>2026-05-01T15:14:31.152Z</time></trkpt><trkpt lat="44.526265" lon="8.532115"><ele>692.3333333333334</ele><time>2026-05-01T15:14:32.153Z</time></trkpt><trkpt lat="44.52643" lon="8.5321767"><ele>693.6666666666666</ele><time>2026-05-01T15:14:33.155Z</time></trkpt><trkpt lat="44.5265967" lon="8.532265"><ele>695.0</ele><time>2026-05-01T15:14:34.16Z</time></trkpt><trkpt lat="44.5267417" lon="8.5323783"><ele>695.0</ele><time>2026-05-01T15:14:35.153Z</time></trkpt><trkpt lat="44.52689" lon="8.5324933"><ele>695.0</ele><time>2026-05-01T15:14:36.158Z</time></trkpt><trkpt lat="44.5270433" lon="8.5326"><ele>695.0</ele><time>2026-05-01T15:14:37.153Z</time></trkpt><trkpt lat="44.5272067" lon="8.5327033"><ele>696.3333333333333</ele><time>2026-05-01T15:14:38.156Z</time></trkpt><trkpt lat="44.52737" lon="8.5328033"><ele>697.6666666666666</ele><time>2026-05-01T15:14:39.154Z</time></trkpt><trkpt lat="44.527535" lon="8.5329"><ele>699.0</ele><time>2026-05-01T15:14:40.155Z</time></trkpt><trkpt lat="44.5277067" lon="8.5329683"><ele>699.0</ele><time>2026-05-01T15:14:41.153Z</time></trkpt><trkpt lat="44.5278783" lon="8.5330117"><ele>699.0</ele><time>2026-05-01T15:14:42.153Z</time></trkpt><trkpt lat="44.52805" lon="8.53304"><ele>699.0</ele><time>2026-05-01T15:14:43.15Z</time></trkpt><trkpt lat="44.5282133" lon="8.5330667"><ele>701.5</ele><time>2026-05-01T15:14:44.152Z</time></trkpt><trkpt lat="44.52837" lon="8.5330967"><ele>704.0</ele><time>2026-05-01T15:14:45.151Z</time></trkpt><trkpt lat="44.5285167" lon="8.5331333"><ele>706.5</ele><time>2026-05-01T15:14:46.149Z</time></trkpt><trkpt lat="44.5286517" lon="8.5331733"><ele>709.0</ele><time>2026-05-01T15:14:47.156Z</time></trkpt><trkpt lat="44.5287833" lon="8.533205"><ele>711.0</ele><time>2026-05-01T15:14:48.152Z</time></trkpt><trkpt lat="44.52891" lon="8.5332333"><ele>713.0</ele><time>2026-05-01T15:14:49.156Z</time></trkpt><trkpt lat="44.5290367" lon="8.5332383"><ele>715.0</ele><time>2026-05-01T15:14:50.154Z</time></trkpt><trkpt lat="44.5291617" lon="8.5332233"><ele>717.0</ele><time>2026-05-01T15:14:51.151Z</time></trkpt><trkpt lat="44.52928" lon="8.5331883"><ele>717.0</ele><time>2026-05-01T15:14:52.151Z</time></trkpt><trkpt lat="44.529385" lon="8.533125"><ele>717.0</ele><time>2026-05-01T15:14:53.156Z</time></trkpt><trkpt lat="44.5294767" lon="8.533065"><ele>717.0</ele><time>2026-05-01T15:14:54.152Z</time></trkpt><trkpt lat="44.52956" lon="8.5330167"><ele>717.0</ele><time>2026-05-01T15:14:55.149Z</time></trkpt><trkpt lat="44.52964" lon="8.5329717"><ele>717.0</ele><time>2026-05-01T15:14:56.155Z</time></trkpt><trkpt lat="44.5297183" lon="8.5329217"><ele>717.0</ele><time>2026-05-01T15:14:57.15Z</time></trkpt><trkpt lat="44.5297933" lon="8.5328717"><ele>717.0</ele><time>2026-05-01T15:14:58.151Z</time></trkpt><trkpt lat="44.529875" lon="8.5328283"><ele>717.0</ele><time>2026-05-01T15:14:59.15Z</time></trkpt><trkpt lat="44.5299517" lon="8.5327717"><ele>717.0</ele><time>2026-05-01T15:15:00.15Z</time></trkpt><trkpt lat="44.5300333" lon="8.53272"><ele>717.0</ele><time>2026-05-01T15:15:01.156Z</time></trkpt><trkpt lat="44.5301233" lon="8.5326783"><ele>717.0</ele><time>2026-05-01T15:15:02.151Z</time></trkpt><trkpt lat="44.5302117" lon="8.53264"><ele>717.0</ele><time>2026-05-01T15:15:03.152Z</time></trkpt><trkpt lat="44.53031" lon="8.5326233"><ele>717.0</ele><time>2026-05-01T15:15:04.154Z</time></trkpt><trkpt lat="44.5304083" lon="8.532605"><ele>717.0</ele><time>2026-05-01T15:15:05.152Z</time></trkpt><trkpt lat="44.5305017" lon="8.532585"><ele>717.0</ele><time>2026-05-01T15:15:06.152Z</time></trkpt><trkpt lat="44.5305867" lon="8.53256"><ele>717.0</ele><time>2026-05-01T15:15:07.154Z</time></trkpt><trkpt lat="44.53067" lon="8.5325617"><ele>718.0</ele><time>2026-05-01T15:15:08.152Z</time></trkpt><trkpt lat="44.5307483" lon="8.5325883"><ele>719.0</ele><time>2026-05-01T15:15:09.154Z</time></trkpt><trkpt lat="44.5308317" lon="8.5326283"><ele>720.0</ele><time>2026-05-01T15:15:10.151Z</time></trkpt><trkpt lat="44.530915" lon="8.5326883"><ele>721.0</ele><time>2026-05-01T15:15:11.15Z</time></trkpt><trkpt lat="44.531" lon="8.5327617"><ele>722.0</ele><time>2026-05-01T15:15:12.155Z</time></trkpt><trkpt lat="44.5310917" lon="8.5328217"><ele>722.25</ele><time>2026-05-01T15:15:13.155Z</time></trkpt><trkpt lat="44.5311933" lon="8.5328917"><ele>722.5</ele><time>2026-05-01T15:15:14.15Z</time></trkpt><trkpt lat="44.5313" lon="8.5329483"><ele>722.75</ele><time>2026-05-01T15:15:15.153Z</time></trkpt><trkpt lat="44.53141" lon="8.532995"><ele>723.0</ele><time>2026-05-01T15:15:16.156Z</time></trkpt><trkpt lat="44.531525" lon="8.5330433"><ele>725.25</ele><time>2026-05-01T15:15:17.153Z</time></trkpt><trkpt lat="44.5316467" lon="8.53309"><ele>727.5</ele><time>2026-05-01T15:15:18.156Z</time></trkpt><trkpt lat="44.5317767" lon="8.5331317"><ele>729.75</ele><time>2026-05-01T15:15:19.156Z</time></trkpt><trkpt lat="44.5319283" lon="8.5331717"><ele>732.0</ele><time>2026-05-01T15:15:20.154Z</time></trkpt><trkpt lat="44.53209" lon="8.5332117"><ele>735.0</ele><time>2026-05-01T15:15:21.154Z</time></trkpt><trkpt lat="44.5322633" lon="8.5332533"><ele>738.0</ele><time>2026-05-01T15:15:22.157Z</time></trkpt><trkpt lat="44.5324383" lon="8.533305"><ele>741.0</ele><time>2026-05-01T15:15:23.154Z</time></trkpt><trkpt lat="44.532615" lon="8.533355"><ele>741.0</ele><time>2026-05-01T15:15:24.15Z</time></trkpt><trkpt lat="44.53278" lon="8.5333983"><ele>741.0</ele><time>2026-05-01T15:15:25.156Z</time></trkpt><trkpt lat="44.5329383" lon="8.5334517"><ele>741.0</ele><time>2026-05-01T15:15:26.152Z</time></trkpt><trkpt lat="44.53308" lon="8.5335"><ele>740.25</ele><time>2026-05-01T15:15:27.154Z</time></trkpt><trkpt lat="44.53322" lon="8.53355"><ele>739.5</ele><time>2026-05-01T15:15:28.153Z</time></trkpt><trkpt lat="44.53336" lon="8.5335967"><ele>738.75</ele><time>2026-05-01T15:15:29.158Z</time></trkpt><trkpt lat="44.5335017" lon="8.5336383"><ele>738.0</ele><time>2026-05-01T15:15:30.153Z</time></trkpt><trkpt lat="44.5336533" lon="8.5336733"><ele>737.0</ele><time>2026-05-01T15:15:31.154Z</time></trkpt><trkpt lat="44.5338033" lon="8.5336967"><ele>736.0</ele><time>2026-05-01T15:15:32.155Z</time></trkpt><trkpt lat="44.5339567" lon="8.5337067"><ele>735.0</ele><time>2026-05-01T15:15:33.155Z</time></trkpt><trkpt lat="44.5341133" lon="8.5337183"><ele>736.3333333333334</ele><time>2026-05-01T15:15:34.154Z</time></trkpt><trkpt lat="44.5342667" lon="8.5337317"><ele>737.6666666666667</ele><time>2026-05-01T15:15:35.151Z</time></trkpt><trkpt lat="44.5344233" lon="8.5337417"><ele>739.0</ele><time>2026-05-01T15:15:36.154Z</time></trkpt><trkpt lat="44.53458" lon="8.5337667"><ele>739.0</ele><time>2026-05-01T15:15:37.153Z</time></trkpt><trkpt lat="44.5347367" lon="8.5337883"><ele>739.0</ele><time>2026-05-01T15:15:38.149Z</time></trkpt><trkpt lat="44.5349" lon="8.533815"><ele>739.0</ele><time>2026-05-01T15:15:39.151Z</time></trkpt><trkpt lat="44.5350633" lon="8.5338417"><ele>739.0</ele><time>2026-05-01T15:15:40.155Z</time></trkpt><trkpt lat="44.5352233" lon="8.533885"><ele>739.0</ele><time>2026-05-01T15:15:41.153Z</time></trkpt><trkpt lat="44.5353817" lon="8.5339483"><ele>739.0</ele><time>2026-05-01T15:15:42.153Z</time></trkpt><trkpt lat="44.5355417" lon="8.5340267"><ele>739.3333333333334</ele><time>2026-05-01T15:15:43.161Z</time></trkpt><trkpt lat="44.535705" lon="8.5341167"><ele>739.6666666666666</ele><time>2026-05-01T15:15:44.152Z</time></trkpt><trkpt lat="44.5358583" lon="8.53422"><ele>740.0</ele><time>2026-05-01T15:15:45.154Z</time></trkpt><trkpt lat="44.5360117" lon="8.5343333"><ele>740.0</ele><time>2026-05-01T15:15:46.151Z</time></trkpt><trkpt lat="44.536155" lon="8.5344633"><ele>740.0</ele><time>2026-05-01T15:15:47.155Z</time></trkpt><trkpt lat="44.5362933" lon="8.5346067"><ele>740.0</ele><time>2026-05-01T15:15:48.152Z</time></trkpt><trkpt lat="44.536425" lon="8.534765"><ele>740.3333333333333</ele><time>2026-05-01T15:15:49.152Z</time></trkpt><trkpt lat="44.536545" lon="8.5349417"><ele>740.6666666666666</ele><time>2026-05-01T15:15:50.154Z</time></trkpt><trkpt lat="44.5366683" lon="8.5350867"><ele>741.0</ele><time>2026-05-01T15:15:51.153Z</time></trkpt><trkpt lat="44.5367933" lon="8.5352267"><ele>741.0</ele><time>2026-05-01T15:15:52.154Z</time></trkpt><trkpt lat="44.5369183" lon="8.53535"><ele>741.0</ele><time>2026-05-01T15:15:53.152Z</time></trkpt><trkpt lat="44.5370417" lon="8.53544"><ele>741.0</ele><time>2026-05-01T15:15:54.154Z</time></trkpt><trkpt lat="44.5371717" lon="8.5355"><ele>741.0</ele><time>2026-05-01T15:15:55.152Z</time></trkpt><trkpt lat="44.5373" lon="8.5355433"><ele>739.5</ele><time>2026-05-01T15:15:56.151Z</time></trkpt><trkpt lat="44.53742" lon="8.53559"><ele>738.0</ele><time>2026-05-01T15:15:57.153Z</time></trkpt><trkpt lat="44.5375367" lon="8.5356567"><ele>736.5</ele><time>2026-05-01T15:15:58.153Z</time></trkpt><trkpt lat="44.537645" lon="8.53575"><ele>735.0</ele><time>2026-05-01T15:15:59.153Z</time></trkpt><trkpt lat="44.53775" lon="8.53588"><ele>735.0</ele><time>2026-05-01T15:16:00.156Z</time></trkpt><trkpt lat="44.5378567" lon="8.5360283"><ele>735.0</ele><time>2026-05-01T15:16:01.151Z</time></trkpt><trkpt lat="44.5379633" lon="8.53618"><ele>735.0</ele><time>2026-05-01T15:16:02.149Z</time></trkpt><trkpt lat="44.5380633" lon="8.5363283"><ele>735.0</ele><time>2026-05-01T15:16:03.152Z</time></trkpt><trkpt lat="44.53816" lon="8.5364517"><ele>733.6</ele><time>2026-05-01T15:16:04.153Z</time></trkpt><trkpt lat="44.5382517" lon="8.53654"><ele>732.2</ele><time>2026-05-01T15:16:05.154Z</time></trkpt><trkpt lat="44.538345" lon="8.5365717"><ele>730.8</ele><time>2026-05-01T15:16:06.151Z</time></trkpt><trkpt lat="44.5384517" lon="8.53655"><ele>729.4</ele><time>2026-05-01T15:16:07.156Z</time></trkpt><trkpt lat="44.5385667" lon="8.536505"><ele>728.0</ele><time>2026-05-01T15:16:08.153Z</time></trkpt><trkpt lat="44.53869" lon="8.5364383"><ele>728.75</ele><time>2026-05-01T15:16:09.151Z</time></trkpt><trkpt lat="44.53882" lon="8.5363617"><ele>729.5</ele><time>2026-05-01T15:16:10.15Z</time></trkpt><trkpt lat="44.538945" lon="8.5362833"><ele>730.25</ele><time>2026-05-01T15:16:11.154Z</time></trkpt><trkpt lat="44.5390617" lon="8.53621"><ele>731.0</ele><time>2026-05-01T15:16:12.151Z</time></trkpt><trkpt lat="44.5391633" lon="8.536175"><ele>731.0</ele><time>2026-05-01T15:16:13.15Z</time></trkpt><trkpt lat="44.5392483" lon="8.5361683"><ele>731.0</ele><time>2026-05-01T15:16:14.153Z</time></trkpt><trkpt lat="44.5393217" lon="8.5361733"><ele>731.0</ele><time>2026-05-01T15:16:15.152Z</time></trkpt><trkpt lat="44.5393867" lon="8.5362267"><ele>731.0</ele><time>2026-05-01T15:16:16.154Z</time></trkpt><trkpt lat="44.5394517" lon="8.536305"><ele>731.0</ele><time>2026-05-01T15:16:17.154Z</time></trkpt><trkpt lat="44.5395233" lon="8.5364017"><ele>731.0</ele><time>2026-05-01T15:16:18.15Z</time></trkpt><trkpt lat="44.5396233" lon="8.5365317"><ele>729.5</ele><time>2026-05-01T15:16:19.153Z</time></trkpt><trkpt lat="44.5397233" lon="8.5366383"><ele>728.0</ele><time>2026-05-01T15:16:20.152Z</time></trkpt><trkpt lat="44.5398383" lon="8.5367117"><ele>726.5</ele><time>2026-05-01T15:16:21.16Z</time></trkpt><trkpt lat="44.5399817" lon="8.53676"><ele>725.0</ele><time>2026-05-01T15:16:22.153Z</time></trkpt><trkpt lat="44.54014" lon="8.5367917"><ele>725.0</ele><time>2026-05-01T15:16:23.152Z</time></trkpt><trkpt lat="44.5403067" lon="8.5368267"><ele>725.0</ele><time>2026-05-01T15:16:24.153Z</time></trkpt><trkpt lat="44.540475" lon="8.536865"><ele>725.0</ele><time>2026-05-01T15:16:25.151Z</time></trkpt><trkpt lat="44.5406283" lon="8.5369"><ele>724.25</ele><time>2026-05-01T15:16:26.15Z</time></trkpt><trkpt lat="44.5407633" lon="8.5369167"><ele>723.5</ele><time>2026-05-01T15:16:27.152Z</time></trkpt><trkpt lat="44.54088" lon="8.536905"><ele>722.75</ele><time>2026-05-01T15:16:28.15Z</time></trkpt><trkpt lat="44.54098" lon="8.5368617"><ele>722.0</ele><time>2026-05-01T15:16:29.152Z</time></trkpt><trkpt lat="44.5410483" lon="8.5367667"><ele>722.0</ele><time>2026-05-01T15:16:30.154Z</time></trkpt><trkpt lat="44.5411133" lon="8.536645"><ele>722.0</ele><time>2026-05-01T15:16:31.155Z</time></trkpt><trkpt lat="44.5411733" lon="8.5365"><ele>722.0</ele><time>2026-05-01T15:16:32.155Z</time></trkpt><trkpt lat="44.5412333" lon="8.5363417"><ele>722.0</ele><time>2026-05-01T15:16:33.151Z</time></trkpt><trkpt lat="44.54129" lon="8.5361683"><ele>723.5</ele><time>2026-05-01T15:16:34.154Z</time></trkpt><trkpt lat="44.541355" lon="8.5360083"><ele>725.0</ele><time>2026-05-01T15:16:35.151Z</time></trkpt><trkpt lat="44.5414267" lon="8.53585"><ele>726.5</ele><time>2026-05-01T15:16:36.152Z</time></trkpt><trkpt lat="44.5415183" lon="8.5357117"><ele>728.0</ele><time>2026-05-01T15:16:37.153Z</time></trkpt><trkpt lat="44.5416217" lon="8.53557"><ele>728.0</ele><time>2026-05-01T15:16:38.152Z</time></trkpt><trkpt lat="44.5417267" lon="8.5354167"><ele>728.0</ele><time>2026-05-01T15:16:39.154Z</time></trkpt><trkpt lat="44.5418433" lon="8.535265"><ele>728.0</ele><time>2026-05-01T15:16:40.151Z</time></trkpt><trkpt lat="44.5419617" lon="8.5351167"><ele>727.75</ele><time>2026-05-01T15:16:41.153Z</time></trkpt><trkpt lat="44.5420767" lon="8.5349667"><ele>727.5</ele><time>2026-05-01T15:16:42.155Z</time></trkpt><trkpt lat="44.5421917" lon="8.5348383"><ele>727.25</ele><time>2026-05-01T15:16:43.154Z</time></trkpt><trkpt lat="44.5423017" lon="8.534725"><ele>727.0</ele><time>2026-05-01T15:16:44.153Z</time></trkpt><trkpt lat="44.542405" lon="8.5346317"><ele>727.0</ele><time>2026-05-01T15:16:45.155Z</time></trkpt><trkpt lat="44.5425117" lon="8.53456"><ele>727.0</ele><time>2026-05-01T15:16:46.156Z</time></trkpt><trkpt lat="44.5426017" lon="8.5344717"><ele>727.0</ele><time>2026-05-01T15:16:47.156Z</time></trkpt><trkpt lat="44.542675" lon="8.5343667"><ele>727.0</ele><time>2026-05-01T15:16:48.155Z</time></trkpt><trkpt lat="44.5427517" lon="8.534235"><ele>727.5</ele><time>2026-05-01T15:16:49.155Z</time></trkpt><trkpt lat="44.5428417" lon="8.534095"><ele>728.0</ele><time>2026-05-01T15:16:50.151Z</time></trkpt><trkpt lat="44.5429333" lon="8.533955"><ele>728.5</ele><time>2026-05-01T15:16:51.155Z</time></trkpt><trkpt lat="44.5430267" lon="8.5338417"><ele>729.0</ele><time>2026-05-01T15:16:52.151Z</time></trkpt><trkpt lat="44.5431" lon="8.53371"><ele>723.5</ele><time>2026-05-01T15:16:53.152Z</time></trkpt><trkpt lat="44.5431583" lon="8.5335583"><ele>718.0</ele><time>2026-05-01T15:16:54.154Z</time></trkpt><trkpt lat="44.5432017" lon="8.53339"><ele>712.5</ele><time>2026-05-01T15:16:55.151Z</time></trkpt><trkpt lat="44.543245" lon="8.53321"><ele>707.0</ele><time>2026-05-01T15:16:56.152Z</time></trkpt><trkpt lat="44.5432967" lon="8.5330383"><ele>702.25</ele><time>2026-05-01T15:16:57.153Z</time></trkpt><trkpt lat="44.5433617" lon="8.5328767"><ele>697.5</ele><time>2026-05-01T15:16:58.157Z</time></trkpt><trkpt lat="44.5434383" lon="8.53273"><ele>692.75</ele><time>2026-05-01T15:16:59.153Z</time></trkpt><trkpt lat="44.5435117" lon="8.5325817"><ele>688.0</ele><time>2026-05-01T15:17:00.149Z</time></trkpt><trkpt lat="44.54357" lon="8.5324367"><ele>688.0</ele><time>2026-05-01T15:17:01.15Z</time></trkpt><trkpt lat="44.5436117" lon="8.532285"><ele>688.0</ele><time>2026-05-01T15:17:02.152Z</time></trkpt><trkpt lat="44.5436567" lon="8.5321533"><ele>688.0</ele><time>2026-05-01T15:17:03.153Z</time></trkpt><trkpt lat="44.5437183" lon="8.5320567"><ele>688.0</ele><time>2026-05-01T15:17:04.158Z</time></trkpt><trkpt lat="44.54379" lon="8.53199"><ele>688.0</ele><time>2026-05-01T15:17:05.153Z</time></trkpt><trkpt lat="44.5438783" lon="8.5319517"><ele>690.8</ele><time>2026-05-01T15:17:06.158Z</time></trkpt><trkpt lat="44.5439767" lon="8.5319117"><ele>693.5999999999999</ele><time>2026-05-01T15:17:07.152Z</time></trkpt><trkpt lat="44.5440617" lon="8.5318367"><ele>696.4000000000001</ele><time>2026-05-01T15:17:08.154Z</time></trkpt><trkpt lat="44.5441283" lon="8.5317383"><ele>699.2</ele><time>2026-05-01T15:17:09.149Z</time></trkpt><trkpt lat="44.5441767" lon="8.5316117"><ele>702.0</ele><time>2026-05-01T15:17:10.152Z</time></trkpt><trkpt lat="44.544215" lon="8.531455"><ele>702.0</ele><time>2026-05-01T15:17:11.152Z</time></trkpt><trkpt lat="44.5442317" lon="8.53128"><ele>702.0</ele><time>2026-05-01T15:17:12.155Z</time></trkpt><trkpt lat="44.5442417" lon="8.531115"><ele>702.0</ele><time>2026-05-01T15:17:13.155Z</time></trkpt><trkpt lat="44.5442633" lon="8.5309633"><ele>702.0</ele><time>2026-05-01T15:17:14.152Z</time></trkpt><trkpt lat="44.5443067" lon="8.5308367"><ele>703.2</ele><time>2026-05-01T15:17:15.151Z</time></trkpt><trkpt lat="44.544375" lon="8.5307483"><ele>704.4000000000001</ele><time>2026-05-01T15:17:16.155Z</time></trkpt><trkpt lat="44.54446" lon="8.5307083"><ele>705.5999999999999</ele><time>2026-05-01T15:17:17.154Z</time></trkpt><trkpt lat="44.544565" lon="8.5307317"><ele>706.8</ele><time>2026-05-01T15:17:18.154Z</time></trkpt><trkpt lat="44.544665" lon="8.530725"><ele>708.0</ele><time>2026-05-01T15:17:19.161Z</time></trkpt><trkpt lat="44.5447633" lon="8.5306833"><ele>708.0</ele><time>2026-05-01T15:17:20.157Z</time></trkpt><trkpt lat="44.544855" lon="8.53061"><ele>708.0</ele><time>2026-05-01T15:17:21.151Z</time></trkpt><trkpt lat="44.544935" lon="8.5305117"><ele>708.0</ele><time>2026-05-01T15:17:22.153Z</time></trkpt><trkpt lat="44.5450017" lon="8.5304117"><ele>708.0</ele><time>2026-05-01T15:17:23.152Z</time></trkpt><trkpt lat="44.5450783" lon="8.5303483"><ele>708.0</ele><time>2026-05-01T15:17:24.149Z</time></trkpt><trkpt lat="44.5451583" lon="8.5302933"><ele>704.75</ele><time>2026-05-01T15:17:25.15Z</time></trkpt><trkpt lat="44.5452433" lon="8.5302517"><ele>701.5</ele><time>2026-05-01T15:17:26.152Z</time></trkpt><trkpt lat="44.5453483" lon="8.530235"><ele>698.25</ele><time>2026-05-01T15:17:27.152Z</time></trkpt><trkpt lat="44.5454717" lon="8.53022"><ele>695.0</ele><time>2026-05-01T15:17:28.158Z</time></trkpt><trkpt lat="44.5456183" lon="8.5302233"><ele>695.0</ele><time>2026-05-01T15:17:29.153Z</time></trkpt><trkpt lat="44.5457667" lon="8.5302317"><ele>695.0</ele><time>2026-05-01T15:17:30.156Z</time></trkpt><trkpt lat="44.545915" lon="8.530245"><ele>695.0</ele><time>2026-05-01T15:17:31.156Z</time></trkpt><trkpt lat="44.54606" lon="8.5302683"><ele>695.0</ele><time>2026-05-01T15:17:32.153Z</time></trkpt><trkpt lat="44.546195" lon="8.5303017"><ele>697.75</ele><time>2026-05-01T15:17:33.156Z</time></trkpt><trkpt lat="44.5463317" lon="8.53032"><ele>700.5</ele><time>2026-05-01T15:17:34.156Z</time></trkpt><trkpt lat="44.54645" lon="8.53028"><ele>703.25</ele><time>2026-05-01T15:17:35.154Z</time></trkpt><trkpt lat="44.5465533" lon="8.5302"><ele>706.0</ele><time>2026-05-01T15:17:36.15Z</time></trkpt><trkpt lat="44.5466667" lon="8.5301183"><ele>706.0</ele><time>2026-05-01T15:17:37.154Z</time></trkpt><trkpt lat="44.54672" lon="8.52997"><ele>706.0</ele><time>2026-05-01T15:17:38.151Z</time></trkpt><trkpt lat="44.5467583" lon="8.5298117"><ele>706.0</ele><time>2026-05-01T15:17:39.152Z</time></trkpt><trkpt lat="44.5467533" lon="8.5296267"><ele>706.0</ele><time>2026-05-01T15:17:40.155Z</time></trkpt><trkpt lat="44.5467817" lon="8.5294617"><ele>704.0</ele><time>2026-05-01T15:17:41.151Z</time></trkpt><trkpt lat="44.546815" lon="8.529275"><ele>702.0</ele><time>2026-05-01T15:17:42.153Z</time></trkpt><trkpt lat="44.546855" lon="8.5291067"><ele>700.0</ele><time>2026-05-01T15:17:43.152Z</time></trkpt><trkpt lat="44.546895" lon="8.5289367"><ele>698.0</ele><time>2026-05-01T15:17:44.154Z</time></trkpt><trkpt lat="44.5469083" lon="8.52875"><ele>696.6666666666666</ele><time>2026-05-01T15:17:45.15Z</time></trkpt><trkpt lat="44.5469017" lon="8.52855"><ele>695.3333333333334</ele><time>2026-05-01T15:17:46.15Z</time></trkpt><trkpt lat="44.5468833" lon="8.5283317"><ele>694.0</ele><time>2026-05-01T15:17:47.151Z</time></trkpt><trkpt lat="44.5468567" lon="8.5280983"><ele>693.6666666666667</ele><time>2026-05-01T15:17:48.151Z</time></trkpt><trkpt lat="44.546835" lon="8.5278667"><ele>693.3333333333334</ele><time>2026-05-01T15:17:49.157Z</time></trkpt><trkpt lat="44.5468167" lon="8.527655"><ele>693.0</ele><time>2026-05-01T15:17:50.153Z</time></trkpt><trkpt lat="44.5468083" lon="8.52745"><ele>693.0</ele><time>2026-05-01T15:17:51.156Z</time></trkpt><trkpt lat="44.54682" lon="8.5272617"><ele>693.0</ele><time>2026-05-01T15:17:52.155Z</time></trkpt><trkpt lat="44.546845" lon="8.52706"><ele>693.0</ele><time>2026-05-01T15:17:53.156Z</time></trkpt><trkpt lat="44.5468583" lon="8.5268483"><ele>693.0</ele><time>2026-05-01T15:17:54.159Z</time></trkpt><trkpt lat="44.5468517" lon="8.5266233"><ele>693.3333333333334</ele><time>2026-05-01T15:17:55.153Z</time></trkpt><trkpt lat="44.546835" lon="8.5263983"><ele>693.6666666666667</ele><time>2026-05-01T15:17:56.152Z</time></trkpt><trkpt lat="44.5468233" lon="8.5261717"><ele>694.0</ele><time>2026-05-01T15:17:57.152Z</time></trkpt><trkpt lat="44.5468217" lon="8.5259417"><ele>694.0</ele><time>2026-05-01T15:17:58.153Z</time></trkpt><trkpt lat="44.5468317" lon="8.525725"><ele>694.0</ele><time>2026-05-01T15:17:59.156Z</time></trkpt><trkpt lat="44.54685" lon="8.5255267"><ele>694.0</ele><time>2026-05-01T15:18:00.153Z</time></trkpt><trkpt lat="44.5468883" lon="8.5253433"><ele>694.0</ele><time>2026-05-01T15:18:01.153Z</time></trkpt><trkpt lat="44.546935" lon="8.525175"><ele>693.5</ele><time>2026-05-01T15:18:02.156Z</time></trkpt><trkpt lat="44.5469883" lon="8.5250167"><ele>693.0</ele><time>2026-05-01T15:18:03.151Z</time></trkpt><trkpt lat="44.5470517" lon="8.5248817"><ele>692.5</ele><time>2026-05-01T15:18:04.153Z</time></trkpt><trkpt lat="44.5471217" lon="8.5247617"><ele>692.0</ele><time>2026-05-01T15:18:05.152Z</time></trkpt><trkpt lat="44.5471967" lon="8.5246617"><ele>694.25</ele><time>2026-05-01T15:18:06.149Z</time></trkpt><trkpt lat="44.5472883" lon="8.5245633"><ele>696.5</ele><time>2026-05-01T15:18:07.15Z</time></trkpt><trkpt lat="44.5473933" lon="8.5244633"><ele>698.75</ele><time>2026-05-01T15:18:08.154Z</time></trkpt><trkpt lat="44.5475" lon="8.5243533"><ele>701.0</ele><time>2026-05-01T15:18:09.156Z</time></trkpt><trkpt lat="44.54761" lon="8.5242567"><ele>701.0</ele><time>2026-05-01T15:18:10.15Z</time></trkpt><trkpt lat="44.54771" lon="8.524145"><ele>701.0</ele><time>2026-05-01T15:18:11.154Z</time></trkpt><trkpt lat="44.5478017" lon="8.524015"><ele>701.0</ele><time>2026-05-01T15:18:12.151Z</time></trkpt><trkpt lat="44.5478917" lon="8.5238717"><ele>701.0</ele><time>2026-05-01T15:18:13.151Z</time></trkpt><trkpt lat="44.5479833" lon="8.5237267"><ele>702.75</ele><time>2026-05-01T15:18:14.151Z</time></trkpt><trkpt lat="44.5480767" lon="8.523595"><ele>704.5</ele><time>2026-05-01T15:18:15.154Z</time></trkpt><trkpt lat="44.5481833" lon="8.5234783"><ele>706.25</ele><time>2026-05-01T15:18:16.152Z</time></trkpt><trkpt lat="44.5483067" lon="8.523375"><ele>708.0</ele><time>2026-05-01T15:18:17.152Z</time></trkpt><trkpt lat="44.5484283" lon="8.5232517"><ele>708.0</ele><time>2026-05-01T15:18:18.155Z</time></trkpt><trkpt lat="44.5485417" lon="8.523115"><ele>708.0</ele><time>2026-05-01T15:18:19.152Z</time></trkpt><trkpt lat="44.5486383" lon="8.5229767"><ele>708.0</ele><time>2026-05-01T15:18:20.153Z</time></trkpt><trkpt lat="44.5487167" lon="8.5228317"><ele>708.0</ele><time>2026-05-01T15:18:21.154Z</time></trkpt><trkpt lat="44.5487617" lon="8.52267"><ele>713.5</ele><time>2026-05-01T15:18:22.153Z</time></trkpt><trkpt lat="44.54878" lon="8.5224983"><ele>719.0</ele><time>2026-05-01T15:18:23.152Z</time></trkpt><trkpt lat="44.5487833" lon="8.5223083"><ele>724.5</ele><time>2026-05-01T15:18:24.151Z</time></trkpt><trkpt lat="44.5487917" lon="8.5220933"><ele>730.0</ele><time>2026-05-01T15:18:25.152Z</time></trkpt><trkpt lat="44.5487917" lon="8.5218617"><ele>730.0</ele><time>2026-05-01T15:18:26.151Z</time></trkpt><trkpt lat="44.5487983" lon="8.5216233"><ele>730.0</ele><time>2026-05-01T15:18:27.156Z</time></trkpt><trkpt lat="44.5488117" lon="8.5213817"><ele>730.0</ele><time>2026-05-01T15:18:28.155Z</time></trkpt><trkpt lat="44.5488233" lon="8.521145"><ele>729.75</ele><time>2026-05-01T15:18:29.154Z</time></trkpt><trkpt lat="44.5488283" lon="8.5209283"><ele>729.5</ele><time>2026-05-01T15:18:30.152Z</time></trkpt><trkpt lat="44.5488417" lon="8.5207467"><ele>729.25</ele><time>2026-05-01T15:18:31.153Z</time></trkpt><trkpt lat="44.548875" lon="8.5205933"><ele>729.0</ele><time>2026-05-01T15:18:32.15Z</time></trkpt><trkpt lat="44.548925" lon="8.5204717"><ele>728.2</ele><time>2026-05-01T15:18:33.15Z</time></trkpt><trkpt lat="44.548995" lon="8.5203717"><ele>727.4000000000001</ele><time>2026-05-01T15:18:34.158Z</time></trkpt><trkpt lat="44.5490783" lon="8.5202817"><ele>726.6</ele><time>2026-05-01T15:18:35.155Z</time></trkpt><trkpt lat="44.5491517" lon="8.52017"><ele>725.8</ele><time>2026-05-01T15:18:36.154Z</time></trkpt><trkpt lat="44.5492117" lon="8.5200383"><ele>725.0</ele><time>2026-05-01T15:18:37.155Z</time></trkpt><trkpt lat="44.54926" lon="8.519875"><ele>725.0</ele><time>2026-05-01T15:18:38.152Z</time></trkpt><trkpt lat="44.5492933" lon="8.5196783"><ele>725.0</ele><time>2026-05-01T15:18:39.155Z</time></trkpt><trkpt lat="44.5493133" lon="8.5194433"><ele>725.0</ele><time>2026-05-01T15:18:40.155Z</time></trkpt><trkpt lat="44.5493267" lon="8.519185"><ele>726.3333333333333</ele><time>2026-05-01T15:18:41.157Z</time></trkpt><trkpt lat="44.549335" lon="8.5189217"><ele>727.6666666666666</ele><time>2026-05-01T15:18:42.152Z</time></trkpt><trkpt lat="44.5493433" lon="8.51866"><ele>729.0</ele><time>2026-05-01T15:18:43.154Z</time></trkpt><trkpt lat="44.5493567" lon="8.5184167"><ele>729.75</ele><time>2026-05-01T15:18:44.154Z</time></trkpt><trkpt lat="44.5493767" lon="8.5182017"><ele>730.5</ele><time>2026-05-01T15:18:45.151Z</time></trkpt><trkpt lat="44.5494067" lon="8.5180067"><ele>731.25</ele><time>2026-05-01T15:18:46.156Z</time></trkpt><trkpt lat="44.54945" lon="8.5178117"><ele>732.0</ele><time>2026-05-01T15:18:47.153Z</time></trkpt><trkpt lat="44.549505" lon="8.5176133"><ele>730.3333333333334</ele><time>2026-05-01T15:18:48.154Z</time></trkpt><trkpt lat="44.5495683" lon="8.51741"><ele>728.6666666666667</ele><time>2026-05-01T15:18:49.153Z</time></trkpt><trkpt lat="44.549625" lon="8.5171983"><ele>727.0</ele><time>2026-05-01T15:18:50.151Z</time></trkpt><trkpt lat="44.54969" lon="8.5169883"><ele>727.0</ele><time>2026-05-01T15:18:51.153Z</time></trkpt><trkpt lat="44.54977" lon="8.5167867"><ele>727.0</ele><time>2026-05-01T15:18:52.154Z</time></trkpt><trkpt lat="44.5498567" lon="8.516595"><ele>727.0</ele><time>2026-05-01T15:18:53.161Z</time></trkpt><trkpt lat="44.5499517" lon="8.5164133"><ele>732.6666666666667</ele><time>2026-05-01T15:18:54.151Z</time></trkpt><trkpt lat="44.5500517" lon="8.5162333"><ele>738.3333333333334</ele><time>2026-05-01T15:18:55.154Z</time></trkpt><trkpt lat="44.5501517" lon="8.5160433"><ele>744.0</ele><time>2026-05-01T15:18:56.152Z</time></trkpt><trkpt lat="44.5502617" lon="8.5158617"><ele>740.0</ele><time>2026-05-01T15:18:57.152Z</time></trkpt><trkpt lat="44.5503767" lon="8.5156867"><ele>736.0</ele><time>2026-05-01T15:18:58.154Z</time></trkpt><trkpt lat="44.550495" lon="8.5155083"><ele>732.0</ele><time>2026-05-01T15:18:59.153Z</time></trkpt><trkpt lat="44.5506033" lon="8.5153283"><ele>732.0</ele><time>2026-05-01T15:19:00.155Z</time></trkpt><trkpt lat="44.5507067" lon="8.51513"><ele>732.0</ele><time>2026-05-01T15:19:01.152Z</time></trkpt><trkpt lat="44.55081" lon="8.5149367"><ele>732.0</ele><time>2026-05-01T15:19:02.156Z</time></trkpt><trkpt lat="44.550895" lon="8.5147367"><ele>732.0</ele><time>2026-05-01T15:19:03.151Z</time></trkpt><trkpt lat="44.550965" lon="8.5145517"><ele>732.0</ele><time>2026-05-01T15:19:04.154Z</time></trkpt><trkpt lat="44.5510217" lon="8.5143983"><ele>732.0</ele><time>2026-05-01T15:19:05.155Z</time></trkpt><trkpt lat="44.5510283" lon="8.5142317"><ele>732.0</ele><time>2026-05-01T15:19:06.149Z</time></trkpt><trkpt lat="44.551015" lon="8.5140867"><ele>732.0</ele><time>2026-05-01T15:19:07.151Z</time></trkpt><trkpt lat="44.55096" lon="8.5139267"><ele>732.0</ele><time>2026-05-01T15:19:08.151Z</time></trkpt><trkpt lat="44.5509" lon="8.5137767"><ele>732.0</ele><time>2026-05-01T15:19:09.154Z</time></trkpt><trkpt lat="44.5508567" lon="8.5136367"><ele>732.0</ele><time>2026-05-01T15:19:10.155Z</time></trkpt><trkpt lat="44.5508367" lon="8.513495"><ele>731.5</ele><time>2026-05-01T15:19:11.15Z</time></trkpt><trkpt lat="44.5508483" lon="8.5133617"><ele>731.0</ele><time>2026-05-01T15:19:12.15Z</time></trkpt><trkpt lat="44.55088" lon="8.51322"><ele>730.5</ele><time>2026-05-01T15:19:13.153Z</time></trkpt><trkpt lat="44.55094" lon="8.5130683"><ele>730.0</ele><time>2026-05-01T15:19:14.153Z</time></trkpt><trkpt lat="44.5510433" lon="8.5128833"><ele>730.0</ele><time>2026-05-01T15:19:15.156Z</time></trkpt><trkpt lat="44.55112" lon="8.512715"><ele>730.0</ele><time>2026-05-01T15:19:16.152Z</time></trkpt><trkpt lat="44.5511933" lon="8.51253"><ele>730.0</ele><time>2026-05-01T15:19:17.153Z</time></trkpt><trkpt lat="44.5512583" lon="8.51235"><ele>730.0</ele><time>2026-05-01T15:19:18.153Z</time></trkpt><trkpt lat="44.5513333" lon="8.5121767"><ele>726.3333333333334</ele><time>2026-05-01T15:19:19.16Z</time></trkpt><trkpt lat="44.5514333" lon="8.51201"><ele>722.6666666666666</ele><time>2026-05-01T15:19:20.157Z</time></trkpt><trkpt lat="44.5515433" lon="8.5118433"><ele>719.0</ele><time>2026-05-01T15:19:21.157Z</time></trkpt><trkpt lat="44.55167" lon="8.511685"><ele>719.0</ele><time>2026-05-01T15:19:22.153Z</time></trkpt><trkpt lat="44.5518" lon="8.5115167"><ele>719.0</ele><time>2026-05-01T15:19:23.154Z</time></trkpt><trkpt lat="44.5519317" lon="8.5113567"><ele>719.0</ele><time>2026-05-01T15:19:24.152Z</time></trkpt><trkpt lat="44.552065" lon="8.5112067"><ele>716.0</ele><time>2026-05-01T15:19:25.155Z</time></trkpt><trkpt lat="44.5521967" lon="8.5110717"><ele>713.0</ele><time>2026-05-01T15:19:26.155Z</time></trkpt><trkpt lat="44.5523367" lon="8.5109783"><ele>710.0</ele><time>2026-05-01T15:19:27.151Z</time></trkpt><trkpt lat="44.552485" lon="8.5109317"><ele>710.0</ele><time>2026-05-01T15:19:28.157Z</time></trkpt><trkpt lat="44.5526183" lon="8.510905"><ele>710.0</ele><time>2026-05-01T15:19:29.154Z</time></trkpt><trkpt lat="44.552735" lon="8.510865"><ele>710.0</ele><time>2026-05-01T15:19:30.153Z</time></trkpt><trkpt lat="44.5528433" lon="8.5107983"><ele>710.0</ele><time>2026-05-01T15:19:31.15Z</time></trkpt><trkpt lat="44.552935" lon="8.5106883"><ele>710.5</ele><time>2026-05-01T15:19:32.157Z</time></trkpt><trkpt lat="44.553025" lon="8.5105583"><ele>711.0</ele><time>2026-05-01T15:19:33.158Z</time></trkpt><trkpt lat="44.5531233" lon="8.51043"><ele>711.5</ele><time>2026-05-01T15:19:34.152Z</time></trkpt><trkpt lat="44.5532383" lon="8.5103233"><ele>712.0</ele><time>2026-05-01T15:19:35.153Z</time></trkpt><trkpt lat="44.5533583" lon="8.51022"><ele>712.0</ele><time>2026-05-01T15:19:36.155Z</time></trkpt><trkpt lat="44.5534683" lon="8.51011"><ele>712.0</ele><time>2026-05-01T15:19:37.154Z</time></trkpt><trkpt lat="44.55356" lon="8.5099783"><ele>712.0</ele><time>2026-05-01T15:19:38.153Z</time></trkpt><trkpt lat="44.553625" lon="8.50982"><ele>712.0</ele><time>2026-05-01T15:19:39.149Z</time></trkpt><trkpt lat="44.5536633" lon="8.509645"><ele>709.75</ele><time>2026-05-01T15:19:40.153Z</time></trkpt><trkpt lat="44.553675" lon="8.509455"><ele>707.5</ele><time>2026-05-01T15:19:41.153Z</time></trkpt><trkpt lat="44.5536683" lon="8.509255"><ele>705.25</ele><time>2026-05-01T15:19:42.15Z</time></trkpt><trkpt lat="44.55368" lon="8.50907"><ele>703.0</ele><time>2026-05-01T15:19:43.16Z</time></trkpt><trkpt lat="44.5536967" lon="8.5088817"><ele>707.25</ele><time>2026-05-01T15:19:44.153Z</time></trkpt><trkpt lat="44.5537483" lon="8.5087133"><ele>711.5</ele><time>2026-05-01T15:19:45.154Z</time></trkpt><trkpt lat="44.5538133" lon="8.5085533"><ele>715.75</ele><time>2026-05-01T15:19:46.151Z</time></trkpt><trkpt lat="44.55388" lon="8.5083917"><ele>720.0</ele><time>2026-05-01T15:19:47.155Z</time></trkpt><trkpt lat="44.5539217" lon="8.508215"><ele>720.0</ele><time>2026-05-01T15:19:48.159Z</time></trkpt><trkpt lat="44.5539283" lon="8.50802"><ele>720.0</ele><time>2026-05-01T15:19:49.152Z</time></trkpt><trkpt lat="44.5538983" lon="8.5078433"><ele>720.0</ele><time>2026-05-01T15:19:50.153Z</time></trkpt><trkpt lat="44.5538617" lon="8.5076917"><ele>720.0</ele><time>2026-05-01T15:19:51.152Z</time></trkpt><trkpt lat="44.553845" lon="8.5075683"><ele>717.6</ele><time>2026-05-01T15:19:52.152Z</time></trkpt><trkpt lat="44.553845" lon="8.5074467"><ele>715.2</ele><time>2026-05-01T15:19:53.151Z</time></trkpt><trkpt lat="44.5538917" lon="8.50737"><ele>712.8</ele><time>2026-05-01T15:19:54.151Z</time></trkpt><trkpt lat="44.5540083" lon="8.5073867"><ele>710.4</ele><time>2026-05-01T15:19:55.153Z</time></trkpt><trkpt lat="44.5541033" lon="8.5074"><ele>708.0</ele><time>2026-05-01T15:19:56.154Z</time></trkpt><trkpt lat="44.55421" lon="8.5074167"><ele>708.0</ele><time>2026-05-01T15:19:57.152Z</time></trkpt><trkpt lat="44.5543233" lon="8.507415"><ele>708.0</ele><time>2026-05-01T15:19:58.15Z</time></trkpt><trkpt lat="44.5544333" lon="8.5073617"><ele>708.0</ele><time>2026-05-01T15:19:59.15Z</time></trkpt><trkpt lat="44.5545417" lon="8.5072717"><ele>708.0</ele><time>2026-05-01T15:20:00.15Z</time></trkpt><trkpt lat="44.5546417" lon="8.5071417"><ele>705.5</ele><time>2026-05-01T15:20:01.153Z</time></trkpt><trkpt lat="44.5547283" lon="8.50698"><ele>703.0</ele><time>2026-05-01T15:20:02.153Z</time></trkpt><trkpt lat="44.5548117" lon="8.5067967"><ele>700.5</ele><time>2026-05-01T15:20:03.152Z</time></trkpt><trkpt lat="44.554895" lon="8.5066233"><ele>698.0</ele><time>2026-05-01T15:20:04.149Z</time></trkpt><trkpt lat="44.5549717" lon="8.5064483"><ele>698.0</ele><time>2026-05-01T15:20:05.154Z</time></trkpt><trkpt lat="44.5550333" lon="8.50628"><ele>698.0</ele><time>2026-05-01T15:20:06.154Z</time></trkpt><trkpt lat="44.555065" lon="8.506105"><ele>698.0</ele><time>2026-05-01T15:20:07.155Z</time></trkpt><trkpt lat="44.5550633" lon="8.5059333"><ele>698.0</ele><time>2026-05-01T15:20:08.153Z</time></trkpt><trkpt lat="44.5550417" lon="8.5057717"><ele>695.4</ele><time>2026-05-01T15:20:09.159Z</time></trkpt><trkpt lat="44.5550217" lon="8.505645"><ele>692.8</ele><time>2026-05-01T15:20:10.155Z</time></trkpt><trkpt lat="44.5550217" lon="8.5055217"><ele>690.2</ele><time>2026-05-01T15:20:11.153Z</time></trkpt><trkpt lat="44.55503" lon="8.5054017"><ele>687.6</ele><time>2026-05-01T15:20:12.158Z</time></trkpt><trkpt lat="44.555055" lon="8.50528"><ele>685.0</ele><time>2026-05-01T15:20:13.165Z</time></trkpt><trkpt lat="44.5551167" lon="8.5051783"><ele>683.2</ele><time>2026-05-01T15:20:14.156Z</time></trkpt><trkpt lat="44.555215" lon="8.505125"><ele>681.4</ele><time>2026-05-01T15:20:15.155Z</time></trkpt><trkpt lat="44.5553317" lon="8.5050867"><ele>679.5999999999999</ele><time>2026-05-01T15:20:16.151Z</time></trkpt><trkpt lat="44.5554317" lon="8.5050117"><ele>677.8</ele><time>2026-05-01T15:20:17.154Z</time></trkpt><trkpt lat="44.5555183" lon="8.5049183"><ele>676.0</ele><time>2026-05-01T15:20:18.152Z</time></trkpt><trkpt lat="44.555585" lon="8.5048083"><ele>675.3333333333334</ele><time>2026-05-01T15:20:19.156Z</time></trkpt><trkpt lat="44.5556283" lon="8.5047033"><ele>674.6666666666667</ele><time>2026-05-01T15:20:20.156Z</time></trkpt><trkpt lat="44.5556517" lon="8.5046033"><ele>674.0</ele><time>2026-05-01T15:20:21.153Z</time></trkpt><trkpt lat="44.5556683" lon="8.50451"><ele>673.3333333333334</ele><time>2026-05-01T15:20:22.152Z</time></trkpt><trkpt lat="44.5557133" lon="8.504415"><ele>672.6666666666666</ele><time>2026-05-01T15:20:24.163Z</time></trkpt><trkpt lat="44.5557733" lon="8.5044583"><ele>672.0</ele><time>2026-05-01T15:20:26.16Z</time></trkpt><trkpt lat="44.5558233" lon="8.504535"><ele>672.0</ele><time>2026-05-01T15:20:27.152Z</time></trkpt><trkpt lat="44.5558717" lon="8.5046133"><ele>672.0</ele><time>2026-05-01T15:20:28.155Z</time></trkpt><trkpt lat="44.55594" lon="8.5047383"><ele>672.0</ele><time>2026-05-01T15:20:30.158Z</time></trkpt><trkpt lat="44.5558317" lon="8.50495"><ele>672.0</ele><time>2026-05-01T15:20:32.156Z</time></trkpt><trkpt lat="44.555745" lon="8.5050467"><ele>672.0</ele><time>2026-05-01T15:20:33.152Z</time></trkpt><trkpt lat="44.5556517" lon="8.505115"><ele>672.0</ele><time>2026-05-01T15:20:34.15Z</time></trkpt><trkpt lat="44.5555817" lon="8.5052017"><ele>672.0</ele><time>2026-05-01T15:20:35.156Z</time></trkpt><trkpt lat="44.55552" lon="8.5052867"><ele>672.0</ele><time>2026-05-01T15:20:36.155Z</time></trkpt><trkpt lat="44.55549" lon="8.5053967"><ele>672.0</ele><time>2026-05-01T15:20:37.155Z</time></trkpt><trkpt lat="44.5555033" lon="8.5055017"><ele>672.0</ele><time>2026-05-01T15:20:38.154Z</time></trkpt><trkpt lat="44.55554" lon="8.5056067"><ele>672.75</ele><time>2026-05-01T15:20:39.154Z</time></trkpt><trkpt lat="44.5556217" lon="8.505705"><ele>673.5</ele><time>2026-05-01T15:20:40.153Z</time></trkpt><trkpt lat="44.5557117" lon="8.5058133"><ele>674.25</ele><time>2026-05-01T15:20:41.151Z</time></trkpt><trkpt lat="44.5558067" lon="8.5059167"><ele>675.0</ele><time>2026-05-01T15:20:42.151Z</time></trkpt><trkpt lat="44.5559033" lon="8.5060267"><ele>675.0</ele><time>2026-05-01T15:20:43.153Z</time></trkpt><trkpt lat="44.5559883" lon="8.5061433"><ele>675.0</ele><time>2026-05-01T15:20:44.148Z</time></trkpt><trkpt lat="44.556085" lon="8.5062583"><ele>675.0</ele><time>2026-05-01T15:20:45.153Z</time></trkpt><trkpt lat="44.5561717" lon="8.5063917"><ele>675.0</ele><time>2026-05-01T15:20:46.151Z</time></trkpt><trkpt lat="44.5562517" lon="8.5065367"><ele>670.0</ele><time>2026-05-01T15:20:47.15Z</time></trkpt><trkpt lat="44.556335" lon="8.50669"><ele>665.0</ele><time>2026-05-01T15:20:48.155Z</time></trkpt><trkpt lat="44.5564267" lon="8.5068533"><ele>660.0</ele><time>2026-05-01T15:20:49.156Z</time></trkpt><trkpt lat="44.5565067" lon="8.5070217"><ele>655.0</ele><time>2026-05-01T15:20:50.156Z</time></trkpt><trkpt lat="44.556575" lon="8.5071717"><ele>655.0</ele><time>2026-05-01T15:20:51.153Z</time></trkpt><trkpt lat="44.556635" lon="8.50732"><ele>655.0</ele><time>2026-05-01T15:20:52.153Z</time></trkpt><trkpt lat="44.5566717" lon="8.5074683"><ele>655.0</ele><time>2026-05-01T15:20:53.158Z</time></trkpt><trkpt lat="44.5566933" lon="8.5076083"><ele>655.0</ele><time>2026-05-01T15:20:54.154Z</time></trkpt><trkpt lat="44.5566883" lon="8.5077383"><ele>655.0</ele><time>2026-05-01T15:20:55.153Z</time></trkpt><trkpt lat="44.55666" lon="8.5078533"><ele>655.8333333333334</ele><time>2026-05-01T15:20:56.153Z</time></trkpt><trkpt lat="44.5566333" lon="8.5079667"><ele>656.6666666666667</ele><time>2026-05-01T15:20:57.154Z</time></trkpt><trkpt lat="44.5566233" lon="8.5080833"><ele>657.5</ele><time>2026-05-01T15:20:58.154Z</time></trkpt><trkpt lat="44.5566333" lon="8.5082017"><ele>658.3333333333334</ele><time>2026-05-01T15:20:59.152Z</time></trkpt><trkpt lat="44.556655" lon="8.508315"><ele>659.1666666666666</ele><time>2026-05-01T15:21:00.153Z</time></trkpt><trkpt lat="44.55669" lon="8.5084317"><ele>660.0</ele><time>2026-05-01T15:21:01.157Z</time></trkpt><trkpt lat="44.5567167" lon="8.5085567"><ele>660.0</ele><time>2026-05-01T15:21:02.151Z</time></trkpt><trkpt lat="44.5567517" lon="8.508685"><ele>660.0</ele><time>2026-05-01T15:21:03.151Z</time></trkpt><trkpt lat="44.5567983" lon="8.508805"><ele>660.0</ele><time>2026-05-01T15:21:04.152Z</time></trkpt><trkpt lat="44.556855" lon="8.508915"><ele>660.0</ele><time>2026-05-01T15:21:05.154Z</time></trkpt><trkpt lat="44.5569117" lon="8.5090233"><ele>660.0</ele><time>2026-05-01T15:21:06.152Z</time></trkpt><trkpt lat="44.5569633" lon="8.5091367"><ele>659.0</ele><time>2026-05-01T15:21:07.154Z</time></trkpt><trkpt lat="44.5569983" lon="8.5092667"><ele>658.0</ele><time>2026-05-01T15:21:08.154Z</time></trkpt><trkpt lat="44.5570367" lon="8.509405"><ele>657.0</ele><time>2026-05-01T15:21:09.152Z</time></trkpt><trkpt lat="44.5570867" lon="8.5095533"><ele>656.0</ele><time>2026-05-01T15:21:10.151Z</time></trkpt><trkpt lat="44.55714" lon="8.5096933"><ele>655.0</ele><time>2026-05-01T15:21:11.155Z</time></trkpt><trkpt lat="44.5571767" lon="8.509825"><ele>655.0</ele><time>2026-05-01T15:21:12.154Z</time></trkpt><trkpt lat="44.5571933" lon="8.509945"><ele>655.0</ele><time>2026-05-01T15:21:13.151Z</time></trkpt><trkpt lat="44.5571967" lon="8.5100733"><ele>655.0</ele><time>2026-05-01T15:21:14.155Z</time></trkpt><trkpt lat="44.5571833" lon="8.5101733"><ele>655.0</ele><time>2026-05-01T15:21:15.151Z</time></trkpt><trkpt lat="44.5571767" lon="8.51028"><ele>655.0</ele><time>2026-05-01T15:21:16.154Z</time></trkpt><trkpt lat="44.5571767" lon="8.5103767"><ele>655.0</ele><time>2026-05-01T15:21:17.152Z</time></trkpt><trkpt lat="44.557185" lon="8.51048"><ele>657.6</ele><time>2026-05-01T15:21:18.154Z</time></trkpt><trkpt lat="44.55724" lon="8.5105333"><ele>660.2</ele><time>2026-05-01T15:21:19.155Z</time></trkpt><trkpt lat="44.5573783" lon="8.5105817"><ele>662.8</ele><time>2026-05-01T15:21:21.152Z</time></trkpt><trkpt lat="44.5574667" lon="8.5106067"><ele>665.4</ele><time>2026-05-01T15:21:22.152Z</time></trkpt><trkpt lat="44.5575433" lon="8.5106633"><ele>668.0</ele><time>2026-05-01T15:21:23.15Z</time></trkpt><trkpt lat="44.5576233" lon="8.5107317"><ele>668.0</ele><time>2026-05-01T15:21:24.151Z</time></trkpt><trkpt lat="44.5576967" lon="8.5108017"><ele>668.0</ele><time>2026-05-01T15:21:25.155Z</time></trkpt><trkpt lat="44.5577483" lon="8.5109083"><ele>668.0</ele><time>2026-05-01T15:21:26.155Z</time></trkpt><trkpt lat="44.5577883" lon="8.51102"><ele>668.0</ele><time>2026-05-01T15:21:27.152Z</time></trkpt><trkpt lat="44.5578317" lon="8.5111367"><ele>668.0</ele><time>2026-05-01T15:21:28.152Z</time></trkpt><trkpt lat="44.5578733" lon="8.51128"><ele>665.25</ele><time>2026-05-01T15:21:29.155Z</time></trkpt><trkpt lat="44.5579333" lon="8.5114233"><ele>662.5</ele><time>2026-05-01T15:21:30.152Z</time></trkpt><trkpt lat="44.5579983" lon="8.511575"><ele>659.75</ele><time>2026-05-01T15:21:31.153Z</time></trkpt><trkpt lat="44.5580767" lon="8.51171"><ele>657.0</ele><time>2026-05-01T15:21:32.157Z</time></trkpt><trkpt lat="44.5581583" lon="8.51185"><ele>657.0</ele><time>2026-05-01T15:21:33.149Z</time></trkpt><trkpt lat="44.5582433" lon="8.5119933"><ele>657.0</ele><time>2026-05-01T15:21:34.152Z</time></trkpt><trkpt lat="44.5583217" lon="8.5121317"><ele>657.0</ele><time>2026-05-01T15:21:35.15Z</time></trkpt><trkpt lat="44.5583817" lon="8.5122783"><ele>657.0</ele><time>2026-05-01T15:21:36.154Z</time></trkpt><trkpt lat="44.5584267" lon="8.5124317"><ele>654.5</ele><time>2026-05-01T15:21:37.153Z</time></trkpt><trkpt lat="44.5584633" lon="8.5125867"><ele>652.0</ele><time>2026-05-01T15:21:38.155Z</time></trkpt><trkpt lat="44.558505" lon="8.512735"><ele>649.5</ele><time>2026-05-01T15:21:39.158Z</time></trkpt><trkpt lat="44.5585617" lon="8.5128867"><ele>647.0</ele><time>2026-05-01T15:21:40.151Z</time></trkpt><trkpt lat="44.55863" lon="8.5130317"><ele>645.5</ele><time>2026-05-01T15:21:41.155Z</time></trkpt><trkpt lat="44.5587033" lon="8.51318"><ele>644.0</ele><time>2026-05-01T15:21:42.157Z</time></trkpt><trkpt lat="44.558775" lon="8.513335"><ele>642.5</ele><time>2026-05-01T15:21:43.156Z</time></trkpt><trkpt lat="44.558855" lon="8.5134833"><ele>641.0</ele><time>2026-05-01T15:21:44.153Z</time></trkpt><trkpt lat="44.5589533" lon="8.5136167"><ele>641.0</ele><time>2026-05-01T15:21:45.155Z</time></trkpt><trkpt lat="44.5590667" lon="8.5137183"><ele>641.0</ele><time>2026-05-01T15:21:46.154Z</time></trkpt><trkpt lat="44.5591883" lon="8.5137967"><ele>641.0</ele><time>2026-05-01T15:21:47.155Z</time></trkpt><trkpt lat="44.559315" lon="8.513855"><ele>641.0</ele><time>2026-05-01T15:21:48.154Z</time></trkpt><trkpt lat="44.559445" lon="8.51389"><ele>642.5</ele><time>2026-05-01T15:21:49.155Z</time></trkpt><trkpt lat="44.5595733" lon="8.5139217"><ele>644.0</ele><time>2026-05-01T15:21:50.156Z</time></trkpt><trkpt lat="44.5597017" lon="8.513945"><ele>645.5</ele><time>2026-05-01T15:21:51.157Z</time></trkpt><trkpt lat="44.559825" lon="8.51398"><ele>647.0</ele><time>2026-05-01T15:21:52.156Z</time></trkpt><trkpt lat="44.559945" lon="8.5140467"><ele>647.0</ele><time>2026-05-01T15:21:53.155Z</time></trkpt><trkpt lat="44.5600517" lon="8.514135"><ele>647.0</ele><time>2026-05-01T15:21:54.152Z</time></trkpt><trkpt lat="44.560155" lon="8.5142233"><ele>647.0</ele><time>2026-05-01T15:21:55.157Z</time></trkpt><trkpt lat="44.56026" lon="8.514295"><ele>647.0</ele><time>2026-05-01T15:21:56.151Z</time></trkpt><trkpt lat="44.5603667" lon="8.5143483"><ele>647.2</ele><time>2026-05-01T15:21:57.156Z</time></trkpt><trkpt lat="44.5604733" lon="8.514395"><ele>647.4000000000001</ele><time>2026-05-01T15:21:58.153Z</time></trkpt><trkpt lat="44.560575" lon="8.5144233"><ele>647.5999999999999</ele><time>2026-05-01T15:21:59.155Z</time></trkpt><trkpt lat="44.5606633" lon="8.5144667"><ele>647.8</ele><time>2026-05-01T15:22:00.156Z</time></trkpt><trkpt lat="44.5607333" lon="8.5145133"><ele>648.0</ele><time>2026-05-01T15:22:01.151Z</time></trkpt><trkpt lat="44.5607917" lon="8.5145717"><ele>648.0</ele><time>2026-05-01T15:22:02.153Z</time></trkpt><trkpt lat="44.560825" lon="8.5146667"><ele>648.0</ele><time>2026-05-01T15:22:03.155Z</time></trkpt><trkpt lat="44.5608283" lon="8.5148367"><ele>648.0</ele><time>2026-05-01T15:22:04.153Z</time></trkpt><trkpt lat="44.5608533" lon="8.515005"><ele>648.0</ele><time>2026-05-01T15:22:05.152Z</time></trkpt><trkpt lat="44.5609" lon="8.5151667"><ele>648.0</ele><time>2026-05-01T15:22:06.155Z</time></trkpt><trkpt lat="44.5609517" lon="8.5153283"><ele>649.2</ele><time>2026-05-01T15:22:07.153Z</time></trkpt><trkpt lat="44.5610083" lon="8.51548"><ele>650.4</ele><time>2026-05-01T15:22:08.152Z</time></trkpt><trkpt lat="44.561065" lon="8.5156317"><ele>651.6</ele><time>2026-05-01T15:22:09.159Z</time></trkpt><trkpt lat="44.561105" lon="8.51577"><ele>652.8000000000001</ele><time>2026-05-01T15:22:10.155Z</time></trkpt><trkpt lat="44.561145" lon="8.5158917"><ele>654.0</ele><time>2026-05-01T15:22:11.155Z</time></trkpt><trkpt lat="44.5611817" lon="8.51599"><ele>651.6</ele><time>2026-05-01T15:22:12.153Z</time></trkpt><trkpt lat="44.561255" lon="8.5161033"><ele>649.2</ele><time>2026-05-01T15:22:14.155Z</time></trkpt><trkpt lat="44.56132" lon="8.5160767"><ele>646.8000000000001</ele><time>2026-05-01T15:22:15.154Z</time></trkpt><trkpt lat="44.56145" lon="8.516045"><ele>644.4000000000001</ele><time>2026-05-01T15:22:17.15Z</time></trkpt><trkpt lat="44.56152" lon="8.5160467"><ele>642.0</ele><time>2026-05-01T15:22:18.155Z</time></trkpt><trkpt lat="44.5615967" lon="8.5160883"><ele>642.0</ele><time>2026-05-01T15:22:19.157Z</time></trkpt><trkpt lat="44.56167" lon="8.5161383"><ele>642.0</ele><time>2026-05-01T15:22:20.15Z</time></trkpt><trkpt lat="44.5617433" lon="8.51621"><ele>642.0</ele><time>2026-05-01T15:22:21.157Z</time></trkpt><trkpt lat="44.5618067" lon="8.5162817"><ele>642.0</ele><time>2026-05-01T15:22:22.155Z</time></trkpt><trkpt lat="44.5618633" lon="8.51635"><ele>642.0</ele><time>2026-05-01T15:22:23.156Z</time></trkpt><trkpt lat="44.5619133" lon="8.51642"><ele>642.0</ele><time>2026-05-01T15:22:24.155Z</time></trkpt><trkpt lat="44.5619517" lon="8.5165017"><ele>641.4</ele><time>2026-05-01T15:22:25.16Z</time></trkpt><trkpt lat="44.5619817" lon="8.51661"><ele>640.8000000000001</ele><time>2026-05-01T15:22:26.152Z</time></trkpt><trkpt lat="44.5619817" lon="8.5167583"><ele>640.2</ele><time>2026-05-01T15:22:27.153Z</time></trkpt><trkpt lat="44.561985" lon="8.51691"><ele>639.6</ele><time>2026-05-01T15:22:28.154Z</time></trkpt><trkpt lat="44.562005" lon="8.517045"><ele>639.0</ele><time>2026-05-01T15:22:29.154Z</time></trkpt><trkpt lat="44.5620367" lon="8.51717"><ele>639.0</ele><time>2026-05-01T15:22:30.156Z</time></trkpt><trkpt lat="44.56208" lon="8.5172917"><ele>639.0</ele><time>2026-05-01T15:22:31.154Z</time></trkpt><trkpt lat="44.5621167" lon="8.5174383"><ele>639.0</ele><time>2026-05-01T15:22:32.154Z</time></trkpt><trkpt lat="44.5621517" lon="8.5175783"><ele>639.0</ele><time>2026-05-01T15:22:33.156Z</time></trkpt><trkpt lat="44.56218" lon="8.5177183"><ele>639.0</ele><time>2026-05-01T15:22:34.154Z</time></trkpt><trkpt lat="44.562215" lon="8.5178383"><ele>641.0</ele><time>2026-05-01T15:22:35.158Z</time></trkpt><trkpt lat="44.562255" lon="8.5179383"><ele>643.0</ele><time>2026-05-01T15:22:36.157Z</time></trkpt><trkpt lat="44.5622983" lon="8.5180217"><ele>645.0</ele><time>2026-05-01T15:22:37.156Z</time></trkpt><trkpt lat="44.5623967" lon="8.5181133"><ele>647.0</ele><time>2026-05-01T15:22:39.155Z</time></trkpt><trkpt lat="44.5624733" lon="8.5180717"><ele>649.0</ele><time>2026-05-01T15:22:40.151Z</time></trkpt><trkpt lat="44.5625517" lon="8.5180283"><ele>651.0</ele><time>2026-05-01T15:22:41.16Z</time></trkpt><trkpt lat="44.5626583" lon="8.5180017"><ele>651.0</ele><time>2026-05-01T15:22:42.152Z</time></trkpt><trkpt lat="44.5627517" lon="8.5179883"><ele>651.0</ele><time>2026-05-01T15:22:43.155Z</time></trkpt><trkpt lat="44.562855" lon="8.5179833"><ele>651.0</ele><time>2026-05-01T15:22:44.154Z</time></trkpt><trkpt lat="44.5629617" lon="8.5179817"><ele>651.0</ele><time>2026-05-01T15:22:45.153Z</time></trkpt><trkpt lat="44.5630567" lon="8.5179433"><ele>651.0</ele><time>2026-05-01T15:22:46.154Z</time></trkpt><trkpt lat="44.563165" lon="8.5179317"><ele>651.1999999999999</ele><time>2026-05-01T15:22:47.157Z</time></trkpt><trkpt lat="44.56326" lon="8.517905"><ele>651.4</ele><time>2026-05-01T15:22:48.15Z</time></trkpt><trkpt lat="44.563375" lon="8.5178883"><ele>651.6</ele><time>2026-05-01T15:22:49.157Z</time></trkpt><trkpt lat="44.563475" lon="8.5178833"><ele>651.8</ele><time>2026-05-01T15:22:50.154Z</time></trkpt><trkpt lat="44.5635767" lon="8.5178917"><ele>652.0</ele><time>2026-05-01T15:22:51.153Z</time></trkpt><trkpt lat="44.5636783" lon="8.5179017"><ele>651.0</ele><time>2026-05-01T15:22:52.151Z</time></trkpt><trkpt lat="44.5637817" lon="8.517925"><ele>650.0</ele><time>2026-05-01T15:22:53.153Z</time></trkpt><trkpt lat="44.5638867" lon="8.5179517"><ele>649.0</ele><time>2026-05-01T15:22:54.153Z</time></trkpt><trkpt lat="44.5639917" lon="8.5179867"><ele>648.0</ele><time>2026-05-01T15:22:55.155Z</time></trkpt><trkpt lat="44.564085" lon="8.518015"><ele>647.0</ele><time>2026-05-01T15:22:56.152Z</time></trkpt><trkpt lat="44.564185" lon="8.5180367"><ele>647.0</ele><time>2026-05-01T15:22:57.158Z</time></trkpt><trkpt lat="44.56429" lon="8.51805"><ele>647.0</ele><time>2026-05-01T15:22:58.153Z</time></trkpt><trkpt lat="44.5644033" lon="8.5180417"><ele>647.0</ele><time>2026-05-01T15:22:59.154Z</time></trkpt><trkpt lat="44.5645083" lon="8.5180183"><ele>647.0</ele><time>2026-05-01T15:23:00.158Z</time></trkpt><trkpt lat="44.564615" lon="8.5179767"><ele>647.0</ele><time>2026-05-01T15:23:01.154Z</time></trkpt><trkpt lat="44.5647183" lon="8.5179633"><ele>645.4</ele><time>2026-05-01T15:23:02.156Z</time></trkpt><trkpt lat="44.5648133" lon="8.517965"><ele>643.8000000000001</ele><time>2026-05-01T15:23:03.155Z</time></trkpt><trkpt lat="44.5649133" lon="8.5179783"><ele>642.2</ele><time>2026-05-01T15:23:04.156Z</time></trkpt><trkpt lat="44.5650167" lon="8.5179833"><ele>640.6</ele><time>2026-05-01T15:23:05.151Z</time></trkpt><trkpt lat="44.5651183" lon="8.5179817"><ele>639.0</ele><time>2026-05-01T15:23:06.159Z</time></trkpt><trkpt lat="44.565215" lon="8.5179733"><ele>639.0</ele><time>2026-05-01T15:23:07.16Z</time></trkpt><trkpt lat="44.5653017" lon="8.5179683"><ele>639.0</ele><time>2026-05-01T15:23:08.157Z</time></trkpt><trkpt lat="44.56538" lon="8.5179533"><ele>639.0</ele><time>2026-05-01T15:23:09.154Z</time></trkpt><trkpt lat="44.565455" lon="8.517945"><ele>639.0</ele><time>2026-05-01T15:23:10.157Z</time></trkpt><trkpt lat="44.5655783" lon="8.5179083"><ele>639.0</ele><time>2026-05-01T15:23:12.154Z</time></trkpt><trkpt lat="44.565705" lon="8.517905"><ele>638.1666666666666</ele><time>2026-05-01T15:23:14.152Z</time></trkpt><trkpt lat="44.565775" lon="8.5179267"><ele>637.3333333333334</ele><time>2026-05-01T15:23:15.154Z</time></trkpt><trkpt lat="44.5658517" lon="8.5179633"><ele>636.5</ele><time>2026-05-01T15:23:16.151Z</time></trkpt><trkpt lat="44.5659267" lon="8.518005"><ele>635.6666666666667</ele><time>2026-05-01T15:23:17.161Z</time></trkpt><trkpt lat="44.5660083" lon="8.5180533"><ele>634.8333333333334</ele><time>2026-05-01T15:23:18.152Z</time></trkpt><trkpt lat="44.5660933" lon="8.5181183"><ele>634.0</ele><time>2026-05-01T15:23:19.156Z</time></trkpt><trkpt lat="44.566175" lon="8.518185"><ele>634.3333333333334</ele><time>2026-05-01T15:23:20.155Z</time></trkpt><trkpt lat="44.5662517" lon="8.5182467"><ele>634.6666666666667</ele><time>2026-05-01T15:23:21.153Z</time></trkpt><trkpt lat="44.56633" lon="8.5182967"><ele>635.0</ele><time>2026-05-01T15:23:22.152Z</time></trkpt><trkpt lat="44.5664067" lon="8.5183333"><ele>635.3333333333334</ele><time>2026-05-01T15:23:23.151Z</time></trkpt><trkpt lat="44.56649" lon="8.5183383"><ele>635.6666666666666</ele><time>2026-05-01T15:23:24.154Z</time></trkpt><trkpt lat="44.5665817" lon="8.5183267"><ele>636.0</ele><time>2026-05-01T15:23:25.152Z</time></trkpt><trkpt lat="44.5666783" lon="8.5183117"><ele>636.0</ele><time>2026-05-01T15:23:26.157Z</time></trkpt><trkpt lat="44.5667783" lon="8.5183067"><ele>636.0</ele><time>2026-05-01T15:23:27.151Z</time></trkpt><trkpt lat="44.5668783" lon="8.5183067"><ele>636.0</ele><time>2026-05-01T15:23:28.156Z</time></trkpt><trkpt lat="44.566985" lon="8.5183"><ele>636.0</ele><time>2026-05-01T15:23:29.158Z</time></trkpt><trkpt lat="44.5670983" lon="8.518275"><ele>636.0</ele><time>2026-05-01T15:23:30.153Z</time></trkpt><trkpt lat="44.56721" lon="8.5182483"><ele>635.8</ele><time>2026-05-01T15:23:31.154Z</time></trkpt><trkpt lat="44.5673267" lon="8.5182267"><ele>635.6</ele><time>2026-05-01T15:23:32.152Z</time></trkpt><trkpt lat="44.56744" lon="8.5182117"><ele>635.4</ele><time>2026-05-01T15:23:33.149Z</time></trkpt><trkpt lat="44.5675483" lon="8.518205"><ele>635.2</ele><time>2026-05-01T15:23:34.157Z</time></trkpt><trkpt lat="44.5676533" lon="8.518205"><ele>635.0</ele><time>2026-05-01T15:23:35.155Z</time></trkpt><trkpt lat="44.5677533" lon="8.5182183"><ele>635.0</ele><time>2026-05-01T15:23:36.152Z</time></trkpt><trkpt lat="44.5678467" lon="8.51824"><ele>635.0</ele><time>2026-05-01T15:23:37.154Z</time></trkpt><trkpt lat="44.5679317" lon="8.51826"><ele>635.0</ele><time>2026-05-01T15:23:38.155Z</time></trkpt><trkpt lat="44.56801" lon="8.5182683"><ele>635.0</ele><time>2026-05-01T15:23:39.152Z</time></trkpt><trkpt lat="44.5680883" lon="8.5182717"><ele>635.0</ele><time>2026-05-01T15:23:40.155Z</time></trkpt><trkpt lat="44.5681667" lon="8.518255"><ele>635.0</ele><time>2026-05-01T15:23:41.153Z</time></trkpt><trkpt lat="44.5682533" lon="8.5182317"><ele>633.6</ele><time>2026-05-01T15:23:42.152Z</time></trkpt><trkpt lat="44.56834" lon="8.5181983"><ele>632.2</ele><time>2026-05-01T15:23:43.155Z</time></trkpt><trkpt lat="44.5684267" lon="8.5181583"><ele>630.8</ele><time>2026-05-01T15:23:44.156Z</time></trkpt><trkpt lat="44.5685167" lon="8.51812"><ele>629.4</ele><time>2026-05-01T15:23:45.155Z</time></trkpt><trkpt lat="44.568615" lon="8.5181083"><ele>628.0</ele><time>2026-05-01T15:23:46.153Z</time></trkpt><trkpt lat="44.5687067" lon="8.5181"><ele>627.0</ele><time>2026-05-01T15:23:47.158Z</time></trkpt><trkpt lat="44.5687983" lon="8.5180967"><ele>626.0</ele><time>2026-05-01T15:23:48.154Z</time></trkpt><trkpt lat="44.568885" lon="8.518095"><ele>625.0</ele><time>2026-05-01T15:23:49.156Z</time></trkpt><trkpt lat="44.56897" lon="8.51805"><ele>624.0</ele><time>2026-05-01T15:23:50.158Z</time></trkpt><trkpt lat="44.56905" lon="8.5180183"><ele>623.0</ele><time>2026-05-01T15:23:51.151Z</time></trkpt><trkpt lat="44.5691283" lon="8.5180067"><ele>622.0</ele><time>2026-05-01T15:23:52.153Z</time></trkpt><trkpt lat="44.5691967" lon="8.5180067"><ele>622.0</ele><time>2026-05-01T15:23:53.15Z</time></trkpt><trkpt lat="44.569275" lon="8.5180267"><ele>622.0</ele><time>2026-05-01T15:23:54.152Z</time></trkpt><trkpt lat="44.5693567" lon="8.5180517"><ele>622.0</ele><time>2026-05-01T15:23:55.156Z</time></trkpt><trkpt lat="44.5694617" lon="8.51807"><ele>622.0</ele><time>2026-05-01T15:23:56.153Z</time></trkpt><trkpt lat="44.56956" lon="8.51808"><ele>622.0</ele><time>2026-05-01T15:23:57.156Z</time></trkpt><trkpt lat="44.5696567" lon="8.5180917"><ele>621.6</ele><time>2026-05-01T15:23:58.152Z</time></trkpt><trkpt lat="44.5697567" lon="8.5181117"><ele>621.2</ele><time>2026-05-01T15:23:59.157Z</time></trkpt><trkpt lat="44.569855" lon="8.5181517"><ele>620.8</ele><time>2026-05-01T15:24:00.151Z</time></trkpt><trkpt lat="44.56997" lon="8.51821"><ele>620.4</ele><time>2026-05-01T15:24:01.152Z</time></trkpt><trkpt lat="44.570075" lon="8.5182683"><ele>620.0</ele><time>2026-05-01T15:24:02.152Z</time></trkpt><trkpt lat="44.570185" lon="8.5183367"><ele>620.0</ele><time>2026-05-01T15:24:03.155Z</time></trkpt><trkpt lat="44.5702967" lon="8.5184"><ele>620.0</ele><time>2026-05-01T15:24:04.157Z</time></trkpt><trkpt lat="44.570405" lon="8.5184467"><ele>620.0</ele><time>2026-05-01T15:24:05.154Z</time></trkpt><trkpt lat="44.5705283" lon="8.5184817"><ele>620.0</ele><time>2026-05-01T15:24:06.158Z</time></trkpt><trkpt lat="44.5706483" lon="8.5185117"><ele>619.4</ele><time>2026-05-01T15:24:07.155Z</time></trkpt><trkpt lat="44.57076" lon="8.5185467"><ele>618.8</ele><time>2026-05-01T15:24:08.152Z</time></trkpt><trkpt lat="44.5708667" lon="8.5185817"><ele>618.2</ele><time>2026-05-01T15:24:09.15Z</time></trkpt><trkpt lat="44.5709717" lon="8.5186317"><ele>617.6</ele><time>2026-05-01T15:24:10.154Z</time></trkpt><trkpt lat="44.5710733" lon="8.5186933"><ele>617.0</ele><time>2026-05-01T15:24:11.152Z</time></trkpt><trkpt lat="44.57118" lon="8.5187567"><ele>617.5</ele><time>2026-05-01T15:24:12.153Z</time></trkpt><trkpt lat="44.5712967" lon="8.51882"><ele>618.0</ele><time>2026-05-01T15:24:13.152Z</time></trkpt><trkpt lat="44.5714083" lon="8.5188917"><ele>618.5</ele><time>2026-05-01T15:24:14.154Z</time></trkpt><trkpt lat="44.571525" lon="8.5189517"><ele>619.0</ele><time>2026-05-01T15:24:15.155Z</time></trkpt><trkpt lat="44.5716367" lon="8.5190167"><ele>619.0</ele><time>2026-05-01T15:24:16.153Z</time></trkpt><trkpt lat="44.5717433" lon="8.5190783"><ele>619.0</ele><time>2026-05-01T15:24:17.158Z</time></trkpt><trkpt lat="44.5718483" lon="8.5191467"><ele>619.0</ele><time>2026-05-01T15:24:18.154Z</time></trkpt><trkpt lat="44.571955" lon="8.519215"><ele>619.0</ele><time>2026-05-01T15:24:19.16Z</time></trkpt><trkpt lat="44.57206" lon="8.5192883"><ele>619.4</ele><time>2026-05-01T15:24:20.157Z</time></trkpt><trkpt lat="44.57216" lon="8.5193617"><ele>619.8</ele><time>2026-05-01T15:24:21.154Z</time></trkpt><trkpt lat="44.5722583" lon="8.5194317"><ele>620.2</ele><time>2026-05-01T15:24:22.149Z</time></trkpt><trkpt lat="44.5723567" lon="8.5195033"><ele>620.6</ele><time>2026-05-01T15:24:23.156Z</time></trkpt><trkpt lat="44.572455" lon="8.5195717"><ele>621.0</ele><time>2026-05-01T15:24:24.151Z</time></trkpt><trkpt lat="44.57255" lon="8.5196383"><ele>621.6</ele><time>2026-05-01T15:24:25.151Z</time></trkpt><trkpt lat="44.572645" lon="8.5197133"><ele>622.2</ele><time>2026-05-01T15:24:26.157Z</time></trkpt><trkpt lat="44.5727383" lon="8.5197867"><ele>622.8</ele><time>2026-05-01T15:24:27.153Z</time></trkpt><trkpt lat="44.5728283" lon="8.5198567"><ele>623.4</ele><time>2026-05-01T15:24:28.155Z</time></trkpt><trkpt lat="44.5729167" lon="8.519925"><ele>624.0</ele><time>2026-05-01T15:24:29.153Z</time></trkpt><trkpt lat="44.5730017" lon="8.5199917"><ele>624.3333333333334</ele><time>2026-05-01T15:24:30.157Z</time></trkpt><trkpt lat="44.5730767" lon="8.5200583"><ele>624.6666666666666</ele><time>2026-05-01T15:24:31.16Z</time></trkpt><trkpt lat="44.57314" lon="8.52014"><ele>625.0</ele><time>2026-05-01T15:24:32.156Z</time></trkpt><trkpt lat="44.5731917" lon="8.520235"><ele>625.3333333333333</ele><time>2026-05-01T15:24:33.155Z</time></trkpt><trkpt lat="44.5732317" lon="8.5203433"><ele>625.6666666666666</ele><time>2026-05-01T15:24:34.155Z</time></trkpt><trkpt lat="44.5732533" lon="8.5204683"><ele>626.0</ele><time>2026-05-01T15:24:35.151Z</time></trkpt><trkpt lat="44.57325" lon="8.5206217"><ele>626.0</ele><time>2026-05-01T15:24:36.155Z</time></trkpt><trkpt lat="44.5732467" lon="8.5207683"><ele>626.0</ele><time>2026-05-01T15:24:37.158Z</time></trkpt><trkpt lat="44.5732583" lon="8.5209017"><ele>626.0</ele><time>2026-05-01T15:24:38.153Z</time></trkpt><trkpt lat="44.573285" lon="8.5210483"><ele>626.0</ele><time>2026-05-01T15:24:39.153Z</time></trkpt><trkpt lat="44.5733267" lon="8.5211717"><ele>626.0</ele><time>2026-05-01T15:24:40.154Z</time></trkpt><trkpt lat="44.5733817" lon="8.521275"><ele>627.0</ele><time>2026-05-01T15:24:41.156Z</time></trkpt><trkpt lat="44.57344" lon="8.5213733"><ele>628.0</ele><time>2026-05-01T15:24:42.158Z</time></trkpt><trkpt lat="44.57349" lon="8.52148"><ele>629.0</ele><time>2026-05-01T15:24:43.153Z</time></trkpt><trkpt lat="44.5735517" lon="8.5215767"><ele>630.0</ele><time>2026-05-01T15:24:44.152Z</time></trkpt><trkpt lat="44.5735917" lon="8.5216817"><ele>631.0</ele><time>2026-05-01T15:24:45.152Z</time></trkpt><trkpt lat="44.57365" lon="8.5217783"><ele>631.2</ele><time>2026-05-01T15:24:46.151Z</time></trkpt><trkpt lat="44.5737183" lon="8.5218517"><ele>631.4000000000001</ele><time>2026-05-01T15:24:47.159Z</time></trkpt><trkpt lat="44.5737983" lon="8.5219167"><ele>631.6</ele><time>2026-05-01T15:24:48.154Z</time></trkpt><trkpt lat="44.5738767" lon="8.52199"><ele>631.8000000000001</ele><time>2026-05-01T15:24:49.162Z</time></trkpt><trkpt lat="44.573955" lon="8.522075"><ele>632.0</ele><time>2026-05-01T15:24:50.154Z</time></trkpt><trkpt lat="44.574035" lon="8.5221667"><ele>632.2</ele><time>2026-05-01T15:24:51.152Z</time></trkpt><trkpt lat="44.5741167" lon="8.52226"><ele>632.4000000000001</ele><time>2026-05-01T15:24:52.156Z</time></trkpt><trkpt lat="44.5742" lon="8.52235"><ele>632.5999999999999</ele><time>2026-05-01T15:24:53.158Z</time></trkpt><trkpt lat="44.5742833" lon="8.5224417"><ele>632.8</ele><time>2026-05-01T15:24:54.151Z</time></trkpt><trkpt lat="44.5743633" lon="8.5225367"><ele>633.0</ele><time>2026-05-01T15:24:55.157Z</time></trkpt><trkpt lat="44.5744333" lon="8.5226417"><ele>633.0</ele><time>2026-05-01T15:24:56.149Z</time></trkpt><trkpt lat="44.5744833" lon="8.5227717"><ele>633.0</ele><time>2026-05-01T15:24:57.155Z</time></trkpt><trkpt lat="44.5745117" lon="8.5229083"><ele>633.0</ele><time>2026-05-01T15:24:58.15Z</time></trkpt><trkpt lat="44.574525" lon="8.5230517"><ele>633.0</ele><time>2026-05-01T15:24:59.156Z</time></trkpt><trkpt lat="44.574515" lon="8.5232"><ele>633.0</ele><time>2026-05-01T15:25:00.153Z</time></trkpt><trkpt lat="44.5744833" lon="8.5233567"><ele>633.25</ele><time>2026-05-01T15:25:01.157Z</time></trkpt><trkpt lat="44.574435" lon="8.523515"><ele>633.5</ele><time>2026-05-01T15:25:02.151Z</time></trkpt><trkpt lat="44.5743767" lon="8.52367"><ele>633.75</ele><time>2026-05-01T15:25:03.151Z</time></trkpt><trkpt lat="44.574315" lon="8.5238183"><ele>634.0</ele><time>2026-05-01T15:25:04.156Z</time></trkpt><trkpt lat="44.57425" lon="8.5239633"><ele>634.0</ele><time>2026-05-01T15:25:05.152Z</time></trkpt><trkpt lat="44.5741933" lon="8.524095"><ele>634.0</ele><time>2026-05-01T15:25:06.159Z</time></trkpt><trkpt lat="44.5741467" lon="8.5242167"><ele>634.0</ele><time>2026-05-01T15:25:07.157Z</time></trkpt><trkpt lat="44.5741083" lon="8.5243367"><ele>634.0</ele><time>2026-05-01T15:25:08.154Z</time></trkpt><trkpt lat="44.5740817" lon="8.5244583"><ele>634.0</ele><time>2026-05-01T15:25:09.156Z</time></trkpt><trkpt lat="44.5740617" lon="8.5245833"><ele>634.0</ele><time>2026-05-01T15:25:10.156Z</time></trkpt><trkpt lat="44.57405" lon="8.524715"><ele>634.0</ele><time>2026-05-01T15:25:11.153Z</time></trkpt><trkpt lat="44.57404" lon="8.5248483"><ele>634.0</ele><time>2026-05-01T15:25:12.153Z</time></trkpt><trkpt lat="44.5740383" lon="8.524985"><ele>634.0</ele><time>2026-05-01T15:25:13.157Z</time></trkpt><trkpt lat="44.5740433" lon="8.52512"><ele>634.0</ele><time>2026-05-01T15:25:14.154Z</time></trkpt><trkpt lat="44.5740583" lon="8.5252533"><ele>634.0</ele><time>2026-05-01T15:25:15.156Z</time></trkpt><trkpt lat="44.57408" lon="8.525375"><ele>634.0</ele><time>2026-05-01T15:25:16.153Z</time></trkpt><trkpt lat="44.5741" lon="8.5254983"><ele>634.0</ele><time>2026-05-01T15:25:17.156Z</time></trkpt><trkpt lat="44.5741067" lon="8.52562"><ele>634.0</ele><time>2026-05-01T15:25:18.155Z</time></trkpt><trkpt lat="44.5741183" lon="8.52574"><ele>634.0</ele><time>2026-05-01T15:25:19.157Z</time></trkpt><trkpt lat="44.5741217" lon="8.5258583"><ele>634.0</ele><time>2026-05-01T15:25:20.156Z</time></trkpt><trkpt lat="44.5741317" lon="8.525975"><ele>634.6</ele><time>2026-05-01T15:25:21.16Z</time></trkpt><trkpt lat="44.5741483" lon="8.526085"><ele>635.2</ele><time>2026-05-01T15:25:22.152Z</time></trkpt><trkpt lat="44.5741833" lon="8.52619"><ele>635.8000000000001</ele><time>2026-05-01T15:25:23.159Z</time></trkpt><trkpt lat="44.5742267" lon="8.526295"><ele>636.4</ele><time>2026-05-01T15:25:24.156Z</time></trkpt><trkpt lat="44.5742933" lon="8.5264033"><ele>637.0</ele><time>2026-05-01T15:25:25.153Z</time></trkpt><trkpt lat="44.5743617" lon="8.52653"><ele>637.6</ele><time>2026-05-01T15:25:26.156Z</time></trkpt><trkpt lat="44.5744333" lon="8.5266683"><ele>638.2</ele><time>2026-05-01T15:25:27.154Z</time></trkpt><trkpt lat="44.5745083" lon="8.5267867"><ele>638.8</ele><time>2026-05-01T15:25:28.152Z</time></trkpt><trkpt lat="44.574585" lon="8.52689"><ele>639.4</ele><time>2026-05-01T15:25:29.153Z</time></trkpt><trkpt lat="44.574655" lon="8.5269983"><ele>640.0</ele><time>2026-05-01T15:25:30.154Z</time></trkpt><trkpt lat="44.5747133" lon="8.5271133"><ele>640.0</ele><time>2026-05-01T15:25:31.155Z</time></trkpt><trkpt lat="44.5747783" lon="8.527225"><ele>640.0</ele><time>2026-05-01T15:25:32.153Z</time></trkpt><trkpt lat="44.5748467" lon="8.5273333"><ele>640.0</ele><time>2026-05-01T15:25:33.154Z</time></trkpt><trkpt lat="44.574925" lon="8.5274367"><ele>640.0</ele><time>2026-05-01T15:25:34.157Z</time></trkpt><trkpt lat="44.5750067" lon="8.5275417"><ele>640.0</ele><time>2026-05-01T15:25:35.152Z</time></trkpt><trkpt lat="44.5750883" lon="8.5276417"><ele>640.0</ele><time>2026-05-01T15:25:36.153Z</time></trkpt><trkpt lat="44.57517" lon="8.527735"><ele>640.0</ele><time>2026-05-01T15:25:37.156Z</time></trkpt><trkpt lat="44.5752517" lon="8.52782"><ele>640.0</ele><time>2026-05-01T15:25:38.154Z</time></trkpt><trkpt lat="44.5753283" lon="8.5279017"><ele>640.0</ele><time>2026-05-01T15:25:39.162Z</time></trkpt><trkpt lat="44.5754033" lon="8.52798"><ele>640.0</ele><time>2026-05-01T15:25:40.151Z</time></trkpt><trkpt lat="44.5754583" lon="8.5280767"><ele>640.3333333333334</ele><time>2026-05-01T15:25:41.154Z</time></trkpt><trkpt lat="44.5755017" lon="8.5281767"><ele>640.6666666666667</ele><time>2026-05-01T15:25:42.156Z</time></trkpt><trkpt lat="44.5755367" lon="8.528265"><ele>641.0</ele><time>2026-05-01T15:25:43.156Z</time></trkpt><trkpt lat="44.575555" lon="8.528375"><ele>641.3333333333334</ele><time>2026-05-01T15:25:44.157Z</time></trkpt><trkpt lat="44.5755517" lon="8.5285"><ele>641.6666666666666</ele><time>2026-05-01T15:25:45.153Z</time></trkpt><trkpt lat="44.5755283" lon="8.528655"><ele>642.0</ele><time>2026-05-01T15:25:46.156Z</time></trkpt><trkpt lat="44.5755067" lon="8.52882"><ele>642.0</ele><time>2026-05-01T15:25:47.152Z</time></trkpt><trkpt lat="44.5754917" lon="8.52897"><ele>642.0</ele><time>2026-05-01T15:25:48.151Z</time></trkpt><trkpt lat="44.5754933" lon="8.5291117"><ele>642.0</ele><time>2026-05-01T15:25:49.155Z</time></trkpt><trkpt lat="44.5755033" lon="8.52925"><ele>642.0</ele><time>2026-05-01T15:25:50.155Z</time></trkpt><trkpt lat="44.5755183" lon="8.5293933"><ele>642.0</ele><time>2026-05-01T15:25:51.154Z</time></trkpt><trkpt lat="44.575555" lon="8.5295267"><ele>640.6666666666666</ele><time>2026-05-01T15:25:52.153Z</time></trkpt><trkpt lat="44.5756067" lon="8.5296383"><ele>639.3333333333334</ele><time>2026-05-01T15:25:53.155Z</time></trkpt><trkpt lat="44.57566" lon="8.5297417"><ele>638.0</ele><time>2026-05-01T15:25:54.158Z</time></trkpt><trkpt lat="44.575715" lon="8.5298383"><ele>636.6666666666667</ele><time>2026-05-01T15:25:55.156Z</time></trkpt><trkpt lat="44.575765" lon="8.5299367"><ele>635.3333333333334</ele><time>2026-05-01T15:25:56.154Z</time></trkpt><trkpt lat="44.5758083" lon="8.5300317"><ele>634.0</ele><time>2026-05-01T15:25:57.154Z</time></trkpt><trkpt lat="44.57584" lon="8.530135"><ele>634.0</ele><time>2026-05-01T15:25:58.155Z</time></trkpt><trkpt lat="44.5758433" lon="8.5302517"><ele>634.0</ele><time>2026-05-01T15:25:59.157Z</time></trkpt><trkpt lat="44.575805" lon="8.53039"><ele>634.0</ele><time>2026-05-01T15:26:00.15Z</time></trkpt><trkpt lat="44.5757217" lon="8.530525"><ele>634.0</ele><time>2026-05-01T15:26:01.162Z</time></trkpt><trkpt lat="44.5756017" lon="8.5306317"><ele>633.5</ele><time>2026-05-01T15:26:02.156Z</time></trkpt><trkpt lat="44.5754883" lon="8.5307233"><ele>633.0</ele><time>2026-05-01T15:26:03.151Z</time></trkpt><trkpt lat="44.5753833" lon="8.5308017"><ele>632.5</ele><time>2026-05-01T15:26:04.155Z</time></trkpt><trkpt lat="44.5752733" lon="8.5308667"><ele>632.0</ele><time>2026-05-01T15:26:05.151Z</time></trkpt><trkpt lat="44.5751767" lon="8.53092"><ele>628.8000000000001</ele><time>2026-05-01T15:26:06.153Z</time></trkpt><trkpt lat="44.575075" lon="8.5309683"><ele>625.6</ele><time>2026-05-01T15:26:07.155Z</time></trkpt><trkpt lat="44.5749833" lon="8.53102"><ele>622.4000000000001</ele><time>2026-05-01T15:26:08.154Z</time></trkpt><trkpt lat="44.5749017" lon="8.5310883"><ele>619.2</ele><time>2026-05-01T15:26:09.152Z</time></trkpt><trkpt lat="44.574845" lon="8.5311917"><ele>616.0</ele><time>2026-05-01T15:26:10.16Z</time></trkpt><trkpt lat="44.574805" lon="8.5312883"><ele>616.0</ele><time>2026-05-01T15:26:11.153Z</time></trkpt><trkpt lat="44.574825" lon="8.5314317"><ele>616.0</ele><time>2026-05-01T15:26:12.152Z</time></trkpt><trkpt lat="44.5748467" lon="8.53157"><ele>616.0</ele><time>2026-05-01T15:26:13.152Z</time></trkpt><trkpt lat="44.5749" lon="8.5317033"><ele>616.0</ele><time>2026-05-01T15:26:14.155Z</time></trkpt><trkpt lat="44.5749767" lon="8.5318133"><ele>616.0</ele><time>2026-05-01T15:26:15.151Z</time></trkpt><trkpt lat="44.57507" lon="8.53194"><ele>613.75</ele><time>2026-05-01T15:26:16.152Z</time></trkpt><trkpt lat="44.57517" lon="8.5320633"><ele>611.5</ele><time>2026-05-01T15:26:17.153Z</time></trkpt><trkpt lat="44.5752717" lon="8.53219"><ele>609.25</ele><time>2026-05-01T15:26:18.152Z</time></trkpt><trkpt lat="44.57538" lon="8.5323217"><ele>607.0</ele><time>2026-05-01T15:26:19.153Z</time></trkpt><trkpt lat="44.575475" lon="8.5324433"><ele>607.0</ele><time>2026-05-01T15:26:20.154Z</time></trkpt><trkpt lat="44.5755667" lon="8.5325567"><ele>607.0</ele><time>2026-05-01T15:26:21.15Z</time></trkpt><trkpt lat="44.57565" lon="8.5326567"><ele>607.0</ele><time>2026-05-01T15:26:22.155Z</time></trkpt><trkpt lat="44.575735" lon="8.5327333"><ele>607.0</ele><time>2026-05-01T15:26:23.154Z</time></trkpt><trkpt lat="44.5758317" lon="8.5327717"><ele>607.0</ele><time>2026-05-01T15:26:24.151Z</time></trkpt><trkpt lat="44.5759383" lon="8.53279"><ele>607.0</ele><time>2026-05-01T15:26:25.153Z</time></trkpt><trkpt lat="44.57605" lon="8.5327867"><ele>607.0</ele><time>2026-05-01T15:26:26.151Z</time></trkpt><trkpt lat="44.576165" lon="8.5327583"><ele>607.0</ele><time>2026-05-01T15:26:27.154Z</time></trkpt><trkpt lat="44.576285" lon="8.53272"><ele>607.0</ele><time>2026-05-01T15:26:28.154Z</time></trkpt><trkpt lat="44.5764067" lon="8.532675"><ele>603.5</ele><time>2026-05-01T15:26:29.157Z</time></trkpt><trkpt lat="44.57653" lon="8.5326267"><ele>600.0</ele><time>2026-05-01T15:26:30.153Z</time></trkpt><trkpt lat="44.5766583" lon="8.5325733"><ele>596.5</ele><time>2026-05-01T15:26:31.152Z</time></trkpt><trkpt lat="44.5767917" lon="8.5325167"><ele>593.0</ele><time>2026-05-01T15:26:32.153Z</time></trkpt><trkpt lat="44.5769233" lon="8.53246"><ele>589.6</ele><time>2026-05-01T15:26:33.151Z</time></trkpt><trkpt lat="44.5770433" lon="8.5324083"><ele>586.1999999999999</ele><time>2026-05-01T15:26:34.155Z</time></trkpt><trkpt lat="44.5771467" lon="8.5323633"><ele>582.8</ele><time>2026-05-01T15:26:35.152Z</time></trkpt><trkpt lat="44.577235" lon="8.53233"><ele>579.4</ele><time>2026-05-01T15:26:36.154Z</time></trkpt><trkpt lat="44.5773117" lon="8.5323083"><ele>576.0</ele><time>2026-05-01T15:26:37.157Z</time></trkpt><trkpt lat="44.5774267" lon="8.5322967"><ele>576.0</ele><time>2026-05-01T15:26:39.154Z</time></trkpt><trkpt lat="44.57751" lon="8.5323933"><ele>576.0</ele><time>2026-05-01T15:26:41.159Z</time></trkpt><trkpt lat="44.5775417" lon="8.5325383"><ele>576.0</ele><time>2026-05-01T15:26:43.157Z</time></trkpt><trkpt lat="44.5775233" lon="8.5326333"><ele>576.0</ele><time>2026-05-01T15:26:44.153Z</time></trkpt><trkpt lat="44.577465" lon="8.53273"><ele>576.0</ele><time>2026-05-01T15:26:45.154Z</time></trkpt><trkpt lat="44.5773817" lon="8.5328317"><ele>576.0</ele><time>2026-05-01T15:26:46.159Z</time></trkpt><trkpt lat="44.5773017" lon="8.5329183"><ele>576.0</ele><time>2026-05-01T15:26:47.152Z</time></trkpt><trkpt lat="44.5772067" lon="8.5329967"><ele>576.0</ele><time>2026-05-01T15:26:48.158Z</time></trkpt><trkpt lat="44.5771267" lon="8.533075"><ele>576.0</ele><time>2026-05-01T15:26:49.154Z</time></trkpt><trkpt lat="44.5770217" lon="8.533155"><ele>576.0</ele><time>2026-05-01T15:26:50.151Z</time></trkpt><trkpt lat="44.576925" lon="8.5332167"><ele>576.0</ele><time>2026-05-01T15:26:51.155Z</time></trkpt><trkpt lat="44.576825" lon="8.5332483"><ele>576.0</ele><time>2026-05-01T15:26:52.151Z</time></trkpt><trkpt lat="44.5767583" lon="8.5333"><ele>576.0</ele><time>2026-05-01T15:26:53.153Z</time></trkpt><trkpt lat="44.576705" lon="8.5333517"><ele>576.0</ele><time>2026-05-01T15:26:54.152Z</time></trkpt><trkpt lat="44.5767017" lon="8.533485"><ele>576.0</ele><time>2026-05-01T15:26:56.153Z</time></trkpt><trkpt lat="44.5767983" lon="8.5335367"><ele>576.0</ele><time>2026-05-01T15:26:59.153Z</time></trkpt><trkpt lat="44.576875" lon="8.5334933"><ele>576.0</ele><time>2026-05-01T15:27:00.153Z</time></trkpt><trkpt lat="44.5769633" lon="8.5334367"><ele>576.0</ele><time>2026-05-01T15:27:01.152Z</time></trkpt><trkpt lat="44.5770483" lon="8.5334017"><ele>576.0</ele><time>2026-05-01T15:27:02.155Z</time></trkpt><trkpt lat="44.577145" lon="8.533375"><ele>576.0</ele><time>2026-05-01T15:27:03.154Z</time></trkpt><trkpt lat="44.5772333" lon="8.533345"><ele>576.0</ele><time>2026-05-01T15:27:04.154Z</time></trkpt><trkpt lat="44.5773217" lon="8.5333017"><ele>573.0</ele><time>2026-05-01T15:27:05.158Z</time></trkpt><trkpt lat="44.5774167" lon="8.533235"><ele>570.0</ele><time>2026-05-01T15:27:06.156Z</time></trkpt><trkpt lat="44.5774833" lon="8.5331383"><ele>567.0</ele><time>2026-05-01T15:27:07.153Z</time></trkpt><trkpt lat="44.5775583" lon="8.533035"><ele>564.0</ele><time>2026-05-01T15:27:08.15Z</time></trkpt><trkpt lat="44.5776217" lon="8.53295"><ele>561.0</ele><time>2026-05-01T15:27:09.156Z</time></trkpt><trkpt lat="44.5776933" lon="8.5328917"><ele>561.0</ele><time>2026-05-01T15:27:10.153Z</time></trkpt><trkpt lat="44.5777883" lon="8.532965"><ele>561.0</ele><time>2026-05-01T15:27:12.157Z</time></trkpt><trkpt lat="44.5778117" lon="8.5330783"><ele>561.0</ele><time>2026-05-01T15:27:13.152Z</time></trkpt><trkpt lat="44.577835" lon="8.5331783"><ele>561.0</ele><time>2026-05-01T15:27:14.155Z</time></trkpt><trkpt lat="44.5778567" lon="8.5332967"><ele>561.0</ele><time>2026-05-01T15:27:15.155Z</time></trkpt><trkpt lat="44.5778767" lon="8.5334317"><ele>561.2</ele><time>2026-05-01T15:27:16.153Z</time></trkpt><trkpt lat="44.5778933" lon="8.5335783"><ele>561.4000000000001</ele><time>2026-05-01T15:27:17.152Z</time></trkpt><trkpt lat="44.5779033" lon="8.5337417"><ele>561.6</ele><time>2026-05-01T15:27:18.152Z</time></trkpt><trkpt lat="44.5778983" lon="8.53389"><ele>561.8000000000001</ele><time>2026-05-01T15:27:19.154Z</time></trkpt><trkpt lat="44.5778867" lon="8.5340417"><ele>562.0</ele><time>2026-05-01T15:27:20.153Z</time></trkpt><trkpt lat="44.5778583" lon="8.5341683"><ele>559.8333333333334</ele><time>2026-05-01T15:27:21.157Z</time></trkpt><trkpt lat="44.5778283" lon="8.534285"><ele>557.6666666666667</ele><time>2026-05-01T15:27:22.152Z</time></trkpt><trkpt lat="44.5778067" lon="8.5344"><ele>555.5</ele><time>2026-05-01T15:27:23.153Z</time></trkpt><trkpt lat="44.5777867" lon="8.5345083"><ele>553.3333333333334</ele><time>2026-05-01T15:27:24.156Z</time></trkpt><trkpt lat="44.5778217" lon="8.5345883"><ele>551.1666666666666</ele><time>2026-05-01T15:27:25.156Z</time></trkpt><trkpt lat="44.5778883" lon="8.5346517"><ele>549.0</ele><time>2026-05-01T15:27:26.152Z</time></trkpt><trkpt lat="44.5779667" lon="8.5347283"><ele>549.0</ele><time>2026-05-01T15:27:27.153Z</time></trkpt><trkpt lat="44.5780383" lon="8.53481"><ele>549.0</ele><time>2026-05-01T15:27:28.152Z</time></trkpt><trkpt lat="44.578105" lon="8.534895"><ele>549.0</ele><time>2026-05-01T15:27:29.155Z</time></trkpt><trkpt lat="44.5781617" lon="8.5349917"><ele>549.0</ele><time>2026-05-01T15:27:30.162Z</time></trkpt><trkpt lat="44.5781967" lon="8.53509"><ele>549.0</ele><time>2026-05-01T15:27:31.154Z</time></trkpt><trkpt lat="44.5782483" lon="8.5351817"><ele>549.0</ele><time>2026-05-01T15:27:32.155Z</time></trkpt><trkpt lat="44.578305" lon="8.5352783"><ele>549.0</ele><time>2026-05-01T15:27:33.156Z</time></trkpt><trkpt lat="44.57838" lon="8.535375"><ele>549.0</ele><time>2026-05-01T15:27:34.152Z</time></trkpt><trkpt lat="44.5784517" lon="8.53549"><ele>549.0</ele><time>2026-05-01T15:27:35.157Z</time></trkpt><trkpt lat="44.5785117" lon="8.53562"><ele>549.0</ele><time>2026-05-01T15:27:36.153Z</time></trkpt><trkpt lat="44.5785717" lon="8.535745"><ele>549.0</ele><time>2026-05-01T15:27:37.153Z</time></trkpt><trkpt lat="44.5786383" lon="8.5358617"><ele>550.0</ele><time>2026-05-01T15:27:38.153Z</time></trkpt><trkpt lat="44.578705" lon="8.5359683"><ele>551.0</ele><time>2026-05-01T15:27:39.152Z</time></trkpt><trkpt lat="44.57877" lon="8.5360683"><ele>552.0</ele><time>2026-05-01T15:27:40.153Z</time></trkpt><trkpt lat="44.5788433" lon="8.5361633"><ele>553.0</ele><time>2026-05-01T15:27:41.152Z</time></trkpt><trkpt lat="44.5789233" lon="8.5362533"><ele>554.0</ele><time>2026-05-01T15:27:42.155Z</time></trkpt><trkpt lat="44.57901" lon="8.536335"><ele>549.8</ele><time>2026-05-01T15:27:43.152Z</time></trkpt><trkpt lat="44.5791" lon="8.5364083"><ele>545.5999999999999</ele><time>2026-05-01T15:27:44.156Z</time></trkpt><trkpt lat="44.57919" lon="8.5364767"><ele>541.4</ele><time>2026-05-01T15:27:45.156Z</time></trkpt><trkpt lat="44.5792683" lon="8.5365433"><ele>537.1999999999999</ele><time>2026-05-01T15:27:46.157Z</time></trkpt><trkpt lat="44.57934" lon="8.5366067"><ele>533.0</ele><time>2026-05-01T15:27:47.154Z</time></trkpt><trkpt lat="44.5794083" lon="8.5366717"><ele>533.0</ele><time>2026-05-01T15:27:48.158Z</time></trkpt><trkpt lat="44.5794633" lon="8.5367367"><ele>533.0</ele><time>2026-05-01T15:27:49.156Z</time></trkpt><trkpt lat="44.5795283" lon="8.53688"><ele>533.0</ele><time>2026-05-01T15:27:51.155Z</time></trkpt><trkpt lat="44.5795867" lon="8.536975"><ele>533.0</ele><time>2026-05-01T15:27:53.154Z</time></trkpt><trkpt lat="44.5796533" lon="8.53697"><ele>533.0</ele><time>2026-05-01T15:27:55.153Z</time></trkpt><trkpt lat="44.57974" lon="8.53689"><ele>532.0</ele><time>2026-05-01T15:27:57.151Z</time></trkpt><trkpt lat="44.579785" lon="8.5368117"><ele>531.0</ele><time>2026-05-01T15:27:58.154Z</time></trkpt><trkpt lat="44.57983" lon="8.5367017"><ele>530.0</ele><time>2026-05-01T15:27:59.158Z</time></trkpt><trkpt lat="44.57986" lon="8.5365833"><ele>529.0</ele><time>2026-05-01T15:28:00.158Z</time></trkpt><trkpt lat="44.5798817" lon="8.5364633"><ele>528.0</ele><time>2026-05-01T15:28:01.159Z</time></trkpt><trkpt lat="44.5799067" lon="8.5363667"><ele>527.0</ele><time>2026-05-01T15:28:02.157Z</time></trkpt><trkpt lat="44.579935" lon="8.5362767"><ele>530.1666666666666</ele><time>2026-05-01T15:28:03.155Z</time></trkpt><trkpt lat="44.5799717" lon="8.5361917"><ele>533.3333333333333</ele><time>2026-05-01T15:28:04.154Z</time></trkpt><trkpt lat="44.5800133" lon="8.5361067"><ele>536.5</ele><time>2026-05-01T15:28:05.153Z</time></trkpt><trkpt lat="44.5800617" lon="8.5360333"><ele>539.6666666666666</ele><time>2026-05-01T15:28:06.152Z</time></trkpt><trkpt lat="44.5801167" lon="8.535965"><ele>542.8333333333334</ele><time>2026-05-01T15:28:07.153Z</time></trkpt><trkpt lat="44.5801867" lon="8.5359217"><ele>546.0</ele><time>2026-05-01T15:28:08.157Z</time></trkpt><trkpt lat="44.58027" lon="8.5358833"><ele>546.0</ele><time>2026-05-01T15:28:09.151Z</time></trkpt><trkpt lat="44.5803483" lon="8.5358683"><ele>546.0</ele><time>2026-05-01T15:28:10.152Z</time></trkpt><trkpt lat="44.5804417" lon="8.535845"><ele>546.0</ele><time>2026-05-01T15:28:11.155Z</time></trkpt><trkpt lat="44.58054" lon="8.53584"><ele>546.0</ele><time>2026-05-01T15:28:12.153Z</time></trkpt><trkpt lat="44.58063" lon="8.53584"><ele>546.0</ele><time>2026-05-01T15:28:13.153Z</time></trkpt><trkpt lat="44.5807217" lon="8.5358483"><ele>543.8333333333334</ele><time>2026-05-01T15:28:14.152Z</time></trkpt><trkpt lat="44.5808117" lon="8.5358617"><ele>541.6666666666666</ele><time>2026-05-01T15:28:15.152Z</time></trkpt><trkpt lat="44.5809117" lon="8.5358917"><ele>539.5</ele><time>2026-05-01T15:28:16.151Z</time></trkpt><trkpt lat="44.581005" lon="8.5359217"><ele>537.3333333333333</ele><time>2026-05-01T15:28:17.156Z</time></trkpt><trkpt lat="44.581085" lon="8.535945"><ele>535.1666666666666</ele><time>2026-05-01T15:28:18.155Z</time></trkpt><trkpt lat="44.58116" lon="8.5359617"><ele>533.0</ele><time>2026-05-01T15:28:19.152Z</time></trkpt><trkpt lat="44.58122" lon="8.53593"><ele>530.6</ele><time>2026-05-01T15:28:20.151Z</time></trkpt><trkpt lat="44.5813083" lon="8.5358533"><ele>528.1999999999999</ele><time>2026-05-01T15:28:22.155Z</time></trkpt><trkpt lat="44.581345" lon="8.535735"><ele>525.8</ele><time>2026-05-01T15:28:24.16Z</time></trkpt><trkpt lat="44.5813633" lon="8.5356"><ele>523.4</ele><time>2026-05-01T15:28:26.153Z</time></trkpt><trkpt lat="44.5814067" lon="8.5354933"><ele>521.0</ele><time>2026-05-01T15:28:28.161Z</time></trkpt><trkpt lat="44.5815083" lon="8.53539"><ele>523.6666666666666</ele><time>2026-05-01T15:28:30.155Z</time></trkpt><trkpt lat="44.581565" lon="8.5353333"><ele>526.3333333333333</ele><time>2026-05-01T15:28:31.152Z</time></trkpt><trkpt lat="44.5816133" lon="8.53526"><ele>529.0</ele><time>2026-05-01T15:28:32.153Z</time></trkpt><trkpt lat="44.5816633" lon="8.53517"><ele>531.6666666666666</ele><time>2026-05-01T15:28:33.152Z</time></trkpt><trkpt lat="44.5817167" lon="8.535085"><ele>534.3333333333334</ele><time>2026-05-01T15:28:34.153Z</time></trkpt><trkpt lat="44.5817667" lon="8.5349933"><ele>537.0</ele><time>2026-05-01T15:28:35.154Z</time></trkpt><trkpt lat="44.581815" lon="8.5349017"><ele>537.0</ele><time>2026-05-01T15:28:36.153Z</time></trkpt><trkpt lat="44.5818633" lon="8.5347983"><ele>537.0</ele><time>2026-05-01T15:28:37.156Z</time></trkpt><trkpt lat="44.5819117" lon="8.5347017"><ele>537.0</ele><time>2026-05-01T15:28:38.154Z</time></trkpt><trkpt lat="44.5819667" lon="8.534615"><ele>537.0</ele><time>2026-05-01T15:28:39.157Z</time></trkpt><trkpt lat="44.582035" lon="8.5345367"><ele>537.0</ele><time>2026-05-01T15:28:40.157Z</time></trkpt><trkpt lat="44.582105" lon="8.5344683"><ele>537.0</ele><time>2026-05-01T15:28:41.155Z</time></trkpt><trkpt lat="44.5821817" lon="8.534405"><ele>533.8000000000001</ele><time>2026-05-01T15:28:42.155Z</time></trkpt><trkpt lat="44.5822667" lon="8.534345"><ele>530.6</ele><time>2026-05-01T15:28:43.16Z</time></trkpt><trkpt lat="44.582355" lon="8.53429"><ele>527.4000000000001</ele><time>2026-05-01T15:28:44.156Z</time></trkpt><trkpt lat="44.5824467" lon="8.5342333"><ele>524.2</ele><time>2026-05-01T15:28:45.153Z</time></trkpt><trkpt lat="44.5825383" lon="8.5341733"><ele>521.0</ele><time>2026-05-01T15:28:46.156Z</time></trkpt><trkpt lat="44.5826217" lon="8.5341117"><ele>521.0</ele><time>2026-05-01T15:28:47.157Z</time></trkpt><trkpt lat="44.5827017" lon="8.5340233"><ele>521.0</ele><time>2026-05-01T15:28:48.16Z</time></trkpt><trkpt lat="44.5827717" lon="8.53393"><ele>521.0</ele><time>2026-05-01T15:28:49.154Z</time></trkpt><trkpt lat="44.582835" lon="8.5338283"><ele>521.0</ele><time>2026-05-01T15:28:50.154Z</time></trkpt><trkpt lat="44.5829033" lon="8.5337383"><ele>521.0</ele><time>2026-05-01T15:28:51.156Z</time></trkpt><trkpt lat="44.5829833" lon="8.533675"><ele>519.2</ele><time>2026-05-01T15:28:52.156Z</time></trkpt><trkpt lat="44.583085" lon="8.5336367"><ele>517.4000000000001</ele><time>2026-05-01T15:28:53.157Z</time></trkpt><trkpt lat="44.5831883" lon="8.5336167"><ele>515.6</ele><time>2026-05-01T15:28:54.153Z</time></trkpt><trkpt lat="44.5833" lon="8.5335867"><ele>513.8000000000001</ele><time>2026-05-01T15:28:55.156Z</time></trkpt><trkpt lat="44.5834217" lon="8.5335683"><ele>512.0</ele><time>2026-05-01T15:28:56.154Z</time></trkpt><trkpt lat="44.5835467" lon="8.533545"><ele>512.0</ele><time>2026-05-01T15:28:57.155Z</time></trkpt><trkpt lat="44.583665" lon="8.5335183"><ele>512.0</ele><time>2026-05-01T15:28:58.152Z</time></trkpt><trkpt lat="44.5837767" lon="8.5334933"><ele>512.0</ele><time>2026-05-01T15:28:59.157Z</time></trkpt><trkpt lat="44.5838783" lon="8.5334733"><ele>512.0</ele><time>2026-05-01T15:29:00.154Z</time></trkpt><trkpt lat="44.5839683" lon="8.53346"><ele>512.0</ele><time>2026-05-01T15:29:01.155Z</time></trkpt><trkpt lat="44.5840583" lon="8.533445"><ele>513.0</ele><time>2026-05-01T15:29:02.155Z</time></trkpt><trkpt lat="44.5841483" lon="8.53341"><ele>514.0</ele><time>2026-05-01T15:29:03.154Z</time></trkpt><trkpt lat="44.5842367" lon="8.5333467"><ele>515.0</ele><time>2026-05-01T15:29:04.154Z</time></trkpt><trkpt lat="44.5843233" lon="8.533265"><ele>516.0</ele><time>2026-05-01T15:29:05.154Z</time></trkpt><trkpt lat="44.5844" lon="8.5331783"><ele>517.0</ele><time>2026-05-01T15:29:06.162Z</time></trkpt><trkpt lat="44.584475" lon="8.5331083"><ele>517.8333333333334</ele><time>2026-05-01T15:29:07.154Z</time></trkpt><trkpt lat="44.5845533" lon="8.533045"><ele>518.6666666666667</ele><time>2026-05-01T15:29:08.157Z</time></trkpt><trkpt lat="44.584635" lon="8.53301"><ele>519.5</ele><time>2026-05-01T15:29:09.157Z</time></trkpt><trkpt lat="44.5847167" lon="8.53299"><ele>520.3333333333334</ele><time>2026-05-01T15:29:10.156Z</time></trkpt><trkpt lat="44.5847917" lon="8.5329583"><ele>521.1666666666666</ele><time>2026-05-01T15:29:11.154Z</time></trkpt><trkpt lat="44.5848617" lon="8.5329167"><ele>522.0</ele><time>2026-05-01T15:29:12.153Z</time></trkpt><trkpt lat="44.5849333" lon="8.53286"><ele>522.0</ele><time>2026-05-01T15:29:13.155Z</time></trkpt><trkpt lat="44.5850133" lon="8.5327983"><ele>522.0</ele><time>2026-05-01T15:29:14.155Z</time></trkpt><trkpt lat="44.5851017" lon="8.5327433"><ele>522.0</ele><time>2026-05-01T15:29:15.153Z</time></trkpt><trkpt lat="44.585195" lon="8.5327117"><ele>522.0</ele><time>2026-05-01T15:29:16.153Z</time></trkpt><trkpt lat="44.5852833" lon="8.532685"><ele>522.0</ele><time>2026-05-01T15:29:17.155Z</time></trkpt><trkpt lat="44.58536" lon="8.5326433"><ele>517.4</ele><time>2026-05-01T15:29:18.152Z</time></trkpt><trkpt lat="44.5854383" lon="8.53258"><ele>512.8000000000001</ele><time>2026-05-01T15:29:19.155Z</time></trkpt><trkpt lat="44.585515" lon="8.5324983"><ele>508.2</ele><time>2026-05-01T15:29:20.154Z</time></trkpt><trkpt lat="44.5855883" lon="8.5323967"><ele>503.6</ele><time>2026-05-01T15:29:21.153Z</time></trkpt><trkpt lat="44.5856567" lon="8.532285"><ele>499.0</ele><time>2026-05-01T15:29:22.152Z</time></trkpt><trkpt lat="44.5857167" lon="8.5321567"><ele>502.0</ele><time>2026-05-01T15:29:23.152Z</time></trkpt><trkpt lat="44.585775" lon="8.5320267"><ele>505.0</ele><time>2026-05-01T15:29:24.152Z</time></trkpt><trkpt lat="44.5858383" lon="8.5319167"><ele>508.0</ele><time>2026-05-01T15:29:25.154Z</time></trkpt><trkpt lat="44.5859083" lon="8.531825"><ele>511.0</ele><time>2026-05-01T15:29:26.153Z</time></trkpt><trkpt lat="44.5859883" lon="8.5317517"><ele>514.0</ele><time>2026-05-01T15:29:27.157Z</time></trkpt><trkpt lat="44.5860717" lon="8.531705"><ele>514.0</ele><time>2026-05-01T15:29:28.158Z</time></trkpt><trkpt lat="44.5861633" lon="8.531675"><ele>514.0</ele><time>2026-05-01T15:29:29.152Z</time></trkpt><trkpt lat="44.5862567" lon="8.531655"><ele>514.0</ele><time>2026-05-01T15:29:30.15Z</time></trkpt><trkpt lat="44.58636" lon="8.5316533"><ele>514.0</ele><time>2026-05-01T15:29:31.15Z</time></trkpt><trkpt lat="44.5864667" lon="8.5316567"><ele>514.0</ele><time>2026-05-01T15:29:32.159Z</time></trkpt><trkpt lat="44.58658" lon="8.5316667"><ele>511.0</ele><time>2026-05-01T15:29:33.154Z</time></trkpt><trkpt lat="44.5866917" lon="8.53169"><ele>508.0</ele><time>2026-05-01T15:29:34.153Z</time></trkpt><trkpt lat="44.586795" lon="8.531725"><ele>505.0</ele><time>2026-05-01T15:29:35.153Z</time></trkpt><trkpt lat="44.5868917" lon="8.531785"><ele>502.0</ele><time>2026-05-01T15:29:36.155Z</time></trkpt><trkpt lat="44.5869867" lon="8.5318283"><ele>499.0</ele><time>2026-05-01T15:29:37.152Z</time></trkpt><trkpt lat="44.587085" lon="8.53187"><ele>496.79999999999995</ele><time>2026-05-01T15:29:38.152Z</time></trkpt><trkpt lat="44.587185" lon="8.5319033"><ele>494.59999999999997</ele><time>2026-05-01T15:29:39.152Z</time></trkpt><trkpt lat="44.5872833" lon="8.5319317"><ele>492.4</ele><time>2026-05-01T15:29:40.154Z</time></trkpt><trkpt lat="44.58737" lon="8.5319383"><ele>490.2</ele><time>2026-05-01T15:29:41.157Z</time></trkpt><trkpt lat="44.587455" lon="8.5319383"><ele>488.0</ele><time>2026-05-01T15:29:42.153Z</time></trkpt><trkpt lat="44.5875417" lon="8.5319167"><ele>488.0</ele><time>2026-05-01T15:29:43.155Z</time></trkpt><trkpt lat="44.5876367" lon="8.5318233"><ele>488.0</ele><time>2026-05-01T15:29:44.151Z</time></trkpt><trkpt lat="44.5877333" lon="8.53173"><ele>488.0</ele><time>2026-05-01T15:29:45.153Z</time></trkpt><trkpt lat="44.5878317" lon="8.53164"><ele>488.0</ele><time>2026-05-01T15:29:46.157Z</time></trkpt><trkpt lat="44.5879333" lon="8.5315433"><ele>487.79999999999995</ele><time>2026-05-01T15:29:47.156Z</time></trkpt><trkpt lat="44.58803" lon="8.5314433"><ele>487.59999999999997</ele><time>2026-05-01T15:29:48.15Z</time></trkpt><trkpt lat="44.5881167" lon="8.5313667"><ele>487.40000000000003</ele><time>2026-05-01T15:29:49.156Z</time></trkpt><trkpt lat="44.5882" lon="8.531315"><ele>487.20000000000005</ele><time>2026-05-01T15:29:50.155Z</time></trkpt><trkpt lat="44.58828" lon="8.5312767"><ele>487.0</ele><time>2026-05-01T15:29:51.153Z</time></trkpt><trkpt lat="44.5883533" lon="8.53127"><ele>487.00000000000006</ele><time>2026-05-01T15:29:52.157Z</time></trkpt><trkpt lat="44.588415" lon="8.5313483"><ele>487.0</ele><time>2026-05-01T15:29:53.154Z</time></trkpt><trkpt lat="44.5884883" lon="8.5314067"><ele>487.0</ele><time>2026-05-01T15:29:54.152Z</time></trkpt><trkpt lat="44.588565" lon="8.5314533"><ele>487.0</ele><time>2026-05-01T15:29:55.157Z</time></trkpt><trkpt lat="44.5886483" lon="8.531475"><ele>487.00000000000006</ele><time>2026-05-01T15:29:56.153Z</time></trkpt><trkpt lat="44.5887417" lon="8.53148"><ele>487.0</ele><time>2026-05-01T15:29:57.155Z</time></trkpt><trkpt lat="44.5888367" lon="8.5314633"><ele>488.25</ele><time>2026-05-01T15:29:58.155Z</time></trkpt><trkpt lat="44.588945" lon="8.531415"><ele>489.5</ele><time>2026-05-01T15:29:59.156Z</time></trkpt><trkpt lat="44.5890633" lon="8.5313583"><ele>490.75</ele><time>2026-05-01T15:30:00.157Z</time></trkpt><trkpt lat="44.589175" lon="8.5313067"><ele>492.0</ele><time>2026-05-01T15:30:01.154Z</time></trkpt><trkpt lat="44.58928" lon="8.5312633"><ele>492.0</ele><time>2026-05-01T15:30:02.154Z</time></trkpt><trkpt lat="44.589375" lon="8.5312333"><ele>492.00000000000006</ele><time>2026-05-01T15:30:03.157Z</time></trkpt><trkpt lat="44.589465" lon="8.5312283"><ele>492.00000000000006</ele><time>2026-05-01T15:30:04.153Z</time></trkpt><trkpt lat="44.589555" lon="8.531235"><ele>492.0</ele><time>2026-05-01T15:30:05.161Z</time></trkpt><trkpt lat="44.58964" lon="8.5312783"><ele>492.0</ele><time>2026-05-01T15:30:06.155Z</time></trkpt><trkpt lat="44.58972" lon="8.5313533"><ele>494.8</ele><time>2026-05-01T15:30:07.155Z</time></trkpt><trkpt lat="44.5897983" lon="8.5314517"><ele>497.6</ele><time>2026-05-01T15:30:08.157Z</time></trkpt><trkpt lat="44.58987" lon="8.5315567"><ele>500.40000000000003</ele><time>2026-05-01T15:30:09.156Z</time></trkpt><trkpt lat="44.58994" lon="8.53165"><ele>503.20000000000005</ele><time>2026-05-01T15:30:10.156Z</time></trkpt><trkpt lat="44.5900117" lon="8.5317333"><ele>506.0</ele><time>2026-05-01T15:30:11.157Z</time></trkpt><trkpt lat="44.5900917" lon="8.5318083"><ele>506.0</ele><time>2026-05-01T15:30:12.153Z</time></trkpt><trkpt lat="44.5901917" lon="8.5318767"><ele>506.0</ele><time>2026-05-01T15:30:13.158Z</time></trkpt><trkpt lat="44.5902917" lon="8.531955"><ele>506.0</ele><time>2026-05-01T15:30:14.159Z</time></trkpt><trkpt lat="44.59039" lon="8.532035"><ele>506.0</ele><time>2026-05-01T15:30:15.153Z</time></trkpt><trkpt lat="44.5904817" lon="8.5321433"><ele>506.0</ele><time>2026-05-01T15:30:16.153Z</time></trkpt><trkpt lat="44.59058" lon="8.5322317"><ele>506.0</ele><time>2026-05-01T15:30:17.154Z</time></trkpt><trkpt lat="44.5906767" lon="8.53232"><ele>506.0</ele><time>2026-05-01T15:30:18.151Z</time></trkpt><trkpt lat="44.5907733" lon="8.5323967"><ele>506.0</ele><time>2026-05-01T15:30:19.162Z</time></trkpt><trkpt lat="44.59087" lon="8.5324533"><ele>506.0</ele><time>2026-05-01T15:30:20.152Z</time></trkpt><trkpt lat="44.59097" lon="8.5324917"><ele>506.0</ele><time>2026-05-01T15:30:21.156Z</time></trkpt><trkpt lat="44.591075" lon="8.5325117"><ele>506.0</ele><time>2026-05-01T15:30:22.152Z</time></trkpt><trkpt lat="44.5911817" lon="8.5325317"><ele>506.0</ele><time>2026-05-01T15:30:23.152Z</time></trkpt><trkpt lat="44.591295" lon="8.532535"><ele>506.0</ele><time>2026-05-01T15:30:24.151Z</time></trkpt><trkpt lat="44.5914033" lon="8.5325417"><ele>506.0</ele><time>2026-05-01T15:30:25.153Z</time></trkpt><trkpt lat="44.5915167" lon="8.5325233"><ele>508.0</ele><time>2026-05-01T15:30:26.155Z</time></trkpt><trkpt lat="44.591635" lon="8.5325"><ele>510.0</ele><time>2026-05-01T15:30:27.151Z</time></trkpt><trkpt lat="44.5917517" lon="8.53246"><ele>512.0</ele><time>2026-05-01T15:30:28.154Z</time></trkpt><trkpt lat="44.5918633" lon="8.5324267"><ele>514.0</ele><time>2026-05-01T15:30:29.152Z</time></trkpt><trkpt lat="44.59197" lon="8.5323833"><ele>511.6</ele><time>2026-05-01T15:30:30.156Z</time></trkpt><trkpt lat="44.5920717" lon="8.53234"><ele>509.2</ele><time>2026-05-01T15:30:31.155Z</time></trkpt><trkpt lat="44.5921683" lon="8.53231"><ele>506.80000000000007</ele><time>2026-05-01T15:30:32.153Z</time></trkpt><trkpt lat="44.59227" lon="8.5322917"><ele>504.40000000000003</ele><time>2026-05-01T15:30:33.154Z</time></trkpt><trkpt lat="44.5923767" lon="8.5322833"><ele>502.0</ele><time>2026-05-01T15:30:34.153Z</time></trkpt><trkpt lat="44.5924767" lon="8.53226"><ele>502.0</ele><time>2026-05-01T15:30:35.152Z</time></trkpt><trkpt lat="44.592555" lon="8.5322167"><ele>502.00000000000006</ele><time>2026-05-01T15:30:36.153Z</time></trkpt><trkpt lat="44.5926367" lon="8.5321783"><ele>502.00000000000006</ele><time>2026-05-01T15:30:37.151Z</time></trkpt><trkpt lat="44.5927117" lon="8.5321233"><ele>502.0</ele><time>2026-05-01T15:30:38.161Z</time></trkpt><trkpt lat="44.5927567" lon="8.532005"><ele>502.0</ele><time>2026-05-01T15:30:39.153Z</time></trkpt><trkpt lat="44.592785" lon="8.5318683"><ele>502.25</ele><time>2026-05-01T15:30:40.156Z</time></trkpt><trkpt lat="44.59281" lon="8.5317083"><ele>502.5</ele><time>2026-05-01T15:30:41.151Z</time></trkpt><trkpt lat="44.5928717" lon="8.531545"><ele>502.75</ele><time>2026-05-01T15:30:42.152Z</time></trkpt><trkpt lat="44.5929417" lon="8.53139"><ele>503.0</ele><time>2026-05-01T15:30:43.154Z</time></trkpt><trkpt lat="44.5930083" lon="8.5312083"><ele>503.0</ele><time>2026-05-01T15:30:44.152Z</time></trkpt><trkpt lat="44.59307" lon="8.5310417"><ele>502.99999999999994</ele><time>2026-05-01T15:30:45.154Z</time></trkpt><trkpt lat="44.59314" lon="8.5309117"><ele>502.99999999999994</ele><time>2026-05-01T15:30:46.152Z</time></trkpt><trkpt lat="44.5931967" lon="8.53082"><ele>503.0</ele><time>2026-05-01T15:30:47.156Z</time></trkpt><trkpt lat="44.5932717" lon="8.53075"><ele>503.0</ele><time>2026-05-01T15:30:48.151Z</time></trkpt><trkpt lat="44.593355" lon="8.5306933"><ele>502.99999999999994</ele><time>2026-05-01T15:30:49.151Z</time></trkpt><trkpt lat="44.5934283" lon="8.5306317"><ele>503.0</ele><time>2026-05-01T15:30:50.153Z</time></trkpt><trkpt lat="44.593515" lon="8.5305983"><ele>503.0</ele><time>2026-05-01T15:30:51.154Z</time></trkpt><trkpt lat="44.5935983" lon="8.5306"><ele>503.0</ele><time>2026-05-01T15:30:52.158Z</time></trkpt><trkpt lat="44.593675" lon="8.5306533"><ele>502.99999999999994</ele><time>2026-05-01T15:30:53.152Z</time></trkpt><trkpt lat="44.5937533" lon="8.530735"><ele>503.0</ele><time>2026-05-01T15:30:54.153Z</time></trkpt><trkpt lat="44.5938367" lon="8.5308633"><ele>501.79999999999995</ele><time>2026-05-01T15:30:55.156Z</time></trkpt><trkpt lat="44.5939233" lon="8.53095"><ele>500.59999999999997</ele><time>2026-05-01T15:30:56.157Z</time></trkpt><trkpt lat="44.5940183" lon="8.531025"><ele>499.40000000000003</ele><time>2026-05-01T15:30:57.152Z</time></trkpt><trkpt lat="44.5941067" lon="8.5310733"><ele>498.20000000000005</ele><time>2026-05-01T15:30:58.151Z</time></trkpt><trkpt lat="44.5942283" lon="8.53111"><ele>497.0</ele><time>2026-05-01T15:30:59.151Z</time></trkpt><trkpt lat="44.594335" lon="8.53111"><ele>497.0</ele><time>2026-05-01T15:31:00.157Z</time></trkpt><trkpt lat="44.5944333" lon="8.5310667"><ele>497.00000000000006</ele><time>2026-05-01T15:31:01.153Z</time></trkpt><trkpt lat="44.5945317" lon="8.53101"><ele>497.00000000000006</ele><time>2026-05-01T15:31:02.154Z</time></trkpt><trkpt lat="44.59462" lon="8.5309367"><ele>497.0</ele><time>2026-05-01T15:31:03.152Z</time></trkpt><trkpt lat="44.594705" lon="8.5308433"><ele>497.0</ele><time>2026-05-01T15:31:04.159Z</time></trkpt><trkpt lat="44.5947733" lon="8.5307217"><ele>495.75</ele><time>2026-05-01T15:31:05.155Z</time></trkpt><trkpt lat="44.5948367" lon="8.5305883"><ele>494.5</ele><time>2026-05-01T15:31:06.154Z</time></trkpt><trkpt lat="44.5949017" lon="8.5304467"><ele>493.25</ele><time>2026-05-01T15:31:07.155Z</time></trkpt><trkpt lat="44.5949683" lon="8.5303183"><ele>492.0</ele><time>2026-05-01T15:31:08.152Z</time></trkpt><trkpt lat="44.5950517" lon="8.5302017"><ele>492.0</ele><time>2026-05-01T15:31:09.154Z</time></trkpt><trkpt lat="44.5951467" lon="8.5300983"><ele>492.0</ele><time>2026-05-01T15:31:10.153Z</time></trkpt><trkpt lat="44.595245" lon="8.5299883"><ele>492.0</ele><time>2026-05-01T15:31:11.158Z</time></trkpt><trkpt lat="44.59534" lon="8.52988"><ele>492.0</ele><time>2026-05-01T15:31:12.154Z</time></trkpt><trkpt lat="44.595435" lon="8.5297883"><ele>495.6666666666667</ele><time>2026-05-01T15:31:13.159Z</time></trkpt><trkpt lat="44.5955067" lon="8.5296917"><ele>499.33333333333337</ele><time>2026-05-01T15:31:14.155Z</time></trkpt><trkpt lat="44.5955633" lon="8.5296033"><ele>503.0</ele><time>2026-05-01T15:31:15.155Z</time></trkpt><trkpt lat="44.5956083" lon="8.5295217"><ele>506.6666666666667</ele><time>2026-05-01T15:31:16.154Z</time></trkpt><trkpt lat="44.5956067" lon="8.529415"><ele>510.33333333333337</ele><time>2026-05-01T15:31:17.154Z</time></trkpt><trkpt lat="44.5956067" lon="8.529305"><ele>514.0</ele><time>2026-05-01T15:31:18.154Z</time></trkpt><trkpt lat="44.59559" lon="8.52919"><ele>514.0</ele><time>2026-05-01T15:31:19.156Z</time></trkpt><trkpt lat="44.5955667" lon="8.52907"><ele>514.0</ele><time>2026-05-01T15:31:20.153Z</time></trkpt><trkpt lat="44.5955583" lon="8.528945"><ele>514.0</ele><time>2026-05-01T15:31:21.153Z</time></trkpt><trkpt lat="44.5955633" lon="8.5287833"><ele>514.0</ele><time>2026-05-01T15:31:22.155Z</time></trkpt><trkpt lat="44.595565" lon="8.528635"><ele>514.0</ele><time>2026-05-01T15:31:23.153Z</time></trkpt><trkpt lat="44.5955567" lon="8.5284833"><ele>516.0</ele><time>2026-05-01T15:31:24.155Z</time></trkpt><trkpt lat="44.5955083" lon="8.5283383"><ele>518.0</ele><time>2026-05-01T15:31:25.159Z</time></trkpt><trkpt lat="44.5954733" lon="8.5281683"><ele>520.0</ele><time>2026-05-01T15:31:26.154Z</time></trkpt><trkpt lat="44.5954367" lon="8.5279933"><ele>522.0</ele><time>2026-05-01T15:31:27.161Z</time></trkpt><trkpt lat="44.5954033" lon="8.527815"><ele>522.75</ele><time>2026-05-01T15:31:28.153Z</time></trkpt><trkpt lat="44.5953783" lon="8.5276433"><ele>523.5</ele><time>2026-05-01T15:31:29.155Z</time></trkpt><trkpt lat="44.5953633" lon="8.52748"><ele>524.25</ele><time>2026-05-01T15:31:30.153Z</time></trkpt><trkpt lat="44.5953567" lon="8.5273183"><ele>525.0</ele><time>2026-05-01T15:31:31.156Z</time></trkpt><trkpt lat="44.595365" lon="8.52716"><ele>523.6</ele><time>2026-05-01T15:31:32.153Z</time></trkpt><trkpt lat="44.595365" lon="8.527015"><ele>522.2</ele><time>2026-05-01T15:31:33.152Z</time></trkpt><trkpt lat="44.59538" lon="8.5268617"><ele>520.8</ele><time>2026-05-01T15:31:34.156Z</time></trkpt><trkpt lat="44.5954033" lon="8.52671"><ele>519.4</ele><time>2026-05-01T15:31:35.157Z</time></trkpt><trkpt lat="44.5954283" lon="8.526555"><ele>518.0</ele><time>2026-05-01T15:31:36.155Z</time></trkpt><trkpt lat="44.595455" lon="8.5264133"><ele>518.0</ele><time>2026-05-01T15:31:37.15Z</time></trkpt><trkpt lat="44.5955033" lon="8.52626"><ele>518.0</ele><time>2026-05-01T15:31:38.155Z</time></trkpt><trkpt lat="44.5955583" lon="8.5261133"><ele>518.0</ele><time>2026-05-01T15:31:39.151Z</time></trkpt><trkpt lat="44.5956233" lon="8.5259783"><ele>518.0</ele><time>2026-05-01T15:31:40.152Z</time></trkpt><trkpt lat="44.59569" lon="8.5258417"><ele>516.6</ele><time>2026-05-01T15:31:41.154Z</time></trkpt><trkpt lat="44.5957367" lon="8.525695"><ele>515.1999999999999</ele><time>2026-05-01T15:31:42.15Z</time></trkpt><trkpt lat="44.5957833" lon="8.5255533"><ele>513.8</ele><time>2026-05-01T15:31:43.155Z</time></trkpt><trkpt lat="44.5958267" lon="8.5254117"><ele>512.4</ele><time>2026-05-01T15:31:44.152Z</time></trkpt><trkpt lat="44.595845" lon="8.52526"><ele>511.0</ele><time>2026-05-01T15:31:45.152Z</time></trkpt><trkpt lat="44.5958617" lon="8.5251533"><ele>509.00000000000006</ele><time>2026-05-01T15:31:46.151Z</time></trkpt><trkpt lat="44.595895" lon="8.5250667"><ele>507.0</ele><time>2026-05-01T15:31:47.151Z</time></trkpt><trkpt lat="44.5959167" lon="8.5249733"><ele>505.0</ele><time>2026-05-01T15:31:48.154Z</time></trkpt><trkpt lat="44.5959833" lon="8.5249283"><ele>503.0</ele><time>2026-05-01T15:31:49.156Z</time></trkpt><trkpt lat="44.5960533" lon="8.5248783"><ele>501.00000000000006</ele><time>2026-05-01T15:31:50.153Z</time></trkpt><trkpt lat="44.59615" lon="8.5248417"><ele>499.0</ele><time>2026-05-01T15:31:51.152Z</time></trkpt><trkpt lat="44.5962583" lon="8.5248017"><ele>499.0</ele><time>2026-05-01T15:31:52.154Z</time></trkpt><trkpt lat="44.5963667" lon="8.5246883"><ele>499.0</ele><time>2026-05-01T15:31:53.155Z</time></trkpt><trkpt lat="44.596495" lon="8.5245683"><ele>499.0</ele><time>2026-05-01T15:31:54.156Z</time></trkpt><trkpt lat="44.5966067" lon="8.5244567"><ele>499.0</ele><time>2026-05-01T15:31:55.153Z</time></trkpt><trkpt lat="44.5967067" lon="8.5243467"><ele>496.0</ele><time>2026-05-01T15:31:56.154Z</time></trkpt><trkpt lat="44.59678" lon="8.5242333"><ele>493.0</ele><time>2026-05-01T15:31:57.154Z</time></trkpt><trkpt lat="44.59684" lon="8.524115"><ele>490.0</ele><time>2026-05-01T15:31:58.152Z</time></trkpt><trkpt lat="44.5968867" lon="8.523965"><ele>487.0</ele><time>2026-05-01T15:31:59.157Z</time></trkpt><trkpt lat="44.5969367" lon="8.5238183"><ele>484.0</ele><time>2026-05-01T15:32:00.157Z</time></trkpt><trkpt lat="44.5969867" lon="8.5236733"><ele>485.79999999999995</ele><time>2026-05-01T15:32:01.153Z</time></trkpt><trkpt lat="44.59704" lon="8.5235367"><ele>487.59999999999997</ele><time>2026-05-01T15:32:02.152Z</time></trkpt><trkpt lat="44.5971" lon="8.5234167"><ele>489.4</ele><time>2026-05-01T15:32:03.152Z</time></trkpt><trkpt lat="44.59716" lon="8.5233"><ele>491.2</ele><time>2026-05-01T15:32:04.155Z</time></trkpt><trkpt lat="44.5972267" lon="8.5231967"><ele>493.0</ele><time>2026-05-01T15:32:05.155Z</time></trkpt><trkpt lat="44.5972867" lon="8.5230917"><ele>493.0</ele><time>2026-05-01T15:32:06.157Z</time></trkpt><trkpt lat="44.5973383" lon="8.5229817"><ele>492.99999999999994</ele><time>2026-05-01T15:32:07.154Z</time></trkpt><trkpt lat="44.5973767" lon="8.5228583"><ele>492.99999999999994</ele><time>2026-05-01T15:32:08.158Z</time></trkpt><trkpt lat="44.5974117" lon="8.5227283"><ele>493.0</ele><time>2026-05-01T15:32:09.155Z</time></trkpt><trkpt lat="44.59742" lon="8.5225733"><ele>493.0</ele><time>2026-05-01T15:32:10.155Z</time></trkpt><trkpt lat="44.5974367" lon="8.52245"><ele>489.83333333333337</ele><time>2026-05-01T15:32:11.156Z</time></trkpt><trkpt lat="44.5974617" lon="8.52235"><ele>486.6666666666667</ele><time>2026-05-01T15:32:12.153Z</time></trkpt><trkpt lat="44.597485" lon="8.5222567"><ele>483.5</ele><time>2026-05-01T15:32:13.158Z</time></trkpt><trkpt lat="44.5975133" lon="8.5221767"><ele>480.33333333333337</ele><time>2026-05-01T15:32:14.152Z</time></trkpt><trkpt lat="44.5975983" lon="8.52215"><ele>477.1666666666667</ele><time>2026-05-01T15:32:15.155Z</time></trkpt><trkpt lat="44.5976767" lon="8.52211"><ele>474.0</ele><time>2026-05-01T15:32:16.155Z</time></trkpt><trkpt lat="44.5977683" lon="8.522095"><ele>474.0</ele><time>2026-05-01T15:32:17.156Z</time></trkpt><trkpt lat="44.5978683" lon="8.5220817"><ele>474.0</ele><time>2026-05-01T15:32:18.155Z</time></trkpt><trkpt lat="44.59797" lon="8.5220783"><ele>474.0</ele><time>2026-05-01T15:32:19.155Z</time></trkpt><trkpt lat="44.5980733" lon="8.522095"><ele>474.0</ele><time>2026-05-01T15:32:20.161Z</time></trkpt><trkpt lat="44.598195" lon="8.5221283"><ele>474.0</ele><time>2026-05-01T15:32:21.16Z</time></trkpt><trkpt lat="44.5983033" lon="8.52217"><ele>474.0</ele><time>2026-05-01T15:32:22.157Z</time></trkpt><trkpt lat="44.5984133" lon="8.522185"><ele>474.0</ele><time>2026-05-01T15:32:23.157Z</time></trkpt><trkpt lat="44.598525" lon="8.522195"><ele>474.0</ele><time>2026-05-01T15:32:24.157Z</time></trkpt><trkpt lat="44.59863" lon="8.5221933"><ele>474.0</ele><time>2026-05-01T15:32:25.157Z</time></trkpt><trkpt lat="44.5987467" lon="8.5221833"><ele>474.0</ele><time>2026-05-01T15:32:26.154Z</time></trkpt><trkpt lat="44.5988717" lon="8.5221617"><ele>473.25</ele><time>2026-05-01T15:32:27.154Z</time></trkpt><trkpt lat="44.598995" lon="8.5221117"><ele>472.5</ele><time>2026-05-01T15:32:28.152Z</time></trkpt><trkpt lat="44.5991167" lon="8.5220067"><ele>471.75</ele><time>2026-05-01T15:32:29.155Z</time></trkpt><trkpt lat="44.5992083" lon="8.5219"><ele>471.0</ele><time>2026-05-01T15:32:30.151Z</time></trkpt><trkpt lat="44.5993133" lon="8.52184"><ele>468.4</ele><time>2026-05-01T15:32:31.153Z</time></trkpt><trkpt lat="44.5994033" lon="8.5217383"><ele>465.8</ele><time>2026-05-01T15:32:32.151Z</time></trkpt><trkpt lat="44.5995" lon="8.5216533"><ele>463.19999999999993</ele><time>2026-05-01T15:32:33.157Z</time></trkpt><trkpt lat="44.599595" lon="8.5215933"><ele>460.59999999999997</ele><time>2026-05-01T15:32:34.151Z</time></trkpt><trkpt lat="44.5996867" lon="8.5215617"><ele>458.0</ele><time>2026-05-01T15:32:35.153Z</time></trkpt><trkpt lat="44.5997817" lon="8.52153"><ele>458.0</ele><time>2026-05-01T15:32:36.154Z</time></trkpt><trkpt lat="44.5998833" lon="8.5214983"><ele>457.99999999999994</ele><time>2026-05-01T15:32:37.154Z</time></trkpt><trkpt lat="44.599985" lon="8.5214717"><ele>457.99999999999994</ele><time>2026-05-01T15:32:38.155Z</time></trkpt><trkpt lat="44.600085" lon="8.5214567"><ele>458.0</ele><time>2026-05-01T15:32:39.154Z</time></trkpt><trkpt lat="44.60019" lon="8.52144"><ele>458.0</ele><time>2026-05-01T15:32:40.152Z</time></trkpt><trkpt lat="44.600285" lon="8.5214483"><ele>456.75</ele><time>2026-05-01T15:32:41.152Z</time></trkpt><trkpt lat="44.6003867" lon="8.521485"><ele>455.5</ele><time>2026-05-01T15:32:42.151Z</time></trkpt><trkpt lat="44.60049" lon="8.52153"><ele>454.25</ele><time>2026-05-01T15:32:43.154Z</time></trkpt><trkpt lat="44.6005933" lon="8.5216017"><ele>453.0</ele><time>2026-05-01T15:32:44.155Z</time></trkpt><trkpt lat="44.6007133" lon="8.5216667"><ele>453.0</ele><time>2026-05-01T15:32:45.151Z</time></trkpt><trkpt lat="44.6008317" lon="8.521745"><ele>453.0</ele><time>2026-05-01T15:32:46.158Z</time></trkpt><trkpt lat="44.6009533" lon="8.5218317"><ele>453.0</ele><time>2026-05-01T15:32:47.152Z</time></trkpt><trkpt lat="44.60105" lon="8.521945"><ele>453.0</ele><time>2026-05-01T15:32:48.151Z</time></trkpt><trkpt lat="44.6011367" lon="8.5220533"><ele>456.0</ele><time>2026-05-01T15:32:49.156Z</time></trkpt><trkpt lat="44.6012117" lon="8.52216"><ele>458.99999999999994</ele><time>2026-05-01T15:32:50.153Z</time></trkpt><trkpt lat="44.6012817" lon="8.52224"><ele>461.99999999999994</ele><time>2026-05-01T15:32:51.159Z</time></trkpt><trkpt lat="44.6013483" lon="8.522295"><ele>465.0</ele><time>2026-05-01T15:32:52.151Z</time></trkpt><trkpt lat="44.601475" lon="8.52226"><ele>468.0</ele><time>2026-05-01T15:32:54.155Z</time></trkpt><trkpt lat="44.6015333" lon="8.5222233"><ele>468.0</ele><time>2026-05-01T15:32:55.151Z</time></trkpt><trkpt lat="44.6015867" lon="8.522165"><ele>467.99999999999994</ele><time>2026-05-01T15:32:56.152Z</time></trkpt><trkpt lat="44.6016467" lon="8.522035"><ele>467.99999999999994</ele><time>2026-05-01T15:32:57.153Z</time></trkpt><trkpt lat="44.6017083" lon="8.5219133"><ele>468.0</ele><time>2026-05-01T15:32:58.155Z</time></trkpt><trkpt lat="44.6017767" lon="8.5217833"><ele>468.0</ele><time>2026-05-01T15:32:59.154Z</time></trkpt><trkpt lat="44.601865" lon="8.52171"><ele>468.0</ele><time>2026-05-01T15:33:00.151Z</time></trkpt><trkpt lat="44.6019567" lon="8.5216433"><ele>467.99999999999994</ele><time>2026-05-01T15:33:01.152Z</time></trkpt><trkpt lat="44.6020533" lon="8.52159"><ele>467.99999999999994</ele><time>2026-05-01T15:33:02.156Z</time></trkpt><trkpt lat="44.60216" lon="8.5215333"><ele>468.0</ele><time>2026-05-01T15:33:03.156Z</time></trkpt><trkpt lat="44.602275" lon="8.5214717"><ele>468.0</ele><time>2026-05-01T15:33:04.151Z</time></trkpt><trkpt lat="44.6023817" lon="8.5214183"><ele>468.0</ele><time>2026-05-01T15:33:05.15Z</time></trkpt><trkpt lat="44.60248" lon="8.5213883"><ele>467.99999999999994</ele><time>2026-05-01T15:33:06.152Z</time></trkpt><trkpt lat="44.6025683" lon="8.5213767"><ele>467.99999999999994</ele><time>2026-05-01T15:33:07.156Z</time></trkpt><trkpt lat="44.6026617" lon="8.5213783"><ele>468.0</ele><time>2026-05-01T15:33:08.152Z</time></trkpt><trkpt lat="44.60276" lon="8.5213917"><ele>468.0</ele><time>2026-05-01T15:33:09.154Z</time></trkpt><trkpt lat="44.60286" lon="8.5214017"><ele>466.75</ele><time>2026-05-01T15:33:10.16Z</time></trkpt><trkpt lat="44.6029867" lon="8.5214267"><ele>465.5</ele><time>2026-05-01T15:33:11.155Z</time></trkpt><trkpt lat="44.6031167" lon="8.521445"><ele>464.25</ele><time>2026-05-01T15:33:12.154Z</time></trkpt><trkpt lat="44.6032417" lon="8.5214733"><ele>463.0</ele><time>2026-05-01T15:33:13.151Z</time></trkpt><trkpt lat="44.6033617" lon="8.5215033"><ele>463.0</ele><time>2026-05-01T15:33:14.155Z</time></trkpt><trkpt lat="44.6034717" lon="8.5215567"><ele>462.99999999999994</ele><time>2026-05-01T15:33:15.153Z</time></trkpt><trkpt lat="44.6035683" lon="8.5216067"><ele>462.99999999999994</ele><time>2026-05-01T15:33:16.154Z</time></trkpt><trkpt lat="44.603655" lon="8.52169"><ele>463.0</ele><time>2026-05-01T15:33:17.158Z</time></trkpt><trkpt lat="44.603735" lon="8.5217767"><ele>463.0</ele><time>2026-05-01T15:33:18.153Z</time></trkpt><trkpt lat="44.60381" lon="8.5218733"><ele>462.4</ele><time>2026-05-01T15:33:19.154Z</time></trkpt><trkpt lat="44.6038883" lon="8.52195"><ele>461.79999999999995</ele><time>2026-05-01T15:33:20.153Z</time></trkpt><trkpt lat="44.6039683" lon="8.5220217"><ele>461.2</ele><time>2026-05-01T15:33:21.153Z</time></trkpt><trkpt lat="44.6040467" lon="8.5220833"><ele>460.6</ele><time>2026-05-01T15:33:22.154Z</time></trkpt><trkpt lat="44.60413" lon="8.522125"><ele>460.0</ele><time>2026-05-01T15:33:23.153Z</time></trkpt><trkpt lat="44.6042117" lon="8.5221767"><ele>460.00000000000006</ele><time>2026-05-01T15:33:24.153Z</time></trkpt><trkpt lat="44.6042883" lon="8.522235"><ele>460.0</ele><time>2026-05-01T15:33:25.153Z</time></trkpt><trkpt lat="44.60436" lon="8.522295"><ele>460.0</ele><time>2026-05-01T15:33:26.151Z</time></trkpt><trkpt lat="44.6044333" lon="8.5223617"><ele>460.0</ele><time>2026-05-01T15:33:27.155Z</time></trkpt><trkpt lat="44.6045" lon="8.52244"><ele>460.00000000000006</ele><time>2026-05-01T15:33:28.155Z</time></trkpt><trkpt lat="44.604565" lon="8.5225083"><ele>460.0</ele><time>2026-05-01T15:33:29.155Z</time></trkpt><trkpt lat="44.60463" lon="8.5225667"><ele>458.00000000000006</ele><time>2026-05-01T15:33:30.156Z</time></trkpt><trkpt lat="44.6046967" lon="8.52263"><ele>456.0</ele><time>2026-05-01T15:33:31.156Z</time></trkpt><trkpt lat="44.6047633" lon="8.5226883"><ele>454.0</ele><time>2026-05-01T15:33:32.152Z</time></trkpt><trkpt lat="44.6048417" lon="8.52273"><ele>452.0</ele><time>2026-05-01T15:33:33.154Z</time></trkpt><trkpt lat="44.6048933" lon="8.522815"><ele>450.00000000000006</ele><time>2026-05-01T15:33:34.155Z</time></trkpt><trkpt lat="44.6049467" lon="8.522895"><ele>448.0</ele><time>2026-05-01T15:33:35.158Z</time></trkpt><trkpt lat="44.604995" lon="8.5229867"><ele>448.0</ele><time>2026-05-01T15:33:36.157Z</time></trkpt><trkpt lat="44.6050433" lon="8.52308"><ele>447.99999999999994</ele><time>2026-05-01T15:33:37.158Z</time></trkpt><trkpt lat="44.6050783" lon="8.5231967"><ele>447.99999999999994</ele><time>2026-05-01T15:33:38.155Z</time></trkpt><trkpt lat="44.6051183" lon="8.5233217"><ele>448.0</ele><time>2026-05-01T15:33:39.154Z</time></trkpt><trkpt lat="44.6051633" lon="8.5234633"><ele>448.0</ele><time>2026-05-01T15:33:40.157Z</time></trkpt><trkpt lat="44.6052233" lon="8.5235867"><ele>448.0</ele><time>2026-05-01T15:33:41.157Z</time></trkpt><trkpt lat="44.6052833" lon="8.5237233"><ele>448.0</ele><time>2026-05-01T15:33:42.153Z</time></trkpt><trkpt lat="44.60535" lon="8.523855"><ele>448.0</ele><time>2026-05-01T15:33:43.154Z</time></trkpt><trkpt lat="44.605435" lon="8.5239617"><ele>448.0</ele><time>2026-05-01T15:33:44.153Z</time></trkpt><trkpt lat="44.6055283" lon="8.5240683"><ele>446.4</ele><time>2026-05-01T15:33:45.158Z</time></trkpt><trkpt lat="44.60562" lon="8.52418"><ele>444.79999999999995</ele><time>2026-05-01T15:33:46.154Z</time></trkpt><trkpt lat="44.6057033" lon="8.5242817"><ele>443.2</ele><time>2026-05-01T15:33:47.15Z</time></trkpt><trkpt lat="44.6057633" lon="8.5244017"><ele>441.6</ele><time>2026-05-01T15:33:48.157Z</time></trkpt><trkpt lat="44.6058083" lon="8.5245017"><ele>440.0</ele><time>2026-05-01T15:33:49.154Z</time></trkpt><trkpt lat="44.6058367" lon="8.5246117"><ele>439.99999999999994</ele><time>2026-05-01T15:33:50.156Z</time></trkpt><trkpt lat="44.6058467" lon="8.52474"><ele>440.0</ele><time>2026-05-01T15:33:51.155Z</time></trkpt><trkpt lat="44.6058367" lon="8.5248667"><ele>440.0</ele><time>2026-05-01T15:33:52.154Z</time></trkpt><trkpt lat="44.60584" lon="8.5249833"><ele>440.0</ele><time>2026-05-01T15:33:53.156Z</time></trkpt><trkpt lat="44.6058533" lon="8.5250967"><ele>439.99999999999994</ele><time>2026-05-01T15:33:54.155Z</time></trkpt><trkpt lat="44.60588" lon="8.5252117"><ele>440.0</ele><time>2026-05-01T15:33:55.154Z</time></trkpt><trkpt lat="44.6059467" lon="8.5252833"><ele>440.0</ele><time>2026-05-01T15:33:56.151Z</time></trkpt><trkpt lat="44.6060283" lon="8.5253517"><ele>440.0</ele><time>2026-05-01T15:33:57.149Z</time></trkpt><trkpt lat="44.6061217" lon="8.52542"><ele>440.0</ele><time>2026-05-01T15:33:58.152Z</time></trkpt><trkpt lat="44.606215" lon="8.52549"><ele>440.0</ele><time>2026-05-01T15:33:59.158Z</time></trkpt><trkpt lat="44.6063167" lon="8.52554"><ele>440.0</ele><time>2026-05-01T15:34:00.152Z</time></trkpt><trkpt lat="44.606415" lon="8.5255633"><ele>436.2</ele><time>2026-05-01T15:34:01.151Z</time></trkpt><trkpt lat="44.60652" lon="8.52557"><ele>432.4</ele><time>2026-05-01T15:34:02.153Z</time></trkpt><trkpt lat="44.6066217" lon="8.5255617"><ele>428.6</ele><time>2026-05-01T15:34:03.153Z</time></trkpt><trkpt lat="44.606715" lon="8.52554"><ele>424.8</ele><time>2026-05-01T15:34:04.153Z</time></trkpt><trkpt lat="44.6068" lon="8.5255217"><ele>421.0</ele><time>2026-05-01T15:34:05.157Z</time></trkpt><trkpt lat="44.606885" lon="8.525505"><ele>421.0</ele><time>2026-05-01T15:34:06.155Z</time></trkpt><trkpt lat="44.6069783" lon="8.525505"><ele>421.0</ele><time>2026-05-01T15:34:07.155Z</time></trkpt><trkpt lat="44.6070733" lon="8.5255367"><ele>421.0</ele><time>2026-05-01T15:34:08.158Z</time></trkpt><trkpt lat="44.60717" lon="8.5256067"><ele>421.0</ele><time>2026-05-01T15:34:09.155Z</time></trkpt><trkpt lat="44.607245" lon="8.5256817"><ele>421.0</ele><time>2026-05-01T15:34:10.165Z</time></trkpt><trkpt lat="44.60731" lon="8.5257483"><ele>420.4</ele><time>2026-05-01T15:34:11.157Z</time></trkpt><trkpt lat="44.6074167" lon="8.5258417"><ele>419.8</ele><time>2026-05-01T15:34:13.16Z</time></trkpt><trkpt lat="44.6074817" lon="8.5258867"><ele>419.2</ele><time>2026-05-01T15:34:14.158Z</time></trkpt><trkpt lat="44.6075583" lon="8.52592"><ele>418.59999999999997</ele><time>2026-05-01T15:34:15.153Z</time></trkpt><trkpt lat="44.6076383" lon="8.5259533"><ele>418.0</ele><time>2026-05-01T15:34:16.153Z</time></trkpt><trkpt lat="44.6077317" lon="8.5259767"><ele>418.5</ele><time>2026-05-01T15:34:17.152Z</time></trkpt><trkpt lat="44.6078417" lon="8.5259817"><ele>419.0</ele><time>2026-05-01T15:34:18.16Z</time></trkpt><trkpt lat="44.6079583" lon="8.5259617"><ele>419.5</ele><time>2026-05-01T15:34:19.153Z</time></trkpt><trkpt lat="44.60808" lon="8.5259183"><ele>420.0</ele><time>2026-05-01T15:34:20.157Z</time></trkpt><trkpt lat="44.6082017" lon="8.5258583"><ele>420.0</ele><time>2026-05-01T15:34:21.153Z</time></trkpt><trkpt lat="44.608325" lon="8.525785"><ele>420.0</ele><time>2026-05-01T15:34:22.155Z</time></trkpt><trkpt lat="44.6084533" lon="8.5257"><ele>420.0</ele><time>2026-05-01T15:34:23.149Z</time></trkpt><trkpt lat="44.60858" lon="8.525615"><ele>420.0</ele><time>2026-05-01T15:34:24.157Z</time></trkpt><trkpt lat="44.6086983" lon="8.5255267"><ele>419.25</ele><time>2026-05-01T15:34:25.152Z</time></trkpt><trkpt lat="44.60881" lon="8.52542"><ele>418.5</ele><time>2026-05-01T15:34:26.151Z</time></trkpt><trkpt lat="44.608905" lon="8.5252917"><ele>417.75</ele><time>2026-05-01T15:34:27.152Z</time></trkpt><trkpt lat="44.60898" lon="8.525145"><ele>417.0</ele><time>2026-05-01T15:34:28.152Z</time></trkpt><trkpt lat="44.6090383" lon="8.5249933"><ele>417.0</ele><time>2026-05-01T15:34:29.155Z</time></trkpt><trkpt lat="44.6090717" lon="8.52483"><ele>417.0</ele><time>2026-05-01T15:34:30.153Z</time></trkpt><trkpt lat="44.6090833" lon="8.52465"><ele>417.0</ele><time>2026-05-01T15:34:31.153Z</time></trkpt><trkpt lat="44.6090833" lon="8.5244683"><ele>417.0</ele><time>2026-05-01T15:34:32.152Z</time></trkpt><trkpt lat="44.6090817" lon="8.5242783"><ele>419.0</ele><time>2026-05-01T15:34:33.152Z</time></trkpt><trkpt lat="44.6090967" lon="8.524105"><ele>421.0</ele><time>2026-05-01T15:34:34.154Z</time></trkpt><trkpt lat="44.6091233" lon="8.5239333"><ele>423.0</ele><time>2026-05-01T15:34:35.161Z</time></trkpt><trkpt lat="44.6091617" lon="8.5237633"><ele>425.0</ele><time>2026-05-01T15:34:36.155Z</time></trkpt><trkpt lat="44.6092233" lon="8.5236183"><ele>425.0</ele><time>2026-05-01T15:34:37.158Z</time></trkpt><trkpt lat="44.60931" lon="8.5234883"><ele>425.0</ele><time>2026-05-01T15:34:38.153Z</time></trkpt><trkpt lat="44.6094167" lon="8.5233567"><ele>425.0</ele><time>2026-05-01T15:34:39.159Z</time></trkpt><trkpt lat="44.60953" lon="8.5232167"><ele>425.0</ele><time>2026-05-01T15:34:40.158Z</time></trkpt><trkpt lat="44.6096533" lon="8.5230683"><ele>425.0</ele><time>2026-05-01T15:34:41.154Z</time></trkpt><trkpt lat="44.60978" lon="8.52291"><ele>425.0</ele><time>2026-05-01T15:34:42.152Z</time></trkpt><trkpt lat="44.60991" lon="8.5227533"><ele>425.0</ele><time>2026-05-01T15:34:43.153Z</time></trkpt><trkpt lat="44.6100333" lon="8.522605"><ele>427.0</ele><time>2026-05-01T15:34:44.154Z</time></trkpt><trkpt lat="44.6101433" lon="8.522475"><ele>429.0</ele><time>2026-05-01T15:34:45.159Z</time></trkpt><trkpt lat="44.6102333" lon="8.5223683"><ele>431.0</ele><time>2026-05-01T15:34:46.151Z</time></trkpt><trkpt lat="44.6103017" lon="8.522295"><ele>433.0</ele><time>2026-05-01T15:34:47.158Z</time></trkpt><trkpt lat="44.6103817" lon="8.5221883"><ele>433.4</ele><time>2026-05-01T15:34:49.158Z</time></trkpt><trkpt lat="44.61046" lon="8.5221767"><ele>433.79999999999995</ele><time>2026-05-01T15:34:55.152Z</time></trkpt><trkpt lat="44.6105333" lon="8.52217"><ele>434.2</ele><time>2026-05-01T15:34:57.154Z</time></trkpt><trkpt lat="44.6106233" lon="8.5220967"><ele>434.6</ele><time>2026-05-01T15:34:59.159Z</time></trkpt><trkpt lat="44.6107067" lon="8.5219917"><ele>435.0</ele><time>2026-05-01T15:35:01.155Z</time></trkpt><trkpt lat="44.6107983" lon="8.52189"><ele>437.0</ele><time>2026-05-01T15:35:03.153Z</time></trkpt><trkpt lat="44.61085" lon="8.521835"><ele>439.0</ele><time>2026-05-01T15:35:04.153Z</time></trkpt><trkpt lat="44.6109483" lon="8.5217483"><ele>441.0</ele><time>2026-05-01T15:35:06.158Z</time></trkpt><trkpt lat="44.6110133" lon="8.5217467"><ele>443.0</ele><time>2026-05-01T15:35:07.156Z</time></trkpt><trkpt lat="44.6111033" lon="8.52187"><ele>445.0</ele><time>2026-05-01T15:35:09.154Z</time></trkpt><trkpt lat="44.6111533" lon="8.521945"><ele>447.0</ele><time>2026-05-01T15:35:10.156Z</time></trkpt><trkpt lat="44.61121" lon="8.52201"><ele>447.40000000000003</ele><time>2026-05-01T15:35:11.157Z</time></trkpt><trkpt lat="44.6112667" lon="8.5220567"><ele>447.80000000000007</ele><time>2026-05-01T15:35:12.155Z</time></trkpt><trkpt lat="44.6113667" lon="8.5220383"><ele>448.2</ele><time>2026-05-01T15:35:14.152Z</time></trkpt><trkpt lat="44.6114733" lon="8.5219817"><ele>448.6</ele><time>2026-05-01T15:35:16.154Z</time></trkpt><trkpt lat="44.6115583" lon="8.522035"><ele>449.0</ele><time>2026-05-01T15:35:18.152Z</time></trkpt><trkpt lat="44.6116283" lon="8.5221917"><ele>449.0</ele><time>2026-05-01T15:35:20.153Z</time></trkpt><trkpt lat="44.6116667" lon="8.5223083"><ele>449.0</ele><time>2026-05-01T15:35:21.153Z</time></trkpt><trkpt lat="44.61171" lon="8.5224317"><ele>449.0</ele><time>2026-05-01T15:35:22.154Z</time></trkpt><trkpt lat="44.6117667" lon="8.5225517"><ele>449.0</ele><time>2026-05-01T15:35:23.158Z</time></trkpt><trkpt lat="44.6118317" lon="8.52266"><ele>449.0</ele><time>2026-05-01T15:35:24.156Z</time></trkpt><trkpt lat="44.61189" lon="8.5227633"><ele>448.99999999999994</ele><time>2026-05-01T15:35:25.156Z</time></trkpt><trkpt lat="44.61193" lon="8.5228633"><ele>449.0</ele><time>2026-05-01T15:35:26.158Z</time></trkpt><trkpt lat="44.6119533" lon="8.52297"><ele>449.0</ele><time>2026-05-01T15:35:27.159Z</time></trkpt><trkpt lat="44.611945" lon="8.5230717"><ele>449.0</ele><time>2026-05-01T15:35:28.157Z</time></trkpt><trkpt lat="44.6119433" lon="8.523175"><ele>448.99999999999994</ele><time>2026-05-01T15:35:29.154Z</time></trkpt><trkpt lat="44.6119517" lon="8.5232883"><ele>449.0</ele><time>2026-05-01T15:35:30.157Z</time></trkpt><trkpt lat="44.6119767" lon="8.5233933"><ele>449.16666666666663</ele><time>2026-05-01T15:35:31.156Z</time></trkpt><trkpt lat="44.6120067" lon="8.5234933"><ele>449.3333333333333</ele><time>2026-05-01T15:35:32.153Z</time></trkpt><trkpt lat="44.61205" lon="8.5235833"><ele>449.5</ele><time>2026-05-01T15:35:33.152Z</time></trkpt><trkpt lat="44.6120967" lon="8.523665"><ele>449.66666666666663</ele><time>2026-05-01T15:35:34.161Z</time></trkpt><trkpt lat="44.6121467" lon="8.5237317"><ele>449.8333333333333</ele><time>2026-05-01T15:35:35.155Z</time></trkpt><trkpt lat="44.6121883" lon="8.5238017"><ele>450.0</ele><time>2026-05-01T15:35:36.159Z</time></trkpt><trkpt lat="44.6122283" lon="8.523965"><ele>450.0</ele><time>2026-05-01T15:35:38.157Z</time></trkpt><trkpt lat="44.6122533" lon="8.52406"><ele>450.0</ele><time>2026-05-01T15:35:39.158Z</time></trkpt><trkpt lat="44.6122967" lon="8.5241567"><ele>450.0</ele><time>2026-05-01T15:35:40.155Z</time></trkpt><trkpt lat="44.6123517" lon="8.5242533"><ele>450.0</ele><time>2026-05-01T15:35:41.156Z</time></trkpt><trkpt lat="44.6124167" lon="8.5243467"><ele>450.0</ele><time>2026-05-01T15:35:42.153Z</time></trkpt><trkpt lat="44.61249" lon="8.5244417"><ele>450.0</ele><time>2026-05-01T15:35:43.16Z</time></trkpt><trkpt lat="44.612565" lon="8.524535"><ele>448.8333333333333</ele><time>2026-05-01T15:35:44.155Z</time></trkpt><trkpt lat="44.61263" lon="8.5246367"><ele>447.66666666666663</ele><time>2026-05-01T15:35:45.155Z</time></trkpt><trkpt lat="44.6126867" lon="8.5247267"><ele>446.5</ele><time>2026-05-01T15:35:46.16Z</time></trkpt><trkpt lat="44.6127433" lon="8.5248033"><ele>445.3333333333333</ele><time>2026-05-01T15:35:47.155Z</time></trkpt><trkpt lat="44.61281" lon="8.524855"><ele>444.16666666666663</ele><time>2026-05-01T15:35:48.157Z</time></trkpt><trkpt lat="44.6128733" lon="8.5248683"><ele>443.0</ele><time>2026-05-01T15:35:49.153Z</time></trkpt><trkpt lat="44.61294" lon="8.5248317"><ele>443.0</ele><time>2026-05-01T15:35:50.151Z</time></trkpt><trkpt lat="44.6130033" lon="8.5247733"><ele>442.99999999999994</ele><time>2026-05-01T15:35:51.161Z</time></trkpt><trkpt lat="44.613065" lon="8.524695"><ele>442.99999999999994</ele><time>2026-05-01T15:35:52.156Z</time></trkpt><trkpt lat="44.6131467" lon="8.5246233"><ele>443.0</ele><time>2026-05-01T15:35:53.154Z</time></trkpt><trkpt lat="44.6132417" lon="8.52455"><ele>443.0</ele><time>2026-05-01T15:35:54.151Z</time></trkpt><trkpt lat="44.6133483" lon="8.52449"><ele>447.0</ele><time>2026-05-01T15:35:55.153Z</time></trkpt><trkpt lat="44.6134567" lon="8.5244317"><ele>450.99999999999994</ele><time>2026-05-01T15:35:56.153Z</time></trkpt><trkpt lat="44.6135567" lon="8.5243783"><ele>454.99999999999994</ele><time>2026-05-01T15:35:57.155Z</time></trkpt><trkpt lat="44.6136417" lon="8.5243417"><ele>459.0</ele><time>2026-05-01T15:35:58.154Z</time></trkpt><trkpt lat="44.6137167" lon="8.524325"><ele>463.0</ele><time>2026-05-01T15:35:59.155Z</time></trkpt><trkpt lat="44.6137883" lon="8.5243333"><ele>463.0</ele><time>2026-05-01T15:36:00.157Z</time></trkpt><trkpt lat="44.61386" lon="8.5243767"><ele>462.99999999999994</ele><time>2026-05-01T15:36:01.156Z</time></trkpt><trkpt lat="44.613915" lon="8.5244967"><ele>462.99999999999994</ele><time>2026-05-01T15:36:02.157Z</time></trkpt><trkpt lat="44.613975" lon="8.5246017"><ele>463.0</ele><time>2026-05-01T15:36:03.156Z</time></trkpt><trkpt lat="44.614015" lon="8.524735"><ele>463.0</ele><time>2026-05-01T15:36:04.154Z</time></trkpt><trkpt lat="44.614045" lon="8.524865"><ele>463.0</ele><time>2026-05-01T15:36:05.156Z</time></trkpt><trkpt lat="44.6140567" lon="8.525025"><ele>463.0</ele><time>2026-05-01T15:36:06.155Z</time></trkpt><trkpt lat="44.6140633" lon="8.525185"><ele>463.0</ele><time>2026-05-01T15:36:07.159Z</time></trkpt><trkpt lat="44.6140667" lon="8.5253583"><ele>463.0</ele><time>2026-05-01T15:36:08.152Z</time></trkpt><trkpt lat="44.614075" lon="8.52553"><ele>460.5</ele><time>2026-05-01T15:36:09.156Z</time></trkpt><trkpt lat="44.6140833" lon="8.52571"><ele>458.0</ele><time>2026-05-01T15:36:10.153Z</time></trkpt><trkpt lat="44.6140883" lon="8.5258983"><ele>455.5</ele><time>2026-05-01T15:36:11.155Z</time></trkpt><trkpt lat="44.6140817" lon="8.5260867"><ele>453.0</ele><time>2026-05-01T15:36:12.155Z</time></trkpt><trkpt lat="44.614075" lon="8.52628"><ele>449.5</ele><time>2026-05-01T15:36:13.158Z</time></trkpt><trkpt lat="44.614075" lon="8.5264717"><ele>446.0</ele><time>2026-05-01T15:36:14.153Z</time></trkpt><trkpt lat="44.6140933" lon="8.5266567"><ele>442.5</ele><time>2026-05-01T15:36:15.155Z</time></trkpt><trkpt lat="44.6141" lon="8.5268283"><ele>439.0</ele><time>2026-05-01T15:36:16.154Z</time></trkpt><trkpt lat="44.6141083" lon="8.526975"><ele>436.0</ele><time>2026-05-01T15:36:17.152Z</time></trkpt><trkpt lat="44.6141383" lon="8.5271217"><ele>433.0</ele><time>2026-05-01T15:36:18.158Z</time></trkpt><trkpt lat="44.6141867" lon="8.5272417"><ele>430.0</ele><time>2026-05-01T15:36:19.154Z</time></trkpt><trkpt lat="44.6142467" lon="8.5273483"><ele>427.0</ele><time>2026-05-01T15:36:20.155Z</time></trkpt><trkpt lat="44.6143117" lon="8.5274717"><ele>424.0</ele><time>2026-05-01T15:36:21.155Z</time></trkpt><trkpt lat="44.6143983" lon="8.5275667"><ele>424.0</ele><time>2026-05-01T15:36:22.154Z</time></trkpt><trkpt lat="44.6144817" lon="8.527665"><ele>424.0</ele><time>2026-05-01T15:36:23.156Z</time></trkpt><trkpt lat="44.6145633" lon="8.5277317"><ele>424.0</ele><time>2026-05-01T15:36:24.154Z</time></trkpt><trkpt lat="44.6146533" lon="8.5277667"><ele>424.0</ele><time>2026-05-01T15:36:25.16Z</time></trkpt><trkpt lat="44.6147583" lon="8.5277817"><ele>424.0</ele><time>2026-05-01T15:36:26.159Z</time></trkpt><trkpt lat="44.614895" lon="8.52778"><ele>422.75</ele><time>2026-05-01T15:36:27.155Z</time></trkpt><trkpt lat="44.61503" lon="8.527795"><ele>421.5</ele><time>2026-05-01T15:36:28.155Z</time></trkpt><trkpt lat="44.615165" lon="8.5278117"><ele>420.25</ele><time>2026-05-01T15:36:29.155Z</time></trkpt><trkpt lat="44.6152967" lon="8.52785"><ele>419.0</ele><time>2026-05-01T15:36:30.155Z</time></trkpt><trkpt lat="44.6154183" lon="8.5278717"><ele>419.0</ele><time>2026-05-01T15:36:31.156Z</time></trkpt><trkpt lat="44.6155417" lon="8.5278817"><ele>419.0</ele><time>2026-05-01T15:36:32.155Z</time></trkpt><trkpt lat="44.61566" lon="8.52785"><ele>419.0</ele><time>2026-05-01T15:36:33.162Z</time></trkpt><trkpt lat="44.61577" lon="8.5277933"><ele>419.0</ele><time>2026-05-01T15:36:34.156Z</time></trkpt><trkpt lat="44.6158767" lon="8.5277283"><ele>419.0</ele><time>2026-05-01T15:36:35.158Z</time></trkpt><trkpt lat="44.615995" lon="8.5276817"><ele>419.0</ele><time>2026-05-01T15:36:36.156Z</time></trkpt><trkpt lat="44.6161117" lon="8.5276467"><ele>419.0</ele><time>2026-05-01T15:36:37.154Z</time></trkpt><trkpt lat="44.616225" lon="8.5276067"><ele>419.0</ele><time>2026-05-01T15:36:38.161Z</time></trkpt><trkpt lat="44.6163417" lon="8.52755"><ele>417.5</ele><time>2026-05-01T15:36:39.156Z</time></trkpt><trkpt lat="44.6164583" lon="8.5274783"><ele>416.0</ele><time>2026-05-01T15:36:40.158Z</time></trkpt><trkpt lat="44.61657" lon="8.52737"><ele>414.5</ele><time>2026-05-01T15:36:41.158Z</time></trkpt><trkpt lat="44.616685" lon="8.5272617"><ele>413.0</ele><time>2026-05-01T15:36:42.157Z</time></trkpt><trkpt lat="44.6168033" lon="8.52714"><ele>409.5</ele><time>2026-05-01T15:36:43.159Z</time></trkpt><trkpt lat="44.6169133" lon="8.52701"><ele>406.0</ele><time>2026-05-01T15:36:44.155Z</time></trkpt><trkpt lat="44.617015" lon="8.5268967"><ele>402.5</ele><time>2026-05-01T15:36:45.156Z</time></trkpt><trkpt lat="44.6171033" lon="8.5268083"><ele>399.0</ele><time>2026-05-01T15:36:46.158Z</time></trkpt><trkpt lat="44.6172017" lon="8.526765"><ele>398.0</ele><time>2026-05-01T15:36:47.158Z</time></trkpt><trkpt lat="44.617295" lon="8.5267283"><ele>397.0</ele><time>2026-05-01T15:36:48.154Z</time></trkpt><trkpt lat="44.6173883" lon="8.5266733"><ele>396.0</ele><time>2026-05-01T15:36:49.161Z</time></trkpt><trkpt lat="44.6174633" lon="8.5266117"><ele>395.0</ele><time>2026-05-01T15:36:50.158Z</time></trkpt><trkpt lat="44.617535" lon="8.5265367"><ele>394.0</ele><time>2026-05-01T15:36:51.155Z</time></trkpt><trkpt lat="44.617615" lon="8.5264883"><ele>394.0</ele><time>2026-05-01T15:36:52.157Z</time></trkpt><trkpt lat="44.6177083" lon="8.5264467"><ele>394.0</ele><time>2026-05-01T15:36:53.157Z</time></trkpt><trkpt lat="44.6178217" lon="8.52644"><ele>394.0</ele><time>2026-05-01T15:36:54.163Z</time></trkpt><trkpt lat="44.6179283" lon="8.5264317"><ele>394.0</ele><time>2026-05-01T15:36:55.162Z</time></trkpt><trkpt lat="44.6180233" lon="8.5264233"><ele>394.0</ele><time>2026-05-01T15:36:56.157Z</time></trkpt><trkpt lat="44.6181" lon="8.5264517"><ele>389.0</ele><time>2026-05-01T15:36:57.153Z</time></trkpt><trkpt lat="44.6181633" lon="8.5264867"><ele>384.0</ele><time>2026-05-01T15:36:58.154Z</time></trkpt><trkpt lat="44.618195" lon="8.5266517"><ele>379.0</ele><time>2026-05-01T15:37:00.154Z</time></trkpt><trkpt lat="44.6181867" lon="8.5267567"><ele>374.0</ele><time>2026-05-01T15:37:01.155Z</time></trkpt><trkpt lat="44.6181483" lon="8.5269"><ele>369.0</ele><time>2026-05-01T15:37:02.156Z</time></trkpt><trkpt lat="44.6181233" lon="8.5270433"><ele>369.0</ele><time>2026-05-01T15:37:03.158Z</time></trkpt><trkpt lat="44.6181083" lon="8.52719"><ele>369.0</ele><time>2026-05-01T15:37:04.154Z</time></trkpt><trkpt lat="44.618115" lon="8.5273283"><ele>369.0</ele><time>2026-05-01T15:37:05.159Z</time></trkpt><trkpt lat="44.6181433" lon="8.5274583"><ele>369.0</ele><time>2026-05-01T15:37:06.155Z</time></trkpt><trkpt lat="44.618185" lon="8.5275883"><ele>369.0</ele><time>2026-05-01T15:37:07.153Z</time></trkpt><trkpt lat="44.6182517" lon="8.527705"><ele>369.0</ele><time>2026-05-01T15:37:08.157Z</time></trkpt><trkpt lat="44.6183167" lon="8.5278033"><ele>369.0</ele><time>2026-05-01T15:37:09.156Z</time></trkpt><trkpt lat="44.6183917" lon="8.5278783"><ele>369.0</ele><time>2026-05-01T15:37:10.157Z</time></trkpt><trkpt lat="44.6184717" lon="8.52794"><ele>369.0</ele><time>2026-05-01T15:37:11.157Z</time></trkpt><trkpt lat="44.6185583" lon="8.5279867"><ele>369.0</ele><time>2026-05-01T15:37:12.159Z</time></trkpt><trkpt lat="44.61865" lon="8.5280383"><ele>365.2</ele><time>2026-05-01T15:37:13.154Z</time></trkpt><trkpt lat="44.6187467" lon="8.5280667"><ele>361.4</ele><time>2026-05-01T15:37:14.158Z</time></trkpt><trkpt lat="44.6188517" lon="8.5280967"><ele>357.6</ele><time>2026-05-01T15:37:15.157Z</time></trkpt><trkpt lat="44.6189617" lon="8.52812"><ele>353.8</ele><time>2026-05-01T15:37:16.152Z</time></trkpt><trkpt lat="44.6190783" lon="8.5281183"><ele>350.0</ele><time>2026-05-01T15:37:17.158Z</time></trkpt><trkpt lat="44.6192083" lon="8.5281017"><ele>350.0</ele><time>2026-05-01T15:37:18.158Z</time></trkpt><trkpt lat="44.6193433" lon="8.5280833"><ele>350.0</ele><time>2026-05-01T15:37:19.154Z</time></trkpt><trkpt lat="44.6194767" lon="8.52807"><ele>350.0</ele><time>2026-05-01T15:37:20.154Z</time></trkpt><trkpt lat="44.619605" lon="8.5280583"><ele>350.0</ele><time>2026-05-01T15:37:21.157Z</time></trkpt><trkpt lat="44.6197267" lon="8.528075"><ele>347.8</ele><time>2026-05-01T15:37:22.154Z</time></trkpt><trkpt lat="44.6198433" lon="8.528115"><ele>345.6</ele><time>2026-05-01T15:37:23.159Z</time></trkpt><trkpt lat="44.619945" lon="8.5281633"><ele>343.4</ele><time>2026-05-01T15:37:24.155Z</time></trkpt><trkpt lat="44.62003" lon="8.5282467"><ele>341.2</ele><time>2026-05-01T15:37:25.15Z</time></trkpt><trkpt lat="44.6201167" lon="8.52835"><ele>339.0</ele><time>2026-05-01T15:37:26.157Z</time></trkpt><trkpt lat="44.6201967" lon="8.5284733"><ele>339.0</ele><time>2026-05-01T15:37:27.152Z</time></trkpt><trkpt lat="44.6202867" lon="8.5286"><ele>339.0</ele><time>2026-05-01T15:37:28.152Z</time></trkpt><trkpt lat="44.6203833" lon="8.5287233"><ele>339.0</ele><time>2026-05-01T15:37:29.159Z</time></trkpt><trkpt lat="44.620495" lon="8.528825"><ele>339.0</ele><time>2026-05-01T15:37:30.155Z</time></trkpt><trkpt lat="44.6206167" lon="8.528905"><ele>338.25</ele><time>2026-05-01T15:37:31.159Z</time></trkpt><trkpt lat="44.6207417" lon="8.5289817"><ele>337.5</ele><time>2026-05-01T15:37:32.159Z</time></trkpt><trkpt lat="44.6208833" lon="8.5290533"><ele>336.75</ele><time>2026-05-01T15:37:33.156Z</time></trkpt><trkpt lat="44.621025" lon="8.529115"><ele>336.0</ele><time>2026-05-01T15:37:34.157Z</time></trkpt><trkpt lat="44.6211667" lon="8.5291683"><ele>336.0</ele><time>2026-05-01T15:37:35.159Z</time></trkpt><trkpt lat="44.6212933" lon="8.5292183"><ele>336.0</ele><time>2026-05-01T15:37:36.155Z</time></trkpt><trkpt lat="44.621405" lon="8.529255"><ele>336.0</ele><time>2026-05-01T15:37:37.154Z</time></trkpt><trkpt lat="44.6215183" lon="8.5292617"><ele>336.0</ele><time>2026-05-01T15:37:38.157Z</time></trkpt><trkpt lat="44.6216317" lon="8.529235"><ele>336.0</ele><time>2026-05-01T15:37:39.155Z</time></trkpt><trkpt lat="44.6217517" lon="8.5291983"><ele>336.0</ele><time>2026-05-01T15:37:40.155Z</time></trkpt><trkpt lat="44.6218767" lon="8.5291567"><ele>336.0</ele><time>2026-05-01T15:37:41.153Z</time></trkpt><trkpt lat="44.6220067" lon="8.5291183"><ele>336.0</ele><time>2026-05-01T15:37:42.16Z</time></trkpt><trkpt lat="44.6221417" lon="8.5290833"><ele>336.5</ele><time>2026-05-01T15:37:43.161Z</time></trkpt><trkpt lat="44.622275" lon="8.5290433"><ele>337.0</ele><time>2026-05-01T15:37:44.16Z</time></trkpt><trkpt lat="44.6224083" lon="8.529005"><ele>337.5</ele><time>2026-05-01T15:37:45.155Z</time></trkpt><trkpt lat="44.6225417" lon="8.5289617"><ele>338.0</ele><time>2026-05-01T15:37:46.153Z</time></trkpt><trkpt lat="44.62267" lon="8.5289333"><ele>338.0</ele><time>2026-05-01T15:37:47.156Z</time></trkpt><trkpt lat="44.6227867" lon="8.5289017"><ele>338.0</ele><time>2026-05-01T15:37:48.159Z</time></trkpt><trkpt lat="44.6228883" lon="8.5288717"><ele>338.0</ele><time>2026-05-01T15:37:49.153Z</time></trkpt><trkpt lat="44.6229817" lon="8.528855"><ele>338.0</ele><time>2026-05-01T15:37:50.156Z</time></trkpt><trkpt lat="44.623065" lon="8.5288617"><ele>338.0</ele><time>2026-05-01T15:37:51.155Z</time></trkpt><trkpt lat="44.6231433" lon="8.528895"><ele>339.59999999999997</ele><time>2026-05-01T15:37:52.155Z</time></trkpt><trkpt lat="44.6232217" lon="8.5289617"><ele>341.2</ele><time>2026-05-01T15:37:53.154Z</time></trkpt><trkpt lat="44.6232983" lon="8.5290467"><ele>342.8</ele><time>2026-05-01T15:37:54.154Z</time></trkpt><trkpt lat="44.62338" lon="8.5291533"><ele>344.4</ele><time>2026-05-01T15:37:55.153Z</time></trkpt><trkpt lat="44.623465" lon="8.5292667"><ele>346.0</ele><time>2026-05-01T15:37:56.154Z</time></trkpt><trkpt lat="44.623545" lon="8.5293717"><ele>346.0</ele><time>2026-05-01T15:37:57.152Z</time></trkpt><trkpt lat="44.6236033" lon="8.5295"><ele>346.0</ele><time>2026-05-01T15:37:58.158Z</time></trkpt><trkpt lat="44.62364" lon="8.5296383"><ele>346.0</ele><time>2026-05-01T15:37:59.158Z</time></trkpt><trkpt lat="44.62366" lon="8.5297783"><ele>346.0</ele><time>2026-05-01T15:38:00.158Z</time></trkpt><trkpt lat="44.6236583" lon="8.5299133"><ele>346.0</ele><time>2026-05-01T15:38:01.156Z</time></trkpt><trkpt lat="44.6236367" lon="8.53006"><ele>344.8333333333333</ele><time>2026-05-01T15:38:02.155Z</time></trkpt><trkpt lat="44.6236083" lon="8.5301967"><ele>343.66666666666663</ele><time>2026-05-01T15:38:03.156Z</time></trkpt><trkpt lat="44.6235883" lon="8.5303183"><ele>342.5</ele><time>2026-05-01T15:38:04.158Z</time></trkpt><trkpt lat="44.62358" lon="8.5304133"><ele>341.3333333333333</ele><time>2026-05-01T15:38:05.156Z</time></trkpt><trkpt lat="44.623585" lon="8.530515"><ele>340.1666666666667</ele><time>2026-05-01T15:38:06.156Z</time></trkpt><trkpt lat="44.623595" lon="8.5306117"><ele>339.0</ele><time>2026-05-01T15:38:07.159Z</time></trkpt><trkpt lat="44.6236317" lon="8.5307117"><ele>339.79999999999995</ele><time>2026-05-01T15:38:08.156Z</time></trkpt><trkpt lat="44.6236867" lon="8.53081"><ele>340.59999999999997</ele><time>2026-05-01T15:38:09.154Z</time></trkpt><trkpt lat="44.6237467" lon="8.5309333"><ele>341.4</ele><time>2026-05-01T15:38:10.152Z</time></trkpt><trkpt lat="44.6238067" lon="8.5310567"><ele>342.2</ele><time>2026-05-01T15:38:11.153Z</time></trkpt><trkpt lat="44.623855" lon="8.5311817"><ele>343.0</ele><time>2026-05-01T15:38:12.159Z</time></trkpt><trkpt lat="44.6238933" lon="8.5313117"><ele>343.0</ele><time>2026-05-01T15:38:13.155Z</time></trkpt><trkpt lat="44.6239183" lon="8.5314567"><ele>343.0</ele><time>2026-05-01T15:38:14.154Z</time></trkpt><trkpt lat="44.623935" lon="8.531605"><ele>343.0</ele><time>2026-05-01T15:38:15.156Z</time></trkpt><trkpt lat="44.62394" lon="8.5317617"><ele>343.0</ele><time>2026-05-01T15:38:16.154Z</time></trkpt><trkpt lat="44.62394" lon="8.5319217"><ele>343.0</ele><time>2026-05-01T15:38:17.152Z</time></trkpt><trkpt lat="44.623935" lon="8.53208"><ele>343.2</ele><time>2026-05-01T15:38:18.151Z</time></trkpt><trkpt lat="44.6239167" lon="8.532235"><ele>343.4</ele><time>2026-05-01T15:38:19.156Z</time></trkpt><trkpt lat="44.62388" lon="8.5323867"><ele>343.59999999999997</ele><time>2026-05-01T15:38:20.156Z</time></trkpt><trkpt lat="44.6238383" lon="8.5325317"><ele>343.79999999999995</ele><time>2026-05-01T15:38:21.155Z</time></trkpt><trkpt lat="44.62378" lon="8.5326483"><ele>344.0</ele><time>2026-05-01T15:38:22.154Z</time></trkpt><trkpt lat="44.6237167" lon="8.5327417"><ele>344.0</ele><time>2026-05-01T15:38:23.155Z</time></trkpt><trkpt lat="44.6236667" lon="8.5328167"><ele>344.0</ele><time>2026-05-01T15:38:24.154Z</time></trkpt><trkpt lat="44.6236183" lon="8.5328783"><ele>344.0</ele><time>2026-05-01T15:38:25.161Z</time></trkpt><trkpt lat="44.623635" lon="8.5330333"><ele>344.0</ele><time>2026-05-01T15:38:27.159Z</time></trkpt><trkpt lat="44.6236883" lon="8.5331217"><ele>344.0</ele><time>2026-05-01T15:38:28.164Z</time></trkpt><trkpt lat="44.6237417" lon="8.5332167"><ele>344.0</ele><time>2026-05-01T15:38:29.158Z</time></trkpt><trkpt lat="44.6237933" lon="8.53333"><ele>344.5</ele><time>2026-05-01T15:38:30.156Z</time></trkpt><trkpt lat="44.623845" lon="8.533455"><ele>345.0</ele><time>2026-05-01T15:38:31.155Z</time></trkpt><trkpt lat="44.6239083" lon="8.5335917"><ele>345.5</ele><time>2026-05-01T15:38:32.155Z</time></trkpt><trkpt lat="44.62399" lon="8.53373"><ele>346.0</ele><time>2026-05-01T15:38:33.15Z</time></trkpt><trkpt lat="44.6240667" lon="8.5338733"><ele>347.0</ele><time>2026-05-01T15:38:34.155Z</time></trkpt><trkpt lat="44.6241433" lon="8.534015"><ele>348.0</ele><time>2026-05-01T15:38:35.154Z</time></trkpt><trkpt lat="44.624235" lon="8.5341267"><ele>349.0</ele><time>2026-05-01T15:38:36.156Z</time></trkpt><trkpt lat="44.6243367" lon="8.53421"><ele>350.0</ele><time>2026-05-01T15:38:37.153Z</time></trkpt><trkpt lat="44.624445" lon="8.5342733"><ele>349.2</ele><time>2026-05-01T15:38:38.153Z</time></trkpt><trkpt lat="44.624545" lon="8.53434"><ele>348.4</ele><time>2026-05-01T15:38:39.153Z</time></trkpt><trkpt lat="44.6246367" lon="8.53442"><ele>347.6</ele><time>2026-05-01T15:38:40.154Z</time></trkpt><trkpt lat="44.624715" lon="8.53452"><ele>346.8</ele><time>2026-05-01T15:38:41.155Z</time></trkpt><trkpt lat="44.62479" lon="8.5346283"><ele>346.0</ele><time>2026-05-01T15:38:42.157Z</time></trkpt><trkpt lat="44.6248633" lon="8.5347517"><ele>348.5</ele><time>2026-05-01T15:38:43.153Z</time></trkpt><trkpt lat="44.6249517" lon="8.53486"><ele>351.0</ele><time>2026-05-01T15:38:44.15Z</time></trkpt><trkpt lat="44.6250383" lon="8.5349533"><ele>353.5</ele><time>2026-05-01T15:38:45.154Z</time></trkpt><trkpt lat="44.6251417" lon="8.5350217"><ele>356.0</ele><time>2026-05-01T15:38:46.154Z</time></trkpt><trkpt lat="44.6252533" lon="8.535075"><ele>356.75</ele><time>2026-05-01T15:38:47.15Z</time></trkpt><trkpt lat="44.6253767" lon="8.5351217"><ele>357.5</ele><time>2026-05-01T15:38:48.153Z</time></trkpt><trkpt lat="44.625505" lon="8.5351717"><ele>358.25</ele><time>2026-05-01T15:38:49.153Z</time></trkpt><trkpt lat="44.62564" lon="8.5352217"><ele>359.0</ele><time>2026-05-01T15:38:50.15Z</time></trkpt><trkpt lat="44.6257633" lon="8.5352833"><ele>359.0</ele><time>2026-05-01T15:38:51.149Z</time></trkpt><trkpt lat="44.625875" lon="8.5353567"><ele>359.0</ele><time>2026-05-01T15:38:52.153Z</time></trkpt><trkpt lat="44.6259817" lon="8.53543"><ele>359.0</ele><time>2026-05-01T15:38:53.154Z</time></trkpt><trkpt lat="44.6260767" lon="8.53549"><ele>359.0</ele><time>2026-05-01T15:38:54.151Z</time></trkpt><trkpt lat="44.6261583" lon="8.5355217"><ele>359.0</ele><time>2026-05-01T15:38:55.151Z</time></trkpt><trkpt lat="44.6262433" lon="8.5355167"><ele>362.0</ele><time>2026-05-01T15:38:56.15Z</time></trkpt><trkpt lat="44.6263167" lon="8.5354717"><ele>365.0</ele><time>2026-05-01T15:38:57.153Z</time></trkpt><trkpt lat="44.6263933" lon="8.5353817"><ele>368.0</ele><time>2026-05-01T15:38:58.153Z</time></trkpt><trkpt lat="44.62647" lon="8.5352667"><ele>371.0</ele><time>2026-05-01T15:38:59.151Z</time></trkpt><trkpt lat="44.6265317" lon="8.53513"><ele>374.0</ele><time>2026-05-01T15:39:00.154Z</time></trkpt><trkpt lat="44.6265767" lon="8.5349883"><ele>374.0</ele><time>2026-05-01T15:39:01.155Z</time></trkpt><trkpt lat="44.626625" lon="8.534875"><ele>374.0</ele><time>2026-05-01T15:39:02.152Z</time></trkpt><trkpt lat="44.6266733" lon="8.53478"><ele>374.0</ele><time>2026-05-01T15:39:03.149Z</time></trkpt><trkpt lat="44.6267217" lon="8.5347067"><ele>374.0</ele><time>2026-05-01T15:39:04.15Z</time></trkpt><trkpt lat="44.6268067" lon="8.5347133"><ele>374.0</ele><time>2026-05-01T15:39:05.152Z</time></trkpt><trkpt lat="44.6268917" lon="8.5346967"><ele>374.0</ele><time>2026-05-01T15:39:06.151Z</time></trkpt><trkpt lat="44.626985" lon="8.53469"><ele>372.1666666666667</ele><time>2026-05-01T15:39:07.153Z</time></trkpt><trkpt lat="44.6270933" lon="8.5347033"><ele>370.33333333333337</ele><time>2026-05-01T15:39:08.151Z</time></trkpt><trkpt lat="44.6271817" lon="8.5347167"><ele>368.5</ele><time>2026-05-01T15:39:09.152Z</time></trkpt><trkpt lat="44.62727" lon="8.5347367"><ele>366.6666666666667</ele><time>2026-05-01T15:39:10.153Z</time></trkpt><trkpt lat="44.6273483" lon="8.5347683"><ele>364.8333333333333</ele><time>2026-05-01T15:39:11.152Z</time></trkpt><trkpt lat="44.6274217" lon="8.53481"><ele>363.0</ele><time>2026-05-01T15:39:12.151Z</time></trkpt><trkpt lat="44.6274817" lon="8.53488"><ele>363.0</ele><time>2026-05-01T15:39:13.152Z</time></trkpt><trkpt lat="44.6275067" lon="8.5350233"><ele>363.0</ele><time>2026-05-01T15:39:14.157Z</time></trkpt><trkpt lat="44.6275333" lon="8.5351833"><ele>363.0</ele><time>2026-05-01T15:39:15.153Z</time></trkpt><trkpt lat="44.6275467" lon="8.535345"><ele>363.0</ele><time>2026-05-01T15:39:16.151Z</time></trkpt><trkpt lat="44.62754" lon="8.535515"><ele>365.75</ele><time>2026-05-01T15:39:17.151Z</time></trkpt><trkpt lat="44.627545" lon="8.535685"><ele>368.5</ele><time>2026-05-01T15:39:18.152Z</time></trkpt><trkpt lat="44.6275683" lon="8.5358583"><ele>371.25</ele><time>2026-05-01T15:39:19.152Z</time></trkpt><trkpt lat="44.6276033" lon="8.5360267"><ele>374.0</ele><time>2026-05-01T15:39:20.153Z</time></trkpt><trkpt lat="44.6276483" lon="8.5361733"><ele>375.2</ele><time>2026-05-01T15:39:21.15Z</time></trkpt><trkpt lat="44.627705" lon="8.53631"><ele>376.4</ele><time>2026-05-01T15:39:22.15Z</time></trkpt><trkpt lat="44.627765" lon="8.5364233"><ele>377.6</ele><time>2026-05-01T15:39:23.153Z</time></trkpt><trkpt lat="44.62783" lon="8.536515"><ele>378.8</ele><time>2026-05-01T15:39:24.154Z</time></trkpt><trkpt lat="44.6279083" lon="8.5365617"><ele>380.0</ele><time>2026-05-01T15:39:25.161Z</time></trkpt><trkpt lat="44.6279917" lon="8.536605"><ele>376.2</ele><time>2026-05-01T15:39:26.153Z</time></trkpt><trkpt lat="44.6280833" lon="8.5366217"><ele>372.4</ele><time>2026-05-01T15:39:27.152Z</time></trkpt><trkpt lat="44.6281817" lon="8.5366483"><ele>368.6</ele><time>2026-05-01T15:39:28.155Z</time></trkpt><trkpt lat="44.6282717" lon="8.5366817"><ele>364.8</ele><time>2026-05-01T15:39:29.156Z</time></trkpt><trkpt lat="44.6283733" lon="8.5366933"><ele>361.0</ele><time>2026-05-01T15:39:30.154Z</time></trkpt><trkpt lat="44.62848" lon="8.53671"><ele>361.0</ele><time>2026-05-01T15:39:31.154Z</time></trkpt><trkpt lat="44.6285917" lon="8.53672"><ele>361.0</ele><time>2026-05-01T15:39:32.159Z</time></trkpt><trkpt lat="44.6287167" lon="8.5367033"><ele>361.0</ele><time>2026-05-01T15:39:33.153Z</time></trkpt><trkpt lat="44.62886" lon="8.5366867"><ele>361.0</ele><time>2026-05-01T15:39:34.153Z</time></trkpt><trkpt lat="44.6289983" lon="8.5366667"><ele>360.0</ele><time>2026-05-01T15:39:35.155Z</time></trkpt><trkpt lat="44.62913" lon="8.5366617"><ele>359.0</ele><time>2026-05-01T15:39:36.156Z</time></trkpt><trkpt lat="44.62925" lon="8.5366783"><ele>358.0</ele><time>2026-05-01T15:39:37.153Z</time></trkpt><trkpt lat="44.62938" lon="8.5367067"><ele>357.0</ele><time>2026-05-01T15:39:38.156Z</time></trkpt><trkpt lat="44.6295233" lon="8.5367483"><ele>357.0</ele><time>2026-05-01T15:39:39.152Z</time></trkpt><trkpt lat="44.6296683" lon="8.5368117"><ele>357.0</ele><time>2026-05-01T15:39:40.154Z</time></trkpt><trkpt lat="44.629805" lon="8.5368817"><ele>357.0</ele><time>2026-05-01T15:39:41.151Z</time></trkpt><trkpt lat="44.62993" lon="8.5369567"><ele>357.0</ele><time>2026-05-01T15:39:42.16Z</time></trkpt><trkpt lat="44.6300417" lon="8.5370383"><ele>356.5</ele><time>2026-05-01T15:39:43.152Z</time></trkpt><trkpt lat="44.6301533" lon="8.53712"><ele>356.0</ele><time>2026-05-01T15:39:44.155Z</time></trkpt><trkpt lat="44.6302683" lon="8.53719"><ele>355.5</ele><time>2026-05-01T15:39:45.154Z</time></trkpt><trkpt lat="44.6303817" lon="8.5372467"><ele>355.0</ele><time>2026-05-01T15:39:46.151Z</time></trkpt><trkpt lat="44.6304967" lon="8.5372933"><ele>357.0</ele><time>2026-05-01T15:39:47.157Z</time></trkpt><trkpt lat="44.6306167" lon="8.53733"><ele>359.0</ele><time>2026-05-01T15:39:48.152Z</time></trkpt><trkpt lat="44.6307383" lon="8.537355"><ele>361.0</ele><time>2026-05-01T15:39:49.154Z</time></trkpt><trkpt lat="44.6308683" lon="8.5373733"><ele>363.0</ele><time>2026-05-01T15:39:50.148Z</time></trkpt><trkpt lat="44.6310017" lon="8.537385"><ele>363.0</ele><time>2026-05-01T15:39:51.15Z</time></trkpt><trkpt lat="44.63114" lon="8.5374067"><ele>363.0</ele><time>2026-05-01T15:39:52.155Z</time></trkpt><trkpt lat="44.6312767" lon="8.5374267"><ele>363.0</ele><time>2026-05-01T15:39:53.162Z</time></trkpt><trkpt lat="44.6314083" lon="8.5374567"><ele>363.0</ele><time>2026-05-01T15:39:54.158Z</time></trkpt><trkpt lat="44.6315333" lon="8.5375"><ele>361.25</ele><time>2026-05-01T15:39:55.157Z</time></trkpt><trkpt lat="44.6316583" lon="8.5375267"><ele>359.5</ele><time>2026-05-01T15:39:56.16Z</time></trkpt><trkpt lat="44.6317817" lon="8.5375833"><ele>357.75</ele><time>2026-05-01T15:39:57.16Z</time></trkpt><trkpt lat="44.6319033" lon="8.53766"><ele>356.0</ele><time>2026-05-01T15:39:58.157Z</time></trkpt><trkpt lat="44.6320267" lon="8.5377383"><ele>355.5</ele><time>2026-05-01T15:39:59.155Z</time></trkpt><trkpt lat="44.6321467" lon="8.53782"><ele>355.0</ele><time>2026-05-01T15:40:00.155Z</time></trkpt><trkpt lat="44.63225" lon="8.53791"><ele>354.5</ele><time>2026-05-01T15:40:01.159Z</time></trkpt><trkpt lat="44.6323433" lon="8.5380283"><ele>354.0</ele><time>2026-05-01T15:40:02.154Z</time></trkpt><trkpt lat="44.63244" lon="8.53816"><ele>356.6666666666667</ele><time>2026-05-01T15:40:03.156Z</time></trkpt><trkpt lat="44.6325383" lon="8.5383133"><ele>359.33333333333337</ele><time>2026-05-01T15:40:04.153Z</time></trkpt><trkpt lat="44.63264" lon="8.538485"><ele>362.0</ele><time>2026-05-01T15:40:05.155Z</time></trkpt><trkpt lat="44.632735" lon="8.5386667"><ele>364.0</ele><time>2026-05-01T15:40:06.153Z</time></trkpt><trkpt lat="44.6328283" lon="8.53885"><ele>366.0</ele><time>2026-05-01T15:40:07.158Z</time></trkpt><trkpt lat="44.6329233" lon="8.5390367"><ele>368.0</ele><time>2026-05-01T15:40:08.159Z</time></trkpt><trkpt lat="44.6330217" lon="8.53922"><ele>368.0</ele><time>2026-05-01T15:40:09.158Z</time></trkpt><trkpt lat="44.6331183" lon="8.539405"><ele>368.0</ele><time>2026-05-01T15:40:10.156Z</time></trkpt><trkpt lat="44.6332083" lon="8.53957"><ele>368.0</ele><time>2026-05-01T15:40:11.153Z</time></trkpt><trkpt lat="44.633285" lon="8.5397117"><ele>368.0</ele><time>2026-05-01T15:40:12.161Z</time></trkpt><trkpt lat="44.6333467" lon="8.5398417"><ele>366.25</ele><time>2026-05-01T15:40:13.157Z</time></trkpt><trkpt lat="44.6334" lon="8.5399733"><ele>364.5</ele><time>2026-05-01T15:40:14.155Z</time></trkpt><trkpt lat="44.63345" lon="8.5401067"><ele>362.75</ele><time>2026-05-01T15:40:15.154Z</time></trkpt><trkpt lat="44.6335033" lon="8.5402483"><ele>361.0</ele><time>2026-05-01T15:40:16.156Z</time></trkpt><trkpt lat="44.6335683" lon="8.5403983"><ele>355.75</ele><time>2026-05-01T15:40:17.153Z</time></trkpt><trkpt lat="44.6336417" lon="8.540555"><ele>350.5</ele><time>2026-05-01T15:40:18.152Z</time></trkpt><trkpt lat="44.6337117" lon="8.5407117"><ele>345.25</ele><time>2026-05-01T15:40:19.159Z</time></trkpt><trkpt lat="44.63377" lon="8.54088"><ele>340.0</ele><time>2026-05-01T15:40:20.155Z</time></trkpt><trkpt lat="44.6338183" lon="8.5410417"><ele>340.0</ele><time>2026-05-01T15:40:21.154Z</time></trkpt><trkpt lat="44.6338483" lon="8.5412083"><ele>340.0</ele><time>2026-05-01T15:40:22.153Z</time></trkpt><trkpt lat="44.6338733" lon="8.5413633"><ele>340.0</ele><time>2026-05-01T15:40:23.154Z</time></trkpt><trkpt lat="44.633915" lon="8.541495"><ele>340.0</ele><time>2026-05-01T15:40:24.155Z</time></trkpt><trkpt lat="44.6339617" lon="8.5416133"><ele>340.0</ele><time>2026-05-01T15:40:25.155Z</time></trkpt><trkpt lat="44.634035" lon="8.5417133"><ele>340.75</ele><time>2026-05-01T15:40:26.156Z</time></trkpt><trkpt lat="44.6341217" lon="8.5418083"><ele>341.5</ele><time>2026-05-01T15:40:27.154Z</time></trkpt><trkpt lat="44.634225" lon="8.541895"><ele>342.25</ele><time>2026-05-01T15:40:28.157Z</time></trkpt><trkpt lat="44.63434" lon="8.5419917"><ele>343.0</ele><time>2026-05-01T15:40:29.159Z</time></trkpt><trkpt lat="44.6344483" lon="8.5421"><ele>342.25</ele><time>2026-05-01T15:40:30.152Z</time></trkpt><trkpt lat="44.6345583" lon="8.5422067"><ele>341.5</ele><time>2026-05-01T15:40:31.159Z</time></trkpt><trkpt lat="44.6346683" lon="8.542315"><ele>340.75</ele><time>2026-05-01T15:40:32.152Z</time></trkpt><trkpt lat="44.634775" lon="8.5424217"><ele>340.0</ele><time>2026-05-01T15:40:33.155Z</time></trkpt><trkpt lat="44.6348783" lon="8.5425433"><ele>340.0</ele><time>2026-05-01T15:40:34.155Z</time></trkpt><trkpt lat="44.6349867" lon="8.5426333"><ele>340.0</ele><time>2026-05-01T15:40:35.155Z</time></trkpt><trkpt lat="44.6350967" lon="8.5427167"><ele>340.0</ele><time>2026-05-01T15:40:36.155Z</time></trkpt><trkpt lat="44.6352033" lon="8.5427883"><ele>340.0</ele><time>2026-05-01T15:40:37.156Z</time></trkpt><trkpt lat="44.6353067" lon="8.542855"><ele>337.75</ele><time>2026-05-01T15:40:38.153Z</time></trkpt><trkpt lat="44.6354233" lon="8.542935"><ele>335.5</ele><time>2026-05-01T15:40:39.155Z</time></trkpt><trkpt lat="44.63552" lon="8.543025"><ele>333.25</ele><time>2026-05-01T15:40:40.154Z</time></trkpt><trkpt lat="44.6356183" lon="8.5431333"><ele>331.0</ele><time>2026-05-01T15:40:41.157Z</time></trkpt><trkpt lat="44.63573" lon="8.5432267"><ele>331.0</ele><time>2026-05-01T15:40:42.156Z</time></trkpt><trkpt lat="44.6358417" lon="8.5433317"><ele>331.0</ele><time>2026-05-01T15:40:43.155Z</time></trkpt><trkpt lat="44.6359583" lon="8.543435"><ele>331.0</ele><time>2026-05-01T15:40:44.153Z</time></trkpt><trkpt lat="44.6360733" lon="8.5435483"><ele>331.0</ele><time>2026-05-01T15:40:45.156Z</time></trkpt><trkpt lat="44.6361917" lon="8.5436517"><ele>330.25</ele><time>2026-05-01T15:40:46.153Z</time></trkpt><trkpt lat="44.636315" lon="8.5437233"><ele>329.5</ele><time>2026-05-01T15:40:47.156Z</time></trkpt><trkpt lat="44.6364433" lon="8.5437683"><ele>328.75</ele><time>2026-05-01T15:40:48.155Z</time></trkpt><trkpt lat="44.6365683" lon="8.5438067"><ele>328.0</ele><time>2026-05-01T15:40:49.156Z</time></trkpt><trkpt lat="44.63669" lon="8.5438633"><ele>328.0</ele><time>2026-05-01T15:40:50.157Z</time></trkpt><trkpt lat="44.6368083" lon="8.5439217"><ele>328.0</ele><time>2026-05-01T15:40:51.155Z</time></trkpt><trkpt lat="44.6369233" lon="8.5440033"><ele>328.0</ele><time>2026-05-01T15:40:52.151Z</time></trkpt><trkpt lat="44.63705" lon="8.54407"><ele>328.0</ele><time>2026-05-01T15:40:53.157Z</time></trkpt><trkpt lat="44.6371817" lon="8.54413"><ele>327.25</ele><time>2026-05-01T15:40:54.155Z</time></trkpt><trkpt lat="44.6373267" lon="8.5441667"><ele>326.5</ele><time>2026-05-01T15:40:55.152Z</time></trkpt><trkpt lat="44.6374717" lon="8.5442067"><ele>325.75</ele><time>2026-05-01T15:40:56.16Z</time></trkpt><trkpt lat="44.63762" lon="8.5442433"><ele>325.0</ele><time>2026-05-01T15:40:57.152Z</time></trkpt><trkpt lat="44.6377567" lon="8.54428"><ele>326.5</ele><time>2026-05-01T15:40:58.156Z</time></trkpt><trkpt lat="44.6378783" lon="8.54432"><ele>328.0</ele><time>2026-05-01T15:40:59.157Z</time></trkpt><trkpt lat="44.638" lon="8.5443683"><ele>329.5</ele><time>2026-05-01T15:41:00.158Z</time></trkpt><trkpt lat="44.6381117" lon="8.5444367"><ele>331.0</ele><time>2026-05-01T15:41:01.159Z</time></trkpt><trkpt lat="44.6382183" lon="8.5445167"><ele>327.5</ele><time>2026-05-01T15:41:02.157Z</time></trkpt><trkpt lat="44.638315" lon="8.544615"><ele>324.0</ele><time>2026-05-01T15:41:03.154Z</time></trkpt><trkpt lat="44.6384017" lon="8.5447283"><ele>320.5</ele><time>2026-05-01T15:41:04.158Z</time></trkpt><trkpt lat="44.638475" lon="8.5448533"><ele>317.0</ele><time>2026-05-01T15:41:05.155Z</time></trkpt><trkpt lat="44.638535" lon="8.5449933"><ele>317.0</ele><time>2026-05-01T15:41:06.156Z</time></trkpt><trkpt lat="44.6385933" lon="8.5451067"><ele>317.0</ele><time>2026-05-01T15:41:07.162Z</time></trkpt><trkpt lat="44.63865" lon="8.5452033"><ele>317.0</ele><time>2026-05-01T15:41:08.155Z</time></trkpt><trkpt lat="44.6386917" lon="8.5452983"><ele>317.0</ele><time>2026-05-01T15:41:09.155Z</time></trkpt><trkpt lat="44.638715" lon="8.5454117"><ele>317.0</ele><time>2026-05-01T15:41:10.157Z</time></trkpt><trkpt lat="44.6387283" lon="8.5455517"><ele>315.2</ele><time>2026-05-01T15:41:11.152Z</time></trkpt><trkpt lat="44.6387183" lon="8.545705"><ele>313.4</ele><time>2026-05-01T15:41:12.156Z</time></trkpt><trkpt lat="44.6387" lon="8.545855"><ele>311.6</ele><time>2026-05-01T15:41:13.158Z</time></trkpt><trkpt lat="44.638675" lon="8.54601"><ele>309.8</ele><time>2026-05-01T15:41:14.158Z</time></trkpt><trkpt lat="44.6386367" lon="8.5461583"><ele>308.0</ele><time>2026-05-01T15:41:15.154Z</time></trkpt><trkpt lat="44.6385783" lon="8.5462883"><ele>306.8</ele><time>2026-05-01T15:41:16.156Z</time></trkpt><trkpt lat="44.6385083" lon="8.54641"><ele>305.6</ele><time>2026-05-01T15:41:17.151Z</time></trkpt><trkpt lat="44.63843" lon="8.546515"><ele>304.4</ele><time>2026-05-01T15:41:18.154Z</time></trkpt><trkpt lat="44.63835" lon="8.546615"><ele>303.2</ele><time>2026-05-01T15:41:19.16Z</time></trkpt><trkpt lat="44.6382533" lon="8.5467083"><ele>302.0</ele><time>2026-05-01T15:41:20.157Z</time></trkpt><trkpt lat="44.6381533" lon="8.5468"><ele>302.0</ele><time>2026-05-01T15:41:21.156Z</time></trkpt><trkpt lat="44.6380517" lon="8.5468783"><ele>302.0</ele><time>2026-05-01T15:41:22.157Z</time></trkpt><trkpt lat="44.6379417" lon="8.5469417"><ele>302.0</ele><time>2026-05-01T15:41:23.16Z</time></trkpt><trkpt lat="44.6378433" lon="8.5470267"><ele>302.0</ele><time>2026-05-01T15:41:24.158Z</time></trkpt><trkpt lat="44.637745" lon="8.5471267"><ele>299.0</ele><time>2026-05-01T15:41:25.163Z</time></trkpt><trkpt lat="44.6376567" lon="8.5472567"><ele>296.0</ele><time>2026-05-01T15:41:26.155Z</time></trkpt><trkpt lat="44.63757" lon="8.54739"><ele>293.0</ele><time>2026-05-01T15:41:27.162Z</time></trkpt><trkpt lat="44.6375" lon="8.5475383"><ele>290.0</ele><time>2026-05-01T15:41:28.157Z</time></trkpt><trkpt lat="44.6374467" lon="8.5476967"><ele>290.0</ele><time>2026-05-01T15:41:29.156Z</time></trkpt><trkpt lat="44.6374283" lon="8.5478567"><ele>290.0</ele><time>2026-05-01T15:41:30.153Z</time></trkpt><trkpt lat="44.6374233" lon="8.54802"><ele>290.0</ele><time>2026-05-01T15:41:31.156Z</time></trkpt><trkpt lat="44.6374383" lon="8.548195"><ele>290.0</ele><time>2026-05-01T15:41:32.152Z</time></trkpt><trkpt lat="44.63745" lon="8.548365"><ele>289.83333333333337</ele><time>2026-05-01T15:41:33.156Z</time></trkpt><trkpt lat="44.63745" lon="8.5485167"><ele>289.6666666666667</ele><time>2026-05-01T15:41:34.156Z</time></trkpt><trkpt lat="44.6374533" lon="8.548635"><ele>289.5</ele><time>2026-05-01T15:41:35.152Z</time></trkpt><trkpt lat="44.63746" lon="8.548725"><ele>289.3333333333333</ele><time>2026-05-01T15:41:36.158Z</time></trkpt><trkpt lat="44.6375367" lon="8.548825"><ele>289.16666666666663</ele><time>2026-05-01T15:41:38.154Z</time></trkpt><trkpt lat="44.6376" lon="8.5488267"><ele>289.0</ele><time>2026-05-01T15:41:39.154Z</time></trkpt><trkpt lat="44.6376833" lon="8.5487267"><ele>289.0</ele><time>2026-05-01T15:41:40.154Z</time></trkpt><trkpt lat="44.6377533" lon="8.5486317"><ele>289.0</ele><time>2026-05-01T15:41:41.154Z</time></trkpt><trkpt lat="44.6378183" lon="8.5485167"><ele>289.0</ele><time>2026-05-01T15:41:42.155Z</time></trkpt><trkpt lat="44.6378867" lon="8.54838"><ele>289.0</ele><time>2026-05-01T15:41:43.157Z</time></trkpt><trkpt lat="44.63797" lon="8.5482567"><ele>289.0</ele><time>2026-05-01T15:41:44.157Z</time></trkpt><trkpt lat="44.63806" lon="8.54816"><ele>286.8</ele><time>2026-05-01T15:41:45.157Z</time></trkpt><trkpt lat="44.6381533" lon="8.54808"><ele>284.59999999999997</ele><time>2026-05-01T15:41:46.155Z</time></trkpt><trkpt lat="44.63825" lon="8.5480317"><ele>282.4</ele><time>2026-05-01T15:41:47.156Z</time></trkpt><trkpt lat="44.638345" lon="8.548005"><ele>280.2</ele><time>2026-05-01T15:41:48.158Z</time></trkpt><trkpt lat="44.6384317" lon="8.5480033"><ele>278.0</ele><time>2026-05-01T15:41:49.155Z</time></trkpt><trkpt lat="44.63851" lon="8.548015"><ele>278.0</ele><time>2026-05-01T15:41:50.152Z</time></trkpt><trkpt lat="44.6385817" lon="8.5480317"><ele>278.0</ele><time>2026-05-01T15:41:51.153Z</time></trkpt><trkpt lat="44.63865" lon="8.5480567"><ele>278.0</ele><time>2026-05-01T15:41:52.151Z</time></trkpt><trkpt lat="44.6387217" lon="8.54809"><ele>278.0</ele><time>2026-05-01T15:41:53.162Z</time></trkpt><trkpt lat="44.6387933" lon="8.5481267"><ele>278.0</ele><time>2026-05-01T15:41:54.152Z</time></trkpt><trkpt lat="44.6388667" lon="8.548155"><ele>278.0</ele><time>2026-05-01T15:41:55.162Z</time></trkpt><trkpt lat="44.6389517" lon="8.5481617"><ele>277.0</ele><time>2026-05-01T15:41:56.15Z</time></trkpt><trkpt lat="44.6390383" lon="8.5481517"><ele>276.0</ele><time>2026-05-01T15:41:57.153Z</time></trkpt><trkpt lat="44.6391233" lon="8.548125"><ele>275.0</ele><time>2026-05-01T15:41:58.153Z</time></trkpt><trkpt lat="44.6392" lon="8.54807"><ele>274.0</ele><time>2026-05-01T15:41:59.151Z</time></trkpt><trkpt lat="44.63927" lon="8.5480083"><ele>273.0</ele><time>2026-05-01T15:42:00.153Z</time></trkpt><trkpt lat="44.6393333" lon="8.54796"><ele>272.0</ele><time>2026-05-01T15:42:01.153Z</time></trkpt><trkpt lat="44.6393967" lon="8.54793"><ele>272.0</ele><time>2026-05-01T15:42:02.155Z</time></trkpt><trkpt lat="44.6394467" lon="8.5480717"><ele>272.0</ele><time>2026-05-01T15:42:04.156Z</time></trkpt><trkpt lat="44.6394117" lon="8.5483067"><ele>272.0</ele><time>2026-05-01T15:42:06.154Z</time></trkpt><trkpt lat="44.639385" lon="8.5484383"><ele>272.0</ele><time>2026-05-01T15:42:07.154Z</time></trkpt><trkpt lat="44.63933" lon="8.5486067"><ele>269.25</ele><time>2026-05-01T15:42:08.152Z</time></trkpt><trkpt lat="44.6393067" lon="8.54879"><ele>266.5</ele><time>2026-05-01T15:42:09.155Z</time></trkpt><trkpt lat="44.63929" lon="8.5489983"><ele>263.75</ele><time>2026-05-01T15:42:10.151Z</time></trkpt><trkpt lat="44.6392833" lon="8.5492133"><ele>261.0</ele><time>2026-05-01T15:42:11.156Z</time></trkpt><trkpt lat="44.63928" lon="8.5494283"><ele>259.3333333333333</ele><time>2026-05-01T15:42:12.151Z</time></trkpt><trkpt lat="44.6392767" lon="8.54965"><ele>257.66666666666663</ele><time>2026-05-01T15:42:13.152Z</time></trkpt><trkpt lat="44.639285" lon="8.5498667"><ele>256.0</ele><time>2026-05-01T15:42:14.154Z</time></trkpt><trkpt lat="44.6392917" lon="8.550075"><ele>256.0</ele><time>2026-05-01T15:42:15.158Z</time></trkpt><trkpt lat="44.6393033" lon="8.5502817"><ele>256.0</ele><time>2026-05-01T15:42:16.15Z</time></trkpt><trkpt lat="44.6393317" lon="8.5504883"><ele>256.0</ele><time>2026-05-01T15:42:17.154Z</time></trkpt><trkpt lat="44.6393683" lon="8.5506767"><ele>256.0</ele><time>2026-05-01T15:42:18.152Z</time></trkpt><trkpt lat="44.6394083" lon="8.5508567"><ele>254.5</ele><time>2026-05-01T15:42:19.154Z</time></trkpt><trkpt lat="44.63946" lon="8.5510417"><ele>253.0</ele><time>2026-05-01T15:42:20.158Z</time></trkpt><trkpt lat="44.63952" lon="8.551205"><ele>251.5</ele><time>2026-05-01T15:42:21.153Z</time></trkpt><trkpt lat="44.6395617" lon="8.5513583"><ele>250.0</ele><time>2026-05-01T15:42:22.153Z</time></trkpt><trkpt lat="44.6395917" lon="8.5514983"><ele>249.49999999999997</ele><time>2026-05-01T15:42:23.162Z</time></trkpt><trkpt lat="44.6396083" lon="8.5516233"><ele>249.0</ele><time>2026-05-01T15:42:24.154Z</time></trkpt><trkpt lat="44.6396133" lon="8.5517483"><ele>248.5</ele><time>2026-05-01T15:42:25.155Z</time></trkpt><trkpt lat="44.6396117" lon="8.551865"><ele>248.0</ele><time>2026-05-01T15:42:26.155Z</time></trkpt><trkpt lat="44.6395983" lon="8.55199"><ele>247.49999999999997</ele><time>2026-05-01T15:42:27.149Z</time></trkpt><trkpt lat="44.6395883" lon="8.55211"><ele>247.0</ele><time>2026-05-01T15:42:28.16Z</time></trkpt><trkpt lat="44.63958" lon="8.5522367"><ele>246.99999999999997</ele><time>2026-05-01T15:42:29.156Z</time></trkpt><trkpt lat="44.6395833" lon="8.5523583"><ele>247.0</ele><time>2026-05-01T15:42:30.156Z</time></trkpt><trkpt lat="44.63959" lon="8.5524817"><ele>247.0</ele><time>2026-05-01T15:42:31.152Z</time></trkpt><trkpt lat="44.6395967" lon="8.552605"><ele>247.0</ele><time>2026-05-01T15:42:32.153Z</time></trkpt><trkpt lat="44.639605" lon="8.552725"><ele>246.99999999999997</ele><time>2026-05-01T15:42:33.151Z</time></trkpt><trkpt lat="44.6396083" lon="8.552835"><ele>247.0</ele><time>2026-05-01T15:42:34.154Z</time></trkpt><trkpt lat="44.6396167" lon="8.5529333"><ele>247.0</ele><time>2026-05-01T15:42:35.152Z</time></trkpt><trkpt lat="44.6396433" lon="8.5530967"><ele>247.0</ele><time>2026-05-01T15:42:37.152Z</time></trkpt><trkpt lat="44.6397183" lon="8.5531683"><ele>247.0</ele><time>2026-05-01T15:42:39.153Z</time></trkpt><trkpt lat="44.639825" lon="8.5531017"><ele>247.0</ele><time>2026-05-01T15:42:41.153Z</time></trkpt><trkpt lat="44.6398817" lon="8.552975"><ele>247.0</ele><time>2026-05-01T15:42:42.153Z</time></trkpt><trkpt lat="44.63992" lon="8.55285"><ele>247.0</ele><time>2026-05-01T15:42:43.158Z</time></trkpt><trkpt lat="44.63993" lon="8.5526617"><ele>247.0</ele><time>2026-05-01T15:42:44.157Z</time></trkpt><trkpt lat="44.6399383" lon="8.5524933"><ele>247.0</ele><time>2026-05-01T15:42:45.155Z</time></trkpt><trkpt lat="44.6399317" lon="8.5523317"><ele>247.0</ele><time>2026-05-01T15:42:46.154Z</time></trkpt><trkpt lat="44.6399217" lon="8.552165"><ele>246.25</ele><time>2026-05-01T15:42:47.158Z</time></trkpt><trkpt lat="44.6399083" lon="8.5519967"><ele>245.5</ele><time>2026-05-01T15:42:48.157Z</time></trkpt><trkpt lat="44.6399" lon="8.55182"><ele>244.75</ele><time>2026-05-01T15:42:49.155Z</time></trkpt><trkpt lat="44.639895" lon="8.5516433"><ele>244.0</ele><time>2026-05-01T15:42:50.151Z</time></trkpt><trkpt lat="44.639895" lon="8.5514717"><ele>244.0</ele><time>2026-05-01T15:42:51.156Z</time></trkpt><trkpt lat="44.6398933" lon="8.551305"><ele>244.0</ele><time>2026-05-01T15:42:52.152Z</time></trkpt><trkpt lat="44.63989" lon="8.5511367"><ele>244.0</ele><time>2026-05-01T15:42:53.158Z</time></trkpt><trkpt lat="44.639875" lon="8.5509733"><ele>244.0</ele><time>2026-05-01T15:42:54.159Z</time></trkpt><trkpt lat="44.639845" lon="8.5508133"><ele>242.75</ele><time>2026-05-01T15:42:55.154Z</time></trkpt><trkpt lat="44.639795" lon="8.5506567"><ele>241.5</ele><time>2026-05-01T15:42:56.154Z</time></trkpt><trkpt lat="44.63976" lon="8.5504917"><ele>240.25</ele><time>2026-05-01T15:42:57.152Z</time></trkpt><trkpt lat="44.63973" lon="8.5503233"><ele>239.0</ele><time>2026-05-01T15:42:58.152Z</time></trkpt><trkpt lat="44.6397117" lon="8.5501567"><ele>239.2</ele><time>2026-05-01T15:42:59.151Z</time></trkpt><trkpt lat="44.6397133" lon="8.5499967"><ele>239.39999999999998</ele><time>2026-05-01T15:43:00.153Z</time></trkpt><trkpt lat="44.639725" lon="8.5498483"><ele>239.6</ele><time>2026-05-01T15:43:01.154Z</time></trkpt><trkpt lat="44.6397483" lon="8.5497067"><ele>239.8</ele><time>2026-05-01T15:43:02.155Z</time></trkpt><trkpt lat="44.639775" lon="8.5495717"><ele>240.0</ele><time>2026-05-01T15:43:03.151Z</time></trkpt><trkpt lat="44.6398083" lon="8.549445"><ele>240.0</ele><time>2026-05-01T15:43:04.15Z</time></trkpt><trkpt lat="44.6398333" lon="8.5493333"><ele>240.0</ele><time>2026-05-01T15:43:05.156Z</time></trkpt><trkpt lat="44.639855" lon="8.5492217"><ele>240.0</ele><time>2026-05-01T15:43:06.151Z</time></trkpt><trkpt lat="44.6398817" lon="8.5491067"><ele>240.0</ele><time>2026-05-01T15:43:07.153Z</time></trkpt><trkpt lat="44.6399317" lon="8.5490117"><ele>240.0</ele><time>2026-05-01T15:43:08.152Z</time></trkpt><trkpt lat="44.6399767" lon="8.54892"><ele>240.0</ele><time>2026-05-01T15:43:09.152Z</time></trkpt><trkpt lat="44.6400333" lon="8.54884"><ele>240.0</ele><time>2026-05-01T15:43:10.151Z</time></trkpt><trkpt lat="44.6401067" lon="8.54878"><ele>240.0</ele><time>2026-05-01T15:43:11.154Z</time></trkpt><trkpt lat="44.64019" lon="8.5487567"><ele>240.0</ele><time>2026-05-01T15:43:12.156Z</time></trkpt><trkpt lat="44.6402783" lon="8.5487333"><ele>240.0</ele><time>2026-05-01T15:43:13.153Z</time></trkpt><trkpt lat="44.6403517" lon="8.5486833"><ele>240.0</ele><time>2026-05-01T15:43:14.153Z</time></trkpt><trkpt lat="44.6404167" lon="8.5486133"><ele>240.0</ele><time>2026-05-01T15:43:15.152Z</time></trkpt><trkpt lat="44.6404567" lon="8.548525"><ele>239.66666666666666</ele><time>2026-05-01T15:43:16.152Z</time></trkpt><trkpt lat="44.6404567" lon="8.5483967"><ele>239.33333333333331</ele><time>2026-05-01T15:43:17.152Z</time></trkpt><trkpt lat="44.6404567" lon="8.54828"><ele>239.0</ele><time>2026-05-01T15:43:18.154Z</time></trkpt><trkpt lat="44.6404517" lon="8.548155"><ele>238.66666666666666</ele><time>2026-05-01T15:43:19.155Z</time></trkpt><trkpt lat="44.640445" lon="8.5480333"><ele>238.33333333333331</ele><time>2026-05-01T15:43:20.161Z</time></trkpt><trkpt lat="44.6404333" lon="8.5479217"><ele>238.0</ele><time>2026-05-01T15:43:21.151Z</time></trkpt><trkpt lat="44.6404283" lon="8.5478133"><ele>237.99999999999997</ele><time>2026-05-01T15:43:22.15Z</time></trkpt><trkpt lat="44.6404333" lon="8.5477"><ele>238.0</ele><time>2026-05-01T15:43:23.153Z</time></trkpt><trkpt lat="44.6404483" lon="8.54759"><ele>238.0</ele><time>2026-05-01T15:43:24.154Z</time></trkpt><trkpt lat="44.6404767" lon="8.54749"><ele>238.0</ele><time>2026-05-01T15:43:25.154Z</time></trkpt><trkpt lat="44.64052" lon="8.547395"><ele>237.99999999999997</ele><time>2026-05-01T15:43:26.152Z</time></trkpt><trkpt lat="44.6405683" lon="8.54732"><ele>238.0</ele><time>2026-05-01T15:43:27.151Z</time></trkpt><trkpt lat="44.640635" lon="8.5472733"><ele>238.0</ele><time>2026-05-01T15:43:28.153Z</time></trkpt><trkpt lat="44.6407317" lon="8.5473283"><ele>238.0</ele><time>2026-05-01T15:43:29.151Z</time></trkpt><trkpt lat="44.6408033" lon="8.54737"><ele>238.0</ele><time>2026-05-01T15:43:30.153Z</time></trkpt><trkpt lat="44.6408617" lon="8.5474367"><ele>238.0</ele><time>2026-05-01T15:43:31.154Z</time></trkpt><trkpt lat="44.640925" lon="8.5475283"><ele>238.0</ele><time>2026-05-01T15:43:32.151Z</time></trkpt><trkpt lat="44.6409767" lon="8.547675"><ele>238.0</ele><time>2026-05-01T15:43:33.152Z</time></trkpt><trkpt lat="44.6410233" lon="8.5478217"><ele>238.0</ele><time>2026-05-01T15:43:34.153Z</time></trkpt><trkpt lat="44.6410783" lon="8.54797"><ele>238.0</ele><time>2026-05-01T15:43:35.154Z</time></trkpt><trkpt lat="44.641125" lon="8.548125"><ele>238.0</ele><time>2026-05-01T15:43:36.153Z</time></trkpt><trkpt lat="44.6411783" lon="8.54826"><ele>236.49999999999997</ele><time>2026-05-01T15:43:37.152Z</time></trkpt><trkpt lat="44.6412367" lon="8.5483717"><ele>235.0</ele><time>2026-05-01T15:43:38.155Z</time></trkpt><trkpt lat="44.641305" lon="8.5484533"><ele>233.5</ele><time>2026-05-01T15:43:39.158Z</time></trkpt><trkpt lat="44.64138" lon="8.5485083"><ele>232.0</ele><time>2026-05-01T15:43:40.15Z</time></trkpt><trkpt lat="44.64146" lon="8.5485333"><ele>230.49999999999997</ele><time>2026-05-01T15:43:41.152Z</time></trkpt><trkpt lat="44.6415533" lon="8.548525"><ele>229.0</ele><time>2026-05-01T15:43:42.153Z</time></trkpt><trkpt lat="44.6416617" lon="8.5484783"><ele>229.0</ele><time>2026-05-01T15:43:43.156Z</time></trkpt><trkpt lat="44.641785" lon="8.5484117"><ele>229.0</ele><time>2026-05-01T15:43:44.154Z</time></trkpt><trkpt lat="44.6419083" lon="8.5483483"><ele>229.0</ele><time>2026-05-01T15:43:45.151Z</time></trkpt><trkpt lat="44.6420417" lon="8.5482883"><ele>229.0</ele><time>2026-05-01T15:43:46.154Z</time></trkpt><trkpt lat="44.6421833" lon="8.548225"><ele>226.5</ele><time>2026-05-01T15:43:47.155Z</time></trkpt><trkpt lat="44.6423283" lon="8.5481717"><ele>224.0</ele><time>2026-05-01T15:43:48.158Z</time></trkpt><trkpt lat="44.642475" lon="8.5481217"><ele>221.5</ele><time>2026-05-01T15:43:49.152Z</time></trkpt><trkpt lat="44.64262" lon="8.5480817"><ele>219.0</ele><time>2026-05-01T15:43:50.153Z</time></trkpt><trkpt lat="44.6427617" lon="8.54804"><ele>217.25</ele><time>2026-05-01T15:43:51.15Z</time></trkpt><trkpt lat="44.6428883" lon="8.54801"><ele>215.5</ele><time>2026-05-01T15:43:52.151Z</time></trkpt><trkpt lat="44.6430017" lon="8.548"><ele>213.75</ele><time>2026-05-01T15:43:53.157Z</time></trkpt><trkpt lat="44.6431117" lon="8.5480017"><ele>212.0</ele><time>2026-05-01T15:43:54.155Z</time></trkpt><trkpt lat="44.6432233" lon="8.5480317"><ele>212.0</ele><time>2026-05-01T15:43:55.156Z</time></trkpt><trkpt lat="44.6433383" lon="8.548065"><ele>212.0</ele><time>2026-05-01T15:43:56.156Z</time></trkpt><trkpt lat="44.6434583" lon="8.54811"><ele>212.0</ele><time>2026-05-01T15:43:57.151Z</time></trkpt><trkpt lat="44.6435867" lon="8.5481433"><ele>212.0</ele><time>2026-05-01T15:43:58.156Z</time></trkpt><trkpt lat="44.64372" lon="8.548175"><ele>211.75</ele><time>2026-05-01T15:43:59.157Z</time></trkpt><trkpt lat="44.64386" lon="8.5481983"><ele>211.5</ele><time>2026-05-01T15:44:00.154Z</time></trkpt><trkpt lat="44.643995" lon="8.5482167"><ele>211.25</ele><time>2026-05-01T15:44:01.153Z</time></trkpt><trkpt lat="44.6441267" lon="8.5482133"><ele>211.0</ele><time>2026-05-01T15:44:02.152Z</time></trkpt><trkpt lat="44.644255" lon="8.5481867"><ele>211.0</ele><time>2026-05-01T15:44:03.152Z</time></trkpt><trkpt lat="44.64439" lon="8.5481383"><ele>211.0</ele><time>2026-05-01T15:44:04.155Z</time></trkpt><trkpt lat="44.6445233" lon="8.548075"><ele>211.0</ele><time>2026-05-01T15:44:05.154Z</time></trkpt><trkpt lat="44.6446567" lon="8.547985"><ele>211.0</ele><time>2026-05-01T15:44:06.154Z</time></trkpt><trkpt lat="44.6447933" lon="8.5478767"><ele>211.60000000000002</ele><time>2026-05-01T15:44:07.154Z</time></trkpt><trkpt lat="44.6449183" lon="8.5477733"><ele>212.2</ele><time>2026-05-01T15:44:08.154Z</time></trkpt><trkpt lat="44.6450233" lon="8.547685"><ele>212.79999999999998</ele><time>2026-05-01T15:44:09.152Z</time></trkpt><trkpt lat="44.6451133" lon="8.547635"><ele>213.39999999999998</ele><time>2026-05-01T15:44:10.154Z</time></trkpt><trkpt lat="44.6451967" lon="8.5476267"><ele>214.0</ele><time>2026-05-01T15:44:11.156Z</time></trkpt><trkpt lat="44.6452667" lon="8.547655"><ele>212.99999999999997</ele><time>2026-05-01T15:44:12.154Z</time></trkpt><trkpt lat="44.6452967" lon="8.5477517"><ele>212.0</ele><time>2026-05-01T15:44:13.159Z</time></trkpt><trkpt lat="44.6453167" lon="8.5478517"><ele>211.0</ele><time>2026-05-01T15:44:14.152Z</time></trkpt><trkpt lat="44.6452967" lon="8.5479667"><ele>210.0</ele><time>2026-05-01T15:44:15.155Z</time></trkpt><trkpt lat="44.6452417" lon="8.5480483"><ele>208.99999999999997</ele><time>2026-05-01T15:44:16.156Z</time></trkpt><trkpt lat="44.64517" lon="8.54812"><ele>208.0</ele><time>2026-05-01T15:44:17.162Z</time></trkpt><trkpt lat="44.6450917" lon="8.5481817"><ele>207.16666666666666</ele><time>2026-05-01T15:44:18.16Z</time></trkpt><trkpt lat="44.6450217" lon="8.5482567"><ele>206.33333333333331</ele><time>2026-05-01T15:44:19.15Z</time></trkpt><trkpt lat="44.6449667" lon="8.548345"><ele>205.5</ele><time>2026-05-01T15:44:20.152Z</time></trkpt><trkpt lat="44.644965" lon="8.54845"><ele>204.66666666666669</ele><time>2026-05-01T15:44:21.151Z</time></trkpt><trkpt lat="44.644995" lon="8.548545"><ele>203.83333333333334</ele><time>2026-05-01T15:44:22.155Z</time></trkpt><trkpt lat="44.6450467" lon="8.54863"><ele>203.0</ele><time>2026-05-01T15:44:23.154Z</time></trkpt><trkpt lat="44.6451167" lon="8.5486833"><ele>203.0</ele><time>2026-05-01T15:44:24.155Z</time></trkpt><trkpt lat="44.6452233" lon="8.5486267"><ele>203.0</ele><time>2026-05-01T15:44:25.159Z</time></trkpt><trkpt lat="44.6453183" lon="8.5485783"><ele>203.0</ele><time>2026-05-01T15:44:26.153Z</time></trkpt><trkpt lat="44.645435" lon="8.5484917"><ele>203.0</ele><time>2026-05-01T15:44:27.155Z</time></trkpt><trkpt lat="44.6455567" lon="8.5483967"><ele>201.5</ele><time>2026-05-01T15:44:28.155Z</time></trkpt><trkpt lat="44.6456883" lon="8.5482983"><ele>200.0</ele><time>2026-05-01T15:44:29.156Z</time></trkpt><trkpt lat="44.6458183" lon="8.5482017"><ele>198.5</ele><time>2026-05-01T15:44:30.154Z</time></trkpt><trkpt lat="44.6459367" lon="8.5481217"><ele>197.0</ele><time>2026-05-01T15:44:31.16Z</time></trkpt><trkpt lat="44.6460383" lon="8.5480717"><ele>195.2</ele><time>2026-05-01T15:44:32.153Z</time></trkpt><trkpt lat="44.6461367" lon="8.54805"><ele>193.39999999999998</ele><time>2026-05-01T15:44:33.15Z</time></trkpt><trkpt lat="44.64623" lon="8.5480767"><ele>191.60000000000002</ele><time>2026-05-01T15:44:34.157Z</time></trkpt><trkpt lat="44.64633" lon="8.5481417"><ele>189.8</ele><time>2026-05-01T15:44:35.152Z</time></trkpt><trkpt lat="44.6464267" lon="8.548235"><ele>188.0</ele><time>2026-05-01T15:44:36.152Z</time></trkpt><trkpt lat="44.6465233" lon="8.5483367"><ele>188.0</ele><time>2026-05-01T15:44:37.151Z</time></trkpt><trkpt lat="44.6466083" lon="8.5484667"><ele>188.0</ele><time>2026-05-01T15:44:38.153Z</time></trkpt><trkpt lat="44.6466683" lon="8.548615"><ele>188.0</ele><time>2026-05-01T15:44:39.153Z</time></trkpt><trkpt lat="44.6467083" lon="8.5487733"><ele>188.0</ele><time>2026-05-01T15:44:40.159Z</time></trkpt><trkpt lat="44.6467317" lon="8.5489383"><ele>187.0</ele><time>2026-05-01T15:44:41.155Z</time></trkpt><trkpt lat="44.64675" lon="8.5491033"><ele>186.0</ele><time>2026-05-01T15:44:42.157Z</time></trkpt><trkpt lat="44.6467567" lon="8.549265"><ele>185.0</ele><time>2026-05-01T15:44:43.157Z</time></trkpt><trkpt lat="44.6467467" lon="8.5494233"><ele>184.0</ele><time>2026-05-01T15:44:44.155Z</time></trkpt><trkpt lat="44.6467183" lon="8.549595"><ele>183.0</ele><time>2026-05-01T15:44:45.155Z</time></trkpt><trkpt lat="44.6466783" lon="8.5497733"><ele>182.0</ele><time>2026-05-01T15:44:46.151Z</time></trkpt><trkpt lat="44.6466367" lon="8.5499533"><ele>181.0</ele><time>2026-05-01T15:44:47.157Z</time></trkpt><trkpt lat="44.6465933" lon="8.5501367"><ele>180.0</ele><time>2026-05-01T15:44:48.158Z</time></trkpt><trkpt lat="44.6465583" lon="8.5503017"><ele>179.0</ele><time>2026-05-01T15:44:49.157Z</time></trkpt><trkpt lat="44.646535" lon="8.5504483"><ele>178.0</ele><time>2026-05-01T15:44:50.155Z</time></trkpt><trkpt lat="44.6465417" lon="8.5505817"><ele>177.0</ele><time>2026-05-01T15:44:51.153Z</time></trkpt><trkpt lat="44.6465683" lon="8.5507117"><ele>176.0</ele><time>2026-05-01T15:44:52.152Z</time></trkpt><trkpt lat="44.6466183" lon="8.55083"><ele>175.0</ele><time>2026-05-01T15:44:53.156Z</time></trkpt><trkpt lat="44.6466917" lon="8.5509233"><ele>175.0</ele><time>2026-05-01T15:44:54.158Z</time></trkpt><trkpt lat="44.6467883" lon="8.551"><ele>175.0</ele><time>2026-05-01T15:44:55.151Z</time></trkpt><trkpt lat="44.646885" lon="8.5510817"><ele>175.0</ele><time>2026-05-01T15:44:56.154Z</time></trkpt><trkpt lat="44.6469667" lon="8.551155"><ele>175.0</ele><time>2026-05-01T15:44:57.155Z</time></trkpt><trkpt lat="44.6470283" lon="8.5512083"><ele>175.0</ele><time>2026-05-01T15:44:58.152Z</time></trkpt><trkpt lat="44.64711" lon="8.5513017"><ele>174.6</ele><time>2026-05-01T15:45:00.152Z</time></trkpt><trkpt lat="44.6471767" lon="8.551315"><ele>174.2</ele><time>2026-05-01T15:45:06.156Z</time></trkpt><trkpt lat="44.6472733" lon="8.5512167"><ele>173.8</ele><time>2026-05-01T15:45:08.152Z</time></trkpt><trkpt lat="44.6473317" lon="8.5511417"><ele>173.4</ele><time>2026-05-01T15:45:09.152Z</time></trkpt><trkpt lat="44.6474033" lon="8.5510533"><ele>173.0</ele><time>2026-05-01T15:45:10.154Z</time></trkpt><trkpt lat="44.6474783" lon="8.5509783"><ele>173.0</ele><time>2026-05-01T15:45:11.154Z</time></trkpt><trkpt lat="44.6475567" lon="8.5509067"><ele>173.0</ele><time>2026-05-01T15:45:12.162Z</time></trkpt><trkpt lat="44.6476417" lon="8.5508283"><ele>173.0</ele><time>2026-05-01T15:45:13.155Z</time></trkpt><trkpt lat="44.6477283" lon="8.550755"><ele>173.0</ele><time>2026-05-01T15:45:14.153Z</time></trkpt><trkpt lat="44.64781" lon="8.5506783"><ele>173.0</ele><time>2026-05-01T15:45:15.152Z</time></trkpt><trkpt lat="44.6478883" lon="8.5505967"><ele>173.2</ele><time>2026-05-01T15:45:16.154Z</time></trkpt><trkpt lat="44.6479667" lon="8.55051"><ele>173.4</ele><time>2026-05-01T15:45:17.154Z</time></trkpt><trkpt lat="44.6480433" lon="8.5504133"><ele>173.6</ele><time>2026-05-01T15:45:18.156Z</time></trkpt><trkpt lat="44.6481183" lon="8.5502983"><ele>173.79999999999998</ele><time>2026-05-01T15:45:19.155Z</time></trkpt><trkpt lat="44.64819" lon="8.5501683"><ele>174.0</ele><time>2026-05-01T15:45:20.153Z</time></trkpt><trkpt lat="44.6482483" lon="8.5500183"><ele>174.0</ele><time>2026-05-01T15:45:21.155Z</time></trkpt><trkpt lat="44.648305" lon="8.54987"><ele>174.0</ele><time>2026-05-01T15:45:22.154Z</time></trkpt><trkpt lat="44.64836" lon="8.549715"><ele>174.0</ele><time>2026-05-01T15:45:23.153Z</time></trkpt><trkpt lat="44.6484067" lon="8.5495517"><ele>174.0</ele><time>2026-05-01T15:45:24.153Z</time></trkpt><trkpt lat="44.64847" lon="8.549405"><ele>174.25</ele><time>2026-05-01T15:45:25.155Z</time></trkpt><trkpt lat="44.6485167" lon="8.5492483"><ele>174.5</ele><time>2026-05-01T15:45:26.157Z</time></trkpt><trkpt lat="44.64858" lon="8.549105"><ele>174.75</ele><time>2026-05-01T15:45:27.155Z</time></trkpt><trkpt lat="44.64864" lon="8.548955"><ele>175.0</ele><time>2026-05-01T15:45:28.157Z</time></trkpt><trkpt lat="44.6487283" lon="8.5488183"><ele>175.0</ele><time>2026-05-01T15:45:29.155Z</time></trkpt><trkpt lat="44.64884" lon="8.5487133"><ele>175.0</ele><time>2026-05-01T15:45:30.154Z</time></trkpt><trkpt lat="44.6489517" lon="8.5485983"><ele>175.0</ele><time>2026-05-01T15:45:31.157Z</time></trkpt><trkpt lat="44.64907" lon="8.5484833"><ele>175.0</ele><time>2026-05-01T15:45:32.157Z</time></trkpt><trkpt lat="44.6491933" lon="8.5483567"><ele>174.66666666666669</ele><time>2026-05-01T15:45:33.156Z</time></trkpt><trkpt lat="44.649345" lon="8.5482617"><ele>174.33333333333334</ele><time>2026-05-01T15:45:34.153Z</time></trkpt><trkpt lat="44.6494933" lon="8.5481317"><ele>174.0</ele><time>2026-05-01T15:45:35.155Z</time></trkpt><trkpt lat="44.64964" lon="8.547995"><ele>172.0</ele><time>2026-05-01T15:45:36.159Z</time></trkpt><trkpt lat="44.6497867" lon="8.547865"><ele>170.0</ele><time>2026-05-01T15:45:37.159Z</time></trkpt><trkpt lat="44.6499317" lon="8.54773"><ele>168.0</ele><time>2026-05-01T15:45:38.155Z</time></trkpt><trkpt lat="44.65008" lon="8.5475917"><ele>168.0</ele><time>2026-05-01T15:45:39.154Z</time></trkpt><trkpt lat="44.650215" lon="8.5474283"><ele>168.0</ele><time>2026-05-01T15:45:40.153Z</time></trkpt><trkpt lat="44.6503267" lon="8.54724"><ele>168.0</ele><time>2026-05-01T15:45:41.156Z</time></trkpt><trkpt lat="44.6504217" lon="8.5470383"><ele>169.0</ele><time>2026-05-01T15:45:42.155Z</time></trkpt><trkpt lat="44.6505" lon="8.5468233"><ele>170.0</ele><time>2026-05-01T15:45:43.163Z</time></trkpt><trkpt lat="44.6505717" lon="8.5466"><ele>171.0</ele><time>2026-05-01T15:45:44.152Z</time></trkpt><trkpt lat="44.65064" lon="8.546375"><ele>169.33333333333334</ele><time>2026-05-01T15:45:45.159Z</time></trkpt><trkpt lat="44.65072" lon="8.5461583"><ele>167.66666666666669</ele><time>2026-05-01T15:45:46.154Z</time></trkpt><trkpt lat="44.6508083" lon="8.545945"><ele>166.0</ele><time>2026-05-01T15:45:47.158Z</time></trkpt><trkpt lat="44.6509133" lon="8.5457383"><ele>166.0</ele><time>2026-05-01T15:45:48.159Z</time></trkpt><trkpt lat="44.6510267" lon="8.545545"><ele>166.0</ele><time>2026-05-01T15:45:49.155Z</time></trkpt><trkpt lat="44.651145" lon="8.5453667"><ele>166.0</ele><time>2026-05-01T15:45:50.156Z</time></trkpt><trkpt lat="44.651255" lon="8.545185"><ele>170.33333333333334</ele><time>2026-05-01T15:45:51.156Z</time></trkpt><trkpt lat="44.65136" lon="8.5450117"><ele>174.66666666666666</ele><time>2026-05-01T15:45:52.155Z</time></trkpt><trkpt lat="44.65146" lon="8.5448317"><ele>179.0</ele><time>2026-05-01T15:45:53.157Z</time></trkpt><trkpt lat="44.6515517" lon="8.5446433"><ele>175.0</ele><time>2026-05-01T15:45:54.152Z</time></trkpt><trkpt lat="44.65165" lon="8.54447"><ele>171.0</ele><time>2026-05-01T15:45:55.16Z</time></trkpt><trkpt lat="44.6517417" lon="8.5442867"><ele>167.0</ele><time>2026-05-01T15:45:56.155Z</time></trkpt><trkpt lat="44.6518383" lon="8.54411"><ele>167.0</ele><time>2026-05-01T15:45:57.153Z</time></trkpt><trkpt lat="44.6519267" lon="8.5439483"><ele>167.0</ele><time>2026-05-01T15:45:58.152Z</time></trkpt><trkpt lat="44.6520017" lon="8.543815"><ele>167.0</ele><time>2026-05-01T15:45:59.154Z</time></trkpt><trkpt lat="44.6520867" lon="8.54372"><ele>167.0</ele><time>2026-05-01T15:46:00.155Z</time></trkpt><trkpt lat="44.6521783" lon="8.5436483"><ele>167.5</ele><time>2026-05-01T15:46:01.16Z</time></trkpt><trkpt lat="44.6522717" lon="8.54358"><ele>168.0</ele><time>2026-05-01T15:46:02.156Z</time></trkpt><trkpt lat="44.6523617" lon="8.5434833"><ele>168.5</ele><time>2026-05-01T15:46:03.15Z</time></trkpt><trkpt lat="44.652455" lon="8.543365"><ele>169.0</ele><time>2026-05-01T15:46:04.156Z</time></trkpt><trkpt lat="44.65256" lon="8.543235"><ele>169.0</ele><time>2026-05-01T15:46:05.151Z</time></trkpt><trkpt lat="44.65267" lon="8.5430867"><ele>169.0</ele><time>2026-05-01T15:46:06.153Z</time></trkpt><trkpt lat="44.65279" lon="8.542925"><ele>169.0</ele><time>2026-05-01T15:46:07.151Z</time></trkpt><trkpt lat="44.6529067" lon="8.5427367"><ele>168.66666666666669</ele><time>2026-05-01T15:46:08.152Z</time></trkpt><trkpt lat="44.6530217" lon="8.5425483"><ele>168.33333333333334</ele><time>2026-05-01T15:46:09.153Z</time></trkpt><trkpt lat="44.653125" lon="8.542345"><ele>168.0</ele><time>2026-05-01T15:46:10.153Z</time></trkpt><trkpt lat="44.653215" lon="8.5421233"><ele>167.33333333333334</ele><time>2026-05-01T15:46:11.159Z</time></trkpt><trkpt lat="44.65329" lon="8.5418917"><ele>166.66666666666669</ele><time>2026-05-01T15:46:12.153Z</time></trkpt><trkpt lat="44.6533483" lon="8.5416383"><ele>166.0</ele><time>2026-05-01T15:46:13.155Z</time></trkpt><trkpt lat="44.6533967" lon="8.5413667"><ele>165.66666666666669</ele><time>2026-05-01T15:46:14.152Z</time></trkpt><trkpt lat="44.6534383" lon="8.5410883"><ele>165.33333333333334</ele><time>2026-05-01T15:46:15.155Z</time></trkpt><trkpt lat="44.6534767" lon="8.540805"><ele>165.0</ele><time>2026-05-01T15:46:16.158Z</time></trkpt><trkpt lat="44.6535167" lon="8.5405183"><ele>164.66666666666666</ele><time>2026-05-01T15:46:17.151Z</time></trkpt><trkpt lat="44.653555" lon="8.54023"><ele>164.33333333333331</ele><time>2026-05-01T15:46:18.157Z</time></trkpt><trkpt lat="44.6535967" lon="8.5399467"><ele>164.0</ele><time>2026-05-01T15:46:19.155Z</time></trkpt><trkpt lat="44.6536367" lon="8.5396683"><ele>169.0</ele><time>2026-05-01T15:46:20.154Z</time></trkpt><trkpt lat="44.653675" lon="8.5393983"><ele>174.0</ele><time>2026-05-01T15:46:21.151Z</time></trkpt><trkpt lat="44.6537167" lon="8.539125"><ele>179.0</ele><time>2026-05-01T15:46:22.151Z</time></trkpt><trkpt lat="44.6537617" lon="8.5388533"><ele>177.0</ele><time>2026-05-01T15:46:23.157Z</time></trkpt><trkpt lat="44.6538133" lon="8.5385733"><ele>175.0</ele><time>2026-05-01T15:46:24.153Z</time></trkpt><trkpt lat="44.6538717" lon="8.5382917"><ele>173.0</ele><time>2026-05-01T15:46:25.15Z</time></trkpt><trkpt lat="44.6539417" lon="8.5380167"><ele>170.33333333333331</ele><time>2026-05-01T15:46:26.149Z</time></trkpt><trkpt lat="44.6540267" lon="8.5377517"><ele>167.66666666666666</ele><time>2026-05-01T15:46:27.151Z</time></trkpt><trkpt lat="44.654125" lon="8.5374967"><ele>165.0</ele><time>2026-05-01T15:46:28.151Z</time></trkpt><trkpt lat="44.6542333" lon="8.53725"><ele>163.0</ele><time>2026-05-01T15:46:29.158Z</time></trkpt><trkpt lat="44.6543517" lon="8.5370117"><ele>161.0</ele><time>2026-05-01T15:46:30.154Z</time></trkpt><trkpt lat="44.6544967" lon="8.5367967"><ele>159.0</ele><time>2026-05-01T15:46:31.155Z</time></trkpt><trkpt lat="44.6546367" lon="8.5365783"><ele>159.66666666666666</ele><time>2026-05-01T15:46:32.152Z</time></trkpt><trkpt lat="44.654785" lon="8.5363667"><ele>160.33333333333331</ele><time>2026-05-01T15:46:33.154Z</time></trkpt><trkpt lat="44.6549383" lon="8.536155"><ele>161.0</ele><time>2026-05-01T15:46:34.153Z</time></trkpt><trkpt lat="44.6551067" lon="8.5359433"><ele>166.5</ele><time>2026-05-01T15:46:35.155Z</time></trkpt><trkpt lat="44.6552883" lon="8.5357417"><ele>172.0</ele><time>2026-05-01T15:46:36.152Z</time></trkpt><trkpt lat="44.65548" lon="8.5355633"><ele>172.0</ele><time>2026-05-01T15:46:37.155Z</time></trkpt><trkpt lat="44.6556717" lon="8.5354017"><ele>172.0</ele><time>2026-05-01T15:46:38.157Z</time></trkpt><trkpt lat="44.6558567" lon="8.5352467"><ele>172.0</ele><time>2026-05-01T15:46:39.15Z</time></trkpt><trkpt lat="44.65604" lon="8.5350983"><ele>173.0</ele><time>2026-05-01T15:46:40.157Z</time></trkpt><trkpt lat="44.6562217" lon="8.5349517"><ele>174.0</ele><time>2026-05-01T15:46:41.159Z</time></trkpt><trkpt lat="44.6564033" lon="8.5348033"><ele>175.0</ele><time>2026-05-01T15:46:42.153Z</time></trkpt><trkpt lat="44.6565817" lon="8.53465"><ele>179.0</ele><time>2026-05-01T15:46:43.159Z</time></trkpt><trkpt lat="44.656745" lon="8.534475"><ele>183.0</ele><time>2026-05-01T15:46:44.159Z</time></trkpt><trkpt lat="44.6568967" lon="8.534285"><ele>187.0</ele><time>2026-05-01T15:46:45.152Z</time></trkpt><trkpt lat="44.6570383" lon="8.5340733"><ele>187.0</ele><time>2026-05-01T15:46:46.153Z</time></trkpt><trkpt lat="44.6571633" lon="8.5338433"><ele>187.0</ele><time>2026-05-01T15:46:47.158Z</time></trkpt><trkpt lat="44.6572733" lon="8.5335917"><ele>187.0</ele><time>2026-05-01T15:46:48.154Z</time></trkpt><trkpt lat="44.6573633" lon="8.53333"><ele>183.0</ele><time>2026-05-01T15:46:49.157Z</time></trkpt><trkpt lat="44.6574417" lon="8.53306"><ele>179.0</ele><time>2026-05-01T15:46:50.158Z</time></trkpt><trkpt lat="44.6575133" lon="8.53278"><ele>175.0</ele><time>2026-05-01T15:46:51.154Z</time></trkpt><trkpt lat="44.6575833" lon="8.5325033"><ele>172.33333333333334</ele><time>2026-05-01T15:46:52.152Z</time></trkpt><trkpt lat="44.6576617" lon="8.5322317"><ele>169.66666666666666</ele><time>2026-05-01T15:46:53.155Z</time></trkpt><trkpt lat="44.6577383" lon="8.5319633"><ele>167.0</ele><time>2026-05-01T15:46:54.152Z</time></trkpt><trkpt lat="44.65781" lon="8.5316867"><ele>167.0</ele><time>2026-05-01T15:46:55.154Z</time></trkpt><trkpt lat="44.6578883" lon="8.531415"><ele>167.0</ele><time>2026-05-01T15:46:56.155Z</time></trkpt><trkpt lat="44.6579833" lon="8.531155"><ele>167.0</ele><time>2026-05-01T15:46:57.152Z</time></trkpt><trkpt lat="44.65807" lon="8.5308917"><ele>166.0</ele><time>2026-05-01T15:46:58.158Z</time></trkpt><trkpt lat="44.6581533" lon="8.5306217"><ele>165.0</ele><time>2026-05-01T15:46:59.153Z</time></trkpt><trkpt lat="44.6582383" lon="8.5303533"><ele>164.0</ele><time>2026-05-01T15:47:00.154Z</time></trkpt><trkpt lat="44.658325" lon="8.5300817"><ele>161.66666666666666</ele><time>2026-05-01T15:47:01.154Z</time></trkpt><trkpt lat="44.6584133" lon="8.52981"><ele>159.33333333333334</ele><time>2026-05-01T15:47:02.152Z</time></trkpt><trkpt lat="44.6585067" lon="8.5295433"><ele>157.0</ele><time>2026-05-01T15:47:03.152Z</time></trkpt><trkpt lat="44.6586083" lon="8.5292833"><ele>156.66666666666669</ele><time>2026-05-01T15:47:04.151Z</time></trkpt><trkpt lat="44.6587233" lon="8.5290383"><ele>156.33333333333334</ele><time>2026-05-01T15:47:05.158Z</time></trkpt><trkpt lat="44.65884" lon="8.5287967"><ele>156.0</ele><time>2026-05-01T15:47:06.153Z</time></trkpt><trkpt lat="44.6589733" lon="8.52858"><ele>156.0</ele><time>2026-05-01T15:47:07.153Z</time></trkpt><trkpt lat="44.6591233" lon="8.5283883"><ele>156.0</ele><time>2026-05-01T15:47:08.159Z</time></trkpt><trkpt lat="44.659275" lon="8.52821"><ele>156.0</ele><time>2026-05-01T15:47:09.155Z</time></trkpt><trkpt lat="44.659435" lon="8.5280383"><ele>156.33333333333334</ele><time>2026-05-01T15:47:10.154Z</time></trkpt><trkpt lat="44.6596" lon="8.5278783"><ele>156.66666666666669</ele><time>2026-05-01T15:47:11.153Z</time></trkpt><trkpt lat="44.65977" lon="8.5277267"><ele>157.0</ele><time>2026-05-01T15:47:12.16Z</time></trkpt><trkpt lat="44.6599467" lon="8.52759"><ele>157.0</ele><time>2026-05-01T15:47:13.151Z</time></trkpt><trkpt lat="44.6601317" lon="8.5274633"><ele>157.0</ele><time>2026-05-01T15:47:14.158Z</time></trkpt><trkpt lat="44.660325" lon="8.5273483"><ele>157.0</ele><time>2026-05-01T15:47:15.155Z</time></trkpt><trkpt lat="44.6605233" lon="8.5272267"><ele>155.66666666666669</ele><time>2026-05-01T15:47:16.156Z</time></trkpt><trkpt lat="44.6607233" lon="8.5271283"><ele>154.33333333333334</ele><time>2026-05-01T15:47:17.158Z</time></trkpt><trkpt lat="44.6609283" lon="8.5270383"><ele>153.0</ele><time>2026-05-01T15:47:18.158Z</time></trkpt><trkpt lat="44.6611367" lon="8.5269567"><ele>153.0</ele><time>2026-05-01T15:47:19.154Z</time></trkpt><trkpt lat="44.6613467" lon="8.5268817"><ele>153.0</ele><time>2026-05-01T15:47:20.156Z</time></trkpt><trkpt lat="44.661555" lon="8.5268"><ele>153.0</ele><time>2026-05-01T15:47:21.152Z</time></trkpt><trkpt lat="44.66176" lon="8.52672"><ele>152.66666666666666</ele><time>2026-05-01T15:47:22.156Z</time></trkpt><trkpt lat="44.66197" lon="8.5266467"><ele>152.33333333333331</ele><time>2026-05-01T15:47:23.157Z</time></trkpt><trkpt lat="44.6621867" lon="8.52658"><ele>152.0</ele><time>2026-05-01T15:47:24.15Z</time></trkpt><trkpt lat="44.6623983" lon="8.526505"><ele>152.0</ele><time>2026-05-01T15:47:25.156Z</time></trkpt><trkpt lat="44.6626117" lon="8.5264333"><ele>152.0</ele><time>2026-05-01T15:47:26.154Z</time></trkpt><trkpt lat="44.6628283" lon="8.52636"><ele>152.0</ele><time>2026-05-01T15:47:27.155Z</time></trkpt><trkpt lat="44.66304" lon="8.5262867"><ele>149.5</ele><time>2026-05-01T15:47:28.151Z</time></trkpt><trkpt lat="44.6632567" lon="8.5262133"><ele>147.0</ele><time>2026-05-01T15:47:29.151Z</time></trkpt><trkpt lat="44.6634783" lon="8.5261433"><ele>146.5</ele><time>2026-05-01T15:47:30.153Z</time></trkpt><trkpt lat="44.6637033" lon="8.52607"><ele>146.0</ele><time>2026-05-01T15:47:31.155Z</time></trkpt><trkpt lat="44.6639233" lon="8.5259933"><ele>146.0</ele><time>2026-05-01T15:47:32.15Z</time></trkpt><trkpt lat="44.664145" lon="8.5259183"><ele>146.0</ele><time>2026-05-01T15:47:33.154Z</time></trkpt><trkpt lat="44.6643583" lon="8.5258467"><ele>146.0</ele><time>2026-05-01T15:47:34.154Z</time></trkpt><trkpt lat="44.664555" lon="8.5257817"><ele>145.0</ele><time>2026-05-01T15:47:35.158Z</time></trkpt><trkpt lat="44.66474" lon="8.52572"><ele>144.0</ele><time>2026-05-01T15:47:36.156Z</time></trkpt><trkpt lat="44.6649133" lon="8.52567"><ele>143.0</ele><time>2026-05-01T15:47:37.151Z</time></trkpt><trkpt lat="44.66508" lon="8.5256217"><ele>143.0</ele><time>2026-05-01T15:47:38.153Z</time></trkpt><trkpt lat="44.66524" lon="8.5255767"><ele>143.0</ele><time>2026-05-01T15:47:39.155Z</time></trkpt><trkpt lat="44.6653967" lon="8.525525"><ele>143.0</ele><time>2026-05-01T15:47:40.154Z</time></trkpt><trkpt lat="44.665555" lon="8.5254733"><ele>143.0</ele><time>2026-05-01T15:47:41.154Z</time></trkpt><trkpt lat="44.66571" lon="8.525425"><ele>143.0</ele><time>2026-05-01T15:47:42.156Z</time></trkpt><trkpt lat="44.6658617" lon="8.5253767"><ele>143.0</ele><time>2026-05-01T15:47:43.154Z</time></trkpt><trkpt lat="44.66601" lon="8.525325"><ele>142.75</ele><time>2026-05-01T15:47:44.153Z</time></trkpt><trkpt lat="44.6661567" lon="8.5252617"><ele>142.5</ele><time>2026-05-01T15:47:45.155Z</time></trkpt><trkpt lat="44.66629" lon="8.5251883"><ele>142.25</ele><time>2026-05-01T15:47:46.153Z</time></trkpt><trkpt lat="44.666405" lon="8.525115"><ele>142.0</ele><time>2026-05-01T15:47:47.154Z</time></trkpt><trkpt lat="44.6665017" lon="8.5250467"><ele>142.0</ele><time>2026-05-01T15:47:48.152Z</time></trkpt><trkpt lat="44.6665733" lon="8.5250033"><ele>142.0</ele><time>2026-05-01T15:47:49.168Z</time></trkpt><trkpt lat="44.6666367" lon="8.5249767"><ele>142.0</ele><time>2026-05-01T15:47:50.155Z</time></trkpt><trkpt lat="44.66676" lon="8.525"><ele>142.0</ele><time>2026-05-01T15:47:52.154Z</time></trkpt><trkpt lat="44.6668167" lon="8.5250583"><ele>142.0</ele><time>2026-05-01T15:47:53.154Z</time></trkpt><trkpt lat="44.6668667" lon="8.5251567"><ele>142.0</ele><time>2026-05-01T15:47:54.156Z</time></trkpt><trkpt lat="44.6669183" lon="8.5253067"><ele>141.0</ele><time>2026-05-01T15:47:55.155Z</time></trkpt><trkpt lat="44.666975" lon="8.525445"><ele>140.0</ele><time>2026-05-01T15:47:56.154Z</time></trkpt><trkpt lat="44.6670433" lon="8.52557"><ele>139.0</ele><time>2026-05-01T15:47:57.151Z</time></trkpt><trkpt lat="44.667135" lon="8.5256683"><ele>138.0</ele><time>2026-05-01T15:47:58.151Z</time></trkpt><trkpt lat="44.6672417" lon="8.5257267"><ele>138.0</ele><time>2026-05-01T15:47:59.156Z</time></trkpt><trkpt lat="44.6673633" lon="8.5257583"><ele>138.0</ele><time>2026-05-01T15:48:00.162Z</time></trkpt><trkpt lat="44.6675" lon="8.5257733"><ele>138.0</ele><time>2026-05-01T15:48:01.153Z</time></trkpt><trkpt lat="44.6676583" lon="8.5257783"><ele>138.0</ele><time>2026-05-01T15:48:02.153Z</time></trkpt><trkpt lat="44.667825" lon="8.5257933"><ele>138.5</ele><time>2026-05-01T15:48:03.153Z</time></trkpt><trkpt lat="44.6679833" lon="8.5258"><ele>139.0</ele><time>2026-05-01T15:48:04.163Z</time></trkpt><trkpt lat="44.6681333" lon="8.52581"><ele>139.5</ele><time>2026-05-01T15:48:05.154Z</time></trkpt><trkpt lat="44.66827" lon="8.5258267"><ele>140.0</ele><time>2026-05-01T15:48:06.154Z</time></trkpt><trkpt lat="44.6683917" lon="8.52586"><ele>140.0</ele><time>2026-05-01T15:48:07.157Z</time></trkpt><trkpt lat="44.6685017" lon="8.52591"><ele>140.0</ele><time>2026-05-01T15:48:08.154Z</time></trkpt><trkpt lat="44.66859" lon="8.526"><ele>140.0</ele><time>2026-05-01T15:48:09.156Z</time></trkpt><trkpt lat="44.668665" lon="8.5261283"><ele>140.0</ele><time>2026-05-01T15:48:10.155Z</time></trkpt><trkpt lat="44.6687417" lon="8.5262667"><ele>141.5</ele><time>2026-05-01T15:48:11.159Z</time></trkpt><trkpt lat="44.6688317" lon="8.5264183"><ele>143.0</ele><time>2026-05-01T15:48:12.155Z</time></trkpt><trkpt lat="44.6688783" lon="8.5266167"><ele>144.5</ele><time>2026-05-01T15:48:13.156Z</time></trkpt><trkpt lat="44.6689217" lon="8.5268217"><ele>146.0</ele><time>2026-05-01T15:48:14.154Z</time></trkpt><trkpt lat="44.6689783" lon="8.527035"><ele>146.33333333333331</ele><time>2026-05-01T15:48:15.153Z</time></trkpt><trkpt lat="44.6690317" lon="8.5272483"><ele>146.66666666666666</ele><time>2026-05-01T15:48:16.154Z</time></trkpt><trkpt lat="44.6690883" lon="8.5274467"><ele>147.0</ele><time>2026-05-01T15:48:17.157Z</time></trkpt><trkpt lat="44.6691417" lon="8.52765"><ele>147.0</ele><time>2026-05-01T15:48:18.154Z</time></trkpt><trkpt lat="44.6692067" lon="8.5278583"><ele>147.0</ele><time>2026-05-01T15:48:19.154Z</time></trkpt><trkpt lat="44.6692783" lon="8.5280667"><ele>147.0</ele><time>2026-05-01T15:48:20.157Z</time></trkpt><trkpt lat="44.6693567" lon="8.528265"><ele>146.66666666666666</ele><time>2026-05-01T15:48:21.153Z</time></trkpt><trkpt lat="44.669425" lon="8.528465"><ele>146.33333333333331</ele><time>2026-05-01T15:48:22.155Z</time></trkpt><trkpt lat="44.6694867" lon="8.528665"><ele>146.0</ele><time>2026-05-01T15:48:23.152Z</time></trkpt><trkpt lat="44.6695633" lon="8.5288617"><ele>145.33333333333331</ele><time>2026-05-01T15:48:24.16Z</time></trkpt><trkpt lat="44.6696483" lon="8.5290517"><ele>144.66666666666666</ele><time>2026-05-01T15:48:25.156Z</time></trkpt><trkpt lat="44.6697367" lon="8.5292483"><ele>144.0</ele><time>2026-05-01T15:48:26.155Z</time></trkpt><trkpt lat="44.66983" lon="8.5294433"><ele>144.33333333333334</ele><time>2026-05-01T15:48:27.153Z</time></trkpt><trkpt lat="44.66993" lon="8.5296433"><ele>144.66666666666669</ele><time>2026-05-01T15:48:28.158Z</time></trkpt><trkpt lat="44.670045" lon="8.5298467"><ele>145.0</ele><time>2026-05-01T15:48:29.157Z</time></trkpt><trkpt lat="44.6701867" lon="8.53004"><ele>145.0</ele><time>2026-05-01T15:48:30.154Z</time></trkpt><trkpt lat="44.670355" lon="8.5302167"><ele>145.0</ele><time>2026-05-01T15:48:31.157Z</time></trkpt><trkpt lat="44.6705317" lon="8.53038"><ele>145.0</ele><time>2026-05-01T15:48:32.158Z</time></trkpt><trkpt lat="44.67071" lon="8.530535"><ele>145.0</ele><time>2026-05-01T15:48:33.156Z</time></trkpt><trkpt lat="44.6708783" lon="8.5306967"><ele>145.0</ele><time>2026-05-01T15:48:34.157Z</time></trkpt><trkpt lat="44.671035" lon="8.5308683"><ele>145.0</ele><time>2026-05-01T15:48:35.155Z</time></trkpt><trkpt lat="44.6711833" lon="8.5310567"><ele>144.0</ele><time>2026-05-01T15:48:36.155Z</time></trkpt><trkpt lat="44.67132" lon="8.53126"><ele>143.0</ele><time>2026-05-01T15:48:37.154Z</time></trkpt><trkpt lat="44.6714467" lon="8.5314917"><ele>142.0</ele><time>2026-05-01T15:48:38.154Z</time></trkpt><trkpt lat="44.6715633" lon="8.5317483"><ele>142.0</ele><time>2026-05-01T15:48:39.155Z</time></trkpt><trkpt lat="44.671675" lon="8.5320183"><ele>142.0</ele><time>2026-05-01T15:48:40.156Z</time></trkpt><trkpt lat="44.6717783" lon="8.5323033"><ele>143.0</ele><time>2026-05-01T15:48:41.157Z</time></trkpt><trkpt lat="44.67188" lon="8.5325983"><ele>144.0</ele><time>2026-05-01T15:48:42.156Z</time></trkpt><trkpt lat="44.67198" lon="8.532895"><ele>144.5</ele><time>2026-05-01T15:48:43.156Z</time></trkpt><trkpt lat="44.67208" lon="8.533195"><ele>145.0</ele><time>2026-05-01T15:48:44.152Z</time></trkpt><trkpt lat="44.6721733" lon="8.5334983"><ele>145.5</ele><time>2026-05-01T15:48:45.153Z</time></trkpt><trkpt lat="44.67227" lon="8.533805"><ele>146.0</ele><time>2026-05-01T15:48:46.154Z</time></trkpt><trkpt lat="44.6723717" lon="8.534125"><ele>146.0</ele><time>2026-05-01T15:48:47.155Z</time></trkpt><trkpt lat="44.67248" lon="8.5344567"><ele>146.0</ele><time>2026-05-01T15:48:48.153Z</time></trkpt><trkpt lat="44.67259" lon="8.5347917"><ele>146.0</ele><time>2026-05-01T15:48:49.156Z</time></trkpt><trkpt lat="44.6726983" lon="8.5351183"><ele>146.0</ele><time>2026-05-01T15:48:50.156Z</time></trkpt><trkpt lat="44.6728" lon="8.5354317"><ele>143.0</ele><time>2026-05-01T15:48:51.157Z</time></trkpt><trkpt lat="44.6728967" lon="8.535735"><ele>140.0</ele><time>2026-05-01T15:48:52.154Z</time></trkpt><trkpt lat="44.6729867" lon="8.5360233"><ele>140.66666666666666</ele><time>2026-05-01T15:48:53.156Z</time></trkpt><trkpt lat="44.6730683" lon="8.536295"><ele>141.33333333333334</ele><time>2026-05-01T15:48:54.154Z</time></trkpt><trkpt lat="44.6731317" lon="8.536565"><ele>142.0</ele><time>2026-05-01T15:48:55.158Z</time></trkpt><trkpt lat="44.6731783" lon="8.53684"><ele>142.66666666666669</ele><time>2026-05-01T15:48:56.157Z</time></trkpt><trkpt lat="44.673225" lon="8.5371083"><ele>143.33333333333334</ele><time>2026-05-01T15:48:57.158Z</time></trkpt><trkpt lat="44.6732733" lon="8.5373817"><ele>144.0</ele><time>2026-05-01T15:48:58.153Z</time></trkpt><trkpt lat="44.67333" lon="8.5376433"><ele>145.0</ele><time>2026-05-01T15:48:59.152Z</time></trkpt><trkpt lat="44.6734" lon="8.5379017"><ele>146.0</ele><time>2026-05-01T15:49:00.152Z</time></trkpt><trkpt lat="44.67348" lon="8.5381517"><ele>147.0</ele><time>2026-05-01T15:49:01.154Z</time></trkpt><trkpt lat="44.6735667" lon="8.5384017"><ele>146.33333333333334</ele><time>2026-05-01T15:49:02.155Z</time></trkpt><trkpt lat="44.6736517" lon="8.5386633"><ele>145.66666666666669</ele><time>2026-05-01T15:49:03.152Z</time></trkpt><trkpt lat="44.673735" lon="8.5389217"><ele>145.0</ele><time>2026-05-01T15:49:04.153Z</time></trkpt><trkpt lat="44.6738167" lon="8.5391817"><ele>145.0</ele><time>2026-05-01T15:49:05.158Z</time></trkpt><trkpt lat="44.6739" lon="8.5394383"><ele>145.0</ele><time>2026-05-01T15:49:06.149Z</time></trkpt><trkpt lat="44.6739867" lon="8.5397017"><ele>145.0</ele><time>2026-05-01T15:49:07.157Z</time></trkpt><trkpt lat="44.67407" lon="8.5399683"><ele>145.66666666666669</ele><time>2026-05-01T15:49:08.152Z</time></trkpt><trkpt lat="44.6741483" lon="8.5402283"><ele>146.33333333333334</ele><time>2026-05-01T15:49:09.153Z</time></trkpt><trkpt lat="44.6742167" lon="8.5404967"><ele>147.0</ele><time>2026-05-01T15:49:10.152Z</time></trkpt><trkpt lat="44.674275" lon="8.5407733"><ele>147.0</ele><time>2026-05-01T15:49:11.153Z</time></trkpt><trkpt lat="44.6743217" lon="8.5410583"><ele>147.0</ele><time>2026-05-01T15:49:12.151Z</time></trkpt><trkpt lat="44.674345" lon="8.5413667"><ele>147.0</ele><time>2026-05-01T15:49:13.158Z</time></trkpt><trkpt lat="44.6743733" lon="8.5416933"><ele>147.5</ele><time>2026-05-01T15:49:14.156Z</time></trkpt><trkpt lat="44.6744017" lon="8.5420383"><ele>148.0</ele><time>2026-05-01T15:49:15.154Z</time></trkpt><trkpt lat="44.674425" lon="8.54238"><ele>148.0</ele><time>2026-05-01T15:49:16.157Z</time></trkpt><trkpt lat="44.6744467" lon="8.542715"><ele>148.0</ele><time>2026-05-01T15:49:17.151Z</time></trkpt><trkpt lat="44.6744667" lon="8.5430333"><ele>148.0</ele><time>2026-05-01T15:49:18.155Z</time></trkpt><trkpt lat="44.6744867" lon="8.543335"><ele>148.0</ele><time>2026-05-01T15:49:19.151Z</time></trkpt><trkpt lat="44.6745067" lon="8.5436117"><ele>148.0</ele><time>2026-05-01T15:49:20.154Z</time></trkpt><trkpt lat="44.6745317" lon="8.54385"><ele>148.0</ele><time>2026-05-01T15:49:21.153Z</time></trkpt><trkpt lat="44.6745717" lon="8.5440667"><ele>148.0</ele><time>2026-05-01T15:49:22.152Z</time></trkpt><trkpt lat="44.6746383" lon="8.5442533"><ele>148.0</ele><time>2026-05-01T15:49:23.153Z</time></trkpt><trkpt lat="44.6747333" lon="8.5444083"><ele>148.0</ele><time>2026-05-01T15:49:24.153Z</time></trkpt><trkpt lat="44.6748533" lon="8.544535"><ele>148.0</ele><time>2026-05-01T15:49:25.154Z</time></trkpt><trkpt lat="44.675" lon="8.5446267"><ele>148.0</ele><time>2026-05-01T15:49:26.152Z</time></trkpt><trkpt lat="44.6751617" lon="8.5447067"><ele>147.33333333333334</ele><time>2026-05-01T15:49:27.155Z</time></trkpt><trkpt lat="44.67534" lon="8.5447867"><ele>146.66666666666666</ele><time>2026-05-01T15:49:28.155Z</time></trkpt><trkpt lat="44.6755317" lon="8.5448783"><ele>146.0</ele><time>2026-05-01T15:49:29.159Z</time></trkpt><trkpt lat="44.6757367" lon="8.54497"><ele>146.0</ele><time>2026-05-01T15:49:30.156Z</time></trkpt><trkpt lat="44.6759583" lon="8.5450533"><ele>146.0</ele><time>2026-05-01T15:49:31.153Z</time></trkpt><trkpt lat="44.6761833" lon="8.5451567"><ele>145.0</ele><time>2026-05-01T15:49:32.157Z</time></trkpt><trkpt lat="44.6764117" lon="8.545265"><ele>144.0</ele><time>2026-05-01T15:49:33.157Z</time></trkpt><trkpt lat="44.6766417" lon="8.5453733"><ele>143.5</ele><time>2026-05-01T15:49:34.156Z</time></trkpt><trkpt lat="44.676875" lon="8.5454783"><ele>143.0</ele><time>2026-05-01T15:49:35.155Z</time></trkpt><trkpt lat="44.6771133" lon="8.5455867"><ele>142.5</ele><time>2026-05-01T15:49:36.155Z</time></trkpt><trkpt lat="44.67735" lon="8.5456933"><ele>142.0</ele><time>2026-05-01T15:49:37.157Z</time></trkpt><trkpt lat="44.67759" lon="8.5457883"><ele>143.5</ele><time>2026-05-01T15:49:38.151Z</time></trkpt><trkpt lat="44.677835" lon="8.545875"><ele>145.0</ele><time>2026-05-01T15:49:39.154Z</time></trkpt><trkpt lat="44.6780767" lon="8.5459733"><ele>145.0</ele><time>2026-05-01T15:49:40.153Z</time></trkpt><trkpt lat="44.6783183" lon="8.5460817"><ele>145.0</ele><time>2026-05-01T15:49:41.155Z</time></trkpt><trkpt lat="44.6785567" lon="8.5461883"><ele>144.5</ele><time>2026-05-01T15:49:42.152Z</time></trkpt><trkpt lat="44.6787967" lon="8.5463"><ele>144.0</ele><time>2026-05-01T15:49:43.153Z</time></trkpt><trkpt lat="44.6790333" lon="8.54641"><ele>144.0</ele><time>2026-05-01T15:49:44.153Z</time></trkpt><trkpt lat="44.6792683" lon="8.546515"><ele>144.0</ele><time>2026-05-01T15:49:45.153Z</time></trkpt><trkpt lat="44.6795033" lon="8.54662"><ele>141.5</ele><time>2026-05-01T15:49:46.153Z</time></trkpt><trkpt lat="44.6797333" lon="8.5467267"><ele>139.0</ele><time>2026-05-01T15:49:47.154Z</time></trkpt><trkpt lat="44.6799583" lon="8.5468283"><ele>139.0</ele><time>2026-05-01T15:49:48.156Z</time></trkpt><trkpt lat="44.6801717" lon="8.5469233"><ele>139.0</ele><time>2026-05-01T15:49:49.154Z</time></trkpt><trkpt lat="44.6803717" lon="8.5470183"><ele>139.0</ele><time>2026-05-01T15:49:50.16Z</time></trkpt><trkpt lat="44.680565" lon="8.5471033"><ele>141.0</ele><time>2026-05-01T15:49:51.15Z</time></trkpt><trkpt lat="44.680755" lon="8.5471817"><ele>143.0</ele><time>2026-05-01T15:49:52.153Z</time></trkpt><trkpt lat="44.680935" lon="8.5472567"><ele>145.0</ele><time>2026-05-01T15:49:53.153Z</time></trkpt><trkpt lat="44.6810967" lon="8.5473267"><ele>145.25</ele><time>2026-05-01T15:49:54.154Z</time></trkpt><trkpt lat="44.681235" lon="8.5473833"><ele>145.5</ele><time>2026-05-01T15:49:55.153Z</time></trkpt><trkpt lat="44.6813617" lon="8.5474467"><ele>145.75</ele><time>2026-05-01T15:49:56.155Z</time></trkpt><trkpt lat="44.6814767" lon="8.54751"><ele>146.0</ele><time>2026-05-01T15:49:57.155Z</time></trkpt><trkpt lat="44.6815767" lon="8.54759"><ele>146.0</ele><time>2026-05-01T15:49:58.157Z</time></trkpt><trkpt lat="44.68164" lon="8.54772"><ele>146.0</ele><time>2026-05-01T15:49:59.15Z</time></trkpt><trkpt lat="44.6816783" lon="8.5478667"><ele>146.0</ele><time>2026-05-01T15:50:00.153Z</time></trkpt><trkpt lat="44.6816983" lon="8.548005"><ele>146.0</ele><time>2026-05-01T15:50:01.151Z</time></trkpt><trkpt lat="44.6817283" lon="8.5481317"><ele>146.0</ele><time>2026-05-01T15:50:02.153Z</time></trkpt><trkpt lat="44.6817783" lon="8.5482467"><ele>146.0</ele><time>2026-05-01T15:50:03.153Z</time></trkpt><trkpt lat="44.6818433" lon="8.5483467"><ele>146.0</ele><time>2026-05-01T15:50:04.152Z</time></trkpt><trkpt lat="44.6819367" lon="8.5484133"><ele>146.0</ele><time>2026-05-01T15:50:05.151Z</time></trkpt><trkpt lat="44.682045" lon="8.54846"><ele>146.0</ele><time>2026-05-01T15:50:06.156Z</time></trkpt><trkpt lat="44.682165" lon="8.5485"><ele>146.0</ele><time>2026-05-01T15:50:07.154Z</time></trkpt><trkpt lat="44.682285" lon="8.548545"><ele>146.0</ele><time>2026-05-01T15:50:08.151Z</time></trkpt><trkpt lat="44.6824067" lon="8.5486117"><ele>146.0</ele><time>2026-05-01T15:50:09.154Z</time></trkpt><trkpt lat="44.6825133" lon="8.548725"><ele>146.0</ele><time>2026-05-01T15:50:10.153Z</time></trkpt><trkpt lat="44.6826183" lon="8.5488533"><ele>146.0</ele><time>2026-05-01T15:50:11.154Z</time></trkpt><trkpt lat="44.6827267" lon="8.5489967"><ele>145.33333333333331</ele><time>2026-05-01T15:50:12.155Z</time></trkpt><trkpt lat="44.6828483" lon="8.549145"><ele>144.66666666666666</ele><time>2026-05-01T15:50:13.155Z</time></trkpt><trkpt lat="44.6829717" lon="8.5493"><ele>144.0</ele><time>2026-05-01T15:50:14.151Z</time></trkpt><trkpt lat="44.6830917" lon="8.549455"><ele>144.0</ele><time>2026-05-01T15:50:15.153Z</time></trkpt><trkpt lat="44.683215" lon="8.5496083"><ele>144.0</ele><time>2026-05-01T15:50:16.152Z</time></trkpt><trkpt lat="44.6833383" lon="8.54976"><ele>144.0</ele><time>2026-05-01T15:50:17.156Z</time></trkpt><trkpt lat="44.6834567" lon="8.549905"><ele>144.0</ele><time>2026-05-01T15:50:18.152Z</time></trkpt><trkpt lat="44.68358" lon="8.5500517"><ele>144.0</ele><time>2026-05-01T15:50:19.153Z</time></trkpt><trkpt lat="44.6837033" lon="8.5502033"><ele>144.0</ele><time>2026-05-01T15:50:20.153Z</time></trkpt><trkpt lat="44.683825" lon="8.5503583"><ele>142.66666666666666</ele><time>2026-05-01T15:50:21.152Z</time></trkpt><trkpt lat="44.6839467" lon="8.5505233"><ele>141.33333333333331</ele><time>2026-05-01T15:50:22.156Z</time></trkpt><trkpt lat="44.6840583" lon="8.5507067"><ele>140.0</ele><time>2026-05-01T15:50:23.155Z</time></trkpt><trkpt lat="44.6841683" lon="8.55089"><ele>140.0</ele><time>2026-05-01T15:50:24.155Z</time></trkpt><trkpt lat="44.6842783" lon="8.55108"><ele>140.0</ele><time>2026-05-01T15:50:25.157Z</time></trkpt><trkpt lat="44.6843917" lon="8.5512633"><ele>140.0</ele><time>2026-05-01T15:50:26.155Z</time></trkpt><trkpt lat="44.6845117" lon="8.5514483"><ele>139.66666666666666</ele><time>2026-05-01T15:50:27.156Z</time></trkpt><trkpt lat="44.6846317" lon="8.55162"><ele>139.33333333333334</ele><time>2026-05-01T15:50:28.158Z</time></trkpt><trkpt lat="44.68475" lon="8.551795"><ele>139.0</ele><time>2026-05-01T15:50:29.157Z</time></trkpt><trkpt lat="44.6848683" lon="8.5519617"><ele>139.33333333333334</ele><time>2026-05-01T15:50:30.157Z</time></trkpt><trkpt lat="44.6849867" lon="8.5521233"><ele>139.66666666666666</ele><time>2026-05-01T15:50:31.154Z</time></trkpt><trkpt lat="44.6851083" lon="8.552265"><ele>140.0</ele><time>2026-05-01T15:50:32.156Z</time></trkpt><trkpt lat="44.685235" lon="8.5523867"><ele>139.66666666666666</ele><time>2026-05-01T15:50:33.157Z</time></trkpt><trkpt lat="44.6853717" lon="8.5524883"><ele>139.33333333333334</ele><time>2026-05-01T15:50:34.156Z</time></trkpt><trkpt lat="44.6855117" lon="8.5525817"><ele>139.0</ele><time>2026-05-01T15:50:35.155Z</time></trkpt><trkpt lat="44.685655" lon="8.5526783"><ele>139.0</ele><time>2026-05-01T15:50:36.155Z</time></trkpt><trkpt lat="44.6857967" lon="8.5528017"><ele>139.0</ele><time>2026-05-01T15:50:37.154Z</time></trkpt><trkpt lat="44.685935" lon="8.5529583"><ele>139.0</ele><time>2026-05-01T15:50:38.158Z</time></trkpt><trkpt lat="44.6860733" lon="8.5531283"><ele>138.33333333333334</ele><time>2026-05-01T15:50:39.152Z</time></trkpt><trkpt lat="44.68621" lon="8.55331"><ele>137.66666666666666</ele><time>2026-05-01T15:50:40.156Z</time></trkpt><trkpt lat="44.6863483" lon="8.55348"><ele>137.0</ele><time>2026-05-01T15:50:41.154Z</time></trkpt><trkpt lat="44.6864917" lon="8.55364"><ele>137.0</ele><time>2026-05-01T15:50:42.154Z</time></trkpt><trkpt lat="44.68664" lon="8.5537867"><ele>137.0</ele><time>2026-05-01T15:50:43.156Z</time></trkpt><trkpt lat="44.68679" lon="8.55393"><ele>137.0</ele><time>2026-05-01T15:50:44.155Z</time></trkpt><trkpt lat="44.68694" lon="8.5540733"><ele>137.33333333333331</ele><time>2026-05-01T15:50:45.157Z</time></trkpt><trkpt lat="44.6870917" lon="8.5542117"><ele>137.66666666666666</ele><time>2026-05-01T15:50:46.156Z</time></trkpt><trkpt lat="44.6872417" lon="8.55435"><ele>138.0</ele><time>2026-05-01T15:50:47.158Z</time></trkpt><trkpt lat="44.687395" lon="8.5544833"><ele>138.66666666666666</ele><time>2026-05-01T15:50:48.155Z</time></trkpt><trkpt lat="44.68755" lon="8.554615"><ele>139.33333333333331</ele><time>2026-05-01T15:50:49.154Z</time></trkpt><trkpt lat="44.6877033" lon="8.55475"><ele>140.0</ele><time>2026-05-01T15:50:50.155Z</time></trkpt><trkpt lat="44.6878583" lon="8.5548883"><ele>138.33333333333331</ele><time>2026-05-01T15:50:51.152Z</time></trkpt><trkpt lat="44.688015" lon="8.555025"><ele>136.66666666666666</ele><time>2026-05-01T15:50:52.153Z</time></trkpt><trkpt lat="44.6881683" lon="8.5551633"><ele>135.0</ele><time>2026-05-01T15:50:53.154Z</time></trkpt><trkpt lat="44.6883183" lon="8.5553"><ele>135.0</ele><time>2026-05-01T15:50:54.153Z</time></trkpt><trkpt lat="44.688465" lon="8.5554233"><ele>135.0</ele><time>2026-05-01T15:50:55.157Z</time></trkpt><trkpt lat="44.68861" lon="8.55554"><ele>135.0</ele><time>2026-05-01T15:50:56.152Z</time></trkpt><trkpt lat="44.688755" lon="8.5556333"><ele>135.0</ele><time>2026-05-01T15:50:57.151Z</time></trkpt><trkpt lat="44.6889017" lon="8.5557167"><ele>135.0</ele><time>2026-05-01T15:50:58.15Z</time></trkpt><trkpt lat="44.68906" lon="8.55577"><ele>135.0</ele><time>2026-05-01T15:50:59.151Z</time></trkpt><trkpt lat="44.689225" lon="8.5557983"><ele>135.0</ele><time>2026-05-01T15:51:00.157Z</time></trkpt><trkpt lat="44.6893867" lon="8.5558317"><ele>135.0</ele><time>2026-05-01T15:51:01.155Z</time></trkpt><trkpt lat="44.6895383" lon="8.5558933"><ele>135.0</ele><time>2026-05-01T15:51:02.154Z</time></trkpt><trkpt lat="44.689675" lon="8.555995"><ele>136.0</ele><time>2026-05-01T15:51:03.16Z</time></trkpt><trkpt lat="44.6898033" lon="8.556115"><ele>137.0</ele><time>2026-05-01T15:51:04.152Z</time></trkpt><trkpt lat="44.689935" lon="8.5562317"><ele>138.0</ele><time>2026-05-01T15:51:05.155Z</time></trkpt><trkpt lat="44.6900733" lon="8.5563333"><ele>138.66666666666666</ele><time>2026-05-01T15:51:06.154Z</time></trkpt><trkpt lat="44.6902233" lon="8.5564133"><ele>139.33333333333331</ele><time>2026-05-01T15:51:07.153Z</time></trkpt><trkpt lat="44.6903833" lon="8.5564583"><ele>140.0</ele><time>2026-05-01T15:51:08.152Z</time></trkpt><trkpt lat="44.6905433" lon="8.5564817"><ele>140.66666666666666</ele><time>2026-05-01T15:51:09.153Z</time></trkpt><trkpt lat="44.6906983" lon="8.5565"><ele>141.33333333333334</ele><time>2026-05-01T15:51:10.152Z</time></trkpt><trkpt lat="44.6908483" lon="8.556505"><ele>142.0</ele><time>2026-05-01T15:51:11.154Z</time></trkpt><trkpt lat="44.6909933" lon="8.556495"><ele>145.0</ele><time>2026-05-01T15:51:12.153Z</time></trkpt><trkpt lat="44.6911417" lon="8.5564533"><ele>148.0</ele><time>2026-05-01T15:51:13.16Z</time></trkpt><trkpt lat="44.69129" lon="8.5563833"><ele>151.0</ele><time>2026-05-01T15:51:14.154Z</time></trkpt><trkpt lat="44.6914283" lon="8.5562817"><ele>148.33333333333334</ele><time>2026-05-01T15:51:15.152Z</time></trkpt><trkpt lat="44.69156" lon="8.556155"><ele>145.66666666666666</ele><time>2026-05-01T15:51:16.15Z</time></trkpt><trkpt lat="44.6916883" lon="8.556"><ele>143.0</ele><time>2026-05-01T15:51:17.156Z</time></trkpt><trkpt lat="44.6918117" lon="8.5558283"><ele>142.66666666666666</ele><time>2026-05-01T15:51:18.159Z</time></trkpt><trkpt lat="44.69193" lon="8.5556533"><ele>142.33333333333334</ele><time>2026-05-01T15:51:19.154Z</time></trkpt><trkpt lat="44.6920433" lon="8.5554933"><ele>142.0</ele><time>2026-05-01T15:51:20.153Z</time></trkpt><trkpt lat="44.6921483" lon="8.5553433"><ele>142.0</ele><time>2026-05-01T15:51:21.154Z</time></trkpt><trkpt lat="44.69225" lon="8.5552017"><ele>142.0</ele><time>2026-05-01T15:51:22.149Z</time></trkpt><trkpt lat="44.6923517" lon="8.5550617"><ele>142.0</ele><time>2026-05-01T15:51:23.155Z</time></trkpt><trkpt lat="44.6924533" lon="8.5549267"><ele>142.0</ele><time>2026-05-01T15:51:24.16Z</time></trkpt><trkpt lat="44.6925533" lon="8.5547983"><ele>142.0</ele><time>2026-05-01T15:51:25.157Z</time></trkpt><trkpt lat="44.692665" lon="8.554695"><ele>142.0</ele><time>2026-05-01T15:51:26.155Z</time></trkpt><trkpt lat="44.69278" lon="8.5546217"><ele>142.0</ele><time>2026-05-01T15:51:27.155Z</time></trkpt><trkpt lat="44.6928867" lon="8.5545533"><ele>142.0</ele><time>2026-05-01T15:51:28.154Z</time></trkpt><trkpt lat="44.693025" lon="8.55453"><ele>139.0</ele><time>2026-05-01T15:51:29.152Z</time></trkpt><trkpt lat="44.6931933" lon="8.554535"><ele>136.0</ele><time>2026-05-01T15:51:30.161Z</time></trkpt><trkpt lat="44.693355" lon="8.5545117"><ele>133.0</ele><time>2026-05-01T15:51:31.154Z</time></trkpt><trkpt lat="44.69352" lon="8.554485"><ele>133.33333333333334</ele><time>2026-05-01T15:51:32.154Z</time></trkpt><trkpt lat="44.6936833" lon="8.55447"><ele>133.66666666666666</ele><time>2026-05-01T15:51:33.153Z</time></trkpt><trkpt lat="44.6938383" lon="8.554455"><ele>134.0</ele><time>2026-05-01T15:51:34.156Z</time></trkpt><trkpt lat="44.6939867" lon="8.55445"><ele>134.0</ele><time>2026-05-01T15:51:35.154Z</time></trkpt><trkpt lat="44.6941333" lon="8.5544517"><ele>134.0</ele><time>2026-05-01T15:51:36.151Z</time></trkpt><trkpt lat="44.694275" lon="8.5544367"><ele>134.0</ele><time>2026-05-01T15:51:37.152Z</time></trkpt><trkpt lat="44.694415" lon="8.55441"><ele>134.0</ele><time>2026-05-01T15:51:38.152Z</time></trkpt><trkpt lat="44.6945433" lon="8.5543483"><ele>136.25</ele><time>2026-05-01T15:51:39.151Z</time></trkpt><trkpt lat="44.6946483" lon="8.5542517"><ele>138.5</ele><time>2026-05-01T15:51:40.158Z</time></trkpt><trkpt lat="44.6947283" lon="8.5541133"><ele>140.75</ele><time>2026-05-01T15:51:41.154Z</time></trkpt><trkpt lat="44.6947967" lon="8.5539383"><ele>143.0</ele><time>2026-05-01T15:51:42.153Z</time></trkpt><trkpt lat="44.694875" lon="8.5537533"><ele>138.66666666666666</ele><time>2026-05-01T15:51:43.157Z</time></trkpt><trkpt lat="44.69498" lon="8.5535983"><ele>134.33333333333334</ele><time>2026-05-01T15:51:44.156Z</time></trkpt><trkpt lat="44.6951" lon="8.55345"><ele>130.0</ele><time>2026-05-01T15:51:45.153Z</time></trkpt><trkpt lat="44.69522" lon="8.553285"><ele>131.33333333333334</ele><time>2026-05-01T15:51:46.151Z</time></trkpt><trkpt lat="44.695325" lon="8.5531183"><ele>132.66666666666666</ele><time>2026-05-01T15:51:47.154Z</time></trkpt><trkpt lat="44.6954417" lon="8.55298"><ele>134.0</ele><time>2026-05-01T15:51:48.152Z</time></trkpt><trkpt lat="44.6955617" lon="8.552845"><ele>134.0</ele><time>2026-05-01T15:51:49.157Z</time></trkpt><trkpt lat="44.6956833" lon="8.552705"><ele>134.0</ele><time>2026-05-01T15:51:50.153Z</time></trkpt><trkpt lat="44.69581" lon="8.5525733"><ele>134.0</ele><time>2026-05-01T15:51:51.156Z</time></trkpt><trkpt lat="44.6959417" lon="8.5524417"><ele>135.0</ele><time>2026-05-01T15:51:52.156Z</time></trkpt><trkpt lat="44.69609" lon="8.5523017"><ele>136.0</ele><time>2026-05-01T15:51:53.154Z</time></trkpt><trkpt lat="44.6962517" lon="8.5521467"><ele>137.0</ele><time>2026-05-01T15:51:54.151Z</time></trkpt><trkpt lat="44.6964267" lon="8.551985"><ele>137.0</ele><time>2026-05-01T15:51:55.154Z</time></trkpt><trkpt lat="44.6965817" lon="8.551785"><ele>137.0</ele><time>2026-05-01T15:51:56.152Z</time></trkpt><trkpt lat="44.696715" lon="8.5515483"><ele>137.0</ele><time>2026-05-01T15:51:57.155Z</time></trkpt><trkpt lat="44.6968367" lon="8.5512867"><ele>139.66666666666666</ele><time>2026-05-01T15:51:58.154Z</time></trkpt><trkpt lat="44.6969467" lon="8.5510167"><ele>142.33333333333334</ele><time>2026-05-01T15:51:59.154Z</time></trkpt><trkpt lat="44.697055" lon="8.55075"><ele>145.0</ele><time>2026-05-01T15:52:00.152Z</time></trkpt><trkpt lat="44.6971617" lon="8.5505167"><ele>142.0</ele><time>2026-05-01T15:52:01.155Z</time></trkpt><trkpt lat="44.6972317" lon="8.550265"><ele>139.0</ele><time>2026-05-01T15:52:02.157Z</time></trkpt><trkpt lat="44.6973233" lon="8.550075"><ele>136.0</ele><time>2026-05-01T15:52:03.154Z</time></trkpt><trkpt lat="44.6974567" lon="8.549965"><ele>136.0</ele><time>2026-05-01T15:52:04.154Z</time></trkpt><trkpt lat="44.6975917" lon="8.54985"><ele>136.0</ele><time>2026-05-01T15:52:05.154Z</time></trkpt><trkpt lat="44.6977317" lon="8.5497167"><ele>136.0</ele><time>2026-05-01T15:52:06.155Z</time></trkpt><trkpt lat="44.697875" lon="8.549555"><ele>135.66666666666669</ele><time>2026-05-01T15:52:07.155Z</time></trkpt><trkpt lat="44.698025" lon="8.5493883"><ele>135.33333333333334</ele><time>2026-05-01T15:52:08.151Z</time></trkpt><trkpt lat="44.69816" lon="8.5491983"><ele>135.0</ele><time>2026-05-01T15:52:09.154Z</time></trkpt><trkpt lat="44.6982967" lon="8.5489933"><ele>135.0</ele><time>2026-05-01T15:52:10.159Z</time></trkpt><trkpt lat="44.6984283" lon="8.5487683"><ele>135.0</ele><time>2026-05-01T15:52:11.16Z</time></trkpt><trkpt lat="44.6985483" lon="8.5485167"><ele>135.0</ele><time>2026-05-01T15:52:12.153Z</time></trkpt><trkpt lat="44.6986767" lon="8.5482833"><ele>135.0</ele><time>2026-05-01T15:52:13.154Z</time></trkpt><trkpt lat="44.6988067" lon="8.54805"><ele>135.0</ele><time>2026-05-01T15:52:14.153Z</time></trkpt><trkpt lat="44.6989167" lon="8.5478283"><ele>135.0</ele><time>2026-05-01T15:52:15.151Z</time></trkpt><trkpt lat="44.69901" lon="8.5476333"><ele>134.0</ele><time>2026-05-01T15:52:16.151Z</time></trkpt><trkpt lat="44.6990767" lon="8.547455"><ele>133.0</ele><time>2026-05-01T15:52:17.156Z</time></trkpt><trkpt lat="44.6991317" lon="8.547295"><ele>132.0</ele><time>2026-05-01T15:52:18.154Z</time></trkpt><trkpt lat="44.6991883" lon="8.5471583"><ele>131.0</ele><time>2026-05-01T15:52:19.154Z</time></trkpt><trkpt lat="44.69925" lon="8.547045"><ele>131.5</ele><time>2026-05-01T15:52:20.155Z</time></trkpt><trkpt lat="44.69932" lon="8.5469517"><ele>132.0</ele><time>2026-05-01T15:52:21.152Z</time></trkpt><trkpt lat="44.699405" lon="8.5468717"><ele>132.5</ele><time>2026-05-01T15:52:22.154Z</time></trkpt><trkpt lat="44.6995133" lon="8.5467883"><ele>133.0</ele><time>2026-05-01T15:52:23.153Z</time></trkpt><trkpt lat="44.699675" lon="8.5467333"><ele>133.0</ele><time>2026-05-01T15:52:24.157Z</time></trkpt><trkpt lat="44.6998467" lon="8.5466517"><ele>133.0</ele><time>2026-05-01T15:52:25.157Z</time></trkpt><trkpt lat="44.7000133" lon="8.5465617"><ele>133.0</ele><time>2026-05-01T15:52:26.157Z</time></trkpt><trkpt lat="44.7001817" lon="8.54647"><ele>133.66666666666669</ele><time>2026-05-01T15:52:27.15Z</time></trkpt><trkpt lat="44.700355" lon="8.546375"><ele>134.33333333333334</ele><time>2026-05-01T15:52:28.151Z</time></trkpt><trkpt lat="44.70053" lon="8.5462733"><ele>135.0</ele><time>2026-05-01T15:52:29.152Z</time></trkpt><trkpt lat="44.7007067" lon="8.546165"><ele>135.0</ele><time>2026-05-01T15:52:30.151Z</time></trkpt><trkpt lat="44.7008883" lon="8.5460433"><ele>135.0</ele><time>2026-05-01T15:52:31.153Z</time></trkpt><trkpt lat="44.7010767" lon="8.5459183"><ele>135.0</ele><time>2026-05-01T15:52:32.157Z</time></trkpt><trkpt lat="44.7012683" lon="8.5457867"><ele>135.33333333333334</ele><time>2026-05-01T15:52:33.158Z</time></trkpt><trkpt lat="44.70146" lon="8.54565"><ele>135.66666666666669</ele><time>2026-05-01T15:52:34.152Z</time></trkpt><trkpt lat="44.70165" lon="8.545515"><ele>136.0</ele><time>2026-05-01T15:52:35.155Z</time></trkpt><trkpt lat="44.7018333" lon="8.5453767"><ele>135.33333333333334</ele><time>2026-05-01T15:52:36.155Z</time></trkpt><trkpt lat="44.702015" lon="8.5452333"><ele>134.66666666666666</ele><time>2026-05-01T15:52:37.153Z</time></trkpt><trkpt lat="44.70219" lon="8.5450917"><ele>134.0</ele><time>2026-05-01T15:52:38.154Z</time></trkpt><trkpt lat="44.7023583" lon="8.5449517"><ele>134.0</ele><time>2026-05-01T15:52:39.157Z</time></trkpt><trkpt lat="44.702525" lon="8.54482"><ele>134.0</ele><time>2026-05-01T15:52:40.153Z</time></trkpt><trkpt lat="44.7026817" lon="8.5446967"><ele>134.0</ele><time>2026-05-01T15:52:41.157Z</time></trkpt><trkpt lat="44.702825" lon="8.54459"><ele>134.0</ele><time>2026-05-01T15:52:42.155Z</time></trkpt><trkpt lat="44.7029533" lon="8.5445"><ele>134.0</ele><time>2026-05-01T15:52:43.155Z</time></trkpt><trkpt lat="44.703085" lon="8.544435"><ele>134.0</ele><time>2026-05-01T15:52:44.153Z</time></trkpt><trkpt lat="44.7032167" lon="8.54441"><ele>134.0</ele><time>2026-05-01T15:52:45.154Z</time></trkpt><trkpt lat="44.703345" lon="8.5444067"><ele>134.0</ele><time>2026-05-01T15:52:46.156Z</time></trkpt><trkpt lat="44.703475" lon="8.54442"><ele>134.0</ele><time>2026-05-01T15:52:47.156Z</time></trkpt><trkpt lat="44.703605" lon="8.5444317"><ele>134.0</ele><time>2026-05-01T15:52:48.155Z</time></trkpt><trkpt lat="44.70373" lon="8.5444467"><ele>134.0</ele><time>2026-05-01T15:52:49.156Z</time></trkpt><trkpt lat="44.70383" lon="8.5444567"><ele>133.6</ele><time>2026-05-01T15:52:50.156Z</time></trkpt><trkpt lat="44.7039317" lon="8.5445033"><ele>133.2</ele><time>2026-05-01T15:52:52.165Z</time></trkpt><trkpt lat="44.703995" lon="8.5446183"><ele>132.79999999999998</ele><time>2026-05-01T15:52:54.154Z</time></trkpt><trkpt lat="44.7040917" lon="8.544665"><ele>132.4</ele><time>2026-05-01T15:52:56.153Z</time></trkpt><trkpt lat="44.704135" lon="8.5445517"><ele>132.0</ele><time>2026-05-01T15:52:58.151Z</time></trkpt><trkpt lat="44.7041183" lon="8.5443667"><ele>132.0</ele><time>2026-05-01T15:53:00.158Z</time></trkpt><trkpt lat="44.70409" lon="8.544255"><ele>132.0</ele><time>2026-05-01T15:53:01.155Z</time></trkpt><trkpt lat="44.7040567" lon="8.54413"><ele>132.0</ele><time>2026-05-01T15:53:02.156Z</time></trkpt><trkpt lat="44.7040067" lon="8.5439883"><ele>132.0</ele><time>2026-05-01T15:53:03.151Z</time></trkpt><trkpt lat="44.7039267" lon="8.543835"><ele>132.0</ele><time>2026-05-01T15:53:04.152Z</time></trkpt><trkpt lat="44.7038517" lon="8.5436683"><ele>132.0</ele><time>2026-05-01T15:53:05.155Z</time></trkpt><trkpt lat="44.7037867" lon="8.5434867"><ele>132.0</ele><time>2026-05-01T15:53:06.152Z</time></trkpt><trkpt lat="44.7037383" lon="8.5433017"><ele>132.0</ele><time>2026-05-01T15:53:07.157Z</time></trkpt><trkpt lat="44.703695" lon="8.5431167"><ele>132.0</ele><time>2026-05-01T15:53:08.152Z</time></trkpt><trkpt lat="44.7036567" lon="8.54295"><ele>132.25</ele><time>2026-05-01T15:53:09.152Z</time></trkpt><trkpt lat="44.70362" lon="8.5427967"><ele>132.5</ele><time>2026-05-01T15:53:10.154Z</time></trkpt><trkpt lat="44.7035817" lon="8.54265"><ele>132.75</ele><time>2026-05-01T15:53:11.153Z</time></trkpt><trkpt lat="44.7035417" lon="8.5424983"><ele>133.0</ele><time>2026-05-01T15:53:12.155Z</time></trkpt><trkpt lat="44.7035" lon="8.5423433"><ele>132.5</ele><time>2026-05-01T15:53:13.151Z</time></trkpt><trkpt lat="44.703455" lon="8.5421867"><ele>132.0</ele><time>2026-05-01T15:53:14.152Z</time></trkpt><trkpt lat="44.7034033" lon="8.5420233"><ele>131.5</ele><time>2026-05-01T15:53:15.153Z</time></trkpt><trkpt lat="44.703345" lon="8.541875"><ele>131.0</ele><time>2026-05-01T15:53:16.158Z</time></trkpt><trkpt lat="44.70328" lon="8.5417183"><ele>130.75</ele><time>2026-05-01T15:53:17.154Z</time></trkpt><trkpt lat="44.703215" lon="8.541545"><ele>130.5</ele><time>2026-05-01T15:53:18.155Z</time></trkpt><trkpt lat="44.70314" lon="8.541375"><ele>130.25</ele><time>2026-05-01T15:53:19.156Z</time></trkpt><trkpt lat="44.7030633" lon="8.5412217"><ele>130.0</ele><time>2026-05-01T15:53:20.153Z</time></trkpt><trkpt lat="44.7029817" lon="8.5410717"><ele>130.25</ele><time>2026-05-01T15:53:21.155Z</time></trkpt><trkpt lat="44.7028983" lon="8.5409233"><ele>130.5</ele><time>2026-05-01T15:53:22.156Z</time></trkpt><trkpt lat="44.702805" lon="8.540785"><ele>130.75</ele><time>2026-05-01T15:53:23.153Z</time></trkpt><trkpt lat="44.7027067" lon="8.540655"><ele>131.0</ele><time>2026-05-01T15:53:24.154Z</time></trkpt><trkpt lat="44.7026133" lon="8.540535"><ele>131.0</ele><time>2026-05-01T15:53:25.158Z</time></trkpt><trkpt lat="44.7025183" lon="8.5404167"><ele>131.0</ele><time>2026-05-01T15:53:26.159Z</time></trkpt><trkpt lat="44.7024283" lon="8.5402983"><ele>131.0</ele><time>2026-05-01T15:53:27.153Z</time></trkpt><trkpt lat="44.7023367" lon="8.54018"><ele>131.0</ele><time>2026-05-01T15:53:28.157Z</time></trkpt><trkpt lat="44.7022433" lon="8.5400567"><ele>131.5</ele><time>2026-05-01T15:53:29.156Z</time></trkpt><trkpt lat="44.70215" lon="8.5399333"><ele>132.0</ele><time>2026-05-01T15:53:30.15Z</time></trkpt><trkpt lat="44.7020517" lon="8.53981"><ele>132.5</ele><time>2026-05-01T15:53:31.157Z</time></trkpt><trkpt lat="44.7019567" lon="8.5396833"><ele>133.0</ele><time>2026-05-01T15:53:32.153Z</time></trkpt><trkpt lat="44.701865" lon="8.5395617"><ele>132.0</ele><time>2026-05-01T15:53:33.152Z</time></trkpt><trkpt lat="44.701775" lon="8.5394417"><ele>131.0</ele><time>2026-05-01T15:53:34.158Z</time></trkpt><trkpt lat="44.701695" lon="8.5393167"><ele>130.0</ele><time>2026-05-01T15:53:35.155Z</time></trkpt><trkpt lat="44.7016333" lon="8.5391817"><ele>129.0</ele><time>2026-05-01T15:53:36.156Z</time></trkpt><trkpt lat="44.7015867" lon="8.539035"><ele>129.0</ele><time>2026-05-01T15:53:37.155Z</time></trkpt><trkpt lat="44.7015533" lon="8.53888"><ele>129.0</ele><time>2026-05-01T15:53:38.157Z</time></trkpt><trkpt lat="44.7015433" lon="8.5387167"><ele>129.0</ele><time>2026-05-01T15:53:39.156Z</time></trkpt><trkpt lat="44.7015383" lon="8.5385483"><ele>129.0</ele><time>2026-05-01T15:53:40.154Z</time></trkpt><trkpt lat="44.7015367" lon="8.5383817"><ele>127.25</ele><time>2026-05-01T15:53:41.153Z</time></trkpt><trkpt lat="44.7015367" lon="8.538205"><ele>125.5</ele><time>2026-05-01T15:53:42.154Z</time></trkpt><trkpt lat="44.7015333" lon="8.538025"><ele>123.75</ele><time>2026-05-01T15:53:43.155Z</time></trkpt><trkpt lat="44.7015333" lon="8.5378383"><ele>122.0</ele><time>2026-05-01T15:53:44.154Z</time></trkpt><trkpt lat="44.7015367" lon="8.537655"><ele>121.75</ele><time>2026-05-01T15:53:45.155Z</time></trkpt><trkpt lat="44.70154" lon="8.5374633"><ele>121.5</ele><time>2026-05-01T15:53:46.159Z</time></trkpt><trkpt lat="44.701535" lon="8.5372667"><ele>121.25</ele><time>2026-05-01T15:53:47.157Z</time></trkpt><trkpt lat="44.70153" lon="8.5370733"><ele>121.0</ele><time>2026-05-01T15:53:48.158Z</time></trkpt><trkpt lat="44.701525" lon="8.5368967"><ele>122.25</ele><time>2026-05-01T15:53:49.158Z</time></trkpt><trkpt lat="44.70152" lon="8.5367183"><ele>123.5</ele><time>2026-05-01T15:53:50.159Z</time></trkpt><trkpt lat="44.7015283" lon="8.53655"><ele>124.75</ele><time>2026-05-01T15:53:51.155Z</time></trkpt><trkpt lat="44.7015317" lon="8.53639"><ele>126.0</ele><time>2026-05-01T15:53:52.157Z</time></trkpt><trkpt lat="44.7015367" lon="8.5362467"><ele>126.16666666666667</ele><time>2026-05-01T15:53:53.154Z</time></trkpt><trkpt lat="44.7015367" lon="8.536135"><ele>126.33333333333334</ele><time>2026-05-01T15:53:54.153Z</time></trkpt><trkpt lat="44.70154" lon="8.5360433"><ele>126.5</ele><time>2026-05-01T15:53:55.154Z</time></trkpt><trkpt lat="44.7015467" lon="8.53593"><ele>126.66666666666667</ele><time>2026-05-01T15:53:57.151Z</time></trkpt><trkpt lat="44.7016167" lon="8.5358017"><ele>126.83333333333334</ele><time>2026-05-01T15:54:00.156Z</time></trkpt><trkpt lat="44.7016733" lon="8.5357333"><ele>127.0</ele><time>2026-05-01T15:54:01.158Z</time></trkpt><trkpt lat="44.7017367" lon="8.5356483"><ele>127.0</ele><time>2026-05-01T15:54:02.156Z</time></trkpt><trkpt lat="44.7017933" lon="8.5355533"><ele>126.99999999999999</ele><time>2026-05-01T15:54:03.156Z</time></trkpt><trkpt lat="44.7018317" lon="8.53545"><ele>126.99999999999999</ele><time>2026-05-01T15:54:04.155Z</time></trkpt><trkpt lat="44.70186" lon="8.5353317"><ele>127.0</ele><time>2026-05-01T15:54:05.153Z</time></trkpt><trkpt lat="44.7018817" lon="8.53521"><ele>127.0</ele><time>2026-05-01T15:54:06.154Z</time></trkpt><trkpt lat="44.7018833" lon="8.5350633"><ele>126.8</ele><time>2026-05-01T15:54:07.155Z</time></trkpt><trkpt lat="44.7018017" lon="8.5349517"><ele>126.6</ele><time>2026-05-01T15:54:08.153Z</time></trkpt><trkpt lat="44.7017417" lon="8.534855"><ele>126.39999999999999</ele><time>2026-05-01T15:54:09.152Z</time></trkpt><trkpt lat="44.70167" lon="8.5347667"><ele>126.19999999999999</ele><time>2026-05-01T15:54:10.154Z</time></trkpt><trkpt lat="44.70161" lon="8.5346683"><ele>126.0</ele><time>2026-05-01T15:54:11.154Z</time></trkpt><trkpt lat="44.7015483" lon="8.5345667"><ele>126.5</ele><time>2026-05-01T15:54:12.154Z</time></trkpt><trkpt lat="44.70151" lon="8.5344483"><ele>127.0</ele><time>2026-05-01T15:54:13.156Z</time></trkpt><trkpt lat="44.7015017" lon="8.5342783"><ele>127.5</ele><time>2026-05-01T15:54:14.152Z</time></trkpt><trkpt lat="44.7015017" lon="8.53407"><ele>128.0</ele><time>2026-05-01T15:54:15.153Z</time></trkpt><trkpt lat="44.7014983" lon="8.5338383"><ele>128.0</ele><time>2026-05-01T15:54:16.153Z</time></trkpt><trkpt lat="44.7015017" lon="8.5336"><ele>128.0</ele><time>2026-05-01T15:54:17.155Z</time></trkpt><trkpt lat="44.7015033" lon="8.533355"><ele>128.0</ele><time>2026-05-01T15:54:18.154Z</time></trkpt><trkpt lat="44.701505" lon="8.533105"><ele>128.33333333333331</ele><time>2026-05-01T15:54:19.159Z</time></trkpt><trkpt lat="44.7015067" lon="8.5328483"><ele>128.66666666666666</ele><time>2026-05-01T15:54:20.153Z</time></trkpt><trkpt lat="44.7015017" lon="8.532585"><ele>129.0</ele><time>2026-05-01T15:54:21.164Z</time></trkpt><trkpt lat="44.701485" lon="8.5323183"><ele>128.33333333333334</ele><time>2026-05-01T15:54:22.158Z</time></trkpt><trkpt lat="44.7014617" lon="8.5320483"><ele>127.66666666666667</ele><time>2026-05-01T15:54:23.157Z</time></trkpt><trkpt lat="44.7014367" lon="8.5317817"><ele>127.0</ele><time>2026-05-01T15:54:24.159Z</time></trkpt><trkpt lat="44.7014083" lon="8.531515"><ele>127.0</ele><time>2026-05-01T15:54:25.158Z</time></trkpt><trkpt lat="44.7013783" lon="8.5312633"><ele>127.0</ele><time>2026-05-01T15:54:26.157Z</time></trkpt><trkpt lat="44.701355" lon="8.5310183"><ele>127.0</ele><time>2026-05-01T15:54:27.154Z</time></trkpt><trkpt lat="44.70133" lon="8.53078"><ele>126.66666666666667</ele><time>2026-05-01T15:54:28.155Z</time></trkpt><trkpt lat="44.701305" lon="8.5305533"><ele>126.33333333333334</ele><time>2026-05-01T15:54:29.159Z</time></trkpt><trkpt lat="44.7012817" lon="8.5303383"><ele>126.0</ele><time>2026-05-01T15:54:30.154Z</time></trkpt><trkpt lat="44.7012583" lon="8.530135"><ele>126.0</ele><time>2026-05-01T15:54:31.158Z</time></trkpt><trkpt lat="44.701235" lon="8.529935"><ele>126.0</ele><time>2026-05-01T15:54:32.154Z</time></trkpt><trkpt lat="44.70121" lon="8.529735"><ele>126.0</ele><time>2026-05-01T15:54:33.153Z</time></trkpt><trkpt lat="44.701185" lon="8.5295317"><ele>126.0</ele><time>2026-05-01T15:54:34.155Z</time></trkpt><trkpt lat="44.7011617" lon="8.5293233"><ele>126.0</ele><time>2026-05-01T15:54:35.153Z</time></trkpt><trkpt lat="44.7011333" lon="8.52912"><ele>126.0</ele><time>2026-05-01T15:54:36.154Z</time></trkpt><trkpt lat="44.701105" lon="8.5289267"><ele>126.0</ele><time>2026-05-01T15:54:37.156Z</time></trkpt><trkpt lat="44.7010817" lon="8.5287267"><ele>126.0</ele><time>2026-05-01T15:54:38.154Z</time></trkpt><trkpt lat="44.7010583" lon="8.528535"><ele>126.5</ele><time>2026-05-01T15:54:39.155Z</time></trkpt><trkpt lat="44.7010433" lon="8.528355"><ele>127.0</ele><time>2026-05-01T15:54:40.156Z</time></trkpt><trkpt lat="44.7010233" lon="8.5281983"><ele>127.5</ele><time>2026-05-01T15:54:41.154Z</time></trkpt><trkpt lat="44.701" lon="8.5280317"><ele>128.0</ele><time>2026-05-01T15:54:42.155Z</time></trkpt><trkpt lat="44.7009733" lon="8.527865"><ele>129.75</ele><time>2026-05-01T15:54:43.156Z</time></trkpt><trkpt lat="44.7009483" lon="8.5277017"><ele>131.5</ele><time>2026-05-01T15:54:44.157Z</time></trkpt><trkpt lat="44.7009283" lon="8.527535"><ele>133.25</ele><time>2026-05-01T15:54:45.159Z</time></trkpt><trkpt lat="44.7009067" lon="8.5273767"><ele>135.0</ele><time>2026-05-01T15:54:46.151Z</time></trkpt><trkpt lat="44.7008733" lon="8.5272183"><ele>136.5</ele><time>2026-05-01T15:54:47.157Z</time></trkpt><trkpt lat="44.7008583" lon="8.5270483"><ele>138.0</ele><time>2026-05-01T15:54:48.154Z</time></trkpt><trkpt lat="44.7008467" lon="8.5268767"><ele>139.5</ele><time>2026-05-01T15:54:49.157Z</time></trkpt><trkpt lat="44.7008333" lon="8.5267117"><ele>141.0</ele><time>2026-05-01T15:54:50.159Z</time></trkpt><trkpt lat="44.7008283" lon="8.5265367"><ele>141.0</ele><time>2026-05-01T15:54:51.156Z</time></trkpt><trkpt lat="44.700825" lon="8.5263633"><ele>141.0</ele><time>2026-05-01T15:54:52.155Z</time></trkpt><trkpt lat="44.7008367" lon="8.5261733"><ele>141.0</ele><time>2026-05-01T15:54:53.153Z</time></trkpt><trkpt lat="44.7008317" lon="8.5260017"><ele>141.0</ele><time>2026-05-01T15:54:54.153Z</time></trkpt><trkpt lat="44.70083" lon="8.5258333"><ele>141.4</ele><time>2026-05-01T15:54:55.155Z</time></trkpt><trkpt lat="44.7008233" lon="8.5256633"><ele>141.8</ele><time>2026-05-01T15:54:56.153Z</time></trkpt><trkpt lat="44.7008267" lon="8.5255033"><ele>142.20000000000002</ele><time>2026-05-01T15:54:57.151Z</time></trkpt><trkpt lat="44.7008133" lon="8.5253467"><ele>142.6</ele><time>2026-05-01T15:54:58.156Z</time></trkpt><trkpt lat="44.7008083" lon="8.525205"><ele>143.0</ele><time>2026-05-01T15:54:59.153Z</time></trkpt><trkpt lat="44.7008017" lon="8.5250733"><ele>143.0</ele><time>2026-05-01T15:55:00.154Z</time></trkpt><trkpt lat="44.7007967" lon="8.5249483"><ele>143.0</ele><time>2026-05-01T15:55:01.155Z</time></trkpt><trkpt lat="44.7007967" lon="8.5248283"><ele>143.0</ele><time>2026-05-01T15:55:02.154Z</time></trkpt><trkpt lat="44.700805" lon="8.52472"><ele>143.0</ele><time>2026-05-01T15:55:03.151Z</time></trkpt><trkpt lat="44.7008067" lon="8.52463"><ele>143.0</ele><time>2026-05-01T15:55:04.15Z</time></trkpt><trkpt lat="44.7008083" lon="8.5244917"><ele>143.0</ele><time>2026-05-01T15:55:06.151Z</time></trkpt><trkpt lat="44.7007767" lon="8.5243667"><ele>143.5</ele><time>2026-05-01T15:55:08.149Z</time></trkpt><trkpt lat="44.7007533" lon="8.5242767"><ele>144.0</ele><time>2026-05-01T15:55:10.154Z</time></trkpt><trkpt lat="44.7007467" lon="8.524185"><ele>144.5</ele><time>2026-05-01T15:55:18.158Z</time></trkpt><trkpt lat="44.700715" lon="8.5240783"><ele>145.0</ele><time>2026-05-01T15:55:20.156Z</time></trkpt><trkpt lat="44.7007033" lon="8.5239667"><ele>145.5</ele><time>2026-05-01T15:55:22.153Z</time></trkpt><trkpt lat="44.700785" lon="8.5239683"><ele>146.0</ele><time>2026-05-01T15:55:25.156Z</time></trkpt><trkpt lat="44.7008283" lon="8.52407"><ele>146.0</ele><time>2026-05-01T15:55:27.154Z</time></trkpt><trkpt lat="44.7008533" lon="8.52419"><ele>146.0</ele><time>2026-05-01T15:55:28.156Z</time></trkpt><trkpt lat="44.7008867" lon="8.5243333"><ele>146.0</ele><time>2026-05-01T15:55:29.15Z</time></trkpt><trkpt lat="44.70092" lon="8.5244833"><ele>146.0</ele><time>2026-05-01T15:55:30.155Z</time></trkpt><trkpt lat="44.7009633" lon="8.5246583"><ele>146.0</ele><time>2026-05-01T15:55:31.156Z</time></trkpt><trkpt lat="44.7010033" lon="8.5248267"><ele>145.25</ele><time>2026-05-01T15:55:32.153Z</time></trkpt><trkpt lat="44.701045" lon="8.5249933"><ele>144.5</ele><time>2026-05-01T15:55:33.153Z</time></trkpt><trkpt lat="44.7010867" lon="8.5251567"><ele>143.75</ele><time>2026-05-01T15:55:34.154Z</time></trkpt><trkpt lat="44.7011383" lon="8.5253217"><ele>143.0</ele><time>2026-05-01T15:55:35.156Z</time></trkpt><trkpt lat="44.701195" lon="8.525465"><ele>145.0</ele><time>2026-05-01T15:55:36.155Z</time></trkpt><trkpt lat="44.7012683" lon="8.5256033"><ele>147.0</ele><time>2026-05-01T15:55:37.155Z</time></trkpt><trkpt lat="44.70135" lon="8.52572"><ele>149.0</ele><time>2026-05-01T15:55:38.153Z</time></trkpt><trkpt lat="44.7014433" lon="8.5258133"><ele>151.0</ele><time>2026-05-01T15:55:39.154Z</time></trkpt><trkpt lat="44.70154" lon="8.5258933"><ele>151.0</ele><time>2026-05-01T15:55:40.155Z</time></trkpt><trkpt lat="44.70164" lon="8.525965"><ele>151.0</ele><time>2026-05-01T15:55:41.154Z</time></trkpt><trkpt lat="44.7017433" lon="8.5260383"><ele>151.0</ele><time>2026-05-01T15:55:42.157Z</time></trkpt><trkpt lat="44.701845" lon="8.5261017"><ele>151.0</ele><time>2026-05-01T15:55:43.159Z</time></trkpt><trkpt lat="44.7019467" lon="8.52616"><ele>151.0</ele><time>2026-05-01T15:55:44.154Z</time></trkpt><trkpt lat="44.70204" lon="8.5262083"><ele>151.5</ele><time>2026-05-01T15:55:45.157Z</time></trkpt><trkpt lat="44.702115" lon="8.5262333"><ele>152.0</ele><time>2026-05-01T15:55:46.152Z</time></trkpt><trkpt lat="44.7021817" lon="8.5262367"><ele>152.5</ele><time>2026-05-01T15:55:47.154Z</time></trkpt><trkpt lat="44.7022667" lon="8.5261833"><ele>153.0</ele><time>2026-05-01T15:55:49.153Z</time></trkpt><trkpt lat="44.7022883" lon="8.526045"><ele>153.5</ele><time>2026-05-01T15:55:51.155Z</time></trkpt><trkpt lat="44.70229" lon="8.5259383"><ele>154.0</ele><time>2026-05-01T15:55:52.158Z</time></trkpt><trkpt lat="44.7022783" lon="8.52579"><ele>154.0</ele><time>2026-05-01T15:55:53.155Z</time></trkpt><trkpt lat="44.7022683" lon="8.5256367"><ele>154.0</ele><time>2026-05-01T15:55:54.156Z</time></trkpt><trkpt lat="44.702285" lon="8.5254583"><ele>154.0</ele><time>2026-05-01T15:55:55.154Z</time></trkpt><trkpt lat="44.7022933" lon="8.5252917"><ele>154.0</ele><time>2026-05-01T15:55:56.153Z</time></trkpt><trkpt lat="44.7023083" lon="8.5251233"><ele>154.0</ele><time>2026-05-01T15:55:57.151Z</time></trkpt><trkpt lat="44.7023283" lon="8.5249717"><ele>154.0</ele><time>2026-05-01T15:55:58.154Z</time></trkpt><trkpt lat="44.7023433" lon="8.524845"><ele>154.0</ele><time>2026-05-01T15:55:59.149Z</time></trkpt><trkpt lat="44.70236" lon="8.5247417"><ele>154.0</ele><time>2026-05-01T15:56:00.156Z</time></trkpt><trkpt lat="44.70238" lon="8.5246517"><ele>154.0</ele><time>2026-05-01T15:56:02.152Z</time></trkpt><trkpt lat="44.7023983" lon="8.52455"><ele>154.0</ele><time>2026-05-01T15:56:07.153Z</time></trkpt><trkpt lat="44.702445" lon="8.524385"><ele>154.4</ele><time>2026-05-01T15:56:09.152Z</time></trkpt><trkpt lat="44.702475" lon="8.5242817"><ele>154.8</ele><time>2026-05-01T15:56:10.155Z</time></trkpt><trkpt lat="44.7025017" lon="8.52416"><ele>155.2</ele><time>2026-05-01T15:56:11.153Z</time></trkpt><trkpt lat="44.7025217" lon="8.5240267"><ele>155.6</ele><time>2026-05-01T15:56:12.156Z</time></trkpt><trkpt lat="44.7025417" lon="8.5238733"><ele>156.0</ele><time>2026-05-01T15:56:13.152Z</time></trkpt><trkpt lat="44.7025417" lon="8.5237133"><ele>156.5</ele><time>2026-05-01T15:56:14.155Z</time></trkpt><trkpt lat="44.7025267" lon="8.5235567"><ele>157.0</ele><time>2026-05-01T15:56:15.15Z</time></trkpt><trkpt lat="44.7025067" lon="8.5234017"><ele>157.5</ele><time>2026-05-01T15:56:16.153Z</time></trkpt><trkpt lat="44.7024833" lon="8.5232467"><ele>158.0</ele><time>2026-05-01T15:56:17.156Z</time></trkpt><trkpt lat="44.702455" lon="8.523075"><ele>158.0</ele><time>2026-05-01T15:56:18.153Z</time></trkpt><trkpt lat="44.7024417" lon="8.5229033"><ele>158.0</ele><time>2026-05-01T15:56:19.154Z</time></trkpt><trkpt lat="44.7024267" lon="8.5227367"><ele>158.0</ele><time>2026-05-01T15:56:20.159Z</time></trkpt><trkpt lat="44.7024183" lon="8.5225783"><ele>158.0</ele><time>2026-05-01T15:56:21.152Z</time></trkpt><trkpt lat="44.7024233" lon="8.5224333"><ele>158.4</ele><time>2026-05-01T15:56:22.155Z</time></trkpt><trkpt lat="44.7024433" lon="8.5222883"><ele>158.8</ele><time>2026-05-01T15:56:23.155Z</time></trkpt><trkpt lat="44.7024817" lon="8.522145"><ele>159.2</ele><time>2026-05-01T15:56:24.151Z</time></trkpt><trkpt lat="44.7025417" lon="8.52201"><ele>159.6</ele><time>2026-05-01T15:56:25.158Z</time></trkpt><trkpt lat="44.70261" lon="8.5218933"><ele>160.0</ele><time>2026-05-01T15:56:26.152Z</time></trkpt><trkpt lat="44.7026783" lon="8.5217833"><ele>160.2</ele><time>2026-05-01T15:56:27.155Z</time></trkpt><trkpt lat="44.7027217" lon="8.5216667"><ele>160.4</ele><time>2026-05-01T15:56:28.153Z</time></trkpt><trkpt lat="44.7027583" lon="8.5215333"><ele>160.60000000000002</ele><time>2026-05-01T15:56:29.154Z</time></trkpt><trkpt lat="44.702775" lon="8.5214"><ele>160.8</ele><time>2026-05-01T15:56:30.156Z</time></trkpt><trkpt lat="44.7027783" lon="8.5212583"><ele>161.0</ele><time>2026-05-01T15:56:31.165Z</time></trkpt><trkpt lat="44.7027667" lon="8.5210983"><ele>162.25</ele><time>2026-05-01T15:56:32.16Z</time></trkpt><trkpt lat="44.70275" lon="8.52094"><ele>163.5</ele><time>2026-05-01T15:56:33.16Z</time></trkpt><trkpt lat="44.7027383" lon="8.5207733"><ele>164.75</ele><time>2026-05-01T15:56:34.154Z</time></trkpt><trkpt lat="44.70273" lon="8.5206067"><ele>166.0</ele><time>2026-05-01T15:56:35.152Z</time></trkpt><trkpt lat="44.7027267" lon="8.52044"><ele>168.0</ele><time>2026-05-01T15:56:36.155Z</time></trkpt><trkpt lat="44.7027267" lon="8.5202767"><ele>170.0</ele><time>2026-05-01T15:56:37.161Z</time></trkpt><trkpt lat="44.7027267" lon="8.52012"><ele>172.0</ele><time>2026-05-01T15:56:38.158Z</time></trkpt><trkpt lat="44.7027133" lon="8.5199617"><ele>174.0</ele><time>2026-05-01T15:56:39.153Z</time></trkpt><trkpt lat="44.7026783" lon="8.5198233"><ele>176.0</ele><time>2026-05-01T15:56:40.151Z</time></trkpt><trkpt lat="44.702635" lon="8.5196917"><ele>176.4</ele><time>2026-05-01T15:56:41.156Z</time></trkpt><trkpt lat="44.702575" lon="8.5195583"><ele>176.8</ele><time>2026-05-01T15:56:42.153Z</time></trkpt><trkpt lat="44.702515" lon="8.51942"><ele>177.20000000000002</ele><time>2026-05-01T15:56:43.16Z</time></trkpt><trkpt lat="44.70246" lon="8.5192883"><ele>177.60000000000002</ele><time>2026-05-01T15:56:44.155Z</time></trkpt><trkpt lat="44.7024083" lon="8.5191617"><ele>178.0</ele><time>2026-05-01T15:56:45.155Z</time></trkpt><trkpt lat="44.70236" lon="8.5190367"><ele>178.0</ele><time>2026-05-01T15:56:46.152Z</time></trkpt><trkpt lat="44.7023233" lon="8.5189017"><ele>178.0</ele><time>2026-05-01T15:56:47.153Z</time></trkpt><trkpt lat="44.702295" lon="8.518755"><ele>178.0</ele><time>2026-05-01T15:56:48.157Z</time></trkpt><trkpt lat="44.7022717" lon="8.5185967"><ele>178.0</ele><time>2026-05-01T15:56:49.152Z</time></trkpt><trkpt lat="44.7022533" lon="8.5184283"><ele>178.0</ele><time>2026-05-01T15:56:50.155Z</time></trkpt><trkpt lat="44.7022333" lon="8.51826"><ele>178.5</ele><time>2026-05-01T15:56:51.152Z</time></trkpt><trkpt lat="44.7022167" lon="8.5180967"><ele>179.0</ele><time>2026-05-01T15:56:52.152Z</time></trkpt><trkpt lat="44.7022017" lon="8.5179317"><ele>179.5</ele><time>2026-05-01T15:56:53.16Z</time></trkpt><trkpt lat="44.7021817" lon="8.517775"><ele>180.0</ele><time>2026-05-01T15:56:54.152Z</time></trkpt><trkpt lat="44.70216" lon="8.5176117"><ele>181.75</ele><time>2026-05-01T15:56:55.155Z</time></trkpt><trkpt lat="44.702135" lon="8.517435"><ele>183.5</ele><time>2026-05-01T15:56:56.153Z</time></trkpt><trkpt lat="44.7021033" lon="8.51727"><ele>185.25</ele><time>2026-05-01T15:56:57.153Z</time></trkpt><trkpt lat="44.7020683" lon="8.5170967"><ele>187.0</ele><time>2026-05-01T15:56:58.156Z</time></trkpt><trkpt lat="44.7020133" lon="8.5169483"><ele>188.75</ele><time>2026-05-01T15:56:59.158Z</time></trkpt><trkpt lat="44.7019433" lon="8.5168117"><ele>190.5</ele><time>2026-05-01T15:57:00.156Z</time></trkpt><trkpt lat="44.701855" lon="8.5166817"><ele>192.25</ele><time>2026-05-01T15:57:01.154Z</time></trkpt><trkpt lat="44.7017617" lon="8.5165517"><ele>194.0</ele><time>2026-05-01T15:57:02.149Z</time></trkpt><trkpt lat="44.7016833" lon="8.51643"><ele>194.6</ele><time>2026-05-01T15:57:03.155Z</time></trkpt><trkpt lat="44.70162" lon="8.5163133"><ele>195.2</ele><time>2026-05-01T15:57:04.154Z</time></trkpt><trkpt lat="44.7015667" lon="8.516195"><ele>195.79999999999998</ele><time>2026-05-01T15:57:05.158Z</time></trkpt><trkpt lat="44.7015283" lon="8.5160667"><ele>196.39999999999998</ele><time>2026-05-01T15:57:06.154Z</time></trkpt><trkpt lat="44.7015" lon="8.51594"><ele>197.0</ele><time>2026-05-01T15:57:07.155Z</time></trkpt><trkpt lat="44.7014983" lon="8.51581"><ele>199.2</ele><time>2026-05-01T15:57:08.155Z</time></trkpt><trkpt lat="44.701495" lon="8.5156767"><ele>201.39999999999998</ele><time>2026-05-01T15:57:09.152Z</time></trkpt><trkpt lat="44.7014967" lon="8.5155383"><ele>203.60000000000002</ele><time>2026-05-01T15:57:10.15Z</time></trkpt><trkpt lat="44.7014967" lon="8.5154"><ele>205.8</ele><time>2026-05-01T15:57:11.151Z</time></trkpt><trkpt lat="44.7014867" lon="8.5152667"><ele>208.0</ele><time>2026-05-01T15:57:12.155Z</time></trkpt><trkpt lat="44.7014433" lon="8.51513"><ele>210.0</ele><time>2026-05-01T15:57:13.153Z</time></trkpt><trkpt lat="44.701385" lon="8.5150017"><ele>212.0</ele><time>2026-05-01T15:57:14.149Z</time></trkpt><trkpt lat="44.7013117" lon="8.51487"><ele>214.0</ele><time>2026-05-01T15:57:15.154Z</time></trkpt><trkpt lat="44.7012217" lon="8.51474"><ele>216.0</ele><time>2026-05-01T15:57:16.153Z</time></trkpt><trkpt lat="44.7011367" lon="8.5146133"><ele>215.66666666666666</ele><time>2026-05-01T15:57:17.158Z</time></trkpt><trkpt lat="44.7010583" lon="8.514505"><ele>215.33333333333331</ele><time>2026-05-01T15:57:18.153Z</time></trkpt><trkpt lat="44.701005" lon="8.514415"><ele>215.0</ele><time>2026-05-01T15:57:19.154Z</time></trkpt><trkpt lat="44.7009567" lon="8.51434"><ele>214.66666666666666</ele><time>2026-05-01T15:57:20.157Z</time></trkpt><trkpt lat="44.700905" lon="8.5142467"><ele>214.33333333333331</ele><time>2026-05-01T15:57:22.153Z</time></trkpt><trkpt lat="44.7008883" lon="8.514125"><ele>214.0</ele><time>2026-05-01T15:57:24.155Z</time></trkpt><trkpt lat="44.7009183" lon="8.51393"><ele>214.0</ele><time>2026-05-01T15:57:26.158Z</time></trkpt><trkpt lat="44.7009533" lon="8.5138117"><ele>214.0</ele><time>2026-05-01T15:57:27.157Z</time></trkpt><trkpt lat="44.70101" lon="8.5136717"><ele>214.0</ele><time>2026-05-01T15:57:28.152Z</time></trkpt><trkpt lat="44.701095" lon="8.51349"><ele>214.0</ele><time>2026-05-01T15:57:29.156Z</time></trkpt><trkpt lat="44.7011683" lon="8.513315"><ele>220.0</ele><time>2026-05-01T15:57:30.152Z</time></trkpt><trkpt lat="44.701235" lon="8.5131233"><ele>226.0</ele><time>2026-05-01T15:57:31.159Z</time></trkpt><trkpt lat="44.7012933" lon="8.5129233"><ele>232.0</ele><time>2026-05-01T15:57:32.156Z</time></trkpt><trkpt lat="44.70134" lon="8.512715"><ele>232.25</ele><time>2026-05-01T15:57:33.157Z</time></trkpt><trkpt lat="44.7013933" lon="8.512525"><ele>232.5</ele><time>2026-05-01T15:57:34.156Z</time></trkpt><trkpt lat="44.7014517" lon="8.5123633"><ele>232.75</ele><time>2026-05-01T15:57:35.157Z</time></trkpt><trkpt lat="44.7015267" lon="8.512245"><ele>233.0</ele><time>2026-05-01T15:57:36.154Z</time></trkpt><trkpt lat="44.701595" lon="8.51212"><ele>232.0</ele><time>2026-05-01T15:57:37.157Z</time></trkpt><trkpt lat="44.7016633" lon="8.5120033"><ele>231.0</ele><time>2026-05-01T15:57:38.153Z</time></trkpt><trkpt lat="44.7017317" lon="8.5118917"><ele>230.0</ele><time>2026-05-01T15:57:39.16Z</time></trkpt><trkpt lat="44.7018033" lon="8.5117883"><ele>229.0</ele><time>2026-05-01T15:57:40.159Z</time></trkpt><trkpt lat="44.7018817" lon="8.5116933"><ele>228.0</ele><time>2026-05-01T15:57:41.154Z</time></trkpt><trkpt lat="44.70196" lon="8.5116"><ele>230.2</ele><time>2026-05-01T15:57:42.154Z</time></trkpt><trkpt lat="44.7020383" lon="8.5115017"><ele>232.4</ele><time>2026-05-01T15:57:43.158Z</time></trkpt><trkpt lat="44.702115" lon="8.5114083"><ele>234.59999999999997</ele><time>2026-05-01T15:57:44.155Z</time></trkpt><trkpt lat="44.702185" lon="8.5113167"><ele>236.79999999999998</ele><time>2026-05-01T15:57:45.159Z</time></trkpt><trkpt lat="44.702285" lon="8.5112683"><ele>239.0</ele><time>2026-05-01T15:57:46.157Z</time></trkpt><trkpt lat="44.70237" lon="8.5112117"><ele>239.0</ele><time>2026-05-01T15:57:47.158Z</time></trkpt><trkpt lat="44.7024717" lon="8.5111767"><ele>238.99999999999997</ele><time>2026-05-01T15:57:48.157Z</time></trkpt><trkpt lat="44.7025467" lon="8.51111"><ele>238.99999999999997</ele><time>2026-05-01T15:57:49.154Z</time></trkpt><trkpt lat="44.7026367" lon="8.5110683"><ele>239.0</ele><time>2026-05-01T15:57:50.154Z</time></trkpt><trkpt lat="44.7027283" lon="8.5110333"><ele>239.0</ele><time>2026-05-01T15:57:51.158Z</time></trkpt><trkpt lat="44.7028233" lon="8.511"><ele>241.2</ele><time>2026-05-01T15:57:52.16Z</time></trkpt><trkpt lat="44.7029183" lon="8.5109683"><ele>243.39999999999998</ele><time>2026-05-01T15:57:53.153Z</time></trkpt><trkpt lat="44.7030133" lon="8.5109333"><ele>245.6</ele><time>2026-05-01T15:57:54.154Z</time></trkpt><trkpt lat="44.7031167" lon="8.51089"><ele>247.8</ele><time>2026-05-01T15:57:55.154Z</time></trkpt><trkpt lat="44.7032267" lon="8.510845"><ele>250.0</ele><time>2026-05-01T15:57:56.155Z</time></trkpt><trkpt lat="44.7033433" lon="8.510805"><ele>250.0</ele><time>2026-05-01T15:57:57.152Z</time></trkpt><trkpt lat="44.7034633" lon="8.51077"><ele>250.0</ele><time>2026-05-01T15:57:58.158Z</time></trkpt><trkpt lat="44.70358" lon="8.5107417"><ele>250.0</ele><time>2026-05-01T15:57:59.159Z</time></trkpt><trkpt lat="44.70369" lon="8.5107183"><ele>250.0</ele><time>2026-05-01T15:58:00.161Z</time></trkpt><trkpt lat="44.703785" lon="8.510695"><ele>250.0</ele><time>2026-05-01T15:58:01.157Z</time></trkpt><trkpt lat="44.703865" lon="8.5106667"><ele>249.0</ele><time>2026-05-01T15:58:02.156Z</time></trkpt><trkpt lat="44.7039467" lon="8.51062"><ele>248.0</ele><time>2026-05-01T15:58:03.157Z</time></trkpt><trkpt lat="44.7040183" lon="8.5105567"><ele>247.0</ele><time>2026-05-01T15:58:04.155Z</time></trkpt><trkpt lat="44.70408" lon="8.5104717"><ele>246.0</ele><time>2026-05-01T15:58:05.158Z</time></trkpt><trkpt lat="44.7041267" lon="8.5103583"><ele>245.0</ele><time>2026-05-01T15:58:06.155Z</time></trkpt><trkpt lat="44.7041633" lon="8.5102"><ele>247.4</ele><time>2026-05-01T15:58:07.152Z</time></trkpt><trkpt lat="44.7042133" lon="8.51007"><ele>249.8</ele><time>2026-05-01T15:58:08.156Z</time></trkpt><trkpt lat="44.7042683" lon="8.5099617"><ele>252.2</ele><time>2026-05-01T15:58:09.156Z</time></trkpt><trkpt lat="44.7043317" lon="8.5098783"><ele>254.6</ele><time>2026-05-01T15:58:10.159Z</time></trkpt><trkpt lat="44.70441" lon="8.5098383"><ele>257.0</ele><time>2026-05-01T15:58:11.156Z</time></trkpt><trkpt lat="44.70449" lon="8.5097967"><ele>258.33333333333337</ele><time>2026-05-01T15:58:12.154Z</time></trkpt><trkpt lat="44.7045617" lon="8.5097433"><ele>259.6666666666667</ele><time>2026-05-01T15:58:13.153Z</time></trkpt><trkpt lat="44.704625" lon="8.5096733"><ele>261.0</ele><time>2026-05-01T15:58:14.154Z</time></trkpt><trkpt lat="44.70467" lon="8.5095783"><ele>262.3333333333333</ele><time>2026-05-01T15:58:15.152Z</time></trkpt><trkpt lat="44.7047067" lon="8.5094617"><ele>263.66666666666663</ele><time>2026-05-01T15:58:16.16Z</time></trkpt><trkpt lat="44.704745" lon="8.5093367"><ele>265.0</ele><time>2026-05-01T15:58:17.157Z</time></trkpt><trkpt lat="44.7047867" lon="8.509225"><ele>266.8</ele><time>2026-05-01T15:58:18.156Z</time></trkpt><trkpt lat="44.704825" lon="8.5091133"><ele>268.6</ele><time>2026-05-01T15:58:19.158Z</time></trkpt><trkpt lat="44.7048717" lon="8.50901"><ele>270.4</ele><time>2026-05-01T15:58:20.157Z</time></trkpt><trkpt lat="44.7049317" lon="8.5089183"><ele>272.2</ele><time>2026-05-01T15:58:21.156Z</time></trkpt><trkpt lat="44.7050083" lon="8.5088433"><ele>274.0</ele><time>2026-05-01T15:58:22.157Z</time></trkpt><trkpt lat="44.7050917" lon="8.508785"><ele>273.2</ele><time>2026-05-01T15:58:23.156Z</time></trkpt><trkpt lat="44.705175" lon="8.50873"><ele>272.4</ele><time>2026-05-01T15:58:24.155Z</time></trkpt><trkpt lat="44.7052733" lon="8.508695"><ele>271.6</ele><time>2026-05-01T15:58:25.154Z</time></trkpt><trkpt lat="44.705355" lon="8.5086617"><ele>270.8</ele><time>2026-05-01T15:58:26.158Z</time></trkpt><trkpt lat="44.7054517" lon="8.50867"><ele>270.0</ele><time>2026-05-01T15:58:27.155Z</time></trkpt><trkpt lat="44.70557" lon="8.5086817"><ele>270.0</ele><time>2026-05-01T15:58:28.16Z</time></trkpt><trkpt lat="44.7057567" lon="8.5087367"><ele>270.0</ele><time>2026-05-01T15:58:29.156Z</time></trkpt><trkpt lat="44.7059233" lon="8.508775"><ele>270.0</ele><time>2026-05-01T15:58:30.155Z</time></trkpt><trkpt lat="44.706105" lon="8.5088267"><ele>277.6666666666667</ele><time>2026-05-01T15:58:31.158Z</time></trkpt><trkpt lat="44.7062817" lon="8.5088817"><ele>285.33333333333337</ele><time>2026-05-01T15:58:32.156Z</time></trkpt><trkpt lat="44.7064467" lon="8.5089267"><ele>293.0</ele><time>2026-05-01T15:58:33.157Z</time></trkpt><trkpt lat="44.7065967" lon="8.5089633"><ele>293.0</ele><time>2026-05-01T15:58:34.152Z</time></trkpt><trkpt lat="44.7067217" lon="8.50899"><ele>293.0</ele><time>2026-05-01T15:58:35.159Z</time></trkpt><trkpt lat="44.7068167" lon="8.5090017"><ele>293.0</ele><time>2026-05-01T15:58:36.159Z</time></trkpt><trkpt lat="44.7069017" lon="8.5089883"><ele>293.0</ele><time>2026-05-01T15:58:37.159Z</time></trkpt><trkpt lat="44.7069817" lon="8.5089483"><ele>293.0</ele><time>2026-05-01T15:58:38.152Z</time></trkpt><trkpt lat="44.7070617" lon="8.50888"><ele>296.25</ele><time>2026-05-01T15:58:39.159Z</time></trkpt><trkpt lat="44.7071483" lon="8.5087933"><ele>299.5</ele><time>2026-05-01T15:58:40.157Z</time></trkpt><trkpt lat="44.7072433" lon="8.5086983"><ele>302.75</ele><time>2026-05-01T15:58:41.155Z</time></trkpt><trkpt lat="44.70734" lon="8.5085933"><ele>306.0</ele><time>2026-05-01T15:58:42.159Z</time></trkpt><trkpt lat="44.7074233" lon="8.5084717"><ele>306.0</ele><time>2026-05-01T15:58:43.153Z</time></trkpt><trkpt lat="44.7074933" lon="8.508325"><ele>306.0</ele><time>2026-05-01T15:58:44.156Z</time></trkpt><trkpt lat="44.7075517" lon="8.5081683"><ele>306.0</ele><time>2026-05-01T15:58:45.154Z</time></trkpt><trkpt lat="44.7076033" lon="8.5080267"><ele>306.0</ele><time>2026-05-01T15:58:46.155Z</time></trkpt><trkpt lat="44.70765" lon="8.5079133"><ele>305.6666666666667</ele><time>2026-05-01T15:58:47.152Z</time></trkpt><trkpt lat="44.7076983" lon="8.50782"><ele>305.3333333333333</ele><time>2026-05-01T15:58:48.154Z</time></trkpt><trkpt lat="44.7077483" lon="8.5077333"><ele>305.0</ele><time>2026-05-01T15:58:49.152Z</time></trkpt><trkpt lat="44.7078167" lon="8.5076733"><ele>304.66666666666663</ele><time>2026-05-01T15:58:50.153Z</time></trkpt><trkpt lat="44.7079033" lon="8.5076367"><ele>304.3333333333333</ele><time>2026-05-01T15:58:51.154Z</time></trkpt><trkpt lat="44.7079917" lon="8.5076033"><ele>304.0</ele><time>2026-05-01T15:58:52.157Z</time></trkpt><trkpt lat="44.7080783" lon="8.507565"><ele>304.0</ele><time>2026-05-01T15:58:53.155Z</time></trkpt><trkpt lat="44.70817" lon="8.5075233"><ele>304.0</ele><time>2026-05-01T15:58:54.151Z</time></trkpt><trkpt lat="44.7082617" lon="8.5074783"><ele>304.0</ele><time>2026-05-01T15:58:55.152Z</time></trkpt><trkpt lat="44.7083567" lon="8.507435"><ele>304.0</ele><time>2026-05-01T15:58:56.152Z</time></trkpt><trkpt lat="44.7084467" lon="8.5073867"><ele>304.0</ele><time>2026-05-01T15:58:57.158Z</time></trkpt><trkpt lat="44.7085283" lon="8.507345"><ele>303.3333333333333</ele><time>2026-05-01T15:58:58.153Z</time></trkpt><trkpt lat="44.7086083" lon="8.5073117"><ele>302.66666666666663</ele><time>2026-05-01T15:58:59.159Z</time></trkpt><trkpt lat="44.7086833" lon="8.507275"><ele>302.0</ele><time>2026-05-01T15:59:00.154Z</time></trkpt><trkpt lat="44.7087517" lon="8.5072367"><ele>301.3333333333333</ele><time>2026-05-01T15:59:01.158Z</time></trkpt><trkpt lat="44.708815" lon="8.507195"><ele>300.6666666666667</ele><time>2026-05-01T15:59:02.154Z</time></trkpt><trkpt lat="44.7089117" lon="8.5070867"><ele>300.0</ele><time>2026-05-01T15:59:04.153Z</time></trkpt><trkpt lat="44.708995" lon="8.5069517"><ele>299.4</ele><time>2026-05-01T15:59:06.155Z</time></trkpt><trkpt lat="44.7090467" lon="8.5068633"><ele>298.8</ele><time>2026-05-01T15:59:07.155Z</time></trkpt><trkpt lat="44.7091017" lon="8.5067533"><ele>298.2</ele><time>2026-05-01T15:59:08.153Z</time></trkpt><trkpt lat="44.7091567" lon="8.506635"><ele>297.6</ele><time>2026-05-01T15:59:09.156Z</time></trkpt><trkpt lat="44.7092033" lon="8.5065133"><ele>297.0</ele><time>2026-05-01T15:59:10.152Z</time></trkpt><trkpt lat="44.7092467" lon="8.5063917"><ele>297.0</ele><time>2026-05-01T15:59:11.154Z</time></trkpt><trkpt lat="44.7092833" lon="8.5062717"><ele>297.0</ele><time>2026-05-01T15:59:12.151Z</time></trkpt><trkpt lat="44.7093133" lon="8.5061533"><ele>297.0</ele><time>2026-05-01T15:59:13.154Z</time></trkpt><trkpt lat="44.7093383" lon="8.506025"><ele>297.0</ele><time>2026-05-01T15:59:14.154Z</time></trkpt><trkpt lat="44.709365" lon="8.5058933"><ele>297.0</ele><time>2026-05-01T15:59:15.153Z</time></trkpt><trkpt lat="44.70939" lon="8.505765"><ele>296.5</ele><time>2026-05-01T15:59:16.151Z</time></trkpt><trkpt lat="44.7094133" lon="8.5056433"><ele>296.0</ele><time>2026-05-01T15:59:17.154Z</time></trkpt><trkpt lat="44.709435" lon="8.5055267"><ele>295.5</ele><time>2026-05-01T15:59:18.158Z</time></trkpt><trkpt lat="44.7094567" lon="8.5054083"><ele>295.0</ele><time>2026-05-01T15:59:19.155Z</time></trkpt><trkpt lat="44.7094733" lon="8.5052917"><ele>294.5</ele><time>2026-05-01T15:59:20.153Z</time></trkpt><trkpt lat="44.709485" lon="8.50517"><ele>294.0</ele><time>2026-05-01T15:59:21.155Z</time></trkpt><trkpt lat="44.7094867" lon="8.505045"><ele>294.0</ele><time>2026-05-01T15:59:22.155Z</time></trkpt><trkpt lat="44.7094817" lon="8.5049167"><ele>294.0</ele><time>2026-05-01T15:59:23.154Z</time></trkpt><trkpt lat="44.709465" lon="8.5047867"><ele>294.0</ele><time>2026-05-01T15:59:24.156Z</time></trkpt><trkpt lat="44.70944" lon="8.5046567"><ele>294.0</ele><time>2026-05-01T15:59:25.157Z</time></trkpt><trkpt lat="44.70941" lon="8.5045267"><ele>294.0</ele><time>2026-05-01T15:59:26.154Z</time></trkpt><trkpt lat="44.7093867" lon="8.5043867"><ele>294.6666666666667</ele><time>2026-05-01T15:59:27.154Z</time></trkpt><trkpt lat="44.709365" lon="8.50425"><ele>295.3333333333333</ele><time>2026-05-01T15:59:28.153Z</time></trkpt><trkpt lat="44.7093483" lon="8.504115"><ele>296.0</ele><time>2026-05-01T15:59:29.157Z</time></trkpt><trkpt lat="44.7093333" lon="8.5039817"><ele>296.66666666666663</ele><time>2026-05-01T15:59:30.159Z</time></trkpt><trkpt lat="44.7093133" lon="8.5038683"><ele>297.3333333333333</ele><time>2026-05-01T15:59:31.154Z</time></trkpt><trkpt lat="44.7092967" lon="8.50377"><ele>298.0</ele><time>2026-05-01T15:59:32.153Z</time></trkpt><trkpt lat="44.709285" lon="8.503675"><ele>298.0</ele><time>2026-05-01T15:59:33.153Z</time></trkpt><trkpt lat="44.7092667" lon="8.5035833"><ele>298.0</ele><time>2026-05-01T15:59:34.156Z</time></trkpt><trkpt lat="44.709235" lon="8.5034117"><ele>298.0</ele><time>2026-05-01T15:59:36.158Z</time></trkpt><trkpt lat="44.7092183" lon="8.5032283"><ele>298.0</ele><time>2026-05-01T15:59:38.156Z</time></trkpt><trkpt lat="44.7092233" lon="8.5031233"><ele>298.0</ele><time>2026-05-01T15:59:39.153Z</time></trkpt><trkpt lat="44.70923" lon="8.503"><ele>297.6</ele><time>2026-05-01T15:59:40.159Z</time></trkpt><trkpt lat="44.709235" lon="8.5028767"><ele>297.20000000000005</ele><time>2026-05-01T15:59:41.154Z</time></trkpt><trkpt lat="44.7092417" lon="8.5027467"><ele>296.8</ele><time>2026-05-01T15:59:42.159Z</time></trkpt><trkpt lat="44.7092467" lon="8.5026067"><ele>296.40000000000003</ele><time>2026-05-01T15:59:43.158Z</time></trkpt><trkpt lat="44.709255" lon="8.5024683"><ele>296.0</ele><time>2026-05-01T15:59:44.155Z</time></trkpt><trkpt lat="44.7092667" lon="8.50233"><ele>296.0</ele><time>2026-05-01T15:59:45.152Z</time></trkpt><trkpt lat="44.7092817" lon="8.5021917"><ele>296.0</ele><time>2026-05-01T15:59:46.152Z</time></trkpt><trkpt lat="44.7092967" lon="8.5020567"><ele>296.0</ele><time>2026-05-01T15:59:47.156Z</time></trkpt><trkpt lat="44.70931" lon="8.5019267"><ele>296.0</ele><time>2026-05-01T15:59:48.156Z</time></trkpt><trkpt lat="44.7093217" lon="8.5018"><ele>296.0</ele><time>2026-05-01T15:59:49.154Z</time></trkpt><trkpt lat="44.7093317" lon="8.5016717"><ele>295.83333333333337</ele><time>2026-05-01T15:59:50.151Z</time></trkpt><trkpt lat="44.7093367" lon="8.5015583"><ele>295.6666666666667</ele><time>2026-05-01T15:59:51.157Z</time></trkpt><trkpt lat="44.7093383" lon="8.5014433"><ele>295.5</ele><time>2026-05-01T15:59:52.154Z</time></trkpt><trkpt lat="44.7093333" lon="8.5013217"><ele>295.3333333333333</ele><time>2026-05-01T15:59:53.156Z</time></trkpt><trkpt lat="44.70932" lon="8.5012"><ele>295.16666666666663</ele><time>2026-05-01T15:59:54.152Z</time></trkpt><trkpt lat="44.7093" lon="8.5010817"><ele>295.0</ele><time>2026-05-01T15:59:55.156Z</time></trkpt><trkpt lat="44.70928" lon="8.5009683"><ele>295.0</ele><time>2026-05-01T15:59:56.154Z</time></trkpt><trkpt lat="44.7092683" lon="8.500865"><ele>295.0</ele><time>2026-05-01T15:59:57.154Z</time></trkpt><trkpt lat="44.709265" lon="8.5007667"><ele>295.0</ele><time>2026-05-01T15:59:58.153Z</time></trkpt><trkpt lat="44.7092633" lon="8.5006683"><ele>295.0</ele><time>2026-05-01T15:59:59.158Z</time></trkpt><trkpt lat="44.70927" lon="8.50057"><ele>295.0</ele><time>2026-05-01T16:00:00.149Z</time></trkpt><trkpt lat="44.7092833" lon="8.5004783"><ele>295.0</ele><time>2026-05-01T16:00:01.156Z</time></trkpt><trkpt lat="44.709325" lon="8.50033"><ele>294.4</ele><time>2026-05-01T16:00:03.154Z</time></trkpt><trkpt lat="44.7093733" lon="8.5002117"><ele>293.8</ele><time>2026-05-01T16:00:05.154Z</time></trkpt><trkpt lat="44.70945" lon="8.5001"><ele>293.2</ele><time>2026-05-01T16:00:07.153Z</time></trkpt><trkpt lat="44.7095317" lon="8.49995"><ele>292.6</ele><time>2026-05-01T16:00:09.16Z</time></trkpt><trkpt lat="44.7095683" lon="8.4998583"><ele>292.0</ele><time>2026-05-01T16:00:10.157Z</time></trkpt><trkpt lat="44.7096033" lon="8.4997533"><ele>292.0</ele><time>2026-05-01T16:00:11.162Z</time></trkpt><trkpt lat="44.709635" lon="8.499635"><ele>292.0</ele><time>2026-05-01T16:00:12.153Z</time></trkpt><trkpt lat="44.7096683" lon="8.4995233"><ele>292.0</ele><time>2026-05-01T16:00:13.156Z</time></trkpt><trkpt lat="44.7097" lon="8.4994183"><ele>292.0</ele><time>2026-05-01T16:00:14.152Z</time></trkpt><trkpt lat="44.70973" lon="8.4993183"><ele>292.0</ele><time>2026-05-01T16:00:15.151Z</time></trkpt><trkpt lat="44.70976" lon="8.499225"><ele>292.0</ele><time>2026-05-01T16:00:16.157Z</time></trkpt><trkpt lat="44.7097917" lon="8.4991317"><ele>292.2857142857143</ele><time>2026-05-01T16:00:17.158Z</time></trkpt><trkpt lat="44.7098283" lon="8.4990483"><ele>292.57142857142856</ele><time>2026-05-01T16:00:18.152Z</time></trkpt><trkpt lat="44.7098667" lon="8.4989733"><ele>292.8571428571429</ele><time>2026-05-01T16:00:19.154Z</time></trkpt><trkpt lat="44.70991" lon="8.4988867"><ele>293.1428571428571</ele><time>2026-05-01T16:00:20.15Z</time></trkpt><trkpt lat="44.7099533" lon="8.4988067"><ele>293.42857142857144</ele><time>2026-05-01T16:00:21.153Z</time></trkpt><trkpt lat="44.7099933" lon="8.4987217"><ele>293.7142857142857</ele><time>2026-05-01T16:00:22.155Z</time></trkpt><trkpt lat="44.7100283" lon="8.4986367"><ele>294.0</ele><time>2026-05-01T16:00:23.153Z</time></trkpt><trkpt lat="44.71006" lon="8.4985567"><ele>294.3333333333333</ele><time>2026-05-01T16:00:24.159Z</time></trkpt><trkpt lat="44.7100933" lon="8.4984733"><ele>294.6666666666667</ele><time>2026-05-01T16:00:25.159Z</time></trkpt><trkpt lat="44.7101283" lon="8.4983767"><ele>295.0</ele><time>2026-05-01T16:00:26.152Z</time></trkpt><trkpt lat="44.7101667" lon="8.49827"><ele>295.33333333333337</ele><time>2026-05-01T16:00:27.154Z</time></trkpt><trkpt lat="44.7102" lon="8.4981567"><ele>295.6666666666667</ele><time>2026-05-01T16:00:28.156Z</time></trkpt><trkpt lat="44.71023" lon="8.4980333"><ele>296.0</ele><time>2026-05-01T16:00:29.153Z</time></trkpt><trkpt lat="44.7102583" lon="8.4979033"><ele>293.2</ele><time>2026-05-01T16:00:30.155Z</time></trkpt><trkpt lat="44.710285" lon="8.4977733"><ele>290.40000000000003</ele><time>2026-05-01T16:00:31.152Z</time></trkpt><trkpt lat="44.7103067" lon="8.4976383"><ele>287.6</ele><time>2026-05-01T16:00:32.155Z</time></trkpt><trkpt lat="44.7103267" lon="8.4975017"><ele>284.8</ele><time>2026-05-01T16:00:33.155Z</time></trkpt><trkpt lat="44.710345" lon="8.4973717"><ele>282.0</ele><time>2026-05-01T16:00:34.156Z</time></trkpt><trkpt lat="44.7103683" lon="8.4972467"><ele>282.0</ele><time>2026-05-01T16:00:35.157Z</time></trkpt><trkpt lat="44.710395" lon="8.4971267"><ele>282.0</ele><time>2026-05-01T16:00:36.159Z</time></trkpt><trkpt lat="44.71042" lon="8.497015"><ele>282.0</ele><time>2026-05-01T16:00:37.156Z</time></trkpt><trkpt lat="44.7104517" lon="8.496905"><ele>282.0</ele><time>2026-05-01T16:00:38.159Z</time></trkpt><trkpt lat="44.7104817" lon="8.4967933"><ele>282.0</ele><time>2026-05-01T16:00:39.157Z</time></trkpt><trkpt lat="44.710505" lon="8.496695"><ele>282.0</ele><time>2026-05-01T16:00:40.155Z</time></trkpt><trkpt lat="44.7105433" lon="8.4966117"><ele>282.4</ele><time>2026-05-01T16:00:41.154Z</time></trkpt><trkpt lat="44.7105717" lon="8.49647"><ele>282.79999999999995</ele><time>2026-05-01T16:00:43.155Z</time></trkpt><trkpt lat="44.7105883" lon="8.4963717"><ele>283.2</ele><time>2026-05-01T16:00:45.149Z</time></trkpt><trkpt lat="44.7105817" lon="8.4962367"><ele>283.59999999999997</ele><time>2026-05-01T16:00:48.152Z</time></trkpt><trkpt lat="44.7105817" lon="8.4960833"><ele>284.0</ele><time>2026-05-01T16:00:50.15Z</time></trkpt><trkpt lat="44.7105817" lon="8.495975"><ele>284.0</ele><time>2026-05-01T16:00:51.153Z</time></trkpt><trkpt lat="44.710585" lon="8.495845"><ele>284.0</ele><time>2026-05-01T16:00:52.152Z</time></trkpt><trkpt lat="44.7105883" lon="8.49569"><ele>284.0</ele><time>2026-05-01T16:00:53.153Z</time></trkpt><trkpt lat="44.7105783" lon="8.4954967"><ele>284.0</ele><time>2026-05-01T16:00:54.151Z</time></trkpt><trkpt lat="44.710585" lon="8.4953"><ele>285.33333333333337</ele><time>2026-05-01T16:00:55.154Z</time></trkpt><trkpt lat="44.7106133" lon="8.4951033"><ele>286.6666666666667</ele><time>2026-05-01T16:00:56.156Z</time></trkpt><trkpt lat="44.7106617" lon="8.494905"><ele>288.0</ele><time>2026-05-01T16:00:57.15Z</time></trkpt><trkpt lat="44.71073" lon="8.4947"><ele>291.0</ele><time>2026-05-01T16:00:58.157Z</time></trkpt><trkpt lat="44.7108033" lon="8.4944867"><ele>294.0</ele><time>2026-05-01T16:00:59.152Z</time></trkpt><trkpt lat="44.7108733" lon="8.494265"><ele>297.0</ele><time>2026-05-01T16:01:00.154Z</time></trkpt><trkpt lat="44.7109517" lon="8.4940367"><ele>297.0</ele><time>2026-05-01T16:01:01.157Z</time></trkpt><trkpt lat="44.711035" lon="8.4937983"><ele>297.0</ele><time>2026-05-01T16:01:02.153Z</time></trkpt><trkpt lat="44.7111167" lon="8.49356"><ele>297.0</ele><time>2026-05-01T16:01:03.154Z</time></trkpt><trkpt lat="44.7111917" lon="8.4933383"><ele>297.3333333333333</ele><time>2026-05-01T16:01:04.153Z</time></trkpt><trkpt lat="44.711255" lon="8.4931383"><ele>297.66666666666663</ele><time>2026-05-01T16:01:05.155Z</time></trkpt><trkpt lat="44.7113067" lon="8.4929383"><ele>298.0</ele><time>2026-05-01T16:01:06.155Z</time></trkpt><trkpt lat="44.7113517" lon="8.4927433"><ele>298.0</ele><time>2026-05-01T16:01:07.165Z</time></trkpt><trkpt lat="44.7113933" lon="8.4925633"><ele>298.0</ele><time>2026-05-01T16:01:08.151Z</time></trkpt><trkpt lat="44.7114283" lon="8.492425"><ele>298.0</ele><time>2026-05-01T16:01:09.152Z</time></trkpt><trkpt lat="44.7114567" lon="8.4923283"><ele>298.0</ele><time>2026-05-01T16:01:10.154Z</time></trkpt><trkpt lat="44.7114867" lon="8.4922433"><ele>298.0</ele><time>2026-05-01T16:01:11.151Z</time></trkpt><trkpt lat="44.711525" lon="8.4921567"><ele>298.25</ele><time>2026-05-01T16:01:12.154Z</time></trkpt><trkpt lat="44.7115767" lon="8.4920667"><ele>298.5</ele><time>2026-05-01T16:01:13.155Z</time></trkpt><trkpt lat="44.71164" lon="8.4919583"><ele>298.75</ele><time>2026-05-01T16:01:14.154Z</time></trkpt><trkpt lat="44.7117333" lon="8.4917967"><ele>299.0</ele><time>2026-05-01T16:01:15.154Z</time></trkpt><trkpt lat="44.7118317" lon="8.491625"><ele>300.33333333333337</ele><time>2026-05-01T16:01:16.153Z</time></trkpt><trkpt lat="44.7119367" lon="8.4914417"><ele>301.6666666666667</ele><time>2026-05-01T16:01:17.155Z</time></trkpt><trkpt lat="44.7120417" lon="8.49126"><ele>303.0</ele><time>2026-05-01T16:01:18.16Z</time></trkpt><trkpt lat="44.7121467" lon="8.4910783"><ele>303.0</ele><time>2026-05-01T16:01:19.156Z</time></trkpt><trkpt lat="44.712245" lon="8.4908817"><ele>303.0</ele><time>2026-05-01T16:01:20.152Z</time></trkpt><trkpt lat="44.71233" lon="8.4906733"><ele>303.0</ele><time>2026-05-01T16:01:21.154Z</time></trkpt><trkpt lat="44.7124017" lon="8.4904667"><ele>304.6666666666667</ele><time>2026-05-01T16:01:22.152Z</time></trkpt><trkpt lat="44.71246" lon="8.4902483"><ele>306.33333333333337</ele><time>2026-05-01T16:01:23.152Z</time></trkpt><trkpt lat="44.712505" lon="8.490025"><ele>308.0</ele><time>2026-05-01T16:01:24.155Z</time></trkpt><trkpt lat="44.712535" lon="8.48979"><ele>309.6666666666667</ele><time>2026-05-01T16:01:25.155Z</time></trkpt><trkpt lat="44.7125583" lon="8.4895483"><ele>311.3333333333333</ele><time>2026-05-01T16:01:26.155Z</time></trkpt><trkpt lat="44.7125817" lon="8.4893083"><ele>313.0</ele><time>2026-05-01T16:01:27.156Z</time></trkpt><trkpt lat="44.712605" lon="8.4890717"><ele>313.0</ele><time>2026-05-01T16:01:28.152Z</time></trkpt><trkpt lat="44.7126217" lon="8.4888433"><ele>313.0</ele><time>2026-05-01T16:01:29.153Z</time></trkpt><trkpt lat="44.712635" lon="8.4886417"><ele>313.0</ele><time>2026-05-01T16:01:30.159Z</time></trkpt><trkpt lat="44.7126483" lon="8.4884833"><ele>313.0</ele><time>2026-05-01T16:01:31.156Z</time></trkpt><trkpt lat="44.71266" lon="8.4883567"><ele>313.57142857142856</ele><time>2026-05-01T16:01:32.156Z</time></trkpt><trkpt lat="44.7126683" lon="8.4882533"><ele>314.14285714285717</ele><time>2026-05-01T16:01:33.155Z</time></trkpt><trkpt lat="44.712675" lon="8.4881617"><ele>314.7142857142857</ele><time>2026-05-01T16:01:34.156Z</time></trkpt><trkpt lat="44.7126767" lon="8.4880583"><ele>315.2857142857143</ele><time>2026-05-01T16:01:35.159Z</time></trkpt><trkpt lat="44.712675" lon="8.4879667"><ele>315.85714285714283</ele><time>2026-05-01T16:01:36.156Z</time></trkpt><trkpt lat="44.7126717" lon="8.48787"><ele>316.42857142857144</ele><time>2026-05-01T16:01:37.155Z</time></trkpt><trkpt lat="44.7126683" lon="8.4877683"><ele>317.0</ele><time>2026-05-01T16:01:38.155Z</time></trkpt><trkpt lat="44.71267" lon="8.4876567"><ele>317.6</ele><time>2026-05-01T16:01:39.155Z</time></trkpt><trkpt lat="44.71269" lon="8.487535"><ele>318.2</ele><time>2026-05-01T16:01:40.157Z</time></trkpt><trkpt lat="44.71271" lon="8.4874033"><ele>318.8</ele><time>2026-05-01T16:01:41.154Z</time></trkpt><trkpt lat="44.712735" lon="8.4872567"><ele>319.4</ele><time>2026-05-01T16:01:42.153Z</time></trkpt><trkpt lat="44.7127683" lon="8.4870867"><ele>320.0</ele><time>2026-05-01T16:01:43.162Z</time></trkpt><trkpt lat="44.7128" lon="8.4868933"><ele>319.0</ele><time>2026-05-01T16:01:44.155Z</time></trkpt><trkpt lat="44.7128367" lon="8.4867"><ele>318.0</ele><time>2026-05-01T16:01:45.152Z</time></trkpt><trkpt lat="44.7128683" lon="8.48651"><ele>317.0</ele><time>2026-05-01T16:01:46.16Z</time></trkpt><trkpt lat="44.7128983" lon="8.4863283"><ele>316.0</ele><time>2026-05-01T16:01:47.152Z</time></trkpt><trkpt lat="44.7129283" lon="8.486155"><ele>316.0</ele><time>2026-05-01T16:01:48.151Z</time></trkpt><trkpt lat="44.71296" lon="8.4859833"><ele>316.0</ele><time>2026-05-01T16:01:49.153Z</time></trkpt><trkpt lat="44.713015" lon="8.4858317"><ele>316.0</ele><time>2026-05-01T16:01:50.151Z</time></trkpt><trkpt lat="44.7130867" lon="8.4856733"><ele>316.0</ele><time>2026-05-01T16:01:51.152Z</time></trkpt><trkpt lat="44.7131767" lon="8.485505"><ele>317.0</ele><time>2026-05-01T16:01:52.152Z</time></trkpt><trkpt lat="44.7132767" lon="8.4853267"><ele>318.0</ele><time>2026-05-01T16:01:53.15Z</time></trkpt><trkpt lat="44.7133883" lon="8.4851333"><ele>319.0</ele><time>2026-05-01T16:01:54.154Z</time></trkpt><trkpt lat="44.7134983" lon="8.4849333"><ele>319.3333333333333</ele><time>2026-05-01T16:01:55.155Z</time></trkpt><trkpt lat="44.7136233" lon="8.4847433"><ele>319.6666666666667</ele><time>2026-05-01T16:01:56.151Z</time></trkpt><trkpt lat="44.713755" lon="8.484565"><ele>320.0</ele><time>2026-05-01T16:01:57.155Z</time></trkpt><trkpt lat="44.7138817" lon="8.48439"><ele>320.0</ele><time>2026-05-01T16:01:58.158Z</time></trkpt><trkpt lat="44.7139917" lon="8.4842267"><ele>320.0</ele><time>2026-05-01T16:01:59.161Z</time></trkpt><trkpt lat="44.7140867" lon="8.48408"><ele>320.0</ele><time>2026-05-01T16:02:00.153Z</time></trkpt><trkpt lat="44.7141817" lon="8.4839533"><ele>320.0</ele><time>2026-05-01T16:02:01.154Z</time></trkpt><trkpt lat="44.714285" lon="8.4838483"><ele>318.75</ele><time>2026-05-01T16:02:02.15Z</time></trkpt><trkpt lat="44.714395" lon="8.4837617"><ele>317.5</ele><time>2026-05-01T16:02:03.153Z</time></trkpt><trkpt lat="44.714525" lon="8.4837033"><ele>316.25</ele><time>2026-05-01T16:02:04.154Z</time></trkpt><trkpt lat="44.7146733" lon="8.4836717"><ele>315.0</ele><time>2026-05-01T16:02:05.153Z</time></trkpt><trkpt lat="44.7148367" lon="8.48366"><ele>315.0</ele><time>2026-05-01T16:02:06.157Z</time></trkpt><trkpt lat="44.7150117" lon="8.483655"><ele>315.0</ele><time>2026-05-01T16:02:07.152Z</time></trkpt><trkpt lat="44.7151917" lon="8.483645"><ele>315.0</ele><time>2026-05-01T16:02:08.152Z</time></trkpt><trkpt lat="44.71537" lon="8.4836217"><ele>315.0</ele><time>2026-05-01T16:02:09.152Z</time></trkpt><trkpt lat="44.715545" lon="8.48358"><ele>315.0</ele><time>2026-05-01T16:02:10.151Z</time></trkpt><trkpt lat="44.7157217" lon="8.4835133"><ele>315.0</ele><time>2026-05-01T16:02:11.157Z</time></trkpt><trkpt lat="44.7158917" lon="8.48343"><ele>315.0</ele><time>2026-05-01T16:02:12.159Z</time></trkpt><trkpt lat="44.7160517" lon="8.4833167"><ele>315.0</ele><time>2026-05-01T16:02:13.155Z</time></trkpt><trkpt lat="44.7162117" lon="8.483175"><ele>315.0</ele><time>2026-05-01T16:02:14.154Z</time></trkpt><trkpt lat="44.716375" lon="8.4830167"><ele>317.3333333333333</ele><time>2026-05-01T16:02:15.157Z</time></trkpt><trkpt lat="44.7165367" lon="8.482845"><ele>319.66666666666663</ele><time>2026-05-01T16:02:16.153Z</time></trkpt><trkpt lat="44.7166933" lon="8.4826767"><ele>322.0</ele><time>2026-05-01T16:02:17.158Z</time></trkpt><trkpt lat="44.7168333" lon="8.4825117"><ele>320.66666666666663</ele><time>2026-05-01T16:02:18.155Z</time></trkpt><trkpt lat="44.7169583" lon="8.4823567"><ele>319.3333333333333</ele><time>2026-05-01T16:02:19.159Z</time></trkpt><trkpt lat="44.7170717" lon="8.4822117"><ele>318.0</ele><time>2026-05-01T16:02:20.155Z</time></trkpt><trkpt lat="44.7171817" lon="8.4820683"><ele>320.25</ele><time>2026-05-01T16:02:21.152Z</time></trkpt><trkpt lat="44.7172817" lon="8.481925"><ele>322.5</ele><time>2026-05-01T16:02:22.152Z</time></trkpt><trkpt lat="44.7173733" lon="8.4817767"><ele>324.75</ele><time>2026-05-01T16:02:23.151Z</time></trkpt><trkpt lat="44.7174533" lon="8.4816333"><ele>327.0</ele><time>2026-05-01T16:02:24.153Z</time></trkpt><trkpt lat="44.717525" lon="8.4814967"><ele>327.0</ele><time>2026-05-01T16:02:25.158Z</time></trkpt><trkpt lat="44.7176033" lon="8.4813617"><ele>327.0</ele><time>2026-05-01T16:02:26.152Z</time></trkpt><trkpt lat="44.7176933" lon="8.48122"><ele>327.0</ele><time>2026-05-01T16:02:27.152Z</time></trkpt><trkpt lat="44.7177917" lon="8.481065"><ele>327.0</ele><time>2026-05-01T16:02:28.152Z</time></trkpt><trkpt lat="44.7179017" lon="8.4809"><ele>327.0</ele><time>2026-05-01T16:02:29.151Z</time></trkpt><trkpt lat="44.7180233" lon="8.48073"><ele>327.0</ele><time>2026-05-01T16:02:30.158Z</time></trkpt><trkpt lat="44.718155" lon="8.4805667"><ele>327.0</ele><time>2026-05-01T16:02:31.153Z</time></trkpt><trkpt lat="44.7182933" lon="8.480425"><ele>327.75</ele><time>2026-05-01T16:02:32.153Z</time></trkpt><trkpt lat="44.7184283" lon="8.4803067"><ele>328.5</ele><time>2026-05-01T16:02:33.151Z</time></trkpt><trkpt lat="44.718555" lon="8.48021"><ele>329.25</ele><time>2026-05-01T16:02:34.152Z</time></trkpt><trkpt lat="44.7186683" lon="8.4801017"><ele>330.0</ele><time>2026-05-01T16:02:35.154Z</time></trkpt><trkpt lat="44.7187683" lon="8.4799667"><ele>331.0</ele><time>2026-05-01T16:02:36.155Z</time></trkpt><trkpt lat="44.7188683" lon="8.4798083"><ele>332.0</ele><time>2026-05-01T16:02:37.153Z</time></trkpt><trkpt lat="44.7189717" lon="8.4796333"><ele>333.0</ele><time>2026-05-01T16:02:38.155Z</time></trkpt><trkpt lat="44.7190767" lon="8.4794583"><ele>334.5</ele><time>2026-05-01T16:02:39.152Z</time></trkpt><trkpt lat="44.71917" lon="8.4792833"><ele>336.0</ele><time>2026-05-01T16:02:40.156Z</time></trkpt><trkpt lat="44.7192533" lon="8.47912"><ele>337.5</ele><time>2026-05-01T16:02:41.152Z</time></trkpt><trkpt lat="44.7193317" lon="8.478965"><ele>339.0</ele><time>2026-05-01T16:02:42.156Z</time></trkpt><trkpt lat="44.71941" lon="8.478815"><ele>336.25</ele><time>2026-05-01T16:02:43.154Z</time></trkpt><trkpt lat="44.7194817" lon="8.4786717"><ele>333.5</ele><time>2026-05-01T16:02:44.149Z</time></trkpt><trkpt lat="44.7195517" lon="8.4785283"><ele>330.75</ele><time>2026-05-01T16:02:45.15Z</time></trkpt><trkpt lat="44.7196233" lon="8.4783833"><ele>328.0</ele><time>2026-05-01T16:02:46.151Z</time></trkpt><trkpt lat="44.719695" lon="8.4782367"><ele>328.0</ele><time>2026-05-01T16:02:47.155Z</time></trkpt><trkpt lat="44.7197517" lon="8.4781"><ele>328.0</ele><time>2026-05-01T16:02:48.154Z</time></trkpt><trkpt lat="44.7197983" lon="8.4779867"><ele>328.0</ele><time>2026-05-01T16:02:49.155Z</time></trkpt><trkpt lat="44.7198283" lon="8.4779"><ele>328.0</ele><time>2026-05-01T16:02:50.154Z</time></trkpt><trkpt lat="44.7198783" lon="8.47778"><ele>328.0</ele><time>2026-05-01T16:02:52.157Z</time></trkpt><trkpt lat="44.7199267" lon="8.4777017"><ele>328.0</ele><time>2026-05-01T16:02:59.155Z</time></trkpt><trkpt lat="44.7200433" lon="8.477625"><ele>328.5</ele><time>2026-05-01T16:03:01.156Z</time></trkpt><trkpt lat="44.7201367" lon="8.47757"><ele>329.0</ele><time>2026-05-01T16:03:02.157Z</time></trkpt><trkpt lat="44.72023" lon="8.47751"><ele>329.5</ele><time>2026-05-01T16:03:03.157Z</time></trkpt><trkpt lat="44.7203533" lon="8.4774067"><ele>330.0</ele><time>2026-05-01T16:03:04.158Z</time></trkpt><trkpt lat="44.72047" lon="8.4772967"><ele>329.0</ele><time>2026-05-01T16:03:05.156Z</time></trkpt><trkpt lat="44.7205817" lon="8.47718"><ele>328.0</ele><time>2026-05-01T16:03:06.157Z</time></trkpt><trkpt lat="44.7206933" lon="8.4770317"><ele>327.0</ele><time>2026-05-01T16:03:07.159Z</time></trkpt><trkpt lat="44.7208033" lon="8.4768533"><ele>327.0</ele><time>2026-05-01T16:03:08.155Z</time></trkpt><trkpt lat="44.720905" lon="8.4766583"><ele>327.0</ele><time>2026-05-01T16:03:09.156Z</time></trkpt><trkpt lat="44.7209933" lon="8.4764483"><ele>327.0</ele><time>2026-05-01T16:03:10.153Z</time></trkpt><trkpt lat="44.7210783" lon="8.4762333"><ele>327.6666666666667</ele><time>2026-05-01T16:03:11.155Z</time></trkpt><trkpt lat="44.7211583" lon="8.47602"><ele>328.33333333333337</ele><time>2026-05-01T16:03:12.152Z</time></trkpt><trkpt lat="44.721235" lon="8.4758117"><ele>329.0</ele><time>2026-05-01T16:03:13.156Z</time></trkpt><trkpt lat="44.7213067" lon="8.475625"><ele>329.0</ele><time>2026-05-01T16:03:14.153Z</time></trkpt><trkpt lat="44.7213733" lon="8.475465"><ele>329.0</ele><time>2026-05-01T16:03:15.154Z</time></trkpt><trkpt lat="44.721455" lon="8.47534"><ele>329.0</ele><time>2026-05-01T16:03:16.153Z</time></trkpt><trkpt lat="44.721555" lon="8.4752433"><ele>329.0</ele><time>2026-05-01T16:03:17.16Z</time></trkpt><trkpt lat="44.721675" lon="8.4751717"><ele>328.5</ele><time>2026-05-01T16:03:18.16Z</time></trkpt><trkpt lat="44.7218017" lon="8.4751117"><ele>328.0</ele><time>2026-05-01T16:03:19.156Z</time></trkpt><trkpt lat="44.721945" lon="8.47506"><ele>327.5</ele><time>2026-05-01T16:03:20.154Z</time></trkpt><trkpt lat="44.7221033" lon="8.4750083"><ele>327.0</ele><time>2026-05-01T16:03:21.156Z</time></trkpt><trkpt lat="44.7222567" lon="8.474945"><ele>326.6666666666667</ele><time>2026-05-01T16:03:22.152Z</time></trkpt><trkpt lat="44.7224283" lon="8.4748833"><ele>326.33333333333337</ele><time>2026-05-01T16:03:23.156Z</time></trkpt><trkpt lat="44.72258" lon="8.4747667"><ele>326.0</ele><time>2026-05-01T16:03:24.15Z</time></trkpt><trkpt lat="44.7227233" lon="8.4746217"><ele>323.0</ele><time>2026-05-01T16:03:25.156Z</time></trkpt><trkpt lat="44.7228567" lon="8.4744583"><ele>320.0</ele><time>2026-05-01T16:03:26.157Z</time></trkpt><trkpt lat="44.722985" lon="8.47428"><ele>317.0</ele><time>2026-05-01T16:03:27.153Z</time></trkpt><trkpt lat="44.7231" lon="8.47408"><ele>317.0</ele><time>2026-05-01T16:03:28.16Z</time></trkpt><trkpt lat="44.7231917" lon="8.473845"><ele>317.0</ele><time>2026-05-01T16:03:29.16Z</time></trkpt><trkpt lat="44.7232783" lon="8.47359"><ele>317.0</ele><time>2026-05-01T16:03:30.154Z</time></trkpt><trkpt lat="44.723345" lon="8.4733217"><ele>318.33333333333337</ele><time>2026-05-01T16:03:31.156Z</time></trkpt><trkpt lat="44.7234033" lon="8.4730433"><ele>319.6666666666667</ele><time>2026-05-01T16:03:32.156Z</time></trkpt><trkpt lat="44.723455" lon="8.47277"><ele>321.0</ele><time>2026-05-01T16:03:33.153Z</time></trkpt><trkpt lat="44.723495" lon="8.472515"><ele>321.25</ele><time>2026-05-01T16:03:34.156Z</time></trkpt><trkpt lat="44.7235217" lon="8.47229"><ele>321.5</ele><time>2026-05-01T16:03:35.155Z</time></trkpt><trkpt lat="44.723535" lon="8.4721"><ele>321.75</ele><time>2026-05-01T16:03:36.153Z</time></trkpt><trkpt lat="44.7235517" lon="8.4719367"><ele>322.0</ele><time>2026-05-01T16:03:37.164Z</time></trkpt><trkpt lat="44.7235983" lon="8.4717867"><ele>322.0</ele><time>2026-05-01T16:03:38.161Z</time></trkpt><trkpt lat="44.7236617" lon="8.4716367"><ele>322.0</ele><time>2026-05-01T16:03:39.153Z</time></trkpt><trkpt lat="44.7237517" lon="8.471495"><ele>322.0</ele><time>2026-05-01T16:03:40.16Z</time></trkpt><trkpt lat="44.7238633" lon="8.4713617"><ele>322.0</ele><time>2026-05-01T16:03:41.158Z</time></trkpt><trkpt lat="44.7239783" lon="8.471215"><ele>322.0</ele><time>2026-05-01T16:03:42.152Z</time></trkpt><trkpt lat="44.724085" lon="8.471045"><ele>322.0</ele><time>2026-05-01T16:03:43.161Z</time></trkpt><trkpt lat="44.7241683" lon="8.470835"><ele>322.0</ele><time>2026-05-01T16:03:44.157Z</time></trkpt><trkpt lat="44.7242383" lon="8.4706017"><ele>321.66666666666663</ele><time>2026-05-01T16:03:45.156Z</time></trkpt><trkpt lat="44.7243" lon="8.4703517"><ele>321.3333333333333</ele><time>2026-05-01T16:03:46.154Z</time></trkpt><trkpt lat="44.72436" lon="8.47009"><ele>321.0</ele><time>2026-05-01T16:03:47.164Z</time></trkpt><trkpt lat="44.7244217" lon="8.469825"><ele>322.3333333333333</ele><time>2026-05-01T16:03:48.16Z</time></trkpt><trkpt lat="44.72448" lon="8.46956"><ele>323.66666666666663</ele><time>2026-05-01T16:03:49.158Z</time></trkpt><trkpt lat="44.7245367" lon="8.4693033"><ele>325.0</ele><time>2026-05-01T16:03:50.154Z</time></trkpt><trkpt lat="44.72459" lon="8.469065"><ele>325.0</ele><time>2026-05-01T16:03:51.156Z</time></trkpt><trkpt lat="44.7246433" lon="8.4688567"><ele>325.0</ele><time>2026-05-01T16:03:52.152Z</time></trkpt><trkpt lat="44.724695" lon="8.4686817"><ele>325.0</ele><time>2026-05-01T16:03:53.158Z</time></trkpt><trkpt lat="44.724755" lon="8.4685167"><ele>325.0</ele><time>2026-05-01T16:03:54.154Z</time></trkpt><trkpt lat="44.7248333" lon="8.4683667"><ele>326.25</ele><time>2026-05-01T16:03:55.153Z</time></trkpt><trkpt lat="44.72494" lon="8.4682333"><ele>327.5</ele><time>2026-05-01T16:03:56.156Z</time></trkpt><trkpt lat="44.7250583" lon="8.46811"><ele>328.75</ele><time>2026-05-01T16:03:57.153Z</time></trkpt><trkpt lat="44.7251883" lon="8.4679867"><ele>330.0</ele><time>2026-05-01T16:03:58.159Z</time></trkpt><trkpt lat="44.7253333" lon="8.4678533"><ele>330.0</ele><time>2026-05-01T16:03:59.156Z</time></trkpt><trkpt lat="44.725485" lon="8.467715"><ele>330.0</ele><time>2026-05-01T16:04:00.158Z</time></trkpt><trkpt lat="44.7256367" lon="8.46757"><ele>330.0</ele><time>2026-05-01T16:04:01.156Z</time></trkpt><trkpt lat="44.7257917" lon="8.467425"><ele>330.0</ele><time>2026-05-01T16:04:02.159Z</time></trkpt><trkpt lat="44.7259533" lon="8.4672717"><ele>330.0</ele><time>2026-05-01T16:04:03.158Z</time></trkpt><trkpt lat="44.7261217" lon="8.4671267"><ele>330.0</ele><time>2026-05-01T16:04:04.153Z</time></trkpt><trkpt lat="44.72629" lon="8.4669933"><ele>334.0</ele><time>2026-05-01T16:04:05.155Z</time></trkpt><trkpt lat="44.7264633" lon="8.4668883"><ele>338.0</ele><time>2026-05-01T16:04:06.155Z</time></trkpt><trkpt lat="44.72664" lon="8.4668117"><ele>342.0</ele><time>2026-05-01T16:04:07.156Z</time></trkpt><trkpt lat="44.7268183" lon="8.4667467"><ele>342.3333333333333</ele><time>2026-05-01T16:04:08.154Z</time></trkpt><trkpt lat="44.7269917" lon="8.46668"><ele>342.66666666666663</ele><time>2026-05-01T16:04:09.155Z</time></trkpt><trkpt lat="44.7271483" lon="8.46661"><ele>343.0</ele><time>2026-05-01T16:04:10.159Z</time></trkpt><trkpt lat="44.7272917" lon="8.4665333"><ele>343.0</ele><time>2026-05-01T16:04:11.152Z</time></trkpt><trkpt lat="44.7274183" lon="8.466455"><ele>343.0</ele><time>2026-05-01T16:04:12.153Z</time></trkpt><trkpt lat="44.7275267" lon="8.46639"><ele>343.0</ele><time>2026-05-01T16:04:13.156Z</time></trkpt><trkpt lat="44.7276067" lon="8.4663383"><ele>343.0</ele><time>2026-05-01T16:04:14.155Z</time></trkpt><trkpt lat="44.7276667" lon="8.4663"><ele>343.0</ele><time>2026-05-01T16:04:15.153Z</time></trkpt><trkpt lat="44.7277367" lon="8.4662517"><ele>342.5</ele><time>2026-05-01T16:04:17.153Z</time></trkpt><trkpt lat="44.7277567" lon="8.4661667"><ele>342.0</ele><time>2026-05-01T16:04:22.155Z</time></trkpt><trkpt lat="44.7277017" lon="8.4660467"><ele>341.5</ele><time>2026-05-01T16:04:24.158Z</time></trkpt><trkpt lat="44.727665" lon="8.465945"><ele>341.0</ele><time>2026-05-01T16:04:25.151Z</time></trkpt><trkpt lat="44.7276333" lon="8.465825"><ele>340.5</ele><time>2026-05-01T16:04:26.152Z</time></trkpt><trkpt lat="44.72762" lon="8.46569"><ele>340.0</ele><time>2026-05-01T16:04:27.157Z</time></trkpt><trkpt lat="44.7276283" lon="8.465515"><ele>342.0</ele><time>2026-05-01T16:04:28.152Z</time></trkpt><trkpt lat="44.7276467" lon="8.46533"><ele>344.0</ele><time>2026-05-01T16:04:29.154Z</time></trkpt><trkpt lat="44.7276617" lon="8.4651417"><ele>346.0</ele><time>2026-05-01T16:04:30.158Z</time></trkpt><trkpt lat="44.727685" lon="8.464945"><ele>348.0</ele><time>2026-05-01T16:04:31.154Z</time></trkpt><trkpt lat="44.727715" lon="8.4647467"><ele>347.5</ele><time>2026-05-01T16:04:32.151Z</time></trkpt><trkpt lat="44.727755" lon="8.4645567"><ele>347.0</ele><time>2026-05-01T16:04:33.151Z</time></trkpt><trkpt lat="44.7277983" lon="8.4643683"><ele>346.5</ele><time>2026-05-01T16:04:34.154Z</time></trkpt><trkpt lat="44.7278433" lon="8.4641817"><ele>346.0</ele><time>2026-05-01T16:04:35.151Z</time></trkpt><trkpt lat="44.7278883" lon="8.4640017"><ele>346.0</ele><time>2026-05-01T16:04:36.152Z</time></trkpt><trkpt lat="44.727935" lon="8.4638217"><ele>346.0</ele><time>2026-05-01T16:04:37.157Z</time></trkpt><trkpt lat="44.7279783" lon="8.463645"><ele>346.0</ele><time>2026-05-01T16:04:38.154Z</time></trkpt><trkpt lat="44.7280133" lon="8.4634633"><ele>346.0</ele><time>2026-05-01T16:04:39.154Z</time></trkpt><trkpt lat="44.7280433" lon="8.4632867"><ele>346.75</ele><time>2026-05-01T16:04:40.154Z</time></trkpt><trkpt lat="44.7280717" lon="8.4631033"><ele>347.5</ele><time>2026-05-01T16:04:41.153Z</time></trkpt><trkpt lat="44.7281083" lon="8.4629167"><ele>348.25</ele><time>2026-05-01T16:04:42.161Z</time></trkpt><trkpt lat="44.72814" lon="8.462725"><ele>349.0</ele><time>2026-05-01T16:04:43.155Z</time></trkpt><trkpt lat="44.7281467" lon="8.4625283"><ele>349.5</ele><time>2026-05-01T16:04:44.154Z</time></trkpt><trkpt lat="44.7281333" lon="8.4623367"><ele>350.0</ele><time>2026-05-01T16:04:45.152Z</time></trkpt><trkpt lat="44.7281117" lon="8.4621517"><ele>350.5</ele><time>2026-05-01T16:04:46.154Z</time></trkpt><trkpt lat="44.7280817" lon="8.46198"><ele>351.0</ele><time>2026-05-01T16:04:47.155Z</time></trkpt><trkpt lat="44.7280483" lon="8.4618183"><ele>351.25</ele><time>2026-05-01T16:04:48.154Z</time></trkpt><trkpt lat="44.728025" lon="8.46166"><ele>351.5</ele><time>2026-05-01T16:04:49.153Z</time></trkpt><trkpt lat="44.7280183" lon="8.4615067"><ele>351.75</ele><time>2026-05-01T16:04:50.153Z</time></trkpt><trkpt lat="44.728025" lon="8.4613417"><ele>352.0</ele><time>2026-05-01T16:04:51.155Z</time></trkpt><trkpt lat="44.7280517" lon="8.4611717"><ele>352.0</ele><time>2026-05-01T16:04:52.155Z</time></trkpt><trkpt lat="44.72809" lon="8.4609933"><ele>352.0</ele><time>2026-05-01T16:04:53.157Z</time></trkpt><trkpt lat="44.7281317" lon="8.4608133"><ele>352.0</ele><time>2026-05-01T16:04:54.157Z</time></trkpt><trkpt lat="44.72819" lon="8.4606267"><ele>352.0</ele><time>2026-05-01T16:04:55.155Z</time></trkpt><trkpt lat="44.7282333" lon="8.46042"><ele>350.3333333333333</ele><time>2026-05-01T16:04:56.151Z</time></trkpt><trkpt lat="44.7282683" lon="8.4601983"><ele>348.6666666666667</ele><time>2026-05-01T16:04:57.149Z</time></trkpt><trkpt lat="44.7282933" lon="8.459965"><ele>347.0</ele><time>2026-05-01T16:04:58.153Z</time></trkpt><trkpt lat="44.7283117" lon="8.4597217"><ele>347.0</ele><time>2026-05-01T16:04:59.152Z</time></trkpt><trkpt lat="44.7283217" lon="8.4594717"><ele>347.0</ele><time>2026-05-01T16:05:00.154Z</time></trkpt><trkpt lat="44.7283217" lon="8.4592167"><ele>347.0</ele><time>2026-05-01T16:05:01.159Z</time></trkpt><trkpt lat="44.7283167" lon="8.4589633"><ele>349.0</ele><time>2026-05-01T16:05:02.158Z</time></trkpt><trkpt lat="44.7283083" lon="8.458705"><ele>351.0</ele><time>2026-05-01T16:05:03.152Z</time></trkpt><trkpt lat="44.7282983" lon="8.458475"><ele>353.0</ele><time>2026-05-01T16:05:04.155Z</time></trkpt><trkpt lat="44.728295" lon="8.4582483"><ele>353.0</ele><time>2026-05-01T16:05:05.163Z</time></trkpt><trkpt lat="44.7282933" lon="8.45803"><ele>353.0</ele><time>2026-05-01T16:05:06.157Z</time></trkpt><trkpt lat="44.7282933" lon="8.4578233"><ele>353.0</ele><time>2026-05-01T16:05:07.161Z</time></trkpt><trkpt lat="44.72829" lon="8.4576283"><ele>353.0</ele><time>2026-05-01T16:05:08.156Z</time></trkpt><trkpt lat="44.728285" lon="8.4574417"><ele>353.75</ele><time>2026-05-01T16:05:09.153Z</time></trkpt><trkpt lat="44.72828" lon="8.4572533"><ele>354.5</ele><time>2026-05-01T16:05:10.154Z</time></trkpt><trkpt lat="44.7282683" lon="8.45707"><ele>355.25</ele><time>2026-05-01T16:05:11.154Z</time></trkpt><trkpt lat="44.7282533" lon="8.4568667"><ele>356.0</ele><time>2026-05-01T16:05:12.155Z</time></trkpt><trkpt lat="44.7282167" lon="8.456665"><ele>356.0</ele><time>2026-05-01T16:05:13.157Z</time></trkpt><trkpt lat="44.7281633" lon="8.4564683"><ele>356.0</ele><time>2026-05-01T16:05:14.159Z</time></trkpt><trkpt lat="44.7280983" lon="8.4562717"><ele>356.0</ele><time>2026-05-01T16:05:15.16Z</time></trkpt><trkpt lat="44.728025" lon="8.4560717"><ele>355.33333333333337</ele><time>2026-05-01T16:05:16.155Z</time></trkpt><trkpt lat="44.7279467" lon="8.4558633"><ele>354.6666666666667</ele><time>2026-05-01T16:05:17.157Z</time></trkpt><trkpt lat="44.7278467" lon="8.455665"><ele>354.0</ele><time>2026-05-01T16:05:18.162Z</time></trkpt><trkpt lat="44.72774" lon="8.455475"><ele>358.3333333333333</ele><time>2026-05-01T16:05:19.154Z</time></trkpt><trkpt lat="44.7276433" lon="8.4553017"><ele>362.66666666666663</ele><time>2026-05-01T16:05:20.152Z</time></trkpt><trkpt lat="44.7275383" lon="8.455115"><ele>367.0</ele><time>2026-05-01T16:05:21.153Z</time></trkpt><trkpt lat="44.7274417" lon="8.4549267"><ele>367.0</ele><time>2026-05-01T16:05:22.156Z</time></trkpt><trkpt lat="44.7273533" lon="8.45474"><ele>367.0</ele><time>2026-05-01T16:05:23.154Z</time></trkpt><trkpt lat="44.7272633" lon="8.4545517"><ele>367.0</ele><time>2026-05-01T16:05:24.154Z</time></trkpt><trkpt lat="44.7271733" lon="8.4543683"><ele>368.0</ele><time>2026-05-01T16:05:25.156Z</time></trkpt><trkpt lat="44.7270917" lon="8.4541833"><ele>369.0</ele><time>2026-05-01T16:05:26.154Z</time></trkpt><trkpt lat="44.7270183" lon="8.4540067"><ele>370.0</ele><time>2026-05-01T16:05:27.158Z</time></trkpt><trkpt lat="44.7269433" lon="8.4538283"><ele>371.0</ele><time>2026-05-01T16:05:28.154Z</time></trkpt><trkpt lat="44.72686" lon="8.4536633"><ele>375.25</ele><time>2026-05-01T16:05:29.153Z</time></trkpt><trkpt lat="44.726785" lon="8.4535"><ele>379.5</ele><time>2026-05-01T16:05:30.156Z</time></trkpt><trkpt lat="44.72671" lon="8.4533567"><ele>383.75</ele><time>2026-05-01T16:05:31.155Z</time></trkpt><trkpt lat="44.7266483" lon="8.4532267"><ele>388.0</ele><time>2026-05-01T16:05:32.154Z</time></trkpt><trkpt lat="44.726585" lon="8.4531"><ele>388.0</ele><time>2026-05-01T16:05:33.154Z</time></trkpt><trkpt lat="44.7265217" lon="8.452975"><ele>388.0</ele><time>2026-05-01T16:05:34.153Z</time></trkpt><trkpt lat="44.7264683" lon="8.4528633"><ele>388.0</ele><time>2026-05-01T16:05:35.154Z</time></trkpt><trkpt lat="44.7264033" lon="8.452765"><ele>388.0</ele><time>2026-05-01T16:05:36.153Z</time></trkpt><trkpt lat="44.7263433" lon="8.45268"><ele>388.0</ele><time>2026-05-01T16:05:37.153Z</time></trkpt><trkpt lat="44.7262917" lon="8.4526017"><ele>387.59999999999997</ele><time>2026-05-01T16:05:38.154Z</time></trkpt><trkpt lat="44.7262117" lon="8.452525"><ele>387.2</ele><time>2026-05-01T16:05:40.156Z</time></trkpt><trkpt lat="44.72615" lon="8.452445"><ele>386.8</ele><time>2026-05-01T16:05:42.156Z</time></trkpt><trkpt lat="44.7261333" lon="8.4523367"><ele>386.4</ele><time>2026-05-01T16:05:44.159Z</time></trkpt><trkpt lat="44.7261283" lon="8.4521683"><ele>386.0</ele><time>2026-05-01T16:05:46.153Z</time></trkpt><trkpt lat="44.7261417" lon="8.452055"><ele>385.8</ele><time>2026-05-01T16:05:47.155Z</time></trkpt><trkpt lat="44.726165" lon="8.4519367"><ele>385.6</ele><time>2026-05-01T16:05:48.153Z</time></trkpt><trkpt lat="44.7262133" lon="8.4517833"><ele>385.4</ele><time>2026-05-01T16:05:49.155Z</time></trkpt><trkpt lat="44.7262517" lon="8.451655"><ele>385.2</ele><time>2026-05-01T16:05:50.153Z</time></trkpt><trkpt lat="44.7262883" lon="8.4515317"><ele>385.0</ele><time>2026-05-01T16:05:51.157Z</time></trkpt><trkpt lat="44.7263217" lon="8.451405"><ele>384.8</ele><time>2026-05-01T16:05:52.153Z</time></trkpt><trkpt lat="44.7263583" lon="8.45128"><ele>384.6</ele><time>2026-05-01T16:05:53.154Z</time></trkpt><trkpt lat="44.7263867" lon="8.4511583"><ele>384.4</ele><time>2026-05-01T16:05:54.153Z</time></trkpt><trkpt lat="44.726415" lon="8.4510317"><ele>384.2</ele><time>2026-05-01T16:05:55.153Z</time></trkpt><trkpt lat="44.7264033" lon="8.4508867"><ele>384.0</ele><time>2026-05-01T16:05:56.156Z</time></trkpt><trkpt lat="44.7263817" lon="8.45074"><ele>384.0</ele><time>2026-05-01T16:05:57.153Z</time></trkpt><trkpt lat="44.726365" lon="8.4506"><ele>384.0</ele><time>2026-05-01T16:05:58.154Z</time></trkpt><trkpt lat="44.72635" lon="8.4504867"><ele>384.0</ele><time>2026-05-01T16:05:59.152Z</time></trkpt><trkpt lat="44.7263283" lon="8.4503783"><ele>384.0</ele><time>2026-05-01T16:06:00.154Z</time></trkpt><trkpt lat="44.7263033" lon="8.4502267"><ele>384.0</ele><time>2026-05-01T16:06:02.153Z</time></trkpt><trkpt lat="44.7262583" lon="8.4500633"><ele>384.0</ele><time>2026-05-01T16:06:04.151Z</time></trkpt><trkpt lat="44.7262317" lon="8.44998"><ele>384.0</ele><time>2026-05-01T16:06:05.157Z</time></trkpt><trkpt lat="44.72618" lon="8.4498833"><ele>384.0</ele><time>2026-05-01T16:06:07.154Z</time></trkpt><trkpt lat="44.7261233" lon="8.4498083"><ele>384.0</ele><time>2026-05-01T16:06:09.151Z</time></trkpt><trkpt lat="44.726075" lon="8.4497317"><ele>384.0</ele><time>2026-05-01T16:06:11.157Z</time></trkpt><trkpt lat="44.72611" lon="8.44981"><ele>384.0</ele><time>2026-05-01T16:06:19.16Z</time></trkpt><trkpt lat="44.726195" lon="8.4499017"><ele>384.0</ele><time>2026-05-01T16:06:21.155Z</time></trkpt><trkpt lat="44.726245" lon="8.4500367"><ele>384.0</ele><time>2026-05-01T16:06:23.159Z</time></trkpt><trkpt lat="44.7262767" lon="8.4501667"><ele>384.0</ele><time>2026-05-01T16:06:25.153Z</time></trkpt><trkpt lat="44.7263283" lon="8.4502633"><ele>384.0</ele><time>2026-05-01T16:06:28.151Z</time></trkpt><trkpt lat="44.7264183" lon="8.4502033"><ele>384.0</ele><time>2026-05-01T16:06:30.155Z</time></trkpt><trkpt lat="44.726465" lon="8.4501367"><ele>384.0</ele><time>2026-05-01T16:06:31.156Z</time></trkpt><trkpt lat="44.7264983" lon="8.4500217"><ele>384.0</ele><time>2026-05-01T16:06:32.15Z</time></trkpt><trkpt lat="44.7265383" lon="8.44987"><ele>384.0</ele><time>2026-05-01T16:06:33.16Z</time></trkpt><trkpt lat="44.7265717" lon="8.4497517"><ele>384.0</ele><time>2026-05-01T16:06:34.155Z</time></trkpt><trkpt lat="44.7266" lon="8.44964"><ele>384.0</ele><time>2026-05-01T16:06:35.153Z</time></trkpt><trkpt lat="44.726565" lon="8.4494917"><ele>382.0</ele><time>2026-05-01T16:06:36.153Z</time></trkpt><trkpt lat="44.72652" lon="8.4493717"><ele>380.0</ele><time>2026-05-01T16:06:37.154Z</time></trkpt><trkpt lat="44.72647" lon="8.449255"><ele>378.0</ele><time>2026-05-01T16:06:38.157Z</time></trkpt><trkpt lat="44.7263867" lon="8.4491267"><ele>376.0</ele><time>2026-05-01T16:06:39.153Z</time></trkpt><trkpt lat="44.7262733" lon="8.4489733"><ele>376.0</ele><time>2026-05-01T16:06:40.153Z</time></trkpt><trkpt lat="44.72617" lon="8.4487983"><ele>376.0</ele><time>2026-05-01T16:06:41.155Z</time></trkpt><trkpt lat="44.7261067" lon="8.4486517"><ele>376.0</ele><time>2026-05-01T16:06:42.156Z</time></trkpt><trkpt lat="44.7260417" lon="8.4484867"><ele>376.0</ele><time>2026-05-01T16:06:43.155Z</time></trkpt><trkpt lat="44.7259633" lon="8.448315"><ele>375.0</ele><time>2026-05-01T16:06:44.151Z</time></trkpt><trkpt lat="44.72588" lon="8.4481367"><ele>374.0</ele><time>2026-05-01T16:06:45.156Z</time></trkpt><trkpt lat="44.725795" lon="8.44795"><ele>373.0</ele><time>2026-05-01T16:06:46.152Z</time></trkpt><trkpt lat="44.7257367" lon="8.4478083"><ele>372.0</ele><time>2026-05-01T16:06:47.155Z</time></trkpt><trkpt lat="44.7256817" lon="8.4476467"><ele>370.0</ele><time>2026-05-01T16:06:48.149Z</time></trkpt><trkpt lat="44.725665" lon="8.4474917"><ele>368.0</ele><time>2026-05-01T16:06:49.151Z</time></trkpt><trkpt lat="44.7256533" lon="8.447325"><ele>366.0</ele><time>2026-05-01T16:06:50.15Z</time></trkpt><trkpt lat="44.72565" lon="8.4471617"><ele>364.0</ele><time>2026-05-01T16:06:51.155Z</time></trkpt><trkpt lat="44.725655" lon="8.4470133"><ele>362.0</ele><time>2026-05-01T16:06:52.15Z</time></trkpt><trkpt lat="44.7256883" lon="8.44687"><ele>360.0</ele><time>2026-05-01T16:06:53.152Z</time></trkpt><trkpt lat="44.7257233" lon="8.4467617"><ele>358.0</ele><time>2026-05-01T16:06:54.152Z</time></trkpt><trkpt lat="44.7257967" lon="8.4467133"><ele>356.0</ele><time>2026-05-01T16:06:55.156Z</time></trkpt><trkpt lat="44.7258783" lon="8.4466867"><ele>354.0</ele><time>2026-05-01T16:06:56.151Z</time></trkpt><trkpt lat="44.7259733" lon="8.4466933"><ele>353.2</ele><time>2026-05-01T16:06:57.154Z</time></trkpt><trkpt lat="44.7260683" lon="8.446695"><ele>352.4</ele><time>2026-05-01T16:06:58.152Z</time></trkpt><trkpt lat="44.7261767" lon="8.4466783"><ele>351.6</ele><time>2026-05-01T16:06:59.153Z</time></trkpt><trkpt lat="44.7262783" lon="8.4466517"><ele>350.8</ele><time>2026-05-01T16:07:00.159Z</time></trkpt><trkpt lat="44.7263667" lon="8.4465933"><ele>350.0</ele><time>2026-05-01T16:07:01.154Z</time></trkpt><trkpt lat="44.7264467" lon="8.4465133"><ele>350.0</ele><time>2026-05-01T16:07:02.154Z</time></trkpt><trkpt lat="44.72652" lon="8.446415"><ele>350.0</ele><time>2026-05-01T16:07:03.155Z</time></trkpt><trkpt lat="44.7265933" lon="8.446295"><ele>350.0</ele><time>2026-05-01T16:07:04.152Z</time></trkpt><trkpt lat="44.726675" lon="8.44616"><ele>350.0</ele><time>2026-05-01T16:07:05.154Z</time></trkpt><trkpt lat="44.7267667" lon="8.446015"><ele>350.33333333333337</ele><time>2026-05-01T16:07:06.15Z</time></trkpt><trkpt lat="44.7268717" lon="8.4458617"><ele>350.6666666666667</ele><time>2026-05-01T16:07:07.153Z</time></trkpt><trkpt lat="44.7269817" lon="8.4456967"><ele>351.0</ele><time>2026-05-01T16:07:08.153Z</time></trkpt><trkpt lat="44.7270983" lon="8.4455283"><ele>347.3333333333333</ele><time>2026-05-01T16:07:09.157Z</time></trkpt><trkpt lat="44.7272183" lon="8.4453633"><ele>343.66666666666663</ele><time>2026-05-01T16:07:10.151Z</time></trkpt><trkpt lat="44.7273367" lon="8.4452"><ele>340.0</ele><time>2026-05-01T16:07:11.151Z</time></trkpt><trkpt lat="44.7274517" lon="8.4450433"><ele>340.0</ele><time>2026-05-01T16:07:12.155Z</time></trkpt><trkpt lat="44.72757" lon="8.4448933"><ele>340.0</ele><time>2026-05-01T16:07:13.152Z</time></trkpt><trkpt lat="44.7276767" lon="8.444735"><ele>340.0</ele><time>2026-05-01T16:07:14.152Z</time></trkpt><trkpt lat="44.7277683" lon="8.4445733"><ele>336.3333333333333</ele><time>2026-05-01T16:07:15.156Z</time></trkpt><trkpt lat="44.72784" lon="8.4443983"><ele>332.6666666666667</ele><time>2026-05-01T16:07:16.153Z</time></trkpt><trkpt lat="44.727895" lon="8.444195"><ele>329.0</ele><time>2026-05-01T16:07:17.156Z</time></trkpt><trkpt lat="44.7279283" lon="8.4439733"><ele>330.6666666666667</ele><time>2026-05-01T16:07:18.155Z</time></trkpt><trkpt lat="44.7279633" lon="8.4437583"><ele>332.3333333333333</ele><time>2026-05-01T16:07:19.154Z</time></trkpt><trkpt lat="44.7279983" lon="8.4435417"><ele>334.0</ele><time>2026-05-01T16:07:20.151Z</time></trkpt><trkpt lat="44.7280267" lon="8.44334"><ele>334.0</ele><time>2026-05-01T16:07:21.151Z</time></trkpt><trkpt lat="44.728065" lon="8.4431533"><ele>334.0</ele><time>2026-05-01T16:07:22.158Z</time></trkpt><trkpt lat="44.7281267" lon="8.4429867"><ele>334.0</ele><time>2026-05-01T16:07:23.157Z</time></trkpt><trkpt lat="44.7282067" lon="8.442835"><ele>334.0</ele><time>2026-05-01T16:07:24.155Z</time></trkpt><trkpt lat="44.7283067" lon="8.4427"><ele>335.66666666666663</ele><time>2026-05-01T16:07:25.151Z</time></trkpt><trkpt lat="44.7284233" lon="8.4425667"><ele>337.3333333333333</ele><time>2026-05-01T16:07:26.151Z</time></trkpt><trkpt lat="44.7285517" lon="8.44243"><ele>339.0</ele><time>2026-05-01T16:07:27.153Z</time></trkpt><trkpt lat="44.7286817" lon="8.4422917"><ele>339.0</ele><time>2026-05-01T16:07:28.154Z</time></trkpt><trkpt lat="44.7288083" lon="8.4421367"><ele>339.0</ele><time>2026-05-01T16:07:29.153Z</time></trkpt><trkpt lat="44.728915" lon="8.4419617"><ele>339.0</ele><time>2026-05-01T16:07:30.154Z</time></trkpt><trkpt lat="44.7290217" lon="8.4417767"><ele>342.0</ele><time>2026-05-01T16:07:31.152Z</time></trkpt><trkpt lat="44.7291117" lon="8.44157"><ele>345.0</ele><time>2026-05-01T16:07:32.15Z</time></trkpt><trkpt lat="44.7291917" lon="8.4413567"><ele>348.0</ele><time>2026-05-01T16:07:33.151Z</time></trkpt><trkpt lat="44.72926" lon="8.44114"><ele>348.0</ele><time>2026-05-01T16:07:34.157Z</time></trkpt><trkpt lat="44.72932" lon="8.4409217"><ele>348.0</ele><time>2026-05-01T16:07:35.156Z</time></trkpt><trkpt lat="44.7293817" lon="8.4406983"><ele>348.0</ele><time>2026-05-01T16:07:36.158Z</time></trkpt><trkpt lat="44.7294383" lon="8.440475"><ele>348.0</ele><time>2026-05-01T16:07:37.155Z</time></trkpt><trkpt lat="44.7295017" lon="8.4402483"><ele>348.0</ele><time>2026-05-01T16:07:38.153Z</time></trkpt><trkpt lat="44.7295717" lon="8.44002"><ele>348.0</ele><time>2026-05-01T16:07:39.156Z</time></trkpt><trkpt lat="44.7296583" lon="8.4397983"><ele>349.0</ele><time>2026-05-01T16:07:40.161Z</time></trkpt><trkpt lat="44.7297433" lon="8.4395783"><ele>350.0</ele><time>2026-05-01T16:07:41.154Z</time></trkpt><trkpt lat="44.7298333" lon="8.4393617"><ele>351.0</ele><time>2026-05-01T16:07:42.154Z</time></trkpt><trkpt lat="44.7299183" lon="8.4391617"><ele>351.0</ele><time>2026-05-01T16:07:43.153Z</time></trkpt><trkpt lat="44.7299983" lon="8.4389683"><ele>351.0</ele><time>2026-05-01T16:07:44.15Z</time></trkpt><trkpt lat="44.7300633" lon="8.438775"><ele>351.0</ele><time>2026-05-01T16:07:45.156Z</time></trkpt><trkpt lat="44.7301167" lon="8.438565"><ele>350.25</ele><time>2026-05-01T16:07:46.151Z</time></trkpt><trkpt lat="44.7301517" lon="8.4383517"><ele>349.5</ele><time>2026-05-01T16:07:47.154Z</time></trkpt><trkpt lat="44.7301783" lon="8.4381517"><ele>348.75</ele><time>2026-05-01T16:07:48.15Z</time></trkpt><trkpt lat="44.730215" lon="8.437975"><ele>348.0</ele><time>2026-05-01T16:07:49.153Z</time></trkpt><trkpt lat="44.7302633" lon="8.437815"><ele>349.75</ele><time>2026-05-01T16:07:50.152Z</time></trkpt><trkpt lat="44.7303317" lon="8.4376767"><ele>351.5</ele><time>2026-05-01T16:07:51.157Z</time></trkpt><trkpt lat="44.7304133" lon="8.437545"><ele>353.25</ele><time>2026-05-01T16:07:52.158Z</time></trkpt><trkpt lat="44.7305183" lon="8.4374117"><ele>355.0</ele><time>2026-05-01T16:07:53.156Z</time></trkpt><trkpt lat="44.7306283" lon="8.437265"><ele>351.0</ele><time>2026-05-01T16:07:54.156Z</time></trkpt><trkpt lat="44.7307467" lon="8.4371117"><ele>347.0</ele><time>2026-05-01T16:07:55.155Z</time></trkpt><trkpt lat="44.7308633" lon="8.43696"><ele>343.0</ele><time>2026-05-01T16:07:56.154Z</time></trkpt><trkpt lat="44.7309783" lon="8.4368117"><ele>347.3333333333333</ele><time>2026-05-01T16:07:57.156Z</time></trkpt><trkpt lat="44.7311033" lon="8.43667"><ele>351.6666666666667</ele><time>2026-05-01T16:07:58.151Z</time></trkpt><trkpt lat="44.7312317" lon="8.4365417"><ele>356.0</ele><time>2026-05-01T16:07:59.157Z</time></trkpt><trkpt lat="44.7313667" lon="8.436425"><ele>356.0</ele><time>2026-05-01T16:08:00.154Z</time></trkpt><trkpt lat="44.7315017" lon="8.4363133"><ele>356.0</ele><time>2026-05-01T16:08:01.155Z</time></trkpt><trkpt lat="44.731625" lon="8.4361733"><ele>356.0</ele><time>2026-05-01T16:08:02.15Z</time></trkpt><trkpt lat="44.73174" lon="8.4360133"><ele>353.75</ele><time>2026-05-01T16:08:03.153Z</time></trkpt><trkpt lat="44.7318433" lon="8.43585"><ele>351.5</ele><time>2026-05-01T16:08:04.164Z</time></trkpt><trkpt lat="44.73193" lon="8.435695"><ele>349.25</ele><time>2026-05-01T16:08:05.151Z</time></trkpt><trkpt lat="44.732015" lon="8.4355633"><ele>347.0</ele><time>2026-05-01T16:08:06.154Z</time></trkpt><trkpt lat="44.7321033" lon="8.4354667"><ele>347.0</ele><time>2026-05-01T16:08:07.153Z</time></trkpt><trkpt lat="44.7321983" lon="8.4354067"><ele>347.0</ele><time>2026-05-01T16:08:08.154Z</time></trkpt><trkpt lat="44.7322833" lon="8.4353817"><ele>347.0</ele><time>2026-05-01T16:08:09.15Z</time></trkpt><trkpt lat="44.7323717" lon="8.435385"><ele>347.0</ele><time>2026-05-01T16:08:10.159Z</time></trkpt><trkpt lat="44.732475" lon="8.4355083"><ele>347.0</ele><time>2026-05-01T16:08:11.154Z</time></trkpt><trkpt lat="44.7325717" lon="8.43565"><ele>347.0</ele><time>2026-05-01T16:08:12.157Z</time></trkpt><trkpt lat="44.7326817" lon="8.4358033"><ele>347.0</ele><time>2026-05-01T16:08:13.156Z</time></trkpt><trkpt lat="44.7327967" lon="8.4359517"><ele>347.0</ele><time>2026-05-01T16:08:14.155Z</time></trkpt><trkpt lat="44.7329133" lon="8.4360917"><ele>345.33333333333337</ele><time>2026-05-01T16:08:15.153Z</time></trkpt><trkpt lat="44.7330417" lon="8.4362217"><ele>343.6666666666667</ele><time>2026-05-01T16:08:16.152Z</time></trkpt><trkpt lat="44.7331817" lon="8.43632"><ele>342.0</ele><time>2026-05-01T16:08:17.156Z</time></trkpt><trkpt lat="44.7333367" lon="8.43638"><ele>342.0</ele><time>2026-05-01T16:08:18.156Z</time></trkpt><trkpt lat="44.7335017" lon="8.4364217"><ele>342.0</ele><time>2026-05-01T16:08:19.156Z</time></trkpt><trkpt lat="44.7336683" lon="8.43646"><ele>342.0</ele><time>2026-05-01T16:08:20.152Z</time></trkpt><trkpt lat="44.7338317" lon="8.4364867"><ele>341.6666666666667</ele><time>2026-05-01T16:08:21.154Z</time></trkpt><trkpt lat="44.7339917" lon="8.4365033"><ele>341.33333333333337</ele><time>2026-05-01T16:08:22.154Z</time></trkpt><trkpt lat="44.73414" lon="8.4364933"><ele>341.0</ele><time>2026-05-01T16:08:23.153Z</time></trkpt><trkpt lat="44.7342817" lon="8.4364817"><ele>338.0</ele><time>2026-05-01T16:08:24.156Z</time></trkpt><trkpt lat="44.7344133" lon="8.4364783"><ele>335.0</ele><time>2026-05-01T16:08:25.156Z</time></trkpt><trkpt lat="44.7345433" lon="8.4364983"><ele>332.0</ele><time>2026-05-01T16:08:26.158Z</time></trkpt><trkpt lat="44.7346783" lon="8.4365583"><ele>329.0</ele><time>2026-05-01T16:08:27.156Z</time></trkpt><trkpt lat="44.7348117" lon="8.4366367"><ele>329.0</ele><time>2026-05-01T16:08:28.158Z</time></trkpt><trkpt lat="44.734945" lon="8.4367133"><ele>329.0</ele><time>2026-05-01T16:08:29.157Z</time></trkpt><trkpt lat="44.735065" lon="8.4367883"><ele>329.0</ele><time>2026-05-01T16:08:30.151Z</time></trkpt><trkpt lat="44.735165" lon="8.436875"><ele>329.0</ele><time>2026-05-01T16:08:31.16Z</time></trkpt><trkpt lat="44.7352517" lon="8.436995"><ele>326.75</ele><time>2026-05-01T16:08:32.153Z</time></trkpt><trkpt lat="44.7353117" lon="8.437165"><ele>324.5</ele><time>2026-05-01T16:08:33.159Z</time></trkpt><trkpt lat="44.73536" lon="8.43735"><ele>322.25</ele><time>2026-05-01T16:08:34.155Z</time></trkpt><trkpt lat="44.7354" lon="8.437555"><ele>320.0</ele><time>2026-05-01T16:08:35.156Z</time></trkpt><trkpt lat="44.7354283" lon="8.4377567"><ele>320.0</ele><time>2026-05-01T16:08:36.15Z</time></trkpt><trkpt lat="44.7354567" lon="8.43794"><ele>320.0</ele><time>2026-05-01T16:08:37.154Z</time></trkpt><trkpt lat="44.735495" lon="8.438105"><ele>320.0</ele><time>2026-05-01T16:08:38.15Z</time></trkpt><trkpt lat="44.7355517" lon="8.438255"><ele>320.0</ele><time>2026-05-01T16:08:39.152Z</time></trkpt><trkpt lat="44.7356333" lon="8.4384117"><ele>319.75</ele><time>2026-05-01T16:08:40.151Z</time></trkpt><trkpt lat="44.7357233" lon="8.4385583"><ele>319.5</ele><time>2026-05-01T16:08:41.157Z</time></trkpt><trkpt lat="44.7358267" lon="8.4386983"><ele>319.25</ele><time>2026-05-01T16:08:42.155Z</time></trkpt><trkpt lat="44.7359383" lon="8.43883"><ele>319.0</ele><time>2026-05-01T16:08:43.154Z</time></trkpt><trkpt lat="44.7360583" lon="8.438945"><ele>316.0</ele><time>2026-05-01T16:08:44.152Z</time></trkpt><trkpt lat="44.7361833" lon="8.4390433"><ele>313.0</ele><time>2026-05-01T16:08:45.152Z</time></trkpt><trkpt lat="44.7363083" lon="8.439135"><ele>310.0</ele><time>2026-05-01T16:08:46.154Z</time></trkpt><trkpt lat="44.7364333" lon="8.4392233"><ele>307.0</ele><time>2026-05-01T16:08:47.153Z</time></trkpt><trkpt lat="44.736555" lon="8.4393117"><ele>307.0</ele><time>2026-05-01T16:08:48.153Z</time></trkpt><trkpt lat="44.7366683" lon="8.4393867"><ele>307.0</ele><time>2026-05-01T16:08:49.156Z</time></trkpt><trkpt lat="44.7367733" lon="8.4394433"><ele>307.0</ele><time>2026-05-01T16:08:50.152Z</time></trkpt><trkpt lat="44.7368817" lon="8.4394967"><ele>307.0</ele><time>2026-05-01T16:08:51.152Z</time></trkpt><trkpt lat="44.73699" lon="8.439555"><ele>306.8</ele><time>2026-05-01T16:08:52.159Z</time></trkpt><trkpt lat="44.7370917" lon="8.4396217"><ele>306.6</ele><time>2026-05-01T16:08:53.158Z</time></trkpt><trkpt lat="44.737195" lon="8.4396533"><ele>306.40000000000003</ele><time>2026-05-01T16:08:54.157Z</time></trkpt><trkpt lat="44.7373033" lon="8.4396517"><ele>306.2</ele><time>2026-05-01T16:08:55.156Z</time></trkpt><trkpt lat="44.73741" lon="8.4396117"><ele>306.0</ele><time>2026-05-01T16:08:56.157Z</time></trkpt><trkpt lat="44.7375033" lon="8.4395267"><ele>304.75</ele><time>2026-05-01T16:08:57.151Z</time></trkpt><trkpt lat="44.7375783" lon="8.4394017"><ele>303.5</ele><time>2026-05-01T16:08:58.155Z</time></trkpt><trkpt lat="44.73763" lon="8.4392483"><ele>302.25</ele><time>2026-05-01T16:08:59.16Z</time></trkpt><trkpt lat="44.7376783" lon="8.439105"><ele>301.0</ele><time>2026-05-01T16:09:00.152Z</time></trkpt><trkpt lat="44.737745" lon="8.4389967"><ele>298.5</ele><time>2026-05-01T16:09:01.153Z</time></trkpt><trkpt lat="44.7378333" lon="8.438915"><ele>296.0</ele><time>2026-05-01T16:09:02.153Z</time></trkpt><trkpt lat="44.7379483" lon="8.438845"><ele>293.5</ele><time>2026-05-01T16:09:03.154Z</time></trkpt><trkpt lat="44.73808" lon="8.4387817"><ele>291.0</ele><time>2026-05-01T16:09:04.156Z</time></trkpt><trkpt lat="44.738225" lon="8.4387233"><ele>290.5</ele><time>2026-05-01T16:09:05.155Z</time></trkpt><trkpt lat="44.7383733" lon="8.4386783"><ele>290.0</ele><time>2026-05-01T16:09:06.152Z</time></trkpt><trkpt lat="44.7385183" lon="8.4386433"><ele>289.5</ele><time>2026-05-01T16:09:07.155Z</time></trkpt><trkpt lat="44.73866" lon="8.4386117"><ele>289.0</ele><time>2026-05-01T16:09:08.158Z</time></trkpt><trkpt lat="44.7387867" lon="8.4385883"><ele>287.8</ele><time>2026-05-01T16:09:09.155Z</time></trkpt><trkpt lat="44.7388917" lon="8.4385783"><ele>286.59999999999997</ele><time>2026-05-01T16:09:10.154Z</time></trkpt><trkpt lat="44.7389883" lon="8.4385983"><ele>285.4</ele><time>2026-05-01T16:09:11.156Z</time></trkpt><trkpt lat="44.73908" lon="8.438665"><ele>284.2</ele><time>2026-05-01T16:09:12.153Z</time></trkpt><trkpt lat="44.73916" lon="8.4387633"><ele>283.0</ele><time>2026-05-01T16:09:13.156Z</time></trkpt><trkpt lat="44.7392417" lon="8.4388633"><ele>283.0</ele><time>2026-05-01T16:09:14.153Z</time></trkpt><trkpt lat="44.7393383" lon="8.4389367"><ele>283.0</ele><time>2026-05-01T16:09:15.149Z</time></trkpt><trkpt lat="44.7394367" lon="8.4389783"><ele>283.0</ele><time>2026-05-01T16:09:16.151Z</time></trkpt><trkpt lat="44.739535" lon="8.4389617"><ele>283.0</ele><time>2026-05-01T16:09:17.16Z</time></trkpt><trkpt lat="44.7396367" lon="8.4388933"><ele>283.0</ele><time>2026-05-01T16:09:18.16Z</time></trkpt><trkpt lat="44.7397383" lon="8.4387867"><ele>278.0</ele><time>2026-05-01T16:09:19.151Z</time></trkpt><trkpt lat="44.7398467" lon="8.4386583"><ele>273.0</ele><time>2026-05-01T16:09:20.152Z</time></trkpt><trkpt lat="44.7399617" lon="8.4385217"><ele>268.0</ele><time>2026-05-01T16:09:21.155Z</time></trkpt><trkpt lat="44.7400817" lon="8.438375"><ele>268.0</ele><time>2026-05-01T16:09:22.151Z</time></trkpt><trkpt lat="44.740195" lon="8.4382183"><ele>268.0</ele><time>2026-05-01T16:09:23.151Z</time></trkpt><trkpt lat="44.7402933" lon="8.4380483"><ele>268.0</ele><time>2026-05-01T16:09:24.153Z</time></trkpt><trkpt lat="44.7403883" lon="8.4378933"><ele>264.75</ele><time>2026-05-01T16:09:25.154Z</time></trkpt><trkpt lat="44.7404917" lon="8.437755"><ele>261.5</ele><time>2026-05-01T16:09:26.155Z</time></trkpt><trkpt lat="44.7406117" lon="8.4376367"><ele>258.25</ele><time>2026-05-01T16:09:27.151Z</time></trkpt><trkpt lat="44.7407417" lon="8.4375317"><ele>255.0</ele><time>2026-05-01T16:09:28.156Z</time></trkpt><trkpt lat="44.74088" lon="8.4374333"><ele>255.0</ele><time>2026-05-01T16:09:29.154Z</time></trkpt><trkpt lat="44.741015" lon="8.437335"><ele>255.0</ele><time>2026-05-01T16:09:30.16Z</time></trkpt><trkpt lat="44.74115" lon="8.4372217"><ele>255.0</ele><time>2026-05-01T16:09:31.155Z</time></trkpt><trkpt lat="44.741285" lon="8.4371"><ele>250.66666666666669</ele><time>2026-05-01T16:09:32.15Z</time></trkpt><trkpt lat="44.74142" lon="8.4369733"><ele>246.33333333333334</ele><time>2026-05-01T16:09:33.152Z</time></trkpt><trkpt lat="44.74155" lon="8.4368467"><ele>242.0</ele><time>2026-05-01T16:09:34.158Z</time></trkpt><trkpt lat="44.7416783" lon="8.4367183"><ele>242.0</ele><time>2026-05-01T16:09:35.155Z</time></trkpt><trkpt lat="44.741795" lon="8.43659"><ele>242.0</ele><time>2026-05-01T16:09:36.15Z</time></trkpt><trkpt lat="44.7419017" lon="8.4364783"><ele>242.0</ele><time>2026-05-01T16:09:37.154Z</time></trkpt><trkpt lat="44.7420133" lon="8.4363917"><ele>242.0</ele><time>2026-05-01T16:09:38.154Z</time></trkpt><trkpt lat="44.742135" lon="8.4363233"><ele>239.75</ele><time>2026-05-01T16:09:39.15Z</time></trkpt><trkpt lat="44.7422567" lon="8.43626"><ele>237.5</ele><time>2026-05-01T16:09:40.155Z</time></trkpt><trkpt lat="44.7423733" lon="8.4361883"><ele>235.25</ele><time>2026-05-01T16:09:41.153Z</time></trkpt><trkpt lat="44.7424883" lon="8.4360983"><ele>233.0</ele><time>2026-05-01T16:09:42.159Z</time></trkpt><trkpt lat="44.7426" lon="8.4359917"><ele>233.0</ele><time>2026-05-01T16:09:43.156Z</time></trkpt><trkpt lat="44.7426983" lon="8.4358617"><ele>233.0</ele><time>2026-05-01T16:09:44.156Z</time></trkpt><trkpt lat="44.7427933" lon="8.4357233"><ele>233.0</ele><time>2026-05-01T16:09:45.151Z</time></trkpt><trkpt lat="44.7428833" lon="8.4355767"><ele>233.0</ele><time>2026-05-01T16:09:46.152Z</time></trkpt><trkpt lat="44.742975" lon="8.4354333"><ele>230.25</ele><time>2026-05-01T16:09:47.153Z</time></trkpt><trkpt lat="44.7430817" lon="8.435305"><ele>227.5</ele><time>2026-05-01T16:09:48.154Z</time></trkpt><trkpt lat="44.7431983" lon="8.435195"><ele>224.75</ele><time>2026-05-01T16:09:49.153Z</time></trkpt><trkpt lat="44.7433167" lon="8.43509"><ele>222.0</ele><time>2026-05-01T16:09:50.155Z</time></trkpt><trkpt lat="44.7434317" lon="8.4349783"><ele>222.0</ele><time>2026-05-01T16:09:51.155Z</time></trkpt><trkpt lat="44.7435333" lon="8.4348383"><ele>222.0</ele><time>2026-05-01T16:09:52.155Z</time></trkpt><trkpt lat="44.743625" lon="8.434685"><ele>222.0</ele><time>2026-05-01T16:09:53.155Z</time></trkpt><trkpt lat="44.7437017" lon="8.4345233"><ele>222.0</ele><time>2026-05-01T16:09:54.157Z</time></trkpt><trkpt lat="44.74376" lon="8.4343633"><ele>222.0</ele><time>2026-05-01T16:09:55.157Z</time></trkpt><trkpt lat="44.743805" lon="8.434215"><ele>222.0</ele><time>2026-05-01T16:09:56.156Z</time></trkpt><trkpt lat="44.74383" lon="8.4340633"><ele>222.0</ele><time>2026-05-01T16:09:57.156Z</time></trkpt><trkpt lat="44.7438217" lon="8.4339117"><ele>222.0</ele><time>2026-05-01T16:09:58.154Z</time></trkpt><trkpt lat="44.743805" lon="8.4337667"><ele>222.0</ele><time>2026-05-01T16:09:59.159Z</time></trkpt><trkpt lat="44.7437933" lon="8.4336317"><ele>220.33333333333334</ele><time>2026-05-01T16:10:00.151Z</time></trkpt><trkpt lat="44.7437983" lon="8.4335"><ele>218.66666666666669</ele><time>2026-05-01T16:10:01.153Z</time></trkpt><trkpt lat="44.7438283" lon="8.4333867"><ele>217.0</ele><time>2026-05-01T16:10:02.155Z</time></trkpt><trkpt lat="44.7438717" lon="8.4332883"><ele>215.33333333333334</ele><time>2026-05-01T16:10:03.152Z</time></trkpt><trkpt lat="44.7439317" lon="8.4331983"><ele>213.66666666666669</ele><time>2026-05-01T16:10:04.156Z</time></trkpt><trkpt lat="44.7440267" lon="8.4331617"><ele>212.0</ele><time>2026-05-01T16:10:05.153Z</time></trkpt><trkpt lat="44.7441333" lon="8.433145"><ele>212.0</ele><time>2026-05-01T16:10:06.154Z</time></trkpt><trkpt lat="44.7442633" lon="8.4331367"><ele>212.0</ele><time>2026-05-01T16:10:07.155Z</time></trkpt><trkpt lat="44.7443733" lon="8.4330967"><ele>212.0</ele><time>2026-05-01T16:10:08.149Z</time></trkpt><trkpt lat="44.744475" lon="8.43304"><ele>212.0</ele><time>2026-05-01T16:10:09.151Z</time></trkpt><trkpt lat="44.7445533" lon="8.4329467"><ele>210.6</ele><time>2026-05-01T16:10:10.151Z</time></trkpt><trkpt lat="44.7446117" lon="8.4328183"><ele>209.2</ele><time>2026-05-01T16:10:11.154Z</time></trkpt><trkpt lat="44.744645" lon="8.432665"><ele>207.8</ele><time>2026-05-01T16:10:12.15Z</time></trkpt><trkpt lat="44.744655" lon="8.43251"><ele>206.4</ele><time>2026-05-01T16:10:13.154Z</time></trkpt><trkpt lat="44.74465" lon="8.4323617"><ele>205.0</ele><time>2026-05-01T16:10:14.16Z</time></trkpt><trkpt lat="44.74464" lon="8.4322217"><ele>206.16666666666666</ele><time>2026-05-01T16:10:15.155Z</time></trkpt><trkpt lat="44.744625" lon="8.432095"><ele>207.33333333333331</ele><time>2026-05-01T16:10:16.153Z</time></trkpt><trkpt lat="44.74461" lon="8.4319733"><ele>208.5</ele><time>2026-05-01T16:10:17.154Z</time></trkpt><trkpt lat="44.7446017" lon="8.4318633"><ele>209.66666666666669</ele><time>2026-05-01T16:10:18.158Z</time></trkpt><trkpt lat="44.7446017" lon="8.4317667"><ele>210.83333333333334</ele><time>2026-05-01T16:10:19.158Z</time></trkpt><trkpt lat="44.7446217" lon="8.431605"><ele>212.0</ele><time>2026-05-01T16:10:21.152Z</time></trkpt><trkpt lat="44.7446717" lon="8.4315183"><ele>212.0</ele><time>2026-05-01T16:10:23.151Z</time></trkpt><trkpt lat="44.7448067" lon="8.4316067"><ele>212.0</ele><time>2026-05-01T16:10:25.156Z</time></trkpt><trkpt lat="44.7448883" lon="8.43168"><ele>212.0</ele><time>2026-05-01T16:10:26.154Z</time></trkpt><trkpt lat="44.7449667" lon="8.4317467"><ele>212.0</ele><time>2026-05-01T16:10:27.154Z</time></trkpt><trkpt lat="44.7450417" lon="8.4318033"><ele>212.0</ele><time>2026-05-01T16:10:28.152Z</time></trkpt><trkpt lat="44.7451183" lon="8.4318467"><ele>212.00000000000003</ele><time>2026-05-01T16:10:29.155Z</time></trkpt><trkpt lat="44.7451933" lon="8.43189"><ele>212.0</ele><time>2026-05-01T16:10:30.155Z</time></trkpt><trkpt lat="44.7452583" lon="8.4319233"><ele>212.0</ele><time>2026-05-01T16:10:31.16Z</time></trkpt><trkpt lat="44.7453217" lon="8.4319517"><ele>212.0</ele><time>2026-05-01T16:10:32.155Z</time></trkpt><trkpt lat="44.74545" lon="8.4319617"><ele>212.00000000000003</ele><time>2026-05-01T16:10:34.154Z</time></trkpt><trkpt lat="44.7455267" lon="8.43195"><ele>212.0</ele><time>2026-05-01T16:10:35.149Z</time></trkpt><trkpt lat="44.7456083" lon="8.4319233"><ele>212.6</ele><time>2026-05-01T16:10:36.155Z</time></trkpt><trkpt lat="44.745695" lon="8.4319067"><ele>213.2</ele><time>2026-05-01T16:10:37.156Z</time></trkpt><trkpt lat="44.7457883" lon="8.431915"><ele>213.8</ele><time>2026-05-01T16:10:38.155Z</time></trkpt><trkpt lat="44.7458917" lon="8.4319617"><ele>214.4</ele><time>2026-05-01T16:10:39.154Z</time></trkpt><trkpt lat="44.745995" lon="8.4320283"><ele>215.0</ele><time>2026-05-01T16:10:40.159Z</time></trkpt><trkpt lat="44.7460833" lon="8.4320833"><ele>214.66666666666669</ele><time>2026-05-01T16:10:41.153Z</time></trkpt><trkpt lat="44.7461717" lon="8.4321267"><ele>214.33333333333334</ele><time>2026-05-01T16:10:42.154Z</time></trkpt><trkpt lat="44.7462583" lon="8.4321667"><ele>214.0</ele><time>2026-05-01T16:10:43.15Z</time></trkpt><trkpt lat="44.7463417" lon="8.4322"><ele>213.66666666666669</ele><time>2026-05-01T16:10:44.152Z</time></trkpt><trkpt lat="44.7464217" lon="8.432235"><ele>213.33333333333334</ele><time>2026-05-01T16:10:45.149Z</time></trkpt><trkpt lat="44.7465" lon="8.4322717"><ele>213.0</ele><time>2026-05-01T16:10:46.155Z</time></trkpt><trkpt lat="44.7465783" lon="8.4323067"><ele>213.0</ele><time>2026-05-01T16:10:47.152Z</time></trkpt><trkpt lat="44.7466567" lon="8.43234"><ele>213.0</ele><time>2026-05-01T16:10:48.155Z</time></trkpt><trkpt lat="44.7467383" lon="8.4323633"><ele>213.0</ele><time>2026-05-01T16:10:49.199Z</time></trkpt><trkpt lat="44.7468167" lon="8.432385"><ele>213.0</ele><time>2026-05-01T16:10:50.152Z</time></trkpt><trkpt lat="44.746895" lon="8.4324067"><ele>213.0</ele><time>2026-05-01T16:10:51.152Z</time></trkpt><trkpt lat="44.7469717" lon="8.4324283"><ele>213.0</ele><time>2026-05-01T16:10:52.153Z</time></trkpt><trkpt lat="44.74705" lon="8.4324417"><ele>213.5</ele><time>2026-05-01T16:10:53.153Z</time></trkpt><trkpt lat="44.74713" lon="8.4324433"><ele>214.0</ele><time>2026-05-01T16:10:54.152Z</time></trkpt><trkpt lat="44.7472117" lon="8.4324267"><ele>214.5</ele><time>2026-05-01T16:10:55.153Z</time></trkpt><trkpt lat="44.747285" lon="8.4323867"><ele>215.0</ele><time>2026-05-01T16:10:56.149Z</time></trkpt><trkpt lat="44.7473517" lon="8.4323217"><ele>215.5</ele><time>2026-05-01T16:10:57.15Z</time></trkpt><trkpt lat="44.7474117" lon="8.4322417"><ele>216.0</ele><time>2026-05-01T16:10:58.155Z</time></trkpt><trkpt lat="44.7474667" lon="8.43214"><ele>218.0</ele><time>2026-05-01T16:10:59.153Z</time></trkpt><trkpt lat="44.74752" lon="8.43201"><ele>220.0</ele><time>2026-05-01T16:11:00.156Z</time></trkpt><trkpt lat="44.7475967" lon="8.4318283"><ele>222.0</ele><time>2026-05-01T16:11:01.159Z</time></trkpt><trkpt lat="44.74768" lon="8.4316517"><ele>224.0</ele><time>2026-05-01T16:11:02.16Z</time></trkpt><trkpt lat="44.74777" lon="8.4314867"><ele>224.0</ele><time>2026-05-01T16:11:03.153Z</time></trkpt><trkpt lat="44.7478517" lon="8.43133"><ele>224.0</ele><time>2026-05-01T16:11:04.155Z</time></trkpt><trkpt lat="44.7479333" lon="8.4312"><ele>224.0</ele><time>2026-05-01T16:11:05.153Z</time></trkpt><trkpt lat="44.7480417" lon="8.43112"><ele>224.0</ele><time>2026-05-01T16:11:06.151Z</time></trkpt><trkpt lat="44.7481633" lon="8.4310667"><ele>226.0</ele><time>2026-05-01T16:11:07.155Z</time></trkpt><trkpt lat="44.74829" lon="8.4310433"><ele>228.0</ele><time>2026-05-01T16:11:08.162Z</time></trkpt><trkpt lat="44.74843" lon="8.4310483"><ele>230.0</ele><time>2026-05-01T16:11:09.151Z</time></trkpt><trkpt lat="44.7485817" lon="8.4310583"><ele>232.0</ele><time>2026-05-01T16:11:10.158Z</time></trkpt><trkpt lat="44.7487283" lon="8.4310833"><ele>233.75</ele><time>2026-05-01T16:11:11.153Z</time></trkpt><trkpt lat="44.748865" lon="8.4311033"><ele>235.5</ele><time>2026-05-01T16:11:12.152Z</time></trkpt><trkpt lat="44.7489933" lon="8.4311267"><ele>237.25</ele><time>2026-05-01T16:11:13.152Z</time></trkpt><trkpt lat="44.749105" lon="8.431175"><ele>239.0</ele><time>2026-05-01T16:11:14.152Z</time></trkpt><trkpt lat="44.7492117" lon="8.4312367"><ele>239.0</ele><time>2026-05-01T16:11:15.155Z</time></trkpt><trkpt lat="44.749305" lon="8.4313017"><ele>238.99999999999997</ele><time>2026-05-01T16:11:16.153Z</time></trkpt><trkpt lat="44.7493883" lon="8.4314067"><ele>238.99999999999997</ele><time>2026-05-01T16:11:17.155Z</time></trkpt><trkpt lat="44.7494817" lon="8.43147"><ele>239.0</ele><time>2026-05-01T16:11:18.152Z</time></trkpt><trkpt lat="44.749575" lon="8.431525"><ele>239.0</ele><time>2026-05-01T16:11:19.155Z</time></trkpt><trkpt lat="44.749665" lon="8.4316467"><ele>239.79999999999998</ele><time>2026-05-01T16:11:20.158Z</time></trkpt><trkpt lat="44.749715" lon="8.4317317"><ele>240.59999999999997</ele><time>2026-05-01T16:11:21.155Z</time></trkpt><trkpt lat="44.7497983" lon="8.4317683"><ele>241.4</ele><time>2026-05-01T16:11:23.158Z</time></trkpt><trkpt lat="44.749915" lon="8.431755"><ele>242.2</ele><time>2026-05-01T16:11:25.154Z</time></trkpt><trkpt lat="44.749995" lon="8.4317217"><ele>243.0</ele><time>2026-05-01T16:11:26.154Z</time></trkpt><trkpt lat="44.750065" lon="8.4316467"><ele>243.0</ele><time>2026-05-01T16:11:27.153Z</time></trkpt><trkpt lat="44.75012" lon="8.4315967"><ele>243.0</ele><time>2026-05-01T16:11:28.15Z</time></trkpt><trkpt lat="44.750165" lon="8.4315317"><ele>243.0</ele><time>2026-05-01T16:11:29.155Z</time></trkpt><trkpt lat="44.7502267" lon="8.4314217"><ele>243.0</ele><time>2026-05-01T16:11:31.153Z</time></trkpt><trkpt lat="44.750245" lon="8.431335"><ele>243.0</ele><time>2026-05-01T16:11:32.152Z</time></trkpt><trkpt lat="44.7502467" lon="8.431225"><ele>243.0</ele><time>2026-05-01T16:11:33.151Z</time></trkpt><trkpt lat="44.75024" lon="8.4310917"><ele>243.5</ele><time>2026-05-01T16:11:34.154Z</time></trkpt><trkpt lat="44.7502233" lon="8.4309383"><ele>244.0</ele><time>2026-05-01T16:11:35.153Z</time></trkpt><trkpt lat="44.75018" lon="8.4307367"><ele>244.5</ele><time>2026-05-01T16:11:36.154Z</time></trkpt><trkpt lat="44.7501417" lon="8.4305"><ele>245.0</ele><time>2026-05-01T16:11:37.155Z</time></trkpt><trkpt lat="44.7501283" lon="8.4303083"><ele>246.0</ele><time>2026-05-01T16:11:38.153Z</time></trkpt><trkpt lat="44.7501017" lon="8.4301017"><ele>247.0</ele><time>2026-05-01T16:11:39.153Z</time></trkpt><trkpt lat="44.7500783" lon="8.4298867"><ele>248.0</ele><time>2026-05-01T16:11:40.156Z</time></trkpt><trkpt lat="44.7500333" lon="8.4296733"><ele>249.33333333333334</ele><time>2026-05-01T16:11:41.154Z</time></trkpt><trkpt lat="44.7499667" lon="8.4294783"><ele>250.66666666666669</ele><time>2026-05-01T16:11:42.154Z</time></trkpt><trkpt lat="44.7498633" lon="8.42926"><ele>252.0</ele><time>2026-05-01T16:11:43.157Z</time></trkpt><trkpt lat="44.7497683" lon="8.42909"><ele>252.0</ele><time>2026-05-01T16:11:44.154Z</time></trkpt><trkpt lat="44.7496583" lon="8.4288967"><ele>252.0</ele><time>2026-05-01T16:11:45.155Z</time></trkpt><trkpt lat="44.7495467" lon="8.4287133"><ele>252.0</ele><time>2026-05-01T16:11:46.157Z</time></trkpt><trkpt lat="44.7494333" lon="8.4285383"><ele>253.66666666666669</ele><time>2026-05-01T16:11:47.157Z</time></trkpt><trkpt lat="44.7493183" lon="8.42835"><ele>255.33333333333334</ele><time>2026-05-01T16:11:48.157Z</time></trkpt><trkpt lat="44.7491983" lon="8.4281683"><ele>257.0</ele><time>2026-05-01T16:11:49.154Z</time></trkpt><trkpt lat="44.7490733" lon="8.42799"><ele>256.0</ele><time>2026-05-01T16:11:50.156Z</time></trkpt><trkpt lat="44.7489467" lon="8.4278133"><ele>255.0</ele><time>2026-05-01T16:11:51.154Z</time></trkpt><trkpt lat="44.7488083" lon="8.4276317"><ele>254.0</ele><time>2026-05-01T16:11:52.154Z</time></trkpt><trkpt lat="44.7486667" lon="8.4274533"><ele>256.6666666666667</ele><time>2026-05-01T16:11:53.156Z</time></trkpt><trkpt lat="44.7485217" lon="8.42727"><ele>259.3333333333333</ele><time>2026-05-01T16:11:54.157Z</time></trkpt><trkpt lat="44.7483733" lon="8.4270767"><ele>262.0</ele><time>2026-05-01T16:11:55.152Z</time></trkpt><trkpt lat="44.7482267" lon="8.4268817"><ele>262.66666666666663</ele><time>2026-05-01T16:11:56.153Z</time></trkpt><trkpt lat="44.748085" lon="8.4266883"><ele>263.3333333333333</ele><time>2026-05-01T16:11:57.152Z</time></trkpt><trkpt lat="44.7479383" lon="8.4264983"><ele>264.0</ele><time>2026-05-01T16:11:58.15Z</time></trkpt><trkpt lat="44.7477867" lon="8.42631"><ele>268.0</ele><time>2026-05-01T16:11:59.152Z</time></trkpt><trkpt lat="44.747635" lon="8.4261217"><ele>272.0</ele><time>2026-05-01T16:12:00.154Z</time></trkpt><trkpt lat="44.74749" lon="8.4259417"><ele>276.0</ele><time>2026-05-01T16:12:01.16Z</time></trkpt><trkpt lat="44.7473433" lon="8.425755"><ele>276.0</ele><time>2026-05-01T16:12:02.152Z</time></trkpt><trkpt lat="44.7472067" lon="8.4255833"><ele>276.0</ele><time>2026-05-01T16:12:03.154Z</time></trkpt><trkpt lat="44.7470833" lon="8.425425"><ele>276.0</ele><time>2026-05-01T16:12:04.164Z</time></trkpt><trkpt lat="44.7469667" lon="8.4252683"><ele>276.6666666666667</ele><time>2026-05-01T16:12:05.155Z</time></trkpt><trkpt lat="44.7468533" lon="8.425115"><ele>277.33333333333337</ele><time>2026-05-01T16:12:06.155Z</time></trkpt><trkpt lat="44.7467567" lon="8.4249633"><ele>278.0</ele><time>2026-05-01T16:12:07.157Z</time></trkpt><trkpt lat="44.7466533" lon="8.4248033"><ele>279.6666666666667</ele><time>2026-05-01T16:12:08.153Z</time></trkpt><trkpt lat="44.7465483" lon="8.4246417"><ele>281.3333333333333</ele><time>2026-05-01T16:12:09.155Z</time></trkpt><trkpt lat="44.7464467" lon="8.4244783"><ele>283.0</ele><time>2026-05-01T16:12:10.154Z</time></trkpt><trkpt lat="44.746355" lon="8.4243283"><ele>283.0</ele><time>2026-05-01T16:12:11.156Z</time></trkpt><trkpt lat="44.74628" lon="8.4241867"><ele>283.0</ele><time>2026-05-01T16:12:12.155Z</time></trkpt><trkpt lat="44.7462017" lon="8.424045"><ele>283.0</ele><time>2026-05-01T16:12:13.157Z</time></trkpt><trkpt lat="44.746115" lon="8.423905"><ele>283.0</ele><time>2026-05-01T16:12:14.154Z</time></trkpt><trkpt lat="44.7460167" lon="8.4237617"><ele>284.3333333333333</ele><time>2026-05-01T16:12:15.155Z</time></trkpt><trkpt lat="44.7459167" lon="8.42361"><ele>285.6666666666667</ele><time>2026-05-01T16:12:16.154Z</time></trkpt><trkpt lat="44.74581" lon="8.4234483"><ele>287.0</ele><time>2026-05-01T16:12:17.153Z</time></trkpt><trkpt lat="44.745705" lon="8.4232867"><ele>287.0</ele><time>2026-05-01T16:12:18.156Z</time></trkpt><trkpt lat="44.7456033" lon="8.4231383"><ele>287.0</ele><time>2026-05-01T16:12:19.153Z</time></trkpt><trkpt lat="44.7455133" lon="8.423005"><ele>287.0</ele><time>2026-05-01T16:12:20.153Z</time></trkpt><trkpt lat="44.7454367" lon="8.42287"><ele>287.0</ele><time>2026-05-01T16:12:21.151Z</time></trkpt><trkpt lat="44.7453733" lon="8.4227083"><ele>287.0</ele><time>2026-05-01T16:12:22.158Z</time></trkpt><trkpt lat="44.7453267" lon="8.4225367"><ele>287.0</ele><time>2026-05-01T16:12:23.151Z</time></trkpt><trkpt lat="44.7453" lon="8.4223483"><ele>287.0</ele><time>2026-05-01T16:12:24.154Z</time></trkpt><trkpt lat="44.74526" lon="8.422125"><ele>287.0</ele><time>2026-05-01T16:12:25.154Z</time></trkpt><trkpt lat="44.745255" lon="8.4218983"><ele>286.6666666666667</ele><time>2026-05-01T16:12:26.153Z</time></trkpt><trkpt lat="44.74527" lon="8.421655"><ele>286.3333333333333</ele><time>2026-05-01T16:12:27.154Z</time></trkpt><trkpt lat="44.7453233" lon="8.421405"><ele>286.0</ele><time>2026-05-01T16:12:28.153Z</time></trkpt><trkpt lat="44.7453733" lon="8.4211383"><ele>285.66666666666663</ele><time>2026-05-01T16:12:29.155Z</time></trkpt><trkpt lat="44.7454233" lon="8.420865"><ele>285.3333333333333</ele><time>2026-05-01T16:12:30.155Z</time></trkpt><trkpt lat="44.7454767" lon="8.4205867"><ele>285.0</ele><time>2026-05-01T16:12:31.156Z</time></trkpt><trkpt lat="44.7455267" lon="8.42031"><ele>286.6666666666667</ele><time>2026-05-01T16:12:32.156Z</time></trkpt><trkpt lat="44.74558" lon="8.42003"><ele>288.33333333333337</ele><time>2026-05-01T16:12:33.154Z</time></trkpt><trkpt lat="44.74563" lon="8.4197567"><ele>290.0</ele><time>2026-05-01T16:12:34.154Z</time></trkpt><trkpt lat="44.7456767" lon="8.4194967"><ele>290.6666666666667</ele><time>2026-05-01T16:12:35.156Z</time></trkpt><trkpt lat="44.74572" lon="8.4192417"><ele>291.3333333333333</ele><time>2026-05-01T16:12:36.152Z</time></trkpt><trkpt lat="44.74576" lon="8.4190017"><ele>292.0</ele><time>2026-05-01T16:12:37.152Z</time></trkpt><trkpt lat="44.7457917" lon="8.4187483"><ele>290.66666666666663</ele><time>2026-05-01T16:12:38.152Z</time></trkpt><trkpt lat="44.74583" lon="8.4184833"><ele>289.3333333333333</ele><time>2026-05-01T16:12:39.151Z</time></trkpt><trkpt lat="44.7458717" lon="8.418215"><ele>288.0</ele><time>2026-05-01T16:12:40.152Z</time></trkpt><trkpt lat="44.7459217" lon="8.4179333"><ele>286.6666666666667</ele><time>2026-05-01T16:12:41.157Z</time></trkpt><trkpt lat="44.74598" lon="8.4176467"><ele>285.33333333333337</ele><time>2026-05-01T16:12:42.151Z</time></trkpt><trkpt lat="44.7460417" lon="8.417355"><ele>284.0</ele><time>2026-05-01T16:12:43.153Z</time></trkpt><trkpt lat="44.7461117" lon="8.4170617"><ele>283.6666666666667</ele><time>2026-05-01T16:12:44.153Z</time></trkpt><trkpt lat="44.7461867" lon="8.416765"><ele>283.3333333333333</ele><time>2026-05-01T16:12:45.152Z</time></trkpt><trkpt lat="44.74626" lon="8.4164783"><ele>283.0</ele><time>2026-05-01T16:12:46.152Z</time></trkpt><trkpt lat="44.74633" lon="8.4161983"><ele>283.0</ele><time>2026-05-01T16:12:47.155Z</time></trkpt><trkpt lat="44.746395" lon="8.4159383"><ele>283.0</ele><time>2026-05-01T16:12:48.153Z</time></trkpt><trkpt lat="44.746445" lon="8.4157033"><ele>283.0</ele><time>2026-05-01T16:12:49.156Z</time></trkpt><trkpt lat="44.746495" lon="8.41549"><ele>283.25</ele><time>2026-05-01T16:12:50.156Z</time></trkpt><trkpt lat="44.74655" lon="8.4152983"><ele>283.5</ele><time>2026-05-01T16:12:51.155Z</time></trkpt><trkpt lat="44.7466117" lon="8.4151267"><ele>283.75</ele><time>2026-05-01T16:12:52.153Z</time></trkpt><trkpt lat="44.7466883" lon="8.414975"><ele>284.0</ele><time>2026-05-01T16:12:53.153Z</time></trkpt><trkpt lat="44.7467883" lon="8.4148533"><ele>284.0</ele><time>2026-05-01T16:12:54.155Z</time></trkpt><trkpt lat="44.7468967" lon="8.4147367"><ele>284.0</ele><time>2026-05-01T16:12:55.154Z</time></trkpt><trkpt lat="44.747015" lon="8.4146517"><ele>284.0</ele><time>2026-05-01T16:12:56.155Z</time></trkpt><trkpt lat="44.747145" lon="8.4145933"><ele>284.0</ele><time>2026-05-01T16:12:57.151Z</time></trkpt><trkpt lat="44.7472933" lon="8.414555"><ele>285.6666666666667</ele><time>2026-05-01T16:12:58.155Z</time></trkpt><trkpt lat="44.7474433" lon="8.4145183"><ele>287.3333333333333</ele><time>2026-05-01T16:12:59.155Z</time></trkpt><trkpt lat="44.7476017" lon="8.4144883"><ele>289.0</ele><time>2026-05-01T16:13:00.154Z</time></trkpt><trkpt lat="44.747765" lon="8.4144583"><ele>289.3333333333333</ele><time>2026-05-01T16:13:01.156Z</time></trkpt><trkpt lat="44.74793" lon="8.4144383"><ele>289.6666666666667</ele><time>2026-05-01T16:13:02.152Z</time></trkpt><trkpt lat="44.7480917" lon="8.4144133"><ele>290.0</ele><time>2026-05-01T16:13:03.15Z</time></trkpt><trkpt lat="44.7482367" lon="8.4143817"><ele>290.0</ele><time>2026-05-01T16:13:04.152Z</time></trkpt><trkpt lat="44.7483683" lon="8.4143617"><ele>290.0</ele><time>2026-05-01T16:13:05.152Z</time></trkpt><trkpt lat="44.748475" lon="8.4143483"><ele>290.0</ele><time>2026-05-01T16:13:06.155Z</time></trkpt><trkpt lat="44.7485517" lon="8.4143467"><ele>290.0</ele><time>2026-05-01T16:13:07.155Z</time></trkpt><trkpt lat="44.748615" lon="8.41434"><ele>290.0</ele><time>2026-05-01T16:13:08.155Z</time></trkpt><trkpt lat="44.748705" lon="8.4143783"><ele>289.6</ele><time>2026-05-01T16:13:10.156Z</time></trkpt><trkpt lat="44.748755" lon="8.4144583"><ele>289.2</ele><time>2026-05-01T16:13:11.155Z</time></trkpt><trkpt lat="44.7488083" lon="8.414555"><ele>288.8</ele><time>2026-05-01T16:13:12.153Z</time></trkpt><trkpt lat="44.7488667" lon="8.414665"><ele>288.4</ele><time>2026-05-01T16:13:13.156Z</time></trkpt><trkpt lat="44.7489333" lon="8.4148033"><ele>288.0</ele><time>2026-05-01T16:13:14.156Z</time></trkpt><trkpt lat="44.7490183" lon="8.4149367"><ele>288.0</ele><time>2026-05-01T16:13:15.154Z</time></trkpt><trkpt lat="44.74912" lon="8.4150617"><ele>288.0</ele><time>2026-05-01T16:13:16.154Z</time></trkpt><trkpt lat="44.7492333" lon="8.41518"><ele>288.0</ele><time>2026-05-01T16:13:17.154Z</time></trkpt><trkpt lat="44.7493567" lon="8.4152817"><ele>288.0</ele><time>2026-05-01T16:13:18.157Z</time></trkpt><trkpt lat="44.7494917" lon="8.4153683"><ele>287.0</ele><time>2026-05-01T16:13:19.156Z</time></trkpt><trkpt lat="44.749635" lon="8.41544"><ele>286.0</ele><time>2026-05-01T16:13:20.152Z</time></trkpt><trkpt lat="44.7497867" lon="8.415495"><ele>285.0</ele><time>2026-05-01T16:13:21.154Z</time></trkpt><trkpt lat="44.7499367" lon="8.4155267"><ele>285.0</ele><time>2026-05-01T16:13:22.154Z</time></trkpt><trkpt lat="44.75009" lon="8.41555"><ele>285.0</ele><time>2026-05-01T16:13:23.154Z</time></trkpt><trkpt lat="44.7502383" lon="8.4155683"><ele>285.0</ele><time>2026-05-01T16:13:24.153Z</time></trkpt><trkpt lat="44.7503883" lon="8.4156"><ele>284.25</ele><time>2026-05-01T16:13:25.155Z</time></trkpt><trkpt lat="44.7505367" lon="8.4156333"><ele>283.5</ele><time>2026-05-01T16:13:26.154Z</time></trkpt><trkpt lat="44.7506667" lon="8.4156567"><ele>282.75</ele><time>2026-05-01T16:13:27.153Z</time></trkpt><trkpt lat="44.75078" lon="8.4156817"><ele>282.0</ele><time>2026-05-01T16:13:28.154Z</time></trkpt><trkpt lat="44.75087" lon="8.415745"><ele>282.0</ele><time>2026-05-01T16:13:29.159Z</time></trkpt><trkpt lat="44.7509317" lon="8.4158517"><ele>282.0</ele><time>2026-05-01T16:13:30.151Z</time></trkpt><trkpt lat="44.7509767" lon="8.41597"><ele>282.0</ele><time>2026-05-01T16:13:31.152Z</time></trkpt><trkpt lat="44.751025" lon="8.4161067"><ele>282.0</ele><time>2026-05-01T16:13:32.151Z</time></trkpt><trkpt lat="44.7510933" lon="8.4162467"><ele>282.0</ele><time>2026-05-01T16:13:33.151Z</time></trkpt><trkpt lat="44.7511783" lon="8.4163883"><ele>280.25</ele><time>2026-05-01T16:13:34.155Z</time></trkpt><trkpt lat="44.7512767" lon="8.4165217"><ele>278.5</ele><time>2026-05-01T16:13:35.153Z</time></trkpt><trkpt lat="44.7513833" lon="8.4166617"><ele>276.75</ele><time>2026-05-01T16:13:36.151Z</time></trkpt><trkpt lat="44.7514867" lon="8.416805"><ele>275.0</ele><time>2026-05-01T16:13:37.153Z</time></trkpt><trkpt lat="44.7515917" lon="8.4169517"><ele>275.0</ele><time>2026-05-01T16:13:38.154Z</time></trkpt><trkpt lat="44.751695" lon="8.4170933"><ele>275.0</ele><time>2026-05-01T16:13:39.152Z</time></trkpt><trkpt lat="44.7518017" lon="8.4172383"><ele>275.0</ele><time>2026-05-01T16:13:40.154Z</time></trkpt><trkpt lat="44.7519" lon="8.417385"><ele>275.0</ele><time>2026-05-01T16:13:41.152Z</time></trkpt><trkpt lat="44.7519883" lon="8.4175317"><ele>274.25</ele><time>2026-05-01T16:13:42.153Z</time></trkpt><trkpt lat="44.7520583" lon="8.4176883"><ele>273.5</ele><time>2026-05-01T16:13:43.155Z</time></trkpt><trkpt lat="44.7521133" lon="8.4178483"><ele>272.75</ele><time>2026-05-01T16:13:44.155Z</time></trkpt><trkpt lat="44.7521533" lon="8.4180183"><ele>272.0</ele><time>2026-05-01T16:13:45.154Z</time></trkpt><trkpt lat="44.7521883" lon="8.418185"><ele>272.0</ele><time>2026-05-01T16:13:46.156Z</time></trkpt><trkpt lat="44.75222" lon="8.4183517"><ele>272.0</ele><time>2026-05-01T16:13:47.153Z</time></trkpt><trkpt lat="44.7522583" lon="8.4185133"><ele>272.0</ele><time>2026-05-01T16:13:48.154Z</time></trkpt><trkpt lat="44.7522933" lon="8.41868"><ele>272.0</ele><time>2026-05-01T16:13:49.155Z</time></trkpt><trkpt lat="44.7523217" lon="8.4188533"><ele>272.0</ele><time>2026-05-01T16:13:50.151Z</time></trkpt><trkpt lat="44.7523767" lon="8.4190083"><ele>272.0</ele><time>2026-05-01T16:13:51.156Z</time></trkpt><trkpt lat="44.75244" lon="8.4191567"><ele>272.0</ele><time>2026-05-01T16:13:52.153Z</time></trkpt><trkpt lat="44.7525117" lon="8.419295"><ele>272.0</ele><time>2026-05-01T16:13:53.152Z</time></trkpt><trkpt lat="44.7525817" lon="8.4194333"><ele>272.0</ele><time>2026-05-01T16:13:54.154Z</time></trkpt><trkpt lat="44.7526483" lon="8.4195717"><ele>272.0</ele><time>2026-05-01T16:13:55.157Z</time></trkpt><trkpt lat="44.75271" lon="8.4197067"><ele>272.0</ele><time>2026-05-01T16:13:56.151Z</time></trkpt><trkpt lat="44.7527633" lon="8.4198467"><ele>272.0</ele><time>2026-05-01T16:13:57.155Z</time></trkpt><trkpt lat="44.7528117" lon="8.419985"><ele>272.0</ele><time>2026-05-01T16:13:58.155Z</time></trkpt><trkpt lat="44.7528383" lon="8.4201183"><ele>272.0</ele><time>2026-05-01T16:13:59.16Z</time></trkpt><trkpt lat="44.7528567" lon="8.4202333"><ele>272.0</ele><time>2026-05-01T16:14:00.155Z</time></trkpt><trkpt lat="44.75289" lon="8.42034"><ele>272.0</ele><time>2026-05-01T16:14:01.155Z</time></trkpt><trkpt lat="44.7529383" lon="8.4204233"><ele>272.0</ele><time>2026-05-01T16:14:02.159Z</time></trkpt><trkpt lat="44.75302" lon="8.420545"><ele>272.6666666666667</ele><time>2026-05-01T16:14:04.153Z</time></trkpt><trkpt lat="44.753075" lon="8.4206017"><ele>273.33333333333337</ele><time>2026-05-01T16:14:05.161Z</time></trkpt><trkpt lat="44.7531483" lon="8.420665"><ele>274.0</ele><time>2026-05-01T16:14:06.153Z</time></trkpt><trkpt lat="44.7532283" lon="8.4207233"><ele>274.6666666666667</ele><time>2026-05-01T16:14:07.154Z</time></trkpt><trkpt lat="44.7533033" lon="8.420765"><ele>275.3333333333333</ele><time>2026-05-01T16:14:08.156Z</time></trkpt><trkpt lat="44.7533717" lon="8.4208033"><ele>276.0</ele><time>2026-05-01T16:14:09.155Z</time></trkpt><trkpt lat="44.7534733" lon="8.4208883"><ele>274.2</ele><time>2026-05-01T16:14:11.154Z</time></trkpt><trkpt lat="44.7535583" lon="8.4209033"><ele>272.40000000000003</ele><time>2026-05-01T16:14:13.156Z</time></trkpt><trkpt lat="44.75366" lon="8.4208317"><ele>270.6</ele><time>2026-05-01T16:14:15.151Z</time></trkpt><trkpt lat="44.7537167" lon="8.4207717"><ele>268.8</ele><time>2026-05-01T16:14:16.154Z</time></trkpt><trkpt lat="44.753795" lon="8.42064"><ele>267.0</ele><time>2026-05-01T16:14:17.155Z</time></trkpt><trkpt lat="44.75389" lon="8.420535"><ele>266.25</ele><time>2026-05-01T16:14:18.151Z</time></trkpt><trkpt lat="44.7539933" lon="8.42043"><ele>265.5</ele><time>2026-05-01T16:14:19.156Z</time></trkpt><trkpt lat="44.7540967" lon="8.4203083"><ele>264.75</ele><time>2026-05-01T16:14:20.155Z</time></trkpt><trkpt lat="44.7542" lon="8.4201867"><ele>264.0</ele><time>2026-05-01T16:14:21.161Z</time></trkpt><trkpt lat="44.7543067" lon="8.42007"><ele>261.0</ele><time>2026-05-01T16:14:22.158Z</time></trkpt><trkpt lat="44.7544133" lon="8.41992"><ele>258.0</ele><time>2026-05-01T16:14:23.157Z</time></trkpt><trkpt lat="44.7545133" lon="8.41978"><ele>255.0</ele><time>2026-05-01T16:14:24.151Z</time></trkpt><trkpt lat="44.75463" lon="8.4196583"><ele>252.0</ele><time>2026-05-01T16:14:25.158Z</time></trkpt><trkpt lat="44.75475" lon="8.419535"><ele>252.0</ele><time>2026-05-01T16:14:26.153Z</time></trkpt><trkpt lat="44.7548767" lon="8.4194167"><ele>252.0</ele><time>2026-05-01T16:14:27.161Z</time></trkpt><trkpt lat="44.755" lon="8.419305"><ele>252.0</ele><time>2026-05-01T16:14:28.157Z</time></trkpt><trkpt lat="44.7551283" lon="8.4192"><ele>252.0</ele><time>2026-05-01T16:14:29.151Z</time></trkpt><trkpt lat="44.7552483" lon="8.4191017"><ele>249.5</ele><time>2026-05-01T16:14:30.152Z</time></trkpt><trkpt lat="44.7553683" lon="8.4190183"><ele>247.0</ele><time>2026-05-01T16:14:31.153Z</time></trkpt><trkpt lat="44.7554933" lon="8.4189583"><ele>244.5</ele><time>2026-05-01T16:14:32.151Z</time></trkpt><trkpt lat="44.7556283" lon="8.4189133"><ele>242.0</ele><time>2026-05-01T16:14:33.153Z</time></trkpt><trkpt lat="44.7557683" lon="8.4188917"><ele>242.0</ele><time>2026-05-01T16:14:34.151Z</time></trkpt><trkpt lat="44.7559" lon="8.4188783"><ele>242.0</ele><time>2026-05-01T16:14:35.157Z</time></trkpt><trkpt lat="44.75602" lon="8.418875"><ele>242.0</ele><time>2026-05-01T16:14:36.16Z</time></trkpt><trkpt lat="44.7561333" lon="8.4188733"><ele>242.0</ele><time>2026-05-01T16:14:37.154Z</time></trkpt><trkpt lat="44.75625" lon="8.4188683"><ele>240.25</ele><time>2026-05-01T16:14:38.152Z</time></trkpt><trkpt lat="44.7563683" lon="8.418855"><ele>238.5</ele><time>2026-05-01T16:14:39.151Z</time></trkpt><trkpt lat="44.7564933" lon="8.4188417"><ele>236.75</ele><time>2026-05-01T16:14:40.157Z</time></trkpt><trkpt lat="44.756635" lon="8.4188367"><ele>235.0</ele><time>2026-05-01T16:14:41.151Z</time></trkpt><trkpt lat="44.7567883" lon="8.4188133"><ele>232.0</ele><time>2026-05-01T16:14:42.153Z</time></trkpt><trkpt lat="44.7569533" lon="8.4187867"><ele>229.0</ele><time>2026-05-01T16:14:43.153Z</time></trkpt><trkpt lat="44.757125" lon="8.4187517"><ele>226.0</ele><time>2026-05-01T16:14:44.159Z</time></trkpt><trkpt lat="44.7572983" lon="8.4187117"><ele>226.0</ele><time>2026-05-01T16:14:45.149Z</time></trkpt><trkpt lat="44.75746" lon="8.4186633"><ele>226.0</ele><time>2026-05-01T16:14:46.15Z</time></trkpt><trkpt lat="44.7576167" lon="8.4186017"><ele>226.0</ele><time>2026-05-01T16:14:47.151Z</time></trkpt><trkpt lat="44.757765" lon="8.4185133"><ele>223.5</ele><time>2026-05-01T16:14:48.153Z</time></trkpt><trkpt lat="44.7578983" lon="8.418395"><ele>221.0</ele><time>2026-05-01T16:14:49.155Z</time></trkpt><trkpt lat="44.7580217" lon="8.4182933"><ele>218.5</ele><time>2026-05-01T16:14:50.157Z</time></trkpt><trkpt lat="44.7581333" lon="8.4181633"><ele>216.0</ele><time>2026-05-01T16:14:51.155Z</time></trkpt><trkpt lat="44.75824" lon="8.4180383"><ele>214.0</ele><time>2026-05-01T16:14:52.154Z</time></trkpt><trkpt lat="44.7583417" lon="8.4178883"><ele>212.0</ele><time>2026-05-01T16:14:53.152Z</time></trkpt><trkpt lat="44.7584417" lon="8.4177233"><ele>210.0</ele><time>2026-05-01T16:14:54.151Z</time></trkpt><trkpt lat="44.7585333" lon="8.417555"><ele>206.66666666666669</ele><time>2026-05-01T16:14:55.151Z</time></trkpt><trkpt lat="44.7586117" lon="8.4173867"><ele>203.33333333333334</ele><time>2026-05-01T16:14:56.15Z</time></trkpt><trkpt lat="44.75866" lon="8.417185"><ele>200.0</ele><time>2026-05-01T16:14:57.155Z</time></trkpt><trkpt lat="44.7586933" lon="8.4169683"><ele>197.66666666666669</ele><time>2026-05-01T16:14:58.152Z</time></trkpt><trkpt lat="44.75871" lon="8.41673"><ele>195.33333333333331</ele><time>2026-05-01T16:14:59.151Z</time></trkpt><trkpt lat="44.7587183" lon="8.41649"><ele>193.0</ele><time>2026-05-01T16:15:00.15Z</time></trkpt><trkpt lat="44.758715" lon="8.41624"><ele>192.0</ele><time>2026-05-01T16:15:01.153Z</time></trkpt><trkpt lat="44.7587083" lon="8.4159867"><ele>191.0</ele><time>2026-05-01T16:15:02.152Z</time></trkpt><trkpt lat="44.7586983" lon="8.415735"><ele>190.0</ele><time>2026-05-01T16:15:03.154Z</time></trkpt><trkpt lat="44.7586867" lon="8.4154867"><ele>190.0</ele><time>2026-05-01T16:15:04.156Z</time></trkpt><trkpt lat="44.7586683" lon="8.4152533"><ele>190.0</ele><time>2026-05-01T16:15:05.157Z</time></trkpt><trkpt lat="44.75865" lon="8.41504"><ele>190.0</ele><time>2026-05-01T16:15:06.149Z</time></trkpt><trkpt lat="44.7586283" lon="8.4148517"><ele>190.0</ele><time>2026-05-01T16:15:07.155Z</time></trkpt><trkpt lat="44.7586283" lon="8.414695"><ele>190.0</ele><time>2026-05-01T16:15:08.149Z</time></trkpt><trkpt lat="44.7586367" lon="8.4145417"><ele>190.0</ele><time>2026-05-01T16:15:09.151Z</time></trkpt><trkpt lat="44.7586667" lon="8.414405"><ele>190.0</ele><time>2026-05-01T16:15:10.151Z</time></trkpt><trkpt lat="44.758715" lon="8.4142617"><ele>190.0</ele><time>2026-05-01T16:15:11.157Z</time></trkpt><trkpt lat="44.75877" lon="8.4141317"><ele>190.8</ele><time>2026-05-01T16:15:12.151Z</time></trkpt><trkpt lat="44.758825" lon="8.414"><ele>191.6</ele><time>2026-05-01T16:15:13.156Z</time></trkpt><trkpt lat="44.7588733" lon="8.41388"><ele>192.39999999999998</ele><time>2026-05-01T16:15:14.159Z</time></trkpt><trkpt lat="44.75891" lon="8.4137833"><ele>193.2</ele><time>2026-05-01T16:15:15.155Z</time></trkpt><trkpt lat="44.7589583" lon="8.41366"><ele>194.0</ele><time>2026-05-01T16:15:17.151Z</time></trkpt><trkpt lat="44.7590017" lon="8.41359"><ele>196.0</ele><time>2026-05-01T16:15:19.154Z</time></trkpt><trkpt lat="44.7590583" lon="8.41342"><ele>198.0</ele><time>2026-05-01T16:15:21.156Z</time></trkpt><trkpt lat="44.7590867" lon="8.413295"><ele>200.0</ele><time>2026-05-01T16:15:22.152Z</time></trkpt><trkpt lat="44.7591217" lon="8.41317"><ele>202.0</ele><time>2026-05-01T16:15:23.153Z</time></trkpt><trkpt lat="44.759165" lon="8.4130467"><ele>204.0</ele><time>2026-05-01T16:15:24.152Z</time></trkpt><trkpt lat="44.7592217" lon="8.4129433"><ele>207.25</ele><time>2026-05-01T16:15:25.153Z</time></trkpt><trkpt lat="44.759305" lon="8.4128633"><ele>210.5</ele><time>2026-05-01T16:15:26.154Z</time></trkpt><trkpt lat="44.7594017" lon="8.4128217"><ele>213.75</ele><time>2026-05-01T16:15:27.15Z</time></trkpt><trkpt lat="44.7595217" lon="8.4127933"><ele>217.0</ele><time>2026-05-01T16:15:28.155Z</time></trkpt><trkpt lat="44.7596533" lon="8.4127883"><ele>218.0</ele><time>2026-05-01T16:15:29.155Z</time></trkpt><trkpt lat="44.7597733" lon="8.4128117"><ele>219.0</ele><time>2026-05-01T16:15:30.152Z</time></trkpt><trkpt lat="44.7598717" lon="8.4128633"><ele>220.0</ele><time>2026-05-01T16:15:31.156Z</time></trkpt><trkpt lat="44.7599433" lon="8.4129583"><ele>221.0</ele><time>2026-05-01T16:15:32.151Z</time></trkpt><trkpt lat="44.7600067" lon="8.413065"><ele>222.0</ele><time>2026-05-01T16:15:33.149Z</time></trkpt><trkpt lat="44.7600667" lon="8.4131567"><ele>222.0</ele><time>2026-05-01T16:15:34.151Z</time></trkpt><trkpt lat="44.760135" lon="8.41324"><ele>222.0</ele><time>2026-05-01T16:15:35.151Z</time></trkpt><trkpt lat="44.7602067" lon="8.4133033"><ele>222.0</ele><time>2026-05-01T16:15:36.154Z</time></trkpt><trkpt lat="44.7602817" lon="8.41333"><ele>222.0</ele><time>2026-05-01T16:15:37.157Z</time></trkpt><trkpt lat="44.7603533" lon="8.4132917"><ele>222.0</ele><time>2026-05-01T16:15:38.151Z</time></trkpt><trkpt lat="44.760425" lon="8.4132533"><ele>222.0</ele><time>2026-05-01T16:15:39.155Z</time></trkpt><trkpt lat="44.7604967" lon="8.4132167"><ele>222.0</ele><time>2026-05-01T16:15:40.157Z</time></trkpt><trkpt lat="44.7605667" lon="8.4131833"><ele>222.0</ele><time>2026-05-01T16:15:41.153Z</time></trkpt><trkpt lat="44.7606333" lon="8.4131467"><ele>222.0</ele><time>2026-05-01T16:15:42.158Z</time></trkpt><trkpt lat="44.7606967" lon="8.4131133"><ele>222.0</ele><time>2026-05-01T16:15:43.154Z</time></trkpt><trkpt lat="44.76077" lon="8.4130833"><ele>222.0</ele><time>2026-05-01T16:15:44.152Z</time></trkpt><trkpt lat="44.760835" lon="8.4130583"><ele>222.0</ele><time>2026-05-01T16:15:45.152Z</time></trkpt><trkpt lat="44.7609067" lon="8.4130417"><ele>222.0</ele><time>2026-05-01T16:15:46.155Z</time></trkpt><trkpt lat="44.76098" lon="8.4130267"><ele>223.57142857142856</ele><time>2026-05-01T16:15:47.154Z</time></trkpt><trkpt lat="44.7610467" lon="8.4130333"><ele>225.14285714285717</ele><time>2026-05-01T16:15:48.155Z</time></trkpt><trkpt lat="44.76111" lon="8.4130267"><ele>226.71428571428572</ele><time>2026-05-01T16:15:49.156Z</time></trkpt><trkpt lat="44.761185" lon="8.4130167"><ele>228.28571428571428</ele><time>2026-05-01T16:15:50.153Z</time></trkpt><trkpt lat="44.7612633" lon="8.412995"><ele>229.85714285714283</ele><time>2026-05-01T16:15:51.152Z</time></trkpt><trkpt lat="44.761345" lon="8.412975"><ele>231.42857142857144</ele><time>2026-05-01T16:15:52.152Z</time></trkpt><trkpt lat="44.76142" lon="8.41294"><ele>233.0</ele><time>2026-05-01T16:15:53.158Z</time></trkpt><trkpt lat="44.7614883" lon="8.4129083"><ele>233.50000000000003</ele><time>2026-05-01T16:15:54.153Z</time></trkpt><trkpt lat="44.7615883" lon="8.4128867"><ele>234.0</ele><time>2026-05-01T16:15:56.15Z</time></trkpt><trkpt lat="44.761655" lon="8.41288"><ele>234.5</ele><time>2026-05-01T16:15:58.155Z</time></trkpt><trkpt lat="44.7617367" lon="8.412885"><ele>235.0</ele><time>2026-05-01T16:16:00.154Z</time></trkpt><trkpt lat="44.761805" lon="8.4128983"><ele>235.50000000000003</ele><time>2026-05-01T16:16:02.157Z</time></trkpt><trkpt lat="44.7618683" lon="8.4129617"><ele>236.0</ele><time>2026-05-01T16:16:04.152Z</time></trkpt><trkpt lat="44.761915" lon="8.4130433"><ele>236.0</ele><time>2026-05-01T16:16:06.152Z</time></trkpt><trkpt lat="44.7619467" lon="8.413145"><ele>236.00000000000003</ele><time>2026-05-01T16:16:11.152Z</time></trkpt><trkpt lat="44.7620183" lon="8.4130783"><ele>236.00000000000003</ele><time>2026-05-01T16:16:14.154Z</time></trkpt><trkpt lat="44.7620667" lon="8.4129117"><ele>236.0</ele><time>2026-05-01T16:16:16.157Z</time></trkpt><trkpt lat="44.7621117" lon="8.4127767"><ele>236.0</ele><time>2026-05-01T16:16:17.155Z</time></trkpt><trkpt lat="44.7621767" lon="8.4126317"><ele>234.0</ele><time>2026-05-01T16:16:18.152Z</time></trkpt><trkpt lat="44.7622467" lon="8.4124583"><ele>232.0</ele><time>2026-05-01T16:16:19.153Z</time></trkpt><trkpt lat="44.762345" lon="8.4122533"><ele>230.0</ele><time>2026-05-01T16:16:20.153Z</time></trkpt><trkpt lat="44.7624717" lon="8.4120217"><ele>230.0</ele><time>2026-05-01T16:16:21.153Z</time></trkpt><trkpt lat="44.7626117" lon="8.4117683"><ele>230.0</ele><time>2026-05-01T16:16:22.154Z</time></trkpt><trkpt lat="44.7627667" lon="8.4115033"><ele>225.5</ele><time>2026-05-01T16:16:23.154Z</time></trkpt><trkpt lat="44.76292" lon="8.4112433"><ele>221.0</ele><time>2026-05-01T16:16:24.15Z</time></trkpt><trkpt lat="44.7630633" lon="8.4109883"><ele>221.0</ele><time>2026-05-01T16:16:25.156Z</time></trkpt><trkpt lat="44.7632017" lon="8.4107467"><ele>221.0</ele><time>2026-05-01T16:16:26.15Z</time></trkpt><trkpt lat="44.7633333" lon="8.41051"><ele>221.0</ele><time>2026-05-01T16:16:27.153Z</time></trkpt><trkpt lat="44.763465" lon="8.4102833"><ele>219.0</ele><time>2026-05-01T16:16:28.154Z</time></trkpt><trkpt lat="44.7635917" lon="8.41006"><ele>217.0</ele><time>2026-05-01T16:16:29.151Z</time></trkpt><trkpt lat="44.763715" lon="8.4098367"><ele>215.0</ele><time>2026-05-01T16:16:30.155Z</time></trkpt><trkpt lat="44.763835" lon="8.4096233"><ele>215.0</ele><time>2026-05-01T16:16:31.151Z</time></trkpt><trkpt lat="44.7639533" lon="8.4094233"><ele>215.0</ele><time>2026-05-01T16:16:32.152Z</time></trkpt><trkpt lat="44.7640933" lon="8.409245"><ele>215.0</ele><time>2026-05-01T16:16:33.153Z</time></trkpt><trkpt lat="44.7642333" lon="8.4090967"><ele>213.33333333333334</ele><time>2026-05-01T16:16:34.154Z</time></trkpt><trkpt lat="44.7643767" lon="8.40897"><ele>211.66666666666669</ele><time>2026-05-01T16:16:35.155Z</time></trkpt><trkpt lat="44.764535" lon="8.4088667"><ele>210.0</ele><time>2026-05-01T16:16:36.153Z</time></trkpt><trkpt lat="44.7647033" lon="8.4087867"><ele>210.0</ele><time>2026-05-01T16:16:37.155Z</time></trkpt><trkpt lat="44.7648883" lon="8.4087233"><ele>210.0</ele><time>2026-05-01T16:16:38.151Z</time></trkpt><trkpt lat="44.7650783" lon="8.4086517"><ele>210.0</ele><time>2026-05-01T16:16:39.151Z</time></trkpt><trkpt lat="44.7652717" lon="8.4085967"><ele>210.0</ele><time>2026-05-01T16:16:40.157Z</time></trkpt><trkpt lat="44.76546" lon="8.408545"><ele>210.0</ele><time>2026-05-01T16:16:41.152Z</time></trkpt><trkpt lat="44.7656467" lon="8.4084833"><ele>210.0</ele><time>2026-05-01T16:16:42.152Z</time></trkpt><trkpt lat="44.7658" lon="8.4084317"><ele>210.0</ele><time>2026-05-01T16:16:43.158Z</time></trkpt><trkpt lat="44.7659333" lon="8.4083783"><ele>210.0</ele><time>2026-05-01T16:16:44.152Z</time></trkpt><trkpt lat="44.7660267" lon="8.4083317"><ele>210.0</ele><time>2026-05-01T16:16:45.152Z</time></trkpt><trkpt lat="44.7661067" lon="8.4082533"><ele>210.0</ele><time>2026-05-01T16:16:46.152Z</time></trkpt><trkpt lat="44.766195" lon="8.40814"><ele>210.5</ele><time>2026-05-01T16:16:47.154Z</time></trkpt><trkpt lat="44.76631" lon="8.40802"><ele>211.0</ele><time>2026-05-01T16:16:48.153Z</time></trkpt><trkpt lat="44.7664317" lon="8.40788"><ele>211.5</ele><time>2026-05-01T16:16:49.156Z</time></trkpt><trkpt lat="44.7665417" lon="8.4077583"><ele>212.0</ele><time>2026-05-01T16:16:50.152Z</time></trkpt><trkpt lat="44.7666467" lon="8.4076583"><ele>211.75</ele><time>2026-05-01T16:16:51.151Z</time></trkpt><trkpt lat="44.76676" lon="8.407575"><ele>211.5</ele><time>2026-05-01T16:16:52.158Z</time></trkpt><trkpt lat="44.766885" lon="8.407515"><ele>211.25</ele><time>2026-05-01T16:16:53.152Z</time></trkpt><trkpt lat="44.767025" lon="8.4074667"><ele>211.0</ele><time>2026-05-01T16:16:54.154Z</time></trkpt><trkpt lat="44.7671917" lon="8.4074217"><ele>211.0</ele><time>2026-05-01T16:16:55.153Z</time></trkpt><trkpt lat="44.7673633" lon="8.40737"><ele>211.0</ele><time>2026-05-01T16:16:56.155Z</time></trkpt><trkpt lat="44.76754" lon="8.407325"><ele>211.0</ele><time>2026-05-01T16:16:57.156Z</time></trkpt><trkpt lat="44.7677167" lon="8.4072967"><ele>210.0</ele><time>2026-05-01T16:16:58.155Z</time></trkpt><trkpt lat="44.7679033" lon="8.4072783"><ele>209.0</ele><time>2026-05-01T16:16:59.157Z</time></trkpt><trkpt lat="44.7680933" lon="8.4072567"><ele>208.0</ele><time>2026-05-01T16:17:00.155Z</time></trkpt><trkpt lat="44.7682867" lon="8.4072383"><ele>208.0</ele><time>2026-05-01T16:17:01.157Z</time></trkpt><trkpt lat="44.768485" lon="8.4072333"><ele>208.0</ele><time>2026-05-01T16:17:02.149Z</time></trkpt><trkpt lat="44.7686767" lon="8.4072267"><ele>208.0</ele><time>2026-05-01T16:17:03.154Z</time></trkpt><trkpt lat="44.7688517" lon="8.4072033"><ele>204.33333333333331</ele><time>2026-05-01T16:17:04.155Z</time></trkpt><trkpt lat="44.7690233" lon="8.4071567"><ele>200.66666666666669</ele><time>2026-05-01T16:17:05.154Z</time></trkpt><trkpt lat="44.76919" lon="8.4070633"><ele>197.0</ele><time>2026-05-01T16:17:06.155Z</time></trkpt><trkpt lat="44.7693433" lon="8.4069383"><ele>197.33333333333334</ele><time>2026-05-01T16:17:07.158Z</time></trkpt><trkpt lat="44.7694983" lon="8.4068017"><ele>197.66666666666669</ele><time>2026-05-01T16:17:08.153Z</time></trkpt><trkpt lat="44.769665" lon="8.40667"><ele>198.0</ele><time>2026-05-01T16:17:09.153Z</time></trkpt><trkpt lat="44.76984" lon="8.406555"><ele>198.0</ele><time>2026-05-01T16:17:10.156Z</time></trkpt><trkpt lat="44.7700167" lon="8.4064417"><ele>198.0</ele><time>2026-05-01T16:17:11.154Z</time></trkpt><trkpt lat="44.770195" lon="8.4063333"><ele>198.0</ele><time>2026-05-01T16:17:12.154Z</time></trkpt><trkpt lat="44.7703667" lon="8.4062217"><ele>197.33333333333331</ele><time>2026-05-01T16:17:13.151Z</time></trkpt><trkpt lat="44.7705383" lon="8.4061133"><ele>196.66666666666666</ele><time>2026-05-01T16:17:14.154Z</time></trkpt><trkpt lat="44.770705" lon="8.4060033"><ele>196.0</ele><time>2026-05-01T16:17:15.153Z</time></trkpt><trkpt lat="44.7708717" lon="8.40589"><ele>195.0</ele><time>2026-05-01T16:17:16.159Z</time></trkpt><trkpt lat="44.7710383" lon="8.4057767"><ele>194.0</ele><time>2026-05-01T16:17:17.166Z</time></trkpt><trkpt lat="44.7712033" lon="8.4056667"><ele>193.0</ele><time>2026-05-01T16:17:18.154Z</time></trkpt><trkpt lat="44.7713667" lon="8.4055533"><ele>190.33333333333331</ele><time>2026-05-01T16:17:19.152Z</time></trkpt><trkpt lat="44.7715267" lon="8.4054217"><ele>187.66666666666666</ele><time>2026-05-01T16:17:20.152Z</time></trkpt><trkpt lat="44.771685" lon="8.4052767"><ele>185.0</ele><time>2026-05-01T16:17:21.155Z</time></trkpt><trkpt lat="44.77184" lon="8.4051183"><ele>186.33333333333331</ele><time>2026-05-01T16:17:22.157Z</time></trkpt><trkpt lat="44.772" lon="8.4049533"><ele>187.66666666666666</ele><time>2026-05-01T16:17:23.155Z</time></trkpt><trkpt lat="44.7721467" lon="8.404795"><ele>189.0</ele><time>2026-05-01T16:17:24.152Z</time></trkpt><trkpt lat="44.7722733" lon="8.40467"><ele>187.0</ele><time>2026-05-01T16:17:25.153Z</time></trkpt><trkpt lat="44.772385" lon="8.4045883"><ele>185.0</ele><time>2026-05-01T16:17:26.152Z</time></trkpt><trkpt lat="44.7724933" lon="8.404555"><ele>183.0</ele><time>2026-05-01T16:17:27.15Z</time></trkpt><trkpt lat="44.7726183" lon="8.404565"><ele>181.0</ele><time>2026-05-01T16:17:28.152Z</time></trkpt><trkpt lat="44.7727617" lon="8.4046117"><ele>180.66666666666669</ele><time>2026-05-01T16:17:29.153Z</time></trkpt><trkpt lat="44.7729167" lon="8.4046533"><ele>180.33333333333334</ele><time>2026-05-01T16:17:30.151Z</time></trkpt><trkpt lat="44.7730817" lon="8.4046867"><ele>180.0</ele><time>2026-05-01T16:17:31.153Z</time></trkpt><trkpt lat="44.7732583" lon="8.4047517"><ele>180.0</ele><time>2026-05-01T16:17:32.154Z</time></trkpt><trkpt lat="44.7734367" lon="8.4048017"><ele>180.0</ele><time>2026-05-01T16:17:33.157Z</time></trkpt><trkpt lat="44.7736083" lon="8.4048667"><ele>180.0</ele><time>2026-05-01T16:17:34.155Z</time></trkpt><trkpt lat="44.7737867" lon="8.4049233"><ele>176.0</ele><time>2026-05-01T16:17:35.152Z</time></trkpt><trkpt lat="44.7739667" lon="8.4049817"><ele>172.0</ele><time>2026-05-01T16:17:36.155Z</time></trkpt><trkpt lat="44.7741417" lon="8.4050283"><ele>168.0</ele><time>2026-05-01T16:17:37.151Z</time></trkpt><trkpt lat="44.774295" lon="8.4050633"><ele>166.0</ele><time>2026-05-01T16:17:38.152Z</time></trkpt><trkpt lat="44.7744133" lon="8.4050617"><ele>164.0</ele><time>2026-05-01T16:17:39.15Z</time></trkpt><trkpt lat="44.774505" lon="8.405015"><ele>162.0</ele><time>2026-05-01T16:17:40.152Z</time></trkpt><trkpt lat="44.7745833" lon="8.40496"><ele>160.0</ele><time>2026-05-01T16:17:41.152Z</time></trkpt><trkpt lat="44.7746417" lon="8.4048733"><ele>158.0</ele><time>2026-05-01T16:17:42.151Z</time></trkpt><trkpt lat="44.77462" lon="8.4047033"><ele>157.25</ele><time>2026-05-01T16:17:43.155Z</time></trkpt><trkpt lat="44.77458" lon="8.40456"><ele>156.5</ele><time>2026-05-01T16:17:44.156Z</time></trkpt><trkpt lat="44.7745067" lon="8.40441"><ele>155.75</ele><time>2026-05-01T16:17:45.154Z</time></trkpt><trkpt lat="44.7744267" lon="8.4042667"><ele>155.0</ele><time>2026-05-01T16:17:46.155Z</time></trkpt><trkpt lat="44.7743617" lon="8.4041283"><ele>156.0</ele><time>2026-05-01T16:17:47.159Z</time></trkpt><trkpt lat="44.7743167" lon="8.4039933"><ele>157.0</ele><time>2026-05-01T16:17:48.153Z</time></trkpt><trkpt lat="44.774315" lon="8.4038667"><ele>158.0</ele><time>2026-05-01T16:17:49.152Z</time></trkpt><trkpt lat="44.77433" lon="8.4037467"><ele>159.0</ele><time>2026-05-01T16:17:50.152Z</time></trkpt><trkpt lat="44.77437" lon="8.4036433"><ele>160.0</ele><time>2026-05-01T16:17:51.154Z</time></trkpt><trkpt lat="44.7744767" lon="8.4036433"><ele>157.5</ele><time>2026-05-01T16:17:52.159Z</time></trkpt><trkpt lat="44.7745967" lon="8.4036617"><ele>155.0</ele><time>2026-05-01T16:17:53.153Z</time></trkpt><trkpt lat="44.77473" lon="8.4036817"><ele>152.5</ele><time>2026-05-01T16:17:54.156Z</time></trkpt><trkpt lat="44.7748683" lon="8.4037067"><ele>150.0</ele><time>2026-05-01T16:17:55.157Z</time></trkpt><trkpt lat="44.77501" lon="8.403735"><ele>150.0</ele><time>2026-05-01T16:17:56.155Z</time></trkpt><trkpt lat="44.775145" lon="8.4037917"><ele>150.0</ele><time>2026-05-01T16:17:57.154Z</time></trkpt><trkpt lat="44.77526" lon="8.4038933"><ele>150.0</ele><time>2026-05-01T16:17:58.161Z</time></trkpt><trkpt lat="44.7753533" lon="8.404035"><ele>150.0</ele><time>2026-05-01T16:17:59.153Z</time></trkpt><trkpt lat="44.775445" lon="8.4041867"><ele>148.75</ele><time>2026-05-01T16:18:00.157Z</time></trkpt><trkpt lat="44.7755417" lon="8.4043367"><ele>147.5</ele><time>2026-05-01T16:18:01.16Z</time></trkpt><trkpt lat="44.7756317" lon="8.4044667"><ele>146.25</ele><time>2026-05-01T16:18:02.162Z</time></trkpt><trkpt lat="44.7757167" lon="8.40455"><ele>145.0</ele><time>2026-05-01T16:18:03.153Z</time></trkpt><trkpt lat="44.7758033" lon="8.4045867"><ele>145.0</ele><time>2026-05-01T16:18:04.154Z</time></trkpt><trkpt lat="44.7758967" lon="8.4045717"><ele>145.0</ele><time>2026-05-01T16:18:05.155Z</time></trkpt><trkpt lat="44.7759683" lon="8.4044983"><ele>145.0</ele><time>2026-05-01T16:18:06.153Z</time></trkpt><trkpt lat="44.7760267" lon="8.4044033"><ele>145.0</ele><time>2026-05-01T16:18:07.153Z</time></trkpt><trkpt lat="44.7760433" lon="8.4041967"><ele>145.0</ele><time>2026-05-01T16:18:08.15Z</time></trkpt><trkpt lat="44.77608" lon="8.404005"><ele>144.25</ele><time>2026-05-01T16:18:09.159Z</time></trkpt><trkpt lat="44.7761167" lon="8.4038117"><ele>143.5</ele><time>2026-05-01T16:18:10.15Z</time></trkpt><trkpt lat="44.7761617" lon="8.4036117"><ele>142.75</ele><time>2026-05-01T16:18:11.155Z</time></trkpt><trkpt lat="44.77622" lon="8.4034283"><ele>142.0</ele><time>2026-05-01T16:18:12.153Z</time></trkpt><trkpt lat="44.7763" lon="8.40327"><ele>142.0</ele><time>2026-05-01T16:18:13.16Z</time></trkpt><trkpt lat="44.7763983" lon="8.4031367"><ele>142.0</ele><time>2026-05-01T16:18:14.154Z</time></trkpt><trkpt lat="44.7764983" lon="8.4030067"><ele>142.0</ele><time>2026-05-01T16:18:15.152Z</time></trkpt><trkpt lat="44.7765933" lon="8.4028583"><ele>142.0</ele><time>2026-05-01T16:18:16.151Z</time></trkpt><trkpt lat="44.7766667" lon="8.4026917"><ele>142.0</ele><time>2026-05-01T16:18:17.159Z</time></trkpt><trkpt lat="44.7767333" lon="8.402525"><ele>142.0</ele><time>2026-05-01T16:18:18.157Z</time></trkpt><trkpt lat="44.7767917" lon="8.4023533"><ele>142.0</ele><time>2026-05-01T16:18:19.157Z</time></trkpt><trkpt lat="44.7768433" lon="8.40219"><ele>142.0</ele><time>2026-05-01T16:18:20.158Z</time></trkpt><trkpt lat="44.7768783" lon="8.4020467"><ele>142.6</ele><time>2026-05-01T16:18:21.155Z</time></trkpt><trkpt lat="44.7769017" lon="8.401935"><ele>143.2</ele><time>2026-05-01T16:18:22.153Z</time></trkpt><trkpt lat="44.77693" lon="8.4018183"><ele>143.8</ele><time>2026-05-01T16:18:24.149Z</time></trkpt><trkpt lat="44.7770117" lon="8.40194"><ele>144.4</ele><time>2026-05-01T16:18:37.152Z</time></trkpt><trkpt lat="44.7770417" lon="8.4020683"><ele>145.0</ele><time>2026-05-01T16:18:38.156Z</time></trkpt><trkpt lat="44.7770783" lon="8.40221"><ele>145.0</ele><time>2026-05-01T16:18:39.152Z</time></trkpt><trkpt lat="44.7771167" lon="8.4023533"><ele>145.0</ele><time>2026-05-01T16:18:40.153Z</time></trkpt><trkpt lat="44.7771517" lon="8.402485"><ele>145.0</ele><time>2026-05-01T16:18:41.155Z</time></trkpt><trkpt lat="44.77719" lon="8.4026283"><ele>145.0</ele><time>2026-05-01T16:18:42.154Z</time></trkpt><trkpt lat="44.7772267" lon="8.4027683"><ele>145.0</ele><time>2026-05-01T16:18:43.155Z</time></trkpt><trkpt lat="44.7772617" lon="8.4029083"><ele>145.0</ele><time>2026-05-01T16:18:44.158Z</time></trkpt><trkpt lat="44.777295" lon="8.40304"><ele>145.0</ele><time>2026-05-01T16:18:45.154Z</time></trkpt><trkpt lat="44.7773283" lon="8.40317"><ele>145.0</ele><time>2026-05-01T16:18:46.151Z</time></trkpt><trkpt lat="44.777365" lon="8.4033033"><ele>145.0</ele><time>2026-05-01T16:18:47.154Z</time></trkpt><trkpt lat="44.7774" lon="8.4034383"><ele>145.0</ele><time>2026-05-01T16:18:48.153Z</time></trkpt><trkpt lat="44.7774367" lon="8.4035867"><ele>145.0</ele><time>2026-05-01T16:18:49.156Z</time></trkpt><trkpt lat="44.777475" lon="8.403735"><ele>145.0</ele><time>2026-05-01T16:18:50.154Z</time></trkpt><trkpt lat="44.7775167" lon="8.4038967"><ele>145.0</ele><time>2026-05-01T16:18:51.155Z</time></trkpt><trkpt lat="44.7775633" lon="8.40405"><ele>145.0</ele><time>2026-05-01T16:18:52.148Z</time></trkpt><trkpt lat="44.7776033" lon="8.4042067"><ele>144.5</ele><time>2026-05-01T16:18:53.155Z</time></trkpt><trkpt lat="44.777645" lon="8.404365"><ele>144.0</ele><time>2026-05-01T16:18:54.153Z</time></trkpt><trkpt lat="44.7776867" lon="8.4045233"><ele>143.5</ele><time>2026-05-01T16:18:55.151Z</time></trkpt><trkpt lat="44.7777283" lon="8.4046817"><ele>143.0</ele><time>2026-05-01T16:18:56.153Z</time></trkpt><trkpt lat="44.77777" lon="8.40484"><ele>146.25</ele><time>2026-05-01T16:18:57.153Z</time></trkpt><trkpt lat="44.7778167" lon="8.4050033"><ele>149.5</ele><time>2026-05-01T16:18:58.155Z</time></trkpt><trkpt lat="44.7778617" lon="8.405165"><ele>152.75</ele><time>2026-05-01T16:18:59.152Z</time></trkpt><trkpt lat="44.7779117" lon="8.40532"><ele>156.0</ele><time>2026-05-01T16:19:00.154Z</time></trkpt><trkpt lat="44.7779567" lon="8.405485"><ele>154.25</ele><time>2026-05-01T16:19:01.155Z</time></trkpt><trkpt lat="44.7780017" lon="8.4056483"><ele>152.5</ele><time>2026-05-01T16:19:02.153Z</time></trkpt><trkpt lat="44.7780433" lon="8.40582"><ele>150.75</ele><time>2026-05-01T16:19:03.156Z</time></trkpt><trkpt lat="44.7780867" lon="8.4059883"><ele>149.0</ele><time>2026-05-01T16:19:04.154Z</time></trkpt><trkpt lat="44.778135" lon="8.4061633"><ele>147.0</ele><time>2026-05-01T16:19:05.154Z</time></trkpt><trkpt lat="44.778185" lon="8.4063317"><ele>145.0</ele><time>2026-05-01T16:19:06.152Z</time></trkpt><trkpt lat="44.77824" lon="8.4064917"><ele>143.0</ele><time>2026-05-01T16:19:07.154Z</time></trkpt><trkpt lat="44.7782983" lon="8.4066467"><ele>141.0</ele><time>2026-05-01T16:19:08.154Z</time></trkpt><trkpt lat="44.7783717" lon="8.4067867"><ele>141.0</ele><time>2026-05-01T16:19:09.156Z</time></trkpt><trkpt lat="44.7784617" lon="8.4069367"><ele>141.0</ele><time>2026-05-01T16:19:10.152Z</time></trkpt><trkpt lat="44.7785517" lon="8.4070883"><ele>141.0</ele><time>2026-05-01T16:19:11.155Z</time></trkpt><trkpt lat="44.7786433" lon="8.4072583"><ele>141.0</ele><time>2026-05-01T16:19:12.154Z</time></trkpt><trkpt lat="44.7787417" lon="8.4074267"><ele>142.33333333333334</ele><time>2026-05-01T16:19:13.15Z</time></trkpt><trkpt lat="44.778855" lon="8.4075833"><ele>143.66666666666669</ele><time>2026-05-01T16:19:14.153Z</time></trkpt><trkpt lat="44.7789717" lon="8.4077383"><ele>145.0</ele><time>2026-05-01T16:19:15.151Z</time></trkpt><trkpt lat="44.7790867" lon="8.40789"><ele>143.33333333333334</ele><time>2026-05-01T16:19:16.154Z</time></trkpt><trkpt lat="44.7791967" lon="8.40804"><ele>141.66666666666666</ele><time>2026-05-01T16:19:17.151Z</time></trkpt><trkpt lat="44.779305" lon="8.40819"><ele>140.0</ele><time>2026-05-01T16:19:18.153Z</time></trkpt><trkpt lat="44.77941" lon="8.4083317"><ele>140.0</ele><time>2026-05-01T16:19:19.159Z</time></trkpt><trkpt lat="44.7795133" lon="8.408475"><ele>140.0</ele><time>2026-05-01T16:19:20.152Z</time></trkpt><trkpt lat="44.7796183" lon="8.408615"><ele>140.0</ele><time>2026-05-01T16:19:21.156Z</time></trkpt><trkpt lat="44.7797233" lon="8.4087567"><ele>140.0</ele><time>2026-05-01T16:19:22.151Z</time></trkpt><trkpt lat="44.7798267" lon="8.4088933"><ele>139.75</ele><time>2026-05-01T16:19:23.154Z</time></trkpt><trkpt lat="44.77993" lon="8.4090283"><ele>139.5</ele><time>2026-05-01T16:19:24.157Z</time></trkpt><trkpt lat="44.7800333" lon="8.4091667"><ele>139.25</ele><time>2026-05-01T16:19:25.152Z</time></trkpt><trkpt lat="44.7801367" lon="8.409305"><ele>139.0</ele><time>2026-05-01T16:19:26.151Z</time></trkpt><trkpt lat="44.780235" lon="8.4094333"><ele>139.5</ele><time>2026-05-01T16:19:27.151Z</time></trkpt><trkpt lat="44.78033" lon="8.4095667"><ele>140.0</ele><time>2026-05-01T16:19:28.152Z</time></trkpt><trkpt lat="44.7804233" lon="8.4096983"><ele>140.5</ele><time>2026-05-01T16:19:29.15Z</time></trkpt><trkpt lat="44.7805167" lon="8.4098333"><ele>141.0</ele><time>2026-05-01T16:19:30.149Z</time></trkpt><trkpt lat="44.7806133" lon="8.4099617"><ele>141.0</ele><time>2026-05-01T16:19:31.153Z</time></trkpt><trkpt lat="44.7807067" lon="8.4100917"><ele>141.0</ele><time>2026-05-01T16:19:32.151Z</time></trkpt><trkpt lat="44.780795" lon="8.4102217"><ele>141.0</ele><time>2026-05-01T16:19:33.159Z</time></trkpt><trkpt lat="44.7808817" lon="8.4103517"><ele>141.0</ele><time>2026-05-01T16:19:34.155Z</time></trkpt><trkpt lat="44.7809683" lon="8.4104767"><ele>141.25</ele><time>2026-05-01T16:19:35.154Z</time></trkpt><trkpt lat="44.781055" lon="8.4106067"><ele>141.5</ele><time>2026-05-01T16:19:36.153Z</time></trkpt><trkpt lat="44.78114" lon="8.410725"><ele>141.75</ele><time>2026-05-01T16:19:37.161Z</time></trkpt><trkpt lat="44.7812233" lon="8.4108483"><ele>142.0</ele><time>2026-05-01T16:19:38.15Z</time></trkpt><trkpt lat="44.78131" lon="8.4109733"><ele>142.0</ele><time>2026-05-01T16:19:39.15Z</time></trkpt><trkpt lat="44.7814" lon="8.4111017"><ele>142.0</ele><time>2026-05-01T16:19:40.149Z</time></trkpt><trkpt lat="44.7814883" lon="8.4112317"><ele>142.0</ele><time>2026-05-01T16:19:41.154Z</time></trkpt><trkpt lat="44.7815767" lon="8.41136"><ele>142.0</ele><time>2026-05-01T16:19:42.153Z</time></trkpt><trkpt lat="44.7816667" lon="8.4114833"><ele>141.5</ele><time>2026-05-01T16:19:43.153Z</time></trkpt><trkpt lat="44.78176" lon="8.4116067"><ele>141.0</ele><time>2026-05-01T16:19:44.155Z</time></trkpt><trkpt lat="44.7818533" lon="8.41173"><ele>140.5</ele><time>2026-05-01T16:19:45.152Z</time></trkpt><trkpt lat="44.7819417" lon="8.411855"><ele>140.0</ele><time>2026-05-01T16:19:46.151Z</time></trkpt><trkpt lat="44.78204" lon="8.4119583"><ele>140.0</ele><time>2026-05-01T16:19:47.152Z</time></trkpt><trkpt lat="44.7821383" lon="8.4120533"><ele>140.0</ele><time>2026-05-01T16:19:48.153Z</time></trkpt><trkpt lat="44.782265" lon="8.412205"><ele>140.0</ele><time>2026-05-01T16:19:49.154Z</time></trkpt><trkpt lat="44.7823733" lon="8.412335"><ele>140.0</ele><time>2026-05-01T16:19:50.154Z</time></trkpt><trkpt lat="44.782485" lon="8.4124783"><ele>140.0</ele><time>2026-05-01T16:19:51.152Z</time></trkpt><trkpt lat="44.782675" lon="8.4127817"><ele>140.0</ele><time>2026-05-01T16:19:52.154Z</time></trkpt><trkpt lat="44.7828567" lon="8.413065"><ele>140.0</ele><time>2026-05-01T16:19:53.152Z</time></trkpt><trkpt lat="44.7830133" lon="8.4132967"><ele>140.0</ele><time>2026-05-01T16:19:54.153Z</time></trkpt><trkpt lat="44.783155" lon="8.413495"><ele>140.0</ele><time>2026-05-01T16:19:55.151Z</time></trkpt><trkpt lat="44.7832833" lon="8.4136767"><ele>140.0</ele><time>2026-05-01T16:19:56.152Z</time></trkpt><trkpt lat="44.7834033" lon="8.4138383"><ele>140.0</ele><time>2026-05-01T16:19:57.156Z</time></trkpt><trkpt lat="44.7835233" lon="8.413995"><ele>140.0</ele><time>2026-05-01T16:19:58.155Z</time></trkpt><trkpt lat="44.7836383" lon="8.4141533"><ele>140.0</ele><time>2026-05-01T16:19:59.155Z</time></trkpt><trkpt lat="44.7837567" lon="8.4143033"><ele>140.0</ele><time>2026-05-01T16:20:00.154Z</time></trkpt><trkpt lat="44.7838817" lon="8.4144633"><ele>140.0</ele><time>2026-05-01T16:20:01.153Z</time></trkpt><trkpt lat="44.7840083" lon="8.4146233"><ele>140.0</ele><time>2026-05-01T16:20:02.16Z</time></trkpt><trkpt lat="44.7841383" lon="8.414785"><ele>140.0</ele><time>2026-05-01T16:20:03.152Z</time></trkpt><trkpt lat="44.7842733" lon="8.414945"><ele>140.0</ele><time>2026-05-01T16:20:04.157Z</time></trkpt><trkpt lat="44.7844133" lon="8.4151067"><ele>140.0</ele><time>2026-05-01T16:20:05.153Z</time></trkpt><trkpt lat="44.78456" lon="8.41528"><ele>140.0</ele><time>2026-05-01T16:20:06.154Z</time></trkpt><trkpt lat="44.784705" lon="8.4154683"><ele>140.0</ele><time>2026-05-01T16:20:07.154Z</time></trkpt><trkpt lat="44.7848633" lon="8.4156583"><ele>140.0</ele><time>2026-05-01T16:20:08.152Z</time></trkpt><trkpt lat="44.7850283" lon="8.4158517"><ele>140.0</ele><time>2026-05-01T16:20:09.153Z</time></trkpt><trkpt lat="44.7851967" lon="8.4160567"><ele>140.0</ele><time>2026-05-01T16:20:10.151Z</time></trkpt><trkpt lat="44.78536" lon="8.4162767"><ele>138.33333333333331</ele><time>2026-05-01T16:20:11.153Z</time></trkpt><trkpt lat="44.7855133" lon="8.4165017"><ele>136.66666666666666</ele><time>2026-05-01T16:20:12.153Z</time></trkpt><trkpt lat="44.7856667" lon="8.4167317"><ele>135.0</ele><time>2026-05-01T16:20:13.152Z</time></trkpt><trkpt lat="44.7858183" lon="8.4169633"><ele>133.5</ele><time>2026-05-01T16:20:14.16Z</time></trkpt><trkpt lat="44.7859717" lon="8.4172017"><ele>132.0</ele><time>2026-05-01T16:20:15.153Z</time></trkpt><trkpt lat="44.7861267" lon="8.4174367"><ele>136.0</ele><time>2026-05-01T16:20:16.153Z</time></trkpt><trkpt lat="44.786285" lon="8.417675"><ele>140.0</ele><time>2026-05-01T16:20:17.155Z</time></trkpt><trkpt lat="44.7864433" lon="8.41791"><ele>137.0</ele><time>2026-05-01T16:20:18.158Z</time></trkpt><trkpt lat="44.7866033" lon="8.4181467"><ele>134.0</ele><time>2026-05-01T16:20:19.157Z</time></trkpt><trkpt lat="44.7867667" lon="8.418385"><ele>134.0</ele><time>2026-05-01T16:20:20.153Z</time></trkpt><trkpt lat="44.7869267" lon="8.4186267"><ele>134.0</ele><time>2026-05-01T16:20:21.15Z</time></trkpt><trkpt lat="44.7870867" lon="8.4188767"><ele>134.0</ele><time>2026-05-01T16:20:22.153Z</time></trkpt><trkpt lat="44.78725" lon="8.4191267"><ele>134.0</ele><time>2026-05-01T16:20:23.153Z</time></trkpt><trkpt lat="44.7874117" lon="8.419375"><ele>134.0</ele><time>2026-05-01T16:20:24.155Z</time></trkpt><trkpt lat="44.7875717" lon="8.4196217"><ele>134.0</ele><time>2026-05-01T16:20:25.152Z</time></trkpt><trkpt lat="44.7877367" lon="8.4198567"><ele>133.5</ele><time>2026-05-01T16:20:26.16Z</time></trkpt><trkpt lat="44.7879067" lon="8.4200783"><ele>133.0</ele><time>2026-05-01T16:20:27.154Z</time></trkpt><trkpt lat="44.7880867" lon="8.42029"><ele>132.0</ele><time>2026-05-01T16:20:28.154Z</time></trkpt><trkpt lat="44.78828" lon="8.420485"><ele>131.0</ele><time>2026-05-01T16:20:29.162Z</time></trkpt><trkpt lat="44.78848" lon="8.4206833"><ele>134.0</ele><time>2026-05-01T16:20:30.151Z</time></trkpt><trkpt lat="44.78869" lon="8.42088"><ele>137.0</ele><time>2026-05-01T16:20:31.156Z</time></trkpt><trkpt lat="44.7889017" lon="8.4210867"><ele>137.0</ele><time>2026-05-01T16:20:32.152Z</time></trkpt><trkpt lat="44.7891117" lon="8.4212933"><ele>137.0</ele><time>2026-05-01T16:20:33.153Z</time></trkpt><trkpt lat="44.789315" lon="8.4214967"><ele>136.0</ele><time>2026-05-01T16:20:34.155Z</time></trkpt><trkpt lat="44.789515" lon="8.4216867"><ele>135.0</ele><time>2026-05-01T16:20:35.154Z</time></trkpt><trkpt lat="44.7897183" lon="8.4218783"><ele>135.0</ele><time>2026-05-01T16:20:36.154Z</time></trkpt><trkpt lat="44.7899267" lon="8.422075"><ele>135.0</ele><time>2026-05-01T16:20:37.152Z</time></trkpt><trkpt lat="44.79014" lon="8.4222817"><ele>133.0</ele><time>2026-05-01T16:20:38.15Z</time></trkpt><trkpt lat="44.79036" lon="8.422495"><ele>131.0</ele><time>2026-05-01T16:20:39.15Z</time></trkpt><trkpt lat="44.7905867" lon="8.422715"><ele>131.0</ele><time>2026-05-01T16:20:40.153Z</time></trkpt><trkpt lat="44.7908133" lon="8.4229333"><ele>131.0</ele><time>2026-05-01T16:20:41.154Z</time></trkpt><trkpt lat="44.7910317" lon="8.4231433"><ele>130.5</ele><time>2026-05-01T16:20:42.151Z</time></trkpt><trkpt lat="44.7912433" lon="8.4233333"><ele>130.0</ele><time>2026-05-01T16:20:43.154Z</time></trkpt><trkpt lat="44.79145" lon="8.4235133"><ele>130.0</ele><time>2026-05-01T16:20:44.156Z</time></trkpt><trkpt lat="44.7916583" lon="8.42369"><ele>130.0</ele><time>2026-05-01T16:20:45.15Z</time></trkpt><trkpt lat="44.7918683" lon="8.4238633"><ele>128.0</ele><time>2026-05-01T16:20:46.151Z</time></trkpt><trkpt lat="44.7920733" lon="8.42403"><ele>126.0</ele><time>2026-05-01T16:20:47.152Z</time></trkpt><trkpt lat="44.79227" lon="8.4241917"><ele>126.0</ele><time>2026-05-01T16:20:48.151Z</time></trkpt><trkpt lat="44.79246" lon="8.4243433"><ele>126.0</ele><time>2026-05-01T16:20:49.15Z</time></trkpt><trkpt lat="44.7926433" lon="8.4244867"><ele>126.0</ele><time>2026-05-01T16:20:50.153Z</time></trkpt><trkpt lat="44.7928233" lon="8.4246283"><ele>125.33333333333334</ele><time>2026-05-01T16:20:51.154Z</time></trkpt><trkpt lat="44.7930083" lon="8.4247683"><ele>124.66666666666667</ele><time>2026-05-01T16:20:52.154Z</time></trkpt><trkpt lat="44.793205" lon="8.4249133"><ele>124.0</ele><time>2026-05-01T16:20:53.155Z</time></trkpt><trkpt lat="44.7934067" lon="8.4250517"><ele>126.66666666666667</ele><time>2026-05-01T16:20:54.154Z</time></trkpt><trkpt lat="44.7936117" lon="8.4251783"><ele>129.33333333333334</ele><time>2026-05-01T16:20:55.151Z</time></trkpt><trkpt lat="44.7938183" lon="8.4252833"><ele>132.0</ele><time>2026-05-01T16:20:56.153Z</time></trkpt><trkpt lat="44.79402" lon="8.4253733"><ele>132.0</ele><time>2026-05-01T16:20:57.152Z</time></trkpt><trkpt lat="44.794215" lon="8.425445"><ele>132.0</ele><time>2026-05-01T16:20:58.149Z</time></trkpt><trkpt lat="44.7944117" lon="8.4255"><ele>132.0</ele><time>2026-05-01T16:20:59.158Z</time></trkpt><trkpt lat="44.7945983" lon="8.4255367"><ele>129.0</ele><time>2026-05-01T16:21:00.153Z</time></trkpt><trkpt lat="44.7947867" lon="8.425555"><ele>126.0</ele><time>2026-05-01T16:21:01.153Z</time></trkpt><trkpt lat="44.7949583" lon="8.4255633"><ele>123.0</ele><time>2026-05-01T16:21:02.161Z</time></trkpt><trkpt lat="44.79512" lon="8.4255617"><ele>122.25</ele><time>2026-05-01T16:21:03.154Z</time></trkpt><trkpt lat="44.7952683" lon="8.425565"><ele>121.5</ele><time>2026-05-01T16:21:04.154Z</time></trkpt><trkpt lat="44.795405" lon="8.4255783"><ele>120.75</ele><time>2026-05-01T16:21:05.158Z</time></trkpt><trkpt lat="44.79554" lon="8.4255867"><ele>120.0</ele><time>2026-05-01T16:21:06.152Z</time></trkpt><trkpt lat="44.79568" lon="8.4256"><ele>120.0</ele><time>2026-05-01T16:21:07.149Z</time></trkpt><trkpt lat="44.7958217" lon="8.4256167"><ele>120.0</ele><time>2026-05-01T16:21:08.152Z</time></trkpt><trkpt lat="44.795965" lon="8.4256533"><ele>120.0</ele><time>2026-05-01T16:21:09.155Z</time></trkpt><trkpt lat="44.7961133" lon="8.4257017"><ele>120.0</ele><time>2026-05-01T16:21:10.153Z</time></trkpt><trkpt lat="44.7962667" lon="8.4257683"><ele>119.33333333333334</ele><time>2026-05-01T16:21:11.153Z</time></trkpt><trkpt lat="44.7964267" lon="8.4258483"><ele>118.66666666666667</ele><time>2026-05-01T16:21:12.151Z</time></trkpt><trkpt lat="44.7965883" lon="8.4259533"><ele>118.0</ele><time>2026-05-01T16:21:13.156Z</time></trkpt><trkpt lat="44.79674" lon="8.4260833"><ele>118.0</ele><time>2026-05-01T16:21:14.15Z</time></trkpt><trkpt lat="44.79687" lon="8.4262317"><ele>118.0</ele><time>2026-05-01T16:21:15.156Z</time></trkpt><trkpt lat="44.796985" lon="8.426375"><ele>118.0</ele><time>2026-05-01T16:21:16.154Z</time></trkpt><trkpt lat="44.7970783" lon="8.4265117"><ele>118.0</ele><time>2026-05-01T16:21:17.154Z</time></trkpt><trkpt lat="44.797155" lon="8.42664"><ele>118.0</ele><time>2026-05-01T16:21:18.154Z</time></trkpt><trkpt lat="44.79722" lon="8.4267617"><ele>118.0</ele><time>2026-05-01T16:21:19.156Z</time></trkpt><trkpt lat="44.7972833" lon="8.4269"><ele>118.0</ele><time>2026-05-01T16:21:20.152Z</time></trkpt><trkpt lat="44.797345" lon="8.427045"><ele>119.0</ele><time>2026-05-01T16:21:21.15Z</time></trkpt><trkpt lat="44.7974083" lon="8.4272183"><ele>120.0</ele><time>2026-05-01T16:21:22.151Z</time></trkpt><trkpt lat="44.7974567" lon="8.4274083"><ele>121.0</ele><time>2026-05-01T16:21:23.15Z</time></trkpt><trkpt lat="44.7974983" lon="8.4276183"><ele>122.0</ele><time>2026-05-01T16:21:24.151Z</time></trkpt><trkpt lat="44.7975333" lon="8.4278467"><ele>123.0</ele><time>2026-05-01T16:21:25.152Z</time></trkpt><trkpt lat="44.797555" lon="8.428085"><ele>124.0</ele><time>2026-05-01T16:21:26.154Z</time></trkpt><trkpt lat="44.797565" lon="8.4283283"><ele>125.0</ele><time>2026-05-01T16:21:27.153Z</time></trkpt><trkpt lat="44.7975667" lon="8.42859"><ele>124.66666666666666</ele><time>2026-05-01T16:21:28.153Z</time></trkpt><trkpt lat="44.7975667" lon="8.4288583"><ele>124.33333333333334</ele><time>2026-05-01T16:21:29.153Z</time></trkpt><trkpt lat="44.7975783" lon="8.4291217"><ele>124.0</ele><time>2026-05-01T16:21:30.157Z</time></trkpt><trkpt lat="44.7975867" lon="8.429385"><ele>124.0</ele><time>2026-05-01T16:21:31.163Z</time></trkpt><trkpt lat="44.7975917" lon="8.4296483"><ele>124.0</ele><time>2026-05-01T16:21:32.156Z</time></trkpt><trkpt lat="44.79759" lon="8.4298983"><ele>124.0</ele><time>2026-05-01T16:21:33.156Z</time></trkpt><trkpt lat="44.79759" lon="8.4301467"><ele>124.0</ele><time>2026-05-01T16:21:34.155Z</time></trkpt><trkpt lat="44.7975933" lon="8.4303867"><ele>124.0</ele><time>2026-05-01T16:21:35.149Z</time></trkpt><trkpt lat="44.797585" lon="8.4306217"><ele>124.0</ele><time>2026-05-01T16:21:36.154Z</time></trkpt><trkpt lat="44.7975867" lon="8.4308367"><ele>123.5</ele><time>2026-05-01T16:21:37.155Z</time></trkpt><trkpt lat="44.7975883" lon="8.431045"><ele>123.0</ele><time>2026-05-01T16:21:38.15Z</time></trkpt><trkpt lat="44.7975833" lon="8.4312317"><ele>122.5</ele><time>2026-05-01T16:21:39.153Z</time></trkpt><trkpt lat="44.79758" lon="8.4314033"><ele>122.0</ele><time>2026-05-01T16:21:40.157Z</time></trkpt><trkpt lat="44.797575" lon="8.43156"><ele>121.99999999999999</ele><time>2026-05-01T16:21:41.152Z</time></trkpt><trkpt lat="44.7975633" lon="8.431695"><ele>122.0</ele><time>2026-05-01T16:21:42.15Z</time></trkpt><trkpt lat="44.797545" lon="8.4318117"><ele>122.0</ele><time>2026-05-01T16:21:43.155Z</time></trkpt><trkpt lat="44.797525" lon="8.4319167"><ele>122.0</ele><time>2026-05-01T16:21:44.153Z</time></trkpt><trkpt lat="44.7974883" lon="8.43205"><ele>121.99999999999999</ele><time>2026-05-01T16:21:46.152Z</time></trkpt><trkpt lat="44.7975533" lon="8.432035"><ele>122.0</ele><time>2026-05-01T16:21:50.156Z</time></trkpt><trkpt lat="44.7975917" lon="8.4319617"><ele>122.0</ele><time>2026-05-01T16:21:51.153Z</time></trkpt><trkpt lat="44.7976217" lon="8.4318817"><ele>121.99999999999999</ele><time>2026-05-01T16:21:52.153Z</time></trkpt><trkpt lat="44.7976433" lon="8.4317683"><ele>121.99999999999999</ele><time>2026-05-01T16:21:53.153Z</time></trkpt><trkpt lat="44.7976467" lon="8.4316267"><ele>122.0</ele><time>2026-05-01T16:21:54.153Z</time></trkpt><trkpt lat="44.7976333" lon="8.431435"><ele>122.0</ele><time>2026-05-01T16:21:55.156Z</time></trkpt><trkpt lat="44.7976183" lon="8.43121"><ele>121.33333333333333</ele><time>2026-05-01T16:21:56.155Z</time></trkpt><trkpt lat="44.7976133" lon="8.430965"><ele>120.66666666666666</ele><time>2026-05-01T16:21:57.157Z</time></trkpt><trkpt lat="44.797605" lon="8.4306933"><ele>120.0</ele><time>2026-05-01T16:21:58.155Z</time></trkpt><trkpt lat="44.7975983" lon="8.4304083"><ele>121.33333333333334</ele><time>2026-05-01T16:21:59.153Z</time></trkpt><trkpt lat="44.7975933" lon="8.4301117"><ele>122.66666666666667</ele><time>2026-05-01T16:22:00.154Z</time></trkpt><trkpt lat="44.7975883" lon="8.429815"><ele>124.0</ele><time>2026-05-01T16:22:01.159Z</time></trkpt><trkpt lat="44.7975767" lon="8.4295217"><ele>124.0</ele><time>2026-05-01T16:22:02.155Z</time></trkpt><trkpt lat="44.7975867" lon="8.4292217"><ele>124.0</ele><time>2026-05-01T16:22:03.156Z</time></trkpt><trkpt lat="44.7975833" lon="8.42893"><ele>124.0</ele><time>2026-05-01T16:22:04.152Z</time></trkpt><trkpt lat="44.7975783" lon="8.428645"><ele>124.33333333333334</ele><time>2026-05-01T16:22:05.155Z</time></trkpt><trkpt lat="44.7975717" lon="8.4283583"><ele>124.66666666666666</ele><time>2026-05-01T16:22:06.153Z</time></trkpt><trkpt lat="44.7975633" lon="8.4280817"><ele>125.0</ele><time>2026-05-01T16:22:07.155Z</time></trkpt><trkpt lat="44.797535" lon="8.4278217"><ele>124.0</ele><time>2026-05-01T16:22:08.154Z</time></trkpt><trkpt lat="44.7975067" lon="8.42758"><ele>123.0</ele><time>2026-05-01T16:22:09.152Z</time></trkpt><trkpt lat="44.797465" lon="8.4273733"><ele>122.0</ele><time>2026-05-01T16:22:10.153Z</time></trkpt><trkpt lat="44.7974267" lon="8.4271933"><ele>121.33333333333333</ele><time>2026-05-01T16:22:11.157Z</time></trkpt><trkpt lat="44.7973933" lon="8.4270433"><ele>120.66666666666666</ele><time>2026-05-01T16:22:12.153Z</time></trkpt><trkpt lat="44.7973717" lon="8.4269167"><ele>120.0</ele><time>2026-05-01T16:22:13.155Z</time></trkpt><trkpt lat="44.7973617" lon="8.4267983"><ele>119.33333333333334</ele><time>2026-05-01T16:22:14.16Z</time></trkpt><trkpt lat="44.79736" lon="8.4266867"><ele>118.66666666666667</ele><time>2026-05-01T16:22:15.155Z</time></trkpt><trkpt lat="44.7973733" lon="8.4265767"><ele>118.0</ele><time>2026-05-01T16:22:16.152Z</time></trkpt><trkpt lat="44.7974083" lon="8.426465"><ele>118.0</ele><time>2026-05-01T16:22:17.154Z</time></trkpt><trkpt lat="44.7974633" lon="8.4263617"><ele>118.00000000000001</ele><time>2026-05-01T16:22:18.151Z</time></trkpt><trkpt lat="44.797525" lon="8.426265"><ele>118.00000000000001</ele><time>2026-05-01T16:22:19.151Z</time></trkpt><trkpt lat="44.7976167" lon="8.426175"><ele>118.0</ele><time>2026-05-01T16:22:20.154Z</time></trkpt><trkpt lat="44.7977167" lon="8.426085"><ele>118.0</ele><time>2026-05-01T16:22:21.151Z</time></trkpt><trkpt lat="44.7978117" lon="8.4259917"><ele>118.75</ele><time>2026-05-01T16:22:22.151Z</time></trkpt><trkpt lat="44.7978983" lon="8.4258867"><ele>119.5</ele><time>2026-05-01T16:22:23.154Z</time></trkpt><trkpt lat="44.7979717" lon="8.4257533"><ele>120.25</ele><time>2026-05-01T16:22:24.151Z</time></trkpt><trkpt lat="44.7980233" lon="8.4255917"><ele>121.0</ele><time>2026-05-01T16:22:25.154Z</time></trkpt><trkpt lat="44.798055" lon="8.42542"><ele>121.00000000000001</ele><time>2026-05-01T16:22:26.152Z</time></trkpt><trkpt lat="44.7980783" lon="8.4252583"><ele>121.0</ele><time>2026-05-01T16:22:27.156Z</time></trkpt><trkpt lat="44.7981033" lon="8.4251283"><ele>121.0</ele><time>2026-05-01T16:22:28.152Z</time></trkpt><trkpt lat="44.79814" lon="8.4250217"><ele>121.0</ele><time>2026-05-01T16:22:29.153Z</time></trkpt><trkpt lat="44.7981783" lon="8.4249267"><ele>121.00000000000001</ele><time>2026-05-01T16:22:30.151Z</time></trkpt><trkpt lat="44.7982233" lon="8.4248417"><ele>121.0</ele><time>2026-05-01T16:22:31.163Z</time></trkpt><trkpt lat="44.7982733" lon="8.424745"><ele>120.5</ele><time>2026-05-01T16:22:32.149Z</time></trkpt><trkpt lat="44.7983217" lon="8.4245967"><ele>120.0</ele><time>2026-05-01T16:22:33.156Z</time></trkpt><trkpt lat="44.7983717" lon="8.4244083"><ele>119.5</ele><time>2026-05-01T16:22:34.153Z</time></trkpt><trkpt lat="44.79843" lon="8.42421"><ele>119.0</ele><time>2026-05-01T16:22:35.157Z</time></trkpt><trkpt lat="44.7984833" lon="8.4240017"><ele>118.66666666666666</ele><time>2026-05-01T16:22:36.153Z</time></trkpt><trkpt lat="44.79854" lon="8.4237867"><ele>118.33333333333334</ele><time>2026-05-01T16:22:37.153Z</time></trkpt><trkpt lat="44.798595" lon="8.4235817"><ele>118.0</ele><time>2026-05-01T16:22:38.157Z</time></trkpt><trkpt lat="44.79864" lon="8.4233833"><ele>118.0</ele><time>2026-05-01T16:22:39.149Z</time></trkpt><trkpt lat="44.79868" lon="8.4231917"><ele>118.0</ele><time>2026-05-01T16:22:40.155Z</time></trkpt><trkpt lat="44.7987083" lon="8.42301"><ele>118.0</ele><time>2026-05-01T16:22:41.159Z</time></trkpt><trkpt lat="44.79873" lon="8.4228317"><ele>118.0</ele><time>2026-05-01T16:22:42.152Z</time></trkpt><trkpt lat="44.7987467" lon="8.42266"><ele>118.25</ele><time>2026-05-01T16:22:43.152Z</time></trkpt><trkpt lat="44.79875" lon="8.422495"><ele>118.5</ele><time>2026-05-01T16:22:44.151Z</time></trkpt><trkpt lat="44.798755" lon="8.4223317"><ele>118.75</ele><time>2026-05-01T16:22:45.155Z</time></trkpt><trkpt lat="44.798755" lon="8.42217"><ele>119.0</ele><time>2026-05-01T16:22:46.15Z</time></trkpt><trkpt lat="44.7987417" lon="8.4219983"><ele>119.0</ele><time>2026-05-01T16:22:47.152Z</time></trkpt><trkpt lat="44.7987283" lon="8.4218283"><ele>119.0</ele><time>2026-05-01T16:22:48.152Z</time></trkpt><trkpt lat="44.7987033" lon="8.4216533"><ele>119.0</ele><time>2026-05-01T16:22:49.153Z</time></trkpt><trkpt lat="44.79867" lon="8.4214783"><ele>119.0</ele><time>2026-05-01T16:22:50.151Z</time></trkpt><trkpt lat="44.7986233" lon="8.4213033"><ele>119.0</ele><time>2026-05-01T16:22:51.151Z</time></trkpt><trkpt lat="44.798575" lon="8.421135"><ele>119.0</ele><time>2026-05-01T16:22:52.152Z</time></trkpt><trkpt lat="44.7985167" lon="8.4209717"><ele>119.0</ele><time>2026-05-01T16:22:53.157Z</time></trkpt><trkpt lat="44.79846" lon="8.4208017"><ele>119.0</ele><time>2026-05-01T16:22:54.15Z</time></trkpt><trkpt lat="44.7983967" lon="8.4206333"><ele>119.0</ele><time>2026-05-01T16:22:55.152Z</time></trkpt><trkpt lat="44.79833" lon="8.4204683"><ele>119.0</ele><time>2026-05-01T16:22:56.153Z</time></trkpt><trkpt lat="44.7982667" lon="8.4203"><ele>119.0</ele><time>2026-05-01T16:22:57.151Z</time></trkpt><trkpt lat="44.79821" lon="8.42013"><ele>119.0</ele><time>2026-05-01T16:22:58.154Z</time></trkpt><trkpt lat="44.7981567" lon="8.41996"><ele>119.0</ele><time>2026-05-01T16:22:59.154Z</time></trkpt><trkpt lat="44.7981217" lon="8.41979"><ele>119.0</ele><time>2026-05-01T16:23:00.154Z</time></trkpt><trkpt lat="44.7981117" lon="8.4196117"><ele>119.0</ele><time>2026-05-01T16:23:01.151Z</time></trkpt><trkpt lat="44.7981233" lon="8.41943"><ele>119.0</ele><time>2026-05-01T16:23:02.153Z</time></trkpt><trkpt lat="44.79815" lon="8.41925"><ele>119.0</ele><time>2026-05-01T16:23:03.151Z</time></trkpt><trkpt lat="44.7981933" lon="8.41907"><ele>119.0</ele><time>2026-05-01T16:23:04.152Z</time></trkpt><trkpt lat="44.7982433" lon="8.4188933"><ele>119.0</ele><time>2026-05-01T16:23:05.152Z</time></trkpt><trkpt lat="44.798295" lon="8.4187183"><ele>119.0</ele><time>2026-05-01T16:23:06.153Z</time></trkpt><trkpt lat="44.7983467" lon="8.41855"><ele>119.0</ele><time>2026-05-01T16:23:07.155Z</time></trkpt><trkpt lat="44.7984" lon="8.4183833"><ele>119.0</ele><time>2026-05-01T16:23:08.154Z</time></trkpt><trkpt lat="44.7984583" lon="8.4182217"><ele>119.0</ele><time>2026-05-01T16:23:09.151Z</time></trkpt><trkpt lat="44.798525" lon="8.41807"><ele>119.0</ele><time>2026-05-01T16:23:10.15Z</time></trkpt><trkpt lat="44.7986" lon="8.4179283"><ele>120.0</ele><time>2026-05-01T16:23:11.156Z</time></trkpt><trkpt lat="44.7986767" lon="8.4177867"><ele>121.0</ele><time>2026-05-01T16:23:12.151Z</time></trkpt><trkpt lat="44.7987533" lon="8.417645"><ele>122.0</ele><time>2026-05-01T16:23:13.151Z</time></trkpt><trkpt lat="44.7988283" lon="8.4175017"><ele>123.0</ele><time>2026-05-01T16:23:14.156Z</time></trkpt><trkpt lat="44.79891" lon="8.4173583"><ele>123.0</ele><time>2026-05-01T16:23:15.152Z</time></trkpt><trkpt lat="44.7989833" lon="8.4172217"><ele>123.0</ele><time>2026-05-01T16:23:16.155Z</time></trkpt><trkpt lat="44.79906" lon="8.4171"><ele>123.0</ele><time>2026-05-01T16:23:17.154Z</time></trkpt><trkpt lat="44.7991433" lon="8.4169767"><ele>123.0</ele><time>2026-05-01T16:23:18.154Z</time></trkpt><trkpt lat="44.7992333" lon="8.41688"><ele>123.2</ele><time>2026-05-01T16:23:19.154Z</time></trkpt><trkpt lat="44.7993167" lon="8.41679"><ele>123.4</ele><time>2026-05-01T16:23:20.152Z</time></trkpt><trkpt lat="44.799395" lon="8.4167133"><ele>123.60000000000001</ele><time>2026-05-01T16:23:21.151Z</time></trkpt><trkpt lat="44.7994717" lon="8.41665"><ele>123.80000000000001</ele><time>2026-05-01T16:23:22.15Z</time></trkpt><trkpt lat="44.79955" lon="8.41659"><ele>124.0</ele><time>2026-05-01T16:23:23.153Z</time></trkpt><trkpt lat="44.79963" lon="8.4165217"><ele>124.2</ele><time>2026-05-01T16:23:24.152Z</time></trkpt><trkpt lat="44.7997133" lon="8.4164467"><ele>124.4</ele><time>2026-05-01T16:23:25.153Z</time></trkpt><trkpt lat="44.7997917" lon="8.4163617"><ele>124.6</ele><time>2026-05-01T16:23:26.15Z</time></trkpt><trkpt lat="44.79987" lon="8.4162733"><ele>124.8</ele><time>2026-05-01T16:23:27.153Z</time></trkpt><trkpt lat="44.7999517" lon="8.4161917"><ele>125.0</ele><time>2026-05-01T16:23:28.152Z</time></trkpt><trkpt lat="44.8000333" lon="8.416115"><ele>124.99999999999999</ele><time>2026-05-01T16:23:29.154Z</time></trkpt><trkpt lat="44.80011" lon="8.41604"><ele>125.0</ele><time>2026-05-01T16:23:30.148Z</time></trkpt><trkpt lat="44.8001817" lon="8.41596"><ele>125.0</ele><time>2026-05-01T16:23:31.154Z</time></trkpt><trkpt lat="44.80025" lon="8.4158783"><ele>125.0</ele><time>2026-05-01T16:23:32.153Z</time></trkpt><trkpt lat="44.8003117" lon="8.4157883"><ele>124.99999999999999</ele><time>2026-05-01T16:23:33.155Z</time></trkpt><trkpt lat="44.8003617" lon="8.4156983"><ele>125.0</ele><time>2026-05-01T16:23:34.151Z</time></trkpt><trkpt lat="44.80041" lon="8.4156167"><ele>125.99999999999999</ele><time>2026-05-01T16:23:35.153Z</time></trkpt><trkpt lat="44.8004483" lon="8.415545"><ele>127.0</ele><time>2026-05-01T16:23:36.153Z</time></trkpt><trkpt lat="44.8005167" lon="8.4154"><ele>128.0</ele><time>2026-05-01T16:23:38.153Z</time></trkpt><trkpt lat="44.8005533" lon="8.4153183"><ele>129.0</ele><time>2026-05-01T16:23:39.149Z</time></trkpt><trkpt lat="44.8005883" lon="8.41523"><ele>130.0</ele><time>2026-05-01T16:23:40.153Z</time></trkpt><trkpt lat="44.8006317" lon="8.4151383"><ele>131.0</ele><time>2026-05-01T16:23:41.155Z</time></trkpt><trkpt lat="44.8006767" lon="8.4150383"><ele>131.0</ele><time>2026-05-01T16:23:42.152Z</time></trkpt><trkpt lat="44.80073" lon="8.4149367"><ele>131.0</ele><time>2026-05-01T16:23:43.152Z</time></trkpt><trkpt lat="44.8007817" lon="8.4148367"><ele>131.0</ele><time>2026-05-01T16:23:44.155Z</time></trkpt><trkpt lat="44.8008283" lon="8.4147333"><ele>131.0</ele><time>2026-05-01T16:23:45.15Z</time></trkpt><trkpt lat="44.8008767" lon="8.4146333"><ele>131.0</ele><time>2026-05-01T16:23:46.152Z</time></trkpt><trkpt lat="44.800925" lon="8.4145333"><ele>131.0</ele><time>2026-05-01T16:23:47.157Z</time></trkpt><trkpt lat="44.8009667" lon="8.4144267"><ele>131.0</ele><time>2026-05-01T16:23:48.151Z</time></trkpt><trkpt lat="44.8010133" lon="8.4143133"><ele>131.0</ele><time>2026-05-01T16:23:49.161Z</time></trkpt><trkpt lat="44.8010583" lon="8.41419"><ele>131.0</ele><time>2026-05-01T16:23:50.15Z</time></trkpt><trkpt lat="44.8010967" lon="8.4140583"><ele>131.0</ele><time>2026-05-01T16:23:51.151Z</time></trkpt><trkpt lat="44.8011283" lon="8.4139133"><ele>131.0</ele><time>2026-05-01T16:23:52.155Z</time></trkpt><trkpt lat="44.8011583" lon="8.4137633"><ele>130.5</ele><time>2026-05-01T16:23:53.153Z</time></trkpt><trkpt lat="44.80118" lon="8.41361"><ele>130.0</ele><time>2026-05-01T16:23:54.153Z</time></trkpt><trkpt lat="44.801205" lon="8.4134533"><ele>129.5</ele><time>2026-05-01T16:23:55.153Z</time></trkpt><trkpt lat="44.8012333" lon="8.4132933"><ele>129.0</ele><time>2026-05-01T16:23:56.155Z</time></trkpt><trkpt lat="44.80126" lon="8.413135"><ele>128.6</ele><time>2026-05-01T16:23:57.152Z</time></trkpt><trkpt lat="44.801285" lon="8.4129783"><ele>128.2</ele><time>2026-05-01T16:23:58.154Z</time></trkpt><trkpt lat="44.801305" lon="8.412825"><ele>127.79999999999998</ele><time>2026-05-01T16:23:59.156Z</time></trkpt><trkpt lat="44.8013117" lon="8.412675"><ele>127.39999999999999</ele><time>2026-05-01T16:24:00.153Z</time></trkpt><trkpt lat="44.801325" lon="8.4125317"><ele>127.0</ele><time>2026-05-01T16:24:01.15Z</time></trkpt><trkpt lat="44.8013433" lon="8.4123833"><ele>127.0</ele><time>2026-05-01T16:24:02.152Z</time></trkpt><trkpt lat="44.801355" lon="8.4122417"><ele>126.99999999999999</ele><time>2026-05-01T16:24:03.154Z</time></trkpt><trkpt lat="44.801365" lon="8.4121183"><ele>126.99999999999999</ele><time>2026-05-01T16:24:04.156Z</time></trkpt><trkpt lat="44.8013633" lon="8.411985"><ele>127.0</ele><time>2026-05-01T16:24:05.151Z</time></trkpt><trkpt lat="44.8013567" lon="8.4118567"><ele>127.0</ele><time>2026-05-01T16:24:06.15Z</time></trkpt><trkpt lat="44.8013633" lon="8.4117333"><ele>127.0</ele><time>2026-05-01T16:24:07.155Z</time></trkpt><trkpt lat="44.8013717" lon="8.411605"><ele>126.99999999999999</ele><time>2026-05-01T16:24:08.152Z</time></trkpt><trkpt lat="44.8014383" lon="8.4114583"><ele>126.99999999999999</ele><time>2026-05-01T16:24:09.152Z</time></trkpt><trkpt lat="44.801465" lon="8.4113217"><ele>127.0</ele><time>2026-05-01T16:24:10.153Z</time></trkpt><trkpt lat="44.8014817" lon="8.4111967"><ele>127.0</ele><time>2026-05-01T16:24:11.151Z</time></trkpt><trkpt lat="44.80148" lon="8.4110883"><ele>126.33333333333334</ele><time>2026-05-01T16:24:12.15Z</time></trkpt><trkpt lat="44.80148" lon="8.4109783"><ele>125.66666666666667</ele><time>2026-05-01T16:24:13.152Z</time></trkpt><trkpt lat="44.801505" lon="8.4108767"><ele>125.0</ele><time>2026-05-01T16:24:14.151Z</time></trkpt><trkpt lat="44.8015233" lon="8.41078"><ele>124.33333333333334</ele><time>2026-05-01T16:24:15.151Z</time></trkpt><trkpt lat="44.8015517" lon="8.4106933"><ele>123.66666666666667</ele><time>2026-05-01T16:24:16.156Z</time></trkpt><trkpt lat="44.801605" lon="8.410625"><ele>123.0</ele><time>2026-05-01T16:24:17.16Z</time></trkpt><trkpt lat="44.8016333" lon="8.4105083"><ele>122.25</ele><time>2026-05-01T16:24:18.151Z</time></trkpt><trkpt lat="44.8016817" lon="8.4103883"><ele>121.5</ele><time>2026-05-01T16:24:19.159Z</time></trkpt><trkpt lat="44.8017167" lon="8.4102217"><ele>120.75</ele><time>2026-05-01T16:24:20.154Z</time></trkpt><trkpt lat="44.8017683" lon="8.4100567"><ele>120.0</ele><time>2026-05-01T16:24:21.155Z</time></trkpt><trkpt lat="44.8018117" lon="8.4099"><ele>120.25</ele><time>2026-05-01T16:24:22.152Z</time></trkpt><trkpt lat="44.8018717" lon="8.4097567"><ele>120.5</ele><time>2026-05-01T16:24:23.156Z</time></trkpt><trkpt lat="44.80193" lon="8.4096117"><ele>120.75</ele><time>2026-05-01T16:24:24.153Z</time></trkpt><trkpt lat="44.80199" lon="8.40948"><ele>121.0</ele><time>2026-05-01T16:24:25.157Z</time></trkpt><trkpt lat="44.8020517" lon="8.40935"><ele>121.0</ele><time>2026-05-01T16:24:26.151Z</time></trkpt><trkpt lat="44.8021117" lon="8.4092067"><ele>121.0</ele><time>2026-05-01T16:24:27.153Z</time></trkpt><trkpt lat="44.8021733" lon="8.4090583"><ele>121.0</ele><time>2026-05-01T16:24:28.155Z</time></trkpt><trkpt lat="44.8022367" lon="8.4088917"><ele>121.0</ele><time>2026-05-01T16:24:29.15Z</time></trkpt><trkpt lat="44.8022983" lon="8.4087317"><ele>121.25</ele><time>2026-05-01T16:24:30.157Z</time></trkpt><trkpt lat="44.80236" lon="8.408575"><ele>121.5</ele><time>2026-05-01T16:24:31.151Z</time></trkpt><trkpt lat="44.80241" lon="8.4084083"><ele>121.75</ele><time>2026-05-01T16:24:32.156Z</time></trkpt><trkpt lat="44.8024567" lon="8.40823"><ele>122.0</ele><time>2026-05-01T16:24:33.154Z</time></trkpt><trkpt lat="44.8024933" lon="8.4080483"><ele>122.5</ele><time>2026-05-01T16:24:34.151Z</time></trkpt><trkpt lat="44.8025133" lon="8.4078467"><ele>123.0</ele><time>2026-05-01T16:24:35.154Z</time></trkpt><trkpt lat="44.80253" lon="8.40764"><ele>123.5</ele><time>2026-05-01T16:24:36.152Z</time></trkpt><trkpt lat="44.8025533" lon="8.407435"><ele>124.0</ele><time>2026-05-01T16:24:37.154Z</time></trkpt><trkpt lat="44.8025733" lon="8.4072333"><ele>124.33333333333334</ele><time>2026-05-01T16:24:38.151Z</time></trkpt><trkpt lat="44.8025933" lon="8.407025"><ele>124.66666666666666</ele><time>2026-05-01T16:24:39.15Z</time></trkpt><trkpt lat="44.8026167" lon="8.406815"><ele>125.0</ele><time>2026-05-01T16:24:40.152Z</time></trkpt><trkpt lat="44.802655" lon="8.40661"><ele>124.75</ele><time>2026-05-01T16:24:41.155Z</time></trkpt><trkpt lat="44.802685" lon="8.406405"><ele>124.5</ele><time>2026-05-01T16:24:42.154Z</time></trkpt><trkpt lat="44.8027083" lon="8.40621"><ele>124.25</ele><time>2026-05-01T16:24:43.153Z</time></trkpt><trkpt lat="44.802715" lon="8.4060317"><ele>124.0</ele><time>2026-05-01T16:24:44.154Z</time></trkpt><trkpt lat="44.8027267" lon="8.405875"><ele>124.4</ele><time>2026-05-01T16:24:45.157Z</time></trkpt><trkpt lat="44.80275" lon="8.4057367"><ele>124.80000000000001</ele><time>2026-05-01T16:24:46.152Z</time></trkpt><trkpt lat="44.8027683" lon="8.4056"><ele>125.19999999999999</ele><time>2026-05-01T16:24:47.16Z</time></trkpt><trkpt lat="44.80279" lon="8.4054633"><ele>125.6</ele><time>2026-05-01T16:24:48.15Z</time></trkpt><trkpt lat="44.8027983" lon="8.4053183"><ele>126.0</ele><time>2026-05-01T16:24:49.151Z</time></trkpt><trkpt lat="44.8027967" lon="8.4051633"><ele>126.25</ele><time>2026-05-01T16:24:50.154Z</time></trkpt><trkpt lat="44.802785" lon="8.4049967"><ele>126.5</ele><time>2026-05-01T16:24:51.149Z</time></trkpt><trkpt lat="44.8027533" lon="8.404825"><ele>126.75</ele><time>2026-05-01T16:24:52.151Z</time></trkpt><trkpt lat="44.8026967" lon="8.4046517"><ele>127.0</ele><time>2026-05-01T16:24:53.16Z</time></trkpt><trkpt lat="44.802635" lon="8.4044767"><ele>127.0</ele><time>2026-05-01T16:24:54.154Z</time></trkpt><trkpt lat="44.80259" lon="8.4043017"><ele>127.0</ele><time>2026-05-01T16:24:55.158Z</time></trkpt><trkpt lat="44.802565" lon="8.4041083"><ele>127.0</ele><time>2026-05-01T16:24:56.15Z</time></trkpt><trkpt lat="44.8025467" lon="8.4039117"><ele>127.0</ele><time>2026-05-01T16:24:57.156Z</time></trkpt><trkpt lat="44.8025417" lon="8.40371"><ele>127.25</ele><time>2026-05-01T16:24:58.151Z</time></trkpt><trkpt lat="44.8025417" lon="8.4035117"><ele>127.5</ele><time>2026-05-01T16:24:59.152Z</time></trkpt><trkpt lat="44.8025467" lon="8.4033067"><ele>127.75</ele><time>2026-05-01T16:25:00.153Z</time></trkpt><trkpt lat="44.8025517" lon="8.4031"><ele>128.0</ele><time>2026-05-01T16:25:01.152Z</time></trkpt><trkpt lat="44.802565" lon="8.40289"><ele>128.66666666666666</ele><time>2026-05-01T16:25:02.154Z</time></trkpt><trkpt lat="44.802585" lon="8.40268"><ele>129.33333333333334</ele><time>2026-05-01T16:25:03.151Z</time></trkpt><trkpt lat="44.8026083" lon="8.4024683"><ele>130.0</ele><time>2026-05-01T16:25:04.151Z</time></trkpt><trkpt lat="44.8026317" lon="8.40225"><ele>130.5</ele><time>2026-05-01T16:25:05.155Z</time></trkpt><trkpt lat="44.80262" lon="8.4020467"><ele>131.0</ele><time>2026-05-01T16:25:06.152Z</time></trkpt><trkpt lat="44.8025767" lon="8.4018583"><ele>131.5</ele><time>2026-05-01T16:25:07.153Z</time></trkpt><trkpt lat="44.8025067" lon="8.4016683"><ele>132.0</ele><time>2026-05-01T16:25:08.152Z</time></trkpt><trkpt lat="44.802435" lon="8.4014867"><ele>131.33333333333334</ele><time>2026-05-01T16:25:09.162Z</time></trkpt><trkpt lat="44.802345" lon="8.4013083"><ele>130.66666666666669</ele><time>2026-05-01T16:25:10.153Z</time></trkpt><trkpt lat="44.8022483" lon="8.4011433"><ele>130.0</ele><time>2026-05-01T16:25:11.156Z</time></trkpt><trkpt lat="44.80214" lon="8.4009933"><ele>130.0</ele><time>2026-05-01T16:25:12.152Z</time></trkpt><trkpt lat="44.8020133" lon="8.4008667"><ele>130.0</ele><time>2026-05-01T16:25:13.151Z</time></trkpt><trkpt lat="44.801885" lon="8.400755"><ele>130.0</ele><time>2026-05-01T16:25:14.152Z</time></trkpt><trkpt lat="44.801755" lon="8.4006383"><ele>131.33333333333334</ele><time>2026-05-01T16:25:15.152Z</time></trkpt><trkpt lat="44.801635" lon="8.4004983"><ele>132.66666666666666</ele><time>2026-05-01T16:25:16.158Z</time></trkpt><trkpt lat="44.8015433" lon="8.40033"><ele>134.0</ele><time>2026-05-01T16:25:17.154Z</time></trkpt><trkpt lat="44.8014717" lon="8.400145"><ele>134.0</ele><time>2026-05-01T16:25:18.151Z</time></trkpt><trkpt lat="44.8014117" lon="8.39995"><ele>134.0</ele><time>2026-05-01T16:25:19.153Z</time></trkpt><trkpt lat="44.801365" lon="8.3997433"><ele>134.0</ele><time>2026-05-01T16:25:20.152Z</time></trkpt><trkpt lat="44.8013183" lon="8.3995333"><ele>132.33333333333331</ele><time>2026-05-01T16:25:21.152Z</time></trkpt><trkpt lat="44.8012667" lon="8.3993217"><ele>130.66666666666666</ele><time>2026-05-01T16:25:22.152Z</time></trkpt><trkpt lat="44.801205" lon="8.3991083"><ele>129.0</ele><time>2026-05-01T16:25:23.15Z</time></trkpt><trkpt lat="44.8011217" lon="8.3989183"><ele>130.33333333333334</ele><time>2026-05-01T16:25:24.154Z</time></trkpt><trkpt lat="44.8010233" lon="8.3987517"><ele>131.66666666666669</ele><time>2026-05-01T16:25:25.154Z</time></trkpt><trkpt lat="44.8009033" lon="8.3986033"><ele>133.0</ele><time>2026-05-01T16:25:26.159Z</time></trkpt><trkpt lat="44.8007767" lon="8.3984617"><ele>133.0</ele><time>2026-05-01T16:25:27.151Z</time></trkpt><trkpt lat="44.80065" lon="8.3983233"><ele>133.0</ele><time>2026-05-01T16:25:28.15Z</time></trkpt><trkpt lat="44.80052" lon="8.3981817"><ele>133.0</ele><time>2026-05-01T16:25:29.153Z</time></trkpt><trkpt lat="44.8003883" lon="8.3980333"><ele>133.66666666666669</ele><time>2026-05-01T16:25:30.155Z</time></trkpt><trkpt lat="44.8002617" lon="8.397885"><ele>134.33333333333334</ele><time>2026-05-01T16:25:31.152Z</time></trkpt><trkpt lat="44.80015" lon="8.39773"><ele>135.0</ele><time>2026-05-01T16:25:32.15Z</time></trkpt><trkpt lat="44.8000617" lon="8.3975683"><ele>135.0</ele><time>2026-05-01T16:25:33.151Z</time></trkpt><trkpt lat="44.7999933" lon="8.397395"><ele>135.0</ele><time>2026-05-01T16:25:34.151Z</time></trkpt><trkpt lat="44.7999617" lon="8.3971983"><ele>135.0</ele><time>2026-05-01T16:25:35.155Z</time></trkpt><trkpt lat="44.7999583" lon="8.3969783"><ele>135.0</ele><time>2026-05-01T16:25:36.15Z</time></trkpt><trkpt lat="44.7999667" lon="8.3967333"><ele>134.0</ele><time>2026-05-01T16:25:37.155Z</time></trkpt><trkpt lat="44.799995" lon="8.3964633"><ele>133.0</ele><time>2026-05-01T16:25:38.151Z</time></trkpt><trkpt lat="44.8000267" lon="8.3961917"><ele>132.0</ele><time>2026-05-01T16:25:39.149Z</time></trkpt><trkpt lat="44.8000683" lon="8.3959033"><ele>131.66666666666666</ele><time>2026-05-01T16:25:40.151Z</time></trkpt><trkpt lat="44.8001" lon="8.3956017"><ele>131.33333333333331</ele><time>2026-05-01T16:25:41.153Z</time></trkpt><trkpt lat="44.8001233" lon="8.39529"><ele>131.0</ele><time>2026-05-01T16:25:42.151Z</time></trkpt><trkpt lat="44.800135" lon="8.39497"><ele>130.5</ele><time>2026-05-01T16:25:43.151Z</time></trkpt><trkpt lat="44.800135" lon="8.3946417"><ele>130.0</ele><time>2026-05-01T16:25:44.153Z</time></trkpt><trkpt lat="44.80013" lon="8.3943133"><ele>130.0</ele><time>2026-05-01T16:25:45.151Z</time></trkpt><trkpt lat="44.8001167" lon="8.3939833"><ele>130.0</ele><time>2026-05-01T16:25:46.152Z</time></trkpt><trkpt lat="44.8001017" lon="8.3936533"><ele>130.0</ele><time>2026-05-01T16:25:47.152Z</time></trkpt><trkpt lat="44.80008" lon="8.3933283"><ele>130.0</ele><time>2026-05-01T16:25:48.153Z</time></trkpt><trkpt lat="44.800065" lon="8.3930083"><ele>131.33333333333334</ele><time>2026-05-01T16:25:49.152Z</time></trkpt><trkpt lat="44.8000567" lon="8.392695"><ele>132.66666666666666</ele><time>2026-05-01T16:25:50.151Z</time></trkpt><trkpt lat="44.80006" lon="8.39238"><ele>134.0</ele><time>2026-05-01T16:25:51.152Z</time></trkpt><trkpt lat="44.8000767" lon="8.3920667"><ele>135.0</ele><time>2026-05-01T16:25:52.154Z</time></trkpt><trkpt lat="44.800095" lon="8.3917517"><ele>136.0</ele><time>2026-05-01T16:25:53.154Z</time></trkpt><trkpt lat="44.8001133" lon="8.3914517"><ele>137.0</ele><time>2026-05-01T16:25:54.151Z</time></trkpt><trkpt lat="44.8001433" lon="8.391175"><ele>140.66666666666666</ele><time>2026-05-01T16:25:55.151Z</time></trkpt><trkpt lat="44.8001883" lon="8.3909133"><ele>144.33333333333334</ele><time>2026-05-01T16:25:56.151Z</time></trkpt><trkpt lat="44.800245" lon="8.39065"><ele>148.0</ele><time>2026-05-01T16:25:57.151Z</time></trkpt><trkpt lat="44.8003183" lon="8.39038"><ele>148.0</ele><time>2026-05-01T16:25:58.152Z</time></trkpt><trkpt lat="44.800405" lon="8.3901083"><ele>148.0</ele><time>2026-05-01T16:25:59.152Z</time></trkpt><trkpt lat="44.8005083" lon="8.3898367"><ele>148.0</ele><time>2026-05-01T16:26:00.151Z</time></trkpt><trkpt lat="44.8006133" lon="8.3895467"><ele>148.0</ele><time>2026-05-01T16:26:01.154Z</time></trkpt><trkpt lat="44.8007167" lon="8.3892533"><ele>148.0</ele><time>2026-05-01T16:26:02.155Z</time></trkpt><trkpt lat="44.8008033" lon="8.38897"><ele>146.0</ele><time>2026-05-01T16:26:03.15Z</time></trkpt><trkpt lat="44.8008717" lon="8.3886933"><ele>144.0</ele><time>2026-05-01T16:26:04.151Z</time></trkpt><trkpt lat="44.800925" lon="8.38842"><ele>142.0</ele><time>2026-05-01T16:26:05.157Z</time></trkpt><trkpt lat="44.8009567" lon="8.3881517"><ele>140.66666666666669</ele><time>2026-05-01T16:26:06.16Z</time></trkpt><trkpt lat="44.80097" lon="8.3878783"><ele>139.33333333333334</ele><time>2026-05-01T16:26:07.153Z</time></trkpt><trkpt lat="44.80096" lon="8.3876117"><ele>138.0</ele><time>2026-05-01T16:26:08.152Z</time></trkpt><trkpt lat="44.800935" lon="8.3873517"><ele>138.33333333333334</ele><time>2026-05-01T16:26:09.153Z</time></trkpt><trkpt lat="44.800895" lon="8.3870983"><ele>138.66666666666669</ele><time>2026-05-01T16:26:10.155Z</time></trkpt><trkpt lat="44.8008567" lon="8.3868583"><ele>139.0</ele><time>2026-05-01T16:26:11.153Z</time></trkpt><trkpt lat="44.8008383" lon="8.3866533"><ele>139.0</ele><time>2026-05-01T16:26:12.153Z</time></trkpt><trkpt lat="44.8008517" lon="8.386485"><ele>139.0</ele><time>2026-05-01T16:26:13.156Z</time></trkpt><trkpt lat="44.8008783" lon="8.386325"><ele>139.0</ele><time>2026-05-01T16:26:14.153Z</time></trkpt><trkpt lat="44.800925" lon="8.38617"><ele>139.0</ele><time>2026-05-01T16:26:15.153Z</time></trkpt><trkpt lat="44.800995" lon="8.3860417"><ele>137.75</ele><time>2026-05-01T16:26:16.157Z</time></trkpt><trkpt lat="44.8010867" lon="8.3859183"><ele>136.5</ele><time>2026-05-01T16:26:17.151Z</time></trkpt><trkpt lat="44.8011883" lon="8.3858283"><ele>135.25</ele><time>2026-05-01T16:26:18.152Z</time></trkpt><trkpt lat="44.8012933" lon="8.38578"><ele>134.0</ele><time>2026-05-01T16:26:19.153Z</time></trkpt><trkpt lat="44.801405" lon="8.3857667"><ele>134.0</ele><time>2026-05-01T16:26:20.152Z</time></trkpt><trkpt lat="44.8015267" lon="8.38578"><ele>134.0</ele><time>2026-05-01T16:26:21.151Z</time></trkpt><trkpt lat="44.8016617" lon="8.38583"><ele>134.0</ele><time>2026-05-01T16:26:22.152Z</time></trkpt><trkpt lat="44.801805" lon="8.3858967"><ele>134.0</ele><time>2026-05-01T16:26:23.151Z</time></trkpt><trkpt lat="44.8019517" lon="8.3859783"><ele>133.0</ele><time>2026-05-01T16:26:24.152Z</time></trkpt><trkpt lat="44.8021083" lon="8.386065"><ele>132.0</ele><time>2026-05-01T16:26:25.155Z</time></trkpt><trkpt lat="44.802265" lon="8.3861633"><ele>131.0</ele><time>2026-05-01T16:26:26.153Z</time></trkpt><trkpt lat="44.802425" lon="8.3862667"><ele>133.33333333333331</ele><time>2026-05-01T16:26:27.152Z</time></trkpt><trkpt lat="44.80259" lon="8.3863733"><ele>135.66666666666666</ele><time>2026-05-01T16:26:28.153Z</time></trkpt><trkpt lat="44.8027567" lon="8.3864767"><ele>138.0</ele><time>2026-05-01T16:26:29.155Z</time></trkpt><trkpt lat="44.8029233" lon="8.3865483"><ele>138.0</ele><time>2026-05-01T16:26:30.154Z</time></trkpt><trkpt lat="44.803105" lon="8.3866233"><ele>138.0</ele><time>2026-05-01T16:26:31.154Z</time></trkpt><trkpt lat="44.8033017" lon="8.3866917"><ele>138.0</ele><time>2026-05-01T16:26:32.152Z</time></trkpt><trkpt lat="44.803505" lon="8.3867417"><ele>137.66666666666666</ele><time>2026-05-01T16:26:33.152Z</time></trkpt><trkpt lat="44.8037" lon="8.386785"><ele>137.33333333333331</ele><time>2026-05-01T16:26:34.152Z</time></trkpt><trkpt lat="44.8038733" lon="8.386795"><ele>137.0</ele><time>2026-05-01T16:26:35.151Z</time></trkpt><trkpt lat="44.8040617" lon="8.3867783"><ele>137.0</ele><time>2026-05-01T16:26:36.156Z</time></trkpt><trkpt lat="44.804245" lon="8.386735"><ele>137.0</ele><time>2026-05-01T16:26:37.156Z</time></trkpt><trkpt lat="44.8044333" lon="8.3866767"><ele>137.0</ele><time>2026-05-01T16:26:38.151Z</time></trkpt><trkpt lat="44.8046283" lon="8.38662"><ele>138.33333333333331</ele><time>2026-05-01T16:26:39.153Z</time></trkpt><trkpt lat="44.8048233" lon="8.3865533"><ele>139.66666666666666</ele><time>2026-05-01T16:26:40.155Z</time></trkpt><trkpt lat="44.8050183" lon="8.3864867"><ele>141.0</ele><time>2026-05-01T16:26:41.151Z</time></trkpt><trkpt lat="44.805205" lon="8.3864033"><ele>138.66666666666666</ele><time>2026-05-01T16:26:42.152Z</time></trkpt><trkpt lat="44.8053783" lon="8.3863033"><ele>136.33333333333331</ele><time>2026-05-01T16:26:43.154Z</time></trkpt><trkpt lat="44.8055367" lon="8.38618"><ele>134.0</ele><time>2026-05-01T16:26:44.155Z</time></trkpt><trkpt lat="44.80568" lon="8.386035"><ele>134.0</ele><time>2026-05-01T16:26:45.152Z</time></trkpt><trkpt lat="44.8058167" lon="8.3858717"><ele>134.0</ele><time>2026-05-01T16:26:46.151Z</time></trkpt><trkpt lat="44.8059483" lon="8.385695"><ele>134.0</ele><time>2026-05-01T16:26:47.156Z</time></trkpt><trkpt lat="44.80607" lon="8.3855117"><ele>136.0</ele><time>2026-05-01T16:26:48.15Z</time></trkpt><trkpt lat="44.8061967" lon="8.3853317"><ele>138.0</ele><time>2026-05-01T16:26:49.151Z</time></trkpt><trkpt lat="44.80632" lon="8.3851517"><ele>140.0</ele><time>2026-05-01T16:26:50.151Z</time></trkpt><trkpt lat="44.80644" lon="8.38498"><ele>140.0</ele><time>2026-05-01T16:26:51.153Z</time></trkpt><trkpt lat="44.8065567" lon="8.38481"><ele>140.0</ele><time>2026-05-01T16:26:52.152Z</time></trkpt><trkpt lat="44.8066717" lon="8.384635"><ele>140.0</ele><time>2026-05-01T16:26:53.155Z</time></trkpt><trkpt lat="44.806785" lon="8.38447"><ele>139.5</ele><time>2026-05-01T16:26:54.154Z</time></trkpt><trkpt lat="44.8068933" lon="8.3843117"><ele>139.0</ele><time>2026-05-01T16:26:55.156Z</time></trkpt><trkpt lat="44.8069933" lon="8.3841683"><ele>138.5</ele><time>2026-05-01T16:26:56.154Z</time></trkpt><trkpt lat="44.807085" lon="8.3840383"><ele>138.0</ele><time>2026-05-01T16:26:57.158Z</time></trkpt><trkpt lat="44.8071683" lon="8.3839083"><ele>136.0</ele><time>2026-05-01T16:26:58.153Z</time></trkpt><trkpt lat="44.8072467" lon="8.3837817"><ele>134.0</ele><time>2026-05-01T16:26:59.152Z</time></trkpt><trkpt lat="44.80732" lon="8.3836617"><ele>132.0</ele><time>2026-05-01T16:27:00.153Z</time></trkpt><trkpt lat="44.8073933" lon="8.3835417"><ele>130.0</ele><time>2026-05-01T16:27:01.153Z</time></trkpt><trkpt lat="44.8074667" lon="8.3834183"><ele>130.0</ele><time>2026-05-01T16:27:02.151Z</time></trkpt><trkpt lat="44.807535" lon="8.3832933"><ele>130.0</ele><time>2026-05-01T16:27:03.154Z</time></trkpt><trkpt lat="44.8075967" lon="8.3831617"><ele>130.0</ele><time>2026-05-01T16:27:04.154Z</time></trkpt><trkpt lat="44.8076483" lon="8.3830267"><ele>130.0</ele><time>2026-05-01T16:27:05.153Z</time></trkpt><trkpt lat="44.8077017" lon="8.382895"><ele>130.0</ele><time>2026-05-01T16:27:06.152Z</time></trkpt><trkpt lat="44.8077583" lon="8.382765"><ele>129.6</ele><time>2026-05-01T16:27:07.153Z</time></trkpt><trkpt lat="44.807805" lon="8.3826217"><ele>129.2</ele><time>2026-05-01T16:27:08.151Z</time></trkpt><trkpt lat="44.8078433" lon="8.3824733"><ele>128.8</ele><time>2026-05-01T16:27:09.151Z</time></trkpt><trkpt lat="44.8078817" lon="8.3823283"><ele>128.4</ele><time>2026-05-01T16:27:10.152Z</time></trkpt><trkpt lat="44.8079167" lon="8.3821817"><ele>128.0</ele><time>2026-05-01T16:27:11.16Z</time></trkpt><trkpt lat="44.8079583" lon="8.3820367"><ele>128.0</ele><time>2026-05-01T16:27:12.156Z</time></trkpt><trkpt lat="44.8079967" lon="8.381895"><ele>128.0</ele><time>2026-05-01T16:27:13.154Z</time></trkpt><trkpt lat="44.8080367" lon="8.3817583"><ele>128.0</ele><time>2026-05-01T16:27:14.152Z</time></trkpt><trkpt lat="44.80808" lon="8.3816233"><ele>128.0</ele><time>2026-05-01T16:27:15.151Z</time></trkpt><trkpt lat="44.8081267" lon="8.3814917"><ele>128.0</ele><time>2026-05-01T16:27:16.152Z</time></trkpt><trkpt lat="44.8081667" lon="8.381355"><ele>127.80000000000001</ele><time>2026-05-01T16:27:17.151Z</time></trkpt><trkpt lat="44.8082" lon="8.3812267"><ele>127.60000000000001</ele><time>2026-05-01T16:27:18.152Z</time></trkpt><trkpt lat="44.80823" lon="8.3811083"><ele>127.39999999999999</ele><time>2026-05-01T16:27:19.152Z</time></trkpt><trkpt lat="44.8082633" lon="8.3810167"><ele>127.19999999999999</ele><time>2026-05-01T16:27:20.156Z</time></trkpt><trkpt lat="44.8083067" lon="8.3808917"><ele>127.0</ele><time>2026-05-01T16:27:22.155Z</time></trkpt><trkpt lat="44.8083317" lon="8.3807317"><ele>127.0</ele><time>2026-05-01T16:27:30.153Z</time></trkpt><trkpt lat="44.8082767" lon="8.3806133"><ele>126.99999999999999</ele><time>2026-05-01T16:27:32.15Z</time></trkpt><trkpt lat="44.8082117" lon="8.3805217"><ele>126.99999999999999</ele><time>2026-05-01T16:27:34.15Z</time></trkpt><trkpt lat="44.8081367" lon="8.3804367"><ele>127.0</ele><time>2026-05-01T16:27:36.153Z</time></trkpt><trkpt lat="44.8080683" lon="8.38035"><ele>127.0</ele><time>2026-05-01T16:27:38.154Z</time></trkpt><trkpt lat="44.8079867" lon="8.3802567"><ele>127.0</ele><time>2026-05-01T16:27:40.153Z</time></trkpt><trkpt lat="44.80789" lon="8.3801667"><ele>127.0</ele><time>2026-05-01T16:27:42.152Z</time></trkpt><trkpt lat="44.8077983" lon="8.3800683"><ele>127.0</ele><time>2026-05-01T16:27:44.151Z</time></trkpt><trkpt lat="44.8077083" lon="8.379975"><ele>127.0</ele><time>2026-05-01T16:27:46.154Z</time></trkpt><trkpt lat="44.8076283" lon="8.37986"><ele>127.0</ele><time>2026-05-01T16:27:48.151Z</time></trkpt><trkpt lat="44.8075433" lon="8.37976"><ele>126.99999999999999</ele><time>2026-05-01T16:27:50.152Z</time></trkpt><trkpt lat="44.807455" lon="8.379655"><ele>126.99999999999999</ele><time>2026-05-01T16:27:52.151Z</time></trkpt><trkpt lat="44.80737" lon="8.3795267"><ele>127.0</ele><time>2026-05-01T16:27:54.15Z</time></trkpt><trkpt lat="44.8073267" lon="8.37946"><ele>127.0</ele><time>2026-05-01T16:27:55.15Z</time></trkpt><trkpt lat="44.80729" lon="8.3793767"><ele>127.0</ele><time>2026-05-01T16:27:56.152Z</time></trkpt><trkpt lat="44.8072417" lon="8.3792867"><ele>126.99999999999999</ele><time>2026-05-01T16:27:57.153Z</time></trkpt><trkpt lat="44.8071817" lon="8.3791833"><ele>126.99999999999999</ele><time>2026-05-01T16:27:58.151Z</time></trkpt><trkpt lat="44.807115" lon="8.37906"><ele>127.0</ele><time>2026-05-01T16:27:59.153Z</time></trkpt><trkpt lat="44.807045" lon="8.378935"><ele>127.0</ele><time>2026-05-01T16:28:00.152Z</time></trkpt><trkpt lat="44.8069817" lon="8.378815"><ele>127.0</ele><time>2026-05-01T16:28:01.153Z</time></trkpt><trkpt lat="44.8069133" lon="8.3786933"><ele>127.0</ele><time>2026-05-01T16:28:02.153Z</time></trkpt><trkpt lat="44.806855" lon="8.378555"><ele>127.0</ele><time>2026-05-01T16:28:03.154Z</time></trkpt><trkpt lat="44.806795" lon="8.3784083"><ele>127.0</ele><time>2026-05-01T16:28:04.152Z</time></trkpt><trkpt lat="44.8067483" lon="8.378255"><ele>127.0</ele><time>2026-05-01T16:28:05.157Z</time></trkpt><trkpt lat="44.8067067" lon="8.3780867"><ele>127.0</ele><time>2026-05-01T16:28:06.152Z</time></trkpt><trkpt lat="44.8066717" lon="8.3779117"><ele>127.0</ele><time>2026-05-01T16:28:07.155Z</time></trkpt><trkpt lat="44.8066383" lon="8.37773"><ele>127.0</ele><time>2026-05-01T16:28:08.156Z</time></trkpt><trkpt lat="44.8066017" lon="8.3775483"><ele>126.75</ele><time>2026-05-01T16:28:09.15Z</time></trkpt><trkpt lat="44.806565" lon="8.37736"><ele>126.5</ele><time>2026-05-01T16:28:10.152Z</time></trkpt><trkpt lat="44.8065283" lon="8.377165"><ele>126.25</ele><time>2026-05-01T16:28:11.153Z</time></trkpt><trkpt lat="44.8064883" lon="8.3769633"><ele>126.0</ele><time>2026-05-01T16:28:12.152Z</time></trkpt><trkpt lat="44.8064483" lon="8.3767633"><ele>126.0</ele><time>2026-05-01T16:28:13.151Z</time></trkpt><trkpt lat="44.806405" lon="8.37656"><ele>126.0</ele><time>2026-05-01T16:28:14.151Z</time></trkpt><trkpt lat="44.8063667" lon="8.3763533"><ele>126.0</ele><time>2026-05-01T16:28:15.151Z</time></trkpt><trkpt lat="44.8063367" lon="8.3761433"><ele>126.66666666666666</ele><time>2026-05-01T16:28:16.151Z</time></trkpt><trkpt lat="44.8062983" lon="8.375935"><ele>127.33333333333333</ele><time>2026-05-01T16:28:17.157Z</time></trkpt><trkpt lat="44.80626" lon="8.3757233"><ele>128.0</ele><time>2026-05-01T16:28:18.15Z</time></trkpt><trkpt lat="44.8062217" lon="8.37551"><ele>128.0</ele><time>2026-05-01T16:28:19.151Z</time></trkpt><trkpt lat="44.8061933" lon="8.3753"><ele>128.0</ele><time>2026-05-01T16:28:20.153Z</time></trkpt><trkpt lat="44.8061633" lon="8.3751033"><ele>128.0</ele><time>2026-05-01T16:28:21.157Z</time></trkpt><trkpt lat="44.8061317" lon="8.3749233"><ele>128.0</ele><time>2026-05-01T16:28:22.15Z</time></trkpt><trkpt lat="44.806105" lon="8.3747583"><ele>128.5</ele><time>2026-05-01T16:28:23.153Z</time></trkpt><trkpt lat="44.806075" lon="8.3746017"><ele>129.0</ele><time>2026-05-01T16:28:24.152Z</time></trkpt><trkpt lat="44.8060483" lon="8.374445"><ele>129.5</ele><time>2026-05-01T16:28:25.153Z</time></trkpt><trkpt lat="44.80602" lon="8.3742883"><ele>130.0</ele><time>2026-05-01T16:28:26.15Z</time></trkpt><trkpt lat="44.8059967" lon="8.3741317"><ele>130.2</ele><time>2026-05-01T16:28:27.153Z</time></trkpt><trkpt lat="44.8059717" lon="8.3739933"><ele>130.4</ele><time>2026-05-01T16:28:28.154Z</time></trkpt><trkpt lat="44.80596" lon="8.3738733"><ele>130.6</ele><time>2026-05-01T16:28:29.154Z</time></trkpt><trkpt lat="44.8059433" lon="8.37378"><ele>130.8</ele><time>2026-05-01T16:28:30.156Z</time></trkpt><trkpt lat="44.8059417" lon="8.373655"><ele>131.0</ele><time>2026-05-01T16:28:32.156Z</time></trkpt><trkpt lat="44.806015" lon="8.3735417"><ele>131.33333333333331</ele><time>2026-05-01T16:28:35.151Z</time></trkpt><trkpt lat="44.8060733" lon="8.37349"><ele>131.66666666666666</ele><time>2026-05-01T16:28:36.151Z</time></trkpt><trkpt lat="44.806145" lon="8.3734367"><ele>132.0</ele><time>2026-05-01T16:28:37.156Z</time></trkpt><trkpt lat="44.80622" lon="8.3734"><ele>132.33333333333334</ele><time>2026-05-01T16:28:38.15Z</time></trkpt><trkpt lat="44.806315" lon="8.3733583"><ele>132.66666666666669</ele><time>2026-05-01T16:28:39.148Z</time></trkpt><trkpt lat="44.8064233" lon="8.373325"><ele>133.0</ele><time>2026-05-01T16:28:40.152Z</time></trkpt><trkpt lat="44.8065333" lon="8.373305"><ele>133.0</ele><time>2026-05-01T16:28:41.15Z</time></trkpt><trkpt lat="44.806635" lon="8.373285"><ele>133.0</ele><time>2026-05-01T16:28:42.155Z</time></trkpt><trkpt lat="44.8067317" lon="8.3732667"><ele>133.0</ele><time>2026-05-01T16:28:43.153Z</time></trkpt><trkpt lat="44.806825" lon="8.37325"><ele>133.0</ele><time>2026-05-01T16:28:44.152Z</time></trkpt><trkpt lat="44.8069167" lon="8.3732517"><ele>133.0</ele><time>2026-05-01T16:28:45.149Z</time></trkpt><trkpt lat="44.80701" lon="8.373255"><ele>132.6</ele><time>2026-05-01T16:28:46.151Z</time></trkpt><trkpt lat="44.807105" lon="8.3732633"><ele>132.20000000000002</ele><time>2026-05-01T16:28:47.156Z</time></trkpt><trkpt lat="44.8071817" lon="8.3732783"><ele>131.8</ele><time>2026-05-01T16:28:48.155Z</time></trkpt><trkpt lat="44.80728" lon="8.373265"><ele>131.4</ele><time>2026-05-01T16:28:50.156Z</time></trkpt><trkpt lat="44.8073117" lon="8.373145"><ele>131.0</ele><time>2026-05-01T16:28:52.155Z</time></trkpt><trkpt lat="44.8073283" lon="8.3729933"><ele>130.6</ele><time>2026-05-01T16:28:54.153Z</time></trkpt><trkpt lat="44.80733" lon="8.3728867"><ele>130.2</ele><time>2026-05-01T16:28:55.151Z</time></trkpt><trkpt lat="44.8073317" lon="8.37277"><ele>129.8</ele><time>2026-05-01T16:28:56.155Z</time></trkpt><trkpt lat="44.80731" lon="8.3726317"><ele>129.4</ele><time>2026-05-01T16:28:57.151Z</time></trkpt><trkpt lat="44.807295" lon="8.3724883"><ele>129.0</ele><time>2026-05-01T16:28:58.151Z</time></trkpt><trkpt lat="44.8072783" lon="8.3723317"><ele>129.25</ele><time>2026-05-01T16:28:59.153Z</time></trkpt><trkpt lat="44.8072667" lon="8.3721683"><ele>129.5</ele><time>2026-05-01T16:29:00.155Z</time></trkpt><trkpt lat="44.8072517" lon="8.3720017"><ele>129.75</ele><time>2026-05-01T16:29:01.154Z</time></trkpt><trkpt lat="44.8072267" lon="8.3718317"><ele>130.0</ele><time>2026-05-01T16:29:02.154Z</time></trkpt><trkpt lat="44.8072033" lon="8.3716633"><ele>130.0</ele><time>2026-05-01T16:29:03.15Z</time></trkpt><trkpt lat="44.807175" lon="8.3715033"><ele>130.0</ele><time>2026-05-01T16:29:04.148Z</time></trkpt><trkpt lat="44.8071667" lon="8.371345"><ele>130.0</ele><time>2026-05-01T16:29:05.15Z</time></trkpt><trkpt lat="44.8071483" lon="8.3711917"><ele>130.0</ele><time>2026-05-01T16:29:06.158Z</time></trkpt><trkpt lat="44.8071367" lon="8.3710333"><ele>130.4</ele><time>2026-05-01T16:29:07.154Z</time></trkpt><trkpt lat="44.8071367" lon="8.3708767"><ele>130.8</ele><time>2026-05-01T16:29:08.151Z</time></trkpt><trkpt lat="44.8071217" lon="8.3707217"><ele>131.2</ele><time>2026-05-01T16:29:09.153Z</time></trkpt><trkpt lat="44.80712" lon="8.3705683"><ele>131.6</ele><time>2026-05-01T16:29:10.156Z</time></trkpt><trkpt lat="44.8071167" lon="8.37043"><ele>132.0</ele><time>2026-05-01T16:29:11.149Z</time></trkpt><trkpt lat="44.80711" lon="8.3703017"><ele>132.4</ele><time>2026-05-01T16:29:12.152Z</time></trkpt><trkpt lat="44.8071117" lon="8.3701783"><ele>132.79999999999998</ele><time>2026-05-01T16:29:13.154Z</time></trkpt><trkpt lat="44.8071233" lon="8.3700483"><ele>133.2</ele><time>2026-05-01T16:29:14.154Z</time></trkpt><trkpt lat="44.807155" lon="8.3699233"><ele>133.6</ele><time>2026-05-01T16:29:15.151Z</time></trkpt><trkpt lat="44.8072117" lon="8.3698083"><ele>134.0</ele><time>2026-05-01T16:29:16.151Z</time></trkpt><trkpt lat="44.8072833" lon="8.3696967"><ele>133.5</ele><time>2026-05-01T16:29:17.154Z</time></trkpt><trkpt lat="44.8073717" lon="8.3695833"><ele>133.0</ele><time>2026-05-01T16:29:18.151Z</time></trkpt><trkpt lat="44.8074833" lon="8.369475"><ele>132.5</ele><time>2026-05-01T16:29:19.15Z</time></trkpt><trkpt lat="44.8076117" lon="8.3693533"><ele>132.0</ele><time>2026-05-01T16:29:20.154Z</time></trkpt><trkpt lat="44.80775" lon="8.3692233"><ele>134.33333333333334</ele><time>2026-05-01T16:29:21.152Z</time></trkpt><trkpt lat="44.8078833" lon="8.3691033"><ele>136.66666666666669</ele><time>2026-05-01T16:29:22.148Z</time></trkpt><trkpt lat="44.80803" lon="8.3689917"><ele>139.0</ele><time>2026-05-01T16:29:23.151Z</time></trkpt><trkpt lat="44.808185" lon="8.3688617"><ele>137.33333333333334</ele><time>2026-05-01T16:29:24.15Z</time></trkpt><trkpt lat="44.8083467" lon="8.3687283"><ele>135.66666666666666</ele><time>2026-05-01T16:29:25.15Z</time></trkpt><trkpt lat="44.80851" lon="8.36859"><ele>134.0</ele><time>2026-05-01T16:29:26.152Z</time></trkpt><trkpt lat="44.8086783" lon="8.3684433"><ele>137.33333333333331</ele><time>2026-05-01T16:29:27.153Z</time></trkpt><trkpt lat="44.8088567" lon="8.3683017"><ele>140.66666666666666</ele><time>2026-05-01T16:29:28.154Z</time></trkpt><trkpt lat="44.8090383" lon="8.3681667"><ele>144.0</ele><time>2026-05-01T16:29:29.15Z</time></trkpt><trkpt lat="44.8092183" lon="8.368045"><ele>143.0</ele><time>2026-05-01T16:29:30.153Z</time></trkpt><trkpt lat="44.8094" lon="8.367925"><ele>142.0</ele><time>2026-05-01T16:29:31.155Z</time></trkpt><trkpt lat="44.8095833" lon="8.3678033"><ele>141.0</ele><time>2026-05-01T16:29:32.151Z</time></trkpt><trkpt lat="44.8097667" lon="8.3676717"><ele>141.0</ele><time>2026-05-01T16:29:33.153Z</time></trkpt><trkpt lat="44.8099567" lon="8.3675533"><ele>141.0</ele><time>2026-05-01T16:29:34.15Z</time></trkpt><trkpt lat="44.8101533" lon="8.3674333"><ele>141.0</ele><time>2026-05-01T16:29:35.15Z</time></trkpt><trkpt lat="44.81035" lon="8.3672983"><ele>141.66666666666666</ele><time>2026-05-01T16:29:36.152Z</time></trkpt><trkpt lat="44.8105433" lon="8.367165"><ele>142.33333333333331</ele><time>2026-05-01T16:29:37.161Z</time></trkpt><trkpt lat="44.8107283" lon="8.3670417"><ele>143.0</ele><time>2026-05-01T16:29:38.151Z</time></trkpt><trkpt lat="44.8109167" lon="8.3669133"><ele>144.66666666666666</ele><time>2026-05-01T16:29:39.155Z</time></trkpt><trkpt lat="44.8111017" lon="8.36679"><ele>146.33333333333334</ele><time>2026-05-01T16:29:40.154Z</time></trkpt><trkpt lat="44.81128" lon="8.3666317"><ele>148.0</ele><time>2026-05-01T16:29:41.152Z</time></trkpt><trkpt lat="44.81145" lon="8.3664867"><ele>148.0</ele><time>2026-05-01T16:29:42.151Z</time></trkpt><trkpt lat="44.8116183" lon="8.366325"><ele>148.0</ele><time>2026-05-01T16:29:43.151Z</time></trkpt><trkpt lat="44.8117867" lon="8.36615"><ele>148.0</ele><time>2026-05-01T16:29:44.157Z</time></trkpt><trkpt lat="44.81196" lon="8.3659783"><ele>148.0</ele><time>2026-05-01T16:29:45.151Z</time></trkpt><trkpt lat="44.8121333" lon="8.36581"><ele>148.0</ele><time>2026-05-01T16:29:46.152Z</time></trkpt><trkpt lat="44.8123067" lon="8.365635"><ele>148.0</ele><time>2026-05-01T16:29:47.156Z</time></trkpt><trkpt lat="44.81248" lon="8.36546"><ele>148.66666666666669</ele><time>2026-05-01T16:29:48.155Z</time></trkpt><trkpt lat="44.81265" lon="8.3652867"><ele>149.33333333333334</ele><time>2026-05-01T16:29:49.155Z</time></trkpt><trkpt lat="44.8128117" lon="8.3651217"><ele>150.0</ele><time>2026-05-01T16:29:50.154Z</time></trkpt><trkpt lat="44.8129633" lon="8.364955"><ele>149.66666666666666</ele><time>2026-05-01T16:29:51.149Z</time></trkpt><trkpt lat="44.813105" lon="8.3648067"><ele>149.33333333333331</ele><time>2026-05-01T16:29:52.154Z</time></trkpt><trkpt lat="44.813235" lon="8.364665"><ele>149.0</ele><time>2026-05-01T16:29:53.15Z</time></trkpt><trkpt lat="44.813345" lon="8.364525"><ele>149.0</ele><time>2026-05-01T16:29:54.153Z</time></trkpt><trkpt lat="44.8134317" lon="8.3643567"><ele>149.0</ele><time>2026-05-01T16:29:55.152Z</time></trkpt><trkpt lat="44.81349" lon="8.3641717"><ele>149.0</ele><time>2026-05-01T16:29:56.154Z</time></trkpt><trkpt lat="44.8135233" lon="8.3639617"><ele>149.0</ele><time>2026-05-01T16:29:57.153Z</time></trkpt><trkpt lat="44.813555" lon="8.3637533"><ele>153.0</ele><time>2026-05-01T16:29:58.152Z</time></trkpt><trkpt lat="44.8135833" lon="8.3635517"><ele>157.0</ele><time>2026-05-01T16:29:59.153Z</time></trkpt><trkpt lat="44.8136167" lon="8.36335"><ele>161.0</ele><time>2026-05-01T16:30:00.151Z</time></trkpt><trkpt lat="44.8136617" lon="8.363155"><ele>165.0</ele><time>2026-05-01T16:30:01.152Z</time></trkpt><trkpt lat="44.813715" lon="8.3629633"><ele>165.0</ele><time>2026-05-01T16:30:02.149Z</time></trkpt><trkpt lat="44.8137617" lon="8.3627733"><ele>165.0</ele><time>2026-05-01T16:30:03.149Z</time></trkpt><trkpt lat="44.8138233" lon="8.36261"><ele>165.0</ele><time>2026-05-01T16:30:04.154Z</time></trkpt><trkpt lat="44.8139" lon="8.3624617"><ele>165.0</ele><time>2026-05-01T16:30:05.151Z</time></trkpt><trkpt lat="44.8139917" lon="8.362315"><ele>164.5</ele><time>2026-05-01T16:30:06.153Z</time></trkpt><trkpt lat="44.8140883" lon="8.3621767"><ele>164.0</ele><time>2026-05-01T16:30:07.154Z</time></trkpt><trkpt lat="44.814185" lon="8.36204"><ele>163.5</ele><time>2026-05-01T16:30:08.155Z</time></trkpt><trkpt lat="44.8142917" lon="8.3619"><ele>163.0</ele><time>2026-05-01T16:30:09.151Z</time></trkpt><trkpt lat="44.8144133" lon="8.36177"><ele>163.0</ele><time>2026-05-01T16:30:10.151Z</time></trkpt><trkpt lat="44.8145483" lon="8.3616567"><ele>163.0</ele><time>2026-05-01T16:30:11.148Z</time></trkpt><trkpt lat="44.8146933" lon="8.3615767"><ele>163.0</ele><time>2026-05-01T16:30:12.152Z</time></trkpt><trkpt lat="44.8148483" lon="8.3615133"><ele>163.0</ele><time>2026-05-01T16:30:13.151Z</time></trkpt><trkpt lat="44.8149983" lon="8.3614333"><ele>163.0</ele><time>2026-05-01T16:30:14.155Z</time></trkpt><trkpt lat="44.81515" lon="8.36136"><ele>163.0</ele><time>2026-05-01T16:30:15.151Z</time></trkpt><trkpt lat="44.8152983" lon="8.3612783"><ele>161.0</ele><time>2026-05-01T16:30:16.149Z</time></trkpt><trkpt lat="44.8154433" lon="8.36115"><ele>159.0</ele><time>2026-05-01T16:30:17.154Z</time></trkpt><trkpt lat="44.8155983" lon="8.36098"><ele>157.0</ele><time>2026-05-01T16:30:18.152Z</time></trkpt><trkpt lat="44.8157567" lon="8.3607933"><ele>157.0</ele><time>2026-05-01T16:30:19.155Z</time></trkpt><trkpt lat="44.81594" lon="8.3606017"><ele>157.0</ele><time>2026-05-01T16:30:20.153Z</time></trkpt><trkpt lat="44.816125" lon="8.3604083"><ele>160.66666666666669</ele><time>2026-05-01T16:30:21.152Z</time></trkpt><trkpt lat="44.81631" lon="8.3602233"><ele>164.33333333333334</ele><time>2026-05-01T16:30:22.155Z</time></trkpt><trkpt lat="44.8164833" lon="8.36003"><ele>168.0</ele><time>2026-05-01T16:30:23.152Z</time></trkpt><trkpt lat="44.816645" lon="8.359835"><ele>167.66666666666666</ele><time>2026-05-01T16:30:24.155Z</time></trkpt><trkpt lat="44.8167983" lon="8.3596567"><ele>167.33333333333331</ele><time>2026-05-01T16:30:25.15Z</time></trkpt><trkpt lat="44.8169383" lon="8.359495"><ele>167.0</ele><time>2026-05-01T16:30:26.151Z</time></trkpt><trkpt lat="44.8170683" lon="8.3593433"><ele>167.0</ele><time>2026-05-01T16:30:27.151Z</time></trkpt><trkpt lat="44.8171933" lon="8.35918"><ele>167.0</ele><time>2026-05-01T16:30:28.155Z</time></trkpt><trkpt lat="44.81733" lon="8.3590233"><ele>167.0</ele><time>2026-05-01T16:30:29.154Z</time></trkpt><trkpt lat="44.8174733" lon="8.3588433"><ele>168.0</ele><time>2026-05-01T16:30:30.15Z</time></trkpt><trkpt lat="44.8176217" lon="8.358665"><ele>169.0</ele><time>2026-05-01T16:30:31.152Z</time></trkpt><trkpt lat="44.81777" lon="8.3585"><ele>170.0</ele><time>2026-05-01T16:30:32.15Z</time></trkpt><trkpt lat="44.81792" lon="8.35836"><ele>170.0</ele><time>2026-05-01T16:30:33.152Z</time></trkpt><trkpt lat="44.8180633" lon="8.35825"><ele>170.0</ele><time>2026-05-01T16:30:34.151Z</time></trkpt><trkpt lat="44.8182133" lon="8.3581683"><ele>170.0</ele><time>2026-05-01T16:30:35.152Z</time></trkpt><trkpt lat="44.81837" lon="8.3581267"><ele>171.0</ele><time>2026-05-01T16:30:36.152Z</time></trkpt><trkpt lat="44.8185467" lon="8.3581"><ele>172.0</ele><time>2026-05-01T16:30:37.151Z</time></trkpt><trkpt lat="44.8187333" lon="8.35807"><ele>173.0</ele><time>2026-05-01T16:30:38.157Z</time></trkpt><trkpt lat="44.81892" lon="8.3580333"><ele>174.66666666666666</ele><time>2026-05-01T16:30:39.151Z</time></trkpt><trkpt lat="44.8191033" lon="8.3580033"><ele>176.33333333333334</ele><time>2026-05-01T16:30:40.153Z</time></trkpt><trkpt lat="44.81927" lon="8.3579833"><ele>178.0</ele><time>2026-05-01T16:30:41.159Z</time></trkpt><trkpt lat="44.8194033" lon="8.3579317"><ele>178.0</ele><time>2026-05-01T16:30:42.161Z</time></trkpt><trkpt lat="44.8195233" lon="8.3578583"><ele>178.0</ele><time>2026-05-01T16:30:43.152Z</time></trkpt><trkpt lat="44.81961" lon="8.35775"><ele>178.0</ele><time>2026-05-01T16:30:44.152Z</time></trkpt><trkpt lat="44.8196767" lon="8.3576083"><ele>178.0</ele><time>2026-05-01T16:30:45.15Z</time></trkpt><trkpt lat="44.8197467" lon="8.3574333"><ele>178.0</ele><time>2026-05-01T16:30:46.15Z</time></trkpt><trkpt lat="44.8198167" lon="8.35723"><ele>178.0</ele><time>2026-05-01T16:30:47.152Z</time></trkpt><trkpt lat="44.8198867" lon="8.3570017"><ele>178.0</ele><time>2026-05-01T16:30:48.15Z</time></trkpt><trkpt lat="44.819965" lon="8.3567633"><ele>177.0</ele><time>2026-05-01T16:30:49.158Z</time></trkpt><trkpt lat="44.8200417" lon="8.3565267"><ele>176.0</ele><time>2026-05-01T16:30:50.152Z</time></trkpt><trkpt lat="44.82011" lon="8.3562933"><ele>175.0</ele><time>2026-05-01T16:30:51.155Z</time></trkpt><trkpt lat="44.8201733" lon="8.3560783"><ele>180.75</ele><time>2026-05-01T16:30:52.157Z</time></trkpt><trkpt lat="44.8202183" lon="8.355875"><ele>186.5</ele><time>2026-05-01T16:30:53.153Z</time></trkpt><trkpt lat="44.8202467" lon="8.3556883"><ele>192.25</ele><time>2026-05-01T16:30:54.155Z</time></trkpt><trkpt lat="44.8202583" lon="8.355515"><ele>198.0</ele><time>2026-05-01T16:30:55.155Z</time></trkpt><trkpt lat="44.8202767" lon="8.355375"><ele>198.0</ele><time>2026-05-01T16:30:56.156Z</time></trkpt><trkpt lat="44.820315" lon="8.355275"><ele>198.0</ele><time>2026-05-01T16:30:57.151Z</time></trkpt><trkpt lat="44.82036" lon="8.3552033"><ele>198.0</ele><time>2026-05-01T16:30:58.152Z</time></trkpt><trkpt lat="44.8204567" lon="8.35522"><ele>198.0</ele><time>2026-05-01T16:30:59.156Z</time></trkpt><trkpt lat="44.8205233" lon="8.3552733"><ele>198.0</ele><time>2026-05-01T16:31:00.154Z</time></trkpt><trkpt lat="44.8205767" lon="8.355355"><ele>198.0</ele><time>2026-05-01T16:31:01.152Z</time></trkpt><trkpt lat="44.82062" lon="8.3554383"><ele>198.5</ele><time>2026-05-01T16:31:02.153Z</time></trkpt><trkpt lat="44.820555" lon="8.3556117"><ele>199.0</ele><time>2026-05-01T16:31:03.154Z</time></trkpt><trkpt lat="44.8204967" lon="8.3557483"><ele>199.5</ele><time>2026-05-01T16:31:04.152Z</time></trkpt><trkpt lat="44.8204367" lon="8.355915"><ele>200.0</ele><time>2026-05-01T16:31:05.155Z</time></trkpt><trkpt lat="44.8204017" lon="8.356095"><ele>200.0</ele><time>2026-05-01T16:31:06.153Z</time></trkpt><trkpt lat="44.8203667" lon="8.3562833"><ele>200.0</ele><time>2026-05-01T16:31:07.157Z</time></trkpt><trkpt lat="44.820345" lon="8.3564817"><ele>200.0</ele><time>2026-05-01T16:31:08.153Z</time></trkpt><trkpt lat="44.820335" lon="8.3566833"><ele>200.0</ele><time>2026-05-01T16:31:09.151Z</time></trkpt><trkpt lat="44.8203333" lon="8.3568833"><ele>200.0</ele><time>2026-05-01T16:31:10.155Z</time></trkpt><trkpt lat="44.8203417" lon="8.3570733"><ele>200.0</ele><time>2026-05-01T16:31:11.151Z</time></trkpt><trkpt lat="44.8203633" lon="8.3572533"><ele>200.0</ele><time>2026-05-01T16:31:12.157Z</time></trkpt><trkpt lat="44.8204" lon="8.3574167"><ele>200.0</ele><time>2026-05-01T16:31:13.159Z</time></trkpt><trkpt lat="44.8204617" lon="8.3575583"><ele>200.0</ele><time>2026-05-01T16:31:14.153Z</time></trkpt><trkpt lat="44.8205333" lon="8.3576583"><ele>200.0</ele><time>2026-05-01T16:31:15.162Z</time></trkpt><trkpt lat="44.8206167" lon="8.35772"><ele>200.0</ele><time>2026-05-01T16:31:16.153Z</time></trkpt><trkpt lat="44.8207117" lon="8.3577517"><ele>200.0</ele><time>2026-05-01T16:31:17.153Z</time></trkpt><trkpt lat="44.82081" lon="8.3577283"><ele>200.0</ele><time>2026-05-01T16:31:18.15Z</time></trkpt><trkpt lat="44.8208983" lon="8.3576633"><ele>199.0</ele><time>2026-05-01T16:31:19.151Z</time></trkpt><trkpt lat="44.821" lon="8.3575783"><ele>198.0</ele><time>2026-05-01T16:31:20.15Z</time></trkpt><trkpt lat="44.8211017" lon="8.3574633"><ele>197.0</ele><time>2026-05-01T16:31:21.157Z</time></trkpt><trkpt lat="44.8211967" lon="8.357295"><ele>196.0</ele><time>2026-05-01T16:31:22.159Z</time></trkpt><trkpt lat="44.8212917" lon="8.357105"><ele>195.33333333333331</ele><time>2026-05-01T16:31:23.156Z</time></trkpt><trkpt lat="44.8213867" lon="8.35691"><ele>194.66666666666669</ele><time>2026-05-01T16:31:24.159Z</time></trkpt><trkpt lat="44.82148" lon="8.3567083"><ele>194.0</ele><time>2026-05-01T16:31:25.153Z</time></trkpt><trkpt lat="44.8215767" lon="8.3565083"><ele>194.75</ele><time>2026-05-01T16:31:26.151Z</time></trkpt><trkpt lat="44.8216717" lon="8.3563317"><ele>195.5</ele><time>2026-05-01T16:31:27.156Z</time></trkpt><trkpt lat="44.8217567" lon="8.3561783"><ele>196.25</ele><time>2026-05-01T16:31:28.153Z</time></trkpt><trkpt lat="44.8218317" lon="8.3560683"><ele>197.0</ele><time>2026-05-01T16:31:29.153Z</time></trkpt><trkpt lat="44.8218983" lon="8.356005"><ele>195.16666666666669</ele><time>2026-05-01T16:31:30.154Z</time></trkpt><trkpt lat="44.821965" lon="8.3559617"><ele>193.33333333333334</ele><time>2026-05-01T16:31:31.156Z</time></trkpt><trkpt lat="44.8220133" lon="8.356025"><ele>191.5</ele><time>2026-05-01T16:31:32.153Z</time></trkpt><trkpt lat="44.82201" lon="8.3561317"><ele>189.66666666666669</ele><time>2026-05-01T16:31:33.151Z</time></trkpt><trkpt lat="44.8220067" lon="8.3562383"><ele>187.83333333333334</ele><time>2026-05-01T16:31:34.153Z</time></trkpt><trkpt lat="44.8219883" lon="8.3563617"><ele>186.0</ele><time>2026-05-01T16:31:35.154Z</time></trkpt><trkpt lat="44.8219517" lon="8.35652"><ele>184.0</ele><time>2026-05-01T16:31:36.154Z</time></trkpt><trkpt lat="44.8218933" lon="8.3567217"><ele>182.0</ele><time>2026-05-01T16:31:37.154Z</time></trkpt><trkpt lat="44.821855" lon="8.356905"><ele>180.0</ele><time>2026-05-01T16:31:38.157Z</time></trkpt><trkpt lat="44.8218467" lon="8.357085"><ele>178.0</ele><time>2026-05-01T16:31:39.154Z</time></trkpt><trkpt lat="44.8218733" lon="8.3572583"><ele>178.0</ele><time>2026-05-01T16:31:40.153Z</time></trkpt><trkpt lat="44.8219267" lon="8.3574083"><ele>178.0</ele><time>2026-05-01T16:31:41.157Z</time></trkpt><trkpt lat="44.8220017" lon="8.357525"><ele>178.0</ele><time>2026-05-01T16:31:42.153Z</time></trkpt><trkpt lat="44.8221" lon="8.357605"><ele>178.0</ele><time>2026-05-01T16:31:43.16Z</time></trkpt><trkpt lat="44.822225" lon="8.357665"><ele>178.0</ele><time>2026-05-01T16:31:44.152Z</time></trkpt><trkpt lat="44.8223617" lon="8.3577117"><ele>178.0</ele><time>2026-05-01T16:31:45.156Z</time></trkpt><trkpt lat="44.82251" lon="8.357735"><ele>178.0</ele><time>2026-05-01T16:31:46.154Z</time></trkpt><trkpt lat="44.822665" lon="8.3577333"><ele>178.0</ele><time>2026-05-01T16:31:47.154Z</time></trkpt><trkpt lat="44.82282" lon="8.357715"><ele>176.33333333333334</ele><time>2026-05-01T16:31:48.155Z</time></trkpt><trkpt lat="44.8229817" lon="8.357675"><ele>174.66666666666666</ele><time>2026-05-01T16:31:49.151Z</time></trkpt><trkpt lat="44.8231467" lon="8.3576283"><ele>173.0</ele><time>2026-05-01T16:31:50.155Z</time></trkpt><trkpt lat="44.8233083" lon="8.357575"><ele>173.0</ele><time>2026-05-01T16:31:51.154Z</time></trkpt><trkpt lat="44.8234683" lon="8.35754"><ele>173.0</ele><time>2026-05-01T16:31:52.152Z</time></trkpt><trkpt lat="44.8236283" lon="8.35753"><ele>173.0</ele><time>2026-05-01T16:31:53.154Z</time></trkpt><trkpt lat="44.823795" lon="8.3575633"><ele>169.33333333333331</ele><time>2026-05-01T16:31:54.154Z</time></trkpt><trkpt lat="44.8239717" lon="8.357595"><ele>165.66666666666666</ele><time>2026-05-01T16:31:55.152Z</time></trkpt><trkpt lat="44.8241567" lon="8.3576417"><ele>162.0</ele><time>2026-05-01T16:31:56.153Z</time></trkpt><trkpt lat="44.8243483" lon="8.3576817"><ele>159.66666666666666</ele><time>2026-05-01T16:31:57.151Z</time></trkpt><trkpt lat="44.8245483" lon="8.3577233"><ele>157.33333333333331</ele><time>2026-05-01T16:31:58.153Z</time></trkpt><trkpt lat="44.824745" lon="8.357765"><ele>155.0</ele><time>2026-05-01T16:31:59.155Z</time></trkpt><trkpt lat="44.8249267" lon="8.3578083"><ele>155.0</ele><time>2026-05-01T16:32:00.153Z</time></trkpt><trkpt lat="44.8250833" lon="8.357845"><ele>155.0</ele><time>2026-05-01T16:32:01.156Z</time></trkpt><trkpt lat="44.8252217" lon="8.357875"><ele>155.0</ele><time>2026-05-01T16:32:02.155Z</time></trkpt><trkpt lat="44.8253317" lon="8.3578933"><ele>155.0</ele><time>2026-05-01T16:32:03.155Z</time></trkpt><trkpt lat="44.825405" lon="8.35785"><ele>154.33333333333331</ele><time>2026-05-01T16:32:04.15Z</time></trkpt><trkpt lat="44.8254667" lon="8.3578067"><ele>153.66666666666666</ele><time>2026-05-01T16:32:05.156Z</time></trkpt><trkpt lat="44.8254783" lon="8.3577133"><ele>153.0</ele><time>2026-05-01T16:32:06.151Z</time></trkpt><trkpt lat="44.8254483" lon="8.35761"><ele>152.33333333333334</ele><time>2026-05-01T16:32:07.153Z</time></trkpt><trkpt lat="44.825405" lon="8.35751"><ele>151.66666666666669</ele><time>2026-05-01T16:32:08.158Z</time></trkpt><trkpt lat="44.8253367" lon="8.357405"><ele>151.0</ele><time>2026-05-01T16:32:09.153Z</time></trkpt><trkpt lat="44.8252333" lon="8.3573017"><ele>150.2</ele><time>2026-05-01T16:32:10.154Z</time></trkpt><trkpt lat="44.8251567" lon="8.3571917"><ele>149.39999999999998</ele><time>2026-05-01T16:32:11.153Z</time></trkpt><trkpt lat="44.8251" lon="8.3570783"><ele>148.6</ele><time>2026-05-01T16:32:12.155Z</time></trkpt><trkpt lat="44.8250767" lon="8.356975"><ele>147.79999999999998</ele><time>2026-05-01T16:32:13.156Z</time></trkpt><trkpt lat="44.8251433" lon="8.356865"><ele>147.0</ele><time>2026-05-01T16:32:15.15Z</time></trkpt><trkpt lat="44.825275" lon="8.3568883"><ele>148.0</ele><time>2026-05-01T16:32:17.153Z</time></trkpt><trkpt lat="44.82538" lon="8.3569517"><ele>149.0</ele><time>2026-05-01T16:32:18.153Z</time></trkpt><trkpt lat="44.8255317" lon="8.3570517"><ele>150.0</ele><time>2026-05-01T16:32:19.154Z</time></trkpt><trkpt lat="44.82568" lon="8.3571333"><ele>151.0</ele><time>2026-05-01T16:32:20.155Z</time></trkpt><trkpt lat="44.8258367" lon="8.3572217"><ele>147.33333333333334</ele><time>2026-05-01T16:32:21.155Z</time></trkpt><trkpt lat="44.8259883" lon="8.3572983"><ele>143.66666666666666</ele><time>2026-05-01T16:32:22.152Z</time></trkpt><trkpt lat="44.8261517" lon="8.3573567"><ele>140.0</ele><time>2026-05-01T16:32:23.16Z</time></trkpt><trkpt lat="44.826315" lon="8.3573733"><ele>140.0</ele><time>2026-05-01T16:32:24.152Z</time></trkpt><trkpt lat="44.8264833" lon="8.35736"><ele>140.0</ele><time>2026-05-01T16:32:25.153Z</time></trkpt><trkpt lat="44.826655" lon="8.357315"><ele>140.0</ele><time>2026-05-01T16:32:26.15Z</time></trkpt><trkpt lat="44.826815" lon="8.3572467"><ele>138.0</ele><time>2026-05-01T16:32:27.154Z</time></trkpt><trkpt lat="44.826955" lon="8.3571717"><ele>136.0</ele><time>2026-05-01T16:32:28.15Z</time></trkpt><trkpt lat="44.8270717" lon="8.357095"><ele>134.0</ele><time>2026-05-01T16:32:29.154Z</time></trkpt><trkpt lat="44.8271717" lon="8.357025"><ele>132.0</ele><time>2026-05-01T16:32:30.158Z</time></trkpt><trkpt lat="44.8272583" lon="8.3569683"><ele>132.0</ele><time>2026-05-01T16:32:31.15Z</time></trkpt><trkpt lat="44.82734" lon="8.3569167"><ele>132.0</ele><time>2026-05-01T16:32:32.154Z</time></trkpt><trkpt lat="44.827415" lon="8.3568717"><ele>132.0</ele><time>2026-05-01T16:32:33.154Z</time></trkpt><trkpt lat="44.8274917" lon="8.356825"><ele>132.0</ele><time>2026-05-01T16:32:34.151Z</time></trkpt><trkpt lat="44.8275717" lon="8.3567717"><ele>132.0</ele><time>2026-05-01T16:32:35.152Z</time></trkpt><trkpt lat="44.8276783" lon="8.3567117"><ele>130.25</ele><time>2026-05-01T16:32:36.152Z</time></trkpt><trkpt lat="44.82779" lon="8.35664"><ele>128.5</ele><time>2026-05-01T16:32:37.153Z</time></trkpt><trkpt lat="44.8279117" lon="8.356555"><ele>126.75</ele><time>2026-05-01T16:32:38.154Z</time></trkpt><trkpt lat="44.8280467" lon="8.356465"><ele>125.0</ele><time>2026-05-01T16:32:39.151Z</time></trkpt><trkpt lat="44.8281883" lon="8.3563717"><ele>125.66666666666666</ele><time>2026-05-01T16:32:40.153Z</time></trkpt><trkpt lat="44.8283383" lon="8.3562717"><ele>126.33333333333334</ele><time>2026-05-01T16:32:41.154Z</time></trkpt><trkpt lat="44.8284917" lon="8.3561733"><ele>127.0</ele><time>2026-05-01T16:32:42.161Z</time></trkpt><trkpt lat="44.8286417" lon="8.3560867"><ele>127.0</ele><time>2026-05-01T16:32:43.159Z</time></trkpt><trkpt lat="44.8287883" lon="8.3560133"><ele>127.0</ele><time>2026-05-01T16:32:44.151Z</time></trkpt><trkpt lat="44.8289383" lon="8.3559617"><ele>127.0</ele><time>2026-05-01T16:32:45.151Z</time></trkpt><trkpt lat="44.8291033" lon="8.3559367"><ele>127.0</ele><time>2026-05-01T16:32:46.155Z</time></trkpt><trkpt lat="44.82928" lon="8.355925"><ele>127.0</ele><time>2026-05-01T16:32:47.152Z</time></trkpt><trkpt lat="44.8294717" lon="8.3559267"><ele>127.0</ele><time>2026-05-01T16:32:48.153Z</time></trkpt><trkpt lat="44.8296667" lon="8.3559433"><ele>126.0</ele><time>2026-05-01T16:32:49.155Z</time></trkpt><trkpt lat="44.829855" lon="8.3559617"><ele>125.0</ele><time>2026-05-01T16:32:50.151Z</time></trkpt><trkpt lat="44.830035" lon="8.35598"><ele>124.0</ele><time>2026-05-01T16:32:51.151Z</time></trkpt><trkpt lat="44.8302133" lon="8.3559917"><ele>124.0</ele><time>2026-05-01T16:32:52.151Z</time></trkpt><trkpt lat="44.8303883" lon="8.3560083"><ele>124.0</ele><time>2026-05-01T16:32:53.152Z</time></trkpt><trkpt lat="44.83056" lon="8.356025"><ele>124.0</ele><time>2026-05-01T16:32:54.155Z</time></trkpt><trkpt lat="44.8307267" lon="8.35605"><ele>124.0</ele><time>2026-05-01T16:32:55.153Z</time></trkpt><trkpt lat="44.8308933" lon="8.3560767"><ele>124.0</ele><time>2026-05-01T16:32:56.154Z</time></trkpt><trkpt lat="44.8310517" lon="8.3561017"><ele>124.0</ele><time>2026-05-01T16:32:57.152Z</time></trkpt><trkpt lat="44.831195" lon="8.3561283"><ele>124.4</ele><time>2026-05-01T16:32:58.153Z</time></trkpt><trkpt lat="44.831315" lon="8.3561517"><ele>124.80000000000001</ele><time>2026-05-01T16:32:59.154Z</time></trkpt><trkpt lat="44.831415" lon="8.3561933"><ele>125.19999999999999</ele><time>2026-05-01T16:33:00.157Z</time></trkpt><trkpt lat="44.8315" lon="8.3562383"><ele>125.6</ele><time>2026-05-01T16:33:01.157Z</time></trkpt><trkpt lat="44.8315617" lon="8.35631"><ele>126.0</ele><time>2026-05-01T16:33:02.152Z</time></trkpt><trkpt lat="44.8316167" lon="8.3564067"><ele>126.0</ele><time>2026-05-01T16:33:03.154Z</time></trkpt><trkpt lat="44.8316333" lon="8.3565267"><ele>126.0</ele><time>2026-05-01T16:33:04.154Z</time></trkpt><trkpt lat="44.8316317" lon="8.3566533"><ele>126.0</ele><time>2026-05-01T16:33:05.155Z</time></trkpt><trkpt lat="44.831635" lon="8.356775"><ele>126.0</ele><time>2026-05-01T16:33:06.151Z</time></trkpt><trkpt lat="44.8316567" lon="8.3568883"><ele>126.0</ele><time>2026-05-01T16:33:07.156Z</time></trkpt><trkpt lat="44.8317017" lon="8.3569517"><ele>126.0</ele><time>2026-05-01T16:33:08.151Z</time></trkpt><trkpt lat="44.83176" lon="8.3569883"><ele>127.83333333333333</ele><time>2026-05-01T16:33:09.157Z</time></trkpt><trkpt lat="44.8318233" lon="8.3569483"><ele>129.66666666666666</ele><time>2026-05-01T16:33:10.149Z</time></trkpt><trkpt lat="44.8318867" lon="8.3569033"><ele>131.5</ele><time>2026-05-01T16:33:11.151Z</time></trkpt><trkpt lat="44.8319383" lon="8.356815"><ele>133.33333333333331</ele><time>2026-05-01T16:33:12.148Z</time></trkpt><trkpt lat="44.8319933" lon="8.356705"><ele>135.16666666666666</ele><time>2026-05-01T16:33:13.152Z</time></trkpt><trkpt lat="44.8320433" lon="8.35657"><ele>137.0</ele><time>2026-05-01T16:33:14.156Z</time></trkpt><trkpt lat="44.8320917" lon="8.3564333"><ele>137.0</ele><time>2026-05-01T16:33:15.158Z</time></trkpt><trkpt lat="44.8321333" lon="8.3562917"><ele>137.0</ele><time>2026-05-01T16:33:16.155Z</time></trkpt><trkpt lat="44.83216" lon="8.3561417"><ele>137.0</ele><time>2026-05-01T16:33:17.157Z</time></trkpt><trkpt lat="44.8321867" lon="8.3559983"><ele>137.0</ele><time>2026-05-01T16:33:18.152Z</time></trkpt><trkpt lat="44.83223" lon="8.3558833"><ele>137.0</ele><time>2026-05-01T16:33:19.16Z</time></trkpt><trkpt lat="44.8322833" lon="8.3557833"><ele>137.0</ele><time>2026-05-01T16:33:20.151Z</time></trkpt><trkpt lat="44.832375" lon="8.355675"><ele>137.0</ele><time>2026-05-01T16:33:21.153Z</time></trkpt><trkpt lat="44.8324733" lon="8.3555433"><ele>137.0</ele><time>2026-05-01T16:33:22.154Z</time></trkpt><trkpt lat="44.83257" lon="8.3553967"><ele>137.0</ele><time>2026-05-01T16:33:23.159Z</time></trkpt><trkpt lat="44.8326617" lon="8.355235"><ele>137.66666666666666</ele><time>2026-05-01T16:33:24.155Z</time></trkpt><trkpt lat="44.8327467" lon="8.3550533"><ele>138.33333333333334</ele><time>2026-05-01T16:33:25.152Z</time></trkpt><trkpt lat="44.8328233" lon="8.3548683"><ele>139.0</ele><time>2026-05-01T16:33:26.152Z</time></trkpt><trkpt lat="44.832905" lon="8.35467"><ele>139.0</ele><time>2026-05-01T16:33:27.152Z</time></trkpt><trkpt lat="44.8329883" lon="8.3544667"><ele>139.0</ele><time>2026-05-01T16:33:28.152Z</time></trkpt><trkpt lat="44.8330683" lon="8.3542617"><ele>139.0</ele><time>2026-05-01T16:33:29.157Z</time></trkpt><trkpt lat="44.833145" lon="8.3540583"><ele>139.66666666666669</ele><time>2026-05-01T16:33:30.151Z</time></trkpt><trkpt lat="44.8332217" lon="8.35386"><ele>140.33333333333334</ele><time>2026-05-01T16:33:31.154Z</time></trkpt><trkpt lat="44.8333" lon="8.353665"><ele>141.0</ele><time>2026-05-01T16:33:32.154Z</time></trkpt><trkpt lat="44.8333767" lon="8.3534717"><ele>141.0</ele><time>2026-05-01T16:33:33.153Z</time></trkpt><trkpt lat="44.8334467" lon="8.35328"><ele>141.0</ele><time>2026-05-01T16:33:34.154Z</time></trkpt><trkpt lat="44.8335183" lon="8.3530933"><ele>141.0</ele><time>2026-05-01T16:33:35.154Z</time></trkpt><trkpt lat="44.8335917" lon="8.3529083"><ele>145.5</ele><time>2026-05-01T16:33:36.156Z</time></trkpt><trkpt lat="44.833665" lon="8.35273"><ele>150.0</ele><time>2026-05-01T16:33:37.153Z</time></trkpt><trkpt lat="44.8337333" lon="8.3525533"><ele>154.5</ele><time>2026-05-01T16:33:38.157Z</time></trkpt><trkpt lat="44.8338033" lon="8.35238"><ele>159.0</ele><time>2026-05-01T16:33:39.152Z</time></trkpt><trkpt lat="44.8338683" lon="8.35221"><ele>158.0</ele><time>2026-05-01T16:33:40.158Z</time></trkpt><trkpt lat="44.8339383" lon="8.352045"><ele>157.0</ele><time>2026-05-01T16:33:41.155Z</time></trkpt><trkpt lat="44.8340067" lon="8.35188"><ele>156.0</ele><time>2026-05-01T16:33:42.153Z</time></trkpt><trkpt lat="44.8340733" lon="8.3517083"><ele>155.0</ele><time>2026-05-01T16:33:43.155Z</time></trkpt><trkpt lat="44.8341283" lon="8.35154"><ele>155.0</ele><time>2026-05-01T16:33:44.156Z</time></trkpt><trkpt lat="44.8341783" lon="8.3513783"><ele>155.0</ele><time>2026-05-01T16:33:45.155Z</time></trkpt><trkpt lat="44.834235" lon="8.3512217"><ele>155.0</ele><time>2026-05-01T16:33:46.153Z</time></trkpt><trkpt lat="44.834295" lon="8.351075"><ele>155.0</ele><time>2026-05-01T16:33:47.151Z</time></trkpt><trkpt lat="44.8343483" lon="8.3509383"><ele>156.16666666666666</ele><time>2026-05-01T16:33:48.153Z</time></trkpt><trkpt lat="44.8343933" lon="8.3508233"><ele>157.33333333333331</ele><time>2026-05-01T16:33:49.152Z</time></trkpt><trkpt lat="44.83443" lon="8.35072"><ele>158.5</ele><time>2026-05-01T16:33:50.155Z</time></trkpt><trkpt lat="44.8344633" lon="8.350635"><ele>159.66666666666666</ele><time>2026-05-01T16:33:51.153Z</time></trkpt><trkpt lat="44.8345067" lon="8.3505683"><ele>160.83333333333334</ele><time>2026-05-01T16:33:52.156Z</time></trkpt><trkpt lat="44.8345567" lon="8.3505033"><ele>162.0</ele><time>2026-05-01T16:33:53.154Z</time></trkpt><trkpt lat="44.8346867" lon="8.3504883"><ele>162.66666666666666</ele><time>2026-05-01T16:33:55.154Z</time></trkpt><trkpt lat="44.8347483" lon="8.3505517"><ele>163.33333333333334</ele><time>2026-05-01T16:33:56.16Z</time></trkpt><trkpt lat="44.8348" lon="8.3506217"><ele>164.0</ele><time>2026-05-01T16:33:57.151Z</time></trkpt><trkpt lat="44.8348017" lon="8.350725"><ele>164.66666666666669</ele><time>2026-05-01T16:33:58.153Z</time></trkpt><trkpt lat="44.8347933" lon="8.35083"><ele>165.33333333333334</ele><time>2026-05-01T16:33:59.15Z</time></trkpt><trkpt lat="44.8347433" lon="8.3509317"><ele>166.0</ele><time>2026-05-01T16:34:00.156Z</time></trkpt><trkpt lat="44.8346867" lon="8.351025"><ele>166.0</ele><time>2026-05-01T16:34:01.156Z</time></trkpt><trkpt lat="44.83462" lon="8.351125"><ele>166.0</ele><time>2026-05-01T16:34:02.153Z</time></trkpt><trkpt lat="44.8345583" lon="8.351245"><ele>166.0</ele><time>2026-05-01T16:34:03.15Z</time></trkpt><trkpt lat="44.8345067" lon="8.3513817"><ele>166.0</ele><time>2026-05-01T16:34:04.155Z</time></trkpt><trkpt lat="44.83447" lon="8.3515217"><ele>166.0</ele><time>2026-05-01T16:34:05.152Z</time></trkpt><trkpt lat="44.8344417" lon="8.3516667"><ele>167.60000000000002</ele><time>2026-05-01T16:34:06.152Z</time></trkpt><trkpt lat="44.8344183" lon="8.3518117"><ele>169.2</ele><time>2026-05-01T16:34:07.155Z</time></trkpt><trkpt lat="44.8344017" lon="8.35195"><ele>170.8</ele><time>2026-05-01T16:34:08.153Z</time></trkpt><trkpt lat="44.8343833" lon="8.3520867"><ele>172.39999999999998</ele><time>2026-05-01T16:34:09.152Z</time></trkpt><trkpt lat="44.83436" lon="8.352225"><ele>174.0</ele><time>2026-05-01T16:34:10.153Z</time></trkpt><trkpt lat="44.83433" lon="8.3523517"><ele>174.0</ele><time>2026-05-01T16:34:11.154Z</time></trkpt><trkpt lat="44.8343017" lon="8.35247"><ele>174.0</ele><time>2026-05-01T16:34:12.154Z</time></trkpt><trkpt lat="44.83428" lon="8.3525917"><ele>174.0</ele><time>2026-05-01T16:34:13.154Z</time></trkpt><trkpt lat="44.834265" lon="8.3527233"><ele>174.0</ele><time>2026-05-01T16:34:14.154Z</time></trkpt><trkpt lat="44.834305" lon="8.3528033"><ele>174.0</ele><time>2026-05-01T16:34:15.154Z</time></trkpt><trkpt lat="44.8343517" lon="8.35288"><ele>174.0</ele><time>2026-05-01T16:34:16.154Z</time></trkpt><trkpt lat="44.8344233" lon="8.3529017"><ele>174.0</ele><time>2026-05-01T16:34:17.158Z</time></trkpt><trkpt lat="44.8344967" lon="8.352905"><ele>174.0</ele><time>2026-05-01T16:34:18.151Z</time></trkpt><trkpt lat="44.8345733" lon="8.352885"><ele>174.0</ele><time>2026-05-01T16:34:19.156Z</time></trkpt><trkpt lat="44.834635" lon="8.35283"><ele>174.0</ele><time>2026-05-01T16:34:20.153Z</time></trkpt><trkpt lat="44.83467" lon="8.3526833"><ele>174.0</ele><time>2026-05-01T16:34:21.154Z</time></trkpt><trkpt lat="44.8347117" lon="8.3525517"><ele>174.0</ele><time>2026-05-01T16:34:22.15Z</time></trkpt><trkpt lat="44.8347467" lon="8.3524267"><ele>174.0</ele><time>2026-05-01T16:34:23.158Z</time></trkpt><trkpt lat="44.8347817" lon="8.3523067"><ele>174.0</ele><time>2026-05-01T16:34:24.151Z</time></trkpt><trkpt lat="44.83482" lon="8.352195"><ele>174.0</ele><time>2026-05-01T16:34:25.159Z</time></trkpt><trkpt lat="44.8348533" lon="8.3520883"><ele>174.0</ele><time>2026-05-01T16:34:26.155Z</time></trkpt><trkpt lat="44.8348983" lon="8.3519967"><ele>174.0</ele><time>2026-05-01T16:34:27.155Z</time></trkpt><trkpt lat="44.834945" lon="8.351925"><ele>174.0</ele><time>2026-05-01T16:34:28.154Z</time></trkpt><trkpt lat="44.83503" lon="8.351935"><ele>174.0</ele><time>2026-05-01T16:34:29.153Z</time></trkpt><trkpt lat="44.8351067" lon="8.3519483"><ele>174.0</ele><time>2026-05-01T16:34:30.155Z</time></trkpt><trkpt lat="44.8351867" lon="8.3519983"><ele>174.0</ele><time>2026-05-01T16:34:31.155Z</time></trkpt><trkpt lat="44.8352883" lon="8.3521217"><ele>174.0</ele><time>2026-05-01T16:34:32.152Z</time></trkpt><trkpt lat="44.835405" lon="8.3522417"><ele>174.0</ele><time>2026-05-01T16:34:33.15Z</time></trkpt><trkpt lat="44.8355283" lon="8.3523733"><ele>178.0</ele><time>2026-05-01T16:34:34.152Z</time></trkpt><trkpt lat="44.83565" lon="8.3525083"><ele>182.0</ele><time>2026-05-01T16:34:35.152Z</time></trkpt><trkpt lat="44.8357733" lon="8.3526467"><ele>186.0</ele><time>2026-05-01T16:34:36.154Z</time></trkpt><trkpt lat="44.8358817" lon="8.3527917"><ele>192.0</ele><time>2026-05-01T16:34:37.152Z</time></trkpt><trkpt lat="44.8359717" lon="8.3529467"><ele>198.0</ele><time>2026-05-01T16:34:38.154Z</time></trkpt><trkpt lat="44.83604" lon="8.35313"><ele>204.0</ele><time>2026-05-01T16:34:39.155Z</time></trkpt><trkpt lat="44.8360917" lon="8.3533483"><ele>204.0</ele><time>2026-05-01T16:34:40.154Z</time></trkpt><trkpt lat="44.8361433" lon="8.3535883"><ele>204.0</ele><time>2026-05-01T16:34:41.148Z</time></trkpt><trkpt lat="44.8362017" lon="8.3538467"><ele>204.0</ele><time>2026-05-01T16:34:42.158Z</time></trkpt><trkpt lat="44.8362583" lon="8.354115"><ele>203.33333333333331</ele><time>2026-05-01T16:34:43.154Z</time></trkpt><trkpt lat="44.8363117" lon="8.3543767"><ele>202.66666666666666</ele><time>2026-05-01T16:34:44.154Z</time></trkpt><trkpt lat="44.836365" lon="8.3546367"><ele>202.0</ele><time>2026-05-01T16:34:45.152Z</time></trkpt><trkpt lat="44.8364133" lon="8.354895"><ele>200.33333333333331</ele><time>2026-05-01T16:34:46.152Z</time></trkpt><trkpt lat="44.8364617" lon="8.3551517"><ele>198.66666666666669</ele><time>2026-05-01T16:34:47.155Z</time></trkpt><trkpt lat="44.836515" lon="8.3553967"><ele>197.0</ele><time>2026-05-01T16:34:48.154Z</time></trkpt><trkpt lat="44.83657" lon="8.3556317"><ele>196.33333333333334</ele><time>2026-05-01T16:34:49.154Z</time></trkpt><trkpt lat="44.8366283" lon="8.3558383"><ele>195.66666666666669</ele><time>2026-05-01T16:34:50.151Z</time></trkpt><trkpt lat="44.8366983" lon="8.356025"><ele>195.0</ele><time>2026-05-01T16:34:51.155Z</time></trkpt><trkpt lat="44.8367967" lon="8.3561917"><ele>195.0</ele><time>2026-05-01T16:34:52.151Z</time></trkpt><trkpt lat="44.8369117" lon="8.3563283"><ele>195.0</ele><time>2026-05-01T16:34:53.154Z</time></trkpt><trkpt lat="44.8370467" lon="8.3564467"><ele>195.0</ele><time>2026-05-01T16:34:54.151Z</time></trkpt><trkpt lat="44.8372017" lon="8.356545"><ele>195.0</ele><time>2026-05-01T16:34:55.152Z</time></trkpt><trkpt lat="44.8373667" lon="8.3566367"><ele>195.0</ele><time>2026-05-01T16:34:56.15Z</time></trkpt><trkpt lat="44.837545" lon="8.356735"><ele>195.0</ele><time>2026-05-01T16:34:57.155Z</time></trkpt><trkpt lat="44.83772" lon="8.35684"><ele>196.33333333333331</ele><time>2026-05-01T16:34:58.153Z</time></trkpt><trkpt lat="44.8378933" lon="8.3569567"><ele>197.66666666666666</ele><time>2026-05-01T16:34:59.157Z</time></trkpt><trkpt lat="44.838065" lon="8.3570817"><ele>199.0</ele><time>2026-05-01T16:35:00.154Z</time></trkpt><trkpt lat="44.8382333" lon="8.357205"><ele>199.0</ele><time>2026-05-01T16:35:01.153Z</time></trkpt><trkpt lat="44.8383883" lon="8.3573167"><ele>199.0</ele><time>2026-05-01T16:35:02.153Z</time></trkpt><trkpt lat="44.8385283" lon="8.3574067"><ele>199.0</ele><time>2026-05-01T16:35:03.151Z</time></trkpt><trkpt lat="44.8386583" lon="8.3574667"><ele>199.75</ele><time>2026-05-01T16:35:04.154Z</time></trkpt><trkpt lat="44.8387817" lon="8.3574933"><ele>200.5</ele><time>2026-05-01T16:35:05.153Z</time></trkpt><trkpt lat="44.83891" lon="8.35749"><ele>201.25</ele><time>2026-05-01T16:35:06.156Z</time></trkpt><trkpt lat="44.8390467" lon="8.3574583"><ele>202.0</ele><time>2026-05-01T16:35:07.15Z</time></trkpt><trkpt lat="44.8391767" lon="8.3573883"><ele>198.33333333333331</ele><time>2026-05-01T16:35:08.153Z</time></trkpt><trkpt lat="44.8393083" lon="8.3572867"><ele>194.66666666666666</ele><time>2026-05-01T16:35:09.157Z</time></trkpt><trkpt lat="44.8394267" lon="8.35714"><ele>191.0</ele><time>2026-05-01T16:35:10.157Z</time></trkpt><trkpt lat="44.83955" lon="8.3569767"><ele>191.0</ele><time>2026-05-01T16:35:11.153Z</time></trkpt><trkpt lat="44.83968" lon="8.356795"><ele>191.0</ele><time>2026-05-01T16:35:12.153Z</time></trkpt><trkpt lat="44.8398117" lon="8.3565967"><ele>191.0</ele><time>2026-05-01T16:35:13.154Z</time></trkpt><trkpt lat="44.8399483" lon="8.3564"><ele>193.33333333333331</ele><time>2026-05-01T16:35:14.153Z</time></trkpt><trkpt lat="44.84009" lon="8.3562017"><ele>195.66666666666666</ele><time>2026-05-01T16:35:15.151Z</time></trkpt><trkpt lat="44.8402167" lon="8.3560233"><ele>198.0</ele><time>2026-05-01T16:35:16.15Z</time></trkpt><trkpt lat="44.84032" lon="8.3558733"><ele>193.25</ele><time>2026-05-01T16:35:17.154Z</time></trkpt><trkpt lat="44.8403933" lon="8.3557283"><ele>188.5</ele><time>2026-05-01T16:35:18.152Z</time></trkpt><trkpt lat="44.8404417" lon="8.355565"><ele>183.75</ele><time>2026-05-01T16:35:19.15Z</time></trkpt><trkpt lat="44.84047" lon="8.3553833"><ele>179.0</ele><time>2026-05-01T16:35:20.152Z</time></trkpt><trkpt lat="44.8404867" lon="8.35519"><ele>179.0</ele><time>2026-05-01T16:35:21.151Z</time></trkpt><trkpt lat="44.84049" lon="8.3549933"><ele>179.0</ele><time>2026-05-01T16:35:22.152Z</time></trkpt><trkpt lat="44.8405117" lon="8.3548"><ele>179.0</ele><time>2026-05-01T16:35:23.15Z</time></trkpt><trkpt lat="44.84056" lon="8.354615"><ele>179.0</ele><time>2026-05-01T16:35:24.153Z</time></trkpt><trkpt lat="44.8406317" lon="8.3544483"><ele>177.75</ele><time>2026-05-01T16:35:25.153Z</time></trkpt><trkpt lat="44.8407233" lon="8.3543017"><ele>176.5</ele><time>2026-05-01T16:35:26.156Z</time></trkpt><trkpt lat="44.8408367" lon="8.3541733"><ele>175.25</ele><time>2026-05-01T16:35:27.156Z</time></trkpt><trkpt lat="44.8409667" lon="8.3540567"><ele>174.0</ele><time>2026-05-01T16:35:28.155Z</time></trkpt><trkpt lat="44.8410917" lon="8.35393"><ele>176.0</ele><time>2026-05-01T16:35:29.149Z</time></trkpt><trkpt lat="44.8412117" lon="8.3537917"><ele>178.0</ele><time>2026-05-01T16:35:30.157Z</time></trkpt><trkpt lat="44.8413217" lon="8.3536417"><ele>180.0</ele><time>2026-05-01T16:35:31.157Z</time></trkpt><trkpt lat="44.841425" lon="8.3534833"><ele>180.0</ele><time>2026-05-01T16:35:32.152Z</time></trkpt><trkpt lat="44.8415217" lon="8.3533233"><ele>180.0</ele><time>2026-05-01T16:35:33.153Z</time></trkpt><trkpt lat="44.8416117" lon="8.3531817"><ele>180.0</ele><time>2026-05-01T16:35:34.157Z</time></trkpt><trkpt lat="44.841695" lon="8.35307"><ele>180.0</ele><time>2026-05-01T16:35:35.154Z</time></trkpt><trkpt lat="44.8417783" lon="8.3529933"><ele>177.2</ele><time>2026-05-01T16:35:36.153Z</time></trkpt><trkpt lat="44.8418633" lon="8.3529583"><ele>174.4</ele><time>2026-05-01T16:35:37.153Z</time></trkpt><trkpt lat="44.841945" lon="8.352945"><ele>171.60000000000002</ele><time>2026-05-01T16:35:38.152Z</time></trkpt><trkpt lat="44.8420233" lon="8.3530433"><ele>168.8</ele><time>2026-05-01T16:35:39.152Z</time></trkpt><trkpt lat="44.842105" lon="8.35316"><ele>166.0</ele><time>2026-05-01T16:35:40.152Z</time></trkpt><trkpt lat="44.8421567" lon="8.3532917"><ele>166.0</ele><time>2026-05-01T16:35:41.155Z</time></trkpt><trkpt lat="44.8421533" lon="8.3534283"><ele>166.0</ele><time>2026-05-01T16:35:42.154Z</time></trkpt><trkpt lat="44.8421283" lon="8.3535733"><ele>166.0</ele><time>2026-05-01T16:35:43.154Z</time></trkpt><trkpt lat="44.8420017" lon="8.35372"><ele>166.0</ele><time>2026-05-01T16:35:44.153Z</time></trkpt><trkpt lat="44.841915" lon="8.353855"><ele>166.20000000000002</ele><time>2026-05-01T16:35:45.153Z</time></trkpt><trkpt lat="44.8418483" lon="8.3540083"><ele>166.4</ele><time>2026-05-01T16:35:46.155Z</time></trkpt><trkpt lat="44.8418283" lon="8.3541483"><ele>166.6</ele><time>2026-05-01T16:35:47.157Z</time></trkpt><trkpt lat="44.8418533" lon="8.354265"><ele>166.8</ele><time>2026-05-01T16:35:48.152Z</time></trkpt><trkpt lat="44.8419133" lon="8.3543617"><ele>167.0</ele><time>2026-05-01T16:35:49.15Z</time></trkpt><trkpt lat="44.8420067" lon="8.3544217"><ele>167.0</ele><time>2026-05-01T16:35:50.153Z</time></trkpt><trkpt lat="44.8421217" lon="8.3544517"><ele>167.0</ele><time>2026-05-01T16:35:51.155Z</time></trkpt><trkpt lat="44.8422583" lon="8.354475"><ele>167.0</ele><time>2026-05-01T16:35:52.151Z</time></trkpt><trkpt lat="44.84241" lon="8.3545017"><ele>167.0</ele><time>2026-05-01T16:35:53.157Z</time></trkpt><trkpt lat="44.8425717" lon="8.3545383"><ele>165.0</ele><time>2026-05-01T16:35:54.16Z</time></trkpt><trkpt lat="44.8427417" lon="8.3545817"><ele>163.0</ele><time>2026-05-01T16:35:55.151Z</time></trkpt><trkpt lat="44.84292" lon="8.3546417"><ele>161.0</ele><time>2026-05-01T16:35:56.151Z</time></trkpt><trkpt lat="44.843105" lon="8.3547033"><ele>159.0</ele><time>2026-05-01T16:35:57.153Z</time></trkpt><trkpt lat="44.8432933" lon="8.35475"><ele>157.0</ele><time>2026-05-01T16:35:58.152Z</time></trkpt><trkpt lat="44.84348" lon="8.3547867"><ele>155.0</ele><time>2026-05-01T16:35:59.153Z</time></trkpt><trkpt lat="44.8436433" lon="8.3548133"><ele>153.4</ele><time>2026-05-01T16:36:00.152Z</time></trkpt><trkpt lat="44.84378" lon="8.3548283"><ele>151.8</ele><time>2026-05-01T16:36:01.156Z</time></trkpt><trkpt lat="44.843885" lon="8.3548167"><ele>150.2</ele><time>2026-05-01T16:36:02.149Z</time></trkpt><trkpt lat="44.8439783" lon="8.354775"><ele>148.6</ele><time>2026-05-01T16:36:03.151Z</time></trkpt><trkpt lat="44.84405" lon="8.3546983"><ele>147.0</ele><time>2026-05-01T16:36:04.154Z</time></trkpt><trkpt lat="44.8440967" lon="8.3546117"><ele>147.0</ele><time>2026-05-01T16:36:05.153Z</time></trkpt><trkpt lat="44.84412" lon="8.3545083"><ele>147.0</ele><time>2026-05-01T16:36:06.155Z</time></trkpt><trkpt lat="44.84412" lon="8.3543983"><ele>147.0</ele><time>2026-05-01T16:36:07.152Z</time></trkpt><trkpt lat="44.8440767" lon="8.3542483"><ele>147.0</ele><time>2026-05-01T16:36:08.153Z</time></trkpt><trkpt lat="44.84397" lon="8.3540283"><ele>144.33333333333334</ele><time>2026-05-01T16:36:09.152Z</time></trkpt><trkpt lat="44.8438217" lon="8.353845"><ele>141.66666666666669</ele><time>2026-05-01T16:36:10.15Z</time></trkpt><trkpt lat="44.8436967" lon="8.3536883"><ele>139.0</ele><time>2026-05-01T16:36:11.153Z</time></trkpt><trkpt lat="44.8435567" lon="8.3535467"><ele>143.75</ele><time>2026-05-01T16:36:12.154Z</time></trkpt><trkpt lat="44.843425" lon="8.3534267"><ele>148.5</ele><time>2026-05-01T16:36:13.154Z</time></trkpt><trkpt lat="44.8433133" lon="8.35332"><ele>153.25</ele><time>2026-05-01T16:36:14.151Z</time></trkpt><trkpt lat="44.84323" lon="8.35322"><ele>158.0</ele><time>2026-05-01T16:36:15.153Z</time></trkpt><trkpt lat="44.8431767" lon="8.35312"><ele>154.8</ele><time>2026-05-01T16:36:16.156Z</time></trkpt><trkpt lat="44.843165" lon="8.353005"><ele>151.60000000000002</ele><time>2026-05-01T16:36:17.158Z</time></trkpt><trkpt lat="44.8431767" lon="8.3528983"><ele>148.39999999999998</ele><time>2026-05-01T16:36:18.151Z</time></trkpt><trkpt lat="44.843205" lon="8.3528"><ele>145.2</ele><time>2026-05-01T16:36:19.155Z</time></trkpt><trkpt lat="44.8432417" lon="8.352725"><ele>142.0</ele><time>2026-05-01T16:36:20.153Z</time></trkpt><trkpt lat="44.8433933" lon="8.3528567"><ele>141.25</ele><time>2026-05-01T16:36:21.156Z</time></trkpt><trkpt lat="44.8435083" lon="8.35293"><ele>140.5</ele><time>2026-05-01T16:36:22.152Z</time></trkpt><trkpt lat="44.8436417" lon="8.3530683"><ele>139.75</ele><time>2026-05-01T16:36:23.152Z</time></trkpt><trkpt lat="44.8437733" lon="8.35319"><ele>139.0</ele><time>2026-05-01T16:36:24.15Z</time></trkpt><trkpt lat="44.8439317" lon="8.3533567"><ele>139.0</ele><time>2026-05-01T16:36:25.154Z</time></trkpt><trkpt lat="44.84408" lon="8.3535"><ele>139.0</ele><time>2026-05-01T16:36:26.151Z</time></trkpt><trkpt lat="44.8442383" lon="8.3536533"><ele>139.0</ele><time>2026-05-01T16:36:27.154Z</time></trkpt><trkpt lat="44.8444017" lon="8.3538033"><ele>136.33333333333334</ele><time>2026-05-01T16:36:28.151Z</time></trkpt><trkpt lat="44.8445783" lon="8.3539367"><ele>133.66666666666666</ele><time>2026-05-01T16:36:29.155Z</time></trkpt><trkpt lat="44.8447567" lon="8.3540567"><ele>131.0</ele><time>2026-05-01T16:36:30.154Z</time></trkpt><trkpt lat="44.8449367" lon="8.3541567"><ele>131.0</ele><time>2026-05-01T16:36:31.155Z</time></trkpt><trkpt lat="44.8451033" lon="8.354245"><ele>131.0</ele><time>2026-05-01T16:36:32.153Z</time></trkpt><trkpt lat="44.8452517" lon="8.3543533"><ele>131.0</ele><time>2026-05-01T16:36:33.151Z</time></trkpt><trkpt lat="44.8453867" lon="8.3544967"><ele>130.0</ele><time>2026-05-01T16:36:34.153Z</time></trkpt><trkpt lat="44.8455117" lon="8.3546667"><ele>129.0</ele><time>2026-05-01T16:36:35.158Z</time></trkpt><trkpt lat="44.8456117" lon="8.35487"><ele>128.0</ele><time>2026-05-01T16:36:36.154Z</time></trkpt><trkpt lat="44.84571" lon="8.35505"><ele>128.0</ele><time>2026-05-01T16:36:37.154Z</time></trkpt><trkpt lat="44.8458117" lon="8.3552067"><ele>128.0</ele><time>2026-05-01T16:36:38.152Z</time></trkpt><trkpt lat="44.8459433" lon="8.3553183"><ele>128.0</ele><time>2026-05-01T16:36:39.151Z</time></trkpt><trkpt lat="44.8460817" lon="8.3554017"><ele>127.33333333333333</ele><time>2026-05-01T16:36:40.154Z</time></trkpt><trkpt lat="44.8462367" lon="8.3554583"><ele>126.66666666666666</ele><time>2026-05-01T16:36:41.151Z</time></trkpt><trkpt lat="44.8464033" lon="8.3555033"><ele>126.0</ele><time>2026-05-01T16:36:42.151Z</time></trkpt><trkpt lat="44.8465667" lon="8.355545"><ele>126.0</ele><time>2026-05-01T16:36:43.155Z</time></trkpt><trkpt lat="44.8467133" lon="8.355605"><ele>126.0</ele><time>2026-05-01T16:36:44.153Z</time></trkpt><trkpt lat="44.84685" lon="8.3556867"><ele>126.0</ele><time>2026-05-01T16:36:45.153Z</time></trkpt><trkpt lat="44.84697" lon="8.3558033"><ele>126.0</ele><time>2026-05-01T16:36:46.155Z</time></trkpt><trkpt lat="44.8470817" lon="8.3559533"><ele>126.0</ele><time>2026-05-01T16:36:47.154Z</time></trkpt><trkpt lat="44.8471917" lon="8.3561317"><ele>126.0</ele><time>2026-05-01T16:36:48.149Z</time></trkpt><trkpt lat="44.84731" lon="8.3563283"><ele>126.0</ele><time>2026-05-01T16:36:49.152Z</time></trkpt><trkpt lat="44.84744" lon="8.3565467"><ele>126.0</ele><time>2026-05-01T16:36:50.152Z</time></trkpt><trkpt lat="44.8475733" lon="8.3567933"><ele>126.0</ele><time>2026-05-01T16:36:51.151Z</time></trkpt><trkpt lat="44.847715" lon="8.3570517"><ele>127.0</ele><time>2026-05-01T16:36:52.154Z</time></trkpt><trkpt lat="44.847865" lon="8.357315"><ele>128.0</ele><time>2026-05-01T16:36:53.153Z</time></trkpt><trkpt lat="44.848015" lon="8.357585"><ele>128.0</ele><time>2026-05-01T16:36:54.153Z</time></trkpt><trkpt lat="44.8481567" lon="8.35785"><ele>128.0</ele><time>2026-05-01T16:36:55.152Z</time></trkpt><trkpt lat="44.8482883" lon="8.3581033"><ele>126.66666666666666</ele><time>2026-05-01T16:36:56.151Z</time></trkpt><trkpt lat="44.8484183" lon="8.35834"><ele>125.33333333333334</ele><time>2026-05-01T16:36:57.149Z</time></trkpt><trkpt lat="44.8485417" lon="8.3585633"><ele>124.0</ele><time>2026-05-01T16:36:58.155Z</time></trkpt><trkpt lat="44.8486567" lon="8.35879"><ele>124.0</ele><time>2026-05-01T16:36:59.161Z</time></trkpt><trkpt lat="44.8487783" lon="8.3589983"><ele>124.0</ele><time>2026-05-01T16:37:00.153Z</time></trkpt><trkpt lat="44.8488917" lon="8.3592117"><ele>124.0</ele><time>2026-05-01T16:37:01.152Z</time></trkpt><trkpt lat="44.8490083" lon="8.3594117"><ele>124.0</ele><time>2026-05-01T16:37:02.151Z</time></trkpt><trkpt lat="44.8491283" lon="8.3596083"><ele>124.0</ele><time>2026-05-01T16:37:03.152Z</time></trkpt><trkpt lat="44.8492533" lon="8.3597967"><ele>124.0</ele><time>2026-05-01T16:37:04.155Z</time></trkpt><trkpt lat="44.84939" lon="8.3599767"><ele>124.66666666666667</ele><time>2026-05-01T16:37:05.151Z</time></trkpt><trkpt lat="44.8495317" lon="8.36015"><ele>125.33333333333334</ele><time>2026-05-01T16:37:06.156Z</time></trkpt><trkpt lat="44.849675" lon="8.36032"><ele>126.0</ele><time>2026-05-01T16:37:07.154Z</time></trkpt><trkpt lat="44.84982" lon="8.3604967"><ele>125.33333333333334</ele><time>2026-05-01T16:37:08.151Z</time></trkpt><trkpt lat="44.8499683" lon="8.360675"><ele>124.66666666666667</ele><time>2026-05-01T16:37:09.156Z</time></trkpt><trkpt lat="44.8501167" lon="8.3608583"><ele>124.0</ele><time>2026-05-01T16:37:10.151Z</time></trkpt><trkpt lat="44.8502667" lon="8.3610433"><ele>124.0</ele><time>2026-05-01T16:37:11.153Z</time></trkpt><trkpt lat="44.8504217" lon="8.3612333"><ele>124.0</ele><time>2026-05-01T16:37:12.158Z</time></trkpt><trkpt lat="44.8505767" lon="8.3614267"><ele>124.0</ele><time>2026-05-01T16:37:13.156Z</time></trkpt><trkpt lat="44.8507267" lon="8.3616317"><ele>125.0</ele><time>2026-05-01T16:37:14.152Z</time></trkpt><trkpt lat="44.8508667" lon="8.36185"><ele>126.0</ele><time>2026-05-01T16:37:15.152Z</time></trkpt><trkpt lat="44.8510033" lon="8.3620767"><ele>127.0</ele><time>2026-05-01T16:37:16.154Z</time></trkpt><trkpt lat="44.8511383" lon="8.3622983"><ele>123.66666666666667</ele><time>2026-05-01T16:37:17.151Z</time></trkpt><trkpt lat="44.85127" lon="8.3625"><ele>120.33333333333334</ele><time>2026-05-01T16:37:18.154Z</time></trkpt><trkpt lat="44.85141" lon="8.3626833"><ele>117.0</ele><time>2026-05-01T16:37:19.152Z</time></trkpt><trkpt lat="44.8515633" lon="8.362855"><ele>117.0</ele><time>2026-05-01T16:37:20.155Z</time></trkpt><trkpt lat="44.851725" lon="8.363025"><ele>117.0</ele><time>2026-05-01T16:37:21.152Z</time></trkpt><trkpt lat="44.8518883" lon="8.36319"><ele>117.0</ele><time>2026-05-01T16:37:22.159Z</time></trkpt><trkpt lat="44.852045" lon="8.3633433"><ele>115.0</ele><time>2026-05-01T16:37:23.153Z</time></trkpt><trkpt lat="44.85219" lon="8.363475"><ele>113.0</ele><time>2026-05-01T16:37:24.161Z</time></trkpt><trkpt lat="44.8523333" lon="8.3635783"><ele>111.0</ele><time>2026-05-01T16:37:25.157Z</time></trkpt><trkpt lat="44.8524783" lon="8.36364"><ele>111.0</ele><time>2026-05-01T16:37:26.164Z</time></trkpt><trkpt lat="44.8526217" lon="8.3636633"><ele>111.0</ele><time>2026-05-01T16:37:27.155Z</time></trkpt><trkpt lat="44.8527617" lon="8.36365"><ele>111.0</ele><time>2026-05-01T16:37:28.154Z</time></trkpt><trkpt lat="44.8528983" lon="8.3635883"><ele>111.0</ele><time>2026-05-01T16:37:29.157Z</time></trkpt><trkpt lat="44.8530317" lon="8.3634867"><ele>110.66666666666666</ele><time>2026-05-01T16:37:30.154Z</time></trkpt><trkpt lat="44.8531517" lon="8.363345"><ele>110.33333333333333</ele><time>2026-05-01T16:37:31.156Z</time></trkpt><trkpt lat="44.853265" lon="8.36318"><ele>110.0</ele><time>2026-05-01T16:37:32.164Z</time></trkpt><trkpt lat="44.853385" lon="8.36302"><ele>108.0</ele><time>2026-05-01T16:37:33.158Z</time></trkpt><trkpt lat="44.85352" lon="8.3628867"><ele>106.0</ele><time>2026-05-01T16:37:34.157Z</time></trkpt><trkpt lat="44.8536667" lon="8.36278"><ele>104.0</ele><time>2026-05-01T16:37:35.156Z</time></trkpt><trkpt lat="44.8538217" lon="8.36269"><ele>104.0</ele><time>2026-05-01T16:37:36.158Z</time></trkpt><trkpt lat="44.8539733" lon="8.3626033"><ele>104.0</ele><time>2026-05-01T16:37:37.152Z</time></trkpt><trkpt lat="44.8541267" lon="8.362525"><ele>104.0</ele><time>2026-05-01T16:37:38.15Z</time></trkpt><trkpt lat="44.854275" lon="8.36244"><ele>104.33333333333333</ele><time>2026-05-01T16:37:39.15Z</time></trkpt><trkpt lat="44.8544133" lon="8.362315"><ele>104.66666666666666</ele><time>2026-05-01T16:37:40.153Z</time></trkpt><trkpt lat="44.854535" lon="8.362165"><ele>105.0</ele><time>2026-05-01T16:37:41.151Z</time></trkpt><trkpt lat="44.8546433" lon="8.3619867"><ele>105.0</ele><time>2026-05-01T16:37:42.15Z</time></trkpt><trkpt lat="44.854735" lon="8.3617867"><ele>105.0</ele><time>2026-05-01T16:37:43.154Z</time></trkpt><trkpt lat="44.854815" lon="8.3615733"><ele>105.0</ele><time>2026-05-01T16:37:44.155Z</time></trkpt><trkpt lat="44.8548883" lon="8.361345"><ele>105.66666666666666</ele><time>2026-05-01T16:37:45.155Z</time></trkpt><trkpt lat="44.85496" lon="8.36111"><ele>106.33333333333333</ele><time>2026-05-01T16:37:46.151Z</time></trkpt><trkpt lat="44.8550367" lon="8.3608717"><ele>107.0</ele><time>2026-05-01T16:37:47.152Z</time></trkpt><trkpt lat="44.8551083" lon="8.3606317"><ele>107.33333333333333</ele><time>2026-05-01T16:37:48.152Z</time></trkpt><trkpt lat="44.85518" lon="8.36039"><ele>107.66666666666666</ele><time>2026-05-01T16:37:49.153Z</time></trkpt><trkpt lat="44.85525" lon="8.3601483"><ele>108.0</ele><time>2026-05-01T16:37:50.152Z</time></trkpt><trkpt lat="44.8553267" lon="8.359905"><ele>106.66666666666666</ele><time>2026-05-01T16:37:51.155Z</time></trkpt><trkpt lat="44.8554033" lon="8.3596583"><ele>105.33333333333333</ele><time>2026-05-01T16:37:52.153Z</time></trkpt><trkpt lat="44.85548" lon="8.35941"><ele>104.0</ele><time>2026-05-01T16:37:53.155Z</time></trkpt><trkpt lat="44.8555567" lon="8.35916"><ele>104.0</ele><time>2026-05-01T16:37:54.153Z</time></trkpt><trkpt lat="44.8556317" lon="8.35891"><ele>104.0</ele><time>2026-05-01T16:37:55.154Z</time></trkpt><trkpt lat="44.8557117" lon="8.3586583"><ele>104.0</ele><time>2026-05-01T16:37:56.15Z</time></trkpt><trkpt lat="44.8557917" lon="8.3584033"><ele>104.0</ele><time>2026-05-01T16:37:57.153Z</time></trkpt><trkpt lat="44.8558633" lon="8.3581517"><ele>104.0</ele><time>2026-05-01T16:37:58.151Z</time></trkpt><trkpt lat="44.8559383" lon="8.3578967"><ele>104.0</ele><time>2026-05-01T16:37:59.153Z</time></trkpt><trkpt lat="44.8560133" lon="8.3576433"><ele>103.66666666666666</ele><time>2026-05-01T16:38:00.156Z</time></trkpt><trkpt lat="44.856085" lon="8.3573933"><ele>103.33333333333334</ele><time>2026-05-01T16:38:01.161Z</time></trkpt><trkpt lat="44.85616" lon="8.3571467"><ele>103.0</ele><time>2026-05-01T16:38:02.151Z</time></trkpt><trkpt lat="44.856235" lon="8.3569017"><ele>102.66666666666667</ele><time>2026-05-01T16:38:03.152Z</time></trkpt><trkpt lat="44.8563067" lon="8.3566583"><ele>102.33333333333334</ele><time>2026-05-01T16:38:04.151Z</time></trkpt><trkpt lat="44.85638" lon="8.3564167"><ele>102.0</ele><time>2026-05-01T16:38:05.15Z</time></trkpt><trkpt lat="44.8564533" lon="8.35618"><ele>102.33333333333334</ele><time>2026-05-01T16:38:06.153Z</time></trkpt><trkpt lat="44.8565317" lon="8.355945"><ele>102.66666666666667</ele><time>2026-05-01T16:38:07.158Z</time></trkpt><trkpt lat="44.856605" lon="8.35571"><ele>103.0</ele><time>2026-05-01T16:38:08.152Z</time></trkpt><trkpt lat="44.8566733" lon="8.3554767"><ele>103.0</ele><time>2026-05-01T16:38:09.152Z</time></trkpt><trkpt lat="44.8567383" lon="8.355245"><ele>103.0</ele><time>2026-05-01T16:38:10.156Z</time></trkpt><trkpt lat="44.8568067" lon="8.3550117"><ele>103.0</ele><time>2026-05-01T16:38:11.156Z</time></trkpt><trkpt lat="44.8568767" lon="8.3547817"><ele>102.66666666666667</ele><time>2026-05-01T16:38:12.161Z</time></trkpt><trkpt lat="44.8569467" lon="8.354555"><ele>102.33333333333334</ele><time>2026-05-01T16:38:13.155Z</time></trkpt><trkpt lat="44.8570167" lon="8.3543283"><ele>102.0</ele><time>2026-05-01T16:38:14.154Z</time></trkpt><trkpt lat="44.857085" lon="8.3540983"><ele>102.66666666666666</ele><time>2026-05-01T16:38:15.151Z</time></trkpt><trkpt lat="44.8571533" lon="8.35387"><ele>103.33333333333333</ele><time>2026-05-01T16:38:16.153Z</time></trkpt><trkpt lat="44.8572283" lon="8.3536433"><ele>104.0</ele><time>2026-05-01T16:38:17.155Z</time></trkpt><trkpt lat="44.8573017" lon="8.3534217"><ele>104.0</ele><time>2026-05-01T16:38:18.153Z</time></trkpt><trkpt lat="44.8573733" lon="8.3532"><ele>104.0</ele><time>2026-05-01T16:38:19.152Z</time></trkpt><trkpt lat="44.85744" lon="8.3529783"><ele>104.0</ele><time>2026-05-01T16:38:20.154Z</time></trkpt><trkpt lat="44.8575067" lon="8.3527583"><ele>104.0</ele><time>2026-05-01T16:38:21.153Z</time></trkpt><trkpt lat="44.857575" lon="8.3525383"><ele>104.0</ele><time>2026-05-01T16:38:22.152Z</time></trkpt><trkpt lat="44.8576417" lon="8.3523183"><ele>104.0</ele><time>2026-05-01T16:38:23.159Z</time></trkpt><trkpt lat="44.8577033" lon="8.3521033"><ele>103.66666666666666</ele><time>2026-05-01T16:38:24.156Z</time></trkpt><trkpt lat="44.8577633" lon="8.351895"><ele>103.33333333333334</ele><time>2026-05-01T16:38:25.152Z</time></trkpt><trkpt lat="44.8578217" lon="8.3516983"><ele>103.0</ele><time>2026-05-01T16:38:26.155Z</time></trkpt><trkpt lat="44.8578783" lon="8.35151"><ele>102.75</ele><time>2026-05-01T16:38:27.154Z</time></trkpt><trkpt lat="44.857935" lon="8.3513283"><ele>102.5</ele><time>2026-05-01T16:38:28.155Z</time></trkpt><trkpt lat="44.8579883" lon="8.3511483"><ele>102.25</ele><time>2026-05-01T16:38:29.154Z</time></trkpt><trkpt lat="44.8580433" lon="8.3509767"><ele>102.0</ele><time>2026-05-01T16:38:30.151Z</time></trkpt><trkpt lat="44.8580983" lon="8.3508067"><ele>102.0</ele><time>2026-05-01T16:38:31.156Z</time></trkpt><trkpt lat="44.8581517" lon="8.35064"><ele>102.0</ele><time>2026-05-01T16:38:32.151Z</time></trkpt><trkpt lat="44.8582033" lon="8.3504733"><ele>102.0</ele><time>2026-05-01T16:38:33.152Z</time></trkpt><trkpt lat="44.8582583" lon="8.3503083"><ele>102.0</ele><time>2026-05-01T16:38:34.152Z</time></trkpt><trkpt lat="44.8583117" lon="8.3501417"><ele>102.0</ele><time>2026-05-01T16:38:35.155Z</time></trkpt><trkpt lat="44.858365" lon="8.3499783"><ele>102.0</ele><time>2026-05-01T16:38:36.153Z</time></trkpt><trkpt lat="44.858415" lon="8.349815"><ele>102.0</ele><time>2026-05-01T16:38:37.156Z</time></trkpt><trkpt lat="44.858465" lon="8.3496533"><ele>102.0</ele><time>2026-05-01T16:38:38.156Z</time></trkpt><trkpt lat="44.8585133" lon="8.3494933"><ele>102.25</ele><time>2026-05-01T16:38:39.155Z</time></trkpt><trkpt lat="44.8585583" lon="8.3493333"><ele>102.5</ele><time>2026-05-01T16:38:40.153Z</time></trkpt><trkpt lat="44.8586067" lon="8.3491733"><ele>102.75</ele><time>2026-05-01T16:38:41.154Z</time></trkpt><trkpt lat="44.8586533" lon="8.3490133"><ele>103.0</ele><time>2026-05-01T16:38:42.157Z</time></trkpt><trkpt lat="44.858705" lon="8.3488533"><ele>103.25</ele><time>2026-05-01T16:38:43.153Z</time></trkpt><trkpt lat="44.8587533" lon="8.348695"><ele>103.5</ele><time>2026-05-01T16:38:44.153Z</time></trkpt><trkpt lat="44.8587983" lon="8.3485367"><ele>103.75</ele><time>2026-05-01T16:38:45.15Z</time></trkpt><trkpt lat="44.858845" lon="8.34838"><ele>104.0</ele><time>2026-05-01T16:38:46.157Z</time></trkpt><trkpt lat="44.8588933" lon="8.3482233"><ele>104.0</ele><time>2026-05-01T16:38:47.151Z</time></trkpt><trkpt lat="44.8589467" lon="8.3480667"><ele>104.0</ele><time>2026-05-01T16:38:48.152Z</time></trkpt><trkpt lat="44.8589983" lon="8.3479117"><ele>104.0</ele><time>2026-05-01T16:38:49.158Z</time></trkpt><trkpt lat="44.8590567" lon="8.347765"><ele>104.0</ele><time>2026-05-01T16:38:50.152Z</time></trkpt><trkpt lat="44.8591167" lon="8.3476233"><ele>104.0</ele><time>2026-05-01T16:38:51.155Z</time></trkpt><trkpt lat="44.8591717" lon="8.34748"><ele>104.0</ele><time>2026-05-01T16:38:52.15Z</time></trkpt><trkpt lat="44.8592217" lon="8.3473467"><ele>104.0</ele><time>2026-05-01T16:38:53.155Z</time></trkpt><trkpt lat="44.8592733" lon="8.3472233"><ele>104.0</ele><time>2026-05-01T16:38:54.151Z</time></trkpt><trkpt lat="44.8593217" lon="8.3471067"><ele>104.0</ele><time>2026-05-01T16:38:55.159Z</time></trkpt><trkpt lat="44.8593683" lon="8.3469967"><ele>104.0</ele><time>2026-05-01T16:38:56.151Z</time></trkpt><trkpt lat="44.8594167" lon="8.346885"><ele>104.0</ele><time>2026-05-01T16:38:57.154Z</time></trkpt><trkpt lat="44.8594683" lon="8.346775"><ele>104.0</ele><time>2026-05-01T16:38:58.153Z</time></trkpt><trkpt lat="44.85953" lon="8.3466583"><ele>104.0</ele><time>2026-05-01T16:38:59.152Z</time></trkpt><trkpt lat="44.8595967" lon="8.346535"><ele>104.0</ele><time>2026-05-01T16:39:00.157Z</time></trkpt><trkpt lat="44.859665" lon="8.3464133"><ele>104.5</ele><time>2026-05-01T16:39:01.152Z</time></trkpt><trkpt lat="44.8597333" lon="8.3462883"><ele>105.0</ele><time>2026-05-01T16:39:02.155Z</time></trkpt><trkpt lat="44.8598033" lon="8.3461617"><ele>105.5</ele><time>2026-05-01T16:39:03.151Z</time></trkpt><trkpt lat="44.8598783" lon="8.3460283"><ele>106.0</ele><time>2026-05-01T16:39:04.154Z</time></trkpt><trkpt lat="44.8599467" lon="8.3458967"><ele>106.0</ele><time>2026-05-01T16:39:05.152Z</time></trkpt><trkpt lat="44.860015" lon="8.3457767"><ele>106.0</ele><time>2026-05-01T16:39:06.151Z</time></trkpt><trkpt lat="44.86008" lon="8.3456567"><ele>106.0</ele><time>2026-05-01T16:39:07.156Z</time></trkpt><trkpt lat="44.8601467" lon="8.3455383"><ele>106.0</ele><time>2026-05-01T16:39:08.152Z</time></trkpt><trkpt lat="44.8602167" lon="8.3454167"><ele>106.0</ele><time>2026-05-01T16:39:09.153Z</time></trkpt><trkpt lat="44.860285" lon="8.345295"><ele>105.75</ele><time>2026-05-01T16:39:10.15Z</time></trkpt><trkpt lat="44.8603617" lon="8.3451633"><ele>105.5</ele><time>2026-05-01T16:39:11.151Z</time></trkpt><trkpt lat="44.8604467" lon="8.345025"><ele>105.25</ele><time>2026-05-01T16:39:12.152Z</time></trkpt><trkpt lat="44.8605367" lon="8.344885"><ele>105.0</ele><time>2026-05-01T16:39:13.153Z</time></trkpt><trkpt lat="44.8606333" lon="8.344735"><ele>105.25</ele><time>2026-05-01T16:39:14.154Z</time></trkpt><trkpt lat="44.8607317" lon="8.34458"><ele>105.5</ele><time>2026-05-01T16:39:15.152Z</time></trkpt><trkpt lat="44.86083" lon="8.3444267"><ele>105.75</ele><time>2026-05-01T16:39:16.155Z</time></trkpt><trkpt lat="44.8609267" lon="8.3442767"><ele>106.0</ele><time>2026-05-01T16:39:17.154Z</time></trkpt><trkpt lat="44.861025" lon="8.344125"><ele>106.25</ele><time>2026-05-01T16:39:18.154Z</time></trkpt><trkpt lat="44.8611283" lon="8.3439817"><ele>106.5</ele><time>2026-05-01T16:39:19.153Z</time></trkpt><trkpt lat="44.8612233" lon="8.3438483"><ele>106.75</ele><time>2026-05-01T16:39:20.155Z</time></trkpt><trkpt lat="44.8613133" lon="8.3437217"><ele>107.0</ele><time>2026-05-01T16:39:21.153Z</time></trkpt><trkpt lat="44.8613933" lon="8.3436033"><ele>107.0</ele><time>2026-05-01T16:39:22.152Z</time></trkpt><trkpt lat="44.8614767" lon="8.3434967"><ele>106.99999999999999</ele><time>2026-05-01T16:39:23.152Z</time></trkpt><trkpt lat="44.8615617" lon="8.3434033"><ele>106.99999999999999</ele><time>2026-05-01T16:39:24.153Z</time></trkpt><trkpt lat="44.8616567" lon="8.3433267"><ele>107.0</ele><time>2026-05-01T16:39:25.152Z</time></trkpt><trkpt lat="44.8617617" lon="8.3432617"><ele>107.0</ele><time>2026-05-01T16:39:26.153Z</time></trkpt><trkpt lat="44.86187" lon="8.3432"><ele>106.75</ele><time>2026-05-01T16:39:27.153Z</time></trkpt><trkpt lat="44.861985" lon="8.343135"><ele>106.5</ele><time>2026-05-01T16:39:28.153Z</time></trkpt><trkpt lat="44.8621033" lon="8.34307"><ele>106.25</ele><time>2026-05-01T16:39:29.158Z</time></trkpt><trkpt lat="44.8622217" lon="8.3429983"><ele>106.0</ele><time>2026-05-01T16:39:30.156Z</time></trkpt><trkpt lat="44.8623433" lon="8.3429267"><ele>106.0</ele><time>2026-05-01T16:39:31.152Z</time></trkpt><trkpt lat="44.8624683" lon="8.3428617"><ele>106.0</ele><time>2026-05-01T16:39:32.152Z</time></trkpt><trkpt lat="44.862595" lon="8.3427917"><ele>106.0</ele><time>2026-05-01T16:39:33.155Z</time></trkpt><trkpt lat="44.862715" lon="8.3427283"><ele>106.0</ele><time>2026-05-01T16:39:34.154Z</time></trkpt><trkpt lat="44.8628233" lon="8.3426683"><ele>105.8</ele><time>2026-05-01T16:39:35.159Z</time></trkpt><trkpt lat="44.8629233" lon="8.3426083"><ele>105.6</ele><time>2026-05-01T16:39:36.148Z</time></trkpt><trkpt lat="44.8630133" lon="8.342565"><ele>105.4</ele><time>2026-05-01T16:39:37.157Z</time></trkpt><trkpt lat="44.863095" lon="8.3425167"><ele>105.2</ele><time>2026-05-01T16:39:38.151Z</time></trkpt><trkpt lat="44.8631833" lon="8.342465"><ele>105.0</ele><time>2026-05-01T16:39:39.15Z</time></trkpt><trkpt lat="44.86327" lon="8.34241"><ele>105.0</ele><time>2026-05-01T16:39:40.152Z</time></trkpt><trkpt lat="44.8633617" lon="8.3423567"><ele>105.0</ele><time>2026-05-01T16:39:41.154Z</time></trkpt><trkpt lat="44.8634533" lon="8.3423033"><ele>105.0</ele><time>2026-05-01T16:39:42.154Z</time></trkpt><trkpt lat="44.8635483" lon="8.34226"><ele>105.0</ele><time>2026-05-01T16:39:43.151Z</time></trkpt><trkpt lat="44.8636383" lon="8.342235"><ele>105.0</ele><time>2026-05-01T16:39:44.155Z</time></trkpt><trkpt lat="44.86373" lon="8.342215"><ele>105.2</ele><time>2026-05-01T16:39:45.151Z</time></trkpt><trkpt lat="44.8638217" lon="8.3421683"><ele>105.4</ele><time>2026-05-01T16:39:46.15Z</time></trkpt><trkpt lat="44.8639133" lon="8.3420967"><ele>105.6</ele><time>2026-05-01T16:39:47.153Z</time></trkpt><trkpt lat="44.86401" lon="8.3420133"><ele>105.8</ele><time>2026-05-01T16:39:48.151Z</time></trkpt><trkpt lat="44.8641133" lon="8.3419417"><ele>106.0</ele><time>2026-05-01T16:39:49.157Z</time></trkpt><trkpt lat="44.8642217" lon="8.34188"><ele>105.5</ele><time>2026-05-01T16:39:50.153Z</time></trkpt><trkpt lat="44.8643367" lon="8.3418117"><ele>105.0</ele><time>2026-05-01T16:39:51.151Z</time></trkpt><trkpt lat="44.8644567" lon="8.3417383"><ele>104.5</ele><time>2026-05-01T16:39:52.156Z</time></trkpt><trkpt lat="44.86458" lon="8.3416683"><ele>104.0</ele><time>2026-05-01T16:39:53.15Z</time></trkpt><trkpt lat="44.864705" lon="8.3416017"><ele>104.0</ele><time>2026-05-01T16:39:54.155Z</time></trkpt><trkpt lat="44.864835" lon="8.3415317"><ele>104.0</ele><time>2026-05-01T16:39:55.157Z</time></trkpt><trkpt lat="44.8649617" lon="8.34146"><ele>104.0</ele><time>2026-05-01T16:39:56.151Z</time></trkpt><trkpt lat="44.8650867" lon="8.3413917"><ele>104.0</ele><time>2026-05-01T16:39:57.154Z</time></trkpt><trkpt lat="44.8652083" lon="8.34133"><ele>104.0</ele><time>2026-05-01T16:39:58.154Z</time></trkpt><trkpt lat="44.8653233" lon="8.3412667"><ele>104.0</ele><time>2026-05-01T16:39:59.155Z</time></trkpt><trkpt lat="44.8654317" lon="8.3412083"><ele>104.0</ele><time>2026-05-01T16:40:00.149Z</time></trkpt><trkpt lat="44.8655383" lon="8.341155"><ele>104.0</ele><time>2026-05-01T16:40:01.157Z</time></trkpt><trkpt lat="44.8656433" lon="8.341115"><ele>104.0</ele><time>2026-05-01T16:40:02.153Z</time></trkpt><trkpt lat="44.8657433" lon="8.3410967"><ele>104.0</ele><time>2026-05-01T16:40:03.152Z</time></trkpt><trkpt lat="44.865845" lon="8.341085"><ele>104.0</ele><time>2026-05-01T16:40:04.155Z</time></trkpt><trkpt lat="44.8659467" lon="8.3410783"><ele>104.0</ele><time>2026-05-01T16:40:05.158Z</time></trkpt><trkpt lat="44.8660467" lon="8.341085"><ele>104.0</ele><time>2026-05-01T16:40:06.151Z</time></trkpt><trkpt lat="44.8661433" lon="8.3411033"><ele>104.16666666666666</ele><time>2026-05-01T16:40:07.156Z</time></trkpt><trkpt lat="44.8662383" lon="8.3411333"><ele>104.33333333333333</ele><time>2026-05-01T16:40:08.152Z</time></trkpt><trkpt lat="44.8663183" lon="8.34117"><ele>104.5</ele><time>2026-05-01T16:40:09.15Z</time></trkpt><trkpt lat="44.86639" lon="8.3412133"><ele>104.66666666666666</ele><time>2026-05-01T16:40:10.153Z</time></trkpt><trkpt lat="44.8664767" lon="8.3412667"><ele>104.83333333333333</ele><time>2026-05-01T16:40:12.152Z</time></trkpt><trkpt lat="44.8665683" lon="8.3412833"><ele>105.0</ele><time>2026-05-01T16:40:48.152Z</time></trkpt><trkpt lat="44.8666267" lon="8.3413467"><ele>104.8</ele><time>2026-05-01T16:40:50.153Z</time></trkpt><trkpt lat="44.8666867" lon="8.34144"><ele>104.6</ele><time>2026-05-01T16:40:52.157Z</time></trkpt><trkpt lat="44.8667267" lon="8.3415567"><ele>104.4</ele><time>2026-05-01T16:40:54.151Z</time></trkpt><trkpt lat="44.86675" lon="8.3417"><ele>104.2</ele><time>2026-05-01T16:40:56.152Z</time></trkpt><trkpt lat="44.86678" lon="8.341875"><ele>104.0</ele><time>2026-05-01T16:40:58.15Z</time></trkpt><trkpt lat="44.8668067" lon="8.34204"><ele>103.99999999999999</ele><time>2026-05-01T16:41:00.153Z</time></trkpt><trkpt lat="44.86683" lon="8.3422067"><ele>104.0</ele><time>2026-05-01T16:41:02.154Z</time></trkpt><trkpt lat="44.8668383" lon="8.3423"><ele>104.0</ele><time>2026-05-01T16:41:03.152Z</time></trkpt><trkpt lat="44.866845" lon="8.3424083"><ele>104.0</ele><time>2026-05-01T16:41:04.151Z</time></trkpt><trkpt lat="44.8668517" lon="8.3425233"><ele>103.99999999999999</ele><time>2026-05-01T16:41:05.157Z</time></trkpt><trkpt lat="44.8668583" lon="8.34264"><ele>104.0</ele><time>2026-05-01T16:41:06.151Z</time></trkpt><trkpt lat="44.866865" lon="8.3427533"><ele>104.0</ele><time>2026-05-01T16:41:07.156Z</time></trkpt><trkpt lat="44.86687" lon="8.342865"><ele>104.0</ele><time>2026-05-01T16:41:08.151Z</time></trkpt><trkpt lat="44.866875" lon="8.342975"><ele>104.0</ele><time>2026-05-01T16:41:09.153Z</time></trkpt><trkpt lat="44.8668767" lon="8.343085"><ele>104.0</ele><time>2026-05-01T16:41:10.152Z</time></trkpt><trkpt lat="44.866875" lon="8.343185"><ele>104.0</ele><time>2026-05-01T16:41:11.153Z</time></trkpt><trkpt lat="44.866875" lon="8.343285"><ele>104.0</ele><time>2026-05-01T16:41:12.154Z</time></trkpt><trkpt lat="44.8668783" lon="8.3433833"><ele>104.0</ele><time>2026-05-01T16:41:13.153Z</time></trkpt><trkpt lat="44.86688" lon="8.34348"><ele>103.42857142857143</ele><time>2026-05-01T16:41:14.154Z</time></trkpt><trkpt lat="44.8668833" lon="8.3435767"><ele>102.85714285714286</ele><time>2026-05-01T16:41:15.154Z</time></trkpt><trkpt lat="44.866885" lon="8.3436733"><ele>102.28571428571429</ele><time>2026-05-01T16:41:16.152Z</time></trkpt><trkpt lat="44.8668867" lon="8.3437767"><ele>101.71428571428572</ele><time>2026-05-01T16:41:17.151Z</time></trkpt><trkpt lat="44.8668867" lon="8.343885"><ele>101.14285714285714</ele><time>2026-05-01T16:41:18.152Z</time></trkpt><trkpt lat="44.866885" lon="8.343995"><ele>100.57142857142858</ele><time>2026-05-01T16:41:19.154Z</time></trkpt><trkpt lat="44.8668833" lon="8.3441033"><ele>100.0</ele><time>2026-05-01T16:41:20.154Z</time></trkpt><trkpt lat="44.8668817" lon="8.3441967"><ele>99.66666666666667</ele><time>2026-05-01T16:41:21.152Z</time></trkpt><trkpt lat="44.86688" lon="8.344345"><ele>99.33333333333334</ele><time>2026-05-01T16:41:23.155Z</time></trkpt><trkpt lat="44.86689" lon="8.3444967"><ele>99.0</ele><time>2026-05-01T16:41:25.156Z</time></trkpt><trkpt lat="44.866905" lon="8.3445917"><ele>98.66666666666666</ele><time>2026-05-01T16:41:26.153Z</time></trkpt><trkpt lat="44.86693" lon="8.3446783"><ele>98.33333333333333</ele><time>2026-05-01T16:41:27.15Z</time></trkpt><trkpt lat="44.86696" lon="8.34477"><ele>98.0</ele><time>2026-05-01T16:41:28.154Z</time></trkpt><trkpt lat="44.867" lon="8.3448467"><ele>98.83333333333333</ele><time>2026-05-01T16:41:29.153Z</time></trkpt><trkpt lat="44.8670433" lon="8.3449183"><ele>99.66666666666666</ele><time>2026-05-01T16:41:30.156Z</time></trkpt><trkpt lat="44.8670983" lon="8.3449767"><ele>100.5</ele><time>2026-05-01T16:41:31.152Z</time></trkpt><trkpt lat="44.8671567" lon="8.345045"><ele>101.33333333333334</ele><time>2026-05-01T16:41:32.153Z</time></trkpt><trkpt lat="44.8672067" lon="8.3451267"><ele>102.16666666666667</ele><time>2026-05-01T16:41:33.158Z</time></trkpt><trkpt lat="44.8672533" lon="8.3452217"><ele>103.0</ele><time>2026-05-01T16:41:34.152Z</time></trkpt><trkpt lat="44.8672967" lon="8.3453317"><ele>103.0</ele><time>2026-05-01T16:41:35.153Z</time></trkpt><trkpt lat="44.8673417" lon="8.3454467"><ele>103.0</ele><time>2026-05-01T16:41:36.151Z</time></trkpt><trkpt lat="44.8673933" lon="8.3455617"><ele>103.0</ele><time>2026-05-01T16:41:37.161Z</time></trkpt><trkpt lat="44.86745" lon="8.3456667"><ele>103.0</ele><time>2026-05-01T16:41:38.154Z</time></trkpt><trkpt lat="44.867515" lon="8.34576"><ele>103.0</ele><time>2026-05-01T16:41:39.152Z</time></trkpt><trkpt lat="44.8675917" lon="8.3458217"><ele>103.16666666666667</ele><time>2026-05-01T16:41:40.152Z</time></trkpt><trkpt lat="44.867675" lon="8.3458633"><ele>103.33333333333334</ele><time>2026-05-01T16:41:41.157Z</time></trkpt><trkpt lat="44.867765" lon="8.3458817"><ele>103.5</ele><time>2026-05-01T16:41:42.153Z</time></trkpt><trkpt lat="44.8678533" lon="8.34588"><ele>103.66666666666666</ele><time>2026-05-01T16:41:43.154Z</time></trkpt><trkpt lat="44.867935" lon="8.3458483"><ele>103.83333333333333</ele><time>2026-05-01T16:41:44.151Z</time></trkpt><trkpt lat="44.8680083" lon="8.3457917"><ele>104.0</ele><time>2026-05-01T16:41:45.151Z</time></trkpt><trkpt lat="44.86808" lon="8.3457017"><ele>104.0</ele><time>2026-05-01T16:41:46.151Z</time></trkpt><trkpt lat="44.8681567" lon="8.3456067"><ele>104.0</ele><time>2026-05-01T16:41:47.152Z</time></trkpt><trkpt lat="44.8682467" lon="8.3455183"><ele>104.0</ele><time>2026-05-01T16:41:48.155Z</time></trkpt><trkpt lat="44.8683433" lon="8.3454283"><ele>104.0</ele><time>2026-05-01T16:41:49.155Z</time></trkpt><trkpt lat="44.8684433" lon="8.3453417"><ele>104.0</ele><time>2026-05-01T16:41:50.153Z</time></trkpt><trkpt lat="44.8685483" lon="8.3452617"><ele>104.4</ele><time>2026-05-01T16:41:51.149Z</time></trkpt><trkpt lat="44.8686483" lon="8.3451833"><ele>104.80000000000001</ele><time>2026-05-01T16:41:52.154Z</time></trkpt><trkpt lat="44.8687433" lon="8.3451083"><ele>105.19999999999999</ele><time>2026-05-01T16:41:53.153Z</time></trkpt><trkpt lat="44.86884" lon="8.3450467"><ele>105.6</ele><time>2026-05-01T16:41:54.151Z</time></trkpt><trkpt lat="44.86894" lon="8.34499"><ele>106.0</ele><time>2026-05-01T16:41:55.152Z</time></trkpt><trkpt lat="44.8690433" lon="8.3449317"><ele>106.0</ele><time>2026-05-01T16:41:56.157Z</time></trkpt><trkpt lat="44.8691517" lon="8.3448867"><ele>106.0</ele><time>2026-05-01T16:41:57.156Z</time></trkpt><trkpt lat="44.8692667" lon="8.3448417"><ele>106.0</ele><time>2026-05-01T16:41:58.156Z</time></trkpt><trkpt lat="44.8693833" lon="8.344805"><ele>106.0</ele><time>2026-05-01T16:41:59.154Z</time></trkpt><trkpt lat="44.8695067" lon="8.34477"><ele>106.25</ele><time>2026-05-01T16:42:00.154Z</time></trkpt><trkpt lat="44.8696333" lon="8.3447367"><ele>106.5</ele><time>2026-05-01T16:42:01.156Z</time></trkpt><trkpt lat="44.869765" lon="8.344705"><ele>106.75</ele><time>2026-05-01T16:42:02.149Z</time></trkpt><trkpt lat="44.8698933" lon="8.3446767"><ele>107.0</ele><time>2026-05-01T16:42:03.149Z</time></trkpt><trkpt lat="44.8700217" lon="8.34465"><ele>106.5</ele><time>2026-05-01T16:42:04.151Z</time></trkpt><trkpt lat="44.8701533" lon="8.3446233"><ele>106.0</ele><time>2026-05-01T16:42:05.153Z</time></trkpt><trkpt lat="44.87029" lon="8.3445967"><ele>105.5</ele><time>2026-05-01T16:42:06.154Z</time></trkpt><trkpt lat="44.8704317" lon="8.3445667"><ele>105.0</ele><time>2026-05-01T16:42:07.152Z</time></trkpt><trkpt lat="44.87058" lon="8.3445283"><ele>105.0</ele><time>2026-05-01T16:42:08.154Z</time></trkpt><trkpt lat="44.8707267" lon="8.344495"><ele>105.0</ele><time>2026-05-01T16:42:09.151Z</time></trkpt><trkpt lat="44.87088" lon="8.34446"><ele>105.0</ele><time>2026-05-01T16:42:10.155Z</time></trkpt><trkpt lat="44.8710367" lon="8.3444233"><ele>106.33333333333334</ele><time>2026-05-01T16:42:11.151Z</time></trkpt><trkpt lat="44.8711917" lon="8.3443967"><ele>107.66666666666667</ele><time>2026-05-01T16:42:12.153Z</time></trkpt><trkpt lat="44.8713467" lon="8.3443683"><ele>109.0</ele><time>2026-05-01T16:42:13.154Z</time></trkpt><trkpt lat="44.8714983" lon="8.3443383"><ele>109.0</ele><time>2026-05-01T16:42:14.154Z</time></trkpt><trkpt lat="44.8716483" lon="8.3443133"><ele>109.0</ele><time>2026-05-01T16:42:15.152Z</time></trkpt><trkpt lat="44.8717917" lon="8.34429"><ele>109.0</ele><time>2026-05-01T16:42:16.152Z</time></trkpt><trkpt lat="44.8719333" lon="8.3442633"><ele>109.0</ele><time>2026-05-01T16:42:17.156Z</time></trkpt><trkpt lat="44.872075" lon="8.344235"><ele>110.5</ele><time>2026-05-01T16:42:18.158Z</time></trkpt><trkpt lat="44.8722167" lon="8.344205"><ele>112.0</ele><time>2026-05-01T16:42:19.153Z</time></trkpt><trkpt lat="44.8723583" lon="8.3441717"><ele>113.5</ele><time>2026-05-01T16:42:20.154Z</time></trkpt><trkpt lat="44.8724983" lon="8.3441383"><ele>115.0</ele><time>2026-05-01T16:42:21.153Z</time></trkpt><trkpt lat="44.8726417" lon="8.344105"><ele>115.5</ele><time>2026-05-01T16:42:22.154Z</time></trkpt><trkpt lat="44.872785" lon="8.3440667"><ele>116.0</ele><time>2026-05-01T16:42:23.156Z</time></trkpt><trkpt lat="44.8729283" lon="8.344025"><ele>116.5</ele><time>2026-05-01T16:42:24.155Z</time></trkpt><trkpt lat="44.873075" lon="8.343985"><ele>117.0</ele><time>2026-05-01T16:42:25.155Z</time></trkpt><trkpt lat="44.8732217" lon="8.3439383"><ele>117.0</ele><time>2026-05-01T16:42:26.15Z</time></trkpt><trkpt lat="44.8733683" lon="8.3438883"><ele>117.0</ele><time>2026-05-01T16:42:27.153Z</time></trkpt><trkpt lat="44.8735167" lon="8.3438367"><ele>117.0</ele><time>2026-05-01T16:42:28.153Z</time></trkpt><trkpt lat="44.8736617" lon="8.34378"><ele>117.33333333333334</ele><time>2026-05-01T16:42:29.156Z</time></trkpt><trkpt lat="44.8738083" lon="8.34373"><ele>117.66666666666667</ele><time>2026-05-01T16:42:30.152Z</time></trkpt><trkpt lat="44.8739617" lon="8.3436817"><ele>118.0</ele><time>2026-05-01T16:42:31.151Z</time></trkpt><trkpt lat="44.8741167" lon="8.34363"><ele>117.66666666666667</ele><time>2026-05-01T16:42:32.154Z</time></trkpt><trkpt lat="44.8742717" lon="8.3435733"><ele>117.33333333333334</ele><time>2026-05-01T16:42:33.153Z</time></trkpt><trkpt lat="44.8744267" lon="8.3435183"><ele>117.0</ele><time>2026-05-01T16:42:34.157Z</time></trkpt><trkpt lat="44.8745833" lon="8.34346"><ele>117.0</ele><time>2026-05-01T16:42:35.153Z</time></trkpt><trkpt lat="44.874745" lon="8.3434017"><ele>117.0</ele><time>2026-05-01T16:42:36.155Z</time></trkpt><trkpt lat="44.8749083" lon="8.343335"><ele>117.0</ele><time>2026-05-01T16:42:37.156Z</time></trkpt><trkpt lat="44.875075" lon="8.34326"><ele>117.33333333333334</ele><time>2026-05-01T16:42:38.154Z</time></trkpt><trkpt lat="44.8752433" lon="8.3431833"><ele>117.66666666666667</ele><time>2026-05-01T16:42:39.155Z</time></trkpt><trkpt lat="44.8754117" lon="8.3430867"><ele>118.0</ele><time>2026-05-01T16:42:40.153Z</time></trkpt><trkpt lat="44.8755833" lon="8.3429933"><ele>117.33333333333334</ele><time>2026-05-01T16:42:41.151Z</time></trkpt><trkpt lat="44.875755" lon="8.3429033"><ele>116.66666666666666</ele><time>2026-05-01T16:42:42.16Z</time></trkpt><trkpt lat="44.8759217" lon="8.342815"><ele>116.0</ele><time>2026-05-01T16:42:43.158Z</time></trkpt><trkpt lat="44.8760833" lon="8.3427283"><ele>115.66666666666666</ele><time>2026-05-01T16:42:44.154Z</time></trkpt><trkpt lat="44.8762433" lon="8.34264"><ele>115.33333333333334</ele><time>2026-05-01T16:42:45.152Z</time></trkpt><trkpt lat="44.8764017" lon="8.3425533"><ele>115.0</ele><time>2026-05-01T16:42:46.153Z</time></trkpt><trkpt lat="44.8765533" lon="8.3424767"><ele>115.0</ele><time>2026-05-01T16:42:47.156Z</time></trkpt><trkpt lat="44.8767067" lon="8.3423967"><ele>115.0</ele><time>2026-05-01T16:42:48.155Z</time></trkpt><trkpt lat="44.8768567" lon="8.3423117"><ele>115.0</ele><time>2026-05-01T16:42:49.151Z</time></trkpt><trkpt lat="44.87701" lon="8.34223"><ele>114.66666666666667</ele><time>2026-05-01T16:42:50.157Z</time></trkpt><trkpt lat="44.877165" lon="8.34215"><ele>114.33333333333334</ele><time>2026-05-01T16:42:51.153Z</time></trkpt><trkpt lat="44.87732" lon="8.3420667"><ele>114.0</ele><time>2026-05-01T16:42:52.154Z</time></trkpt><trkpt lat="44.8774783" lon="8.3419867"><ele>115.66666666666666</ele><time>2026-05-01T16:42:53.156Z</time></trkpt><trkpt lat="44.8776383" lon="8.3418933"><ele>117.33333333333333</ele><time>2026-05-01T16:42:54.155Z</time></trkpt><trkpt lat="44.8777983" lon="8.3417983"><ele>119.0</ele><time>2026-05-01T16:42:55.155Z</time></trkpt><trkpt lat="44.87796" lon="8.3416983"><ele>119.0</ele><time>2026-05-01T16:42:56.152Z</time></trkpt><trkpt lat="44.8781233" lon="8.3416"><ele>119.0</ele><time>2026-05-01T16:42:57.156Z</time></trkpt><trkpt lat="44.8782883" lon="8.3415"><ele>119.0</ele><time>2026-05-01T16:42:58.154Z</time></trkpt><trkpt lat="44.8784517" lon="8.3413933"><ele>119.66666666666666</ele><time>2026-05-01T16:42:59.156Z</time></trkpt><trkpt lat="44.878615" lon="8.341295"><ele>120.33333333333334</ele><time>2026-05-01T16:43:00.153Z</time></trkpt><trkpt lat="44.8787733" lon="8.34119"><ele>121.0</ele><time>2026-05-01T16:43:01.15Z</time></trkpt><trkpt lat="44.878925" lon="8.3410867"><ele>121.0</ele><time>2026-05-01T16:43:02.153Z</time></trkpt><trkpt lat="44.8790683" lon="8.3409883"><ele>121.0</ele><time>2026-05-01T16:43:03.149Z</time></trkpt><trkpt lat="44.879205" lon="8.3408983"><ele>121.0</ele><time>2026-05-01T16:43:04.153Z</time></trkpt><trkpt lat="44.879335" lon="8.3408133"><ele>120.75</ele><time>2026-05-01T16:43:05.152Z</time></trkpt><trkpt lat="44.87946" lon="8.3407283"><ele>120.5</ele><time>2026-05-01T16:43:06.153Z</time></trkpt><trkpt lat="44.8795833" lon="8.3406467"><ele>120.25</ele><time>2026-05-01T16:43:07.155Z</time></trkpt><trkpt lat="44.8797017" lon="8.3405683"><ele>120.0</ele><time>2026-05-01T16:43:08.152Z</time></trkpt><trkpt lat="44.8798133" lon="8.340495"><ele>120.0</ele><time>2026-05-01T16:43:09.153Z</time></trkpt><trkpt lat="44.87992" lon="8.3404233"><ele>120.0</ele><time>2026-05-01T16:43:10.153Z</time></trkpt><trkpt lat="44.8800217" lon="8.3403567"><ele>120.0</ele><time>2026-05-01T16:43:11.156Z</time></trkpt><trkpt lat="44.8801183" lon="8.340295"><ele>120.0</ele><time>2026-05-01T16:43:12.151Z</time></trkpt><trkpt lat="44.8802083" lon="8.3402383"><ele>120.0</ele><time>2026-05-01T16:43:13.157Z</time></trkpt><trkpt lat="44.880285" lon="8.3402033"><ele>120.0</ele><time>2026-05-01T16:43:14.153Z</time></trkpt><trkpt lat="44.880345" lon="8.3401717"><ele>120.0</ele><time>2026-05-01T16:43:15.151Z</time></trkpt><trkpt lat="44.8804133" lon="8.3401317"><ele>120.0</ele><time>2026-05-01T16:43:18.156Z</time></trkpt><trkpt lat="44.8804367" lon="8.3399933"><ele>120.0</ele><time>2026-05-01T16:43:23.151Z</time></trkpt><trkpt lat="44.8804167" lon="8.3399033"><ele>120.0</ele><time>2026-05-01T16:43:24.15Z</time></trkpt><trkpt lat="44.8803817" lon="8.33979"><ele>120.0</ele><time>2026-05-01T16:43:25.162Z</time></trkpt><trkpt lat="44.880345" lon="8.3396617"><ele>120.0</ele><time>2026-05-01T16:43:26.151Z</time></trkpt><trkpt lat="44.8803" lon="8.339505"><ele>120.0</ele><time>2026-05-01T16:43:27.153Z</time></trkpt><trkpt lat="44.8802517" lon="8.3393267"><ele>120.0</ele><time>2026-05-01T16:43:28.151Z</time></trkpt><trkpt lat="44.8802017" lon="8.339155"><ele>120.0</ele><time>2026-05-01T16:43:29.153Z</time></trkpt><trkpt lat="44.8801467" lon="8.3389733"><ele>120.33333333333334</ele><time>2026-05-01T16:43:30.153Z</time></trkpt><trkpt lat="44.8800933" lon="8.3387767"><ele>120.66666666666667</ele><time>2026-05-01T16:43:31.154Z</time></trkpt><trkpt lat="44.8800317" lon="8.3385683"><ele>121.0</ele><time>2026-05-01T16:43:32.151Z</time></trkpt><trkpt lat="44.8799783" lon="8.3383583"><ele>121.0</ele><time>2026-05-01T16:43:33.156Z</time></trkpt><trkpt lat="44.8799233" lon="8.3381567"><ele>121.0</ele><time>2026-05-01T16:43:34.151Z</time></trkpt><trkpt lat="44.87987" lon="8.3379517"><ele>121.0</ele><time>2026-05-01T16:43:35.153Z</time></trkpt><trkpt lat="44.8798167" lon="8.3377517"><ele>121.0</ele><time>2026-05-01T16:43:36.158Z</time></trkpt><trkpt lat="44.87977" lon="8.3375533"><ele>121.0</ele><time>2026-05-01T16:43:37.15Z</time></trkpt><trkpt lat="44.879715" lon="8.3373567"><ele>121.0</ele><time>2026-05-01T16:43:38.16Z</time></trkpt><trkpt lat="44.8796583" lon="8.3371583"><ele>121.0</ele><time>2026-05-01T16:43:39.15Z</time></trkpt><trkpt lat="44.8796033" lon="8.336955"><ele>121.0</ele><time>2026-05-01T16:43:40.151Z</time></trkpt><trkpt lat="44.8795483" lon="8.33675"><ele>121.0</ele><time>2026-05-01T16:43:41.154Z</time></trkpt><trkpt lat="44.8794933" lon="8.3365367"><ele>121.0</ele><time>2026-05-01T16:43:42.152Z</time></trkpt><trkpt lat="44.8794317" lon="8.3363317"><ele>121.33333333333334</ele><time>2026-05-01T16:43:43.155Z</time></trkpt><trkpt lat="44.8793683" lon="8.336115"><ele>121.66666666666666</ele><time>2026-05-01T16:43:44.152Z</time></trkpt><trkpt lat="44.87931" lon="8.3358967"><ele>122.0</ele><time>2026-05-01T16:43:45.154Z</time></trkpt><trkpt lat="44.8792583" lon="8.33568"><ele>123.66666666666666</ele><time>2026-05-01T16:43:46.151Z</time></trkpt><trkpt lat="44.879205" lon="8.3354667"><ele>125.33333333333334</ele><time>2026-05-01T16:43:47.157Z</time></trkpt><trkpt lat="44.8791517" lon="8.335255"><ele>127.0</ele><time>2026-05-01T16:43:48.152Z</time></trkpt><trkpt lat="44.879105" lon="8.3350433"><ele>127.0</ele><time>2026-05-01T16:43:49.15Z</time></trkpt><trkpt lat="44.8790633" lon="8.334825"><ele>127.0</ele><time>2026-05-01T16:43:50.154Z</time></trkpt><trkpt lat="44.879035" lon="8.3345767"><ele>127.0</ele><time>2026-05-01T16:43:51.15Z</time></trkpt><trkpt lat="44.8789933" lon="8.3342933"><ele>124.0</ele><time>2026-05-01T16:43:52.153Z</time></trkpt><trkpt lat="44.8789433" lon="8.3339917"><ele>121.0</ele><time>2026-05-01T16:43:53.156Z</time></trkpt><trkpt lat="44.8788967" lon="8.33367"><ele>119.5</ele><time>2026-05-01T16:43:54.153Z</time></trkpt><trkpt lat="44.8788517" lon="8.3333217"><ele>118.0</ele><time>2026-05-01T16:43:55.157Z</time></trkpt><trkpt lat="44.8788233" lon="8.332975"><ele>117.5</ele><time>2026-05-01T16:43:56.15Z</time></trkpt><trkpt lat="44.8787983" lon="8.332635"><ele>117.0</ele><time>2026-05-01T16:43:57.155Z</time></trkpt><trkpt lat="44.878765" lon="8.3323133"><ele>117.33333333333334</ele><time>2026-05-01T16:43:58.151Z</time></trkpt><trkpt lat="44.8787417" lon="8.3319967"><ele>117.66666666666667</ele><time>2026-05-01T16:43:59.152Z</time></trkpt><trkpt lat="44.8787233" lon="8.3316833"><ele>118.0</ele><time>2026-05-01T16:44:00.15Z</time></trkpt><trkpt lat="44.8787" lon="8.3313717"><ele>118.66666666666667</ele><time>2026-05-01T16:44:01.155Z</time></trkpt><trkpt lat="44.8786733" lon="8.3310667"><ele>119.33333333333334</ele><time>2026-05-01T16:44:02.157Z</time></trkpt><trkpt lat="44.8786467" lon="8.33076"><ele>120.0</ele><time>2026-05-01T16:44:03.154Z</time></trkpt><trkpt lat="44.878615" lon="8.3304583"><ele>120.33333333333334</ele><time>2026-05-01T16:44:04.156Z</time></trkpt><trkpt lat="44.87858" lon="8.33016"><ele>120.66666666666667</ele><time>2026-05-01T16:44:05.155Z</time></trkpt><trkpt lat="44.8785467" lon="8.3298683"><ele>121.0</ele><time>2026-05-01T16:44:06.154Z</time></trkpt><trkpt lat="44.87851" lon="8.329575"><ele>121.0</ele><time>2026-05-01T16:44:07.159Z</time></trkpt><trkpt lat="44.87848" lon="8.32928"><ele>121.0</ele><time>2026-05-01T16:44:08.153Z</time></trkpt><trkpt lat="44.8784533" lon="8.3289867"><ele>121.0</ele><time>2026-05-01T16:44:09.152Z</time></trkpt><trkpt lat="44.8784217" lon="8.3286933"><ele>118.66666666666667</ele><time>2026-05-01T16:44:10.156Z</time></trkpt><trkpt lat="44.87839" lon="8.3284017"><ele>116.33333333333334</ele><time>2026-05-01T16:44:11.154Z</time></trkpt><trkpt lat="44.8783683" lon="8.32811"><ele>114.0</ele><time>2026-05-01T16:44:12.154Z</time></trkpt><trkpt lat="44.878345" lon="8.32782"><ele>114.0</ele><time>2026-05-01T16:44:13.162Z</time></trkpt><trkpt lat="44.8783083" lon="8.32754"><ele>114.0</ele><time>2026-05-01T16:44:14.151Z</time></trkpt><trkpt lat="44.878285" lon="8.32727"><ele>114.0</ele><time>2026-05-01T16:44:15.156Z</time></trkpt><trkpt lat="44.8782617" lon="8.3269983"><ele>114.66666666666666</ele><time>2026-05-01T16:44:16.155Z</time></trkpt><trkpt lat="44.878235" lon="8.32673"><ele>115.33333333333333</ele><time>2026-05-01T16:44:17.154Z</time></trkpt><trkpt lat="44.8782067" lon="8.3264617"><ele>116.0</ele><time>2026-05-01T16:44:18.157Z</time></trkpt><trkpt lat="44.8781783" lon="8.3261833"><ele>116.66666666666666</ele><time>2026-05-01T16:44:19.157Z</time></trkpt><trkpt lat="44.878155" lon="8.3259"><ele>117.33333333333334</ele><time>2026-05-01T16:44:20.153Z</time></trkpt><trkpt lat="44.8781267" lon="8.325615"><ele>118.0</ele><time>2026-05-01T16:44:21.157Z</time></trkpt><trkpt lat="44.8781033" lon="8.3253217"><ele>118.66666666666667</ele><time>2026-05-01T16:44:22.155Z</time></trkpt><trkpt lat="44.8780833" lon="8.325035"><ele>119.33333333333334</ele><time>2026-05-01T16:44:23.154Z</time></trkpt><trkpt lat="44.878055" lon="8.3247433"><ele>120.0</ele><time>2026-05-01T16:44:24.158Z</time></trkpt><trkpt lat="44.8780283" lon="8.3244583"><ele>120.66666666666666</ele><time>2026-05-01T16:44:25.156Z</time></trkpt><trkpt lat="44.878005" lon="8.3241817"><ele>121.33333333333333</ele><time>2026-05-01T16:44:26.154Z</time></trkpt><trkpt lat="44.8779833" lon="8.3239317"><ele>122.0</ele><time>2026-05-01T16:44:27.153Z</time></trkpt><trkpt lat="44.8779617" lon="8.323695"><ele>122.66666666666666</ele><time>2026-05-01T16:44:28.154Z</time></trkpt><trkpt lat="44.87794" lon="8.32347"><ele>123.33333333333334</ele><time>2026-05-01T16:44:29.155Z</time></trkpt><trkpt lat="44.87792" lon="8.3232483"><ele>124.0</ele><time>2026-05-01T16:44:30.155Z</time></trkpt><trkpt lat="44.8779067" lon="8.3230383"><ele>124.0</ele><time>2026-05-01T16:44:31.156Z</time></trkpt><trkpt lat="44.8778867" lon="8.3228383"><ele>124.0</ele><time>2026-05-01T16:44:32.157Z</time></trkpt><trkpt lat="44.8778667" lon="8.3226467"><ele>124.0</ele><time>2026-05-01T16:44:33.157Z</time></trkpt><trkpt lat="44.8778417" lon="8.3224717"><ele>124.0</ele><time>2026-05-01T16:44:34.16Z</time></trkpt><trkpt lat="44.877825" lon="8.3223133"><ele>123.16666666666667</ele><time>2026-05-01T16:44:35.154Z</time></trkpt><trkpt lat="44.87782" lon="8.3221867"><ele>122.33333333333334</ele><time>2026-05-01T16:44:36.153Z</time></trkpt><trkpt lat="44.87782" lon="8.3220767"><ele>121.5</ele><time>2026-05-01T16:44:37.154Z</time></trkpt><trkpt lat="44.8778333" lon="8.321975"><ele>120.66666666666666</ele><time>2026-05-01T16:44:38.162Z</time></trkpt><trkpt lat="44.8779083" lon="8.321865"><ele>119.83333333333333</ele><time>2026-05-01T16:44:40.155Z</time></trkpt><trkpt lat="44.87798" lon="8.3217933"><ele>119.0</ele><time>2026-05-01T16:44:42.156Z</time></trkpt><trkpt lat="44.877995" lon="8.3216817"><ele>118.99999999999999</ele><time>2026-05-01T16:44:44.151Z</time></trkpt><trkpt lat="44.878" lon="8.3215783"><ele>119.0</ele><time>2026-05-01T16:47:49.15Z</time></trkpt><trkpt lat="44.877925" lon="8.3215183"><ele>119.0</ele><time>2026-05-01T16:47:52.155Z</time></trkpt><trkpt lat="44.8778617" lon="8.3214933"><ele>119.0</ele><time>2026-05-01T16:47:54.156Z</time></trkpt><trkpt lat="44.8777917" lon="8.321405"><ele>118.99999999999999</ele><time>2026-05-01T16:48:01.154Z</time></trkpt><trkpt lat="44.8777567" lon="8.3212483"><ele>119.0</ele><time>2026-05-01T16:48:03.152Z</time></trkpt><trkpt lat="44.87774" lon="8.3211517"><ele>118.2</ele><time>2026-05-01T16:48:04.152Z</time></trkpt><trkpt lat="44.8777267" lon="8.3210433"><ele>117.4</ele><time>2026-05-01T16:48:05.151Z</time></trkpt><trkpt lat="44.877715" lon="8.3209183"><ele>116.6</ele><time>2026-05-01T16:48:06.153Z</time></trkpt><trkpt lat="44.877705" lon="8.3207767"><ele>115.8</ele><time>2026-05-01T16:48:07.153Z</time></trkpt><trkpt lat="44.87769" lon="8.3206133"><ele>115.0</ele><time>2026-05-01T16:48:08.152Z</time></trkpt><trkpt lat="44.8776633" lon="8.3204333"><ele>114.25</ele><time>2026-05-01T16:48:09.152Z</time></trkpt><trkpt lat="44.8776383" lon="8.3202583"><ele>113.5</ele><time>2026-05-01T16:48:10.151Z</time></trkpt><trkpt lat="44.8776083" lon="8.320075"><ele>112.75</ele><time>2026-05-01T16:48:11.155Z</time></trkpt><trkpt lat="44.8775833" lon="8.3198883"><ele>112.0</ele><time>2026-05-01T16:48:12.154Z</time></trkpt><trkpt lat="44.8775667" lon="8.3196983"><ele>111.75</ele><time>2026-05-01T16:48:13.152Z</time></trkpt><trkpt lat="44.8775567" lon="8.3195017"><ele>111.5</ele><time>2026-05-01T16:48:14.153Z</time></trkpt><trkpt lat="44.87754" lon="8.3193"><ele>111.25</ele><time>2026-05-01T16:48:15.151Z</time></trkpt><trkpt lat="44.8775183" lon="8.3191067"><ele>111.0</ele><time>2026-05-01T16:48:16.152Z</time></trkpt><trkpt lat="44.877495" lon="8.3189317"><ele>111.5</ele><time>2026-05-01T16:48:17.15Z</time></trkpt><trkpt lat="44.87748" lon="8.3187633"><ele>112.0</ele><time>2026-05-01T16:48:18.157Z</time></trkpt><trkpt lat="44.8774733" lon="8.3186083"><ele>112.5</ele><time>2026-05-01T16:48:19.152Z</time></trkpt><trkpt lat="44.8774933" lon="8.31844"><ele>113.0</ele><time>2026-05-01T16:48:20.154Z</time></trkpt><trkpt lat="44.8775383" lon="8.318265"><ele>113.0</ele><time>2026-05-01T16:48:21.152Z</time></trkpt><trkpt lat="44.8776" lon="8.318075"><ele>113.0</ele><time>2026-05-01T16:48:22.151Z</time></trkpt><trkpt lat="44.8776717" lon="8.3178867"><ele>113.0</ele><time>2026-05-01T16:48:23.151Z</time></trkpt><trkpt lat="44.8777367" lon="8.3177017"><ele>113.0</ele><time>2026-05-01T16:48:24.157Z</time></trkpt><trkpt lat="44.8778033" lon="8.3175167"><ele>112.0</ele><time>2026-05-01T16:48:25.15Z</time></trkpt><trkpt lat="44.877865" lon="8.317325"><ele>111.0</ele><time>2026-05-01T16:48:26.151Z</time></trkpt><trkpt lat="44.8779333" lon="8.3171333"><ele>110.0</ele><time>2026-05-01T16:48:27.154Z</time></trkpt><trkpt lat="44.8780017" lon="8.31694"><ele>110.0</ele><time>2026-05-01T16:48:28.154Z</time></trkpt><trkpt lat="44.8780767" lon="8.3167467"><ele>110.0</ele><time>2026-05-01T16:48:29.154Z</time></trkpt><trkpt lat="44.878155" lon="8.316555"><ele>110.0</ele><time>2026-05-01T16:48:30.154Z</time></trkpt><trkpt lat="44.8782283" lon="8.3163633"><ele>109.75</ele><time>2026-05-01T16:48:31.153Z</time></trkpt><trkpt lat="44.8783" lon="8.3161767"><ele>109.5</ele><time>2026-05-01T16:48:32.155Z</time></trkpt><trkpt lat="44.87837" lon="8.3159917"><ele>109.25</ele><time>2026-05-01T16:48:33.153Z</time></trkpt><trkpt lat="44.87844" lon="8.315805"><ele>109.0</ele><time>2026-05-01T16:48:34.15Z</time></trkpt><trkpt lat="44.8785067" lon="8.31562"><ele>109.0</ele><time>2026-05-01T16:48:35.152Z</time></trkpt><trkpt lat="44.8785767" lon="8.31545"><ele>109.0</ele><time>2026-05-01T16:48:36.151Z</time></trkpt><trkpt lat="44.8786417" lon="8.3152783"><ele>109.0</ele><time>2026-05-01T16:48:37.154Z</time></trkpt><trkpt lat="44.8787033" lon="8.315115"><ele>109.0</ele><time>2026-05-01T16:48:38.153Z</time></trkpt><trkpt lat="44.87876" lon="8.3149617"><ele>109.0</ele><time>2026-05-01T16:48:39.15Z</time></trkpt><trkpt lat="44.8788183" lon="8.31481"><ele>109.0</ele><time>2026-05-01T16:48:40.152Z</time></trkpt><trkpt lat="44.8788717" lon="8.3146633"><ele>109.0</ele><time>2026-05-01T16:48:41.151Z</time></trkpt><trkpt lat="44.87893" lon="8.3145217"><ele>109.0</ele><time>2026-05-01T16:48:42.156Z</time></trkpt><trkpt lat="44.878985" lon="8.31439"><ele>109.0</ele><time>2026-05-01T16:48:43.151Z</time></trkpt><trkpt lat="44.87904" lon="8.31426"><ele>109.0</ele><time>2026-05-01T16:48:44.152Z</time></trkpt><trkpt lat="44.8790917" lon="8.3141267"><ele>109.0</ele><time>2026-05-01T16:48:45.15Z</time></trkpt><trkpt lat="44.8791367" lon="8.3140017"><ele>109.0</ele><time>2026-05-01T16:48:46.154Z</time></trkpt><trkpt lat="44.8791783" lon="8.3139033"><ele>109.0</ele><time>2026-05-01T16:48:47.154Z</time></trkpt><trkpt lat="44.87923" lon="8.3138467"><ele>109.0</ele><time>2026-05-01T16:48:48.154Z</time></trkpt><trkpt lat="44.8793417" lon="8.3138617"><ele>109.0</ele><time>2026-05-01T16:48:50.154Z</time></trkpt><trkpt lat="44.8794" lon="8.31392"><ele>109.0</ele><time>2026-05-01T16:48:51.154Z</time></trkpt><trkpt lat="44.8794667" lon="8.3140083"><ele>109.0</ele><time>2026-05-01T16:48:52.153Z</time></trkpt><trkpt lat="44.8795317" lon="8.3141117"><ele>109.0</ele><time>2026-05-01T16:48:53.152Z</time></trkpt><trkpt lat="44.8796" lon="8.3142167"><ele>109.00000000000001</ele><time>2026-05-01T16:48:54.155Z</time></trkpt><trkpt lat="44.879665" lon="8.3142983"><ele>109.0</ele><time>2026-05-01T16:48:55.153Z</time></trkpt><trkpt lat="44.8797333" lon="8.3143433"><ele>109.0</ele><time>2026-05-01T16:48:56.151Z</time></trkpt><trkpt lat="44.8798133" lon="8.3143533"><ele>109.0</ele><time>2026-05-01T16:48:57.155Z</time></trkpt><trkpt lat="44.879895" lon="8.31435"><ele>109.00000000000001</ele><time>2026-05-01T16:48:58.152Z</time></trkpt><trkpt lat="44.879995" lon="8.31427"><ele>109.0</ele><time>2026-05-01T16:48:59.151Z</time></trkpt><trkpt lat="44.8800933" lon="8.3142183"><ele>109.5</ele><time>2026-05-01T16:49:00.154Z</time></trkpt><trkpt lat="44.8802033" lon="8.3141383"><ele>110.0</ele><time>2026-05-01T16:49:01.151Z</time></trkpt><trkpt lat="44.8803167" lon="8.3140467"><ele>110.5</ele><time>2026-05-01T16:49:02.156Z</time></trkpt><trkpt lat="44.8804217" lon="8.3139583"><ele>111.0</ele><time>2026-05-01T16:49:03.156Z</time></trkpt><trkpt lat="44.88053" lon="8.313885"><ele>111.0</ele><time>2026-05-01T16:49:04.154Z</time></trkpt><trkpt lat="44.8806233" lon="8.3138067"><ele>111.0</ele><time>2026-05-01T16:49:05.153Z</time></trkpt><trkpt lat="44.880715" lon="8.3137417"><ele>111.0</ele><time>2026-05-01T16:49:06.153Z</time></trkpt><trkpt lat="44.8807917" lon="8.3136833"><ele>111.0</ele><time>2026-05-01T16:49:07.152Z</time></trkpt><trkpt lat="44.88085" lon="8.3136367"><ele>111.0</ele><time>2026-05-01T16:49:08.15Z</time></trkpt><trkpt lat="44.8809433" lon="8.3135483"><ele>111.0</ele><time>2026-05-01T16:49:10.152Z</time></trkpt><trkpt lat="44.8810133" lon="8.3134983"><ele>111.0</ele><time>2026-05-01T16:49:12.152Z</time></trkpt><trkpt lat="44.8810933" lon="8.3134367"><ele>111.0</ele><time>2026-05-01T16:49:15.15Z</time></trkpt><trkpt lat="44.8812017" lon="8.3133267"><ele>111.0</ele><time>2026-05-01T16:49:17.153Z</time></trkpt><trkpt lat="44.8813033" lon="8.3132583"><ele>111.0</ele><time>2026-05-01T16:49:18.151Z</time></trkpt><trkpt lat="44.8814133" lon="8.3131883"><ele>111.0</ele><time>2026-05-01T16:49:19.155Z</time></trkpt><trkpt lat="44.8815317" lon="8.313115"><ele>111.0</ele><time>2026-05-01T16:49:20.153Z</time></trkpt><trkpt lat="44.881665" lon="8.3130283"><ele>111.0</ele><time>2026-05-01T16:49:21.152Z</time></trkpt><trkpt lat="44.8817933" lon="8.3129483"><ele>111.0</ele><time>2026-05-01T16:49:22.154Z</time></trkpt><trkpt lat="44.88193" lon="8.3128633"><ele>112.33333333333334</ele><time>2026-05-01T16:49:23.151Z</time></trkpt><trkpt lat="44.8820683" lon="8.3127683"><ele>113.66666666666667</ele><time>2026-05-01T16:49:24.153Z</time></trkpt><trkpt lat="44.8822083" lon="8.31267"><ele>115.0</ele><time>2026-05-01T16:49:25.151Z</time></trkpt><trkpt lat="44.882345" lon="8.3125767"><ele>115.0</ele><time>2026-05-01T16:49:26.149Z</time></trkpt><trkpt lat="44.8824767" lon="8.312475"><ele>115.0</ele><time>2026-05-01T16:49:27.151Z</time></trkpt><trkpt lat="44.8826083" lon="8.3123717"><ele>115.0</ele><time>2026-05-01T16:49:28.154Z</time></trkpt><trkpt lat="44.8827417" lon="8.312285"><ele>115.0</ele><time>2026-05-01T16:49:29.152Z</time></trkpt><trkpt lat="44.8828683" lon="8.3121833"><ele>115.5</ele><time>2026-05-01T16:49:30.16Z</time></trkpt><trkpt lat="44.8829983" lon="8.31208"><ele>116.0</ele><time>2026-05-01T16:49:31.152Z</time></trkpt><trkpt lat="44.8831217" lon="8.31197"><ele>116.5</ele><time>2026-05-01T16:49:32.154Z</time></trkpt><trkpt lat="44.8832467" lon="8.311855"><ele>117.0</ele><time>2026-05-01T16:49:33.149Z</time></trkpt><trkpt lat="44.883375" lon="8.3117433"><ele>119.0</ele><time>2026-05-01T16:49:34.155Z</time></trkpt><trkpt lat="44.8835117" lon="8.3116217"><ele>121.0</ele><time>2026-05-01T16:49:35.151Z</time></trkpt><trkpt lat="44.88365" lon="8.3115"><ele>123.0</ele><time>2026-05-01T16:49:36.154Z</time></trkpt><trkpt lat="44.8837967" lon="8.3113717"><ele>123.0</ele><time>2026-05-01T16:49:37.153Z</time></trkpt><trkpt lat="44.8839433" lon="8.3112383"><ele>123.0</ele><time>2026-05-01T16:49:38.152Z</time></trkpt><trkpt lat="44.8840883" lon="8.311115"><ele>123.0</ele><time>2026-05-01T16:49:39.153Z</time></trkpt><trkpt lat="44.884235" lon="8.311"><ele>123.0</ele><time>2026-05-01T16:49:40.155Z</time></trkpt><trkpt lat="44.8843883" lon="8.3108983"><ele>123.0</ele><time>2026-05-01T16:49:41.155Z</time></trkpt><trkpt lat="44.8845467" lon="8.3108"><ele>123.0</ele><time>2026-05-01T16:49:42.153Z</time></trkpt><trkpt lat="44.884705" lon="8.3107083"><ele>123.0</ele><time>2026-05-01T16:49:43.152Z</time></trkpt><trkpt lat="44.8848667" lon="8.3106217"><ele>123.0</ele><time>2026-05-01T16:49:44.152Z</time></trkpt><trkpt lat="44.8850383" lon="8.3105417"><ele>123.0</ele><time>2026-05-01T16:49:45.154Z</time></trkpt><trkpt lat="44.885205" lon="8.3104667"><ele>122.0</ele><time>2026-05-01T16:49:46.155Z</time></trkpt><trkpt lat="44.8853783" lon="8.3103783"><ele>121.0</ele><time>2026-05-01T16:49:47.158Z</time></trkpt><trkpt lat="44.885555" lon="8.3102983"><ele>120.0</ele><time>2026-05-01T16:49:48.153Z</time></trkpt><trkpt lat="44.8857283" lon="8.31021"><ele>120.0</ele><time>2026-05-01T16:49:49.155Z</time></trkpt><trkpt lat="44.8859067" lon="8.3101233"><ele>120.0</ele><time>2026-05-01T16:49:50.155Z</time></trkpt><trkpt lat="44.8860933" lon="8.3100367"><ele>120.0</ele><time>2026-05-01T16:49:51.154Z</time></trkpt><trkpt lat="44.8862817" lon="8.30995"><ele>121.0</ele><time>2026-05-01T16:49:52.158Z</time></trkpt><trkpt lat="44.8864717" lon="8.3098683"><ele>122.0</ele><time>2026-05-01T16:49:53.152Z</time></trkpt><trkpt lat="44.8866583" lon="8.309785"><ele>123.0</ele><time>2026-05-01T16:49:54.155Z</time></trkpt><trkpt lat="44.88684" lon="8.3096983"><ele>123.0</ele><time>2026-05-01T16:49:55.157Z</time></trkpt><trkpt lat="44.8870217" lon="8.30961"><ele>123.0</ele><time>2026-05-01T16:49:56.159Z</time></trkpt><trkpt lat="44.8872033" lon="8.30952"><ele>123.0</ele><time>2026-05-01T16:49:57.153Z</time></trkpt><trkpt lat="44.88739" lon="8.3094317"><ele>123.0</ele><time>2026-05-01T16:49:58.154Z</time></trkpt><trkpt lat="44.8875733" lon="8.3093433"><ele>123.0</ele><time>2026-05-01T16:49:59.15Z</time></trkpt><trkpt lat="44.8877617" lon="8.3092583"><ele>123.0</ele><time>2026-05-01T16:50:00.151Z</time></trkpt><trkpt lat="44.8879467" lon="8.3091517"><ele>123.66666666666666</ele><time>2026-05-01T16:50:01.154Z</time></trkpt><trkpt lat="44.8881233" lon="8.3090183"><ele>124.33333333333333</ele><time>2026-05-01T16:50:02.153Z</time></trkpt><trkpt lat="44.888295" lon="8.3088733"><ele>125.0</ele><time>2026-05-01T16:50:03.155Z</time></trkpt><trkpt lat="44.8884683" lon="8.30874"><ele>128.33333333333331</ele><time>2026-05-01T16:50:04.151Z</time></trkpt><trkpt lat="44.888635" lon="8.3086067"><ele>131.66666666666666</ele><time>2026-05-01T16:50:05.15Z</time></trkpt><trkpt lat="44.8888017" lon="8.3084733"><ele>135.0</ele><time>2026-05-01T16:50:06.152Z</time></trkpt><trkpt lat="44.8889667" lon="8.30834"><ele>135.0</ele><time>2026-05-01T16:50:07.152Z</time></trkpt><trkpt lat="44.88913" lon="8.3082117"><ele>135.0</ele><time>2026-05-01T16:50:08.155Z</time></trkpt><trkpt lat="44.8892917" lon="8.3080817"><ele>135.0</ele><time>2026-05-01T16:50:09.155Z</time></trkpt><trkpt lat="44.88945" lon="8.3079533"><ele>132.33333333333334</ele><time>2026-05-01T16:50:10.158Z</time></trkpt><trkpt lat="44.8896017" lon="8.307825"><ele>129.66666666666669</ele><time>2026-05-01T16:50:11.151Z</time></trkpt><trkpt lat="44.889745" lon="8.30769"><ele>127.0</ele><time>2026-05-01T16:50:12.152Z</time></trkpt><trkpt lat="44.88988" lon="8.3075517"><ele>127.0</ele><time>2026-05-01T16:50:13.151Z</time></trkpt><trkpt lat="44.890005" lon="8.3074133"><ele>127.0</ele><time>2026-05-01T16:50:14.154Z</time></trkpt><trkpt lat="44.89011" lon="8.3072733"><ele>127.0</ele><time>2026-05-01T16:50:15.151Z</time></trkpt><trkpt lat="44.8901967" lon="8.307125"><ele>127.0</ele><time>2026-05-01T16:50:16.153Z</time></trkpt><trkpt lat="44.890265" lon="8.3069683"><ele>127.0</ele><time>2026-05-01T16:50:17.152Z</time></trkpt><trkpt lat="44.8903217" lon="8.3067933"><ele>127.0</ele><time>2026-05-01T16:50:18.152Z</time></trkpt><trkpt lat="44.8903533" lon="8.306605"><ele>127.0</ele><time>2026-05-01T16:50:19.154Z</time></trkpt><trkpt lat="44.8903583" lon="8.3064083"><ele>127.0</ele><time>2026-05-01T16:50:20.152Z</time></trkpt><trkpt lat="44.8903483" lon="8.3062117"><ele>130.0</ele><time>2026-05-01T16:50:21.149Z</time></trkpt><trkpt lat="44.8903117" lon="8.3060117"><ele>133.0</ele><time>2026-05-01T16:50:22.151Z</time></trkpt><trkpt lat="44.8902583" lon="8.3058133"><ele>136.0</ele><time>2026-05-01T16:50:23.15Z</time></trkpt><trkpt lat="44.8901967" lon="8.30562"><ele>139.0</ele><time>2026-05-01T16:50:24.151Z</time></trkpt><trkpt lat="44.8901267" lon="8.30544"><ele>139.75</ele><time>2026-05-01T16:50:25.158Z</time></trkpt><trkpt lat="44.8900417" lon="8.3052933"><ele>140.5</ele><time>2026-05-01T16:50:26.15Z</time></trkpt><trkpt lat="44.8899967" lon="8.3051233"><ele>141.25</ele><time>2026-05-01T16:50:27.152Z</time></trkpt><trkpt lat="44.8899667" lon="8.3049583"><ele>142.0</ele><time>2026-05-01T16:50:28.149Z</time></trkpt><trkpt lat="44.8899583" lon="8.304785"><ele>142.25</ele><time>2026-05-01T16:50:29.151Z</time></trkpt><trkpt lat="44.8899633" lon="8.3046117"><ele>142.5</ele><time>2026-05-01T16:50:30.151Z</time></trkpt><trkpt lat="44.8899933" lon="8.30444"><ele>142.75</ele><time>2026-05-01T16:50:31.154Z</time></trkpt><trkpt lat="44.8900333" lon="8.3042733"><ele>143.0</ele><time>2026-05-01T16:50:32.155Z</time></trkpt><trkpt lat="44.8901033" lon="8.3041067"><ele>142.33333333333331</ele><time>2026-05-01T16:50:33.152Z</time></trkpt><trkpt lat="44.8902017" lon="8.3039467"><ele>141.66666666666666</ele><time>2026-05-01T16:50:34.149Z</time></trkpt><trkpt lat="44.8903283" lon="8.3037933"><ele>141.0</ele><time>2026-05-01T16:50:35.152Z</time></trkpt><trkpt lat="44.8904617" lon="8.3036283"><ele>141.0</ele><time>2026-05-01T16:50:36.155Z</time></trkpt><trkpt lat="44.8906167" lon="8.303465"><ele>141.0</ele><time>2026-05-01T16:50:37.15Z</time></trkpt><trkpt lat="44.8907667" lon="8.3032883"><ele>141.0</ele><time>2026-05-01T16:50:38.159Z</time></trkpt><trkpt lat="44.8909183" lon="8.3031"><ele>140.0</ele><time>2026-05-01T16:50:39.151Z</time></trkpt><trkpt lat="44.8910817" lon="8.30291"><ele>139.0</ele><time>2026-05-01T16:50:40.152Z</time></trkpt><trkpt lat="44.8912533" lon="8.30272"><ele>138.0</ele><time>2026-05-01T16:50:41.15Z</time></trkpt><trkpt lat="44.8914233" lon="8.3025317"><ele>138.0</ele><time>2026-05-01T16:50:42.151Z</time></trkpt><trkpt lat="44.8915933" lon="8.3023383"><ele>138.0</ele><time>2026-05-01T16:50:43.15Z</time></trkpt><trkpt lat="44.8917667" lon="8.3021433"><ele>138.0</ele><time>2026-05-01T16:50:44.153Z</time></trkpt><trkpt lat="44.8919383" lon="8.301945"><ele>135.0</ele><time>2026-05-01T16:50:45.152Z</time></trkpt><trkpt lat="44.8921133" lon="8.3017367"><ele>132.0</ele><time>2026-05-01T16:50:46.155Z</time></trkpt><trkpt lat="44.8923033" lon="8.3015183"><ele>128.5</ele><time>2026-05-01T16:50:47.153Z</time></trkpt><trkpt lat="44.89251" lon="8.301295"><ele>125.0</ele><time>2026-05-01T16:50:48.151Z</time></trkpt><trkpt lat="44.8927233" lon="8.301025"><ele>125.0</ele><time>2026-05-01T16:50:49.154Z</time></trkpt><trkpt lat="44.8929517" lon="8.3007367"><ele>125.0</ele><time>2026-05-01T16:50:50.154Z</time></trkpt><trkpt lat="44.8931967" lon="8.3004383"><ele>122.0</ele><time>2026-05-01T16:50:51.153Z</time></trkpt><trkpt lat="44.8934567" lon="8.3001367"><ele>119.0</ele><time>2026-05-01T16:50:52.155Z</time></trkpt><trkpt lat="44.8937283" lon="8.2998317"><ele>116.5</ele><time>2026-05-01T16:50:53.151Z</time></trkpt><trkpt lat="44.8939967" lon="8.299525"><ele>114.0</ele><time>2026-05-01T16:50:54.154Z</time></trkpt><trkpt lat="44.8942533" lon="8.29923"><ele>115.5</ele><time>2026-05-01T16:50:55.151Z</time></trkpt><trkpt lat="44.894495" lon="8.298945"><ele>117.0</ele><time>2026-05-01T16:50:56.156Z</time></trkpt><trkpt lat="44.8947267" lon="8.2986683"><ele>117.0</ele><time>2026-05-01T16:50:57.151Z</time></trkpt><trkpt lat="44.89495" lon="8.2984"><ele>117.0</ele><time>2026-05-01T16:50:58.15Z</time></trkpt><trkpt lat="44.8951667" lon="8.2981417"><ele>117.0</ele><time>2026-05-01T16:50:59.152Z</time></trkpt><trkpt lat="44.8953733" lon="8.2978933"><ele>117.0</ele><time>2026-05-01T16:51:00.154Z</time></trkpt><trkpt lat="44.8955783" lon="8.2976517"><ele>117.0</ele><time>2026-05-01T16:51:01.153Z</time></trkpt><trkpt lat="44.89578" lon="8.2974133"><ele>117.0</ele><time>2026-05-01T16:51:02.15Z</time></trkpt><trkpt lat="44.89598" lon="8.2971783"><ele>117.0</ele><time>2026-05-01T16:51:03.152Z</time></trkpt><trkpt lat="44.89618" lon="8.2969417"><ele>117.0</ele><time>2026-05-01T16:51:04.151Z</time></trkpt><trkpt lat="44.89638" lon="8.296705"><ele>117.0</ele><time>2026-05-01T16:51:05.151Z</time></trkpt><trkpt lat="44.8965833" lon="8.2964683"><ele>117.0</ele><time>2026-05-01T16:51:06.152Z</time></trkpt><trkpt lat="44.8967883" lon="8.2962233"><ele>117.0</ele><time>2026-05-01T16:51:07.15Z</time></trkpt><trkpt lat="44.8969967" lon="8.2959733"><ele>117.0</ele><time>2026-05-01T16:51:08.152Z</time></trkpt><trkpt lat="44.8972083" lon="8.2957183"><ele>117.0</ele><time>2026-05-01T16:51:09.155Z</time></trkpt><trkpt lat="44.8974267" lon="8.29546"><ele>117.0</ele><time>2026-05-01T16:51:10.15Z</time></trkpt><trkpt lat="44.8976533" lon="8.2951933"><ele>117.0</ele><time>2026-05-01T16:51:11.156Z</time></trkpt><trkpt lat="44.8978917" lon="8.29491"><ele>117.0</ele><time>2026-05-01T16:51:12.152Z</time></trkpt><trkpt lat="44.8981467" lon="8.29461"><ele>117.0</ele><time>2026-05-01T16:51:13.152Z</time></trkpt><trkpt lat="44.8984" lon="8.2943083"><ele>117.0</ele><time>2026-05-01T16:51:14.154Z</time></trkpt><trkpt lat="44.8986417" lon="8.2940233"><ele>116.5</ele><time>2026-05-01T16:51:15.154Z</time></trkpt><trkpt lat="44.8988767" lon="8.2937533"><ele>116.0</ele><time>2026-05-01T16:51:16.156Z</time></trkpt><trkpt lat="44.8990967" lon="8.2934983"><ele>115.5</ele><time>2026-05-01T16:51:17.151Z</time></trkpt><trkpt lat="44.8993017" lon="8.2932567"><ele>115.0</ele><time>2026-05-01T16:51:18.151Z</time></trkpt><trkpt lat="44.8994967" lon="8.2930283"><ele>115.0</ele><time>2026-05-01T16:51:19.157Z</time></trkpt><trkpt lat="44.899685" lon="8.2928117"><ele>115.0</ele><time>2026-05-01T16:51:20.152Z</time></trkpt><trkpt lat="44.8998667" lon="8.2926"><ele>115.0</ele><time>2026-05-01T16:51:21.152Z</time></trkpt><trkpt lat="44.9000417" lon="8.29239"><ele>115.0</ele><time>2026-05-01T16:51:22.151Z</time></trkpt><trkpt lat="44.9002117" lon="8.2921867"><ele>115.66666666666667</ele><time>2026-05-01T16:51:23.155Z</time></trkpt><trkpt lat="44.90038" lon="8.2919883"><ele>116.33333333333334</ele><time>2026-05-01T16:51:24.149Z</time></trkpt><trkpt lat="44.9005467" lon="8.291795"><ele>117.0</ele><time>2026-05-01T16:51:25.151Z</time></trkpt><trkpt lat="44.900715" lon="8.2915967"><ele>117.0</ele><time>2026-05-01T16:51:26.151Z</time></trkpt><trkpt lat="44.9008833" lon="8.2914"><ele>117.0</ele><time>2026-05-01T16:51:27.151Z</time></trkpt><trkpt lat="44.9010517" lon="8.291205"><ele>117.0</ele><time>2026-05-01T16:51:28.152Z</time></trkpt><trkpt lat="44.9012167" lon="8.2910083"><ele>117.33333333333334</ele><time>2026-05-01T16:51:29.157Z</time></trkpt><trkpt lat="44.90138" lon="8.2908117"><ele>117.66666666666667</ele><time>2026-05-01T16:51:30.152Z</time></trkpt><trkpt lat="44.90154" lon="8.29062"><ele>118.0</ele><time>2026-05-01T16:51:31.152Z</time></trkpt><trkpt lat="44.9017" lon="8.2904283"><ele>117.0</ele><time>2026-05-01T16:51:32.151Z</time></trkpt><trkpt lat="44.9018567" lon="8.2902433"><ele>116.0</ele><time>2026-05-01T16:51:33.151Z</time></trkpt><trkpt lat="44.9020083" lon="8.2900617"><ele>115.0</ele><time>2026-05-01T16:51:34.154Z</time></trkpt><trkpt lat="44.902155" lon="8.2898833"><ele>115.66666666666667</ele><time>2026-05-01T16:51:35.157Z</time></trkpt><trkpt lat="44.9022983" lon="8.28971"><ele>116.33333333333334</ele><time>2026-05-01T16:51:36.152Z</time></trkpt><trkpt lat="44.90244" lon="8.28954"><ele>117.0</ele><time>2026-05-01T16:51:37.153Z</time></trkpt><trkpt lat="44.9025783" lon="8.2893717"><ele>117.0</ele><time>2026-05-01T16:51:38.154Z</time></trkpt><trkpt lat="44.9027117" lon="8.2892117"><ele>117.0</ele><time>2026-05-01T16:51:39.154Z</time></trkpt><trkpt lat="44.9028433" lon="8.2890567"><ele>117.0</ele><time>2026-05-01T16:51:40.156Z</time></trkpt><trkpt lat="44.902975" lon="8.2889083"><ele>116.66666666666666</ele><time>2026-05-01T16:51:41.15Z</time></trkpt><trkpt lat="44.9031033" lon="8.28876"><ele>116.33333333333333</ele><time>2026-05-01T16:51:42.151Z</time></trkpt><trkpt lat="44.9032317" lon="8.2886117"><ele>116.0</ele><time>2026-05-01T16:51:43.157Z</time></trkpt><trkpt lat="44.9033667" lon="8.2884567"><ele>115.66666666666666</ele><time>2026-05-01T16:51:44.153Z</time></trkpt><trkpt lat="44.9035033" lon="8.2883017"><ele>115.33333333333334</ele><time>2026-05-01T16:51:45.153Z</time></trkpt><trkpt lat="44.90364" lon="8.2881383"><ele>115.0</ele><time>2026-05-01T16:51:46.152Z</time></trkpt><trkpt lat="44.9037783" lon="8.287975"><ele>115.0</ele><time>2026-05-01T16:51:47.154Z</time></trkpt><trkpt lat="44.9039133" lon="8.2878117"><ele>115.0</ele><time>2026-05-01T16:51:48.149Z</time></trkpt><trkpt lat="44.90405" lon="8.2876467"><ele>115.0</ele><time>2026-05-01T16:51:49.15Z</time></trkpt><trkpt lat="44.9041833" lon="8.2874867"><ele>115.66666666666667</ele><time>2026-05-01T16:51:50.15Z</time></trkpt><trkpt lat="44.9043167" lon="8.287325"><ele>116.33333333333334</ele><time>2026-05-01T16:51:51.15Z</time></trkpt><trkpt lat="44.90445" lon="8.2871667"><ele>117.0</ele><time>2026-05-01T16:51:52.151Z</time></trkpt><trkpt lat="44.9045833" lon="8.28701"><ele>117.0</ele><time>2026-05-01T16:51:53.153Z</time></trkpt><trkpt lat="44.9047133" lon="8.2868533"><ele>117.0</ele><time>2026-05-01T16:51:54.151Z</time></trkpt><trkpt lat="44.9048433" lon="8.286695"><ele>117.0</ele><time>2026-05-01T16:51:55.154Z</time></trkpt><trkpt lat="44.9049767" lon="8.2865333"><ele>117.66666666666666</ele><time>2026-05-01T16:51:56.151Z</time></trkpt><trkpt lat="44.9051117" lon="8.28637"><ele>118.33333333333333</ele><time>2026-05-01T16:51:57.153Z</time></trkpt><trkpt lat="44.90525" lon="8.2862067"><ele>119.0</ele><time>2026-05-01T16:51:58.153Z</time></trkpt><trkpt lat="44.90539" lon="8.2860417"><ele>119.0</ele><time>2026-05-01T16:51:59.155Z</time></trkpt><trkpt lat="44.9055317" lon="8.2858733"><ele>119.0</ele><time>2026-05-01T16:52:00.15Z</time></trkpt><trkpt lat="44.90567" lon="8.285705"><ele>119.0</ele><time>2026-05-01T16:52:01.161Z</time></trkpt><trkpt lat="44.9058017" lon="8.2855483"><ele>119.66666666666666</ele><time>2026-05-01T16:52:02.153Z</time></trkpt><trkpt lat="44.9059267" lon="8.2853983"><ele>120.33333333333334</ele><time>2026-05-01T16:52:03.152Z</time></trkpt><trkpt lat="44.90605" lon="8.2852533"><ele>121.0</ele><time>2026-05-01T16:52:04.151Z</time></trkpt><trkpt lat="44.9061717" lon="8.28511"><ele>121.0</ele><time>2026-05-01T16:52:05.154Z</time></trkpt><trkpt lat="44.9062933" lon="8.2849717"><ele>121.0</ele><time>2026-05-01T16:52:06.158Z</time></trkpt><trkpt lat="44.906415" lon="8.2848333"><ele>121.0</ele><time>2026-05-01T16:52:07.151Z</time></trkpt><trkpt lat="44.9065367" lon="8.284695"><ele>120.75</ele><time>2026-05-01T16:52:08.157Z</time></trkpt><trkpt lat="44.906655" lon="8.2845567"><ele>120.5</ele><time>2026-05-01T16:52:09.155Z</time></trkpt><trkpt lat="44.9067683" lon="8.28442"><ele>120.25</ele><time>2026-05-01T16:52:10.151Z</time></trkpt><trkpt lat="44.9068767" lon="8.2842883"><ele>120.0</ele><time>2026-05-01T16:52:11.149Z</time></trkpt><trkpt lat="44.906975" lon="8.2841667"><ele>120.33333333333333</ele><time>2026-05-01T16:52:12.152Z</time></trkpt><trkpt lat="44.9070583" lon="8.284055"><ele>120.66666666666666</ele><time>2026-05-01T16:52:13.16Z</time></trkpt><trkpt lat="44.9071183" lon="8.2839617"><ele>121.0</ele><time>2026-05-01T16:52:14.152Z</time></trkpt><trkpt lat="44.907165" lon="8.2838817"><ele>121.33333333333333</ele><time>2026-05-01T16:52:15.152Z</time></trkpt><trkpt lat="44.9072117" lon="8.2838067"><ele>121.66666666666666</ele><time>2026-05-01T16:52:16.154Z</time></trkpt><trkpt lat="44.9072583" lon="8.2837133"><ele>122.0</ele><time>2026-05-01T16:52:17.15Z</time></trkpt><trkpt lat="44.90731" lon="8.2835983"><ele>122.0</ele><time>2026-05-01T16:52:18.151Z</time></trkpt><trkpt lat="44.907355" lon="8.2834267"><ele>122.0</ele><time>2026-05-01T16:52:19.155Z</time></trkpt><trkpt lat="44.907365" lon="8.2832133"><ele>122.0</ele><time>2026-05-01T16:52:20.152Z</time></trkpt><trkpt lat="44.907365" lon="8.2829717"><ele>122.0</ele><time>2026-05-01T16:52:21.156Z</time></trkpt><trkpt lat="44.90736" lon="8.2827183"><ele>122.0</ele><time>2026-05-01T16:52:22.153Z</time></trkpt><trkpt lat="44.90735" lon="8.2824633"><ele>122.0</ele><time>2026-05-01T16:52:23.154Z</time></trkpt><trkpt lat="44.90734" lon="8.2822017"><ele>121.33333333333333</ele><time>2026-05-01T16:52:24.154Z</time></trkpt><trkpt lat="44.9073317" lon="8.2819283"><ele>120.66666666666666</ele><time>2026-05-01T16:52:25.154Z</time></trkpt><trkpt lat="44.9073217" lon="8.28166"><ele>120.0</ele><time>2026-05-01T16:52:26.153Z</time></trkpt><trkpt lat="44.9073133" lon="8.2813983"><ele>119.66666666666666</ele><time>2026-05-01T16:52:27.153Z</time></trkpt><trkpt lat="44.9073" lon="8.28113"><ele>119.33333333333333</ele><time>2026-05-01T16:52:28.159Z</time></trkpt><trkpt lat="44.90729" lon="8.2808567"><ele>119.0</ele><time>2026-05-01T16:52:29.154Z</time></trkpt><trkpt lat="44.9072783" lon="8.2805717"><ele>118.33333333333333</ele><time>2026-05-01T16:52:30.161Z</time></trkpt><trkpt lat="44.9072667" lon="8.28027"><ele>117.66666666666666</ele><time>2026-05-01T16:52:31.152Z</time></trkpt><trkpt lat="44.907255" lon="8.2799733"><ele>117.0</ele><time>2026-05-01T16:52:32.159Z</time></trkpt><trkpt lat="44.907245" lon="8.27969"><ele>117.0</ele><time>2026-05-01T16:52:33.155Z</time></trkpt><trkpt lat="44.9072383" lon="8.2794167"><ele>117.0</ele><time>2026-05-01T16:52:34.152Z</time></trkpt><trkpt lat="44.9072333" lon="8.27915"><ele>117.0</ele><time>2026-05-01T16:52:35.152Z</time></trkpt><trkpt lat="44.9072283" lon="8.278895"><ele>117.0</ele><time>2026-05-01T16:52:36.15Z</time></trkpt><trkpt lat="44.9072217" lon="8.2786517"><ele>117.0</ele><time>2026-05-01T16:52:37.152Z</time></trkpt><trkpt lat="44.9072133" lon="8.2784217"><ele>117.0</ele><time>2026-05-01T16:52:38.149Z</time></trkpt><trkpt lat="44.9072083" lon="8.2781967"><ele>116.75</ele><time>2026-05-01T16:52:39.152Z</time></trkpt><trkpt lat="44.9072033" lon="8.2779783"><ele>116.5</ele><time>2026-05-01T16:52:40.15Z</time></trkpt><trkpt lat="44.9072" lon="8.277765"><ele>116.25</ele><time>2026-05-01T16:52:41.157Z</time></trkpt><trkpt lat="44.9071917" lon="8.277565"><ele>116.0</ele><time>2026-05-01T16:52:42.15Z</time></trkpt><trkpt lat="44.9071883" lon="8.2773633"><ele>116.5</ele><time>2026-05-01T16:52:43.155Z</time></trkpt><trkpt lat="44.907185" lon="8.2771633"><ele>117.0</ele><time>2026-05-01T16:52:44.154Z</time></trkpt><trkpt lat="44.9071817" lon="8.2769583"><ele>117.5</ele><time>2026-05-01T16:52:45.154Z</time></trkpt><trkpt lat="44.907175" lon="8.2767533"><ele>118.0</ele><time>2026-05-01T16:52:46.154Z</time></trkpt><trkpt lat="44.907165" lon="8.27656"><ele>118.5</ele><time>2026-05-01T16:52:47.154Z</time></trkpt><trkpt lat="44.9071583" lon="8.27637"><ele>119.0</ele><time>2026-05-01T16:52:48.156Z</time></trkpt><trkpt lat="44.9071517" lon="8.2761833"><ele>119.5</ele><time>2026-05-01T16:52:49.151Z</time></trkpt><trkpt lat="44.9071467" lon="8.276"><ele>120.0</ele><time>2026-05-01T16:52:50.153Z</time></trkpt><trkpt lat="44.90714" lon="8.2758233"><ele>120.0</ele><time>2026-05-01T16:52:51.151Z</time></trkpt><trkpt lat="44.907135" lon="8.2756567"><ele>120.0</ele><time>2026-05-01T16:52:52.149Z</time></trkpt><trkpt lat="44.9071317" lon="8.27549"><ele>120.0</ele><time>2026-05-01T16:52:53.152Z</time></trkpt><trkpt lat="44.9071283" lon="8.2753217"><ele>120.0</ele><time>2026-05-01T16:52:54.152Z</time></trkpt><trkpt lat="44.9071283" lon="8.2751467"><ele>120.25</ele><time>2026-05-01T16:52:55.15Z</time></trkpt><trkpt lat="44.9071283" lon="8.274965"><ele>120.5</ele><time>2026-05-01T16:52:56.15Z</time></trkpt><trkpt lat="44.9071283" lon="8.2747783"><ele>120.75</ele><time>2026-05-01T16:52:57.154Z</time></trkpt><trkpt lat="44.9071233" lon="8.2745883"><ele>121.0</ele><time>2026-05-01T16:52:58.156Z</time></trkpt><trkpt lat="44.907115" lon="8.2744033"><ele>121.0</ele><time>2026-05-01T16:52:59.153Z</time></trkpt><trkpt lat="44.907105" lon="8.27423"><ele>121.0</ele><time>2026-05-01T16:53:00.153Z</time></trkpt><trkpt lat="44.9070983" lon="8.274065"><ele>121.0</ele><time>2026-05-01T16:53:01.152Z</time></trkpt><trkpt lat="44.9070883" lon="8.2739183"><ele>121.0</ele><time>2026-05-01T16:53:02.155Z</time></trkpt><trkpt lat="44.9070817" lon="8.273775"><ele>121.0</ele><time>2026-05-01T16:53:03.153Z</time></trkpt><trkpt lat="44.9070783" lon="8.2736383"><ele>120.66666666666667</ele><time>2026-05-01T16:53:04.155Z</time></trkpt><trkpt lat="44.9070717" lon="8.2735117"><ele>120.33333333333334</ele><time>2026-05-01T16:53:05.153Z</time></trkpt><trkpt lat="44.90707" lon="8.273395"><ele>120.0</ele><time>2026-05-01T16:53:06.154Z</time></trkpt><trkpt lat="44.907075" lon="8.273285"><ele>119.66666666666666</ele><time>2026-05-01T16:53:07.152Z</time></trkpt><trkpt lat="44.9070883" lon="8.273185"><ele>119.33333333333333</ele><time>2026-05-01T16:53:08.155Z</time></trkpt><trkpt lat="44.9071067" lon="8.273095"><ele>119.0</ele><time>2026-05-01T16:53:09.151Z</time></trkpt><trkpt lat="44.907135" lon="8.27301"><ele>118.57142857142857</ele><time>2026-05-01T16:53:10.151Z</time></trkpt><trkpt lat="44.9071733" lon="8.2729317"><ele>118.14285714285714</ele><time>2026-05-01T16:53:11.152Z</time></trkpt><trkpt lat="44.9072267" lon="8.2728583"><ele>117.71428571428572</ele><time>2026-05-01T16:53:12.151Z</time></trkpt><trkpt lat="44.9072833" lon="8.2728067"><ele>117.28571428571429</ele><time>2026-05-01T16:53:13.152Z</time></trkpt><trkpt lat="44.907355" lon="8.2727867"><ele>116.85714285714286</ele><time>2026-05-01T16:53:14.151Z</time></trkpt><trkpt lat="44.9074267" lon="8.2727833"><ele>116.42857142857144</ele><time>2026-05-01T16:53:15.153Z</time></trkpt><trkpt lat="44.9075083" lon="8.2728317"><ele>116.00000000000001</ele><time>2026-05-01T16:53:16.157Z</time></trkpt><trkpt lat="44.9075917" lon="8.2729533"><ele>116.5</ele><time>2026-05-01T16:53:17.155Z</time></trkpt><trkpt lat="44.9076783" lon="8.2731267"><ele>117.0</ele><time>2026-05-01T16:53:18.149Z</time></trkpt><trkpt lat="44.9077667" lon="8.2732483"><ele>117.5</ele><time>2026-05-01T16:53:19.152Z</time></trkpt><trkpt lat="44.9078633" lon="8.2733367"><ele>118.0</ele><time>2026-05-01T16:53:20.151Z</time></trkpt><trkpt lat="44.9080083" lon="8.2733983"><ele>118.0</ele><time>2026-05-01T16:53:21.148Z</time></trkpt><trkpt lat="44.9081733" lon="8.273455"><ele>118.0</ele><time>2026-05-01T16:53:22.152Z</time></trkpt><trkpt lat="44.9083317" lon="8.27351"><ele>118.0</ele><time>2026-05-01T16:53:23.153Z</time></trkpt><trkpt lat="44.9084933" lon="8.2735633"><ele>118.0</ele><time>2026-05-01T16:53:24.152Z</time></trkpt><trkpt lat="44.9086617" lon="8.2736067"><ele>118.0</ele><time>2026-05-01T16:53:25.152Z</time></trkpt><trkpt lat="44.908835" lon="8.2736533"><ele>118.0</ele><time>2026-05-01T16:53:26.15Z</time></trkpt><trkpt lat="44.9090117" lon="8.2737083"><ele>118.0</ele><time>2026-05-01T16:53:27.154Z</time></trkpt><trkpt lat="44.9091817" lon="8.2737717"><ele>118.0</ele><time>2026-05-01T16:53:28.155Z</time></trkpt><trkpt lat="44.909345" lon="8.27383"><ele>118.0</ele><time>2026-05-01T16:53:29.156Z</time></trkpt><trkpt lat="44.9095117" lon="8.2738867"><ele>118.33333333333334</ele><time>2026-05-01T16:53:30.152Z</time></trkpt><trkpt lat="44.9096717" lon="8.273935"><ele>118.66666666666666</ele><time>2026-05-01T16:53:31.152Z</time></trkpt><trkpt lat="44.90983" lon="8.2739767"><ele>119.0</ele><time>2026-05-01T16:53:32.153Z</time></trkpt><trkpt lat="44.9099833" lon="8.274015"><ele>121.33333333333333</ele><time>2026-05-01T16:53:33.151Z</time></trkpt><trkpt lat="44.9101383" lon="8.27405"><ele>123.66666666666666</ele><time>2026-05-01T16:53:34.157Z</time></trkpt><trkpt lat="44.9102983" lon="8.2740767"><ele>126.0</ele><time>2026-05-01T16:53:35.152Z</time></trkpt><trkpt lat="44.9104567" lon="8.2740983"><ele>126.0</ele><time>2026-05-01T16:53:36.154Z</time></trkpt><trkpt lat="44.9106133" lon="8.27413"><ele>126.0</ele><time>2026-05-01T16:53:37.153Z</time></trkpt><trkpt lat="44.91077" lon="8.27416"><ele>126.0</ele><time>2026-05-01T16:53:38.15Z</time></trkpt><trkpt lat="44.910915" lon="8.2742067"><ele>125.6</ele><time>2026-05-01T16:53:39.152Z</time></trkpt><trkpt lat="44.911045" lon="8.2742467"><ele>125.19999999999999</ele><time>2026-05-01T16:53:40.151Z</time></trkpt><trkpt lat="44.9111517" lon="8.2743"><ele>124.80000000000001</ele><time>2026-05-01T16:53:41.156Z</time></trkpt><trkpt lat="44.91123" lon="8.274365"><ele>124.4</ele><time>2026-05-01T16:53:42.156Z</time></trkpt><trkpt lat="44.911295" lon="8.2744117"><ele>124.0</ele><time>2026-05-01T16:53:43.155Z</time></trkpt><trkpt lat="44.9113567" lon="8.27444"><ele>124.0</ele><time>2026-05-01T16:53:44.155Z</time></trkpt><trkpt lat="44.911425" lon="8.2744417"><ele>124.0</ele><time>2026-05-01T16:53:45.15Z</time></trkpt><trkpt lat="44.9115017" lon="8.27442"><ele>124.0</ele><time>2026-05-01T16:53:46.152Z</time></trkpt><trkpt lat="44.9115933" lon="8.2743683"><ele>124.0</ele><time>2026-05-01T16:53:47.151Z</time></trkpt><trkpt lat="44.9116983" lon="8.2742967"><ele>124.0</ele><time>2026-05-01T16:53:48.156Z</time></trkpt><trkpt lat="44.9118183" lon="8.274235"><ele>124.0</ele><time>2026-05-01T16:53:49.154Z</time></trkpt><trkpt lat="44.911935" lon="8.2741933"><ele>124.0</ele><time>2026-05-01T16:53:50.151Z</time></trkpt><trkpt lat="44.9120617" lon="8.2741633"><ele>124.0</ele><time>2026-05-01T16:53:51.154Z</time></trkpt><trkpt lat="44.912175" lon="8.2741567"><ele>124.0</ele><time>2026-05-01T16:53:52.151Z</time></trkpt><trkpt lat="44.9122917" lon="8.2741633"><ele>124.0</ele><time>2026-05-01T16:53:53.152Z</time></trkpt><trkpt lat="44.9124133" lon="8.2741767"><ele>124.0</ele><time>2026-05-01T16:53:54.153Z</time></trkpt><trkpt lat="44.91253" lon="8.2742067"><ele>124.0</ele><time>2026-05-01T16:53:55.15Z</time></trkpt><trkpt lat="44.9126467" lon="8.2742267"><ele>124.0</ele><time>2026-05-01T16:53:56.15Z</time></trkpt><trkpt lat="44.9127583" lon="8.2742467"><ele>123.80000000000001</ele><time>2026-05-01T16:53:57.154Z</time></trkpt><trkpt lat="44.9128767" lon="8.2742283"><ele>123.60000000000001</ele><time>2026-05-01T16:53:58.153Z</time></trkpt><trkpt lat="44.9129817" lon="8.274215"><ele>123.4</ele><time>2026-05-01T16:53:59.151Z</time></trkpt><trkpt lat="44.9130883" lon="8.2741567"><ele>123.2</ele><time>2026-05-01T16:54:00.156Z</time></trkpt><trkpt lat="44.9131817" lon="8.2740917"><ele>123.0</ele><time>2026-05-01T16:54:01.153Z</time></trkpt><trkpt lat="44.9132667" lon="8.2740083"><ele>123.2</ele><time>2026-05-01T16:54:02.154Z</time></trkpt><trkpt lat="44.9133483" lon="8.2739117"><ele>123.4</ele><time>2026-05-01T16:54:03.153Z</time></trkpt><trkpt lat="44.9134317" lon="8.2738067"><ele>123.60000000000001</ele><time>2026-05-01T16:54:04.154Z</time></trkpt><trkpt lat="44.9135167" lon="8.2737"><ele>123.80000000000001</ele><time>2026-05-01T16:54:05.151Z</time></trkpt><trkpt lat="44.9136017" lon="8.2736"><ele>124.0</ele><time>2026-05-01T16:54:06.15Z</time></trkpt><trkpt lat="44.9136883" lon="8.2735"><ele>124.0</ele><time>2026-05-01T16:54:07.153Z</time></trkpt><trkpt lat="44.9137783" lon="8.2734033"><ele>124.0</ele><time>2026-05-01T16:54:08.15Z</time></trkpt><trkpt lat="44.9138783" lon="8.2733017"><ele>124.0</ele><time>2026-05-01T16:54:09.151Z</time></trkpt><trkpt lat="44.9139767" lon="8.2732033"><ele>124.0</ele><time>2026-05-01T16:54:10.155Z</time></trkpt><trkpt lat="44.9140817" lon="8.2731117"><ele>124.75</ele><time>2026-05-01T16:54:11.153Z</time></trkpt><trkpt lat="44.9141867" lon="8.2730267"><ele>125.5</ele><time>2026-05-01T16:54:12.155Z</time></trkpt><trkpt lat="44.9142967" lon="8.2729583"><ele>126.25</ele><time>2026-05-01T16:54:13.159Z</time></trkpt><trkpt lat="44.9144067" lon="8.2729067"><ele>127.0</ele><time>2026-05-01T16:54:14.155Z</time></trkpt><trkpt lat="44.914525" lon="8.2728567"><ele>127.5</ele><time>2026-05-01T16:54:15.158Z</time></trkpt><trkpt lat="44.91465" lon="8.2728"><ele>128.0</ele><time>2026-05-01T16:54:16.151Z</time></trkpt><trkpt lat="44.9147767" lon="8.2727433"><ele>128.5</ele><time>2026-05-01T16:54:17.152Z</time></trkpt><trkpt lat="44.914905" lon="8.2727"><ele>129.0</ele><time>2026-05-01T16:54:18.154Z</time></trkpt><trkpt lat="44.91503" lon="8.2726583"><ele>128.75</ele><time>2026-05-01T16:54:19.153Z</time></trkpt><trkpt lat="44.91516" lon="8.2726183"><ele>128.5</ele><time>2026-05-01T16:54:20.153Z</time></trkpt><trkpt lat="44.91529" lon="8.2725733"><ele>128.25</ele><time>2026-05-01T16:54:21.153Z</time></trkpt><trkpt lat="44.91542" lon="8.2725233"><ele>128.0</ele><time>2026-05-01T16:54:22.152Z</time></trkpt><trkpt lat="44.915555" lon="8.2724617"><ele>128.0</ele><time>2026-05-01T16:54:23.153Z</time></trkpt><trkpt lat="44.9156883" lon="8.2723983"><ele>128.0</ele><time>2026-05-01T16:54:24.153Z</time></trkpt><trkpt lat="44.9158233" lon="8.27233"><ele>128.0</ele><time>2026-05-01T16:54:25.151Z</time></trkpt><trkpt lat="44.915965" lon="8.2722517"><ele>128.0</ele><time>2026-05-01T16:54:26.155Z</time></trkpt><trkpt lat="44.9161033" lon="8.2721883"><ele>129.5</ele><time>2026-05-01T16:54:27.151Z</time></trkpt><trkpt lat="44.9162333" lon="8.2721467"><ele>131.0</ele><time>2026-05-01T16:54:28.151Z</time></trkpt><trkpt lat="44.9163583" lon="8.272125"><ele>132.5</ele><time>2026-05-01T16:54:29.151Z</time></trkpt><trkpt lat="44.916475" lon="8.272135"><ele>134.0</ele><time>2026-05-01T16:54:30.155Z</time></trkpt><trkpt lat="44.91659" lon="8.2721683"><ele>134.0</ele><time>2026-05-01T16:54:31.156Z</time></trkpt><trkpt lat="44.9167067" lon="8.2722183"><ele>134.0</ele><time>2026-05-01T16:54:32.156Z</time></trkpt><trkpt lat="44.916825" lon="8.2722933"><ele>134.0</ele><time>2026-05-01T16:54:33.15Z</time></trkpt><trkpt lat="44.91695" lon="8.2723867"><ele>134.0</ele><time>2026-05-01T16:54:34.151Z</time></trkpt><trkpt lat="44.917085" lon="8.2724833"><ele>131.66666666666666</ele><time>2026-05-01T16:54:35.154Z</time></trkpt><trkpt lat="44.9172317" lon="8.2725817"><ele>129.33333333333334</ele><time>2026-05-01T16:54:36.152Z</time></trkpt><trkpt lat="44.917375" lon="8.2726683"><ele>127.0</ele><time>2026-05-01T16:54:37.15Z</time></trkpt><trkpt lat="44.9175133" lon="8.2727417"><ele>127.25</ele><time>2026-05-01T16:54:38.151Z</time></trkpt><trkpt lat="44.9176483" lon="8.2728"><ele>127.5</ele><time>2026-05-01T16:54:39.149Z</time></trkpt><trkpt lat="44.9177783" lon="8.27284"><ele>127.75</ele><time>2026-05-01T16:54:40.154Z</time></trkpt><trkpt lat="44.9179033" lon="8.272865"><ele>128.0</ele><time>2026-05-01T16:54:41.153Z</time></trkpt><trkpt lat="44.918025" lon="8.2728817"><ele>128.0</ele><time>2026-05-01T16:54:42.151Z</time></trkpt><trkpt lat="44.9181383" lon="8.2728883"><ele>128.0</ele><time>2026-05-01T16:54:43.153Z</time></trkpt><trkpt lat="44.9182417" lon="8.272885"><ele>128.0</ele><time>2026-05-01T16:54:44.153Z</time></trkpt><trkpt lat="44.9183283" lon="8.2728883"><ele>128.0</ele><time>2026-05-01T16:54:45.152Z</time></trkpt><trkpt lat="44.9183967" lon="8.2728933"><ele>128.0</ele><time>2026-05-01T16:54:46.153Z</time></trkpt><trkpt lat="44.9184767" lon="8.2728683"><ele>128.5</ele><time>2026-05-01T16:54:48.153Z</time></trkpt><trkpt lat="44.9185017" lon="8.2727767"><ele>129.0</ele><time>2026-05-01T16:54:50.151Z</time></trkpt><trkpt lat="44.9184883" lon="8.2726283"><ele>129.5</ele><time>2026-05-01T16:54:52.152Z</time></trkpt><trkpt lat="44.9184883" lon="8.2724933"><ele>130.0</ele><time>2026-05-01T16:54:54.154Z</time></trkpt><trkpt lat="44.9185133" lon="8.2724"><ele>130.5</ele><time>2026-05-01T16:54:57.153Z</time></trkpt><trkpt lat="44.9185767" lon="8.2723633"><ele>131.0</ele><time>2026-05-01T16:55:29.15Z</time></trkpt><trkpt lat="44.9186433" lon="8.2723067"><ele>131.0</ele><time>2026-05-01T16:55:31.152Z</time></trkpt><trkpt lat="44.9186917" lon="8.2722467"><ele>140.0</ele><time>2026-05-01T16:55:33.149Z</time></trkpt><trkpt lat="44.9187283" lon="8.2721617"><ele>140.0</ele><time>2026-05-01T16:55:36.152Z</time></trkpt></trkseg></trk></gpx>